<?xml version="1.0" encoding="UTF-8"?>
<gpx version="1.1" creator="https://www.youtrack.es" xsi:schemaLocation="http://www.topografix.com/GPX/1/1 http://www.topografix.com/GPX/1/1/gpx.xsd http://www.garmin.com/xmlschemas/GpxExtensions/v3 http://www.garmin.com/xmlschemas/GpxExtensionsv3.xsd http://www.garmin.com/xmlschemas/TrackPointExtension/v1 http://www.garmin.com/xmlschemas/TrackPointExtensionv1.xsd" xmlns:gpxtpx="http://www.garmin.com/xmlschemas/TrackPointExtension/v1" xmlns:gpxx="http://www.garmin.com/xmlschemas/GpxExtensions/v3" xmlns:xsi="http://www.w3.org/2001/XMLSchema-instance">
  <metadata>
    <link href="https://www.youtrack.es">
      <text>YouTrack.es</text>
    </link>
    <time>2026-05-09T01:16:00Z</time>
  </metadata>
  <trk>
    <src>https://www.youtrack.es</src>
    <link href="https://www.youtrack.es/ruta/28976-ruta-del-maestrat">
      <text>YouTrack.es</text>
    </link>
    <trkseg>
      <trkpt lat="40.518949" lon="0.158367">
        <ele>450.869</ele>
        <time>2018-11-10T18:19:16Z</time>
      </trkpt>
      <trkpt lat="40.519216" lon="0.158321">
        <ele>451.004</ele>
        <time>2018-11-10T18:19:36Z</time>
      </trkpt>
      <trkpt lat="40.519379" lon="0.158274">
        <ele>451.424</ele>
        <time>2018-11-10T18:19:56Z</time>
      </trkpt>
      <trkpt lat="40.519644" lon="0.158236">
        <ele>451.508</ele>
        <time>2018-11-10T18:20:16Z</time>
      </trkpt>
      <trkpt lat="40.519826" lon="0.158205">
        <ele>451.489</ele>
        <time>2018-11-10T18:20:36Z</time>
      </trkpt>
      <trkpt lat="40.520195" lon="0.158079">
        <ele>452.476</ele>
        <time>2018-11-10T18:20:56Z</time>
      </trkpt>
      <trkpt lat="40.520271" lon="0.158079">
        <ele>452.850</ele>
        <time>2018-11-10T18:21:16Z</time>
      </trkpt>
      <trkpt lat="40.520510" lon="0.157963">
        <ele>452.258</ele>
        <time>2018-11-10T18:21:36Z</time>
      </trkpt>
      <trkpt lat="40.520767" lon="0.157816">
        <ele>457.596</ele>
        <time>2018-11-10T18:21:56Z</time>
      </trkpt>
      <trkpt lat="40.520811" lon="0.157917">
        <ele>457.219</ele>
        <time>2018-11-10T18:22:16Z</time>
      </trkpt>
      <trkpt lat="40.520855" lon="0.158010">
        <ele>457.026</ele>
        <time>2018-11-10T18:22:36Z</time>
      </trkpt>
      <trkpt lat="40.520912" lon="0.158095">
        <ele>456.396</ele>
        <time>2018-11-10T18:22:56Z</time>
      </trkpt>
      <trkpt lat="40.521013" lon="0.158196">
        <ele>454.961</ele>
        <time>2018-11-10T18:23:16Z</time>
      </trkpt>
      <trkpt lat="40.521298" lon="0.158317">
        <ele>451.321</ele>
        <time>2018-11-10T18:23:36Z</time>
      </trkpt>
      <trkpt lat="40.521361" lon="0.158350">
        <ele>450.413</ele>
        <time>2018-11-10T18:23:56Z</time>
      </trkpt>
      <trkpt lat="40.521487" lon="0.158129">
        <ele>451.608</ele>
        <time>2018-11-10T18:24:16Z</time>
      </trkpt>
      <trkpt lat="40.521630" lon="0.157930">
        <ele>451.959</ele>
        <time>2018-11-10T18:24:36Z</time>
      </trkpt>
      <trkpt lat="40.521765" lon="0.157686">
        <ele>452.476</ele>
        <time>2018-11-10T18:24:56Z</time>
      </trkpt>
      <trkpt lat="40.521882" lon="0.157465">
        <ele>452.570</ele>
        <time>2018-11-10T18:25:16Z</time>
      </trkpt>
      <trkpt lat="40.522008" lon="0.157310">
        <ele>451.498</ele>
        <time>2018-11-10T18:25:36Z</time>
      </trkpt>
      <trkpt lat="40.522196" lon="0.157001">
        <ele>452.336</ele>
        <time>2018-11-10T18:25:56Z</time>
      </trkpt>
      <trkpt lat="40.522340" lon="0.156823">
        <ele>452.939</ele>
        <time>2018-11-10T18:26:16Z</time>
      </trkpt>
      <trkpt lat="40.522484" lon="0.156668">
        <ele>453.856</ele>
        <time>2018-11-10T18:26:36Z</time>
      </trkpt>
      <trkpt lat="40.522645" lon="0.156580">
        <ele>453.766</ele>
        <time>2018-11-10T18:26:56Z</time>
      </trkpt>
      <trkpt lat="40.522816" lon="0.156414">
        <ele>454.934</ele>
        <time>2018-11-10T18:27:16Z</time>
      </trkpt>
      <trkpt lat="40.522897" lon="0.156270">
        <ele>455.955</ele>
        <time>2018-11-10T18:27:36Z</time>
      </trkpt>
      <trkpt lat="40.522996" lon="0.156160">
        <ele>455.610</ele>
        <time>2018-11-10T18:27:56Z</time>
      </trkpt>
      <trkpt lat="40.523139" lon="0.155894">
        <ele>455.908</ele>
        <time>2018-11-10T18:28:16Z</time>
      </trkpt>
      <trkpt lat="40.523238" lon="0.155728">
        <ele>456.116</ele>
        <time>2018-11-10T18:28:36Z</time>
      </trkpt>
      <trkpt lat="40.523427" lon="0.155330">
        <ele>477.923</ele>
        <time>2018-04-02T06:38:13Z</time>
      </trkpt>
      <trkpt lat="40.523732" lon="0.154345">
        <ele>469.297</ele>
        <time>2018-04-02T06:39:34Z</time>
      </trkpt>
      <trkpt lat="40.523696" lon="0.154046">
        <ele>462.995</ele>
        <time>2018-11-10T18:29:36Z</time>
      </trkpt>
      <trkpt lat="40.523696" lon="0.153759">
        <ele>464.013</ele>
        <time>2018-11-10T18:29:56Z</time>
      </trkpt>
      <trkpt lat="40.523777" lon="0.153405">
        <ele>467.166</ele>
        <time>2018-11-10T18:30:16Z</time>
      </trkpt>
      <trkpt lat="40.523840" lon="0.153095">
        <ele>467.433</ele>
        <time>2018-11-10T18:30:36Z</time>
      </trkpt>
      <trkpt lat="40.523912" lon="0.152752">
        <ele>468.063</ele>
        <time>2018-11-10T18:30:56Z</time>
      </trkpt>
      <trkpt lat="40.523993" lon="0.152331">
        <ele>472.075</ele>
        <time>2018-11-10T18:31:16Z</time>
      </trkpt>
      <trkpt lat="40.524092" lon="0.152033">
        <ele>473.328</ele>
        <time>2018-11-10T18:31:36Z</time>
      </trkpt>
      <trkpt lat="40.524145" lon="0.151878">
        <ele>473.120</ele>
        <time>2018-11-10T18:31:56Z</time>
      </trkpt>
      <trkpt lat="40.524217" lon="0.151701">
        <ele>472.808</ele>
        <time>2018-11-10T18:32:16Z</time>
      </trkpt>
      <trkpt lat="40.524262" lon="0.151557">
        <ele>459.180</ele>
        <time>2018-04-02T06:41:01Z</time>
      </trkpt>
      <trkpt lat="40.524541" lon="0.151468">
        <ele>459.177</ele>
        <time>2018-04-02T06:41:02Z</time>
      </trkpt>
      <trkpt lat="40.524684" lon="0.151402">
        <ele>462.591</ele>
        <time>2018-04-02T06:41:18Z</time>
      </trkpt>
      <trkpt lat="40.524994" lon="0.151174">
        <ele>464.959</ele>
        <time>2018-04-02T06:41:35Z</time>
      </trkpt>
      <trkpt lat="40.525096" lon="0.150757">
        <ele>466.357</ele>
        <time>2018-04-02T06:41:48Z</time>
      </trkpt>
      <trkpt lat="40.524967" lon="0.150218">
        <ele>467.830</ele>
        <time>2018-04-02T06:42:02Z</time>
      </trkpt>
      <trkpt lat="40.524914" lon="0.149725">
        <ele>470.727</ele>
        <time>2018-04-02T06:42:16Z</time>
      </trkpt>
      <trkpt lat="40.525240" lon="0.149413">
        <ele>472.637</ele>
        <time>2018-04-02T06:42:31Z</time>
      </trkpt>
      <trkpt lat="40.525723" lon="0.149396">
        <ele>472.675</ele>
        <time>2018-04-02T06:42:46Z</time>
      </trkpt>
      <trkpt lat="40.526293" lon="0.149532">
        <ele>474.028</ele>
        <time>2018-04-02T06:43:05Z</time>
      </trkpt>
      <trkpt lat="40.526706" lon="0.149534">
        <ele>477.420</ele>
        <time>2018-04-02T06:43:20Z</time>
      </trkpt>
      <trkpt lat="40.527006" lon="0.149437">
        <ele>480.808</ele>
        <time>2018-04-02T06:43:33Z</time>
      </trkpt>
      <trkpt lat="40.527241" lon="0.149449">
        <ele>484.190</ele>
        <time>2018-04-02T06:43:45Z</time>
      </trkpt>
      <trkpt lat="40.527460" lon="0.149594">
        <ele>486.547</ele>
        <time>2018-04-02T06:43:59Z</time>
      </trkpt>
      <trkpt lat="40.527586" lon="0.149336">
        <ele>489.471</ele>
        <time>2018-04-02T06:44:11Z</time>
      </trkpt>
      <trkpt lat="40.527704" lon="0.148962">
        <ele>492.819</ele>
        <time>2018-04-02T06:44:26Z</time>
      </trkpt>
      <trkpt lat="40.527846" lon="0.148701">
        <ele>495.757</ele>
        <time>2018-04-02T06:44:39Z</time>
      </trkpt>
      <trkpt lat="40.528095" lon="0.148698">
        <ele>499.540</ele>
        <time>2018-04-02T06:44:52Z</time>
      </trkpt>
      <trkpt lat="40.528371" lon="0.148872">
        <ele>502.997</ele>
        <time>2018-04-02T06:45:08Z</time>
      </trkpt>
      <trkpt lat="40.528649" lon="0.149036">
        <ele>505.377</ele>
        <time>2018-04-02T06:45:24Z</time>
      </trkpt>
      <trkpt lat="40.529020" lon="0.149245">
        <ele>508.645</ele>
        <time>2018-04-02T06:45:44Z</time>
      </trkpt>
      <trkpt lat="40.529309" lon="0.149329">
        <ele>510.647</ele>
        <time>2018-04-02T06:45:59Z</time>
      </trkpt>
      <trkpt lat="40.529622" lon="0.149225">
        <ele>513.411</ele>
        <time>2018-04-02T06:46:16Z</time>
      </trkpt>
      <trkpt lat="40.529903" lon="0.149067">
        <ele>517.308</ele>
        <time>2018-04-02T06:46:32Z</time>
      </trkpt>
      <trkpt lat="40.530146" lon="0.148929">
        <ele>520.287</ele>
        <time>2018-04-02T06:46:45Z</time>
      </trkpt>
      <trkpt lat="40.530431" lon="0.148733">
        <ele>523.514</ele>
        <time>2018-04-02T06:47:00Z</time>
      </trkpt>
      <trkpt lat="40.530681" lon="0.148533">
        <ele>526.428</ele>
        <time>2018-04-02T06:47:14Z</time>
      </trkpt>
      <trkpt lat="40.530974" lon="0.148410">
        <ele>529.826</ele>
        <time>2018-04-02T06:47:30Z</time>
      </trkpt>
      <trkpt lat="40.530990" lon="0.148663">
        <ele>533.144</ele>
        <time>2018-04-02T06:47:42Z</time>
      </trkpt>
      <trkpt lat="40.530726" lon="0.148997">
        <ele>535.517</ele>
        <time>2018-04-02T06:48:00Z</time>
      </trkpt>
      <trkpt lat="40.530633" lon="0.149103">
        <ele>535.554</ele>
        <time>2018-04-02T06:48:07Z</time>
      </trkpt>
      <trkpt lat="40.530472" lon="0.149438">
        <ele>537.574</ele>
        <time>2018-04-02T06:48:22Z</time>
      </trkpt>
      <trkpt lat="40.530614" lon="0.149661">
        <ele>540.429</ele>
        <time>2018-04-02T06:48:35Z</time>
      </trkpt>
      <trkpt lat="40.530792" lon="0.149542">
        <ele>542.800</ele>
        <time>2018-04-02T06:48:47Z</time>
      </trkpt>
      <trkpt lat="40.530934" lon="0.149309">
        <ele>545.220</ele>
        <time>2018-04-02T06:48:59Z</time>
      </trkpt>
      <trkpt lat="40.530952" lon="0.149297">
        <ele>545.608</ele>
        <time>2018-04-02T06:49:00Z</time>
      </trkpt>
      <trkpt lat="40.531197" lon="0.149172">
        <ele>548.575</ele>
        <time>2018-04-02T06:49:14Z</time>
      </trkpt>
      <trkpt lat="40.531455" lon="0.149035">
        <ele>551.412</ele>
        <time>2018-04-02T06:49:28Z</time>
      </trkpt>
      <trkpt lat="40.531732" lon="0.148857">
        <ele>554.896</ele>
        <time>2018-04-02T06:49:43Z</time>
      </trkpt>
      <trkpt lat="40.531984" lon="0.148672">
        <ele>558.154</ele>
        <time>2018-04-02T06:49:57Z</time>
      </trkpt>
      <trkpt lat="40.532237" lon="0.148481">
        <ele>561.082</ele>
        <time>2018-04-02T06:50:12Z</time>
      </trkpt>
      <trkpt lat="40.532516" lon="0.148368">
        <ele>564.415</ele>
        <time>2018-04-02T06:50:27Z</time>
      </trkpt>
      <trkpt lat="40.532805" lon="0.148398">
        <ele>567.332</ele>
        <time>2018-04-02T06:50:41Z</time>
      </trkpt>
      <trkpt lat="40.533059" lon="0.148426">
        <ele>570.692</ele>
        <time>2018-04-02T06:50:54Z</time>
      </trkpt>
      <trkpt lat="40.533389" lon="0.148470">
        <ele>574.023</ele>
        <time>2018-04-02T06:51:11Z</time>
      </trkpt>
      <trkpt lat="40.533650" lon="0.148495">
        <ele>577.483</ele>
        <time>2018-04-02T06:51:25Z</time>
      </trkpt>
      <trkpt lat="40.533855" lon="0.148243">
        <ele>580.711</ele>
        <time>2018-04-02T06:51:41Z</time>
      </trkpt>
      <trkpt lat="40.533935" lon="0.147813">
        <ele>584.108</ele>
        <time>2018-04-02T06:51:57Z</time>
      </trkpt>
      <trkpt lat="40.534083" lon="0.147451">
        <ele>587.565</ele>
        <time>2018-04-02T06:52:13Z</time>
      </trkpt>
      <trkpt lat="40.534255" lon="0.147139">
        <ele>590.892</ele>
        <time>2018-04-02T06:52:28Z</time>
      </trkpt>
      <trkpt lat="40.534420" lon="0.146834">
        <ele>594.276</ele>
        <time>2018-04-02T06:52:43Z</time>
      </trkpt>
      <trkpt lat="40.534526" lon="0.146446">
        <ele>597.614</ele>
        <time>2018-04-02T06:52:59Z</time>
      </trkpt>
      <trkpt lat="40.534631" lon="0.146135">
        <ele>600.472</ele>
        <time>2018-04-02T06:53:13Z</time>
      </trkpt>
      <trkpt lat="40.534671" lon="0.146129">
        <ele>601.445</ele>
        <time>2018-04-02T06:53:15Z</time>
      </trkpt>
      <trkpt lat="40.534692" lon="0.146139">
        <ele>601.452</ele>
        <time>2018-04-02T06:53:16Z</time>
      </trkpt>
      <trkpt lat="40.534710" lon="0.146157">
        <ele>601.932</ele>
        <time>2018-04-02T06:53:17Z</time>
      </trkpt>
      <trkpt lat="40.534725" lon="0.146177">
        <ele>602.446</ele>
        <time>2018-04-02T06:53:18Z</time>
      </trkpt>
      <trkpt lat="40.534736" lon="0.146201">
        <ele>602.488</ele>
        <time>2018-04-02T06:53:19Z</time>
      </trkpt>
      <trkpt lat="40.534742" lon="0.146226">
        <ele>602.816</ele>
        <time>2018-04-02T06:53:20Z</time>
      </trkpt>
      <trkpt lat="40.534746" lon="0.146253">
        <ele>602.808</ele>
        <time>2018-04-02T06:53:21Z</time>
      </trkpt>
      <trkpt lat="40.534746" lon="0.146281">
        <ele>603.337</ele>
        <time>2018-04-02T06:53:22Z</time>
      </trkpt>
      <trkpt lat="40.534744" lon="0.146310">
        <ele>603.324</ele>
        <time>2018-04-02T06:53:23Z</time>
      </trkpt>
      <trkpt lat="40.534740" lon="0.146339">
        <ele>603.818</ele>
        <time>2018-04-02T06:53:24Z</time>
      </trkpt>
      <trkpt lat="40.534639" lon="0.146915">
        <ele>606.796</ele>
        <time>2018-04-02T06:53:44Z</time>
      </trkpt>
      <trkpt lat="40.534533" lon="0.147543">
        <ele>609.624</ele>
        <time>2018-04-02T06:54:06Z</time>
      </trkpt>
      <trkpt lat="40.534502" lon="0.148061">
        <ele>612.547</ele>
        <time>2018-04-02T06:54:24Z</time>
      </trkpt>
      <trkpt lat="40.534563" lon="0.148523">
        <ele>615.314</ele>
        <time>2018-04-02T06:54:41Z</time>
      </trkpt>
      <trkpt lat="40.534430" lon="0.148884">
        <ele>618.244</ele>
        <time>2018-04-02T06:54:55Z</time>
      </trkpt>
      <trkpt lat="40.534503" lon="0.149206">
        <ele>619.735</ele>
        <time>2018-04-02T06:55:08Z</time>
      </trkpt>
      <trkpt lat="40.534968" lon="0.149222">
        <ele>618.786</ele>
        <time>2018-04-02T06:55:24Z</time>
      </trkpt>
      <trkpt lat="40.535139" lon="0.149180">
        <ele>616.814</ele>
        <time>2018-04-02T06:55:28Z</time>
      </trkpt>
      <trkpt lat="40.535185" lon="0.149183">
        <ele>616.308</ele>
        <time>2018-04-02T06:55:29Z</time>
      </trkpt>
      <trkpt lat="40.535240" lon="0.149195">
        <ele>615.346</ele>
        <time>2018-04-02T06:55:30Z</time>
      </trkpt>
      <trkpt lat="40.535281" lon="0.149203">
        <ele>614.923</ele>
        <time>2018-04-02T06:55:31Z</time>
      </trkpt>
      <trkpt lat="40.535330" lon="0.149210">
        <ele>614.477</ele>
        <time>2018-04-02T06:55:32Z</time>
      </trkpt>
      <trkpt lat="40.535640" lon="0.149199">
        <ele>611.035</ele>
        <time>2018-04-02T06:55:38Z</time>
      </trkpt>
      <trkpt lat="40.535974" lon="0.149113">
        <ele>607.613</ele>
        <time>2018-04-02T06:55:44Z</time>
      </trkpt>
      <trkpt lat="40.536303" lon="0.149087">
        <ele>604.346</ele>
        <time>2018-04-02T06:55:50Z</time>
      </trkpt>
      <trkpt lat="40.536666" lon="0.149082">
        <ele>601.433</ele>
        <time>2018-04-02T06:55:57Z</time>
      </trkpt>
      <trkpt lat="40.536728" lon="0.149064">
        <ele>600.493</ele>
        <time>2018-04-02T06:55:58Z</time>
      </trkpt>
      <trkpt lat="40.536791" lon="0.149035">
        <ele>600.078</ele>
        <time>2018-04-02T06:55:59Z</time>
      </trkpt>
      <trkpt lat="40.537113" lon="0.148857">
        <ele>596.133</ele>
        <time>2018-04-02T06:56:04Z</time>
      </trkpt>
      <trkpt lat="40.537395" lon="0.148678">
        <ele>592.726</ele>
        <time>2018-04-02T06:56:08Z</time>
      </trkpt>
      <trkpt lat="40.537628" lon="0.148526">
        <ele>589.908</ele>
        <time>2018-04-02T06:56:12Z</time>
      </trkpt>
      <trkpt lat="40.537701" lon="0.148669">
        <ele>594.740</ele>
        <time>2018-11-10T19:00:36Z</time>
      </trkpt>
      <trkpt lat="40.537701" lon="0.148824">
        <ele>592.357</ele>
        <time>2018-11-10T19:00:56Z</time>
      </trkpt>
      <trkpt lat="40.537674" lon="0.148901">
        <ele>591.581</ele>
        <time>2018-11-10T19:01:16Z</time>
      </trkpt>
      <trkpt lat="40.537593" lon="0.149045">
        <ele>590.779</ele>
        <time>2018-11-10T19:01:36Z</time>
      </trkpt>
      <trkpt lat="40.537513" lon="0.149211">
        <ele>589.937</ele>
        <time>2018-11-10T19:01:56Z</time>
      </trkpt>
      <trkpt lat="40.537432" lon="0.149366">
        <ele>589.730</ele>
        <time>2018-11-10T19:02:16Z</time>
      </trkpt>
      <trkpt lat="40.537387" lon="0.149488">
        <ele>589.067</ele>
        <time>2018-11-10T19:02:36Z</time>
      </trkpt>
      <trkpt lat="40.537414" lon="0.149576">
        <ele>586.967</ele>
        <time>2018-11-10T19:02:56Z</time>
      </trkpt>
      <trkpt lat="40.537504" lon="0.149610">
        <ele>584.966</ele>
        <time>2018-11-10T19:03:16Z</time>
      </trkpt>
      <trkpt lat="40.537647" lon="0.149576">
        <ele>583.129</ele>
        <time>2018-11-10T19:03:36Z</time>
      </trkpt>
      <trkpt lat="40.537764" lon="0.149488">
        <ele>582.421</ele>
        <time>2018-11-10T19:03:56Z</time>
      </trkpt>
      <trkpt lat="40.537881" lon="0.149377">
        <ele>581.308</ele>
        <time>2018-11-10T19:04:16Z</time>
      </trkpt>
      <trkpt lat="40.538016" lon="0.149300">
        <ele>579.419</ele>
        <time>2018-11-10T19:04:36Z</time>
      </trkpt>
      <trkpt lat="40.538168" lon="0.149178">
        <ele>577.826</ele>
        <time>2018-11-10T19:04:56Z</time>
      </trkpt>
      <trkpt lat="40.538348" lon="0.149023">
        <ele>576.170</ele>
        <time>2018-11-10T19:05:16Z</time>
      </trkpt>
      <trkpt lat="40.538501" lon="0.148913">
        <ele>574.988</ele>
        <time>2018-11-10T19:05:36Z</time>
      </trkpt>
      <trkpt lat="40.538635" lon="0.148813">
        <ele>574.196</ele>
        <time>2018-11-10T19:05:56Z</time>
      </trkpt>
      <trkpt lat="40.538797" lon="0.148758">
        <ele>573.049</ele>
        <time>2018-11-10T19:06:16Z</time>
      </trkpt>
      <trkpt lat="40.539013" lon="0.148702">
        <ele>571.166</ele>
        <time>2018-11-10T19:06:36Z</time>
      </trkpt>
      <trkpt lat="40.539246" lon="0.148636">
        <ele>569.456</ele>
        <time>2018-11-10T19:06:56Z</time>
      </trkpt>
      <trkpt lat="40.539616" lon="0.148532">
        <ele>559.147</ele>
        <time>2018-04-02T06:57:22Z</time>
      </trkpt>
      <trkpt lat="40.539767" lon="0.148503">
        <ele>558.629</ele>
        <time>2018-04-02T06:57:25Z</time>
      </trkpt>
      <trkpt lat="40.539936" lon="0.148488">
        <ele>557.221</ele>
        <time>2018-04-02T06:57:28Z</time>
      </trkpt>
      <trkpt lat="40.539995" lon="0.148478">
        <ele>557.708</ele>
        <time>2018-04-02T06:57:29Z</time>
      </trkpt>
      <trkpt lat="40.540528" lon="0.148372">
        <ele>554.317</ele>
        <time>2018-04-02T06:57:37Z</time>
      </trkpt>
      <trkpt lat="40.541076" lon="0.148327">
        <ele>550.944</ele>
        <time>2018-04-02T06:57:44Z</time>
      </trkpt>
      <trkpt lat="40.541678" lon="0.148314">
        <ele>548.038</ele>
        <time>2018-04-02T06:57:51Z</time>
      </trkpt>
      <trkpt lat="40.542443" lon="0.148312">
        <ele>544.796</ele>
        <time>2018-04-02T06:58:00Z</time>
      </trkpt>
      <trkpt lat="40.543031" lon="0.148280">
        <ele>541.334</ele>
        <time>2018-04-02T06:58:07Z</time>
      </trkpt>
      <trkpt lat="40.543428" lon="0.148223">
        <ele>537.917</ele>
        <time>2018-04-02T06:58:11Z</time>
      </trkpt>
      <trkpt lat="40.543745" lon="0.148179">
        <ele>536.554</ele>
        <time>2018-04-02T06:58:14Z</time>
      </trkpt>
      <trkpt lat="40.544256" lon="0.148089">
        <ele>533.144</ele>
        <time>2018-04-02T06:58:19Z</time>
      </trkpt>
      <trkpt lat="40.544842" lon="0.148033">
        <ele>531.752</ele>
        <time>2018-04-02T06:58:25Z</time>
      </trkpt>
      <trkpt lat="40.544932" lon="0.148060">
        <ele>531.753</ele>
        <time>2018-04-02T06:58:26Z</time>
      </trkpt>
      <trkpt lat="40.545017" lon="0.148104">
        <ele>530.708</ele>
        <time>2018-04-02T06:58:27Z</time>
      </trkpt>
      <trkpt lat="40.545098" lon="0.148158">
        <ele>530.708</ele>
        <time>2018-04-02T06:58:28Z</time>
      </trkpt>
      <trkpt lat="40.545177" lon="0.148217">
        <ele>529.898</ele>
        <time>2018-04-02T06:58:29Z</time>
      </trkpt>
      <trkpt lat="40.545873" lon="0.148717">
        <ele>526.985</ele>
        <time>2018-04-02T06:58:38Z</time>
      </trkpt>
      <trkpt lat="40.546851" lon="0.149539">
        <ele>524.089</ele>
        <time>2018-04-02T06:58:53Z</time>
      </trkpt>
      <trkpt lat="40.547217" lon="0.149950">
        <ele>522.667</ele>
        <time>2018-04-02T06:59:00Z</time>
      </trkpt>
      <trkpt lat="40.547277" lon="0.149998">
        <ele>522.685</ele>
        <time>2018-04-02T06:59:01Z</time>
      </trkpt>
      <trkpt lat="40.547341" lon="0.150037">
        <ele>521.668</ele>
        <time>2018-04-02T06:59:02Z</time>
      </trkpt>
      <trkpt lat="40.548044" lon="0.150483">
        <ele>518.245</ele>
        <time>2018-04-02T06:59:12Z</time>
      </trkpt>
      <trkpt lat="40.548244" lon="0.150602">
        <ele>518.265</ele>
        <time>2018-04-02T06:59:15Z</time>
      </trkpt>
      <trkpt lat="40.548307" lon="0.150621">
        <ele>518.215</ele>
        <time>2018-04-02T06:59:16Z</time>
      </trkpt>
      <trkpt lat="40.548505" lon="0.150679">
        <ele>517.865</ele>
        <time>2018-04-02T06:59:19Z</time>
      </trkpt>
      <trkpt lat="40.548572" lon="0.150716">
        <ele>516.811</ele>
        <time>2018-04-02T06:59:20Z</time>
      </trkpt>
      <trkpt lat="40.548636" lon="0.150768">
        <ele>517.308</ele>
        <time>2018-04-02T06:59:21Z</time>
      </trkpt>
      <trkpt lat="40.548694" lon="0.150828">
        <ele>517.324</ele>
        <time>2018-04-02T06:59:22Z</time>
      </trkpt>
      <trkpt lat="40.548741" lon="0.150888">
        <ele>517.341</ele>
        <time>2018-04-02T06:59:23Z</time>
      </trkpt>
      <trkpt lat="40.548779" lon="0.150934">
        <ele>516.885</ele>
        <time>2018-04-02T06:59:24Z</time>
      </trkpt>
      <trkpt lat="40.548890" lon="0.151042">
        <ele>516.813</ele>
        <time>2018-04-02T06:59:26Z</time>
      </trkpt>
      <trkpt lat="40.548933" lon="0.151072">
        <ele>516.361</ele>
        <time>2018-04-02T06:59:27Z</time>
      </trkpt>
      <trkpt lat="40.548993" lon="0.151106">
        <ele>515.894</ele>
        <time>2018-04-02T06:59:28Z</time>
      </trkpt>
      <trkpt lat="40.549061" lon="0.151136">
        <ele>515.811</ele>
        <time>2018-04-02T06:59:29Z</time>
      </trkpt>
      <trkpt lat="40.549132" lon="0.151160">
        <ele>515.481</ele>
        <time>2018-04-02T06:59:30Z</time>
      </trkpt>
      <trkpt lat="40.549187" lon="0.151174">
        <ele>514.913</ele>
        <time>2018-04-02T06:59:31Z</time>
      </trkpt>
      <trkpt lat="40.549546" lon="0.151310">
        <ele>513.943</ele>
        <time>2018-04-02T06:59:36Z</time>
      </trkpt>
      <trkpt lat="40.549600" lon="0.151353">
        <ele>513.407</ele>
        <time>2018-04-02T06:59:37Z</time>
      </trkpt>
      <trkpt lat="40.549652" lon="0.151401">
        <ele>513.408</ele>
        <time>2018-04-02T06:59:38Z</time>
      </trkpt>
      <trkpt lat="40.550510" lon="0.152358">
        <ele>511.064</ele>
        <time>2018-04-02T06:59:56Z</time>
      </trkpt>
      <trkpt lat="40.551005" lon="0.152904">
        <ele>512.551</ele>
        <time>2018-04-02T07:00:11Z</time>
      </trkpt>
      <trkpt lat="40.551034" lon="0.152934">
        <ele>512.595</ele>
        <time>2018-04-02T07:00:12Z</time>
      </trkpt>
      <trkpt lat="40.551567" lon="0.153511">
        <ele>513.993</ele>
        <time>2018-04-02T07:00:30Z</time>
      </trkpt>
      <trkpt lat="40.552158" lon="0.154214">
        <ele>514.481</ele>
        <time>2018-04-02T07:00:50Z</time>
      </trkpt>
      <trkpt lat="40.552854" lon="0.154787">
        <ele>513.414</ele>
        <time>2018-04-02T07:01:08Z</time>
      </trkpt>
      <trkpt lat="40.553213" lon="0.154940">
        <ele>512.081</ele>
        <time>2018-04-02T07:01:15Z</time>
      </trkpt>
      <trkpt lat="40.553270" lon="0.154948">
        <ele>512.041</ele>
        <time>2018-04-02T07:01:16Z</time>
      </trkpt>
      <trkpt lat="40.553551" lon="0.154966">
        <ele>511.026</ele>
        <time>2018-04-02T07:01:21Z</time>
      </trkpt>
      <trkpt lat="40.553606" lon="0.154973">
        <ele>511.047</ele>
        <time>2018-04-02T07:01:22Z</time>
      </trkpt>
      <trkpt lat="40.553661" lon="0.154973">
        <ele>511.011</ele>
        <time>2018-04-02T07:01:23Z</time>
      </trkpt>
      <trkpt lat="40.553829" lon="0.154952">
        <ele>510.108</ele>
        <time>2018-04-02T07:01:26Z</time>
      </trkpt>
      <trkpt lat="40.553885" lon="0.154923">
        <ele>510.195</ele>
        <time>2018-04-02T07:01:27Z</time>
      </trkpt>
      <trkpt lat="40.553938" lon="0.154877">
        <ele>509.682</ele>
        <time>2018-04-02T07:01:28Z</time>
      </trkpt>
      <trkpt lat="40.553979" lon="0.154813">
        <ele>509.676</ele>
        <time>2018-04-02T07:01:29Z</time>
      </trkpt>
      <trkpt lat="40.554001" lon="0.154753">
        <ele>509.684</ele>
        <time>2018-04-02T07:01:30Z</time>
      </trkpt>
      <trkpt lat="40.554013" lon="0.154677">
        <ele>509.642</ele>
        <time>2018-04-02T07:01:31Z</time>
      </trkpt>
      <trkpt lat="40.554011" lon="0.154599">
        <ele>509.115</ele>
        <time>2018-04-02T07:01:32Z</time>
      </trkpt>
      <trkpt lat="40.554002" lon="0.154524">
        <ele>509.192</ele>
        <time>2018-04-02T07:01:33Z</time>
      </trkpt>
      <trkpt lat="40.553988" lon="0.154449">
        <ele>509.172</ele>
        <time>2018-04-02T07:01:34Z</time>
      </trkpt>
      <trkpt lat="40.553690" lon="0.153373">
        <ele>507.289</ele>
        <time>2018-04-02T07:01:50Z</time>
      </trkpt>
      <trkpt lat="40.553677" lon="0.153309">
        <ele>507.206</ele>
        <time>2018-04-02T07:01:51Z</time>
      </trkpt>
      <trkpt lat="40.553657" lon="0.153113">
        <ele>506.726</ele>
        <time>2018-04-02T07:01:54Z</time>
      </trkpt>
      <trkpt lat="40.553661" lon="0.153044">
        <ele>506.708</ele>
        <time>2018-04-02T07:01:55Z</time>
      </trkpt>
      <trkpt lat="40.553815" lon="0.152522">
        <ele>505.361</ele>
        <time>2018-04-02T07:02:03Z</time>
      </trkpt>
      <trkpt lat="40.553843" lon="0.152466">
        <ele>505.358</ele>
        <time>2018-04-02T07:02:04Z</time>
      </trkpt>
      <trkpt lat="40.553863" lon="0.152409">
        <ele>505.362</ele>
        <time>2018-04-02T07:02:05Z</time>
      </trkpt>
      <trkpt lat="40.553877" lon="0.152351">
        <ele>505.310</ele>
        <time>2018-04-02T07:02:06Z</time>
      </trkpt>
      <trkpt lat="40.553880" lon="0.152290">
        <ele>505.328</ele>
        <time>2018-04-02T07:02:07Z</time>
      </trkpt>
      <trkpt lat="40.553877" lon="0.152231">
        <ele>505.321</ele>
        <time>2018-04-02T07:02:08Z</time>
      </trkpt>
      <trkpt lat="40.553868" lon="0.152168">
        <ele>505.388</ele>
        <time>2018-04-02T07:02:09Z</time>
      </trkpt>
      <trkpt lat="40.553727" lon="0.151371">
        <ele>501.958</ele>
        <time>2018-04-02T07:02:21Z</time>
      </trkpt>
      <trkpt lat="40.553754" lon="0.151290">
        <ele>501.478</ele>
        <time>2018-04-02T07:02:22Z</time>
      </trkpt>
      <trkpt lat="40.553800" lon="0.151216">
        <ele>501.433</ele>
        <time>2018-04-02T07:02:23Z</time>
      </trkpt>
      <trkpt lat="40.553855" lon="0.151151">
        <ele>500.526</ele>
        <time>2018-04-02T07:02:24Z</time>
      </trkpt>
      <trkpt lat="40.553917" lon="0.151092">
        <ele>500.008</ele>
        <time>2018-04-02T07:02:25Z</time>
      </trkpt>
      <trkpt lat="40.553984" lon="0.151041">
        <ele>500.050</ele>
        <time>2018-04-02T07:02:26Z</time>
      </trkpt>
      <trkpt lat="40.554519" lon="0.150505">
        <ele>500.097</ele>
        <time>2018-04-02T07:02:36Z</time>
      </trkpt>
      <trkpt lat="40.554552" lon="0.150464">
        <ele>500.061</ele>
        <time>2018-04-02T07:02:37Z</time>
      </trkpt>
      <trkpt lat="40.554581" lon="0.150424">
        <ele>500.969</ele>
        <time>2018-04-02T07:02:38Z</time>
      </trkpt>
      <trkpt lat="40.554605" lon="0.150382">
        <ele>500.967</ele>
        <time>2018-04-02T07:02:39Z</time>
      </trkpt>
      <trkpt lat="40.554625" lon="0.150339">
        <ele>501.490</ele>
        <time>2018-04-02T07:02:40Z</time>
      </trkpt>
      <trkpt lat="40.554640" lon="0.150299">
        <ele>501.467</ele>
        <time>2018-04-02T07:02:41Z</time>
      </trkpt>
      <trkpt lat="40.554649" lon="0.150262">
        <ele>501.967</ele>
        <time>2018-04-02T07:02:42Z</time>
      </trkpt>
      <trkpt lat="40.554655" lon="0.150224">
        <ele>501.986</ele>
        <time>2018-04-02T07:02:43Z</time>
      </trkpt>
      <trkpt lat="40.554674" lon="0.149559">
        <ele>503.360</ele>
        <time>2018-04-02T07:02:56Z</time>
      </trkpt>
      <trkpt lat="40.554659" lon="0.148728">
        <ele>504.326</ele>
        <time>2018-04-02T07:03:12Z</time>
      </trkpt>
      <trkpt lat="40.554642" lon="0.147533">
        <ele>505.308</ele>
        <time>2018-04-02T07:03:34Z</time>
      </trkpt>
      <trkpt lat="40.554627" lon="0.146823">
        <ele>506.771</ele>
        <time>2018-04-02T07:03:47Z</time>
      </trkpt>
      <trkpt lat="40.554768" lon="0.146105">
        <ele>507.748</ele>
        <time>2018-04-02T07:04:04Z</time>
      </trkpt>
      <trkpt lat="40.555029" lon="0.145651">
        <ele>510.152</ele>
        <time>2018-04-02T07:04:17Z</time>
      </trkpt>
      <trkpt lat="40.555365" lon="0.145076">
        <ele>512.560</ele>
        <time>2018-04-02T07:04:34Z</time>
      </trkpt>
      <trkpt lat="40.555725" lon="0.144438">
        <ele>513.958</ele>
        <time>2018-04-02T07:04:53Z</time>
      </trkpt>
      <trkpt lat="40.556112" lon="0.143952">
        <ele>514.951</ele>
        <time>2018-04-02T07:05:10Z</time>
      </trkpt>
      <trkpt lat="40.556508" lon="0.143651">
        <ele>513.478</ele>
        <time>2018-04-02T07:05:23Z</time>
      </trkpt>
      <trkpt lat="40.556875" lon="0.143216">
        <ele>513.988</ele>
        <time>2018-04-02T07:05:37Z</time>
      </trkpt>
      <trkpt lat="40.557147" lon="0.142803">
        <ele>516.334</ele>
        <time>2018-04-02T07:05:50Z</time>
      </trkpt>
      <trkpt lat="40.557423" lon="0.142330">
        <ele>516.855</ele>
        <time>2018-04-02T07:06:03Z</time>
      </trkpt>
      <trkpt lat="40.557775" lon="0.141717">
        <ele>518.210</ele>
        <time>2018-04-02T07:06:20Z</time>
      </trkpt>
      <trkpt lat="40.558153" lon="0.140997">
        <ele>519.208</ele>
        <time>2018-04-02T07:06:40Z</time>
      </trkpt>
      <trkpt lat="40.558388" lon="0.140351">
        <ele>521.116</ele>
        <time>2018-04-02T07:06:56Z</time>
      </trkpt>
      <trkpt lat="40.558609" lon="0.139592">
        <ele>523.073</ele>
        <time>2018-04-02T07:07:14Z</time>
      </trkpt>
      <trkpt lat="40.558443" lon="0.139127">
        <ele>525.577</ele>
        <time>2018-04-02T07:07:27Z</time>
      </trkpt>
      <trkpt lat="40.558015" lon="0.139001">
        <ele>526.415</ele>
        <time>2018-04-02T07:07:41Z</time>
      </trkpt>
      <trkpt lat="40.557544" lon="0.139012">
        <ele>525.953</ele>
        <time>2018-04-02T07:07:53Z</time>
      </trkpt>
      <trkpt lat="40.557358" lon="0.139010">
        <ele>527.496</ele>
        <time>2018-04-02T07:07:59Z</time>
      </trkpt>
      <trkpt lat="40.557072" lon="0.138817">
        <ele>529.393</ele>
        <time>2018-04-02T07:08:11Z</time>
      </trkpt>
      <trkpt lat="40.556974" lon="0.138499">
        <ele>532.293</ele>
        <time>2018-04-02T07:08:21Z</time>
      </trkpt>
      <trkpt lat="40.556931" lon="0.137939">
        <ele>535.158</ele>
        <time>2018-04-02T07:08:37Z</time>
      </trkpt>
      <trkpt lat="40.557058" lon="0.137094">
        <ele>536.552</ele>
        <time>2018-04-02T07:08:59Z</time>
      </trkpt>
      <trkpt lat="40.557375" lon="0.136622">
        <ele>537.517</ele>
        <time>2018-04-02T07:09:15Z</time>
      </trkpt>
      <trkpt lat="40.557795" lon="0.136251">
        <ele>538.408</ele>
        <time>2018-04-02T07:09:32Z</time>
      </trkpt>
      <trkpt lat="40.558278" lon="0.136095">
        <ele>538.938</ele>
        <time>2018-04-02T07:09:48Z</time>
      </trkpt>
      <trkpt lat="40.558621" lon="0.135867">
        <ele>537.955</ele>
        <time>2018-04-02T07:09:59Z</time>
      </trkpt>
      <trkpt lat="40.559027" lon="0.135713">
        <ele>537.919</ele>
        <time>2018-04-02T07:10:13Z</time>
      </trkpt>
      <trkpt lat="40.559564" lon="0.135843">
        <ele>539.927</ele>
        <time>2018-04-02T07:10:31Z</time>
      </trkpt>
      <trkpt lat="40.559830" lon="0.135873">
        <ele>543.295</ele>
        <time>2018-04-02T07:10:41Z</time>
      </trkpt>
      <trkpt lat="40.559880" lon="0.135873">
        <ele>544.218</ele>
        <time>2018-04-02T07:10:43Z</time>
      </trkpt>
      <trkpt lat="40.560157" lon="0.135778">
        <ele>547.635</ele>
        <time>2018-04-02T07:10:55Z</time>
      </trkpt>
      <trkpt lat="40.560413" lon="0.135567">
        <ele>550.935</ele>
        <time>2018-04-02T07:11:09Z</time>
      </trkpt>
      <trkpt lat="40.560637" lon="0.135331">
        <ele>554.338</ele>
        <time>2018-04-02T07:11:23Z</time>
      </trkpt>
      <trkpt lat="40.560889" lon="0.135137">
        <ele>557.770</ele>
        <time>2018-04-02T07:11:38Z</time>
      </trkpt>
      <trkpt lat="40.561123" lon="0.134966">
        <ele>560.517</ele>
        <time>2018-04-02T07:11:52Z</time>
      </trkpt>
      <trkpt lat="40.561332" lon="0.134817">
        <ele>563.908</ele>
        <time>2018-04-02T07:12:04Z</time>
      </trkpt>
      <trkpt lat="40.561542" lon="0.134579">
        <ele>567.346</ele>
        <time>2018-04-02T07:12:19Z</time>
      </trkpt>
      <trkpt lat="40.561715" lon="0.134360">
        <ele>570.643</ele>
        <time>2018-04-02T07:12:31Z</time>
      </trkpt>
      <trkpt lat="40.561907" lon="0.133983">
        <ele>572.117</ele>
        <time>2018-04-02T07:12:47Z</time>
      </trkpt>
      <trkpt lat="40.562007" lon="0.133701">
        <ele>570.665</ele>
        <time>2018-04-02T07:12:54Z</time>
      </trkpt>
      <trkpt lat="40.561886" lon="0.133310">
        <ele>568.223</ele>
        <time>2018-04-02T07:13:03Z</time>
      </trkpt>
      <trkpt lat="40.561871" lon="0.133262">
        <ele>568.226</ele>
        <time>2018-04-02T07:13:04Z</time>
      </trkpt>
      <trkpt lat="40.561867" lon="0.133205">
        <ele>567.883</ele>
        <time>2018-04-02T07:13:05Z</time>
      </trkpt>
      <trkpt lat="40.561870" lon="0.133146">
        <ele>567.833</ele>
        <time>2018-04-02T07:13:06Z</time>
      </trkpt>
      <trkpt lat="40.561880" lon="0.133095">
        <ele>567.872</ele>
        <time>2018-04-02T07:13:07Z</time>
      </trkpt>
      <trkpt lat="40.561896" lon="0.133047">
        <ele>567.813</ele>
        <time>2018-04-02T07:13:08Z</time>
      </trkpt>
      <trkpt lat="40.561903" lon="0.132992">
        <ele>567.314</ele>
        <time>2018-04-02T07:13:09Z</time>
      </trkpt>
      <trkpt lat="40.561907" lon="0.132932">
        <ele>566.808</ele>
        <time>2018-04-02T07:13:10Z</time>
      </trkpt>
      <trkpt lat="40.561913" lon="0.132872">
        <ele>566.370</ele>
        <time>2018-04-02T07:13:11Z</time>
      </trkpt>
      <trkpt lat="40.561917" lon="0.132811">
        <ele>565.847</ele>
        <time>2018-04-02T07:13:12Z</time>
      </trkpt>
      <trkpt lat="40.561926" lon="0.132756">
        <ele>565.331</ele>
        <time>2018-04-02T07:13:13Z</time>
      </trkpt>
      <trkpt lat="40.561959" lon="0.132633">
        <ele>564.479</ele>
        <time>2018-04-02T07:13:15Z</time>
      </trkpt>
      <trkpt lat="40.561989" lon="0.132572">
        <ele>563.467</ele>
        <time>2018-04-02T07:13:16Z</time>
      </trkpt>
      <trkpt lat="40.562034" lon="0.132514">
        <ele>563.480</ele>
        <time>2018-04-02T07:13:17Z</time>
      </trkpt>
      <trkpt lat="40.562083" lon="0.132462">
        <ele>562.947</ele>
        <time>2018-04-02T07:13:18Z</time>
      </trkpt>
      <trkpt lat="40.562129" lon="0.132420">
        <ele>562.927</ele>
        <time>2018-04-02T07:13:19Z</time>
      </trkpt>
      <trkpt lat="40.562168" lon="0.132392">
        <ele>562.947</ele>
        <time>2018-04-02T07:13:20Z</time>
      </trkpt>
      <trkpt lat="40.562200" lon="0.132375">
        <ele>562.929</ele>
        <time>2018-04-02T07:13:21Z</time>
      </trkpt>
      <trkpt lat="40.562227" lon="0.132368">
        <ele>564.421</ele>
        <time>2018-04-02T07:13:22Z</time>
      </trkpt>
      <trkpt lat="40.562252" lon="0.132367">
        <ele>564.408</ele>
        <time>2018-04-02T07:13:23Z</time>
      </trkpt>
      <trkpt lat="40.562278" lon="0.132368">
        <ele>564.937</ele>
        <time>2018-04-02T07:13:24Z</time>
      </trkpt>
      <trkpt lat="40.562304" lon="0.132371">
        <ele>565.364</ele>
        <time>2018-04-02T07:13:25Z</time>
      </trkpt>
      <trkpt lat="40.562329" lon="0.132376">
        <ele>565.338</ele>
        <time>2018-04-02T07:13:26Z</time>
      </trkpt>
      <trkpt lat="40.562523" lon="0.132406">
        <ele>568.786</ele>
        <time>2018-04-02T07:13:35Z</time>
      </trkpt>
      <trkpt lat="40.562755" lon="0.132225">
        <ele>571.114</ele>
        <time>2018-04-02T07:13:48Z</time>
      </trkpt>
      <trkpt lat="40.562951" lon="0.132182">
        <ele>574.077</ele>
        <time>2018-04-02T07:13:58Z</time>
      </trkpt>
      <trkpt lat="40.563252" lon="0.132102">
        <ele>577.864</ele>
        <time>2018-04-02T07:14:13Z</time>
      </trkpt>
      <trkpt lat="40.563539" lon="0.132069">
        <ele>581.254</ele>
        <time>2018-04-02T07:14:28Z</time>
      </trkpt>
      <trkpt lat="40.563734" lon="0.132069">
        <ele>582.792</ele>
        <time>2018-04-02T07:14:42Z</time>
      </trkpt>
      <trkpt lat="40.563752" lon="0.132058">
        <ele>583.173</ele>
        <time>2018-04-02T07:14:45Z</time>
      </trkpt>
      <trkpt lat="40.563769" lon="0.132055">
        <ele>583.120</ele>
        <time>2018-04-02T07:14:46Z</time>
      </trkpt>
      <trkpt lat="40.563789" lon="0.132054">
        <ele>583.108</ele>
        <time>2018-04-02T07:14:47Z</time>
      </trkpt>
      <trkpt lat="40.564080" lon="0.131977">
        <ele>586.572</ele>
        <time>2018-04-02T07:15:01Z</time>
      </trkpt>
      <trkpt lat="40.564396" lon="0.131728">
        <ele>589.489</ele>
        <time>2018-04-02T07:15:19Z</time>
      </trkpt>
      <trkpt lat="40.564735" lon="0.131306">
        <ele>590.353</ele>
        <time>2018-04-02T07:15:36Z</time>
      </trkpt>
      <trkpt lat="40.565005" lon="0.130895">
        <ele>590.871</ele>
        <time>2018-04-02T07:15:50Z</time>
      </trkpt>
      <trkpt lat="40.565054" lon="0.130557">
        <ele>589.499</ele>
        <time>2018-04-02T07:15:58Z</time>
      </trkpt>
      <trkpt lat="40.565054" lon="0.130399">
        <ele>588.432</ele>
        <time>2018-04-02T07:16:01Z</time>
      </trkpt>
      <trkpt lat="40.565063" lon="0.130341">
        <ele>587.939</ele>
        <time>2018-04-02T07:16:02Z</time>
      </trkpt>
      <trkpt lat="40.565076" lon="0.130285">
        <ele>587.969</ele>
        <time>2018-04-02T07:16:03Z</time>
      </trkpt>
      <trkpt lat="40.565112" lon="0.130174">
        <ele>587.094</ele>
        <time>2018-04-02T07:16:05Z</time>
      </trkpt>
      <trkpt lat="40.565283" lon="0.129715">
        <ele>583.657</ele>
        <time>2018-04-02T07:16:13Z</time>
      </trkpt>
      <trkpt lat="40.565351" lon="0.129513">
        <ele>582.222</ele>
        <time>2018-04-02T07:16:16Z</time>
      </trkpt>
      <trkpt lat="40.565362" lon="0.129441">
        <ele>581.708</ele>
        <time>2018-04-02T07:16:17Z</time>
      </trkpt>
      <trkpt lat="40.565368" lon="0.129366">
        <ele>581.232</ele>
        <time>2018-04-02T07:16:18Z</time>
      </trkpt>
      <trkpt lat="40.565368" lon="0.129291">
        <ele>580.799</ele>
        <time>2018-04-02T07:16:19Z</time>
      </trkpt>
      <trkpt lat="40.565367" lon="0.129213">
        <ele>580.253</ele>
        <time>2018-04-02T07:16:20Z</time>
      </trkpt>
      <trkpt lat="40.565329" lon="0.128883">
        <ele>578.391</ele>
        <time>2018-04-02T07:16:24Z</time>
      </trkpt>
      <trkpt lat="40.565307" lon="0.128804">
        <ele>577.849</ele>
        <time>2018-04-02T07:16:25Z</time>
      </trkpt>
      <trkpt lat="40.565279" lon="0.128731">
        <ele>577.812</ele>
        <time>2018-04-02T07:16:26Z</time>
      </trkpt>
      <trkpt lat="40.565246" lon="0.128667">
        <ele>577.889</ele>
        <time>2018-04-02T07:16:27Z</time>
      </trkpt>
      <trkpt lat="40.565212" lon="0.128612">
        <ele>577.859</ele>
        <time>2018-04-02T07:16:28Z</time>
      </trkpt>
      <trkpt lat="40.565180" lon="0.128569">
        <ele>577.839</ele>
        <time>2018-04-02T07:16:29Z</time>
      </trkpt>
      <trkpt lat="40.565080" lon="0.128450">
        <ele>579.301</ele>
        <time>2018-04-02T07:16:33Z</time>
      </trkpt>
      <trkpt lat="40.564782" lon="0.128165">
        <ele>582.721</ele>
        <time>2018-04-02T07:16:46Z</time>
      </trkpt>
      <trkpt lat="40.564486" lon="0.128305">
        <ele>585.508</ele>
        <time>2018-04-02T07:16:59Z</time>
      </trkpt>
      <trkpt lat="40.564130" lon="0.128472">
        <ele>587.056</ele>
        <time>2018-04-02T07:17:14Z</time>
      </trkpt>
      <trkpt lat="40.563672" lon="0.128346">
        <ele>587.933</ele>
        <time>2018-04-02T07:17:30Z</time>
      </trkpt>
      <trkpt lat="40.563268" lon="0.128207">
        <ele>589.417</ele>
        <time>2018-04-02T07:17:44Z</time>
      </trkpt>
      <trkpt lat="40.563114" lon="0.127817">
        <ele>592.775</ele>
        <time>2018-04-02T07:17:57Z</time>
      </trkpt>
      <trkpt lat="40.563281" lon="0.127337">
        <ele>595.643</ele>
        <time>2018-04-02T07:18:13Z</time>
      </trkpt>
      <trkpt lat="40.563479" lon="0.127084">
        <ele>598.576</ele>
        <time>2018-04-02T07:18:24Z</time>
      </trkpt>
      <trkpt lat="40.563729" lon="0.126837">
        <ele>601.423</ele>
        <time>2018-04-02T07:18:38Z</time>
      </trkpt>
      <trkpt lat="40.564109" lon="0.126757">
        <ele>604.383</ele>
        <time>2018-04-02T07:18:54Z</time>
      </trkpt>
      <trkpt lat="40.564422" lon="0.126583">
        <ele>605.265</ele>
        <time>2018-04-02T07:19:09Z</time>
      </trkpt>
      <trkpt lat="40.564648" lon="0.125927">
        <ele>603.368</ele>
        <time>2018-04-02T07:19:25Z</time>
      </trkpt>
      <trkpt lat="40.564692" lon="0.125533">
        <ele>602.414</ele>
        <time>2018-04-02T07:19:33Z</time>
      </trkpt>
      <trkpt lat="40.564684" lon="0.125477">
        <ele>601.908</ele>
        <time>2018-04-02T07:19:34Z</time>
      </trkpt>
      <trkpt lat="40.564399" lon="0.124947">
        <ele>601.429</ele>
        <time>2018-04-02T07:19:47Z</time>
      </trkpt>
      <trkpt lat="40.563842" lon="0.124643">
        <ele>602.856</ele>
        <time>2018-04-02T07:20:06Z</time>
      </trkpt>
      <trkpt lat="40.563479" lon="0.124529">
        <ele>603.860</ele>
        <time>2018-04-02T07:20:18Z</time>
      </trkpt>
      <trkpt lat="40.563220" lon="0.124003">
        <ele>604.818</ele>
        <time>2018-04-02T07:20:33Z</time>
      </trkpt>
      <trkpt lat="40.562830" lon="0.123445">
        <ele>607.296</ele>
        <time>2018-04-02T07:20:53Z</time>
      </trkpt>
      <trkpt lat="40.562499" lon="0.122966">
        <ele>609.629</ele>
        <time>2018-04-02T07:21:10Z</time>
      </trkpt>
      <trkpt lat="40.562014" lon="0.122901">
        <ele>609.686</ele>
        <time>2018-04-02T07:21:24Z</time>
      </trkpt>
      <trkpt lat="40.561497" lon="0.122759">
        <ele>609.676</ele>
        <time>2018-04-02T07:21:38Z</time>
      </trkpt>
      <trkpt lat="40.561298" lon="0.122642">
        <ele>612.961</ele>
        <time>2018-04-02T07:21:45Z</time>
      </trkpt>
      <trkpt lat="40.561095" lon="0.122275">
        <ele>615.321</ele>
        <time>2018-04-02T07:21:59Z</time>
      </trkpt>
      <trkpt lat="40.561264" lon="0.121952">
        <ele>617.313</ele>
        <time>2018-04-02T07:22:11Z</time>
      </trkpt>
      <trkpt lat="40.561403" lon="0.121530">
        <ele>619.208</ele>
        <time>2018-04-02T07:22:24Z</time>
      </trkpt>
      <trkpt lat="40.561641" lon="0.121247">
        <ele>619.299</ele>
        <time>2018-04-02T07:22:37Z</time>
      </trkpt>
      <trkpt lat="40.562071" lon="0.121221">
        <ele>619.766</ele>
        <time>2018-04-02T07:22:51Z</time>
      </trkpt>
      <trkpt lat="40.562303" lon="0.121280">
        <ele>621.640</ele>
        <time>2018-04-02T07:23:00Z</time>
      </trkpt>
      <trkpt lat="40.562518" lon="0.120904">
        <ele>624.068</ele>
        <time>2018-04-02T07:23:14Z</time>
      </trkpt>
      <trkpt lat="40.562780" lon="0.120577">
        <ele>624.976</ele>
        <time>2018-04-02T07:23:28Z</time>
      </trkpt>
      <trkpt lat="40.562845" lon="0.120486">
        <ele>625.419</ele>
        <time>2018-04-02T07:23:32Z</time>
      </trkpt>
      <trkpt lat="40.562851" lon="0.120454">
        <ele>625.956</ele>
        <time>2018-04-02T07:23:33Z</time>
      </trkpt>
      <trkpt lat="40.562798" lon="0.120015">
        <ele>626.976</ele>
        <time>2018-04-02T07:23:46Z</time>
      </trkpt>
      <trkpt lat="40.562866" lon="0.119552">
        <ele>629.881</ele>
        <time>2018-04-02T07:24:00Z</time>
      </trkpt>
      <trkpt lat="40.563007" lon="0.119062">
        <ele>633.161</ele>
        <time>2018-04-02T07:24:16Z</time>
      </trkpt>
      <trkpt lat="40.563083" lon="0.118802">
        <ele>635.017</ele>
        <time>2018-04-02T07:24:26Z</time>
      </trkpt>
      <trkpt lat="40.563101" lon="0.118789">
        <ele>635.008</ele>
        <time>2018-04-02T07:24:27Z</time>
      </trkpt>
      <trkpt lat="40.563122" lon="0.118780">
        <ele>635.041</ele>
        <time>2018-04-02T07:24:28Z</time>
      </trkpt>
      <trkpt lat="40.563142" lon="0.118775">
        <ele>635.098</ele>
        <time>2018-04-02T07:24:29Z</time>
      </trkpt>
      <trkpt lat="40.563164" lon="0.118775">
        <ele>635.562</ele>
        <time>2018-04-02T07:24:30Z</time>
      </trkpt>
      <trkpt lat="40.563186" lon="0.118777">
        <ele>635.580</ele>
        <time>2018-04-02T07:24:31Z</time>
      </trkpt>
      <trkpt lat="40.563210" lon="0.118784">
        <ele>635.528</ele>
        <time>2018-04-02T07:24:32Z</time>
      </trkpt>
      <trkpt lat="40.563232" lon="0.118791">
        <ele>636.081</ele>
        <time>2018-04-02T07:24:33Z</time>
      </trkpt>
      <trkpt lat="40.563253" lon="0.118800">
        <ele>636.058</ele>
        <time>2018-04-02T07:24:34Z</time>
      </trkpt>
      <trkpt lat="40.563607" lon="0.118972">
        <ele>637.488</ele>
        <time>2018-04-02T07:24:48Z</time>
      </trkpt>
      <trkpt lat="40.563835" lon="0.118694">
        <ele>638.941</ele>
        <time>2018-04-02T07:25:01Z</time>
      </trkpt>
      <trkpt lat="40.563866" lon="0.118103">
        <ele>641.381</ele>
        <time>2018-04-02T07:25:18Z</time>
      </trkpt>
      <trkpt lat="40.563643" lon="0.117914">
        <ele>642.309</ele>
        <time>2018-04-02T07:25:29Z</time>
      </trkpt>
      <trkpt lat="40.563483" lon="0.117623">
        <ele>643.208</ele>
        <time>2018-04-02T07:25:40Z</time>
      </trkpt>
      <trkpt lat="40.563585" lon="0.117143">
        <ele>645.647</ele>
        <time>2018-04-02T07:25:54Z</time>
      </trkpt>
      <trkpt lat="40.563727" lon="0.116628">
        <ele>648.534</ele>
        <time>2018-04-02T07:26:10Z</time>
      </trkpt>
      <trkpt lat="40.563653" lon="0.116118">
        <ele>649.558</ele>
        <time>2018-04-02T07:26:25Z</time>
      </trkpt>
      <trkpt lat="40.563401" lon="0.115792">
        <ele>652.896</ele>
        <time>2018-04-02T07:26:38Z</time>
      </trkpt>
      <trkpt lat="40.563224" lon="0.115351">
        <ele>654.834</ele>
        <time>2018-04-02T07:26:53Z</time>
      </trkpt>
      <trkpt lat="40.563238" lon="0.114847">
        <ele>656.727</ele>
        <time>2018-04-02T07:27:07Z</time>
      </trkpt>
      <trkpt lat="40.563438" lon="0.114265">
        <ele>658.144</ele>
        <time>2018-04-02T07:27:24Z</time>
      </trkpt>
      <trkpt lat="40.563595" lon="0.113650">
        <ele>659.624</ele>
        <time>2018-04-02T07:27:41Z</time>
      </trkpt>
      <trkpt lat="40.563595" lon="0.113053">
        <ele>661.064</ele>
        <time>2018-04-02T07:27:57Z</time>
      </trkpt>
      <trkpt lat="40.563577" lon="0.112488">
        <ele>662.006</ele>
        <time>2018-04-02T07:28:13Z</time>
      </trkpt>
      <trkpt lat="40.563747" lon="0.111970">
        <ele>664.416</ele>
        <time>2018-04-02T07:28:28Z</time>
      </trkpt>
      <trkpt lat="40.563803" lon="0.111386">
        <ele>665.808</ele>
        <time>2018-04-02T07:28:43Z</time>
      </trkpt>
      <trkpt lat="40.563942" lon="0.110904">
        <ele>667.249</ele>
        <time>2018-04-02T07:28:57Z</time>
      </trkpt>
      <trkpt lat="40.563915" lon="0.110463">
        <ele>668.296</ele>
        <time>2018-04-02T07:29:09Z</time>
      </trkpt>
      <trkpt lat="40.563721" lon="0.109914">
        <ele>670.150</ele>
        <time>2018-04-02T07:29:27Z</time>
      </trkpt>
      <trkpt lat="40.563709" lon="0.109876">
        <ele>671.198</ele>
        <time>2018-04-02T07:29:39Z</time>
      </trkpt>
      <trkpt lat="40.563680" lon="0.109853">
        <ele>671.146</ele>
        <time>2018-04-02T07:30:07Z</time>
      </trkpt>
      <trkpt lat="40.563684" lon="0.109828">
        <ele>671.139</ele>
        <time>2018-04-02T07:30:10Z</time>
      </trkpt>
      <trkpt lat="40.563686" lon="0.109808">
        <ele>671.136</ele>
        <time>2018-04-02T07:30:11Z</time>
      </trkpt>
      <trkpt lat="40.563692" lon="0.109788">
        <ele>671.176</ele>
        <time>2018-04-02T07:30:12Z</time>
      </trkpt>
      <trkpt lat="40.563702" lon="0.109768">
        <ele>671.125</ele>
        <time>2018-04-02T07:30:13Z</time>
      </trkpt>
      <trkpt lat="40.563709" lon="0.109747">
        <ele>671.626</ele>
        <time>2018-04-02T07:30:14Z</time>
      </trkpt>
      <trkpt lat="40.563712" lon="0.109726">
        <ele>671.608</ele>
        <time>2018-04-02T07:30:15Z</time>
      </trkpt>
      <trkpt lat="40.563719" lon="0.109700">
        <ele>672.108</ele>
        <time>2018-04-02T07:30:16Z</time>
      </trkpt>
      <trkpt lat="40.563726" lon="0.109674">
        <ele>672.195</ele>
        <time>2018-04-02T07:30:17Z</time>
      </trkpt>
      <trkpt lat="40.563782" lon="0.109381">
        <ele>675.482</ele>
        <time>2018-04-02T07:30:30Z</time>
      </trkpt>
      <trkpt lat="40.563819" lon="0.109043">
        <ele>678.326</ele>
        <time>2018-04-02T07:30:46Z</time>
      </trkpt>
      <trkpt lat="40.563888" lon="0.108725">
        <ele>681.784</ele>
        <time>2018-04-02T07:30:58Z</time>
      </trkpt>
      <trkpt lat="40.563883" lon="0.108472">
        <ele>683.662</ele>
        <time>2018-04-02T07:31:07Z</time>
      </trkpt>
      <trkpt lat="40.563886" lon="0.108448">
        <ele>683.665</ele>
        <time>2018-04-02T07:31:08Z</time>
      </trkpt>
      <trkpt lat="40.563887" lon="0.108423">
        <ele>684.172</ele>
        <time>2018-04-02T07:31:09Z</time>
      </trkpt>
      <trkpt lat="40.563887" lon="0.108396">
        <ele>684.142</ele>
        <time>2018-04-02T07:31:10Z</time>
      </trkpt>
      <trkpt lat="40.563884" lon="0.108371">
        <ele>684.628</ele>
        <time>2018-04-02T07:31:11Z</time>
      </trkpt>
      <trkpt lat="40.563880" lon="0.108344">
        <ele>684.689</ele>
        <time>2018-04-02T07:31:12Z</time>
      </trkpt>
      <trkpt lat="40.563817" lon="0.107991">
        <ele>687.917</ele>
        <time>2018-04-02T07:31:26Z</time>
      </trkpt>
      <trkpt lat="40.563764" lon="0.107714">
        <ele>691.308</ele>
        <time>2018-04-02T07:31:38Z</time>
      </trkpt>
      <trkpt lat="40.563654" lon="0.107454">
        <ele>694.255</ele>
        <time>2018-04-02T07:31:50Z</time>
      </trkpt>
      <trkpt lat="40.563474" lon="0.107234">
        <ele>697.042</ele>
        <time>2018-04-02T07:32:04Z</time>
      </trkpt>
      <trkpt lat="40.563397" lon="0.107039">
        <ele>699.036</ele>
        <time>2018-04-02T07:32:14Z</time>
      </trkpt>
      <trkpt lat="40.563442" lon="0.106803">
        <ele>702.364</ele>
        <time>2018-04-02T07:32:25Z</time>
      </trkpt>
      <trkpt lat="40.563463" lon="0.106475">
        <ele>705.742</ele>
        <time>2018-04-02T07:32:40Z</time>
      </trkpt>
      <trkpt lat="40.563582" lon="0.106289">
        <ele>709.115</ele>
        <time>2018-04-02T07:32:51Z</time>
      </trkpt>
      <trkpt lat="40.563670" lon="0.106114">
        <ele>711.052</ele>
        <time>2018-04-02T07:33:05Z</time>
      </trkpt>
      <trkpt lat="40.563665" lon="0.106072">
        <ele>711.082</ele>
        <time>2018-04-02T07:33:16Z</time>
      </trkpt>
      <trkpt lat="40.563621" lon="0.105710">
        <ele>713.994</ele>
        <time>2018-04-02T07:33:31Z</time>
      </trkpt>
      <trkpt lat="40.563588" lon="0.105538">
        <ele>716.857</ele>
        <time>2018-04-02T07:33:39Z</time>
      </trkpt>
      <trkpt lat="40.563575" lon="0.105522">
        <ele>717.222</ele>
        <time>2018-04-02T07:33:40Z</time>
      </trkpt>
      <trkpt lat="40.563560" lon="0.105504">
        <ele>717.208</ele>
        <time>2018-04-02T07:33:41Z</time>
      </trkpt>
      <trkpt lat="40.563546" lon="0.105487">
        <ele>717.282</ele>
        <time>2018-04-02T07:33:42Z</time>
      </trkpt>
      <trkpt lat="40.563530" lon="0.105472">
        <ele>717.789</ele>
        <time>2018-04-02T07:33:43Z</time>
      </trkpt>
      <trkpt lat="40.563513" lon="0.105459">
        <ele>718.283</ele>
        <time>2018-04-02T07:33:44Z</time>
      </trkpt>
      <trkpt lat="40.563497" lon="0.105446">
        <ele>718.271</ele>
        <time>2018-04-02T07:33:45Z</time>
      </trkpt>
      <trkpt lat="40.563408" lon="0.105210">
        <ele>720.629</ele>
        <time>2018-04-02T07:33:59Z</time>
      </trkpt>
      <trkpt lat="40.563507" lon="0.104971">
        <ele>724.052</ele>
        <time>2018-04-02T07:34:12Z</time>
      </trkpt>
      <trkpt lat="40.563528" lon="0.104517">
        <ele>726.469</ele>
        <time>2018-04-02T07:34:31Z</time>
      </trkpt>
      <trkpt lat="40.563327" lon="0.104284">
        <ele>729.379</ele>
        <time>2018-04-02T07:34:47Z</time>
      </trkpt>
      <trkpt lat="40.563303" lon="0.104009">
        <ele>731.252</ele>
        <time>2018-04-02T07:35:01Z</time>
      </trkpt>
      <trkpt lat="40.563475" lon="0.103838">
        <ele>734.553</ele>
        <time>2018-04-02T07:35:15Z</time>
      </trkpt>
      <trkpt lat="40.563528" lon="0.103674">
        <ele>736.508</ele>
        <time>2018-04-02T07:35:23Z</time>
      </trkpt>
      <trkpt lat="40.563480" lon="0.103307">
        <ele>739.308</ele>
        <time>2018-04-02T07:35:40Z</time>
      </trkpt>
      <trkpt lat="40.563410" lon="0.102937">
        <ele>742.258</ele>
        <time>2018-04-02T07:35:55Z</time>
      </trkpt>
      <trkpt lat="40.563405" lon="0.102685">
        <ele>745.145</ele>
        <time>2018-04-02T07:36:06Z</time>
      </trkpt>
      <trkpt lat="40.563425" lon="0.102593">
        <ele>746.169</ele>
        <time>2018-04-02T07:36:10Z</time>
      </trkpt>
      <trkpt lat="40.563540" lon="0.102387">
        <ele>749.017</ele>
        <time>2018-04-02T07:36:22Z</time>
      </trkpt>
      <trkpt lat="40.563622" lon="0.102185">
        <ele>752.325</ele>
        <time>2018-04-02T07:36:33Z</time>
      </trkpt>
      <trkpt lat="40.563711" lon="0.101895">
        <ele>755.758</ele>
        <time>2018-04-02T07:36:48Z</time>
      </trkpt>
      <trkpt lat="40.563816" lon="0.101689">
        <ele>758.695</ele>
        <time>2018-04-02T07:37:00Z</time>
      </trkpt>
      <trkpt lat="40.563926" lon="0.101473">
        <ele>761.985</ele>
        <time>2018-04-02T07:37:14Z</time>
      </trkpt>
      <trkpt lat="40.564051" lon="0.101208">
        <ele>765.356</ele>
        <time>2018-04-02T07:37:29Z</time>
      </trkpt>
      <trkpt lat="40.564150" lon="0.100889">
        <ele>768.259</ele>
        <time>2018-04-02T07:37:45Z</time>
      </trkpt>
      <trkpt lat="40.564238" lon="0.100523">
        <ele>771.614</ele>
        <time>2018-04-02T07:38:03Z</time>
      </trkpt>
      <trkpt lat="40.564202" lon="0.100145">
        <ele>775.408</ele>
        <time>2018-04-02T07:38:22Z</time>
      </trkpt>
      <trkpt lat="40.564150" lon="0.099861">
        <ele>778.348</ele>
        <time>2018-04-02T07:38:37Z</time>
      </trkpt>
      <trkpt lat="40.564128" lon="0.099542">
        <ele>781.285</ele>
        <time>2018-04-02T07:38:53Z</time>
      </trkpt>
      <trkpt lat="40.564024" lon="0.099235">
        <ele>784.059</ele>
        <time>2018-04-02T07:39:09Z</time>
      </trkpt>
      <trkpt lat="40.564026" lon="0.099174">
        <ele>784.567</ele>
        <time>2018-04-02T07:39:12Z</time>
      </trkpt>
      <trkpt lat="40.564206" lon="0.099024">
        <ele>787.495</ele>
        <time>2018-04-02T07:39:26Z</time>
      </trkpt>
      <trkpt lat="40.564216" lon="0.099004">
        <ele>787.448</ele>
        <time>2018-04-02T07:39:27Z</time>
      </trkpt>
      <trkpt lat="40.564226" lon="0.098984">
        <ele>787.985</ele>
        <time>2018-04-02T07:39:28Z</time>
      </trkpt>
      <trkpt lat="40.564233" lon="0.098960">
        <ele>787.925</ele>
        <time>2018-04-02T07:39:29Z</time>
      </trkpt>
      <trkpt lat="40.564237" lon="0.098935">
        <ele>788.471</ele>
        <time>2018-04-02T07:39:30Z</time>
      </trkpt>
      <trkpt lat="40.564240" lon="0.098909">
        <ele>788.441</ele>
        <time>2018-04-02T07:39:31Z</time>
      </trkpt>
      <trkpt lat="40.564225" lon="0.098810">
        <ele>789.315</ele>
        <time>2018-04-02T07:39:39Z</time>
      </trkpt>
      <trkpt lat="40.564205" lon="0.098785">
        <ele>789.808</ele>
        <time>2018-04-02T07:39:41Z</time>
      </trkpt>
      <trkpt lat="40.564114" lon="0.098508">
        <ele>792.730</ele>
        <time>2018-04-02T07:39:55Z</time>
      </trkpt>
      <trkpt lat="40.564125" lon="0.098451">
        <ele>792.737</ele>
        <time>2018-04-02T07:39:58Z</time>
      </trkpt>
      <trkpt lat="40.564289" lon="0.098283">
        <ele>795.661</ele>
        <time>2018-04-02T07:40:12Z</time>
      </trkpt>
      <trkpt lat="40.564301" lon="0.098266">
        <ele>796.179</ele>
        <time>2018-04-02T07:40:13Z</time>
      </trkpt>
      <trkpt lat="40.564308" lon="0.098245">
        <ele>796.527</ele>
        <time>2018-04-02T07:40:14Z</time>
      </trkpt>
      <trkpt lat="40.564316" lon="0.098225">
        <ele>796.560</ele>
        <time>2018-04-02T07:40:15Z</time>
      </trkpt>
      <trkpt lat="40.564323" lon="0.098202">
        <ele>797.057</ele>
        <time>2018-04-02T07:40:16Z</time>
      </trkpt>
      <trkpt lat="40.564326" lon="0.098179">
        <ele>797.517</ele>
        <time>2018-04-02T07:40:17Z</time>
      </trkpt>
      <trkpt lat="40.564329" lon="0.098157">
        <ele>797.556</ele>
        <time>2018-04-02T07:40:18Z</time>
      </trkpt>
      <trkpt lat="40.564326" lon="0.097891">
        <ele>801.459</ele>
        <time>2018-04-02T07:40:31Z</time>
      </trkpt>
      <trkpt lat="40.564244" lon="0.097622">
        <ele>804.214</ele>
        <time>2018-04-02T07:40:46Z</time>
      </trkpt>
      <trkpt lat="40.564226" lon="0.097485">
        <ele>806.608</ele>
        <time>2018-04-02T07:40:53Z</time>
      </trkpt>
      <trkpt lat="40.564234" lon="0.097468">
        <ele>806.618</ele>
        <time>2018-04-02T07:40:54Z</time>
      </trkpt>
      <trkpt lat="40.564243" lon="0.097457">
        <ele>807.135</ele>
        <time>2018-04-02T07:40:55Z</time>
      </trkpt>
      <trkpt lat="40.564255" lon="0.097449">
        <ele>807.679</ele>
        <time>2018-04-02T07:40:56Z</time>
      </trkpt>
      <trkpt lat="40.564267" lon="0.097441">
        <ele>807.697</ele>
        <time>2018-04-02T07:40:57Z</time>
      </trkpt>
      <trkpt lat="40.564281" lon="0.097434">
        <ele>808.115</ele>
        <time>2018-04-02T07:40:58Z</time>
      </trkpt>
      <trkpt lat="40.564294" lon="0.097429">
        <ele>808.168</ele>
        <time>2018-04-02T07:40:59Z</time>
      </trkpt>
      <trkpt lat="40.564306" lon="0.097421">
        <ele>808.155</ele>
        <time>2018-04-02T07:41:00Z</time>
      </trkpt>
      <trkpt lat="40.564452" lon="0.097271">
        <ele>811.425</ele>
        <time>2018-04-02T07:41:14Z</time>
      </trkpt>
      <trkpt lat="40.564461" lon="0.097160">
        <ele>811.425</ele>
        <time>2018-04-02T07:41:19Z</time>
      </trkpt>
      <trkpt lat="40.564459" lon="0.097139">
        <ele>811.426</ele>
        <time>2018-04-02T07:41:20Z</time>
      </trkpt>
      <trkpt lat="40.564393" lon="0.096814">
        <ele>814.308</ele>
        <time>2018-04-02T07:41:37Z</time>
      </trkpt>
      <trkpt lat="40.564391" lon="0.096796">
        <ele>814.308</ele>
        <time>2018-04-02T07:41:38Z</time>
      </trkpt>
      <trkpt lat="40.564367" lon="0.096750">
        <ele>815.395</ele>
        <time>2018-04-02T07:41:41Z</time>
      </trkpt>
      <trkpt lat="40.564364" lon="0.096732">
        <ele>815.322</ele>
        <time>2018-04-02T07:41:42Z</time>
      </trkpt>
      <trkpt lat="40.564364" lon="0.096714">
        <ele>815.876</ele>
        <time>2018-04-02T07:41:43Z</time>
      </trkpt>
      <trkpt lat="40.564362" lon="0.096693">
        <ele>815.874</ele>
        <time>2018-04-02T07:41:44Z</time>
      </trkpt>
      <trkpt lat="40.564360" lon="0.096672">
        <ele>816.372</ele>
        <time>2018-04-02T07:41:45Z</time>
      </trkpt>
      <trkpt lat="40.564360" lon="0.096651">
        <ele>816.725</ele>
        <time>2018-04-02T07:41:46Z</time>
      </trkpt>
      <trkpt lat="40.564362" lon="0.096633">
        <ele>816.752</ele>
        <time>2018-04-02T07:41:47Z</time>
      </trkpt>
      <trkpt lat="40.564364" lon="0.096615">
        <ele>816.752</ele>
        <time>2018-04-02T07:41:48Z</time>
      </trkpt>
      <trkpt lat="40.564366" lon="0.096596">
        <ele>817.289</ele>
        <time>2018-04-02T07:41:49Z</time>
      </trkpt>
      <trkpt lat="40.564369" lon="0.096578">
        <ele>817.206</ele>
        <time>2018-04-02T07:41:50Z</time>
      </trkpt>
      <trkpt lat="40.564378" lon="0.096561">
        <ele>817.226</ele>
        <time>2018-04-02T07:41:51Z</time>
      </trkpt>
      <trkpt lat="40.564390" lon="0.096545">
        <ele>818.208</ele>
        <time>2018-04-02T07:41:52Z</time>
      </trkpt>
      <trkpt lat="40.564401" lon="0.096531">
        <ele>818.231</ele>
        <time>2018-04-02T07:41:53Z</time>
      </trkpt>
      <trkpt lat="40.564430" lon="0.096496">
        <ele>819.178</ele>
        <time>2018-04-02T07:41:56Z</time>
      </trkpt>
      <trkpt lat="40.564445" lon="0.096493">
        <ele>819.172</ele>
        <time>2018-04-02T07:41:57Z</time>
      </trkpt>
      <trkpt lat="40.564459" lon="0.096490">
        <ele>819.630</ele>
        <time>2018-04-02T07:41:58Z</time>
      </trkpt>
      <trkpt lat="40.564470" lon="0.096485">
        <ele>819.628</ele>
        <time>2018-04-02T07:41:59Z</time>
      </trkpt>
      <trkpt lat="40.564482" lon="0.096481">
        <ele>819.641</ele>
        <time>2018-04-02T07:42:00Z</time>
      </trkpt>
      <trkpt lat="40.564496" lon="0.096476">
        <ele>819.628</ele>
        <time>2018-04-02T07:42:01Z</time>
      </trkpt>
      <trkpt lat="40.564509" lon="0.096472">
        <ele>819.618</ele>
        <time>2018-04-02T07:42:02Z</time>
      </trkpt>
      <trkpt lat="40.564632" lon="0.096405">
        <ele>821.556</ele>
        <time>2018-04-02T07:42:12Z</time>
      </trkpt>
      <trkpt lat="40.564642" lon="0.096394">
        <ele>821.559</ele>
        <time>2018-04-02T07:42:13Z</time>
      </trkpt>
      <trkpt lat="40.564654" lon="0.096382">
        <ele>821.514</ele>
        <time>2018-04-02T07:42:14Z</time>
      </trkpt>
      <trkpt lat="40.564665" lon="0.096369">
        <ele>822.508</ele>
        <time>2018-04-02T07:42:15Z</time>
      </trkpt>
      <trkpt lat="40.564676" lon="0.096357">
        <ele>822.548</ele>
        <time>2018-04-02T07:42:16Z</time>
      </trkpt>
      <trkpt lat="40.564783" lon="0.096151">
        <ele>825.915</ele>
        <time>2018-04-02T07:42:28Z</time>
      </trkpt>
      <trkpt lat="40.564796" lon="0.096059">
        <ele>827.359</ele>
        <time>2018-04-02T07:42:33Z</time>
      </trkpt>
      <trkpt lat="40.564793" lon="0.095755">
        <ele>830.787</ele>
        <time>2018-04-02T07:42:48Z</time>
      </trkpt>
      <trkpt lat="40.564719" lon="0.095495">
        <ele>832.685</ele>
        <time>2018-04-02T07:43:03Z</time>
      </trkpt>
      <trkpt lat="40.564612" lon="0.095307">
        <ele>835.018</ele>
        <time>2018-04-02T07:43:14Z</time>
      </trkpt>
      <trkpt lat="40.564607" lon="0.095288">
        <ele>835.025</ele>
        <time>2018-04-02T07:43:15Z</time>
      </trkpt>
      <trkpt lat="40.564605" lon="0.095002">
        <ele>837.935</ele>
        <time>2018-04-02T07:43:28Z</time>
      </trkpt>
      <trkpt lat="40.564581" lon="0.094783">
        <ele>840.879</ele>
        <time>2018-04-02T07:43:40Z</time>
      </trkpt>
      <trkpt lat="40.564579" lon="0.094767">
        <ele>841.205</ele>
        <time>2018-04-02T07:43:41Z</time>
      </trkpt>
      <trkpt lat="40.564572" lon="0.094749">
        <ele>841.225</ele>
        <time>2018-04-02T07:43:42Z</time>
      </trkpt>
      <trkpt lat="40.564475" lon="0.094534">
        <ele>844.608</ele>
        <time>2018-04-02T07:43:56Z</time>
      </trkpt>
      <trkpt lat="40.564455" lon="0.094375">
        <ele>846.580</ele>
        <time>2018-04-02T07:44:05Z</time>
      </trkpt>
      <trkpt lat="40.564560" lon="0.094167">
        <ele>849.477</ele>
        <time>2018-04-02T07:44:18Z</time>
      </trkpt>
      <trkpt lat="40.564671" lon="0.094004">
        <ele>852.351</ele>
        <time>2018-04-02T07:44:30Z</time>
      </trkpt>
      <trkpt lat="40.564673" lon="0.093984">
        <ele>852.369</ele>
        <time>2018-04-02T07:44:31Z</time>
      </trkpt>
      <trkpt lat="40.564675" lon="0.093964">
        <ele>852.887</ele>
        <time>2018-04-02T07:44:32Z</time>
      </trkpt>
      <trkpt lat="40.564680" lon="0.093946">
        <ele>852.860</ele>
        <time>2018-04-02T07:44:33Z</time>
      </trkpt>
      <trkpt lat="40.564685" lon="0.093927">
        <ele>853.337</ele>
        <time>2018-04-02T07:44:34Z</time>
      </trkpt>
      <trkpt lat="40.564688" lon="0.093909">
        <ele>853.397</ele>
        <time>2018-04-02T07:44:35Z</time>
      </trkpt>
      <trkpt lat="40.564687" lon="0.093890">
        <ele>853.752</ele>
        <time>2018-04-02T07:44:36Z</time>
      </trkpt>
      <trkpt lat="40.564685" lon="0.093870">
        <ele>853.753</ele>
        <time>2018-04-02T07:44:37Z</time>
      </trkpt>
      <trkpt lat="40.564568" lon="0.093583">
        <ele>855.708</ele>
        <time>2018-04-02T07:44:53Z</time>
      </trkpt>
      <trkpt lat="40.564373" lon="0.093263">
        <ele>857.108</ele>
        <time>2018-04-02T07:45:08Z</time>
      </trkpt>
      <trkpt lat="40.564460" lon="0.092974">
        <ele>859.078</ele>
        <time>2018-04-02T07:45:22Z</time>
      </trkpt>
      <trkpt lat="40.564648" lon="0.092792">
        <ele>862.425</ele>
        <time>2018-04-02T07:45:35Z</time>
      </trkpt>
      <trkpt lat="40.564782" lon="0.092494">
        <ele>865.339</ele>
        <time>2018-04-02T07:45:50Z</time>
      </trkpt>
      <trkpt lat="40.564879" lon="0.092209">
        <ele>865.337</ele>
        <time>2018-04-02T07:46:02Z</time>
      </trkpt>
      <trkpt lat="40.565064" lon="0.091901">
        <ele>869.125</ele>
        <time>2018-04-02T07:46:19Z</time>
      </trkpt>
      <trkpt lat="40.565238" lon="0.091687">
        <ele>872.048</ele>
        <time>2018-04-02T07:46:33Z</time>
      </trkpt>
      <trkpt lat="40.565377" lon="0.091434">
        <ele>874.965</ele>
        <time>2018-04-02T07:46:48Z</time>
      </trkpt>
      <trkpt lat="40.565515" lon="0.091147">
        <ele>877.825</ele>
        <time>2018-04-02T07:47:03Z</time>
      </trkpt>
      <trkpt lat="40.565560" lon="0.090765">
        <ele>881.112</ele>
        <time>2018-04-02T07:47:19Z</time>
      </trkpt>
      <trkpt lat="40.565526" lon="0.090418">
        <ele>883.132</ele>
        <time>2018-04-02T07:47:35Z</time>
      </trkpt>
      <trkpt lat="40.565639" lon="0.090152">
        <ele>886.405</ele>
        <time>2018-04-02T07:47:49Z</time>
      </trkpt>
      <trkpt lat="40.565737" lon="0.089825">
        <ele>889.808</ele>
        <time>2018-04-02T07:48:05Z</time>
      </trkpt>
      <trkpt lat="40.565761" lon="0.089509">
        <ele>892.774</ele>
        <time>2018-04-02T07:48:20Z</time>
      </trkpt>
      <trkpt lat="40.565744" lon="0.089265">
        <ele>895.151</ele>
        <time>2018-04-02T07:48:33Z</time>
      </trkpt>
      <trkpt lat="40.565735" lon="0.089251">
        <ele>895.625</ele>
        <time>2018-04-02T07:48:34Z</time>
      </trkpt>
      <trkpt lat="40.565718" lon="0.089035">
        <ele>898.933</ele>
        <time>2018-04-02T07:48:45Z</time>
      </trkpt>
      <trkpt lat="40.565725" lon="0.089016">
        <ele>898.931</ele>
        <time>2018-04-02T07:48:46Z</time>
      </trkpt>
      <trkpt lat="40.565734" lon="0.089001">
        <ele>899.484</ele>
        <time>2018-04-02T07:48:47Z</time>
      </trkpt>
      <trkpt lat="40.565745" lon="0.088988">
        <ele>899.971</ele>
        <time>2018-04-02T07:48:48Z</time>
      </trkpt>
      <trkpt lat="40.565754" lon="0.088973">
        <ele>899.921</ele>
        <time>2018-04-02T07:48:49Z</time>
      </trkpt>
      <trkpt lat="40.565764" lon="0.088962">
        <ele>900.416</ele>
        <time>2018-04-02T07:48:50Z</time>
      </trkpt>
      <trkpt lat="40.565778" lon="0.088952">
        <ele>900.476</ele>
        <time>2018-04-02T07:48:51Z</time>
      </trkpt>
      <trkpt lat="40.565914" lon="0.088741">
        <ele>903.713</ele>
        <time>2018-04-02T07:49:05Z</time>
      </trkpt>
      <trkpt lat="40.565969" lon="0.088564">
        <ele>905.208</ele>
        <time>2018-04-02T07:49:14Z</time>
      </trkpt>
      <trkpt lat="40.566149" lon="0.088318">
        <ele>907.694</ele>
        <time>2018-04-02T07:49:29Z</time>
      </trkpt>
      <trkpt lat="40.566298" lon="0.088092">
        <ele>910.941</ele>
        <time>2018-04-02T07:49:43Z</time>
      </trkpt>
      <trkpt lat="40.566316" lon="0.088060">
        <ele>911.425</ele>
        <time>2018-04-02T07:49:45Z</time>
      </trkpt>
      <trkpt lat="40.566325" lon="0.088042">
        <ele>911.413</ele>
        <time>2018-04-02T07:49:46Z</time>
      </trkpt>
      <trkpt lat="40.566337" lon="0.088030">
        <ele>911.961</ele>
        <time>2018-04-02T07:49:47Z</time>
      </trkpt>
      <trkpt lat="40.566349" lon="0.088017">
        <ele>911.974</ele>
        <time>2018-04-02T07:49:48Z</time>
      </trkpt>
      <trkpt lat="40.566360" lon="0.088003">
        <ele>912.461</ele>
        <time>2018-04-02T07:49:49Z</time>
      </trkpt>
      <trkpt lat="40.566373" lon="0.087988">
        <ele>912.411</ele>
        <time>2018-04-02T07:49:50Z</time>
      </trkpt>
      <trkpt lat="40.566572" lon="0.087732">
        <ele>914.823</ele>
        <time>2018-04-02T07:50:06Z</time>
      </trkpt>
      <trkpt lat="40.566576" lon="0.087414">
        <ele>916.783</ele>
        <time>2018-04-02T07:50:21Z</time>
      </trkpt>
      <trkpt lat="40.566554" lon="0.087154">
        <ele>920.611</ele>
        <time>2018-04-02T07:50:34Z</time>
      </trkpt>
      <trkpt lat="40.566545" lon="0.086892">
        <ele>923.908</ele>
        <time>2018-04-02T07:50:45Z</time>
      </trkpt>
      <trkpt lat="40.566543" lon="0.086533">
        <ele>926.385</ele>
        <time>2018-04-02T07:51:02Z</time>
      </trkpt>
      <trkpt lat="40.566612" lon="0.086151">
        <ele>929.272</ele>
        <time>2018-04-02T07:51:17Z</time>
      </trkpt>
      <trkpt lat="40.566599" lon="0.085808">
        <ele>931.686</ele>
        <time>2018-04-02T07:51:32Z</time>
      </trkpt>
      <trkpt lat="40.566607" lon="0.085722">
        <ele>932.694</ele>
        <time>2018-04-02T07:51:36Z</time>
      </trkpt>
      <trkpt lat="40.566612" lon="0.085703">
        <ele>932.652</ele>
        <time>2018-04-02T07:51:37Z</time>
      </trkpt>
      <trkpt lat="40.566615" lon="0.085682">
        <ele>933.185</ele>
        <time>2018-04-02T07:51:38Z</time>
      </trkpt>
      <trkpt lat="40.566652" lon="0.085428">
        <ele>936.472</ele>
        <time>2018-04-02T07:51:50Z</time>
      </trkpt>
      <trkpt lat="40.566731" lon="0.085231">
        <ele>939.832</ele>
        <time>2018-04-02T07:52:01Z</time>
      </trkpt>
      <trkpt lat="40.566878" lon="0.085013">
        <ele>942.757</ele>
        <time>2018-04-02T07:52:16Z</time>
      </trkpt>
      <trkpt lat="40.566928" lon="0.084915">
        <ele>944.600</ele>
        <time>2018-04-02T07:52:22Z</time>
      </trkpt>
      <trkpt lat="40.566941" lon="0.084912">
        <ele>944.620</ele>
        <time>2018-04-02T07:52:23Z</time>
      </trkpt>
      <trkpt lat="40.566954" lon="0.084905">
        <ele>944.608</ele>
        <time>2018-04-02T07:52:24Z</time>
      </trkpt>
      <trkpt lat="40.567125" lon="0.084858">
        <ele>947.078</ele>
        <time>2018-04-02T07:52:37Z</time>
      </trkpt>
      <trkpt lat="40.567214" lon="0.084823">
        <ele>948.445</ele>
        <time>2018-04-02T07:52:44Z</time>
      </trkpt>
      <trkpt lat="40.567224" lon="0.084813">
        <ele>948.419</ele>
        <time>2018-04-02T07:52:45Z</time>
      </trkpt>
      <trkpt lat="40.567258" lon="0.084789">
        <ele>949.427</ele>
        <time>2018-04-02T07:52:48Z</time>
      </trkpt>
      <trkpt lat="40.567267" lon="0.084780">
        <ele>949.935</ele>
        <time>2018-04-02T07:52:49Z</time>
      </trkpt>
      <trkpt lat="40.567278" lon="0.084772">
        <ele>949.998</ele>
        <time>2018-04-02T07:52:50Z</time>
      </trkpt>
      <trkpt lat="40.567288" lon="0.084760">
        <ele>949.945</ele>
        <time>2018-04-02T07:52:51Z</time>
      </trkpt>
      <trkpt lat="40.567294" lon="0.084744">
        <ele>949.955</ele>
        <time>2018-04-02T07:52:52Z</time>
      </trkpt>
      <trkpt lat="40.567298" lon="0.084728">
        <ele>949.968</ele>
        <time>2018-04-02T07:52:53Z</time>
      </trkpt>
      <trkpt lat="40.567303" lon="0.084712">
        <ele>950.842</ele>
        <time>2018-04-02T07:52:54Z</time>
      </trkpt>
      <trkpt lat="40.567310" lon="0.084695">
        <ele>950.826</ele>
        <time>2018-04-02T07:52:55Z</time>
      </trkpt>
      <trkpt lat="40.567317" lon="0.084678">
        <ele>950.808</ele>
        <time>2018-04-02T07:52:56Z</time>
      </trkpt>
      <trkpt lat="40.567395" lon="0.084431">
        <ele>953.279</ele>
        <time>2018-04-02T07:53:10Z</time>
      </trkpt>
      <trkpt lat="40.567492" lon="0.084397">
        <ele>954.276</ele>
        <time>2018-04-02T07:53:17Z</time>
      </trkpt>
      <trkpt lat="40.567505" lon="0.084398">
        <ele>954.760</ele>
        <time>2018-04-02T07:53:18Z</time>
      </trkpt>
      <trkpt lat="40.567520" lon="0.084398">
        <ele>954.778</ele>
        <time>2018-04-02T07:53:19Z</time>
      </trkpt>
      <trkpt lat="40.567532" lon="0.084392">
        <ele>955.256</ele>
        <time>2018-04-02T07:53:20Z</time>
      </trkpt>
      <trkpt lat="40.567546" lon="0.084382">
        <ele>955.249</ele>
        <time>2018-04-02T07:53:21Z</time>
      </trkpt>
      <trkpt lat="40.567557" lon="0.084370">
        <ele>955.666</ele>
        <time>2018-04-02T07:53:22Z</time>
      </trkpt>
      <trkpt lat="40.567569" lon="0.084358">
        <ele>955.666</ele>
        <time>2018-04-02T07:53:23Z</time>
      </trkpt>
      <trkpt lat="40.567647" lon="0.084162">
        <ele>958.559</ele>
        <time>2018-04-02T07:53:33Z</time>
      </trkpt>
      <trkpt lat="40.567702" lon="0.083872">
        <ele>960.903</ele>
        <time>2018-04-02T07:53:48Z</time>
      </trkpt>
      <trkpt lat="40.567763" lon="0.083581">
        <ele>963.823</ele>
        <time>2018-04-02T07:54:03Z</time>
      </trkpt>
      <trkpt lat="40.567921" lon="0.083382">
        <ele>967.208</ele>
        <time>2018-04-02T07:54:16Z</time>
      </trkpt>
      <trkpt lat="40.568082" lon="0.083266">
        <ele>970.118</ele>
        <time>2018-04-02T07:54:29Z</time>
      </trkpt>
      <trkpt lat="40.568228" lon="0.083083">
        <ele>972.935</ele>
        <time>2018-04-02T07:54:43Z</time>
      </trkpt>
      <trkpt lat="40.568403" lon="0.082886">
        <ele>975.819</ele>
        <time>2018-04-02T07:54:58Z</time>
      </trkpt>
      <trkpt lat="40.568540" lon="0.082720">
        <ele>978.257</ele>
        <time>2018-04-02T07:55:10Z</time>
      </trkpt>
      <trkpt lat="40.568553" lon="0.082702">
        <ele>978.265</ele>
        <time>2018-04-02T07:55:11Z</time>
      </trkpt>
      <trkpt lat="40.568643" lon="0.082619">
        <ele>980.298</ele>
        <time>2018-04-02T07:55:18Z</time>
      </trkpt>
      <trkpt lat="40.568655" lon="0.082607">
        <ele>980.275</ele>
        <time>2018-04-02T07:55:19Z</time>
      </trkpt>
      <trkpt lat="40.568665" lon="0.082590">
        <ele>980.275</ele>
        <time>2018-04-02T07:55:20Z</time>
      </trkpt>
      <trkpt lat="40.568674" lon="0.082573">
        <ele>980.619</ele>
        <time>2018-04-02T07:55:21Z</time>
      </trkpt>
      <trkpt lat="40.568687" lon="0.082560">
        <ele>980.609</ele>
        <time>2018-04-02T07:55:22Z</time>
      </trkpt>
      <trkpt lat="40.568702" lon="0.082543">
        <ele>980.619</ele>
        <time>2018-04-02T07:55:23Z</time>
      </trkpt>
      <trkpt lat="40.568714" lon="0.082526">
        <ele>980.608</ele>
        <time>2018-04-02T07:55:24Z</time>
      </trkpt>
      <trkpt lat="40.568727" lon="0.082509">
        <ele>980.634</ele>
        <time>2018-04-02T07:55:25Z</time>
      </trkpt>
      <trkpt lat="40.568743" lon="0.082496">
        <ele>981.141</ele>
        <time>2018-04-02T07:55:26Z</time>
      </trkpt>
      <trkpt lat="40.568937" lon="0.082355">
        <ele>983.095</ele>
        <time>2018-04-02T07:55:40Z</time>
      </trkpt>
      <trkpt lat="40.568950" lon="0.082364">
        <ele>983.583</ele>
        <time>2018-04-02T07:55:41Z</time>
      </trkpt>
      <trkpt lat="40.569002" lon="0.082424">
        <ele>984.581</ele>
        <time>2018-04-02T07:55:45Z</time>
      </trkpt>
      <trkpt lat="40.569012" lon="0.082444">
        <ele>984.554</ele>
        <time>2018-04-02T07:55:46Z</time>
      </trkpt>
      <trkpt lat="40.569025" lon="0.082465">
        <ele>985.061</ele>
        <time>2018-04-02T07:55:47Z</time>
      </trkpt>
      <trkpt lat="40.569039" lon="0.082486">
        <ele>985.081</ele>
        <time>2018-04-02T07:55:48Z</time>
      </trkpt>
      <trkpt lat="40.569048" lon="0.082505">
        <ele>985.971</ele>
        <time>2018-04-02T07:55:49Z</time>
      </trkpt>
      <trkpt lat="40.569056" lon="0.082524">
        <ele>985.941</ele>
        <time>2018-04-02T07:55:50Z</time>
      </trkpt>
      <trkpt lat="40.569063" lon="0.082543">
        <ele>985.915</ele>
        <time>2018-04-02T07:55:51Z</time>
      </trkpt>
      <trkpt lat="40.569075" lon="0.082560">
        <ele>985.908</ele>
        <time>2018-04-02T07:55:52Z</time>
      </trkpt>
      <trkpt lat="40.569314" lon="0.082614">
        <ele>987.890</ele>
        <time>2018-04-02T07:56:07Z</time>
      </trkpt>
      <trkpt lat="40.569541" lon="0.082549">
        <ele>990.367</ele>
        <time>2018-04-02T07:56:21Z</time>
      </trkpt>
      <trkpt lat="40.569559" lon="0.082547">
        <ele>990.321</ele>
        <time>2018-04-02T07:56:22Z</time>
      </trkpt>
      <trkpt lat="40.569664" lon="0.082535">
        <ele>991.719</ele>
        <time>2018-04-02T07:56:30Z</time>
      </trkpt>
      <trkpt lat="40.569698" lon="0.082587">
        <ele>991.737</ele>
        <time>2018-04-02T07:56:33Z</time>
      </trkpt>
      <trkpt lat="40.569699" lon="0.082619">
        <ele>992.290</ele>
        <time>2018-04-02T07:56:34Z</time>
      </trkpt>
      <trkpt lat="40.569697" lon="0.082637">
        <ele>991.787</ele>
        <time>2018-04-02T07:56:35Z</time>
      </trkpt>
      <trkpt lat="40.569686" lon="0.082662">
        <ele>992.217</ele>
        <time>2018-04-02T07:56:36Z</time>
      </trkpt>
      <trkpt lat="40.569672" lon="0.082684">
        <ele>992.212</ele>
        <time>2018-04-02T07:56:37Z</time>
      </trkpt>
      <trkpt lat="40.569660" lon="0.082706">
        <ele>992.232</ele>
        <time>2018-04-02T07:56:38Z</time>
      </trkpt>
      <trkpt lat="40.569462" lon="0.083016">
        <ele>992.705</ele>
        <time>2018-04-02T07:56:50Z</time>
      </trkpt>
      <trkpt lat="40.569220" lon="0.083421">
        <ele>995.508</ele>
        <time>2018-04-02T07:57:06Z</time>
      </trkpt>
      <trkpt lat="40.569196" lon="0.083654">
        <ele>997.584</ele>
        <time>2018-04-02T07:57:15Z</time>
      </trkpt>
      <trkpt lat="40.569194" lon="0.083678">
        <ele>997.581</ele>
        <time>2018-04-02T07:57:16Z</time>
      </trkpt>
      <trkpt lat="40.569105" lon="0.084008">
        <ele>1000.395</ele>
        <time>2018-04-02T07:57:32Z</time>
      </trkpt>
      <trkpt lat="40.569015" lon="0.084211">
        <ele>1002.773</ele>
        <time>2018-04-02T07:57:44Z</time>
      </trkpt>
      <trkpt lat="40.568974" lon="0.084431">
        <ele>1005.631</ele>
        <time>2018-04-02T07:57:55Z</time>
      </trkpt>
      <trkpt lat="40.568971" lon="0.084451">
        <ele>1006.114</ele>
        <time>2018-04-02T07:57:56Z</time>
      </trkpt>
      <trkpt lat="40.568970" lon="0.084474">
        <ele>1006.121</ele>
        <time>2018-04-02T07:57:57Z</time>
      </trkpt>
      <trkpt lat="40.568942" lon="0.084872">
        <ele>1009.581</ele>
        <time>2018-04-02T07:58:16Z</time>
      </trkpt>
      <trkpt lat="40.568945" lon="0.085282">
        <ele>1012.853</ele>
        <time>2018-04-02T07:58:35Z</time>
      </trkpt>
      <trkpt lat="40.568961" lon="0.085580">
        <ele>1015.204</ele>
        <time>2018-04-02T07:58:48Z</time>
      </trkpt>
      <trkpt lat="40.568967" lon="0.085932">
        <ele>1017.214</ele>
        <time>2018-04-02T07:59:01Z</time>
      </trkpt>
      <trkpt lat="40.569063" lon="0.086307">
        <ele>1019.108</ele>
        <time>2018-04-02T07:59:16Z</time>
      </trkpt>
      <trkpt lat="40.569236" lon="0.086717">
        <ele>1020.538</ele>
        <time>2018-04-02T07:59:33Z</time>
      </trkpt>
      <trkpt lat="40.569463" lon="0.087082">
        <ele>1022.075</ele>
        <time>2018-04-02T07:59:51Z</time>
      </trkpt>
      <trkpt lat="40.569723" lon="0.087199">
        <ele>1022.959</ele>
        <time>2018-04-02T08:00:05Z</time>
      </trkpt>
      <trkpt lat="40.569994" lon="0.087360">
        <ele>1024.927</ele>
        <time>2018-04-02T08:00:20Z</time>
      </trkpt>
      <trkpt lat="40.570152" lon="0.087660">
        <ele>1027.365</ele>
        <time>2018-04-02T08:00:36Z</time>
      </trkpt>
      <trkpt lat="40.570148" lon="0.088067">
        <ele>1028.748</ele>
        <time>2018-04-02T08:00:51Z</time>
      </trkpt>
      <trkpt lat="40.570220" lon="0.088484">
        <ele>1029.795</ele>
        <time>2018-04-02T08:01:06Z</time>
      </trkpt>
      <trkpt lat="40.570412" lon="0.088810">
        <ele>1032.175</ele>
        <time>2018-04-02T08:01:22Z</time>
      </trkpt>
      <trkpt lat="40.570515" lon="0.089093">
        <ele>1035.081</ele>
        <time>2018-04-02T08:01:34Z</time>
      </trkpt>
      <trkpt lat="40.570585" lon="0.089488">
        <ele>1036.961</ele>
        <time>2018-04-02T08:01:51Z</time>
      </trkpt>
      <trkpt lat="40.570610" lon="0.089554">
        <ele>1037.817</ele>
        <time>2018-04-02T08:01:54Z</time>
      </trkpt>
      <trkpt lat="40.570623" lon="0.089570">
        <ele>1038.308</ele>
        <time>2018-04-02T08:01:55Z</time>
      </trkpt>
      <trkpt lat="40.570639" lon="0.089586">
        <ele>1038.351</ele>
        <time>2018-04-02T08:01:56Z</time>
      </trkpt>
      <trkpt lat="40.570655" lon="0.089600">
        <ele>1038.818</ele>
        <time>2018-04-02T08:01:57Z</time>
      </trkpt>
      <trkpt lat="40.570671" lon="0.089610">
        <ele>1038.822</ele>
        <time>2018-04-02T08:01:58Z</time>
      </trkpt>
      <trkpt lat="40.570688" lon="0.089618">
        <ele>1038.870</ele>
        <time>2018-04-02T08:01:59Z</time>
      </trkpt>
      <trkpt lat="40.570720" lon="0.089631">
        <ele>1039.368</ele>
        <time>2018-04-02T08:02:01Z</time>
      </trkpt>
      <trkpt lat="40.570736" lon="0.089632">
        <ele>1039.871</ele>
        <time>2018-04-02T08:02:02Z</time>
      </trkpt>
      <trkpt lat="40.570938" lon="0.089527">
        <ele>1042.238</ele>
        <time>2018-04-02T08:02:16Z</time>
      </trkpt>
      <trkpt lat="40.570947" lon="0.089514">
        <ele>1042.218</ele>
        <time>2018-04-02T08:02:17Z</time>
      </trkpt>
      <trkpt lat="40.570957" lon="0.089505">
        <ele>1042.219</ele>
        <time>2018-04-02T08:02:18Z</time>
      </trkpt>
      <trkpt lat="40.570973" lon="0.089502">
        <ele>1042.609</ele>
        <time>2018-04-02T08:02:19Z</time>
      </trkpt>
      <trkpt lat="40.570988" lon="0.089501">
        <ele>1042.619</ele>
        <time>2018-04-02T08:02:20Z</time>
      </trkpt>
      <trkpt lat="40.571004" lon="0.089496">
        <ele>1043.108</ele>
        <time>2018-04-02T08:02:21Z</time>
      </trkpt>
      <trkpt lat="40.571021" lon="0.089487">
        <ele>1043.634</ele>
        <time>2018-04-02T08:02:22Z</time>
      </trkpt>
      <trkpt lat="40.571036" lon="0.089478">
        <ele>1043.681</ele>
        <time>2018-04-02T08:02:23Z</time>
      </trkpt>
      <trkpt lat="40.571146" lon="0.089384">
        <ele>1047.025</ele>
        <time>2018-04-02T08:02:31Z</time>
      </trkpt>
      <trkpt lat="40.571215" lon="0.089297">
        <ele>1047.923</ele>
        <time>2018-04-02T08:02:37Z</time>
      </trkpt>
      <trkpt lat="40.571223" lon="0.089282">
        <ele>1047.981</ele>
        <time>2018-04-02T08:02:38Z</time>
      </trkpt>
      <trkpt lat="40.571322" lon="0.089076">
        <ele>1050.884</ele>
        <time>2018-04-02T08:02:51Z</time>
      </trkpt>
      <trkpt lat="40.571445" lon="0.088831">
        <ele>1054.731</ele>
        <time>2018-04-02T08:03:06Z</time>
      </trkpt>
      <trkpt lat="40.571518" lon="0.088645">
        <ele>1057.561</ele>
        <time>2018-04-02T08:03:17Z</time>
      </trkpt>
      <trkpt lat="40.571542" lon="0.088482">
        <ele>1059.931</ele>
        <time>2018-04-02T08:03:26Z</time>
      </trkpt>
      <trkpt lat="40.571547" lon="0.088463">
        <ele>1060.461</ele>
        <time>2018-04-02T08:03:27Z</time>
      </trkpt>
      <trkpt lat="40.571551" lon="0.088444">
        <ele>1060.407</ele>
        <time>2018-04-02T08:03:28Z</time>
      </trkpt>
      <trkpt lat="40.571552" lon="0.088426">
        <ele>1060.408</ele>
        <time>2018-04-02T08:03:29Z</time>
      </trkpt>
      <trkpt lat="40.571551" lon="0.088408">
        <ele>1060.956</ele>
        <time>2018-04-02T08:03:30Z</time>
      </trkpt>
      <trkpt lat="40.571551" lon="0.088387">
        <ele>1060.923</ele>
        <time>2018-04-02T08:03:31Z</time>
      </trkpt>
      <trkpt lat="40.571551" lon="0.088368">
        <ele>1061.927</ele>
        <time>2018-04-02T08:03:32Z</time>
      </trkpt>
      <trkpt lat="40.571552" lon="0.088349">
        <ele>1061.965</ele>
        <time>2018-04-02T08:03:33Z</time>
      </trkpt>
      <trkpt lat="40.571549" lon="0.088102">
        <ele>1065.213</ele>
        <time>2018-04-02T08:03:46Z</time>
      </trkpt>
      <trkpt lat="40.571533" lon="0.087958">
        <ele>1067.216</ele>
        <time>2018-04-02T08:03:54Z</time>
      </trkpt>
      <trkpt lat="40.571532" lon="0.087941">
        <ele>1067.263</ele>
        <time>2018-04-02T08:03:55Z</time>
      </trkpt>
      <trkpt lat="40.571439" lon="0.087675">
        <ele>1070.093</ele>
        <time>2018-04-02T08:04:10Z</time>
      </trkpt>
      <trkpt lat="40.571366" lon="0.087490">
        <ele>1071.592</ele>
        <time>2018-04-02T08:04:21Z</time>
      </trkpt>
      <trkpt lat="40.571360" lon="0.087471">
        <ele>1071.573</ele>
        <time>2018-04-02T08:04:22Z</time>
      </trkpt>
      <trkpt lat="40.571354" lon="0.087451">
        <ele>1072.020</ele>
        <time>2018-04-02T08:04:23Z</time>
      </trkpt>
      <trkpt lat="40.571348" lon="0.087433">
        <ele>1072.008</ele>
        <time>2018-04-02T08:04:24Z</time>
      </trkpt>
      <trkpt lat="40.571341" lon="0.087411">
        <ele>1072.092</ele>
        <time>2018-04-02T08:04:25Z</time>
      </trkpt>
      <trkpt lat="40.571336" lon="0.087391">
        <ele>1072.469</ele>
        <time>2018-04-02T08:04:26Z</time>
      </trkpt>
      <trkpt lat="40.571273" lon="0.087129">
        <ele>1074.853</ele>
        <time>2018-04-02T08:04:40Z</time>
      </trkpt>
      <trkpt lat="40.571215" lon="0.086855">
        <ele>1077.781</ele>
        <time>2018-04-02T08:04:54Z</time>
      </trkpt>
      <trkpt lat="40.571210" lon="0.086644">
        <ele>1081.189</ele>
        <time>2018-04-02T08:05:05Z</time>
      </trkpt>
      <trkpt lat="40.571238" lon="0.086416">
        <ele>1084.532</ele>
        <time>2018-04-02T08:05:17Z</time>
      </trkpt>
      <trkpt lat="40.571267" lon="0.086302">
        <ele>1084.929</ele>
        <time>2018-04-02T08:05:23Z</time>
      </trkpt>
      <trkpt lat="40.571271" lon="0.086281">
        <ele>1085.499</ele>
        <time>2018-04-02T08:05:24Z</time>
      </trkpt>
      <trkpt lat="40.571319" lon="0.085969">
        <ele>1088.887</ele>
        <time>2018-04-02T08:05:40Z</time>
      </trkpt>
      <trkpt lat="40.571342" lon="0.085721">
        <ele>1091.742</ele>
        <time>2018-04-02T08:05:53Z</time>
      </trkpt>
      <trkpt lat="40.571366" lon="0.085516">
        <ele>1094.626</ele>
        <time>2018-04-02T08:06:04Z</time>
      </trkpt>
      <trkpt lat="40.571406" lon="0.085316">
        <ele>1097.008</ele>
        <time>2018-04-02T08:06:15Z</time>
      </trkpt>
      <trkpt lat="40.571413" lon="0.085303">
        <ele>1097.041</ele>
        <time>2018-04-02T08:06:16Z</time>
      </trkpt>
      <trkpt lat="40.571496" lon="0.085071">
        <ele>1100.358</ele>
        <time>2018-04-02T08:06:30Z</time>
      </trkpt>
      <trkpt lat="40.571589" lon="0.084799">
        <ele>1103.762</ele>
        <time>2018-04-02T08:06:46Z</time>
      </trkpt>
      <trkpt lat="40.571594" lon="0.084784">
        <ele>1103.740</ele>
        <time>2018-04-02T08:06:47Z</time>
      </trkpt>
      <trkpt lat="40.571595" lon="0.084767">
        <ele>1104.298</ele>
        <time>2018-04-02T08:06:48Z</time>
      </trkpt>
      <trkpt lat="40.571595" lon="0.084746">
        <ele>1104.291</ele>
        <time>2018-04-02T08:06:49Z</time>
      </trkpt>
      <trkpt lat="40.571604" lon="0.084709">
        <ele>1105.198</ele>
        <time>2018-04-02T08:06:51Z</time>
      </trkpt>
      <trkpt lat="40.571613" lon="0.084694">
        <ele>1105.188</ele>
        <time>2018-04-02T08:06:52Z</time>
      </trkpt>
      <trkpt lat="40.571620" lon="0.084678">
        <ele>1105.111</ele>
        <time>2018-04-02T08:06:53Z</time>
      </trkpt>
      <trkpt lat="40.571627" lon="0.084661">
        <ele>1105.621</ele>
        <time>2018-04-02T08:06:54Z</time>
      </trkpt>
      <trkpt lat="40.571632" lon="0.084644">
        <ele>1105.603</ele>
        <time>2018-04-02T08:06:55Z</time>
      </trkpt>
      <trkpt lat="40.571636" lon="0.084623">
        <ele>1105.608</ele>
        <time>2018-04-02T08:06:56Z</time>
      </trkpt>
      <trkpt lat="40.571641" lon="0.084602">
        <ele>1106.684</ele>
        <time>2018-04-02T08:06:57Z</time>
      </trkpt>
      <trkpt lat="40.571646" lon="0.084584">
        <ele>1106.611</ele>
        <time>2018-04-02T08:06:58Z</time>
      </trkpt>
      <trkpt lat="40.571651" lon="0.084566">
        <ele>1106.645</ele>
        <time>2018-04-02T08:06:59Z</time>
      </trkpt>
      <trkpt lat="40.571658" lon="0.084550">
        <ele>1107.153</ele>
        <time>2018-04-02T08:07:00Z</time>
      </trkpt>
      <trkpt lat="40.571705" lon="0.084345">
        <ele>1109.911</ele>
        <time>2018-04-02T08:07:11Z</time>
      </trkpt>
      <trkpt lat="40.571735" lon="0.084151">
        <ele>1113.374</ele>
        <time>2018-04-02T08:07:22Z</time>
      </trkpt>
      <trkpt lat="40.571790" lon="0.084051">
        <ele>1113.841</ele>
        <time>2018-04-02T08:07:29Z</time>
      </trkpt>
      <trkpt lat="40.571799" lon="0.084041">
        <ele>1114.351</ele>
        <time>2018-04-02T08:07:30Z</time>
      </trkpt>
      <trkpt lat="40.571807" lon="0.084028">
        <ele>1114.375</ele>
        <time>2018-04-02T08:07:31Z</time>
      </trkpt>
      <trkpt lat="40.571812" lon="0.084011">
        <ele>1114.728</ele>
        <time>2018-04-02T08:07:32Z</time>
      </trkpt>
      <trkpt lat="40.571819" lon="0.083994">
        <ele>1114.720</ele>
        <time>2018-04-02T08:07:33Z</time>
      </trkpt>
      <trkpt lat="40.571828" lon="0.083978">
        <ele>1115.208</ele>
        <time>2018-04-02T08:07:34Z</time>
      </trkpt>
      <trkpt lat="40.571850" lon="0.083953">
        <ele>1115.730</ele>
        <time>2018-04-02T08:07:36Z</time>
      </trkpt>
      <trkpt lat="40.571859" lon="0.083943">
        <ele>1115.747</ele>
        <time>2018-04-02T08:07:37Z</time>
      </trkpt>
      <trkpt lat="40.571868" lon="0.083932">
        <ele>1115.731</ele>
        <time>2018-04-02T08:07:38Z</time>
      </trkpt>
      <trkpt lat="40.571948" lon="0.083831">
        <ele>1117.199</ele>
        <time>2018-04-02T08:07:46Z</time>
      </trkpt>
      <trkpt lat="40.571960" lon="0.083824">
        <ele>1117.157</ele>
        <time>2018-04-02T08:07:47Z</time>
      </trkpt>
      <trkpt lat="40.571971" lon="0.083815">
        <ele>1117.630</ele>
        <time>2018-04-02T08:07:48Z</time>
      </trkpt>
      <trkpt lat="40.572031" lon="0.083780">
        <ele>1118.147</ele>
        <time>2018-04-02T08:07:53Z</time>
      </trkpt>
      <trkpt lat="40.572044" lon="0.083777">
        <ele>1119.157</ele>
        <time>2018-04-02T08:07:54Z</time>
      </trkpt>
      <trkpt lat="40.572055" lon="0.083770">
        <ele>1118.692</ele>
        <time>2018-04-02T08:07:55Z</time>
      </trkpt>
      <trkpt lat="40.572066" lon="0.083764">
        <ele>1119.573</ele>
        <time>2018-04-02T08:07:56Z</time>
      </trkpt>
      <trkpt lat="40.572078" lon="0.083758">
        <ele>1119.520</ele>
        <time>2018-04-02T08:07:57Z</time>
      </trkpt>
      <trkpt lat="40.572288" lon="0.083665">
        <ele>1122.908</ele>
        <time>2018-04-02T08:08:13Z</time>
      </trkpt>
      <trkpt lat="40.572443" lon="0.083525">
        <ele>1125.852</ele>
        <time>2018-04-02T08:08:26Z</time>
      </trkpt>
      <trkpt lat="40.572659" lon="0.083357">
        <ele>1129.299</ele>
        <time>2018-04-02T08:08:42Z</time>
      </trkpt>
      <trkpt lat="40.572854" lon="0.083084">
        <ele>1131.193</ele>
        <time>2018-04-02T08:08:58Z</time>
      </trkpt>
      <trkpt lat="40.572967" lon="0.082867">
        <ele>1133.531</ele>
        <time>2018-04-02T08:09:10Z</time>
      </trkpt>
      <trkpt lat="40.572989" lon="0.082787">
        <ele>1134.049</ele>
        <time>2018-04-02T08:09:14Z</time>
      </trkpt>
      <trkpt lat="40.572992" lon="0.082765">
        <ele>1134.462</ele>
        <time>2018-04-02T08:09:15Z</time>
      </trkpt>
      <trkpt lat="40.573024" lon="0.082451">
        <ele>1136.489</ele>
        <time>2018-04-02T08:09:29Z</time>
      </trkpt>
      <trkpt lat="40.573066" lon="0.082176">
        <ele>1139.739</ele>
        <time>2018-04-02T08:09:41Z</time>
      </trkpt>
      <trkpt lat="40.573102" lon="0.081822">
        <ele>1142.619</ele>
        <time>2018-04-02T08:09:58Z</time>
      </trkpt>
      <trkpt lat="40.573092" lon="0.081494">
        <ele>1145.009</ele>
        <time>2018-04-02T08:10:14Z</time>
      </trkpt>
      <trkpt lat="40.573078" lon="0.081235">
        <ele>1147.919</ele>
        <time>2018-04-02T08:10:26Z</time>
      </trkpt>
      <trkpt lat="40.572968" lon="0.080924">
        <ele>1149.308</ele>
        <time>2018-04-02T08:10:41Z</time>
      </trkpt>
      <trkpt lat="40.572842" lon="0.080671">
        <ele>1149.824</ele>
        <time>2018-04-02T08:10:53Z</time>
      </trkpt>
      <trkpt lat="40.572714" lon="0.080436">
        <ele>1151.361</ele>
        <time>2018-04-02T08:11:07Z</time>
      </trkpt>
      <trkpt lat="40.572659" lon="0.080361">
        <ele>1152.245</ele>
        <time>2018-04-02T08:11:13Z</time>
      </trkpt>
      <trkpt lat="40.572520" lon="0.080192">
        <ele>1154.233</ele>
        <time>2018-04-02T08:11:26Z</time>
      </trkpt>
      <trkpt lat="40.572508" lon="0.080141">
        <ele>1154.611</ele>
        <time>2018-04-02T08:11:29Z</time>
      </trkpt>
      <trkpt lat="40.572511" lon="0.080121">
        <ele>1155.194</ele>
        <time>2018-04-02T08:11:30Z</time>
      </trkpt>
      <trkpt lat="40.572517" lon="0.080103">
        <ele>1155.171</ele>
        <time>2018-04-02T08:11:31Z</time>
      </trkpt>
      <trkpt lat="40.572525" lon="0.080090">
        <ele>1155.651</ele>
        <time>2018-04-02T08:11:32Z</time>
      </trkpt>
      <trkpt lat="40.572539" lon="0.080081">
        <ele>1155.624</ele>
        <time>2018-04-02T08:11:33Z</time>
      </trkpt>
      <trkpt lat="40.572554" lon="0.080079">
        <ele>1156.604</ele>
        <time>2018-04-02T08:11:34Z</time>
      </trkpt>
      <trkpt lat="40.572569" lon="0.080084">
        <ele>1156.614</ele>
        <time>2018-04-02T08:11:35Z</time>
      </trkpt>
      <trkpt lat="40.572583" lon="0.080091">
        <ele>1156.608</ele>
        <time>2018-04-02T08:11:36Z</time>
      </trkpt>
      <trkpt lat="40.572597" lon="0.080098">
        <ele>1156.685</ele>
        <time>2018-04-02T08:11:37Z</time>
      </trkpt>
      <trkpt lat="40.572610" lon="0.080105">
        <ele>1156.672</ele>
        <time>2018-04-02T08:11:38Z</time>
      </trkpt>
      <trkpt lat="40.572730" lon="0.080204">
        <ele>1156.656</ele>
        <time>2018-04-02T08:11:49Z</time>
      </trkpt>
      <trkpt lat="40.572742" lon="0.080218">
        <ele>1156.644</ele>
        <time>2018-04-02T08:11:50Z</time>
      </trkpt>
      <trkpt lat="40.572758" lon="0.080237">
        <ele>1156.632</ele>
        <time>2018-04-02T08:11:51Z</time>
      </trkpt>
      <trkpt lat="40.572968" lon="0.080542">
        <ele>1156.675</ele>
        <time>2018-04-02T08:12:06Z</time>
      </trkpt>
      <trkpt lat="40.573142" lon="0.080899">
        <ele>1158.032</ele>
        <time>2018-04-02T08:12:21Z</time>
      </trkpt>
      <trkpt lat="40.573279" lon="0.081221">
        <ele>1161.422</ele>
        <time>2018-04-02T08:12:35Z</time>
      </trkpt>
      <trkpt lat="40.573453" lon="0.081553">
        <ele>1164.727</ele>
        <time>2018-04-02T08:12:52Z</time>
      </trkpt>
      <trkpt lat="40.573549" lon="0.081814">
        <ele>1167.668</ele>
        <time>2018-04-02T08:13:05Z</time>
      </trkpt>
      <trkpt lat="40.573609" lon="0.082150">
        <ele>1171.014</ele>
        <time>2018-04-02T08:13:21Z</time>
      </trkpt>
      <trkpt lat="40.573682" lon="0.082522">
        <ele>1173.908</ele>
        <time>2018-04-02T08:13:38Z</time>
      </trkpt>
      <trkpt lat="40.573739" lon="0.082931">
        <ele>1177.235</ele>
        <time>2018-04-02T08:13:57Z</time>
      </trkpt>
      <trkpt lat="40.573835" lon="0.083307">
        <ele>1180.612</ele>
        <time>2018-04-02T08:14:15Z</time>
      </trkpt>
      <trkpt lat="40.573913" lon="0.083667">
        <ele>1183.056</ele>
        <time>2018-04-02T08:14:32Z</time>
      </trkpt>
      <trkpt lat="40.573975" lon="0.083939">
        <ele>1185.974</ele>
        <time>2018-04-02T08:14:45Z</time>
      </trkpt>
      <trkpt lat="40.574103" lon="0.084317">
        <ele>1189.262</ele>
        <time>2018-04-02T08:15:02Z</time>
      </trkpt>
      <trkpt lat="40.574357" lon="0.084645">
        <ele>1192.145</ele>
        <time>2018-04-02T08:15:20Z</time>
      </trkpt>
      <trkpt lat="40.574509" lon="0.084832">
        <ele>1194.052</ele>
        <time>2018-04-02T08:15:32Z</time>
      </trkpt>
      <trkpt lat="40.574729" lon="0.085210">
        <ele>1196.532</ele>
        <time>2018-04-02T08:15:51Z</time>
      </trkpt>
      <trkpt lat="40.574858" lon="0.085609">
        <ele>1198.492</ele>
        <time>2018-04-02T08:16:09Z</time>
      </trkpt>
      <trkpt lat="40.575040" lon="0.085941">
        <ele>1199.873</ele>
        <time>2018-04-02T08:16:25Z</time>
      </trkpt>
      <trkpt lat="40.575179" lon="0.086291">
        <ele>1198.920</ele>
        <time>2018-11-10T22:43:56Z</time>
      </trkpt>
      <trkpt lat="40.575194" lon="0.086335">
        <ele>1198.808</ele>
        <time>2018-11-10T22:44:16Z</time>
      </trkpt>
      <trkpt lat="40.575251" lon="0.086495">
        <ele>1199.212</ele>
        <time>2018-11-10T22:44:36Z</time>
      </trkpt>
      <trkpt lat="40.575293" lon="0.086627">
        <ele>1199.999</ele>
        <time>2018-11-10T22:44:56Z</time>
      </trkpt>
      <trkpt lat="40.575323" lon="0.086740">
        <ele>1200.083</ele>
        <time>2018-11-10T22:45:16Z</time>
      </trkpt>
      <trkpt lat="40.575406" lon="0.086981">
        <ele>1200.341</ele>
        <time>2018-11-10T22:45:36Z</time>
      </trkpt>
      <trkpt lat="40.575447" lon="0.087092">
        <ele>1201.969</ele>
        <time>2018-11-10T22:45:56Z</time>
      </trkpt>
      <trkpt lat="40.575505" lon="0.087289">
        <ele>1205.762</ele>
        <time>2018-11-10T22:46:16Z</time>
      </trkpt>
      <trkpt lat="40.575569" lon="0.087450">
        <ele>1208.659</ele>
        <time>2018-11-10T22:46:36Z</time>
      </trkpt>
      <trkpt lat="40.575614" lon="0.087588">
        <ele>1209.699</ele>
        <time>2018-11-10T22:46:56Z</time>
      </trkpt>
      <trkpt lat="40.575704" lon="0.087849">
        <ele>1215.519</ele>
        <time>2018-11-10T22:47:16Z</time>
      </trkpt>
      <trkpt lat="40.575762" lon="0.087935">
        <ele>1218.909</ele>
        <time>2018-11-10T22:47:36Z</time>
      </trkpt>
      <trkpt lat="40.575835" lon="0.088046">
        <ele>1221.819</ele>
        <time>2018-11-10T22:47:56Z</time>
      </trkpt>
      <trkpt lat="40.575882" lon="0.088092">
        <ele>1223.208</ele>
        <time>2018-11-10T22:48:16Z</time>
      </trkpt>
      <trkpt lat="40.576077" lon="0.088128">
        <ele>1224.064</ele>
        <time>2018-11-10T22:48:36Z</time>
      </trkpt>
      <trkpt lat="40.576222" lon="0.088175">
        <ele>1225.791</ele>
        <time>2018-11-10T22:48:56Z</time>
      </trkpt>
      <trkpt lat="40.576343" lon="0.088175">
        <ele>1226.035</ele>
        <time>2018-11-10T22:49:16Z</time>
      </trkpt>
      <trkpt lat="40.576497" lon="0.088135">
        <ele>1224.993</ele>
        <time>2018-11-10T22:49:36Z</time>
      </trkpt>
      <trkpt lat="40.576672" lon="0.088095">
        <ele>1225.491</ele>
        <time>2018-11-10T22:49:56Z</time>
      </trkpt>
      <trkpt lat="40.576834" lon="0.088082">
        <ele>1228.354</ele>
        <time>2018-11-10T22:50:16Z</time>
      </trkpt>
      <trkpt lat="40.576977" lon="0.088068">
        <ele>1230.271</ele>
        <time>2018-11-10T22:50:36Z</time>
      </trkpt>
      <trkpt lat="40.577120" lon="0.088068">
        <ele>1231.291</ele>
        <time>2018-11-10T22:50:56Z</time>
      </trkpt>
      <trkpt lat="40.577195" lon="0.088068">
        <ele>1229.585</ele>
        <time>2018-11-10T22:51:16Z</time>
      </trkpt>
      <trkpt lat="40.577217" lon="0.088125">
        <ele>1230.589</ele>
        <time>2018-11-10T22:51:36Z</time>
      </trkpt>
      <trkpt lat="40.577206" lon="0.088175">
        <ele>1232.217</ele>
        <time>2018-11-10T22:51:56Z</time>
      </trkpt>
      <trkpt lat="40.577174" lon="0.088248">
        <ele>1235.308</ele>
        <time>2018-11-10T22:52:16Z</time>
      </trkpt>
      <trkpt lat="40.577017" lon="0.088380">
        <ele>1239.511</ele>
        <time>2018-11-10T22:52:36Z</time>
      </trkpt>
      <trkpt lat="40.576931" lon="0.088427">
        <ele>1241.298</ele>
        <time>2018-11-10T22:52:56Z</time>
      </trkpt>
      <trkpt lat="40.576799" lon="0.088536">
        <ele>1243.262</ele>
        <time>2018-11-10T22:53:16Z</time>
      </trkpt>
      <trkpt lat="40.576699" lon="0.088616">
        <ele>1244.990</ele>
        <time>2018-11-10T22:53:36Z</time>
      </trkpt>
      <trkpt lat="40.576578" lon="0.088712">
        <ele>1247.238</ele>
        <time>2018-11-10T22:53:56Z</time>
      </trkpt>
      <trkpt lat="40.576484" lon="0.088839">
        <ele>1249.911</ele>
        <time>2018-11-10T22:54:16Z</time>
      </trkpt>
      <trkpt lat="40.576414" lon="0.088991">
        <ele>1249.758</ele>
        <time>2018-11-10T22:54:36Z</time>
      </trkpt>
      <trkpt lat="40.576406" lon="0.089210">
        <ele>1250.398</ele>
        <time>2018-11-10T22:54:56Z</time>
      </trkpt>
      <trkpt lat="40.576403" lon="0.089463">
        <ele>1250.745</ele>
        <time>2018-11-10T22:55:16Z</time>
      </trkpt>
      <trkpt lat="40.576457" lon="0.089668">
        <ele>1254.547</ele>
        <time>2018-11-10T22:55:36Z</time>
      </trkpt>
      <trkpt lat="40.576505" lon="0.089838">
        <ele>1255.611</ele>
        <time>2018-11-10T22:55:56Z</time>
      </trkpt>
      <trkpt lat="40.576589" lon="0.090000">
        <ele>1256.408</ele>
        <time>2018-11-10T22:56:16Z</time>
      </trkpt>
      <trkpt lat="40.576697" lon="0.090103">
        <ele>1258.987</ele>
        <time>2018-11-10T22:56:36Z</time>
      </trkpt>
      <trkpt lat="40.576856" lon="0.090120">
        <ele>1263.154</ele>
        <time>2018-11-10T22:56:56Z</time>
      </trkpt>
      <trkpt lat="40.576980" lon="0.090150">
        <ele>1265.718</ele>
        <time>2018-11-10T22:57:16Z</time>
      </trkpt>
      <trkpt lat="40.577171" lon="0.090190">
        <ele>1269.076</ele>
        <time>2018-11-10T22:57:36Z</time>
      </trkpt>
      <trkpt lat="40.577303" lon="0.090226">
        <ele>1270.044</ele>
        <time>2018-11-10T22:57:56Z</time>
      </trkpt>
      <trkpt lat="40.577411" lon="0.090263">
        <ele>1270.587</ele>
        <time>2018-11-10T22:58:16Z</time>
      </trkpt>
      <trkpt lat="40.577516" lon="0.090246">
        <ele>1270.664</ele>
        <time>2018-11-10T22:58:36Z</time>
      </trkpt>
      <trkpt lat="40.577408" lon="0.090117">
        <ele>1271.674</ele>
        <time>2018-11-10T22:58:56Z</time>
      </trkpt>
      <trkpt lat="40.577327" lon="0.090087">
        <ele>1271.282</ele>
        <time>2018-11-10T22:59:16Z</time>
      </trkpt>
      <trkpt lat="40.577262" lon="0.090100">
        <ele>1270.643</ele>
        <time>2018-11-10T22:59:36Z</time>
      </trkpt>
      <trkpt lat="40.577165" lon="0.090153">
        <ele>1269.317</ele>
        <time>2018-11-10T22:59:56Z</time>
      </trkpt>
      <trkpt lat="40.576982" lon="0.090136">
        <ele>1265.908</ele>
        <time>2018-11-10T23:00:16Z</time>
      </trkpt>
      <trkpt lat="40.576888" lon="0.090123">
        <ele>1263.991</ele>
        <time>2018-11-10T23:00:36Z</time>
      </trkpt>
      <trkpt lat="40.576742" lon="0.090090">
        <ele>1260.488</ele>
        <time>2018-11-10T23:00:56Z</time>
      </trkpt>
      <trkpt lat="40.576678" lon="0.090063">
        <ele>1258.892</ele>
        <time>2018-11-10T23:01:16Z</time>
      </trkpt>
      <trkpt lat="40.576602" lon="0.089997">
        <ele>1257.030</ele>
        <time>2018-11-10T23:01:36Z</time>
      </trkpt>
      <trkpt lat="40.576516" lon="0.089834">
        <ele>1256.078</ele>
        <time>2018-11-10T23:01:56Z</time>
      </trkpt>
      <trkpt lat="40.576443" lon="0.089622">
        <ele>1253.691</ele>
        <time>2018-11-10T23:02:16Z</time>
      </trkpt>
      <trkpt lat="40.576403" lon="0.089440">
        <ele>1250.668</ele>
        <time>2018-11-10T23:02:36Z</time>
      </trkpt>
      <trkpt lat="40.576403" lon="0.089307">
        <ele>1250.418</ele>
        <time>2018-11-10T23:02:56Z</time>
      </trkpt>
      <trkpt lat="40.576403" lon="0.089144">
        <ele>1249.987</ele>
        <time>2018-11-10T23:03:16Z</time>
      </trkpt>
      <trkpt lat="40.576411" lon="0.089051">
        <ele>1250.042</ele>
        <time>2018-11-10T23:03:36Z</time>
      </trkpt>
      <trkpt lat="40.576416" lon="0.088955">
        <ele>1249.626</ele>
        <time>2018-11-10T23:03:56Z</time>
      </trkpt>
      <trkpt lat="40.576446" lon="0.088885">
        <ele>1249.908</ele>
        <time>2018-11-10T23:04:16Z</time>
      </trkpt>
      <trkpt lat="40.576538" lon="0.088782">
        <ele>1249.281</ele>
        <time>2018-11-10T23:04:36Z</time>
      </trkpt>
      <trkpt lat="40.576616" lon="0.088696">
        <ele>1247.058</ele>
        <time>2018-11-10T23:04:56Z</time>
      </trkpt>
      <trkpt lat="40.576708" lon="0.088636">
        <ele>1245.762</ele>
        <time>2018-11-10T23:05:16Z</time>
      </trkpt>
      <trkpt lat="40.576791" lon="0.088557">
        <ele>1243.830</ele>
        <time>2018-11-10T23:05:36Z</time>
      </trkpt>
      <trkpt lat="40.576915" lon="0.088447">
        <ele>1241.768</ele>
        <time>2018-11-10T23:05:56Z</time>
      </trkpt>
      <trkpt lat="40.576985" lon="0.088407">
        <ele>1240.381</ele>
        <time>2018-11-10T23:06:16Z</time>
      </trkpt>
      <trkpt lat="40.577063" lon="0.088341">
        <ele>1238.358</ele>
        <time>2018-11-10T23:06:36Z</time>
      </trkpt>
      <trkpt lat="40.577150" lon="0.088264">
        <ele>1236.528</ele>
        <time>2018-11-10T23:06:56Z</time>
      </trkpt>
      <trkpt lat="40.577195" lon="0.088225">
        <ele>1233.915</ele>
        <time>2018-11-10T23:07:16Z</time>
      </trkpt>
      <trkpt lat="40.577212" lon="0.088168">
        <ele>1231.865</ele>
        <time>2018-11-10T23:07:36Z</time>
      </trkpt>
      <trkpt lat="40.577209" lon="0.088112">
        <ele>1230.411</ele>
        <time>2018-11-10T23:07:56Z</time>
      </trkpt>
      <trkpt lat="40.577185" lon="0.088055">
        <ele>1229.508</ele>
        <time>2018-11-10T23:08:16Z</time>
      </trkpt>
      <trkpt lat="40.577112" lon="0.088045">
        <ele>1230.364</ele>
        <time>2018-11-10T23:08:36Z</time>
      </trkpt>
      <trkpt lat="40.576977" lon="0.088049">
        <ele>1229.561</ele>
        <time>2018-11-10T23:08:56Z</time>
      </trkpt>
      <trkpt lat="40.576802" lon="0.088072">
        <ele>1227.215</ele>
        <time>2018-11-10T23:09:16Z</time>
      </trkpt>
      <trkpt lat="40.576686" lon="0.088075">
        <ele>1224.923</ele>
        <time>2018-11-10T23:09:36Z</time>
      </trkpt>
      <trkpt lat="40.576559" lon="0.088115">
        <ele>1224.891</ele>
        <time>2018-11-10T23:09:56Z</time>
      </trkpt>
      <trkpt lat="40.576433" lon="0.088145">
        <ele>1224.984</ele>
        <time>2018-11-10T23:10:16Z</time>
      </trkpt>
      <trkpt lat="40.576314" lon="0.088158">
        <ele>1225.221</ele>
        <time>2018-11-10T23:10:36Z</time>
      </trkpt>
      <trkpt lat="40.576155" lon="0.088151">
        <ele>1224.841</ele>
        <time>2018-11-10T23:10:56Z</time>
      </trkpt>
      <trkpt lat="40.576004" lon="0.088115">
        <ele>1223.645</ele>
        <time>2018-11-10T23:11:16Z</time>
      </trkpt>
      <trkpt lat="40.575934" lon="0.088098">
        <ele>1223.247</ele>
        <time>2018-11-10T23:11:36Z</time>
      </trkpt>
      <trkpt lat="40.575861" lon="0.088078">
        <ele>1222.811</ele>
        <time>2018-11-10T23:11:56Z</time>
      </trkpt>
      <trkpt lat="40.575802" lon="0.087989">
        <ele>1220.308</ele>
        <time>2018-11-10T23:12:16Z</time>
      </trkpt>
      <trkpt lat="40.575754" lon="0.087929">
        <ele>1218.517</ele>
        <time>2018-11-10T23:12:36Z</time>
      </trkpt>
      <trkpt lat="40.575694" lon="0.087806">
        <ele>1214.364</ele>
        <time>2018-11-10T23:12:56Z</time>
      </trkpt>
      <trkpt lat="40.575661" lon="0.087703">
        <ele>1211.548</ele>
        <time>2018-11-10T23:13:16Z</time>
      </trkpt>
      <trkpt lat="40.575177" lon="0.086191">
        <ele>1200.866</ele>
        <time>2018-04-02T08:16:34Z</time>
      </trkpt>
      <trkpt lat="40.575185" lon="0.086168">
        <ele>1201.384</ele>
        <time>2018-04-02T08:16:36Z</time>
      </trkpt>
      <trkpt lat="40.575190" lon="0.086149">
        <ele>1201.387</ele>
        <time>2018-04-02T08:16:53Z</time>
      </trkpt>
      <trkpt lat="40.575193" lon="0.086118">
        <ele>1201.764</ele>
        <time>2018-04-02T08:17:05Z</time>
      </trkpt>
      <trkpt lat="40.575189" lon="0.086094">
        <ele>1201.794</ele>
        <time>2018-04-02T08:17:06Z</time>
      </trkpt>
      <trkpt lat="40.575182" lon="0.086079">
        <ele>1201.759</ele>
        <time>2018-04-02T08:17:07Z</time>
      </trkpt>
      <trkpt lat="40.575169" lon="0.086058">
        <ele>1201.703</ele>
        <time>2018-04-02T08:17:08Z</time>
      </trkpt>
      <trkpt lat="40.575159" lon="0.086040">
        <ele>1201.723</ele>
        <time>2018-04-02T08:17:09Z</time>
      </trkpt>
      <trkpt lat="40.575149" lon="0.086012">
        <ele>1201.708</ele>
        <time>2018-04-02T08:17:10Z</time>
      </trkpt>
      <trkpt lat="40.575146" lon="0.085993">
        <ele>1201.728</ele>
        <time>2018-04-02T08:17:11Z</time>
      </trkpt>
      <trkpt lat="40.575145" lon="0.085970">
        <ele>1201.795</ele>
        <time>2018-04-02T08:17:12Z</time>
      </trkpt>
      <trkpt lat="40.575144" lon="0.085945">
        <ele>1201.739</ele>
        <time>2018-04-02T08:17:13Z</time>
      </trkpt>
      <trkpt lat="40.575116" lon="0.085682">
        <ele>1202.737</ele>
        <time>2018-04-02T08:17:24Z</time>
      </trkpt>
      <trkpt lat="40.575109" lon="0.085660">
        <ele>1202.725</ele>
        <time>2018-04-02T08:17:25Z</time>
      </trkpt>
      <trkpt lat="40.575103" lon="0.085637">
        <ele>1202.798</ele>
        <time>2018-04-02T08:17:26Z</time>
      </trkpt>
      <trkpt lat="40.575069" lon="0.085459">
        <ele>1203.755</ele>
        <time>2018-04-02T08:17:33Z</time>
      </trkpt>
      <trkpt lat="40.575065" lon="0.085433">
        <ele>1203.795</ele>
        <time>2018-04-02T08:17:34Z</time>
      </trkpt>
      <trkpt lat="40.574992" lon="0.085044">
        <ele>1205.131</ele>
        <time>2018-04-02T08:17:49Z</time>
      </trkpt>
      <trkpt lat="40.574895" lon="0.084732">
        <ele>1206.561</ele>
        <time>2018-04-02T08:18:04Z</time>
      </trkpt>
      <trkpt lat="40.574834" lon="0.084404">
        <ele>1208.507</ele>
        <time>2018-04-02T08:18:19Z</time>
      </trkpt>
      <trkpt lat="40.574744" lon="0.084122">
        <ele>1209.908</ele>
        <time>2018-04-02T08:18:34Z</time>
      </trkpt>
      <trkpt lat="40.574736" lon="0.084111">
        <ele>1209.926</ele>
        <time>2018-04-02T08:18:51Z</time>
      </trkpt>
      <trkpt lat="40.574725" lon="0.084096">
        <ele>1209.983</ele>
        <time>2018-04-02T08:18:52Z</time>
      </trkpt>
      <trkpt lat="40.574714" lon="0.084077">
        <ele>1209.967</ele>
        <time>2018-04-02T08:18:53Z</time>
      </trkpt>
      <trkpt lat="40.574555" lon="0.083843">
        <ele>1206.575</ele>
        <time>2018-04-02T08:19:04Z</time>
      </trkpt>
      <trkpt lat="40.574532" lon="0.083798">
        <ele>1206.143</ele>
        <time>2018-04-02T08:19:06Z</time>
      </trkpt>
      <trkpt lat="40.574516" lon="0.083778">
        <ele>1206.146</ele>
        <time>2018-04-02T08:19:07Z</time>
      </trkpt>
      <trkpt lat="40.574501" lon="0.083756">
        <ele>1205.153</ele>
        <time>2018-04-02T08:19:08Z</time>
      </trkpt>
      <trkpt lat="40.574489" lon="0.083734">
        <ele>1204.693</ele>
        <time>2018-04-02T08:19:09Z</time>
      </trkpt>
      <trkpt lat="40.574476" lon="0.083713">
        <ele>1204.184</ele>
        <time>2018-04-02T08:19:10Z</time>
      </trkpt>
      <trkpt lat="40.574375" lon="0.083534">
        <ele>1200.807</ele>
        <time>2018-04-02T08:19:17Z</time>
      </trkpt>
      <trkpt lat="40.574312" lon="0.083420">
        <ele>1198.417</ele>
        <time>2018-04-02T08:19:21Z</time>
      </trkpt>
      <trkpt lat="40.574235" lon="0.083270">
        <ele>1195.508</ele>
        <time>2018-04-02T08:19:27Z</time>
      </trkpt>
      <trkpt lat="40.574163" lon="0.083119">
        <ele>1192.161</ele>
        <time>2018-04-02T08:19:32Z</time>
      </trkpt>
      <trkpt lat="40.574152" lon="0.083082">
        <ele>1192.198</ele>
        <time>2018-04-02T08:19:33Z</time>
      </trkpt>
      <trkpt lat="40.574041" lon="0.082789">
        <ele>1188.842</ele>
        <time>2018-04-02T08:19:41Z</time>
      </trkpt>
      <trkpt lat="40.573904" lon="0.082363">
        <ele>1186.810</ele>
        <time>2018-04-02T08:19:53Z</time>
      </trkpt>
      <trkpt lat="40.573811" lon="0.082043">
        <ele>1183.038</ele>
        <time>2018-04-02T08:20:04Z</time>
      </trkpt>
      <trkpt lat="40.573805" lon="0.082009">
        <ele>1183.061</ele>
        <time>2018-04-02T08:20:05Z</time>
      </trkpt>
      <trkpt lat="40.573776" lon="0.081819">
        <ele>1179.148</ele>
        <time>2018-04-02T08:20:11Z</time>
      </trkpt>
      <trkpt lat="40.573711" lon="0.081539">
        <ele>1175.358</ele>
        <time>2018-04-02T08:20:20Z</time>
      </trkpt>
      <trkpt lat="40.573703" lon="0.081456">
        <ele>1174.374</ele>
        <time>2018-04-02T08:20:22Z</time>
      </trkpt>
      <trkpt lat="40.573687" lon="0.081406">
        <ele>1173.956</ele>
        <time>2018-04-02T08:20:23Z</time>
      </trkpt>
      <trkpt lat="40.573667" lon="0.081346">
        <ele>1173.421</ele>
        <time>2018-04-02T08:20:24Z</time>
      </trkpt>
      <trkpt lat="40.573634" lon="0.081228">
        <ele>1172.908</ele>
        <time>2018-04-02T08:20:26Z</time>
      </trkpt>
      <trkpt lat="40.573620" lon="0.081182">
        <ele>1172.980</ele>
        <time>2018-04-02T08:20:27Z</time>
      </trkpt>
      <trkpt lat="40.573607" lon="0.081146">
        <ele>1172.987</ele>
        <time>2018-04-02T08:20:28Z</time>
      </trkpt>
      <trkpt lat="40.573598" lon="0.081117">
        <ele>1172.931</ele>
        <time>2018-04-02T08:20:29Z</time>
      </trkpt>
      <trkpt lat="40.573594" lon="0.081083">
        <ele>1172.929</ele>
        <time>2018-04-02T08:20:30Z</time>
      </trkpt>
      <trkpt lat="40.573593" lon="0.081057">
        <ele>1172.937</ele>
        <time>2018-04-02T08:20:31Z</time>
      </trkpt>
      <trkpt lat="40.573558" lon="0.080769">
        <ele>1174.350</ele>
        <time>2018-04-02T08:20:41Z</time>
      </trkpt>
      <trkpt lat="40.573562" lon="0.080273">
        <ele>1174.377</ele>
        <time>2018-04-02T08:20:57Z</time>
      </trkpt>
      <trkpt lat="40.573570" lon="0.080195">
        <ele>1172.947</ele>
        <time>2018-04-02T08:20:59Z</time>
      </trkpt>
      <trkpt lat="40.573558" lon="0.079987">
        <ele>1170.553</ele>
        <time>2018-04-02T08:21:04Z</time>
      </trkpt>
      <trkpt lat="40.573497" lon="0.079690">
        <ele>1167.104</ele>
        <time>2018-04-02T08:21:12Z</time>
      </trkpt>
      <trkpt lat="40.573444" lon="0.079603">
        <ele>1166.214</ele>
        <time>2018-04-02T08:21:14Z</time>
      </trkpt>
      <trkpt lat="40.573257" lon="0.079229">
        <ele>1163.308</ele>
        <time>2018-04-02T08:21:23Z</time>
      </trkpt>
      <trkpt lat="40.573240" lon="0.079173">
        <ele>1162.818</ele>
        <time>2018-04-02T08:21:24Z</time>
      </trkpt>
      <trkpt lat="40.573079" lon="0.078816">
        <ele>1161.865</ele>
        <time>2018-04-02T08:21:33Z</time>
      </trkpt>
      <trkpt lat="40.573086" lon="0.078607">
        <ele>1161.489</ele>
        <time>2018-04-02T08:21:38Z</time>
      </trkpt>
      <trkpt lat="40.573053" lon="0.078128">
        <ele>1159.997</ele>
        <time>2018-04-02T08:21:49Z</time>
      </trkpt>
      <trkpt lat="40.572978" lon="0.077618">
        <ele>1159.435</ele>
        <time>2018-04-02T08:22:03Z</time>
      </trkpt>
      <trkpt lat="40.572895" lon="0.077176">
        <ele>1157.098</ele>
        <time>2018-04-02T08:22:16Z</time>
      </trkpt>
      <trkpt lat="40.572634" lon="0.076704">
        <ele>1155.185</ele>
        <time>2018-04-02T08:22:28Z</time>
      </trkpt>
      <trkpt lat="40.572462" lon="0.076221">
        <ele>1151.815</ele>
        <time>2018-04-02T08:22:39Z</time>
      </trkpt>
      <trkpt lat="40.572371" lon="0.076010">
        <ele>1149.819</ele>
        <time>2018-04-02T08:22:47Z</time>
      </trkpt>
      <trkpt lat="40.572338" lon="0.075953">
        <ele>1149.309</ele>
        <time>2018-04-02T08:23:03Z</time>
      </trkpt>
      <trkpt lat="40.572342" lon="0.075842">
        <ele>1147.919</ele>
        <time>2018-04-02T08:23:17Z</time>
      </trkpt>
      <trkpt lat="40.572345" lon="0.075527">
        <ele>1144.508</ele>
        <time>2018-04-02T08:23:26Z</time>
      </trkpt>
      <trkpt lat="40.572377" lon="0.075308">
        <ele>1142.114</ele>
        <time>2018-04-02T08:23:31Z</time>
      </trkpt>
      <trkpt lat="40.572425" lon="0.075187">
        <ele>1140.761</ele>
        <time>2018-04-02T08:23:34Z</time>
      </trkpt>
      <trkpt lat="40.572539" lon="0.075070">
        <ele>1138.835</ele>
        <time>2018-04-02T08:23:39Z</time>
      </trkpt>
      <trkpt lat="40.572732" lon="0.074894">
        <ele>1134.463</ele>
        <time>2018-04-02T08:23:48Z</time>
      </trkpt>
      <trkpt lat="40.572806" lon="0.074852">
        <ele>1133.581</ele>
        <time>2018-04-02T08:23:51Z</time>
      </trkpt>
      <trkpt lat="40.572918" lon="0.074869">
        <ele>1131.694</ele>
        <time>2018-04-02T08:24:02Z</time>
      </trkpt>
      <trkpt lat="40.572967" lon="0.074856">
        <ele>1130.691</ele>
        <time>2018-04-02T08:24:11Z</time>
      </trkpt>
      <trkpt lat="40.572992" lon="0.074834">
        <ele>1130.151</ele>
        <time>2018-04-02T08:24:14Z</time>
      </trkpt>
      <trkpt lat="40.573026" lon="0.074718">
        <ele>1128.285</ele>
        <time>2018-04-02T08:24:20Z</time>
      </trkpt>
      <trkpt lat="40.573057" lon="0.074620">
        <ele>1126.389</ele>
        <time>2018-04-02T08:24:24Z</time>
      </trkpt>
      <trkpt lat="40.573108" lon="0.074473">
        <ele>1122.417</ele>
        <time>2018-04-02T08:24:30Z</time>
      </trkpt>
      <trkpt lat="40.573121" lon="0.074356">
        <ele>1120.508</ele>
        <time>2018-04-02T08:24:34Z</time>
      </trkpt>
      <trkpt lat="40.573174" lon="0.074266">
        <ele>1118.131</ele>
        <time>2018-04-02T08:24:38Z</time>
      </trkpt>
      <trkpt lat="40.573260" lon="0.074101">
        <ele>1114.378</ele>
        <time>2018-04-02T08:24:45Z</time>
      </trkpt>
      <trkpt lat="40.573423" lon="0.073916">
        <ele>1111.432</ele>
        <time>2018-04-02T08:24:54Z</time>
      </trkpt>
      <trkpt lat="40.573450" lon="0.073901">
        <ele>1111.460</ele>
        <time>2018-04-02T08:24:55Z</time>
      </trkpt>
      <trkpt lat="40.573516" lon="0.073825">
        <ele>1109.918</ele>
        <time>2018-04-02T08:24:58Z</time>
      </trkpt>
      <trkpt lat="40.573673" lon="0.073688">
        <ele>1107.571</ele>
        <time>2018-04-02T08:25:04Z</time>
      </trkpt>
      <trkpt lat="40.573907" lon="0.073492">
        <ele>1104.638</ele>
        <time>2018-04-02T08:25:12Z</time>
      </trkpt>
      <trkpt lat="40.573940" lon="0.073473">
        <ele>1103.788</ele>
        <time>2018-04-02T08:25:13Z</time>
      </trkpt>
      <trkpt lat="40.574012" lon="0.073415">
        <ele>1103.253</ele>
        <time>2018-04-02T08:25:15Z</time>
      </trkpt>
      <trkpt lat="40.574250" lon="0.073172">
        <ele>1099.804</ele>
        <time>2018-04-02T08:25:25Z</time>
      </trkpt>
      <trkpt lat="40.574421" lon="0.073047">
        <ele>1096.514</ele>
        <time>2018-04-02T08:25:31Z</time>
      </trkpt>
      <trkpt lat="40.574587" lon="0.072892">
        <ele>1093.108</ele>
        <time>2018-04-02T08:25:39Z</time>
      </trkpt>
      <trkpt lat="40.574716" lon="0.072768">
        <ele>1090.268</ele>
        <time>2018-04-02T08:25:44Z</time>
      </trkpt>
      <trkpt lat="40.574763" lon="0.072737">
        <ele>1089.365</ele>
        <time>2018-04-02T08:25:46Z</time>
      </trkpt>
      <trkpt lat="40.574910" lon="0.072605">
        <ele>1085.979</ele>
        <time>2018-04-02T08:25:52Z</time>
      </trkpt>
      <trkpt lat="40.575087" lon="0.072479">
        <ele>1082.547</ele>
        <time>2018-04-02T08:25:59Z</time>
      </trkpt>
      <trkpt lat="40.575365" lon="0.072452">
        <ele>1079.765</ele>
        <time>2018-04-02T08:26:07Z</time>
      </trkpt>
      <trkpt lat="40.575527" lon="0.072520">
        <ele>1076.848</ele>
        <time>2018-04-02T08:26:14Z</time>
      </trkpt>
      <trkpt lat="40.575649" lon="0.072535">
        <ele>1073.975</ele>
        <time>2018-04-02T08:26:20Z</time>
      </trkpt>
      <trkpt lat="40.575851" lon="0.072524">
        <ele>1070.075</ele>
        <time>2018-04-02T08:26:28Z</time>
      </trkpt>
      <trkpt lat="40.575974" lon="0.072517">
        <ele>1069.636</ele>
        <time>2018-04-02T08:26:39Z</time>
      </trkpt>
      <trkpt lat="40.576012" lon="0.072503">
        <ele>1068.617</ele>
        <time>2018-04-02T08:26:47Z</time>
      </trkpt>
      <trkpt lat="40.576132" lon="0.072524">
        <ele>1066.718</ele>
        <time>2018-04-02T08:26:53Z</time>
      </trkpt>
      <trkpt lat="40.576228" lon="0.072528">
        <ele>1065.708</ele>
        <time>2018-04-02T08:26:58Z</time>
      </trkpt>
      <trkpt lat="40.576314" lon="0.072496">
        <ele>1063.866</ele>
        <time>2018-04-02T08:27:04Z</time>
      </trkpt>
      <trkpt lat="40.576380" lon="0.072478">
        <ele>1061.993</ele>
        <time>2018-04-02T08:27:09Z</time>
      </trkpt>
      <trkpt lat="40.576511" lon="0.072268">
        <ele>1057.567</ele>
        <time>2018-04-02T08:27:17Z</time>
      </trkpt>
      <trkpt lat="40.576653" lon="0.072018">
        <ele>1054.255</ele>
        <time>2018-04-02T08:27:24Z</time>
      </trkpt>
      <trkpt lat="40.576786" lon="0.071839">
        <ele>1050.373</ele>
        <time>2018-04-02T08:27:30Z</time>
      </trkpt>
      <trkpt lat="40.576885" lon="0.071629">
        <ele>1048.466</ele>
        <time>2018-04-02T08:27:35Z</time>
      </trkpt>
      <trkpt lat="40.577008" lon="0.071398">
        <ele>1044.683</ele>
        <time>2018-04-02T08:27:42Z</time>
      </trkpt>
      <trkpt lat="40.577132" lon="0.071212">
        <ele>1041.263</ele>
        <time>2018-04-02T08:27:48Z</time>
      </trkpt>
      <trkpt lat="40.577233" lon="0.071118">
        <ele>1037.893</ele>
        <time>2018-04-02T08:27:53Z</time>
      </trkpt>
      <trkpt lat="40.577359" lon="0.070996">
        <ele>1034.565</ele>
        <time>2018-04-02T08:27:58Z</time>
      </trkpt>
      <trkpt lat="40.577384" lon="0.070967">
        <ele>1034.021</ele>
        <time>2018-04-02T08:27:59Z</time>
      </trkpt>
      <trkpt lat="40.577497" lon="0.070903">
        <ele>1030.108</ele>
        <time>2018-04-02T08:28:05Z</time>
      </trkpt>
      <trkpt lat="40.577542" lon="0.070884">
        <ele>1029.282</ele>
        <time>2018-04-02T08:28:07Z</time>
      </trkpt>
      <trkpt lat="40.577608" lon="0.070851">
        <ele>1027.389</ele>
        <time>2018-04-02T08:28:10Z</time>
      </trkpt>
      <trkpt lat="40.577720" lon="0.070832">
        <ele>1023.953</ele>
        <time>2018-04-02T08:28:15Z</time>
      </trkpt>
      <trkpt lat="40.577862" lon="0.070805">
        <ele>1020.121</ele>
        <time>2018-04-02T08:28:20Z</time>
      </trkpt>
      <trkpt lat="40.577986" lon="0.070782">
        <ele>1017.219</ele>
        <time>2018-04-02T08:28:25Z</time>
      </trkpt>
      <trkpt lat="40.578155" lon="0.070739">
        <ele>1013.872</ele>
        <time>2018-04-02T08:28:30Z</time>
      </trkpt>
      <trkpt lat="40.578380" lon="0.070674">
        <ele>1010.419</ele>
        <time>2018-04-02T08:28:36Z</time>
      </trkpt>
      <trkpt lat="40.578590" lon="0.070578">
        <ele>1007.149</ele>
        <time>2018-04-02T08:28:44Z</time>
      </trkpt>
      <trkpt lat="40.578694" lon="0.070511">
        <ele>1004.287</ele>
        <time>2018-04-02T08:28:49Z</time>
      </trkpt>
      <trkpt lat="40.578858" lon="0.070329">
        <ele>1000.842</ele>
        <time>2018-04-02T08:28:58Z</time>
      </trkpt>
      <trkpt lat="40.578985" lon="0.070202">
        <ele>997.026</ele>
        <time>2018-04-02T08:29:05Z</time>
      </trkpt>
      <trkpt lat="40.579169" lon="0.070088">
        <ele>994.108</ele>
        <time>2018-04-02T08:29:11Z</time>
      </trkpt>
      <trkpt lat="40.579344" lon="0.069962">
        <ele>990.781</ele>
        <time>2018-04-02T08:29:17Z</time>
      </trkpt>
      <trkpt lat="40.579523" lon="0.069894">
        <ele>986.428</ele>
        <time>2018-04-02T08:29:25Z</time>
      </trkpt>
      <trkpt lat="40.579643" lon="0.069719">
        <ele>983.572</ele>
        <time>2018-04-02T08:29:33Z</time>
      </trkpt>
      <trkpt lat="40.579757" lon="0.069535">
        <ele>980.630</ele>
        <time>2018-04-02T08:29:40Z</time>
      </trkpt>
      <trkpt lat="40.579849" lon="0.069390">
        <ele>977.328</ele>
        <time>2018-04-02T08:29:47Z</time>
      </trkpt>
      <trkpt lat="40.579930" lon="0.069304">
        <ele>973.921</ele>
        <time>2018-04-02T08:29:52Z</time>
      </trkpt>
      <trkpt lat="40.580012" lon="0.069197">
        <ele>970.518</ele>
        <time>2018-04-02T08:29:57Z</time>
      </trkpt>
      <trkpt lat="40.580059" lon="0.069155">
        <ele>968.688</ele>
        <time>2018-04-02T08:30:00Z</time>
      </trkpt>
      <trkpt lat="40.580164" lon="0.069090">
        <ele>965.786</ele>
        <time>2018-04-02T08:30:06Z</time>
      </trkpt>
      <trkpt lat="40.580250" lon="0.069034">
        <ele>962.460</ele>
        <time>2018-04-02T08:30:11Z</time>
      </trkpt>
      <trkpt lat="40.580381" lon="0.068964">
        <ele>959.026</ele>
        <time>2018-04-02T08:30:17Z</time>
      </trkpt>
      <trkpt lat="40.580511" lon="0.068899">
        <ele>955.208</ele>
        <time>2018-04-02T08:30:24Z</time>
      </trkpt>
      <trkpt lat="40.580574" lon="0.068880">
        <ele>953.741</ele>
        <time>2018-04-02T08:30:27Z</time>
      </trkpt>
      <trkpt lat="40.580604" lon="0.068846">
        <ele>952.858</ele>
        <time>2018-04-02T08:30:29Z</time>
      </trkpt>
      <trkpt lat="40.580696" lon="0.068792">
        <ele>950.492</ele>
        <time>2018-04-02T08:30:34Z</time>
      </trkpt>
      <trkpt lat="40.580777" lon="0.068693">
        <ele>948.010</ele>
        <time>2018-04-02T08:30:44Z</time>
      </trkpt>
      <trkpt lat="40.580825" lon="0.068656">
        <ele>947.078</ele>
        <time>2018-04-02T08:31:02Z</time>
      </trkpt>
      <trkpt lat="40.580862" lon="0.068652">
        <ele>945.141</ele>
        <time>2018-04-02T08:31:12Z</time>
      </trkpt>
      <trkpt lat="40.581034" lon="0.068526">
        <ele>942.218</ele>
        <time>2018-04-02T08:31:20Z</time>
      </trkpt>
      <trkpt lat="40.581155" lon="0.068566">
        <ele>940.368</ele>
        <time>2018-04-02T08:31:24Z</time>
      </trkpt>
      <trkpt lat="40.581370" lon="0.068347">
        <ele>937.916</ele>
        <time>2018-04-02T08:31:32Z</time>
      </trkpt>
      <trkpt lat="40.581388" lon="0.068296">
        <ele>937.476</ele>
        <time>2018-04-02T08:31:33Z</time>
      </trkpt>
      <trkpt lat="40.581420" lon="0.067918">
        <ele>934.013</ele>
        <time>2018-04-02T08:31:41Z</time>
      </trkpt>
      <trkpt lat="40.581390" lon="0.067859">
        <ele>933.108</ele>
        <time>2018-04-02T08:31:43Z</time>
      </trkpt>
      <trkpt lat="40.581215" lon="0.067760">
        <ele>929.214</ele>
        <time>2018-04-02T08:31:50Z</time>
      </trkpt>
      <trkpt lat="40.581198" lon="0.067736">
        <ele>928.711</ele>
        <time>2018-04-02T08:32:01Z</time>
      </trkpt>
      <trkpt lat="40.581208" lon="0.067735">
        <ele>928.285</ele>
        <time>2018-04-02T08:32:23Z</time>
      </trkpt>
      <trkpt lat="40.581205" lon="0.067738">
        <ele>928.213</ele>
        <time>2018-04-02T08:32:56Z</time>
      </trkpt>
      <trkpt lat="40.581197" lon="0.067690">
        <ele>928.261</ele>
        <time>2018-04-02T08:33:09Z</time>
      </trkpt>
      <trkpt lat="40.581197" lon="0.067684">
        <ele>928.234</ele>
        <time>2018-04-02T08:33:11Z</time>
      </trkpt>
      <trkpt lat="40.581221" lon="0.067462">
        <ele>925.881</ele>
        <time>2018-04-02T08:33:21Z</time>
      </trkpt>
      <trkpt lat="40.581178" lon="0.067328">
        <ele>923.451</ele>
        <time>2018-04-02T08:33:27Z</time>
      </trkpt>
      <trkpt lat="40.581188" lon="0.067187">
        <ele>921.068</ele>
        <time>2018-04-02T08:33:34Z</time>
      </trkpt>
      <trkpt lat="40.581209" lon="0.067115">
        <ele>919.642</ele>
        <time>2018-04-02T08:33:37Z</time>
      </trkpt>
      <trkpt lat="40.581233" lon="0.067038">
        <ele>918.226</ele>
        <time>2018-04-02T08:33:41Z</time>
      </trkpt>
      <trkpt lat="40.581355" lon="0.066947">
        <ele>914.308</ele>
        <time>2018-04-02T08:33:51Z</time>
      </trkpt>
      <trkpt lat="40.581496" lon="0.066854">
        <ele>911.939</ele>
        <time>2018-04-02T08:33:59Z</time>
      </trkpt>
      <trkpt lat="40.581616" lon="0.066929">
        <ele>910.086</ele>
        <time>2018-04-02T08:34:06Z</time>
      </trkpt>
      <trkpt lat="40.581776" lon="0.067104">
        <ele>906.180</ele>
        <time>2018-04-02T08:34:16Z</time>
      </trkpt>
      <trkpt lat="40.581932" lon="0.067282">
        <ele>902.348</ele>
        <time>2018-04-02T08:34:23Z</time>
      </trkpt>
      <trkpt lat="40.582019" lon="0.067495">
        <ele>898.916</ele>
        <time>2018-04-02T08:34:29Z</time>
      </trkpt>
      <trkpt lat="40.582030" lon="0.067534">
        <ele>898.449</ele>
        <time>2018-04-02T08:34:30Z</time>
      </trkpt>
      <trkpt lat="40.582043" lon="0.067632">
        <ele>897.066</ele>
        <time>2018-04-02T08:34:32Z</time>
      </trkpt>
      <trkpt lat="40.582161" lon="0.067850">
        <ele>893.246</ele>
        <time>2018-04-02T08:34:38Z</time>
      </trkpt>
      <trkpt lat="40.582213" lon="0.068045">
        <ele>889.815</ele>
        <time>2018-04-02T08:34:46Z</time>
      </trkpt>
      <trkpt lat="40.582229" lon="0.068088">
        <ele>889.365</ele>
        <time>2018-04-02T08:34:48Z</time>
      </trkpt>
      <trkpt lat="40.582225" lon="0.068137">
        <ele>887.911</ele>
        <time>2018-04-02T08:34:52Z</time>
      </trkpt>
      <trkpt lat="40.582209" lon="0.068340">
        <ele>884.508</ele>
        <time>2018-04-02T08:35:01Z</time>
      </trkpt>
      <trkpt lat="40.582250" lon="0.068332">
        <ele>883.144</ele>
        <time>2018-04-02T08:35:04Z</time>
      </trkpt>
      <trkpt lat="40.582286" lon="0.068299">
        <ele>882.661</ele>
        <time>2018-04-02T08:35:06Z</time>
      </trkpt>
      <trkpt lat="40.582343" lon="0.068290">
        <ele>829.885</ele>
        <time>2016-05-28T08:16:53Z</time>
      </trkpt>
      <trkpt lat="40.582373" lon="0.068259">
        <ele>829.013</ele>
        <time>2016-05-28T08:16:55Z</time>
      </trkpt>
      <trkpt lat="40.582399" lon="0.068227">
        <ele>828.271</ele>
        <time>2016-05-28T08:16:57Z</time>
      </trkpt>
      <trkpt lat="40.582414" lon="0.068215">
        <ele>827.684</ele>
        <time>2016-05-28T08:16:58Z</time>
      </trkpt>
      <trkpt lat="40.582426" lon="0.068195">
        <ele>826.851</ele>
        <time>2016-05-28T08:21:34Z</time>
      </trkpt>
      <trkpt lat="40.582431" lon="0.068174">
        <ele>826.821</ele>
        <time>2016-05-28T08:21:35Z</time>
      </trkpt>
      <trkpt lat="40.582441" lon="0.068122">
        <ele>827.449</ele>
        <time>2016-05-28T08:21:38Z</time>
      </trkpt>
      <trkpt lat="40.582447" lon="0.068108">
        <ele>827.402</ele>
        <time>2016-05-28T08:21:39Z</time>
      </trkpt>
      <trkpt lat="40.582458" lon="0.068078">
        <ele>827.622</ele>
        <time>2016-05-28T08:21:41Z</time>
      </trkpt>
      <trkpt lat="40.582468" lon="0.068047">
        <ele>828.008</ele>
        <time>2016-05-28T08:21:43Z</time>
      </trkpt>
      <trkpt lat="40.582492" lon="0.067981">
        <ele>828.867</ele>
        <time>2016-05-28T08:21:46Z</time>
      </trkpt>
      <trkpt lat="40.582501" lon="0.067954">
        <ele>828.874</ele>
        <time>2016-05-28T08:21:47Z</time>
      </trkpt>
      <trkpt lat="40.582518" lon="0.067859">
        <ele>830.088</ele>
        <time>2016-05-28T08:21:51Z</time>
      </trkpt>
      <trkpt lat="40.582518" lon="0.067819">
        <ele>830.826</ele>
        <time>2016-05-28T08:21:53Z</time>
      </trkpt>
      <trkpt lat="40.582513" lon="0.067794">
        <ele>831.014</ele>
        <time>2016-05-28T08:21:54Z</time>
      </trkpt>
      <trkpt lat="40.582512" lon="0.067765">
        <ele>831.227</ele>
        <time>2016-05-28T08:21:55Z</time>
      </trkpt>
      <trkpt lat="40.582502" lon="0.067729">
        <ele>832.074</ele>
        <time>2016-05-28T08:21:57Z</time>
      </trkpt>
      <trkpt lat="40.582489" lon="0.067713">
        <ele>832.484</ele>
        <time>2016-05-28T08:21:59Z</time>
      </trkpt>
      <trkpt lat="40.582472" lon="0.067671">
        <ele>833.289</ele>
        <time>2016-05-28T08:22:02Z</time>
      </trkpt>
      <trkpt lat="40.582451" lon="0.067644">
        <ele>833.406</ele>
        <time>2016-05-28T08:22:04Z</time>
      </trkpt>
      <trkpt lat="40.582442" lon="0.067628">
        <ele>833.426</ele>
        <time>2016-05-28T08:22:05Z</time>
      </trkpt>
      <trkpt lat="40.582419" lon="0.067579">
        <ele>834.008</ele>
        <time>2016-05-28T08:22:08Z</time>
      </trkpt>
      <trkpt lat="40.582404" lon="0.067534">
        <ele>834.851</ele>
        <time>2016-05-28T08:22:10Z</time>
      </trkpt>
      <trkpt lat="40.582369" lon="0.067449">
        <ele>835.858</ele>
        <time>2016-05-28T08:22:14Z</time>
      </trkpt>
      <trkpt lat="40.582354" lon="0.067421">
        <ele>836.272</ele>
        <time>2016-05-28T08:22:16Z</time>
      </trkpt>
      <trkpt lat="40.582332" lon="0.067391">
        <ele>836.890</ele>
        <time>2016-05-28T08:22:18Z</time>
      </trkpt>
      <trkpt lat="40.582294" lon="0.067327">
        <ele>837.658</ele>
        <time>2016-05-28T08:22:22Z</time>
      </trkpt>
      <trkpt lat="40.582274" lon="0.067290">
        <ele>838.041</ele>
        <time>2016-05-28T08:22:24Z</time>
      </trkpt>
      <trkpt lat="40.582260" lon="0.067274">
        <ele>838.628</ele>
        <time>2016-05-28T08:22:25Z</time>
      </trkpt>
      <trkpt lat="40.582241" lon="0.067230">
        <ele>839.278</ele>
        <time>2016-05-28T08:22:27Z</time>
      </trkpt>
      <trkpt lat="40.582189" lon="0.067165">
        <ele>840.068</ele>
        <time>2016-05-28T08:22:31Z</time>
      </trkpt>
      <trkpt lat="40.582176" lon="0.067147">
        <ele>840.442</ele>
        <time>2016-05-28T08:22:32Z</time>
      </trkpt>
      <trkpt lat="40.582138" lon="0.067103">
        <ele>841.426</ele>
        <time>2016-05-28T08:22:35Z</time>
      </trkpt>
      <trkpt lat="40.582114" lon="0.067072">
        <ele>842.008</ele>
        <time>2016-05-28T08:22:37Z</time>
      </trkpt>
      <trkpt lat="40.582074" lon="0.067022">
        <ele>842.699</ele>
        <time>2016-05-28T08:22:40Z</time>
      </trkpt>
      <trkpt lat="40.582011" lon="0.066928">
        <ele>843.826</ele>
        <time>2016-05-28T08:22:45Z</time>
      </trkpt>
      <trkpt lat="40.581916" lon="0.066787">
        <ele>844.420</ele>
        <time>2016-05-28T08:22:52Z</time>
      </trkpt>
      <trkpt lat="40.581885" lon="0.066746">
        <ele>845.098</ele>
        <time>2016-05-28T08:22:54Z</time>
      </trkpt>
      <trkpt lat="40.581796" lon="0.066675">
        <ele>846.016</ele>
        <time>2016-05-28T08:22:59Z</time>
      </trkpt>
      <trkpt lat="40.581776" lon="0.066666">
        <ele>846.019</ele>
        <time>2016-05-28T08:23:00Z</time>
      </trkpt>
      <trkpt lat="40.581613" lon="0.066600">
        <ele>847.076</ele>
        <time>2016-05-28T08:23:07Z</time>
      </trkpt>
      <trkpt lat="40.581524" lon="0.066564">
        <ele>848.026</ele>
        <time>2016-05-28T08:23:11Z</time>
      </trkpt>
      <trkpt lat="40.581470" lon="0.066538">
        <ele>848.679</ele>
        <time>2016-05-28T08:23:14Z</time>
      </trkpt>
      <trkpt lat="40.581404" lon="0.066522">
        <ele>849.205</ele>
        <time>2016-05-28T08:23:17Z</time>
      </trkpt>
      <trkpt lat="40.581361" lon="0.066508">
        <ele>849.625</ele>
        <time>2016-05-28T08:23:19Z</time>
      </trkpt>
      <trkpt lat="40.581273" lon="0.066501">
        <ele>850.208</ele>
        <time>2016-05-28T08:23:23Z</time>
      </trkpt>
      <trkpt lat="40.581198" lon="0.066521">
        <ele>850.430</ele>
        <time>2016-05-28T08:23:26Z</time>
      </trkpt>
      <trkpt lat="40.581053" lon="0.066639">
        <ele>851.037</ele>
        <time>2016-05-28T08:23:33Z</time>
      </trkpt>
      <trkpt lat="40.581007" lon="0.066671">
        <ele>851.451</ele>
        <time>2016-05-28T08:23:35Z</time>
      </trkpt>
      <trkpt lat="40.580910" lon="0.066754">
        <ele>851.619</ele>
        <time>2016-05-28T08:23:39Z</time>
      </trkpt>
      <trkpt lat="40.580883" lon="0.066780">
        <ele>851.427</ele>
        <time>2016-05-28T08:23:40Z</time>
      </trkpt>
      <trkpt lat="40.580731" lon="0.066967">
        <ele>851.090</ele>
        <time>2016-05-28T08:23:46Z</time>
      </trkpt>
      <trkpt lat="40.580691" lon="0.066982">
        <ele>851.067</ele>
        <time>2016-05-28T08:23:47Z</time>
      </trkpt>
      <trkpt lat="40.580625" lon="0.066979">
        <ele>850.887</ele>
        <time>2016-05-28T08:23:49Z</time>
      </trkpt>
      <trkpt lat="40.580549" lon="0.066959">
        <ele>850.836</ele>
        <time>2016-05-28T08:23:51Z</time>
      </trkpt>
      <trkpt lat="40.580491" lon="0.066937">
        <ele>850.217</ele>
        <time>2016-05-28T08:23:52Z</time>
      </trkpt>
      <trkpt lat="40.580434" lon="0.066914">
        <ele>849.418</ele>
        <time>2016-05-28T08:23:53Z</time>
      </trkpt>
      <trkpt lat="40.580381" lon="0.066895">
        <ele>848.208</ele>
        <time>2016-05-28T08:23:54Z</time>
      </trkpt>
      <trkpt lat="40.580332" lon="0.066862">
        <ele>847.446</ele>
        <time>2016-05-28T08:23:55Z</time>
      </trkpt>
      <trkpt lat="40.580289" lon="0.066827">
        <ele>846.613</ele>
        <time>2016-05-28T08:23:56Z</time>
      </trkpt>
      <trkpt lat="40.580255" lon="0.066773">
        <ele>846.047</ele>
        <time>2016-05-28T08:23:57Z</time>
      </trkpt>
      <trkpt lat="40.580246" lon="0.066707">
        <ele>845.295</ele>
        <time>2016-05-28T08:23:58Z</time>
      </trkpt>
      <trkpt lat="40.580257" lon="0.066557">
        <ele>844.053</ele>
        <time>2016-05-28T08:24:00Z</time>
      </trkpt>
      <trkpt lat="40.580284" lon="0.066445">
        <ele>843.866</ele>
        <time>2016-05-28T08:24:02Z</time>
      </trkpt>
      <trkpt lat="40.580302" lon="0.066329">
        <ele>844.263</ele>
        <time>2016-05-28T08:24:04Z</time>
      </trkpt>
      <trkpt lat="40.580300" lon="0.066269">
        <ele>844.243</ele>
        <time>2016-05-28T08:24:05Z</time>
      </trkpt>
      <trkpt lat="40.580252" lon="0.066082">
        <ele>843.698</ele>
        <time>2016-05-28T08:24:08Z</time>
      </trkpt>
      <trkpt lat="40.580202" lon="0.065974">
        <ele>843.015</ele>
        <time>2016-05-28T08:24:10Z</time>
      </trkpt>
      <trkpt lat="40.580127" lon="0.065884">
        <ele>841.426</ele>
        <time>2016-05-28T08:24:12Z</time>
      </trkpt>
      <trkpt lat="40.580021" lon="0.065826">
        <ele>839.608</ele>
        <time>2016-05-28T08:24:14Z</time>
      </trkpt>
      <trkpt lat="40.579962" lon="0.065809">
        <ele>837.212</ele>
        <time>2016-05-28T08:24:15Z</time>
      </trkpt>
      <trkpt lat="40.579902" lon="0.065794">
        <ele>836.669</ele>
        <time>2016-05-28T08:24:16Z</time>
      </trkpt>
      <trkpt lat="40.579837" lon="0.065771">
        <ele>835.663</ele>
        <time>2016-05-28T08:24:17Z</time>
      </trkpt>
      <trkpt lat="40.579775" lon="0.065749">
        <ele>834.661</ele>
        <time>2016-05-28T08:24:18Z</time>
      </trkpt>
      <trkpt lat="40.579716" lon="0.065723">
        <ele>833.639</ele>
        <time>2016-05-28T08:24:19Z</time>
      </trkpt>
      <trkpt lat="40.579589" lon="0.065679">
        <ele>832.292</ele>
        <time>2016-05-28T08:24:21Z</time>
      </trkpt>
      <trkpt lat="40.579463" lon="0.065632">
        <ele>830.869</ele>
        <time>2016-05-28T08:24:23Z</time>
      </trkpt>
      <trkpt lat="40.579340" lon="0.065578">
        <ele>829.459</ele>
        <time>2016-05-28T08:24:25Z</time>
      </trkpt>
      <trkpt lat="40.579280" lon="0.065561">
        <ele>828.255</ele>
        <time>2016-05-28T08:24:26Z</time>
      </trkpt>
      <trkpt lat="40.579222" lon="0.065550">
        <ele>827.007</ele>
        <time>2016-05-28T08:24:27Z</time>
      </trkpt>
      <trkpt lat="40.579165" lon="0.065522">
        <ele>825.817</ele>
        <time>2016-05-28T08:24:28Z</time>
      </trkpt>
      <trkpt lat="40.579122" lon="0.065470">
        <ele>824.808</ele>
        <time>2016-05-28T08:24:29Z</time>
      </trkpt>
      <trkpt lat="40.579097" lon="0.065398">
        <ele>824.228</ele>
        <time>2016-05-28T08:24:30Z</time>
      </trkpt>
      <trkpt lat="40.579085" lon="0.065325">
        <ele>823.885</ele>
        <time>2016-05-28T08:24:31Z</time>
      </trkpt>
      <trkpt lat="40.579068" lon="0.065253">
        <ele>823.859</ele>
        <time>2016-05-28T08:24:32Z</time>
      </trkpt>
      <trkpt lat="40.579043" lon="0.065181">
        <ele>823.217</ele>
        <time>2016-05-28T08:24:33Z</time>
      </trkpt>
      <trkpt lat="40.579011" lon="0.065119">
        <ele>822.615</ele>
        <time>2016-05-28T08:24:34Z</time>
      </trkpt>
      <trkpt lat="40.578979" lon="0.065050">
        <ele>821.458</ele>
        <time>2016-05-28T08:24:35Z</time>
      </trkpt>
      <trkpt lat="40.578949" lon="0.064973">
        <ele>820.415</ele>
        <time>2016-05-28T08:24:36Z</time>
      </trkpt>
      <trkpt lat="40.578920" lon="0.064898">
        <ele>819.065</ele>
        <time>2016-05-28T08:24:37Z</time>
      </trkpt>
      <trkpt lat="40.578892" lon="0.064829">
        <ele>818.056</ele>
        <time>2016-05-28T08:24:38Z</time>
      </trkpt>
      <trkpt lat="40.578860" lon="0.064767">
        <ele>817.059</ele>
        <time>2016-05-28T08:24:39Z</time>
      </trkpt>
      <trkpt lat="40.578824" lon="0.064722">
        <ele>815.814</ele>
        <time>2016-05-28T08:24:40Z</time>
      </trkpt>
      <trkpt lat="40.578793" lon="0.064684">
        <ele>814.008</ele>
        <time>2016-05-28T08:24:41Z</time>
      </trkpt>
      <trkpt lat="40.578756" lon="0.064657">
        <ele>813.238</ele>
        <time>2016-05-28T08:24:42Z</time>
      </trkpt>
      <trkpt lat="40.578728" lon="0.064637">
        <ele>812.425</ele>
        <time>2016-05-28T08:24:43Z</time>
      </trkpt>
      <trkpt lat="40.578647" lon="0.064595">
        <ele>811.469</ele>
        <time>2016-05-28T08:24:47Z</time>
      </trkpt>
      <trkpt lat="40.578651" lon="0.064455">
        <ele>811.017</ele>
        <time>2016-05-28T08:24:51Z</time>
      </trkpt>
      <trkpt lat="40.578713" lon="0.064360">
        <ele>811.495</ele>
        <time>2016-05-28T08:24:54Z</time>
      </trkpt>
      <trkpt lat="40.578736" lon="0.064339">
        <ele>811.418</ele>
        <time>2016-05-28T08:24:55Z</time>
      </trkpt>
      <trkpt lat="40.578805" lon="0.064302">
        <ele>812.295</ele>
        <time>2016-05-28T08:24:58Z</time>
      </trkpt>
      <trkpt lat="40.578827" lon="0.064292">
        <ele>812.645</ele>
        <time>2016-05-28T08:24:59Z</time>
      </trkpt>
      <trkpt lat="40.578872" lon="0.064276">
        <ele>813.027</ele>
        <time>2016-05-28T08:25:01Z</time>
      </trkpt>
      <trkpt lat="40.578941" lon="0.064258">
        <ele>813.668</ele>
        <time>2016-05-28T08:25:04Z</time>
      </trkpt>
      <trkpt lat="40.578983" lon="0.064242">
        <ele>814.014</ele>
        <time>2016-05-28T08:25:06Z</time>
      </trkpt>
      <trkpt lat="40.579018" lon="0.064241">
        <ele>815.008</ele>
        <time>2016-05-28T08:25:08Z</time>
      </trkpt>
      <trkpt lat="40.579090" lon="0.064229">
        <ele>816.035</ele>
        <time>2016-05-28T08:25:12Z</time>
      </trkpt>
      <trkpt lat="40.579108" lon="0.064227">
        <ele>816.292</ele>
        <time>2016-05-28T08:25:13Z</time>
      </trkpt>
      <trkpt lat="40.579178" lon="0.064229">
        <ele>817.216</ele>
        <time>2016-05-28T08:25:16Z</time>
      </trkpt>
      <trkpt lat="40.579201" lon="0.064229">
        <ele>817.894</ele>
        <time>2016-05-28T08:25:17Z</time>
      </trkpt>
      <trkpt lat="40.579245" lon="0.064220">
        <ele>818.482</ele>
        <time>2016-05-28T08:25:19Z</time>
      </trkpt>
      <trkpt lat="40.579338" lon="0.064183">
        <ele>819.695</ele>
        <time>2016-05-28T08:25:24Z</time>
      </trkpt>
      <trkpt lat="40.579364" lon="0.064186">
        <ele>819.812</ele>
        <time>2016-05-28T08:25:26Z</time>
      </trkpt>
      <trkpt lat="40.579431" lon="0.064170">
        <ele>820.662</ele>
        <time>2016-05-28T08:25:30Z</time>
      </trkpt>
      <trkpt lat="40.579481" lon="0.064178">
        <ele>820.813</ele>
        <time>2016-05-28T08:25:32Z</time>
      </trkpt>
      <trkpt lat="40.579560" lon="0.064210">
        <ele>821.643</ele>
        <time>2016-05-28T08:25:35Z</time>
      </trkpt>
      <trkpt lat="40.579622" lon="0.064266">
        <ele>822.207</ele>
        <time>2016-05-28T08:25:38Z</time>
      </trkpt>
      <trkpt lat="40.579659" lon="0.064293">
        <ele>822.808</ele>
        <time>2016-05-28T08:25:40Z</time>
      </trkpt>
      <trkpt lat="40.579736" lon="0.064332">
        <ele>824.454</ele>
        <time>2016-05-28T08:25:44Z</time>
      </trkpt>
      <trkpt lat="40.579775" lon="0.064339">
        <ele>825.071</ele>
        <time>2016-05-28T08:25:46Z</time>
      </trkpt>
      <trkpt lat="40.579824" lon="0.064331">
        <ele>825.815</ele>
        <time>2016-05-28T08:25:49Z</time>
      </trkpt>
      <trkpt lat="40.579870" lon="0.064316">
        <ele>826.253</ele>
        <time>2016-05-28T08:25:52Z</time>
      </trkpt>
      <trkpt lat="40.579936" lon="0.064292">
        <ele>826.831</ele>
        <time>2016-05-28T08:25:56Z</time>
      </trkpt>
      <trkpt lat="40.579959" lon="0.064286">
        <ele>827.874</ele>
        <time>2016-05-28T08:25:58Z</time>
      </trkpt>
      <trkpt lat="40.579979" lon="0.064281">
        <ele>828.271</ele>
        <time>2016-05-28T08:25:59Z</time>
      </trkpt>
      <trkpt lat="40.579997" lon="0.064278">
        <ele>828.451</ele>
        <time>2016-05-28T08:26:00Z</time>
      </trkpt>
      <trkpt lat="40.580064" lon="0.064283">
        <ele>829.236</ele>
        <time>2016-05-28T08:26:03Z</time>
      </trkpt>
      <trkpt lat="40.580123" lon="0.064292">
        <ele>830.617</ele>
        <time>2016-05-28T08:26:06Z</time>
      </trkpt>
      <trkpt lat="40.580143" lon="0.064289">
        <ele>830.618</ele>
        <time>2016-05-28T08:26:07Z</time>
      </trkpt>
      <trkpt lat="40.580257" lon="0.064282">
        <ele>831.808</ele>
        <time>2016-05-28T08:26:13Z</time>
      </trkpt>
      <trkpt lat="40.580296" lon="0.064274">
        <ele>832.686</ele>
        <time>2016-05-28T08:26:15Z</time>
      </trkpt>
      <trkpt lat="40.580312" lon="0.064271">
        <ele>833.053</ele>
        <time>2016-05-28T08:26:16Z</time>
      </trkpt>
      <trkpt lat="40.580403" lon="0.064289">
        <ele>833.897</ele>
        <time>2016-05-28T08:26:21Z</time>
      </trkpt>
      <trkpt lat="40.580419" lon="0.064291">
        <ele>834.045</ele>
        <time>2016-05-28T08:26:22Z</time>
      </trkpt>
      <trkpt lat="40.580515" lon="0.064278">
        <ele>835.283</ele>
        <time>2016-05-28T08:26:27Z</time>
      </trkpt>
      <trkpt lat="40.580551" lon="0.064226">
        <ele>835.896</ele>
        <time>2016-05-28T08:26:30Z</time>
      </trkpt>
      <trkpt lat="40.580588" lon="0.064170">
        <ele>836.063</ele>
        <time>2016-05-28T08:26:33Z</time>
      </trkpt>
      <trkpt lat="40.580599" lon="0.064151">
        <ele>836.263</ele>
        <time>2016-05-28T08:26:34Z</time>
      </trkpt>
      <trkpt lat="40.580643" lon="0.064082">
        <ele>837.497</ele>
        <time>2016-05-28T08:26:38Z</time>
      </trkpt>
      <trkpt lat="40.580665" lon="0.064044">
        <ele>837.823</ele>
        <time>2016-05-28T08:26:40Z</time>
      </trkpt>
      <trkpt lat="40.580693" lon="0.064020">
        <ele>838.425</ele>
        <time>2016-05-28T08:26:42Z</time>
      </trkpt>
      <trkpt lat="40.580729" lon="0.063992">
        <ele>839.008</ele>
        <time>2016-05-28T08:26:45Z</time>
      </trkpt>
      <trkpt lat="40.580740" lon="0.063987">
        <ele>839.622</ele>
        <time>2016-05-28T08:26:46Z</time>
      </trkpt>
      <trkpt lat="40.580834" lon="0.063961">
        <ele>840.819</ele>
        <time>2016-05-28T08:26:51Z</time>
      </trkpt>
      <trkpt lat="40.580855" lon="0.063958">
        <ele>841.473</ele>
        <time>2016-05-28T08:26:52Z</time>
      </trkpt>
      <trkpt lat="40.580911" lon="0.063940">
        <ele>842.051</ele>
        <time>2016-05-28T08:26:55Z</time>
      </trkpt>
      <trkpt lat="40.580981" lon="0.063896">
        <ele>842.699</ele>
        <time>2016-05-28T08:26:59Z</time>
      </trkpt>
      <trkpt lat="40.581012" lon="0.063861">
        <ele>843.082</ele>
        <time>2016-05-28T08:27:01Z</time>
      </trkpt>
      <trkpt lat="40.581037" lon="0.063826">
        <ele>843.669</ele>
        <time>2016-05-28T08:27:03Z</time>
      </trkpt>
      <trkpt lat="40.581053" lon="0.063792">
        <ele>844.239</ele>
        <time>2016-05-28T08:27:05Z</time>
      </trkpt>
      <trkpt lat="40.581062" lon="0.063776">
        <ele>844.418</ele>
        <time>2016-05-28T08:27:06Z</time>
      </trkpt>
      <trkpt lat="40.581074" lon="0.063710">
        <ele>845.298</ele>
        <time>2016-05-28T08:27:09Z</time>
      </trkpt>
      <trkpt lat="40.581090" lon="0.063649">
        <ele>845.417</ele>
        <time>2016-05-28T08:27:12Z</time>
      </trkpt>
      <trkpt lat="40.581146" lon="0.063536">
        <ele>846.808</ele>
        <time>2016-05-28T08:27:18Z</time>
      </trkpt>
      <trkpt lat="40.581174" lon="0.063485">
        <ele>847.634</ele>
        <time>2016-05-28T08:27:21Z</time>
      </trkpt>
      <trkpt lat="40.581197" lon="0.063444">
        <ele>847.851</ele>
        <time>2016-05-28T08:27:23Z</time>
      </trkpt>
      <trkpt lat="40.581257" lon="0.063320">
        <ele>848.815</ele>
        <time>2016-05-28T08:27:29Z</time>
      </trkpt>
      <trkpt lat="40.581271" lon="0.063281">
        <ele>849.243</ele>
        <time>2016-05-28T08:27:31Z</time>
      </trkpt>
      <trkpt lat="40.581316" lon="0.063169">
        <ele>850.041</ele>
        <time>2016-05-28T08:27:36Z</time>
      </trkpt>
      <trkpt lat="40.581337" lon="0.063099">
        <ele>851.064</ele>
        <time>2016-05-28T08:27:39Z</time>
      </trkpt>
      <trkpt lat="40.581356" lon="0.063033">
        <ele>852.261</ele>
        <time>2016-05-28T08:27:42Z</time>
      </trkpt>
      <trkpt lat="40.581380" lon="0.062956">
        <ele>853.081</ele>
        <time>2016-05-28T08:27:45Z</time>
      </trkpt>
      <trkpt lat="40.581383" lon="0.062934">
        <ele>853.432</ele>
        <time>2016-05-28T08:27:46Z</time>
      </trkpt>
      <trkpt lat="40.581425" lon="0.062822">
        <ele>854.092</ele>
        <time>2016-05-28T08:27:51Z</time>
      </trkpt>
      <trkpt lat="40.581436" lon="0.062806">
        <ele>854.411</ele>
        <time>2016-05-28T08:27:52Z</time>
      </trkpt>
      <trkpt lat="40.581442" lon="0.062786">
        <ele>854.608</ele>
        <time>2016-05-28T08:27:53Z</time>
      </trkpt>
      <trkpt lat="40.581464" lon="0.062726">
        <ele>855.616</ele>
        <time>2016-05-28T08:27:56Z</time>
      </trkpt>
      <trkpt lat="40.581482" lon="0.062685">
        <ele>856.293</ele>
        <time>2016-05-28T08:27:58Z</time>
      </trkpt>
      <trkpt lat="40.581508" lon="0.062624">
        <ele>856.697</ele>
        <time>2016-05-28T08:28:01Z</time>
      </trkpt>
      <trkpt lat="40.581530" lon="0.062556">
        <ele>857.865</ele>
        <time>2016-05-28T08:28:04Z</time>
      </trkpt>
      <trkpt lat="40.581534" lon="0.062536">
        <ele>858.213</ele>
        <time>2016-05-28T08:28:05Z</time>
      </trkpt>
      <trkpt lat="40.581542" lon="0.062493">
        <ele>858.866</ele>
        <time>2016-05-28T08:28:07Z</time>
      </trkpt>
      <trkpt lat="40.581558" lon="0.062413">
        <ele>860.293</ele>
        <time>2016-05-28T08:28:11Z</time>
      </trkpt>
      <trkpt lat="40.581560" lon="0.062387">
        <ele>860.253</ele>
        <time>2016-05-28T08:28:12Z</time>
      </trkpt>
      <trkpt lat="40.581583" lon="0.062276">
        <ele>861.257</ele>
        <time>2016-05-28T08:28:17Z</time>
      </trkpt>
      <trkpt lat="40.581591" lon="0.062205">
        <ele>861.800</ele>
        <time>2016-05-28T08:28:20Z</time>
      </trkpt>
      <trkpt lat="40.581596" lon="0.062159">
        <ele>862.420</ele>
        <time>2016-05-28T08:28:22Z</time>
      </trkpt>
      <trkpt lat="40.581615" lon="0.062086">
        <ele>862.808</ele>
        <time>2016-05-28T08:28:25Z</time>
      </trkpt>
      <trkpt lat="40.581644" lon="0.062018">
        <ele>863.438</ele>
        <time>2016-05-28T08:28:28Z</time>
      </trkpt>
      <trkpt lat="40.581679" lon="0.061919">
        <ele>863.665</ele>
        <time>2016-05-28T08:28:32Z</time>
      </trkpt>
      <trkpt lat="40.581707" lon="0.061816">
        <ele>864.639</ele>
        <time>2016-05-28T08:28:36Z</time>
      </trkpt>
      <trkpt lat="40.581721" lon="0.061744">
        <ele>865.027</ele>
        <time>2016-05-28T08:28:39Z</time>
      </trkpt>
      <trkpt lat="40.581736" lon="0.061671">
        <ele>865.815</ele>
        <time>2016-05-28T08:28:42Z</time>
      </trkpt>
      <trkpt lat="40.581764" lon="0.061575">
        <ele>866.818</ele>
        <time>2016-05-28T08:28:46Z</time>
      </trkpt>
      <trkpt lat="40.581776" lon="0.061553">
        <ele>866.835</ele>
        <time>2016-05-28T08:28:47Z</time>
      </trkpt>
      <trkpt lat="40.581813" lon="0.061439">
        <ele>867.815</ele>
        <time>2016-05-28T08:28:52Z</time>
      </trkpt>
      <trkpt lat="40.581831" lon="0.061392">
        <ele>868.093</ele>
        <time>2016-05-28T08:28:54Z</time>
      </trkpt>
      <trkpt lat="40.581881" lon="0.061280">
        <ele>868.865</ele>
        <time>2016-05-28T08:28:59Z</time>
      </trkpt>
      <trkpt lat="40.581899" lon="0.061234">
        <ele>869.421</ele>
        <time>2016-05-28T08:29:01Z</time>
      </trkpt>
      <trkpt lat="40.581930" lon="0.061165">
        <ele>870.008</ele>
        <time>2016-05-28T08:29:04Z</time>
      </trkpt>
      <trkpt lat="40.581962" lon="0.061070">
        <ele>870.682</ele>
        <time>2016-05-28T08:29:08Z</time>
      </trkpt>
      <trkpt lat="40.581969" lon="0.061023">
        <ele>871.249</ele>
        <time>2016-05-28T08:29:10Z</time>
      </trkpt>
      <trkpt lat="40.582010" lon="0.060926">
        <ele>871.673</ele>
        <time>2016-05-28T08:29:14Z</time>
      </trkpt>
      <trkpt lat="40.582064" lon="0.060794">
        <ele>872.261</ele>
        <time>2016-05-28T08:29:19Z</time>
      </trkpt>
      <trkpt lat="40.582071" lon="0.060766">
        <ele>872.469</ele>
        <time>2016-05-28T08:29:20Z</time>
      </trkpt>
      <trkpt lat="40.582150" lon="0.060578">
        <ele>873.082</ele>
        <time>2016-05-28T08:29:26Z</time>
      </trkpt>
      <trkpt lat="40.582178" lon="0.060513">
        <ele>873.259</ele>
        <time>2016-05-28T08:29:28Z</time>
      </trkpt>
      <trkpt lat="40.582243" lon="0.060364">
        <ele>874.029</ele>
        <time>2016-05-28T08:29:33Z</time>
      </trkpt>
      <trkpt lat="40.582259" lon="0.060299">
        <ele>874.438</ele>
        <time>2016-05-28T08:29:35Z</time>
      </trkpt>
      <trkpt lat="40.582289" lon="0.060143">
        <ele>874.870</ele>
        <time>2016-05-28T08:29:40Z</time>
      </trkpt>
      <trkpt lat="40.582312" lon="0.060040">
        <ele>875.417</ele>
        <time>2016-05-28T08:29:43Z</time>
      </trkpt>
      <trkpt lat="40.582321" lon="0.059969">
        <ele>876.208</ele>
        <time>2016-05-28T08:29:45Z</time>
      </trkpt>
      <trkpt lat="40.582327" lon="0.059936">
        <ele>876.616</ele>
        <time>2016-05-28T08:29:46Z</time>
      </trkpt>
      <trkpt lat="40.582321" lon="0.059776">
        <ele>877.633</ele>
        <time>2016-05-28T08:29:51Z</time>
      </trkpt>
      <trkpt lat="40.582312" lon="0.059745">
        <ele>877.817</ele>
        <time>2016-05-28T08:29:52Z</time>
      </trkpt>
      <trkpt lat="40.582244" lon="0.059645">
        <ele>878.895</ele>
        <time>2016-05-28T08:29:56Z</time>
      </trkpt>
      <trkpt lat="40.582226" lon="0.059620">
        <ele>879.033</ele>
        <time>2016-05-28T08:29:57Z</time>
      </trkpt>
      <trkpt lat="40.582163" lon="0.059560">
        <ele>879.866</ele>
        <time>2016-05-28T08:30:00Z</time>
      </trkpt>
      <trkpt lat="40.582099" lon="0.059506">
        <ele>880.473</ele>
        <time>2016-05-28T08:30:03Z</time>
      </trkpt>
      <trkpt lat="40.581986" lon="0.059451">
        <ele>881.063</ele>
        <time>2016-05-28T08:30:08Z</time>
      </trkpt>
      <trkpt lat="40.581932" lon="0.059441">
        <ele>881.246</ele>
        <time>2016-05-28T08:30:10Z</time>
      </trkpt>
      <trkpt lat="40.581787" lon="0.059430">
        <ele>882.088</ele>
        <time>2016-05-28T08:30:15Z</time>
      </trkpt>
      <trkpt lat="40.581757" lon="0.059422">
        <ele>882.416</ele>
        <time>2016-05-28T08:30:16Z</time>
      </trkpt>
      <trkpt lat="40.581677" lon="0.059405">
        <ele>883.208</ele>
        <time>2016-05-28T08:30:19Z</time>
      </trkpt>
      <trkpt lat="40.581604" lon="0.059433">
        <ele>883.047</ele>
        <time>2016-05-28T08:30:21Z</time>
      </trkpt>
      <trkpt lat="40.581463" lon="0.059490">
        <ele>881.844</ele>
        <time>2016-05-28T08:30:24Z</time>
      </trkpt>
      <trkpt lat="40.581352" lon="0.059488">
        <ele>881.018</ele>
        <time>2016-05-28T08:30:26Z</time>
      </trkpt>
      <trkpt lat="40.581295" lon="0.059466">
        <ele>880.666</ele>
        <time>2016-05-28T08:30:27Z</time>
      </trkpt>
      <trkpt lat="40.581188" lon="0.059386">
        <ele>879.674</ele>
        <time>2016-05-28T08:30:29Z</time>
      </trkpt>
      <trkpt lat="40.581128" lon="0.059351">
        <ele>879.437</ele>
        <time>2016-05-28T08:30:30Z</time>
      </trkpt>
      <trkpt lat="40.580991" lon="0.059303">
        <ele>878.024</ele>
        <time>2016-05-28T08:30:32Z</time>
      </trkpt>
      <trkpt lat="40.580918" lon="0.059288">
        <ele>877.444</ele>
        <time>2016-05-28T08:30:33Z</time>
      </trkpt>
      <trkpt lat="40.580712" lon="0.059234">
        <ele>876.884</ele>
        <time>2016-05-28T08:30:36Z</time>
      </trkpt>
      <trkpt lat="40.580606" lon="0.059208">
        <ele>877.207</ele>
        <time>2016-05-28T08:30:38Z</time>
      </trkpt>
      <trkpt lat="40.580496" lon="0.059178">
        <ele>877.217</ele>
        <time>2016-05-28T08:30:40Z</time>
      </trkpt>
      <trkpt lat="40.580297" lon="0.059123">
        <ele>875.608</ele>
        <time>2016-05-28T08:30:43Z</time>
      </trkpt>
      <trkpt lat="40.580131" lon="0.059114">
        <ele>876.241</ele>
        <time>2016-05-28T08:30:46Z</time>
      </trkpt>
      <trkpt lat="40.580088" lon="0.059125">
        <ele>876.428</ele>
        <time>2016-05-28T08:30:47Z</time>
      </trkpt>
      <trkpt lat="40.580043" lon="0.059124">
        <ele>876.622</ele>
        <time>2016-05-28T08:30:48Z</time>
      </trkpt>
      <trkpt lat="40.579918" lon="0.059030">
        <ele>876.270</ele>
        <time>2016-05-28T08:30:51Z</time>
      </trkpt>
      <trkpt lat="40.579744" lon="0.058946">
        <ele>875.268</ele>
        <time>2016-05-28T08:30:54Z</time>
      </trkpt>
      <trkpt lat="40.579670" lon="0.058925">
        <ele>874.221</ele>
        <time>2016-05-28T08:30:55Z</time>
      </trkpt>
      <trkpt lat="40.579600" lon="0.058893">
        <ele>873.618</ele>
        <time>2016-05-28T08:30:56Z</time>
      </trkpt>
      <trkpt lat="40.579535" lon="0.058862">
        <ele>873.268</ele>
        <time>2016-05-28T08:30:57Z</time>
      </trkpt>
      <trkpt lat="40.579474" lon="0.058830">
        <ele>873.439</ele>
        <time>2016-05-28T08:30:58Z</time>
      </trkpt>
      <trkpt lat="40.579349" lon="0.058760">
        <ele>873.201</ele>
        <time>2016-05-28T08:31:00Z</time>
      </trkpt>
      <trkpt lat="40.579219" lon="0.058683">
        <ele>872.421</ele>
        <time>2016-05-28T08:31:02Z</time>
      </trkpt>
      <trkpt lat="40.579072" lon="0.058627">
        <ele>873.008</ele>
        <time>2016-05-28T08:31:05Z</time>
      </trkpt>
      <trkpt lat="40.578973" lon="0.058633">
        <ele>873.816</ele>
        <time>2016-05-28T08:31:08Z</time>
      </trkpt>
      <trkpt lat="40.578953" lon="0.058617">
        <ele>874.643</ele>
        <time>2016-05-28T08:31:09Z</time>
      </trkpt>
      <trkpt lat="40.578936" lon="0.058599">
        <ele>874.897</ele>
        <time>2016-05-28T08:31:10Z</time>
      </trkpt>
      <trkpt lat="40.578928" lon="0.058515">
        <ele>875.495</ele>
        <time>2016-05-28T08:31:13Z</time>
      </trkpt>
      <trkpt lat="40.578959" lon="0.058468">
        <ele>875.833</ele>
        <time>2016-05-28T08:31:15Z</time>
      </trkpt>
      <trkpt lat="40.578984" lon="0.058448">
        <ele>876.426</ele>
        <time>2016-05-28T08:31:17Z</time>
      </trkpt>
      <trkpt lat="40.579008" lon="0.058433">
        <ele>876.853</ele>
        <time>2016-05-28T08:31:18Z</time>
      </trkpt>
      <trkpt lat="40.579034" lon="0.058417">
        <ele>877.083</ele>
        <time>2016-05-28T08:31:19Z</time>
      </trkpt>
      <trkpt lat="40.579084" lon="0.058396">
        <ele>877.849</ele>
        <time>2016-05-28T08:31:22Z</time>
      </trkpt>
      <trkpt lat="40.579105" lon="0.058389">
        <ele>878.202</ele>
        <time>2016-05-28T08:31:23Z</time>
      </trkpt>
      <trkpt lat="40.579142" lon="0.058376">
        <ele>879.222</ele>
        <time>2016-05-28T08:31:25Z</time>
      </trkpt>
      <trkpt lat="40.579187" lon="0.058352">
        <ele>880.008</ele>
        <time>2016-05-28T08:31:27Z</time>
      </trkpt>
      <trkpt lat="40.579208" lon="0.058349">
        <ele>880.237</ele>
        <time>2016-05-28T08:31:28Z</time>
      </trkpt>
      <trkpt lat="40.579232" lon="0.058341">
        <ele>880.464</ele>
        <time>2016-05-28T08:31:29Z</time>
      </trkpt>
      <trkpt lat="40.579296" lon="0.058323">
        <ele>881.478</ele>
        <time>2016-05-28T08:31:32Z</time>
      </trkpt>
      <trkpt lat="40.579333" lon="0.058314">
        <ele>882.036</ele>
        <time>2016-05-28T08:31:34Z</time>
      </trkpt>
      <trkpt lat="40.579355" lon="0.058307">
        <ele>882.614</ele>
        <time>2016-05-28T08:31:35Z</time>
      </trkpt>
      <trkpt lat="40.579433" lon="0.058262">
        <ele>883.067</ele>
        <time>2016-05-28T08:31:39Z</time>
      </trkpt>
      <trkpt lat="40.579462" lon="0.058240">
        <ele>883.224</ele>
        <time>2016-05-28T08:31:40Z</time>
      </trkpt>
      <trkpt lat="40.579507" lon="0.058207">
        <ele>883.644</ele>
        <time>2016-05-28T08:31:42Z</time>
      </trkpt>
      <trkpt lat="40.579588" lon="0.058175">
        <ele>884.252</ele>
        <time>2016-05-28T08:31:45Z</time>
      </trkpt>
      <trkpt lat="40.579633" lon="0.058161">
        <ele>884.653</ele>
        <time>2016-05-28T08:31:47Z</time>
      </trkpt>
      <trkpt lat="40.579746" lon="0.058156">
        <ele>885.208</ele>
        <time>2016-05-28T08:31:51Z</time>
      </trkpt>
      <trkpt lat="40.579801" lon="0.058163">
        <ele>885.608</ele>
        <time>2016-05-28T08:31:53Z</time>
      </trkpt>
      <trkpt lat="40.579888" lon="0.058124">
        <ele>886.468</ele>
        <time>2016-05-28T08:31:56Z</time>
      </trkpt>
      <trkpt lat="40.579944" lon="0.058076">
        <ele>886.815</ele>
        <time>2016-05-28T08:31:58Z</time>
      </trkpt>
      <trkpt lat="40.580034" lon="0.057966">
        <ele>887.279</ele>
        <time>2016-05-28T08:32:02Z</time>
      </trkpt>
      <trkpt lat="40.580094" lon="0.057859">
        <ele>888.087</ele>
        <time>2016-05-28T08:32:06Z</time>
      </trkpt>
      <trkpt lat="40.580125" lon="0.057802">
        <ele>888.495</ele>
        <time>2016-05-28T08:32:08Z</time>
      </trkpt>
      <trkpt lat="40.580147" lon="0.057753">
        <ele>889.078</ele>
        <time>2016-05-28T08:32:10Z</time>
      </trkpt>
      <trkpt lat="40.580181" lon="0.057659">
        <ele>890.235</ele>
        <time>2016-05-28T08:32:14Z</time>
      </trkpt>
      <trkpt lat="40.580187" lon="0.057636">
        <ele>890.695</ele>
        <time>2016-05-28T08:32:15Z</time>
      </trkpt>
      <trkpt lat="40.580194" lon="0.057593">
        <ele>891.264</ele>
        <time>2016-05-28T08:32:17Z</time>
      </trkpt>
      <trkpt lat="40.580207" lon="0.057523">
        <ele>892.406</ele>
        <time>2016-05-28T08:32:20Z</time>
      </trkpt>
      <trkpt lat="40.580225" lon="0.057480">
        <ele>893.216</ele>
        <time>2016-05-28T08:32:22Z</time>
      </trkpt>
      <trkpt lat="40.580236" lon="0.057465">
        <ele>893.408</ele>
        <time>2016-05-28T08:32:23Z</time>
      </trkpt>
      <trkpt lat="40.580323" lon="0.057417">
        <ele>894.659</ele>
        <time>2016-05-28T08:32:28Z</time>
      </trkpt>
      <trkpt lat="40.580392" lon="0.057417">
        <ele>895.666</ele>
        <time>2016-05-28T08:32:32Z</time>
      </trkpt>
      <trkpt lat="40.580448" lon="0.057431">
        <ele>896.610</ele>
        <time>2016-05-28T08:32:35Z</time>
      </trkpt>
      <trkpt lat="40.580466" lon="0.057439">
        <ele>897.268</ele>
        <time>2016-05-28T08:32:36Z</time>
      </trkpt>
      <trkpt lat="40.580589" lon="0.057447">
        <ele>898.286</ele>
        <time>2016-05-28T08:32:42Z</time>
      </trkpt>
      <trkpt lat="40.580609" lon="0.057445">
        <ele>898.419</ele>
        <time>2016-05-28T08:32:43Z</time>
      </trkpt>
      <trkpt lat="40.580713" lon="0.057403">
        <ele>899.476</ele>
        <time>2016-05-28T08:32:49Z</time>
      </trkpt>
      <trkpt lat="40.580779" lon="0.057351">
        <ele>900.656</ele>
        <time>2016-05-28T08:32:53Z</time>
      </trkpt>
      <trkpt lat="40.580828" lon="0.057318">
        <ele>901.484</ele>
        <time>2016-05-28T08:32:56Z</time>
      </trkpt>
      <trkpt lat="40.580873" lon="0.057272">
        <ele>901.807</ele>
        <time>2016-05-28T08:32:59Z</time>
      </trkpt>
      <trkpt lat="40.580938" lon="0.057224">
        <ele>902.817</ele>
        <time>2016-05-28T08:33:03Z</time>
      </trkpt>
      <trkpt lat="40.580954" lon="0.057208">
        <ele>902.808</ele>
        <time>2016-05-28T08:33:04Z</time>
      </trkpt>
      <trkpt lat="40.581016" lon="0.057139">
        <ele>903.811</ele>
        <time>2016-05-28T08:33:08Z</time>
      </trkpt>
      <trkpt lat="40.581069" lon="0.057087">
        <ele>904.028</ele>
        <time>2016-05-28T08:33:11Z</time>
      </trkpt>
      <trkpt lat="40.581217" lon="0.056963">
        <ele>904.052</ele>
        <time>2016-05-28T08:33:18Z</time>
      </trkpt>
      <trkpt lat="40.581345" lon="0.056828">
        <ele>904.030</ele>
        <time>2016-05-28T08:33:23Z</time>
      </trkpt>
      <trkpt lat="40.581442" lon="0.056705">
        <ele>904.228</ele>
        <time>2016-05-28T08:33:27Z</time>
      </trkpt>
      <trkpt lat="40.581536" lon="0.056555">
        <ele>904.421</ele>
        <time>2016-05-28T08:33:31Z</time>
      </trkpt>
      <trkpt lat="40.581619" lon="0.056386">
        <ele>904.448</ele>
        <time>2016-05-28T08:33:35Z</time>
      </trkpt>
      <trkpt lat="40.581656" lon="0.056296">
        <ele>904.028</ele>
        <time>2016-05-28T08:33:37Z</time>
      </trkpt>
      <trkpt lat="40.581765" lon="0.056040">
        <ele>905.046</ele>
        <time>2016-05-28T08:33:43Z</time>
      </trkpt>
      <trkpt lat="40.581774" lon="0.056002">
        <ele>905.288</ele>
        <time>2016-05-28T08:33:44Z</time>
      </trkpt>
      <trkpt lat="40.581794" lon="0.055837">
        <ele>906.016</ele>
        <time>2016-05-28T08:33:48Z</time>
      </trkpt>
      <trkpt lat="40.581791" lon="0.055697">
        <ele>906.408</ele>
        <time>2016-05-28T08:33:51Z</time>
      </trkpt>
      <trkpt lat="40.581761" lon="0.055416">
        <ele>907.477</ele>
        <time>2016-05-28T08:33:57Z</time>
      </trkpt>
      <trkpt lat="40.581761" lon="0.055371">
        <ele>907.654</ele>
        <time>2016-05-28T08:33:58Z</time>
      </trkpt>
      <trkpt lat="40.581717" lon="0.055177">
        <ele>908.458</ele>
        <time>2016-05-28T08:34:03Z</time>
      </trkpt>
      <trkpt lat="40.581706" lon="0.055136">
        <ele>908.686</ele>
        <time>2016-05-28T08:34:04Z</time>
      </trkpt>
      <trkpt lat="40.581644" lon="0.054968">
        <ele>909.684</ele>
        <time>2016-05-28T08:34:09Z</time>
      </trkpt>
      <trkpt lat="40.581622" lon="0.054902">
        <ele>910.487</ele>
        <time>2016-05-28T08:34:11Z</time>
      </trkpt>
      <trkpt lat="40.581593" lon="0.054836">
        <ele>910.844</ele>
        <time>2016-05-28T08:34:13Z</time>
      </trkpt>
      <trkpt lat="40.581544" lon="0.054715">
        <ele>911.814</ele>
        <time>2016-05-28T08:34:17Z</time>
      </trkpt>
      <trkpt lat="40.581533" lon="0.054681">
        <ele>912.041</ele>
        <time>2016-05-28T08:34:18Z</time>
      </trkpt>
      <trkpt lat="40.581495" lon="0.054589">
        <ele>913.081</ele>
        <time>2016-05-28T08:34:21Z</time>
      </trkpt>
      <trkpt lat="40.581436" lon="0.054436">
        <ele>914.009</ele>
        <time>2016-05-28T08:34:26Z</time>
      </trkpt>
      <trkpt lat="40.581389" lon="0.054329">
        <ele>915.208</ele>
        <time>2016-05-28T08:34:30Z</time>
      </trkpt>
      <trkpt lat="40.581368" lon="0.054274">
        <ele>915.847</ele>
        <time>2016-05-28T08:34:32Z</time>
      </trkpt>
      <trkpt lat="40.581357" lon="0.054243">
        <ele>916.214</ele>
        <time>2016-05-28T08:34:33Z</time>
      </trkpt>
      <trkpt lat="40.581335" lon="0.054191">
        <ele>917.418</ele>
        <time>2016-05-28T08:34:35Z</time>
      </trkpt>
      <trkpt lat="40.581290" lon="0.054073">
        <ele>918.616</ele>
        <time>2016-05-28T08:34:39Z</time>
      </trkpt>
      <trkpt lat="40.581227" lon="0.053889">
        <ele>919.664</ele>
        <time>2016-05-28T08:34:45Z</time>
      </trkpt>
      <trkpt lat="40.581216" lon="0.053858">
        <ele>919.867</ele>
        <time>2016-05-28T08:34:46Z</time>
      </trkpt>
      <trkpt lat="40.581129" lon="0.053618">
        <ele>920.274</ele>
        <time>2016-05-28T08:34:54Z</time>
      </trkpt>
      <trkpt lat="40.581074" lon="0.053541">
        <ele>920.874</ele>
        <time>2016-05-28T08:34:57Z</time>
      </trkpt>
      <trkpt lat="40.580992" lon="0.053468">
        <ele>921.081</ele>
        <time>2016-05-28T08:35:01Z</time>
      </trkpt>
      <trkpt lat="40.580838" lon="0.053322">
        <ele>921.861</ele>
        <time>2016-05-28T08:35:08Z</time>
      </trkpt>
      <trkpt lat="40.580812" lon="0.053298">
        <ele>921.817</ele>
        <time>2016-05-28T08:35:09Z</time>
      </trkpt>
      <trkpt lat="40.580670" lon="0.053196">
        <ele>922.008</ele>
        <time>2016-05-28T08:35:14Z</time>
      </trkpt>
      <trkpt lat="40.580645" lon="0.053175">
        <ele>922.071</ele>
        <time>2016-05-28T08:35:15Z</time>
      </trkpt>
      <trkpt lat="40.580545" lon="0.053058">
        <ele>921.848</ele>
        <time>2016-05-28T08:35:19Z</time>
      </trkpt>
      <trkpt lat="40.580510" lon="0.052969">
        <ele>921.892</ele>
        <time>2016-05-28T08:35:21Z</time>
      </trkpt>
      <trkpt lat="40.580480" lon="0.052844">
        <ele>922.040</ele>
        <time>2016-05-28T08:35:24Z</time>
      </trkpt>
      <trkpt lat="40.580451" lon="0.052732">
        <ele>922.678</ele>
        <time>2016-05-28T08:35:27Z</time>
      </trkpt>
      <trkpt lat="40.580444" lon="0.052626">
        <ele>922.621</ele>
        <time>2016-05-28T08:35:30Z</time>
      </trkpt>
      <trkpt lat="40.580452" lon="0.052585">
        <ele>922.618</ele>
        <time>2016-05-28T08:35:31Z</time>
      </trkpt>
      <trkpt lat="40.580493" lon="0.052507">
        <ele>923.088</ele>
        <time>2016-05-28T08:35:33Z</time>
      </trkpt>
      <trkpt lat="40.580511" lon="0.052474">
        <ele>923.259</ele>
        <time>2016-05-28T08:35:34Z</time>
      </trkpt>
      <trkpt lat="40.580531" lon="0.052439">
        <ele>923.603</ele>
        <time>2016-05-28T08:35:35Z</time>
      </trkpt>
      <trkpt lat="40.580554" lon="0.052409">
        <ele>924.023</ele>
        <time>2016-05-28T08:35:36Z</time>
      </trkpt>
      <trkpt lat="40.580651" lon="0.052304">
        <ele>925.408</ele>
        <time>2016-05-28T08:35:40Z</time>
      </trkpt>
      <trkpt lat="40.580676" lon="0.052273">
        <ele>925.858</ele>
        <time>2016-05-28T08:35:41Z</time>
      </trkpt>
      <trkpt lat="40.580733" lon="0.052202">
        <ele>926.655</ele>
        <time>2016-05-28T08:35:44Z</time>
      </trkpt>
      <trkpt lat="40.580765" lon="0.052152">
        <ele>927.259</ele>
        <time>2016-05-28T08:35:46Z</time>
      </trkpt>
      <trkpt lat="40.580782" lon="0.052127">
        <ele>927.637</ele>
        <time>2016-05-28T08:35:47Z</time>
      </trkpt>
      <trkpt lat="40.580851" lon="0.051976">
        <ele>928.875</ele>
        <time>2016-05-28T08:35:52Z</time>
      </trkpt>
      <trkpt lat="40.580861" lon="0.051948">
        <ele>928.838</ele>
        <time>2016-05-28T08:35:53Z</time>
      </trkpt>
      <trkpt lat="40.580914" lon="0.051798">
        <ele>929.895</ele>
        <time>2016-05-28T08:35:58Z</time>
      </trkpt>
      <trkpt lat="40.580929" lon="0.051765">
        <ele>930.025</ele>
        <time>2016-05-28T08:35:59Z</time>
      </trkpt>
      <trkpt lat="40.581029" lon="0.051610">
        <ele>930.888</ele>
        <time>2016-05-28T08:36:05Z</time>
      </trkpt>
      <trkpt lat="40.581049" lon="0.051588">
        <ele>931.024</ele>
        <time>2016-05-28T08:36:06Z</time>
      </trkpt>
      <trkpt lat="40.581187" lon="0.051505">
        <ele>932.026</ele>
        <time>2016-05-28T08:36:12Z</time>
      </trkpt>
      <trkpt lat="40.581216" lon="0.051497">
        <ele>932.008</ele>
        <time>2016-05-28T08:36:13Z</time>
      </trkpt>
      <trkpt lat="40.581339" lon="0.051539">
        <ele>931.441</ele>
        <time>2016-05-28T08:36:17Z</time>
      </trkpt>
      <trkpt lat="40.581597" lon="0.051661">
        <ele>933.288</ele>
        <time>2016-05-28T08:36:25Z</time>
      </trkpt>
      <trkpt lat="40.581705" lon="0.051701">
        <ele>933.042</ele>
        <time>2016-05-28T08:36:28Z</time>
      </trkpt>
      <trkpt lat="40.581757" lon="0.051696">
        <ele>932.630</ele>
        <time>2016-05-28T08:36:29Z</time>
      </trkpt>
      <trkpt lat="40.581816" lon="0.051684">
        <ele>932.028</ele>
        <time>2016-05-28T08:36:30Z</time>
      </trkpt>
      <trkpt lat="40.582006" lon="0.051623">
        <ele>930.661</ele>
        <time>2016-05-28T08:36:33Z</time>
      </trkpt>
      <trkpt lat="40.582145" lon="0.051583">
        <ele>929.458</ele>
        <time>2016-05-28T08:36:35Z</time>
      </trkpt>
      <trkpt lat="40.582284" lon="0.051506">
        <ele>928.278</ele>
        <time>2016-05-28T08:36:37Z</time>
      </trkpt>
      <trkpt lat="40.582350" lon="0.051453">
        <ele>927.659</ele>
        <time>2016-05-28T08:36:38Z</time>
      </trkpt>
      <trkpt lat="40.582401" lon="0.051397">
        <ele>927.003</ele>
        <time>2016-05-28T08:36:39Z</time>
      </trkpt>
      <trkpt lat="40.582457" lon="0.051303">
        <ele>926.023</ele>
        <time>2016-05-28T08:36:41Z</time>
      </trkpt>
      <trkpt lat="40.582480" lon="0.051240">
        <ele>926.008</ele>
        <time>2016-05-28T08:36:42Z</time>
      </trkpt>
      <trkpt lat="40.582505" lon="0.051060">
        <ele>925.618</ele>
        <time>2016-05-28T08:36:45Z</time>
      </trkpt>
      <trkpt lat="40.582511" lon="0.050995">
        <ele>925.465</ele>
        <time>2016-05-28T08:36:46Z</time>
      </trkpt>
      <trkpt lat="40.582516" lon="0.050867">
        <ele>925.899</ele>
        <time>2016-05-28T08:36:48Z</time>
      </trkpt>
      <trkpt lat="40.582523" lon="0.050685">
        <ele>926.247</ele>
        <time>2016-05-28T08:36:51Z</time>
      </trkpt>
      <trkpt lat="40.582530" lon="0.050639">
        <ele>926.415</ele>
        <time>2016-05-28T08:36:52Z</time>
      </trkpt>
      <trkpt lat="40.582524" lon="0.050554">
        <ele>927.258</ele>
        <time>2016-05-28T08:36:54Z</time>
      </trkpt>
      <trkpt lat="40.582512" lon="0.050413">
        <ele>928.095</ele>
        <time>2016-05-28T08:36:57Z</time>
      </trkpt>
      <trkpt lat="40.582512" lon="0.050316">
        <ele>928.445</ele>
        <time>2016-05-28T08:36:59Z</time>
      </trkpt>
      <trkpt lat="40.582519" lon="0.050116">
        <ele>928.674</ele>
        <time>2016-05-28T08:37:03Z</time>
      </trkpt>
      <trkpt lat="40.582543" lon="0.049951">
        <ele>929.456</ele>
        <time>2016-05-28T08:37:07Z</time>
      </trkpt>
      <trkpt lat="40.582563" lon="0.049807">
        <ele>930.621</ele>
        <time>2016-05-28T08:37:11Z</time>
      </trkpt>
      <trkpt lat="40.582559" lon="0.049687">
        <ele>932.008</ele>
        <time>2016-05-28T08:37:14Z</time>
      </trkpt>
      <trkpt lat="40.582549" lon="0.049568">
        <ele>932.680</ele>
        <time>2016-05-28T08:37:17Z</time>
      </trkpt>
      <trkpt lat="40.582521" lon="0.049381">
        <ele>932.897</ele>
        <time>2016-05-28T08:37:21Z</time>
      </trkpt>
      <trkpt lat="40.582494" lon="0.049190">
        <ele>932.631</ele>
        <time>2016-05-28T08:37:25Z</time>
      </trkpt>
      <trkpt lat="40.582490" lon="0.049133">
        <ele>932.489</ele>
        <time>2016-05-28T08:37:26Z</time>
      </trkpt>
      <trkpt lat="40.582485" lon="0.049069">
        <ele>932.247</ele>
        <time>2016-05-28T08:37:27Z</time>
      </trkpt>
      <trkpt lat="40.582495" lon="0.048945">
        <ele>932.040</ele>
        <time>2016-05-28T08:37:29Z</time>
      </trkpt>
      <trkpt lat="40.582512" lon="0.048793">
        <ele>932.077</ele>
        <time>2016-05-28T08:37:32Z</time>
      </trkpt>
      <trkpt lat="40.582501" lon="0.048492">
        <ele>933.417</ele>
        <time>2016-05-28T08:37:38Z</time>
      </trkpt>
      <trkpt lat="40.582492" lon="0.048441">
        <ele>933.829</ele>
        <time>2016-05-28T08:37:39Z</time>
      </trkpt>
      <trkpt lat="40.582463" lon="0.048293">
        <ele>934.800</ele>
        <time>2016-05-28T08:37:42Z</time>
      </trkpt>
      <trkpt lat="40.582428" lon="0.048087">
        <ele>935.020</ele>
        <time>2016-05-28T08:37:46Z</time>
      </trkpt>
      <trkpt lat="40.582398" lon="0.047777">
        <ele>935.608</ele>
        <time>2016-05-28T08:37:52Z</time>
      </trkpt>
      <trkpt lat="40.582394" lon="0.047727">
        <ele>936.075</ele>
        <time>2016-05-28T08:37:53Z</time>
      </trkpt>
      <trkpt lat="40.582355" lon="0.047349">
        <ele>936.022</ele>
        <time>2016-05-28T08:38:00Z</time>
      </trkpt>
      <trkpt lat="40.582335" lon="0.047021">
        <ele>935.246</ele>
        <time>2016-05-28T08:38:05Z</time>
      </trkpt>
      <trkpt lat="40.582310" lon="0.046895">
        <ele>935.074</ele>
        <time>2016-05-28T08:38:07Z</time>
      </trkpt>
      <trkpt lat="40.582296" lon="0.046827">
        <ele>934.672</ele>
        <time>2016-05-28T08:38:08Z</time>
      </trkpt>
      <trkpt lat="40.582282" lon="0.046679">
        <ele>933.825</ele>
        <time>2016-05-28T08:38:10Z</time>
      </trkpt>
      <trkpt lat="40.582296" lon="0.046607">
        <ele>933.462</ele>
        <time>2016-05-28T08:38:11Z</time>
      </trkpt>
      <trkpt lat="40.582328" lon="0.046540">
        <ele>932.872</ele>
        <time>2016-05-28T08:38:12Z</time>
      </trkpt>
      <trkpt lat="40.582351" lon="0.046473">
        <ele>932.452</ele>
        <time>2016-05-28T08:38:13Z</time>
      </trkpt>
      <trkpt lat="40.582400" lon="0.046308">
        <ele>930.853</ele>
        <time>2016-05-28T08:38:15Z</time>
      </trkpt>
      <trkpt lat="40.582416" lon="0.046216">
        <ele>930.208</ele>
        <time>2016-05-28T08:38:16Z</time>
      </trkpt>
      <trkpt lat="40.582429" lon="0.046114">
        <ele>929.408</ele>
        <time>2016-05-28T08:38:17Z</time>
      </trkpt>
      <trkpt lat="40.582455" lon="0.045908">
        <ele>928.268</ele>
        <time>2016-05-28T08:38:19Z</time>
      </trkpt>
      <trkpt lat="40.582455" lon="0.045815">
        <ele>927.815</ele>
        <time>2016-05-28T08:38:20Z</time>
      </trkpt>
      <trkpt lat="40.582438" lon="0.045728">
        <ele>926.869</ele>
        <time>2016-05-28T08:38:21Z</time>
      </trkpt>
      <trkpt lat="40.582354" lon="0.045572">
        <ele>925.257</ele>
        <time>2016-05-28T08:38:23Z</time>
      </trkpt>
      <trkpt lat="40.582171" lon="0.045464">
        <ele>924.865</ele>
        <time>2016-05-28T08:38:26Z</time>
      </trkpt>
      <trkpt lat="40.582046" lon="0.045426">
        <ele>924.628</ele>
        <time>2016-05-28T08:38:28Z</time>
      </trkpt>
      <trkpt lat="40.581913" lon="0.045392">
        <ele>924.055</ele>
        <time>2016-05-28T08:38:30Z</time>
      </trkpt>
      <trkpt lat="40.581796" lon="0.045328">
        <ele>922.615</ele>
        <time>2016-05-28T08:38:32Z</time>
      </trkpt>
      <trkpt lat="40.581691" lon="0.045189">
        <ele>920.899</ele>
        <time>2016-05-28T08:38:34Z</time>
      </trkpt>
      <trkpt lat="40.581656" lon="0.045141">
        <ele>920.207</ele>
        <time>2016-05-28T08:38:35Z</time>
      </trkpt>
      <trkpt lat="40.581626" lon="0.045117">
        <ele>919.627</ele>
        <time>2016-05-28T08:38:36Z</time>
      </trkpt>
      <trkpt lat="40.581638" lon="0.045066">
        <ele>919.408</ele>
        <time>2016-05-28T08:38:38Z</time>
      </trkpt>
      <trkpt lat="40.581712" lon="0.045010">
        <ele>918.472</ele>
        <time>2016-05-28T08:38:41Z</time>
      </trkpt>
      <trkpt lat="40.581778" lon="0.044949">
        <ele>918.499</ele>
        <time>2016-05-28T08:38:44Z</time>
      </trkpt>
      <trkpt lat="40.581827" lon="0.044901">
        <ele>918.413</ele>
        <time>2016-05-28T08:38:46Z</time>
      </trkpt>
      <trkpt lat="40.581896" lon="0.044838">
        <ele>919.031</ele>
        <time>2016-05-28T08:38:49Z</time>
      </trkpt>
      <trkpt lat="40.581939" lon="0.044777">
        <ele>919.649</ele>
        <time>2016-05-28T08:38:51Z</time>
      </trkpt>
      <trkpt lat="40.581958" lon="0.044744">
        <ele>920.252</ele>
        <time>2016-05-28T08:38:52Z</time>
      </trkpt>
      <trkpt lat="40.581982" lon="0.044629">
        <ele>920.869</ele>
        <time>2016-05-28T08:38:55Z</time>
      </trkpt>
      <trkpt lat="40.581995" lon="0.044555">
        <ele>921.289</ele>
        <time>2016-05-28T08:38:57Z</time>
      </trkpt>
      <trkpt lat="40.582028" lon="0.044281">
        <ele>920.051</ele>
        <time>2016-05-28T08:39:03Z</time>
      </trkpt>
      <trkpt lat="40.582025" lon="0.044236">
        <ele>919.601</ele>
        <time>2016-05-28T08:39:04Z</time>
      </trkpt>
      <trkpt lat="40.582002" lon="0.044137">
        <ele>918.211</ele>
        <time>2016-05-28T08:39:06Z</time>
      </trkpt>
      <trkpt lat="40.581967" lon="0.044055">
        <ele>917.008</ele>
        <time>2016-05-28T08:39:08Z</time>
      </trkpt>
      <trkpt lat="40.581934" lon="0.043980">
        <ele>916.078</ele>
        <time>2016-05-28T08:39:10Z</time>
      </trkpt>
      <trkpt lat="40.581893" lon="0.043836">
        <ele>914.475</ele>
        <time>2016-05-28T08:39:13Z</time>
      </trkpt>
      <trkpt lat="40.581882" lon="0.043718">
        <ele>913.059</ele>
        <time>2016-05-28T08:39:15Z</time>
      </trkpt>
      <trkpt lat="40.581873" lon="0.043606">
        <ele>911.417</ele>
        <time>2016-05-28T08:39:17Z</time>
      </trkpt>
      <trkpt lat="40.581880" lon="0.043528">
        <ele>910.465</ele>
        <time>2016-05-28T08:39:19Z</time>
      </trkpt>
      <trkpt lat="40.581906" lon="0.043508">
        <ele>910.228</ele>
        <time>2016-05-28T08:39:20Z</time>
      </trkpt>
      <trkpt lat="40.581970" lon="0.043559">
        <ele>909.665</ele>
        <time>2016-05-28T08:39:23Z</time>
      </trkpt>
      <trkpt lat="40.581993" lon="0.043587">
        <ele>909.415</ele>
        <time>2016-05-28T08:39:24Z</time>
      </trkpt>
      <trkpt lat="40.582018" lon="0.043613">
        <ele>909.225</ele>
        <time>2016-05-28T08:39:25Z</time>
      </trkpt>
      <trkpt lat="40.582122" lon="0.043702">
        <ele>908.826</ele>
        <time>2016-05-28T08:39:28Z</time>
      </trkpt>
      <trkpt lat="40.582175" lon="0.043716">
        <ele>908.208</ele>
        <time>2016-05-28T08:39:29Z</time>
      </trkpt>
      <trkpt lat="40.582218" lon="0.043750">
        <ele>907.208</ele>
        <time>2016-05-28T08:39:30Z</time>
      </trkpt>
      <trkpt lat="40.582261" lon="0.043784">
        <ele>906.865</ele>
        <time>2016-05-28T08:39:31Z</time>
      </trkpt>
      <trkpt lat="40.582485" lon="0.043957">
        <ele>906.452</ele>
        <time>2016-05-28T08:39:36Z</time>
      </trkpt>
      <trkpt lat="40.582567" lon="0.044043">
        <ele>906.236</ele>
        <time>2016-05-28T08:39:38Z</time>
      </trkpt>
      <trkpt lat="40.582658" lon="0.044112">
        <ele>905.634</ele>
        <time>2016-05-28T08:39:40Z</time>
      </trkpt>
      <trkpt lat="40.582753" lon="0.044176">
        <ele>905.432</ele>
        <time>2016-05-28T08:39:42Z</time>
      </trkpt>
      <trkpt lat="40.582802" lon="0.044198">
        <ele>905.475</ele>
        <time>2016-05-28T08:39:43Z</time>
      </trkpt>
      <trkpt lat="40.582967" lon="0.044209">
        <ele>906.642</ele>
        <time>2016-05-28T08:39:47Z</time>
      </trkpt>
      <trkpt lat="40.583044" lon="0.044244">
        <ele>907.242</ele>
        <time>2016-05-28T08:39:49Z</time>
      </trkpt>
      <trkpt lat="40.583119" lon="0.044285">
        <ele>908.047</ele>
        <time>2016-05-28T08:39:51Z</time>
      </trkpt>
      <trkpt lat="40.583157" lon="0.044315">
        <ele>908.029</ele>
        <time>2016-05-28T08:39:52Z</time>
      </trkpt>
      <trkpt lat="40.583341" lon="0.044422">
        <ele>907.621</ele>
        <time>2016-05-28T08:39:56Z</time>
      </trkpt>
      <trkpt lat="40.583617" lon="0.044584">
        <ele>906.208</ele>
        <time>2016-05-28T08:40:01Z</time>
      </trkpt>
      <trkpt lat="40.583675" lon="0.044619">
        <ele>905.837</ele>
        <time>2016-05-28T08:40:02Z</time>
      </trkpt>
      <trkpt lat="40.583735" lon="0.044649">
        <ele>905.274</ele>
        <time>2016-05-28T08:40:03Z</time>
      </trkpt>
      <trkpt lat="40.583923" lon="0.044747">
        <ele>904.488</ele>
        <time>2016-05-28T08:40:06Z</time>
      </trkpt>
      <trkpt lat="40.584047" lon="0.044821">
        <ele>903.856</ele>
        <time>2016-05-28T08:40:08Z</time>
      </trkpt>
      <trkpt lat="40.584230" lon="0.044925">
        <ele>902.694</ele>
        <time>2016-05-28T08:40:11Z</time>
      </trkpt>
      <trkpt lat="40.584286" lon="0.044962">
        <ele>902.677</ele>
        <time>2016-05-28T08:40:12Z</time>
      </trkpt>
      <trkpt lat="40.584342" lon="0.044997">
        <ele>902.614</ele>
        <time>2016-05-28T08:40:13Z</time>
      </trkpt>
      <trkpt lat="40.584398" lon="0.045028">
        <ele>902.494</ele>
        <time>2016-05-28T08:40:14Z</time>
      </trkpt>
      <trkpt lat="40.584558" lon="0.045094">
        <ele>902.417</ele>
        <time>2016-05-28T08:40:17Z</time>
      </trkpt>
      <trkpt lat="40.584647" lon="0.045143">
        <ele>902.087</ele>
        <time>2016-05-28T08:40:19Z</time>
      </trkpt>
      <trkpt lat="40.584687" lon="0.045154">
        <ele>902.015</ele>
        <time>2016-05-28T08:40:20Z</time>
      </trkpt>
      <trkpt lat="40.584715" lon="0.045142">
        <ele>902.008</ele>
        <time>2016-05-28T08:40:21Z</time>
      </trkpt>
      <trkpt lat="40.584758" lon="0.045043">
        <ele>901.864</ele>
        <time>2016-05-28T08:40:24Z</time>
      </trkpt>
      <trkpt lat="40.584782" lon="0.044862">
        <ele>901.851</ele>
        <time>2016-05-28T08:40:28Z</time>
      </trkpt>
      <trkpt lat="40.584790" lon="0.044800">
        <ele>901.845</ele>
        <time>2016-05-28T08:40:29Z</time>
      </trkpt>
      <trkpt lat="40.584802" lon="0.044735">
        <ele>901.213</ele>
        <time>2016-05-28T08:40:30Z</time>
      </trkpt>
      <trkpt lat="40.584827" lon="0.044608">
        <ele>899.831</ele>
        <time>2016-05-28T08:40:32Z</time>
      </trkpt>
      <trkpt lat="40.584859" lon="0.044489">
        <ele>899.464</ele>
        <time>2016-05-28T08:40:34Z</time>
      </trkpt>
      <trkpt lat="40.584902" lon="0.044387">
        <ele>899.491</ele>
        <time>2016-05-28T08:40:36Z</time>
      </trkpt>
      <trkpt lat="40.584987" lon="0.044196">
        <ele>899.461</ele>
        <time>2016-05-28T08:40:40Z</time>
      </trkpt>
      <trkpt lat="40.585048" lon="0.044047">
        <ele>900.235</ele>
        <time>2016-05-28T08:40:44Z</time>
      </trkpt>
      <trkpt lat="40.585057" lon="0.044014">
        <ele>900.686</ele>
        <time>2016-05-28T08:40:45Z</time>
      </trkpt>
      <trkpt lat="40.585069" lon="0.043952">
        <ele>901.214</ele>
        <time>2016-05-28T08:40:47Z</time>
      </trkpt>
      <trkpt lat="40.585099" lon="0.043818">
        <ele>902.408</ele>
        <time>2016-05-28T08:40:51Z</time>
      </trkpt>
      <trkpt lat="40.585111" lon="0.043781">
        <ele>902.816</ele>
        <time>2016-05-28T08:40:52Z</time>
      </trkpt>
      <trkpt lat="40.585125" lon="0.043746">
        <ele>903.073</ele>
        <time>2016-05-28T08:40:53Z</time>
      </trkpt>
      <trkpt lat="40.585142" lon="0.043712">
        <ele>903.037</ele>
        <time>2016-05-28T08:40:54Z</time>
      </trkpt>
      <trkpt lat="40.585181" lon="0.043600">
        <ele>903.235</ele>
        <time>2016-05-28T08:40:57Z</time>
      </trkpt>
      <trkpt lat="40.585208" lon="0.043524">
        <ele>903.223</ele>
        <time>2016-05-28T08:40:59Z</time>
      </trkpt>
      <trkpt lat="40.585250" lon="0.043411">
        <ele>903.426</ele>
        <time>2016-05-28T08:41:02Z</time>
      </trkpt>
      <trkpt lat="40.585261" lon="0.043370">
        <ele>903.433</ele>
        <time>2016-05-28T08:41:03Z</time>
      </trkpt>
      <trkpt lat="40.585315" lon="0.043219">
        <ele>903.813</ele>
        <time>2016-05-28T08:41:07Z</time>
      </trkpt>
      <trkpt lat="40.585386" lon="0.043040">
        <ele>904.666</ele>
        <time>2016-05-28T08:41:12Z</time>
      </trkpt>
      <trkpt lat="40.585454" lon="0.042868">
        <ele>905.229</ele>
        <time>2016-05-28T08:41:17Z</time>
      </trkpt>
      <trkpt lat="40.585516" lon="0.042686">
        <ele>905.621</ele>
        <time>2016-05-28T08:41:22Z</time>
      </trkpt>
      <trkpt lat="40.585520" lon="0.042653">
        <ele>905.808</ele>
        <time>2016-05-28T08:41:23Z</time>
      </trkpt>
      <trkpt lat="40.585536" lon="0.042536">
        <ele>906.039</ele>
        <time>2016-05-28T08:41:26Z</time>
      </trkpt>
      <trkpt lat="40.585560" lon="0.042182">
        <ele>906.686</ele>
        <time>2016-05-28T08:41:35Z</time>
      </trkpt>
      <trkpt lat="40.585537" lon="0.041967">
        <ele>907.010</ele>
        <time>2016-05-28T08:41:40Z</time>
      </trkpt>
      <trkpt lat="40.585527" lon="0.041876">
        <ele>906.878</ele>
        <time>2016-05-28T08:41:42Z</time>
      </trkpt>
      <trkpt lat="40.585487" lon="0.041611">
        <ele>906.896</ele>
        <time>2016-05-28T08:41:48Z</time>
      </trkpt>
      <trkpt lat="40.585408" lon="0.041274">
        <ele>905.839</ele>
        <time>2016-05-28T08:41:55Z</time>
      </trkpt>
      <trkpt lat="40.585298" lon="0.041042">
        <ele>905.866</ele>
        <time>2016-05-28T08:42:00Z</time>
      </trkpt>
      <trkpt lat="40.585277" lon="0.040993">
        <ele>905.856</ele>
        <time>2016-05-28T08:42:01Z</time>
      </trkpt>
      <trkpt lat="40.585168" lon="0.040772">
        <ele>906.411</ele>
        <time>2016-05-28T08:42:06Z</time>
      </trkpt>
      <trkpt lat="40.585135" lon="0.040680">
        <ele>906.221</ele>
        <time>2016-05-28T08:42:08Z</time>
      </trkpt>
      <trkpt lat="40.585083" lon="0.040527">
        <ele>906.203</ele>
        <time>2016-05-28T08:42:12Z</time>
      </trkpt>
      <trkpt lat="40.585078" lon="0.040489">
        <ele>906.008</ele>
        <time>2016-05-28T08:42:14Z</time>
      </trkpt>
      <trkpt lat="40.585045" lon="0.040345">
        <ele>905.854</ele>
        <time>2016-05-28T08:44:48Z</time>
      </trkpt>
      <trkpt lat="40.585039" lon="0.040318">
        <ele>905.881</ele>
        <time>2016-05-28T08:44:49Z</time>
      </trkpt>
      <trkpt lat="40.585032" lon="0.040284">
        <ele>906.015</ele>
        <time>2016-05-28T08:44:50Z</time>
      </trkpt>
      <trkpt lat="40.585023" lon="0.040250">
        <ele>906.023</ele>
        <time>2016-05-28T08:44:51Z</time>
      </trkpt>
      <trkpt lat="40.584987" lon="0.040134">
        <ele>905.411</ele>
        <time>2016-05-28T08:44:54Z</time>
      </trkpt>
      <trkpt lat="40.584977" lon="0.040096">
        <ele>905.294</ele>
        <time>2016-05-28T08:44:55Z</time>
      </trkpt>
      <trkpt lat="40.584960" lon="0.040009">
        <ele>904.891</ele>
        <time>2016-05-28T08:44:57Z</time>
      </trkpt>
      <trkpt lat="40.584926" lon="0.039863">
        <ele>904.411</ele>
        <time>2016-05-28T08:45:00Z</time>
      </trkpt>
      <trkpt lat="40.584887" lon="0.039763">
        <ele>903.881</ele>
        <time>2016-05-28T08:45:02Z</time>
      </trkpt>
      <trkpt lat="40.584863" lon="0.039718">
        <ele>903.661</ele>
        <time>2016-05-28T08:45:03Z</time>
      </trkpt>
      <trkpt lat="40.584816" lon="0.039631">
        <ele>903.417</ele>
        <time>2016-05-28T08:45:05Z</time>
      </trkpt>
      <trkpt lat="40.584793" lon="0.039585">
        <ele>903.208</ele>
        <time>2016-05-28T08:45:06Z</time>
      </trkpt>
      <trkpt lat="40.584769" lon="0.039539">
        <ele>903.291</ele>
        <time>2016-05-28T08:45:07Z</time>
      </trkpt>
      <trkpt lat="40.584750" lon="0.039496">
        <ele>903.478</ele>
        <time>2016-05-28T08:45:08Z</time>
      </trkpt>
      <trkpt lat="40.584732" lon="0.039454">
        <ele>903.232</ele>
        <time>2016-05-28T08:45:09Z</time>
      </trkpt>
      <trkpt lat="40.584711" lon="0.039409">
        <ele>903.490</ele>
        <time>2016-05-28T08:45:10Z</time>
      </trkpt>
      <trkpt lat="40.584672" lon="0.039325">
        <ele>903.628</ele>
        <time>2016-05-28T08:45:12Z</time>
      </trkpt>
      <trkpt lat="40.584654" lon="0.039281">
        <ele>903.441</ele>
        <time>2016-05-28T08:45:13Z</time>
      </trkpt>
      <trkpt lat="40.584639" lon="0.039238">
        <ele>903.488</ele>
        <time>2016-05-28T08:45:14Z</time>
      </trkpt>
      <trkpt lat="40.584615" lon="0.039095">
        <ele>903.678</ele>
        <time>2016-05-28T08:45:17Z</time>
      </trkpt>
      <trkpt lat="40.584604" lon="0.039047">
        <ele>903.468</ele>
        <time>2016-05-28T08:45:18Z</time>
      </trkpt>
      <trkpt lat="40.584591" lon="0.039007">
        <ele>903.642</ele>
        <time>2016-05-28T08:45:19Z</time>
      </trkpt>
      <trkpt lat="40.584558" lon="0.038956">
        <ele>903.226</ele>
        <time>2016-05-28T08:45:21Z</time>
      </trkpt>
      <trkpt lat="40.584543" lon="0.038941">
        <ele>903.208</ele>
        <time>2016-05-28T08:45:22Z</time>
      </trkpt>
      <trkpt lat="40.584531" lon="0.038931">
        <ele>903.019</ele>
        <time>2016-05-28T08:45:23Z</time>
      </trkpt>
      <trkpt lat="40.584523" lon="0.038925">
        <ele>902.856</ele>
        <time>2016-05-28T08:45:24Z</time>
      </trkpt>
      <trkpt lat="40.584519" lon="0.038915">
        <ele>902.660</ele>
        <time>2016-05-28T08:45:25Z</time>
      </trkpt>
      <trkpt lat="40.584496" lon="0.038892">
        <ele>901.818</ele>
        <time>2016-05-28T08:46:08Z</time>
      </trkpt>
      <trkpt lat="40.584473" lon="0.038875">
        <ele>901.816</ele>
        <time>2016-05-28T08:46:09Z</time>
      </trkpt>
      <trkpt lat="40.584441" lon="0.038856">
        <ele>901.699</ele>
        <time>2016-05-28T08:46:10Z</time>
      </trkpt>
      <trkpt lat="40.584412" lon="0.038837">
        <ele>901.236</ele>
        <time>2016-05-28T08:46:11Z</time>
      </trkpt>
      <trkpt lat="40.584354" lon="0.038752">
        <ele>900.286</ele>
        <time>2016-05-28T08:46:14Z</time>
      </trkpt>
      <trkpt lat="40.584347" lon="0.038711">
        <ele>899.814</ele>
        <time>2016-05-28T08:46:15Z</time>
      </trkpt>
      <trkpt lat="40.584382" lon="0.038568">
        <ele>899.854</ele>
        <time>2016-05-28T08:46:19Z</time>
      </trkpt>
      <trkpt lat="40.584418" lon="0.038509">
        <ele>900.009</ele>
        <time>2016-05-28T08:46:21Z</time>
      </trkpt>
      <trkpt lat="40.584469" lon="0.038409">
        <ele>900.208</ele>
        <time>2016-05-28T08:46:24Z</time>
      </trkpt>
      <trkpt lat="40.584479" lon="0.038298">
        <ele>900.014</ele>
        <time>2016-05-28T08:46:27Z</time>
      </trkpt>
      <trkpt lat="40.584471" lon="0.038216">
        <ele>899.641</ele>
        <time>2016-05-28T08:46:29Z</time>
      </trkpt>
      <trkpt lat="40.584499" lon="0.038146">
        <ele>899.295</ele>
        <time>2016-05-28T08:46:31Z</time>
      </trkpt>
      <trkpt lat="40.584512" lon="0.038139">
        <ele>899.213</ele>
        <time>2016-05-28T08:46:32Z</time>
      </trkpt>
      <trkpt lat="40.584522" lon="0.038133">
        <ele>899.421</ele>
        <time>2016-05-28T08:46:33Z</time>
      </trkpt>
      <trkpt lat="40.584528" lon="0.038125">
        <ele>899.664</ele>
        <time>2016-05-28T08:46:34Z</time>
      </trkpt>
      <trkpt lat="40.584647" lon="0.038145">
        <ele>901.881</ele>
        <time>2016-05-28T08:47:16Z</time>
      </trkpt>
      <trkpt lat="40.584666" lon="0.038147">
        <ele>902.271</ele>
        <time>2016-05-28T08:47:17Z</time>
      </trkpt>
      <trkpt lat="40.584702" lon="0.038156">
        <ele>902.685</ele>
        <time>2016-05-28T08:47:19Z</time>
      </trkpt>
      <trkpt lat="40.584738" lon="0.038164">
        <ele>903.089</ele>
        <time>2016-05-28T08:47:21Z</time>
      </trkpt>
      <trkpt lat="40.584759" lon="0.038166">
        <ele>903.417</ele>
        <time>2016-05-28T08:47:22Z</time>
      </trkpt>
      <trkpt lat="40.584796" lon="0.038169">
        <ele>904.208</ele>
        <time>2016-05-28T08:47:24Z</time>
      </trkpt>
      <trkpt lat="40.584829" lon="0.038174">
        <ele>904.811</ele>
        <time>2016-05-28T08:47:26Z</time>
      </trkpt>
      <trkpt lat="40.584863" lon="0.038179">
        <ele>905.298</ele>
        <time>2016-05-28T08:47:28Z</time>
      </trkpt>
      <trkpt lat="40.584920" lon="0.038194">
        <ele>906.212</ele>
        <time>2016-05-28T08:47:32Z</time>
      </trkpt>
      <trkpt lat="40.584936" lon="0.038201">
        <ele>906.430</ele>
        <time>2016-05-28T08:47:33Z</time>
      </trkpt>
      <trkpt lat="40.584987" lon="0.038212">
        <ele>907.228</ele>
        <time>2016-05-28T08:47:36Z</time>
      </trkpt>
      <trkpt lat="40.585004" lon="0.038216">
        <ele>907.291</ele>
        <time>2016-05-28T08:47:37Z</time>
      </trkpt>
      <trkpt lat="40.585033" lon="0.038226">
        <ele>907.658</ele>
        <time>2016-05-28T08:47:39Z</time>
      </trkpt>
      <trkpt lat="40.585118" lon="0.038224">
        <ele>908.658</ele>
        <time>2016-05-28T08:47:44Z</time>
      </trkpt>
      <trkpt lat="40.585169" lon="0.038242">
        <ele>909.246</ele>
        <time>2016-05-28T08:47:48Z</time>
      </trkpt>
      <trkpt lat="40.585199" lon="0.038252">
        <ele>909.488</ele>
        <time>2016-05-28T08:47:50Z</time>
      </trkpt>
      <trkpt lat="40.585215" lon="0.038257">
        <ele>909.816</ele>
        <time>2016-05-28T08:47:51Z</time>
      </trkpt>
      <trkpt lat="40.585231" lon="0.038262">
        <ele>910.008</ele>
        <time>2016-05-28T08:47:52Z</time>
      </trkpt>
      <trkpt lat="40.585309" lon="0.038280">
        <ele>910.427</ele>
        <time>2016-05-28T08:47:56Z</time>
      </trkpt>
      <trkpt lat="40.585348" lon="0.038288">
        <ele>910.884</ele>
        <time>2016-05-28T08:47:58Z</time>
      </trkpt>
      <trkpt lat="40.585424" lon="0.038302">
        <ele>911.228</ele>
        <time>2016-05-28T08:48:03Z</time>
      </trkpt>
      <trkpt lat="40.585440" lon="0.038307">
        <ele>911.426</ele>
        <time>2016-05-28T08:48:04Z</time>
      </trkpt>
      <trkpt lat="40.585474" lon="0.038312">
        <ele>911.894</ele>
        <time>2016-05-28T08:48:06Z</time>
      </trkpt>
      <trkpt lat="40.585544" lon="0.038324">
        <ele>912.877</ele>
        <time>2016-05-28T08:48:10Z</time>
      </trkpt>
      <trkpt lat="40.585634" lon="0.038332">
        <ele>914.064</ele>
        <time>2016-05-28T08:48:16Z</time>
      </trkpt>
      <trkpt lat="40.585731" lon="0.038344">
        <ele>914.654</ele>
        <time>2016-05-28T08:48:21Z</time>
      </trkpt>
      <trkpt lat="40.585815" lon="0.038364">
        <ele>915.051</ele>
        <time>2016-05-28T08:48:25Z</time>
      </trkpt>
      <trkpt lat="40.585850" lon="0.038369">
        <ele>915.401</ele>
        <time>2016-05-28T08:48:27Z</time>
      </trkpt>
      <trkpt lat="40.585937" lon="0.038361">
        <ele>916.211</ele>
        <time>2016-05-28T08:48:32Z</time>
      </trkpt>
      <trkpt lat="40.585958" lon="0.038362">
        <ele>916.608</ele>
        <time>2016-05-28T08:48:33Z</time>
      </trkpt>
      <trkpt lat="40.585978" lon="0.038362">
        <ele>916.888</ele>
        <time>2016-05-28T08:48:34Z</time>
      </trkpt>
      <trkpt lat="40.585994" lon="0.038364">
        <ele>917.055</ele>
        <time>2016-05-28T08:48:35Z</time>
      </trkpt>
      <trkpt lat="40.586009" lon="0.038369">
        <ele>917.439</ele>
        <time>2016-05-28T08:48:36Z</time>
      </trkpt>
      <trkpt lat="40.586046" lon="0.038371">
        <ele>917.697</ele>
        <time>2016-05-28T08:48:38Z</time>
      </trkpt>
      <trkpt lat="40.586065" lon="0.038373">
        <ele>917.645</ele>
        <time>2016-05-28T08:48:39Z</time>
      </trkpt>
      <trkpt lat="40.586127" lon="0.038398">
        <ele>918.058</ele>
        <time>2016-05-28T08:48:42Z</time>
      </trkpt>
      <trkpt lat="40.586184" lon="0.038413">
        <ele>918.615</ele>
        <time>2016-05-28T08:48:45Z</time>
      </trkpt>
      <trkpt lat="40.586198" lon="0.038417">
        <ele>918.625</ele>
        <time>2016-05-28T08:48:46Z</time>
      </trkpt>
      <trkpt lat="40.586275" lon="0.038428">
        <ele>919.411</ele>
        <time>2016-05-28T08:48:51Z</time>
      </trkpt>
      <trkpt lat="40.586283" lon="0.038436">
        <ele>919.621</ele>
        <time>2016-05-28T08:48:52Z</time>
      </trkpt>
      <trkpt lat="40.586334" lon="0.038463">
        <ele>920.603</ele>
        <time>2016-05-28T08:48:56Z</time>
      </trkpt>
      <trkpt lat="40.586348" lon="0.038474">
        <ele>920.808</ele>
        <time>2016-05-28T08:48:57Z</time>
      </trkpt>
      <trkpt lat="40.586427" lon="0.038591">
        <ele>923.264</ele>
        <time>2016-05-28T08:50:22Z</time>
      </trkpt>
      <trkpt lat="40.586440" lon="0.038629">
        <ele>923.821</ele>
        <time>2016-05-28T08:50:24Z</time>
      </trkpt>
      <trkpt lat="40.586479" lon="0.038666">
        <ele>923.895</ele>
        <time>2016-05-28T08:50:27Z</time>
      </trkpt>
      <trkpt lat="40.586510" lon="0.038684">
        <ele>924.233</ele>
        <time>2016-05-28T08:50:29Z</time>
      </trkpt>
      <trkpt lat="40.586527" lon="0.038689">
        <ele>924.621</ele>
        <time>2016-05-28T08:50:30Z</time>
      </trkpt>
      <trkpt lat="40.586578" lon="0.038704">
        <ele>925.874</ele>
        <time>2016-05-28T08:50:33Z</time>
      </trkpt>
      <trkpt lat="40.586628" lon="0.038704">
        <ele>926.461</ele>
        <time>2016-05-28T08:50:36Z</time>
      </trkpt>
      <trkpt lat="40.586666" lon="0.038708">
        <ele>926.871</ele>
        <time>2016-05-28T08:50:38Z</time>
      </trkpt>
      <trkpt lat="40.586686" lon="0.038706">
        <ele>927.295</ele>
        <time>2016-05-28T08:50:39Z</time>
      </trkpt>
      <trkpt lat="40.586741" lon="0.038693">
        <ele>928.049</ele>
        <time>2016-05-28T08:50:42Z</time>
      </trkpt>
      <trkpt lat="40.586759" lon="0.038682">
        <ele>928.023</ele>
        <time>2016-05-28T08:50:43Z</time>
      </trkpt>
      <trkpt lat="40.586815" lon="0.038634">
        <ele>928.808</ele>
        <time>2016-05-28T08:50:47Z</time>
      </trkpt>
      <trkpt lat="40.586822" lon="0.038626">
        <ele>929.052</ele>
        <time>2016-05-28T08:50:48Z</time>
      </trkpt>
      <trkpt lat="40.586829" lon="0.038616">
        <ele>929.299</ele>
        <time>2016-05-28T08:50:49Z</time>
      </trkpt>
      <trkpt lat="40.586861" lon="0.038553">
        <ele>928.663</ele>
        <time>2016-05-28T08:51:00Z</time>
      </trkpt>
      <trkpt lat="40.586887" lon="0.038511">
        <ele>928.681</ele>
        <time>2016-05-28T08:51:01Z</time>
      </trkpt>
      <trkpt lat="40.586925" lon="0.038462">
        <ele>928.299</ele>
        <time>2016-05-28T08:51:04Z</time>
      </trkpt>
      <trkpt lat="40.586942" lon="0.038431">
        <ele>927.692</ele>
        <time>2016-05-28T08:51:05Z</time>
      </trkpt>
      <trkpt lat="40.586971" lon="0.038354">
        <ele>927.219</ele>
        <time>2016-05-28T08:51:07Z</time>
      </trkpt>
      <trkpt lat="40.586986" lon="0.038317">
        <ele>926.849</ele>
        <time>2016-05-28T08:51:08Z</time>
      </trkpt>
      <trkpt lat="40.587002" lon="0.038284">
        <ele>926.669</ele>
        <time>2016-05-28T08:51:09Z</time>
      </trkpt>
      <trkpt lat="40.587021" lon="0.038270">
        <ele>926.004</ele>
        <time>2016-05-28T08:51:10Z</time>
      </trkpt>
      <trkpt lat="40.587041" lon="0.038275">
        <ele>926.024</ele>
        <time>2016-05-28T08:51:11Z</time>
      </trkpt>
      <trkpt lat="40.587053" lon="0.038295">
        <ele>925.608</ele>
        <time>2016-05-28T08:51:12Z</time>
      </trkpt>
      <trkpt lat="40.587052" lon="0.038328">
        <ele>925.459</ele>
        <time>2016-05-28T08:51:13Z</time>
      </trkpt>
      <trkpt lat="40.587050" lon="0.038366">
        <ele>925.276</ele>
        <time>2016-05-28T08:51:14Z</time>
      </trkpt>
      <trkpt lat="40.587055" lon="0.038458">
        <ele>924.820</ele>
        <time>2016-05-28T08:51:16Z</time>
      </trkpt>
      <trkpt lat="40.587067" lon="0.038573">
        <ele>924.498</ele>
        <time>2016-05-28T08:51:18Z</time>
      </trkpt>
      <trkpt lat="40.587086" lon="0.038635">
        <ele>924.066</ele>
        <time>2016-05-28T08:51:19Z</time>
      </trkpt>
      <trkpt lat="40.587111" lon="0.038701">
        <ele>923.479</ele>
        <time>2016-05-28T08:51:20Z</time>
      </trkpt>
      <trkpt lat="40.587138" lon="0.038770">
        <ele>923.256</ele>
        <time>2016-05-28T08:51:21Z</time>
      </trkpt>
      <trkpt lat="40.587176" lon="0.038838">
        <ele>922.676</ele>
        <time>2016-05-28T08:51:22Z</time>
      </trkpt>
      <trkpt lat="40.587222" lon="0.038901">
        <ele>922.443</ele>
        <time>2016-05-28T08:51:23Z</time>
      </trkpt>
      <trkpt lat="40.587273" lon="0.038965">
        <ele>921.864</ele>
        <time>2016-05-28T08:51:24Z</time>
      </trkpt>
      <trkpt lat="40.587386" lon="0.039098">
        <ele>920.810</ele>
        <time>2016-05-28T08:51:26Z</time>
      </trkpt>
      <trkpt lat="40.587448" lon="0.039166">
        <ele>920.008</ele>
        <time>2016-05-28T08:51:27Z</time>
      </trkpt>
      <trkpt lat="40.587514" lon="0.039236">
        <ele>919.427</ele>
        <time>2016-05-28T08:51:28Z</time>
      </trkpt>
      <trkpt lat="40.587583" lon="0.039308">
        <ele>918.894</ele>
        <time>2016-05-28T08:51:29Z</time>
      </trkpt>
      <trkpt lat="40.587654" lon="0.039381">
        <ele>918.278</ele>
        <time>2016-05-28T08:51:30Z</time>
      </trkpt>
      <trkpt lat="40.587723" lon="0.039452">
        <ele>917.026</ele>
        <time>2016-05-28T08:51:31Z</time>
      </trkpt>
      <trkpt lat="40.587790" lon="0.039530">
        <ele>916.414</ele>
        <time>2016-05-28T08:51:32Z</time>
      </trkpt>
      <trkpt lat="40.587855" lon="0.039614">
        <ele>916.257</ele>
        <time>2016-05-28T08:51:33Z</time>
      </trkpt>
      <trkpt lat="40.587919" lon="0.039705">
        <ele>915.644</ele>
        <time>2016-05-28T08:51:34Z</time>
      </trkpt>
      <trkpt lat="40.587978" lon="0.039803">
        <ele>915.244</ele>
        <time>2016-05-28T08:51:35Z</time>
      </trkpt>
      <trkpt lat="40.588033" lon="0.039909">
        <ele>914.641</ele>
        <time>2016-05-28T08:51:36Z</time>
      </trkpt>
      <trkpt lat="40.588136" lon="0.040120">
        <ele>913.281</ele>
        <time>2016-05-28T08:51:38Z</time>
      </trkpt>
      <trkpt lat="40.588191" lon="0.040206">
        <ele>912.209</ele>
        <time>2016-05-28T08:51:39Z</time>
      </trkpt>
      <trkpt lat="40.588262" lon="0.040263">
        <ele>911.408</ele>
        <time>2016-05-28T08:51:40Z</time>
      </trkpt>
      <trkpt lat="40.588342" lon="0.040274">
        <ele>910.657</ele>
        <time>2016-05-28T08:51:41Z</time>
      </trkpt>
      <trkpt lat="40.588418" lon="0.040238">
        <ele>909.844</ele>
        <time>2016-05-28T08:51:42Z</time>
      </trkpt>
      <trkpt lat="40.588476" lon="0.040160">
        <ele>908.848</ele>
        <time>2016-05-28T08:51:43Z</time>
      </trkpt>
      <trkpt lat="40.588497" lon="0.040054">
        <ele>908.416</ele>
        <time>2016-05-28T08:51:44Z</time>
      </trkpt>
      <trkpt lat="40.588487" lon="0.039941">
        <ele>907.834</ele>
        <time>2016-05-28T08:51:45Z</time>
      </trkpt>
      <trkpt lat="40.588462" lon="0.039830">
        <ele>907.247</ele>
        <time>2016-05-28T08:51:46Z</time>
      </trkpt>
      <trkpt lat="40.588430" lon="0.039720">
        <ele>906.654</ele>
        <time>2016-05-28T08:51:47Z</time>
      </trkpt>
      <trkpt lat="40.588362" lon="0.039497">
        <ele>906.014</ele>
        <time>2016-05-28T08:51:49Z</time>
      </trkpt>
      <trkpt lat="40.588327" lon="0.039383">
        <ele>905.633</ele>
        <time>2016-05-28T08:51:50Z</time>
      </trkpt>
      <trkpt lat="40.588260" lon="0.039152">
        <ele>904.623</ele>
        <time>2016-05-28T08:51:52Z</time>
      </trkpt>
      <trkpt lat="40.588219" lon="0.039043">
        <ele>904.215</ele>
        <time>2016-05-28T08:51:53Z</time>
      </trkpt>
      <trkpt lat="40.588168" lon="0.038938">
        <ele>903.808</ele>
        <time>2016-05-28T08:51:54Z</time>
      </trkpt>
      <trkpt lat="40.588112" lon="0.038836">
        <ele>903.246</ele>
        <time>2016-05-28T08:51:55Z</time>
      </trkpt>
      <trkpt lat="40.588058" lon="0.038729">
        <ele>901.863</ele>
        <time>2016-05-28T08:51:56Z</time>
      </trkpt>
      <trkpt lat="40.588013" lon="0.038609">
        <ele>901.237</ele>
        <time>2016-05-28T08:51:57Z</time>
      </trkpt>
      <trkpt lat="40.587981" lon="0.038484">
        <ele>900.685</ele>
        <time>2016-05-28T08:51:58Z</time>
      </trkpt>
      <trkpt lat="40.587972" lon="0.038218">
        <ele>899.223</ele>
        <time>2016-05-28T08:52:00Z</time>
      </trkpt>
      <trkpt lat="40.587989" lon="0.038084">
        <ele>898.846</ele>
        <time>2016-05-28T08:52:01Z</time>
      </trkpt>
      <trkpt lat="40.588013" lon="0.037954">
        <ele>898.233</ele>
        <time>2016-05-28T08:52:02Z</time>
      </trkpt>
      <trkpt lat="40.588041" lon="0.037825">
        <ele>897.463</ele>
        <time>2016-05-28T08:52:03Z</time>
      </trkpt>
      <trkpt lat="40.588069" lon="0.037696">
        <ele>896.832</ele>
        <time>2016-05-28T08:52:04Z</time>
      </trkpt>
      <trkpt lat="40.588125" lon="0.037440">
        <ele>896.092</ele>
        <time>2016-05-28T08:52:06Z</time>
      </trkpt>
      <trkpt lat="40.588154" lon="0.037311">
        <ele>895.411</ele>
        <time>2016-05-28T08:52:07Z</time>
      </trkpt>
      <trkpt lat="40.588182" lon="0.037179">
        <ele>894.608</ele>
        <time>2016-05-28T08:52:08Z</time>
      </trkpt>
      <trkpt lat="40.588209" lon="0.037045">
        <ele>894.066</ele>
        <time>2016-05-28T08:52:09Z</time>
      </trkpt>
      <trkpt lat="40.588270" lon="0.036770">
        <ele>892.833</ele>
        <time>2016-05-28T08:52:11Z</time>
      </trkpt>
      <trkpt lat="40.588338" lon="0.036486">
        <ele>891.487</ele>
        <time>2016-05-28T08:52:13Z</time>
      </trkpt>
      <trkpt lat="40.588377" lon="0.036343">
        <ele>891.045</ele>
        <time>2016-05-28T08:52:14Z</time>
      </trkpt>
      <trkpt lat="40.588428" lon="0.036205">
        <ele>890.013</ele>
        <time>2016-05-28T08:52:15Z</time>
      </trkpt>
      <trkpt lat="40.588497" lon="0.036079">
        <ele>889.236</ele>
        <time>2016-05-28T08:52:16Z</time>
      </trkpt>
      <trkpt lat="40.588582" lon="0.035971">
        <ele>888.253</ele>
        <time>2016-05-28T08:52:17Z</time>
      </trkpt>
      <trkpt lat="40.588680" lon="0.035878">
        <ele>887.683</ele>
        <time>2016-05-28T08:52:18Z</time>
      </trkpt>
      <trkpt lat="40.588784" lon="0.035794">
        <ele>886.887</ele>
        <time>2016-05-28T08:52:19Z</time>
      </trkpt>
      <trkpt lat="40.588890" lon="0.035708">
        <ele>886.042</ele>
        <time>2016-05-28T08:52:20Z</time>
      </trkpt>
      <trkpt lat="40.588990" lon="0.035608">
        <ele>884.826</ele>
        <time>2016-05-28T08:52:21Z</time>
      </trkpt>
      <trkpt lat="40.589082" lon="0.035496">
        <ele>883.808</ele>
        <time>2016-05-28T08:52:22Z</time>
      </trkpt>
      <trkpt lat="40.589165" lon="0.035375">
        <ele>881.411</ele>
        <time>2016-05-28T08:52:23Z</time>
      </trkpt>
      <trkpt lat="40.589329" lon="0.035134">
        <ele>880.048</ele>
        <time>2016-05-28T08:52:25Z</time>
      </trkpt>
      <trkpt lat="40.589419" lon="0.035032">
        <ele>879.262</ele>
        <time>2016-05-28T08:52:26Z</time>
      </trkpt>
      <trkpt lat="40.589519" lon="0.034948">
        <ele>878.610</ele>
        <time>2016-05-28T08:52:27Z</time>
      </trkpt>
      <trkpt lat="40.589625" lon="0.034884">
        <ele>878.018</ele>
        <time>2016-05-28T08:52:28Z</time>
      </trkpt>
      <trkpt lat="40.589733" lon="0.034835">
        <ele>877.611</ele>
        <time>2016-05-28T08:52:29Z</time>
      </trkpt>
      <trkpt lat="40.589839" lon="0.034787">
        <ele>877.238</ele>
        <time>2016-05-28T08:52:30Z</time>
      </trkpt>
      <trkpt lat="40.590236" lon="0.034607">
        <ele>876.638</ele>
        <time>2016-05-28T08:52:34Z</time>
      </trkpt>
      <trkpt lat="40.590332" lon="0.034562">
        <ele>876.455</ele>
        <time>2016-05-28T08:52:35Z</time>
      </trkpt>
      <trkpt lat="40.590617" lon="0.034427">
        <ele>875.407</ele>
        <time>2016-05-28T08:52:38Z</time>
      </trkpt>
      <trkpt lat="40.590888" lon="0.034284">
        <ele>874.817</ele>
        <time>2016-05-28T08:52:41Z</time>
      </trkpt>
      <trkpt lat="40.590965" lon="0.034209">
        <ele>874.808</ele>
        <time>2016-05-28T08:52:42Z</time>
      </trkpt>
      <trkpt lat="40.591051" lon="0.033993">
        <ele>873.848</ele>
        <time>2016-05-28T08:52:44Z</time>
      </trkpt>
      <trkpt lat="40.591037" lon="0.033746">
        <ele>872.685</ele>
        <time>2016-05-28T08:52:46Z</time>
      </trkpt>
      <trkpt lat="40.591009" lon="0.033627">
        <ele>872.229</ele>
        <time>2016-05-28T08:52:47Z</time>
      </trkpt>
      <trkpt lat="40.590977" lon="0.033509">
        <ele>871.037</ele>
        <time>2016-05-28T08:52:48Z</time>
      </trkpt>
      <trkpt lat="40.590941" lon="0.033389">
        <ele>870.495</ele>
        <time>2016-05-28T08:52:49Z</time>
      </trkpt>
      <trkpt lat="40.590904" lon="0.033269">
        <ele>869.848</ele>
        <time>2016-05-28T08:52:50Z</time>
      </trkpt>
      <trkpt lat="40.590866" lon="0.033148">
        <ele>869.225</ele>
        <time>2016-05-28T08:52:51Z</time>
      </trkpt>
      <trkpt lat="40.590828" lon="0.033027">
        <ele>868.465</ele>
        <time>2016-05-28T08:52:52Z</time>
      </trkpt>
      <trkpt lat="40.590718" lon="0.032642">
        <ele>867.037</ele>
        <time>2016-05-28T08:52:55Z</time>
      </trkpt>
      <trkpt lat="40.590696" lon="0.032503">
        <ele>866.449</ele>
        <time>2016-05-28T08:52:56Z</time>
      </trkpt>
      <trkpt lat="40.590681" lon="0.032264">
        <ele>865.213</ele>
        <time>2016-05-28T08:52:57Z</time>
      </trkpt>
      <trkpt lat="40.590678" lon="0.032062">
        <ele>864.208</ele>
        <time>2016-05-28T08:52:59Z</time>
      </trkpt>
      <trkpt lat="40.590660" lon="0.031914">
        <ele>863.456</ele>
        <time>2016-05-28T08:53:00Z</time>
      </trkpt>
      <trkpt lat="40.590616" lon="0.031775">
        <ele>862.423</ele>
        <time>2016-05-28T08:53:01Z</time>
      </trkpt>
      <trkpt lat="40.590548" lon="0.031651">
        <ele>861.617</ele>
        <time>2016-05-28T08:53:02Z</time>
      </trkpt>
      <trkpt lat="40.590462" lon="0.031542">
        <ele>860.825</ele>
        <time>2016-05-28T08:53:03Z</time>
      </trkpt>
      <trkpt lat="40.590345" lon="0.031424">
        <ele>859.823</ele>
        <time>2016-05-28T08:53:04Z</time>
      </trkpt>
      <trkpt lat="40.590267" lon="0.031356">
        <ele>858.626</ele>
        <time>2016-05-28T08:53:05Z</time>
      </trkpt>
      <trkpt lat="40.590166" lon="0.031271">
        <ele>857.633</ele>
        <time>2016-05-28T08:53:06Z</time>
      </trkpt>
      <trkpt lat="40.589961" lon="0.031096">
        <ele>856.073</ele>
        <time>2016-05-28T08:53:08Z</time>
      </trkpt>
      <trkpt lat="40.589748" lon="0.030925">
        <ele>854.478</ele>
        <time>2016-05-28T08:53:10Z</time>
      </trkpt>
      <trkpt lat="40.589640" lon="0.030841">
        <ele>854.033</ele>
        <time>2016-05-28T08:53:11Z</time>
      </trkpt>
      <trkpt lat="40.589533" lon="0.030755">
        <ele>853.426</ele>
        <time>2016-05-28T08:53:12Z</time>
      </trkpt>
      <trkpt lat="40.589324" lon="0.030565">
        <ele>851.208</ele>
        <time>2016-05-28T08:53:14Z</time>
      </trkpt>
      <trkpt lat="40.589147" lon="0.030340">
        <ele>850.460</ele>
        <time>2016-05-28T08:53:16Z</time>
      </trkpt>
      <trkpt lat="40.589089" lon="0.030208">
        <ele>849.857</ele>
        <time>2016-05-28T08:53:17Z</time>
      </trkpt>
      <trkpt lat="40.589063" lon="0.030070">
        <ele>849.021</ele>
        <time>2016-05-28T08:53:18Z</time>
      </trkpt>
      <trkpt lat="40.589081" lon="0.029938">
        <ele>848.289</ele>
        <time>2016-05-28T08:53:19Z</time>
      </trkpt>
      <trkpt lat="40.589130" lon="0.029821">
        <ele>847.477</ele>
        <time>2016-05-28T08:53:20Z</time>
      </trkpt>
      <trkpt lat="40.589203" lon="0.029728">
        <ele>846.850</ele>
        <time>2016-05-28T08:53:21Z</time>
      </trkpt>
      <trkpt lat="40.589284" lon="0.029643">
        <ele>846.217</ele>
        <time>2016-05-28T08:53:22Z</time>
      </trkpt>
      <trkpt lat="40.589372" lon="0.029571">
        <ele>845.617</ele>
        <time>2016-05-28T08:53:23Z</time>
      </trkpt>
      <trkpt lat="40.589633" lon="0.029341">
        <ele>844.213</ele>
        <time>2016-05-28T08:53:26Z</time>
      </trkpt>
      <trkpt lat="40.589800" lon="0.029163">
        <ele>843.243</ele>
        <time>2016-05-28T08:53:28Z</time>
      </trkpt>
      <trkpt lat="40.589958" lon="0.028958">
        <ele>841.607</ele>
        <time>2016-05-28T08:53:30Z</time>
      </trkpt>
      <trkpt lat="40.590029" lon="0.028839">
        <ele>840.608</ele>
        <time>2016-05-28T08:53:31Z</time>
      </trkpt>
      <trkpt lat="40.590082" lon="0.028705">
        <ele>839.614</ele>
        <time>2016-05-28T08:53:32Z</time>
      </trkpt>
      <trkpt lat="40.590119" lon="0.028559">
        <ele>838.841</ele>
        <time>2016-05-28T08:53:33Z</time>
      </trkpt>
      <trkpt lat="40.590199" lon="0.028265">
        <ele>837.015</ele>
        <time>2016-05-28T08:53:35Z</time>
      </trkpt>
      <trkpt lat="40.590348" lon="0.028033">
        <ele>835.493</ele>
        <time>2016-05-28T08:53:37Z</time>
      </trkpt>
      <trkpt lat="40.590563" lon="0.027915">
        <ele>834.071</ele>
        <time>2016-05-28T08:53:39Z</time>
      </trkpt>
      <trkpt lat="40.590675" lon="0.027868">
        <ele>833.494</ele>
        <time>2016-05-28T08:53:40Z</time>
      </trkpt>
      <trkpt lat="40.590791" lon="0.027821">
        <ele>832.071</ele>
        <time>2016-05-28T08:53:41Z</time>
      </trkpt>
      <trkpt lat="40.590909" lon="0.027773">
        <ele>831.231</ele>
        <time>2016-05-28T08:53:42Z</time>
      </trkpt>
      <trkpt lat="40.591025" lon="0.027723">
        <ele>830.441</ele>
        <time>2016-05-28T08:53:43Z</time>
      </trkpt>
      <trkpt lat="40.591143" lon="0.027676">
        <ele>829.681</ele>
        <time>2016-05-28T08:53:44Z</time>
      </trkpt>
      <trkpt lat="40.591264" lon="0.027656">
        <ele>829.209</ele>
        <time>2016-05-28T08:53:45Z</time>
      </trkpt>
      <trkpt lat="40.591498" lon="0.027743">
        <ele>828.208</ele>
        <time>2016-05-28T08:53:47Z</time>
      </trkpt>
      <trkpt lat="40.591596" lon="0.027830">
        <ele>827.467</ele>
        <time>2016-05-28T08:53:48Z</time>
      </trkpt>
      <trkpt lat="40.591769" lon="0.028034">
        <ele>826.454</ele>
        <time>2016-05-28T08:53:50Z</time>
      </trkpt>
      <trkpt lat="40.591934" lon="0.028250">
        <ele>825.498</ele>
        <time>2016-05-28T08:53:52Z</time>
      </trkpt>
      <trkpt lat="40.592103" lon="0.028462">
        <ele>824.066</ele>
        <time>2016-05-28T08:53:54Z</time>
      </trkpt>
      <trkpt lat="40.592284" lon="0.028659">
        <ele>822.694</ele>
        <time>2016-05-28T08:53:56Z</time>
      </trkpt>
      <trkpt lat="40.592379" lon="0.028755">
        <ele>822.297</ele>
        <time>2016-05-28T08:53:57Z</time>
      </trkpt>
      <trkpt lat="40.592474" lon="0.028850">
        <ele>821.624</ele>
        <time>2016-05-28T08:53:58Z</time>
      </trkpt>
      <trkpt lat="40.592680" lon="0.029017">
        <ele>820.064</ele>
        <time>2016-05-28T08:54:00Z</time>
      </trkpt>
      <trkpt lat="40.592794" lon="0.029072">
        <ele>819.261</ele>
        <time>2016-05-28T08:54:01Z</time>
      </trkpt>
      <trkpt lat="40.592915" lon="0.029109">
        <ele>818.421</ele>
        <time>2016-05-28T08:54:02Z</time>
      </trkpt>
      <trkpt lat="40.593163" lon="0.029173">
        <ele>816.813</ele>
        <time>2016-05-28T08:54:04Z</time>
      </trkpt>
      <trkpt lat="40.593287" lon="0.029206">
        <ele>815.808</ele>
        <time>2016-05-28T08:54:05Z</time>
      </trkpt>
      <trkpt lat="40.593411" lon="0.029240">
        <ele>815.049</ele>
        <time>2016-05-28T08:54:06Z</time>
      </trkpt>
      <trkpt lat="40.593536" lon="0.029273">
        <ele>813.256</ele>
        <time>2016-05-28T08:54:07Z</time>
      </trkpt>
      <trkpt lat="40.593785" lon="0.029338">
        <ele>811.240</ele>
        <time>2016-05-28T08:54:08Z</time>
      </trkpt>
      <trkpt lat="40.593910" lon="0.029356">
        <ele>810.238</ele>
        <time>2016-05-28T08:54:10Z</time>
      </trkpt>
      <trkpt lat="40.594032" lon="0.029342">
        <ele>809.436</ele>
        <time>2016-05-28T08:54:11Z</time>
      </trkpt>
      <trkpt lat="40.594149" lon="0.029287">
        <ele>808.259</ele>
        <time>2016-05-28T08:54:12Z</time>
      </trkpt>
      <trkpt lat="40.594256" lon="0.029201">
        <ele>807.256</ele>
        <time>2016-05-28T08:54:13Z</time>
      </trkpt>
      <trkpt lat="40.594453" lon="0.028997">
        <ele>805.256</ele>
        <time>2016-05-28T08:54:15Z</time>
      </trkpt>
      <trkpt lat="40.594648" lon="0.028804">
        <ele>803.634</ele>
        <time>2016-05-28T08:54:17Z</time>
      </trkpt>
      <trkpt lat="40.594755" lon="0.028729">
        <ele>802.655</ele>
        <time>2016-05-28T08:54:18Z</time>
      </trkpt>
      <trkpt lat="40.594871" lon="0.028689">
        <ele>801.810</ele>
        <time>2016-05-28T08:54:19Z</time>
      </trkpt>
      <trkpt lat="40.594991" lon="0.028691">
        <ele>800.608</ele>
        <time>2016-05-28T08:54:20Z</time>
      </trkpt>
      <trkpt lat="40.595231" lon="0.028700">
        <ele>798.856</ele>
        <time>2016-05-28T08:54:22Z</time>
      </trkpt>
      <trkpt lat="40.595344" lon="0.028657">
        <ele>797.843</ele>
        <time>2016-05-28T08:54:23Z</time>
      </trkpt>
      <trkpt lat="40.595440" lon="0.028572">
        <ele>796.867</ele>
        <time>2016-05-28T08:54:24Z</time>
      </trkpt>
      <trkpt lat="40.595509" lon="0.028449">
        <ele>795.855</ele>
        <time>2016-05-28T08:54:25Z</time>
      </trkpt>
      <trkpt lat="40.595555" lon="0.028305">
        <ele>794.823</ele>
        <time>2016-05-28T08:54:26Z</time>
      </trkpt>
      <trkpt lat="40.595584" lon="0.028150">
        <ele>793.866</ele>
        <time>2016-05-28T08:54:27Z</time>
      </trkpt>
      <trkpt lat="40.595594" lon="0.027827">
        <ele>792.043</ele>
        <time>2016-05-28T08:54:29Z</time>
      </trkpt>
      <trkpt lat="40.595571" lon="0.027665">
        <ele>791.233</ele>
        <time>2016-05-28T08:54:30Z</time>
      </trkpt>
      <trkpt lat="40.595540" lon="0.027505">
        <ele>790.433</ele>
        <time>2016-05-28T08:54:31Z</time>
      </trkpt>
      <trkpt lat="40.595507" lon="0.027346">
        <ele>789.423</ele>
        <time>2016-05-28T08:54:32Z</time>
      </trkpt>
      <trkpt lat="40.595472" lon="0.027189">
        <ele>787.415</ele>
        <time>2016-05-28T08:54:33Z</time>
      </trkpt>
      <trkpt lat="40.595408" lon="0.026877">
        <ele>785.608</ele>
        <time>2016-05-28T08:54:35Z</time>
      </trkpt>
      <trkpt lat="40.595399" lon="0.026728">
        <ele>784.616</ele>
        <time>2016-05-28T08:54:36Z</time>
      </trkpt>
      <trkpt lat="40.595419" lon="0.026586">
        <ele>783.813</ele>
        <time>2016-05-28T08:54:37Z</time>
      </trkpt>
      <trkpt lat="40.595540" lon="0.026368">
        <ele>781.877</ele>
        <time>2016-05-28T08:54:39Z</time>
      </trkpt>
      <trkpt lat="40.595726" lon="0.026283">
        <ele>780.645</ele>
        <time>2016-05-28T08:54:41Z</time>
      </trkpt>
      <trkpt lat="40.595839" lon="0.026278">
        <ele>780.053</ele>
        <time>2016-05-28T08:54:42Z</time>
      </trkpt>
      <trkpt lat="40.595956" lon="0.026275">
        <ele>779.066</ele>
        <time>2016-05-28T08:54:43Z</time>
      </trkpt>
      <trkpt lat="40.596195" lon="0.026275">
        <ele>777.493</ele>
        <time>2016-05-28T08:54:45Z</time>
      </trkpt>
      <trkpt lat="40.596438" lon="0.026301">
        <ele>775.623</ele>
        <time>2016-05-28T08:54:47Z</time>
      </trkpt>
      <trkpt lat="40.596558" lon="0.026343">
        <ele>774.884</ele>
        <time>2016-05-28T08:54:48Z</time>
      </trkpt>
      <trkpt lat="40.596673" lon="0.026406">
        <ele>773.807</ele>
        <time>2016-05-28T08:54:49Z</time>
      </trkpt>
      <trkpt lat="40.596787" lon="0.026468">
        <ele>772.817</ele>
        <time>2016-05-28T08:54:50Z</time>
      </trkpt>
      <trkpt lat="40.596901" lon="0.026500">
        <ele>772.008</ele>
        <time>2016-05-28T08:54:51Z</time>
      </trkpt>
      <trkpt lat="40.597015" lon="0.026491">
        <ele>771.021</ele>
        <time>2016-05-28T08:54:52Z</time>
      </trkpt>
      <trkpt lat="40.597121" lon="0.026434">
        <ele>770.028</ele>
        <time>2016-05-28T08:54:53Z</time>
      </trkpt>
      <trkpt lat="40.597217" lon="0.026344">
        <ele>768.852</ele>
        <time>2016-05-28T08:54:54Z</time>
      </trkpt>
      <trkpt lat="40.597305" lon="0.026232">
        <ele>767.630</ele>
        <time>2016-05-28T08:54:55Z</time>
      </trkpt>
      <trkpt lat="40.597390" lon="0.026113">
        <ele>766.678</ele>
        <time>2016-05-28T08:54:56Z</time>
      </trkpt>
      <trkpt lat="40.597475" lon="0.025994">
        <ele>765.481</ele>
        <time>2016-05-28T08:54:57Z</time>
      </trkpt>
      <trkpt lat="40.597560" lon="0.025884">
        <ele>764.238</ele>
        <time>2016-05-28T08:54:58Z</time>
      </trkpt>
      <trkpt lat="40.597688" lon="0.025762">
        <ele>761.868</ele>
        <time>2016-05-28T08:54:59Z</time>
      </trkpt>
      <trkpt lat="40.597722" lon="0.025763">
        <ele>760.636</ele>
        <time>2016-05-28T08:55:00Z</time>
      </trkpt>
      <trkpt lat="40.597870" lon="0.025852">
        <ele>758.617</ele>
        <time>2016-05-28T08:55:02Z</time>
      </trkpt>
      <trkpt lat="40.597919" lon="0.025973">
        <ele>757.418</ele>
        <time>2016-05-28T08:55:03Z</time>
      </trkpt>
      <trkpt lat="40.597932" lon="0.026117">
        <ele>756.208</ele>
        <time>2016-05-28T08:55:04Z</time>
      </trkpt>
      <trkpt lat="40.597928" lon="0.026265">
        <ele>755.436</ele>
        <time>2016-05-28T08:55:05Z</time>
      </trkpt>
      <trkpt lat="40.597919" lon="0.026413">
        <ele>754.873</ele>
        <time>2016-05-28T08:55:06Z</time>
      </trkpt>
      <trkpt lat="40.597894" lon="0.026558">
        <ele>754.427</ele>
        <time>2016-05-28T08:55:07Z</time>
      </trkpt>
      <trkpt lat="40.597848" lon="0.026698">
        <ele>753.875</ele>
        <time>2016-05-28T08:55:08Z</time>
      </trkpt>
      <trkpt lat="40.597715" lon="0.026939">
        <ele>752.653</ele>
        <time>2016-05-28T08:55:10Z</time>
      </trkpt>
      <trkpt lat="40.597644" lon="0.027050">
        <ele>752.296</ele>
        <time>2016-05-28T08:55:11Z</time>
      </trkpt>
      <trkpt lat="40.597580" lon="0.027163">
        <ele>751.893</ele>
        <time>2016-05-28T08:55:12Z</time>
      </trkpt>
      <trkpt lat="40.597539" lon="0.027288">
        <ele>751.483</ele>
        <time>2016-05-28T08:55:13Z</time>
      </trkpt>
      <trkpt lat="40.597531" lon="0.027420">
        <ele>751.251</ele>
        <time>2016-05-28T08:55:14Z</time>
      </trkpt>
      <trkpt lat="40.597608" lon="0.027680">
        <ele>750.801</ele>
        <time>2016-05-28T08:55:16Z</time>
      </trkpt>
      <trkpt lat="40.597734" lon="0.027921">
        <ele>750.411</ele>
        <time>2016-05-28T08:55:18Z</time>
      </trkpt>
      <trkpt lat="40.597801" lon="0.028040">
        <ele>750.208</ele>
        <time>2016-05-28T08:55:19Z</time>
      </trkpt>
      <trkpt lat="40.597865" lon="0.028161">
        <ele>749.668</ele>
        <time>2016-05-28T08:55:20Z</time>
      </trkpt>
      <trkpt lat="40.597919" lon="0.028292">
        <ele>749.225</ele>
        <time>2016-05-28T08:55:21Z</time>
      </trkpt>
      <trkpt lat="40.597958" lon="0.028584">
        <ele>748.089</ele>
        <time>2016-05-28T08:55:23Z</time>
      </trkpt>
      <trkpt lat="40.597887" lon="0.028873">
        <ele>745.267</ele>
        <time>2016-05-28T08:55:25Z</time>
      </trkpt>
      <trkpt lat="40.597832" lon="0.029015">
        <ele>744.465</ele>
        <time>2016-05-28T08:55:26Z</time>
      </trkpt>
      <trkpt lat="40.597782" lon="0.029163">
        <ele>743.648</ele>
        <time>2016-05-28T08:55:27Z</time>
      </trkpt>
      <trkpt lat="40.597745" lon="0.029322">
        <ele>742.685</ele>
        <time>2016-05-28T08:55:28Z</time>
      </trkpt>
      <trkpt lat="40.597723" lon="0.029488">
        <ele>741.645</ele>
        <time>2016-05-28T08:55:29Z</time>
      </trkpt>
      <trkpt lat="40.597717" lon="0.029658">
        <ele>740.477</ele>
        <time>2016-05-28T08:55:30Z</time>
      </trkpt>
      <trkpt lat="40.597723" lon="0.029998">
        <ele>738.661</ele>
        <time>2016-05-28T08:55:32Z</time>
      </trkpt>
      <trkpt lat="40.597732" lon="0.030329">
        <ele>737.227</ele>
        <time>2016-05-28T08:55:34Z</time>
      </trkpt>
      <trkpt lat="40.597761" lon="0.030642">
        <ele>736.408</ele>
        <time>2016-05-28T08:55:36Z</time>
      </trkpt>
      <trkpt lat="40.597804" lon="0.030785">
        <ele>736.280</ele>
        <time>2016-05-28T08:55:37Z</time>
      </trkpt>
      <trkpt lat="40.597955" lon="0.031011">
        <ele>735.067</ele>
        <time>2016-05-28T08:55:39Z</time>
      </trkpt>
      <trkpt lat="40.598103" lon="0.031245">
        <ele>733.611</ele>
        <time>2016-05-28T08:55:41Z</time>
      </trkpt>
      <trkpt lat="40.598144" lon="0.031391">
        <ele>733.019</ele>
        <time>2016-05-28T08:55:42Z</time>
      </trkpt>
      <trkpt lat="40.598155" lon="0.031547">
        <ele>732.097</ele>
        <time>2016-05-28T08:55:43Z</time>
      </trkpt>
      <trkpt lat="40.598138" lon="0.031704">
        <ele>731.080</ele>
        <time>2016-05-28T08:55:44Z</time>
      </trkpt>
      <trkpt lat="40.598093" lon="0.031855">
        <ele>729.887</ele>
        <time>2016-05-28T08:55:45Z</time>
      </trkpt>
      <trkpt lat="40.598042" lon="0.032002">
        <ele>728.667</ele>
        <time>2016-05-28T08:55:46Z</time>
      </trkpt>
      <trkpt lat="40.597988" lon="0.032147">
        <ele>727.675</ele>
        <time>2016-05-28T08:55:47Z</time>
      </trkpt>
      <trkpt lat="40.597908" lon="0.032415">
        <ele>725.828</ele>
        <time>2016-05-28T08:55:49Z</time>
      </trkpt>
      <trkpt lat="40.597914" lon="0.032538">
        <ele>725.020</ele>
        <time>2016-05-28T08:55:50Z</time>
      </trkpt>
      <trkpt lat="40.597960" lon="0.032637">
        <ele>723.608</ele>
        <time>2016-05-28T08:55:51Z</time>
      </trkpt>
      <trkpt lat="40.598036" lon="0.032691">
        <ele>722.830</ele>
        <time>2016-05-28T08:55:52Z</time>
      </trkpt>
      <trkpt lat="40.598129" lon="0.032694">
        <ele>721.837</ele>
        <time>2016-05-28T08:55:53Z</time>
      </trkpt>
      <trkpt lat="40.598220" lon="0.032648">
        <ele>721.091</ele>
        <time>2016-05-28T08:55:54Z</time>
      </trkpt>
      <trkpt lat="40.598302" lon="0.032566">
        <ele>720.289</ele>
        <time>2016-05-28T08:55:55Z</time>
      </trkpt>
      <trkpt lat="40.598381" lon="0.032478">
        <ele>719.667</ele>
        <time>2016-05-28T08:55:56Z</time>
      </trkpt>
      <trkpt lat="40.598468" lon="0.032407">
        <ele>719.010</ele>
        <time>2016-05-28T08:55:57Z</time>
      </trkpt>
      <trkpt lat="40.598667" lon="0.032333">
        <ele>717.837</ele>
        <time>2016-05-28T08:55:59Z</time>
      </trkpt>
      <trkpt lat="40.598772" lon="0.032316">
        <ele>717.477</ele>
        <time>2016-05-28T08:56:00Z</time>
      </trkpt>
      <trkpt lat="40.598876" lon="0.032282">
        <ele>717.069</ele>
        <time>2016-05-28T08:56:01Z</time>
      </trkpt>
      <trkpt lat="40.598973" lon="0.032221">
        <ele>716.404</ele>
        <time>2016-05-28T08:56:02Z</time>
      </trkpt>
      <trkpt lat="40.599065" lon="0.032142">
        <ele>715.824</ele>
        <time>2016-05-28T08:56:03Z</time>
      </trkpt>
      <trkpt lat="40.599158" lon="0.032058">
        <ele>715.008</ele>
        <time>2016-05-28T08:56:04Z</time>
      </trkpt>
      <trkpt lat="40.599347" lon="0.031887">
        <ele>713.839</ele>
        <time>2016-05-28T08:56:06Z</time>
      </trkpt>
      <trkpt lat="40.599433" lon="0.031791">
        <ele>713.236</ele>
        <time>2016-05-28T08:56:07Z</time>
      </trkpt>
      <trkpt lat="40.599504" lon="0.031677">
        <ele>712.670</ele>
        <time>2016-05-28T08:56:08Z</time>
      </trkpt>
      <trkpt lat="40.599564" lon="0.031400">
        <ele>711.678</ele>
        <time>2016-05-28T08:56:10Z</time>
      </trkpt>
      <trkpt lat="40.599553" lon="0.031255">
        <ele>711.286</ele>
        <time>2016-05-28T08:56:11Z</time>
      </trkpt>
      <trkpt lat="40.599486" lon="0.030974">
        <ele>709.849</ele>
        <time>2016-05-28T08:56:13Z</time>
      </trkpt>
      <trkpt lat="40.599392" lon="0.030707">
        <ele>708.856</ele>
        <time>2016-05-28T08:56:15Z</time>
      </trkpt>
      <trkpt lat="40.599356" lon="0.030570">
        <ele>708.496</ele>
        <time>2016-05-28T08:56:16Z</time>
      </trkpt>
      <trkpt lat="40.599347" lon="0.030427">
        <ele>707.491</ele>
        <time>2016-05-28T08:56:17Z</time>
      </trkpt>
      <trkpt lat="40.599389" lon="0.030134">
        <ele>705.881</ele>
        <time>2016-05-28T08:56:19Z</time>
      </trkpt>
      <trkpt lat="40.599443" lon="0.029999">
        <ele>705.019</ele>
        <time>2016-05-28T08:56:20Z</time>
      </trkpt>
      <trkpt lat="40.599518" lon="0.029879">
        <ele>704.208</ele>
        <time>2016-05-28T08:56:21Z</time>
      </trkpt>
      <trkpt lat="40.599606" lon="0.029775">
        <ele>703.482</ele>
        <time>2016-05-28T08:56:22Z</time>
      </trkpt>
      <trkpt lat="40.599701" lon="0.029680">
        <ele>702.659</ele>
        <time>2016-05-28T08:56:23Z</time>
      </trkpt>
      <trkpt lat="40.599800" lon="0.029593">
        <ele>701.613</ele>
        <time>2016-05-28T08:56:24Z</time>
      </trkpt>
      <trkpt lat="40.599997" lon="0.029430">
        <ele>699.661</ele>
        <time>2016-05-28T08:56:26Z</time>
      </trkpt>
      <trkpt lat="40.600095" lon="0.029365">
        <ele>698.699</ele>
        <time>2016-05-28T08:56:27Z</time>
      </trkpt>
      <trkpt lat="40.600195" lon="0.029342">
        <ele>697.632</ele>
        <time>2016-05-28T08:56:28Z</time>
      </trkpt>
      <trkpt lat="40.600369" lon="0.029441">
        <ele>695.679</ele>
        <time>2016-05-28T08:56:30Z</time>
      </trkpt>
      <trkpt lat="40.600410" lon="0.029554">
        <ele>694.669</ele>
        <time>2016-05-28T08:56:31Z</time>
      </trkpt>
      <trkpt lat="40.600405" lon="0.029682">
        <ele>693.671</ele>
        <time>2016-05-28T08:56:32Z</time>
      </trkpt>
      <trkpt lat="40.600317" lon="0.029930">
        <ele>692.041</ele>
        <time>2016-05-28T08:56:34Z</time>
      </trkpt>
      <trkpt lat="40.600224" lon="0.030187">
        <ele>690.415</ele>
        <time>2016-05-28T08:56:36Z</time>
      </trkpt>
      <trkpt lat="40.600192" lon="0.030325">
        <ele>689.808</ele>
        <time>2016-05-28T08:56:37Z</time>
      </trkpt>
      <trkpt lat="40.600174" lon="0.030467">
        <ele>689.220</ele>
        <time>2016-05-28T08:56:38Z</time>
      </trkpt>
      <trkpt lat="40.600189" lon="0.030753">
        <ele>688.277</ele>
        <time>2016-05-28T08:56:40Z</time>
      </trkpt>
      <trkpt lat="40.600246" lon="0.030873">
        <ele>687.651</ele>
        <time>2016-05-28T08:56:41Z</time>
      </trkpt>
      <trkpt lat="40.600328" lon="0.030969">
        <ele>687.259</ele>
        <time>2016-05-28T08:56:42Z</time>
      </trkpt>
      <trkpt lat="40.600422" lon="0.031051">
        <ele>686.637</ele>
        <time>2016-05-28T08:56:43Z</time>
      </trkpt>
      <trkpt lat="40.600520" lon="0.031133">
        <ele>685.230</ele>
        <time>2016-05-28T08:56:44Z</time>
      </trkpt>
      <trkpt lat="40.600719" lon="0.031303">
        <ele>683.447</ele>
        <time>2016-05-28T08:56:46Z</time>
      </trkpt>
      <trkpt lat="40.600821" lon="0.031390">
        <ele>682.497</ele>
        <time>2016-05-28T08:56:47Z</time>
      </trkpt>
      <trkpt lat="40.601020" lon="0.031584">
        <ele>680.697</ele>
        <time>2016-05-28T08:56:49Z</time>
      </trkpt>
      <trkpt lat="40.601103" lon="0.031700">
        <ele>679.623</ele>
        <time>2016-05-28T08:56:50Z</time>
      </trkpt>
      <trkpt lat="40.601162" lon="0.031836">
        <ele>678.625</ele>
        <time>2016-05-28T08:56:51Z</time>
      </trkpt>
      <trkpt lat="40.601192" lon="0.032145">
        <ele>676.808</ele>
        <time>2016-05-28T08:56:53Z</time>
      </trkpt>
      <trkpt lat="40.601089" lon="0.032427">
        <ele>675.042</ele>
        <time>2016-05-28T08:56:55Z</time>
      </trkpt>
      <trkpt lat="40.601019" lon="0.032563">
        <ele>674.469</ele>
        <time>2016-05-28T08:56:56Z</time>
      </trkpt>
      <trkpt lat="40.600960" lon="0.032707">
        <ele>673.633</ele>
        <time>2016-05-28T08:56:57Z</time>
      </trkpt>
      <trkpt lat="40.600904" lon="0.033026">
        <ele>671.831</ele>
        <time>2016-05-28T08:56:59Z</time>
      </trkpt>
      <trkpt lat="40.600895" lon="0.033406">
        <ele>670.299</ele>
        <time>2016-05-28T08:57:01Z</time>
      </trkpt>
      <trkpt lat="40.600876" lon="0.033529">
        <ele>669.282</ele>
        <time>2016-05-28T08:57:02Z</time>
      </trkpt>
      <trkpt lat="40.600842" lon="0.033693">
        <ele>668.469</ele>
        <time>2016-05-28T08:57:03Z</time>
      </trkpt>
      <trkpt lat="40.600778" lon="0.034013">
        <ele>666.859</ele>
        <time>2016-05-28T08:57:05Z</time>
      </trkpt>
      <trkpt lat="40.600739" lon="0.034140">
        <ele>665.882</ele>
        <time>2016-05-28T08:57:06Z</time>
      </trkpt>
      <trkpt lat="40.600681" lon="0.034246">
        <ele>664.843</ele>
        <time>2016-05-28T08:57:07Z</time>
      </trkpt>
      <trkpt lat="40.600605" lon="0.034320">
        <ele>664.017</ele>
        <time>2016-05-28T08:57:08Z</time>
      </trkpt>
      <trkpt lat="40.600515" lon="0.034344">
        <ele>663.408</ele>
        <time>2016-05-28T08:57:09Z</time>
      </trkpt>
      <trkpt lat="40.600419" lon="0.034358">
        <ele>662.851</ele>
        <time>2016-05-28T08:57:10Z</time>
      </trkpt>
      <trkpt lat="40.600334" lon="0.034406">
        <ele>662.478</ele>
        <time>2016-05-28T08:57:11Z</time>
      </trkpt>
      <trkpt lat="40.600275" lon="0.034495">
        <ele>662.062</ele>
        <time>2016-05-28T08:57:12Z</time>
      </trkpt>
      <trkpt lat="40.600259" lon="0.034610">
        <ele>661.220</ele>
        <time>2016-05-28T08:57:13Z</time>
      </trkpt>
      <trkpt lat="40.600281" lon="0.034728">
        <ele>660.698</ele>
        <time>2016-05-28T08:57:14Z</time>
      </trkpt>
      <trkpt lat="40.600304" lon="0.034845">
        <ele>659.661</ele>
        <time>2016-05-28T08:57:15Z</time>
      </trkpt>
      <trkpt lat="40.600271" lon="0.035035">
        <ele>658.478</ele>
        <time>2016-05-28T08:57:17Z</time>
      </trkpt>
      <trkpt lat="40.600133" lon="0.035067">
        <ele>657.428</ele>
        <time>2016-05-28T08:57:19Z</time>
      </trkpt>
      <trkpt lat="40.600054" lon="0.035042">
        <ele>657.054</ele>
        <time>2016-05-28T08:57:20Z</time>
      </trkpt>
      <trkpt lat="40.599971" lon="0.035020">
        <ele>656.656</ele>
        <time>2016-05-28T08:57:21Z</time>
      </trkpt>
      <trkpt lat="40.599803" lon="0.035026">
        <ele>656.011</ele>
        <time>2016-05-28T08:57:23Z</time>
      </trkpt>
      <trkpt lat="40.599668" lon="0.035165">
        <ele>655.608</ele>
        <time>2016-05-28T08:57:25Z</time>
      </trkpt>
      <trkpt lat="40.599622" lon="0.035459">
        <ele>654.678</ele>
        <time>2016-05-28T08:57:28Z</time>
      </trkpt>
      <trkpt lat="40.599784" lon="0.035679">
        <ele>653.815</ele>
        <time>2016-05-28T08:57:31Z</time>
      </trkpt>
      <trkpt lat="40.599847" lon="0.035751">
        <ele>653.489</ele>
        <time>2016-05-28T08:57:32Z</time>
      </trkpt>
      <trkpt lat="40.600051" lon="0.035979">
        <ele>652.047</ele>
        <time>2016-05-28T08:57:35Z</time>
      </trkpt>
      <trkpt lat="40.600193" lon="0.036134">
        <ele>650.425</ele>
        <time>2016-05-28T08:57:37Z</time>
      </trkpt>
      <trkpt lat="40.600351" lon="0.036284">
        <ele>649.468</ele>
        <time>2016-05-28T08:57:39Z</time>
      </trkpt>
      <trkpt lat="40.600522" lon="0.036434">
        <ele>648.495</ele>
        <time>2016-05-28T08:57:41Z</time>
      </trkpt>
      <trkpt lat="40.600609" lon="0.036508">
        <ele>647.615</ele>
        <time>2016-05-28T08:57:42Z</time>
      </trkpt>
      <trkpt lat="40.600696" lon="0.036583">
        <ele>646.872</ele>
        <time>2016-05-28T08:57:43Z</time>
      </trkpt>
      <trkpt lat="40.600872" lon="0.036733">
        <ele>645.613</ele>
        <time>2016-05-28T08:57:45Z</time>
      </trkpt>
      <trkpt lat="40.601037" lon="0.036910">
        <ele>644.614</ele>
        <time>2016-05-28T08:57:47Z</time>
      </trkpt>
      <trkpt lat="40.601098" lon="0.037028">
        <ele>644.008</ele>
        <time>2016-05-28T08:57:48Z</time>
      </trkpt>
      <trkpt lat="40.601140" lon="0.037161">
        <ele>643.430</ele>
        <time>2016-05-28T08:57:49Z</time>
      </trkpt>
      <trkpt lat="40.601170" lon="0.037451">
        <ele>642.437</ele>
        <time>2016-05-28T08:57:51Z</time>
      </trkpt>
      <trkpt lat="40.601099" lon="0.037881">
        <ele>641.621</ele>
        <time>2016-05-28T08:57:54Z</time>
      </trkpt>
      <trkpt lat="40.601078" lon="0.038024">
        <ele>641.029</ele>
        <time>2016-05-28T08:57:55Z</time>
      </trkpt>
      <trkpt lat="40.601051" lon="0.038460">
        <ele>640.097</ele>
        <time>2016-05-28T08:57:58Z</time>
      </trkpt>
      <trkpt lat="40.601076" lon="0.038897">
        <ele>638.410</ele>
        <time>2016-05-28T08:58:01Z</time>
      </trkpt>
      <trkpt lat="40.601111" lon="0.039195">
        <ele>636.417</ele>
        <time>2016-05-28T08:58:03Z</time>
      </trkpt>
      <trkpt lat="40.601149" lon="0.039494">
        <ele>635.217</ele>
        <time>2016-05-28T08:58:05Z</time>
      </trkpt>
      <trkpt lat="40.601157" lon="0.039784">
        <ele>633.662</ele>
        <time>2016-05-28T08:58:07Z</time>
      </trkpt>
      <trkpt lat="40.601129" lon="0.039918">
        <ele>633.083</ele>
        <time>2016-05-28T08:58:08Z</time>
      </trkpt>
      <trkpt lat="40.601073" lon="0.040032">
        <ele>632.211</ele>
        <time>2016-05-28T08:58:09Z</time>
      </trkpt>
      <trkpt lat="40.600995" lon="0.040116">
        <ele>631.208</ele>
        <time>2016-05-28T08:58:10Z</time>
      </trkpt>
      <trkpt lat="40.600899" lon="0.040164">
        <ele>630.219</ele>
        <time>2016-05-28T08:58:11Z</time>
      </trkpt>
      <trkpt lat="40.600792" lon="0.040168">
        <ele>629.276</ele>
        <time>2016-05-28T08:58:12Z</time>
      </trkpt>
      <trkpt lat="40.600688" lon="0.040169">
        <ele>628.650</ele>
        <time>2016-05-28T08:58:13Z</time>
      </trkpt>
      <trkpt lat="40.600538" lon="0.040274">
        <ele>627.828</ele>
        <time>2016-05-28T08:58:15Z</time>
      </trkpt>
      <trkpt lat="40.600513" lon="0.040371">
        <ele>627.476</ele>
        <time>2016-05-28T08:58:16Z</time>
      </trkpt>
      <trkpt lat="40.600531" lon="0.040467">
        <ele>627.239</ele>
        <time>2016-05-28T08:58:17Z</time>
      </trkpt>
      <trkpt lat="40.600653" lon="0.040608">
        <ele>626.486</ele>
        <time>2016-05-28T08:58:19Z</time>
      </trkpt>
      <trkpt lat="40.600733" lon="0.040672">
        <ele>625.846</ele>
        <time>2016-05-28T08:58:20Z</time>
      </trkpt>
      <trkpt lat="40.600815" lon="0.040741">
        <ele>625.049</ele>
        <time>2016-05-28T08:58:21Z</time>
      </trkpt>
      <trkpt lat="40.600963" lon="0.040927">
        <ele>623.402</ele>
        <time>2016-05-28T08:58:23Z</time>
      </trkpt>
      <trkpt lat="40.601004" lon="0.041061">
        <ele>622.422</ele>
        <time>2016-05-28T08:58:24Z</time>
      </trkpt>
      <trkpt lat="40.601015" lon="0.041210">
        <ele>621.208</ele>
        <time>2016-05-28T08:58:25Z</time>
      </trkpt>
      <trkpt lat="40.601001" lon="0.041511">
        <ele>620.027</ele>
        <time>2016-05-28T08:58:27Z</time>
      </trkpt>
      <trkpt lat="40.600971" lon="0.041811">
        <ele>618.814</ele>
        <time>2016-05-28T08:58:29Z</time>
      </trkpt>
      <trkpt lat="40.600947" lon="0.041952">
        <ele>617.018</ele>
        <time>2016-05-28T08:58:30Z</time>
      </trkpt>
      <trkpt lat="40.600896" lon="0.042203">
        <ele>615.246</ele>
        <time>2016-05-28T08:58:32Z</time>
      </trkpt>
      <trkpt lat="40.600952" lon="0.042411">
        <ele>614.084</ele>
        <time>2016-05-28T08:58:34Z</time>
      </trkpt>
      <trkpt lat="40.601097" lon="0.042497">
        <ele>613.487</ele>
        <time>2016-05-28T08:58:36Z</time>
      </trkpt>
      <trkpt lat="40.601174" lon="0.042521">
        <ele>613.024</ele>
        <time>2016-05-28T08:58:37Z</time>
      </trkpt>
      <trkpt lat="40.601248" lon="0.042549">
        <ele>613.294</ele>
        <time>2016-05-28T08:58:38Z</time>
      </trkpt>
      <trkpt lat="40.601320" lon="0.042589">
        <ele>613.213</ele>
        <time>2016-05-28T08:58:39Z</time>
      </trkpt>
      <trkpt lat="40.601366" lon="0.042661">
        <ele>613.243</ele>
        <time>2016-05-28T08:58:40Z</time>
      </trkpt>
      <trkpt lat="40.601416" lon="0.042913">
        <ele>613.607</ele>
        <time>2016-05-28T08:58:43Z</time>
      </trkpt>
      <trkpt lat="40.601463" lon="0.043067">
        <ele>613.608</ele>
        <time>2016-05-28T08:58:45Z</time>
      </trkpt>
      <trkpt lat="40.601529" lon="0.043198">
        <ele>613.844</ele>
        <time>2016-05-28T08:58:47Z</time>
      </trkpt>
      <trkpt lat="40.601627" lon="0.043388">
        <ele>615.221</ele>
        <time>2016-05-28T08:58:51Z</time>
      </trkpt>
      <trkpt lat="40.601705" lon="0.043509">
        <ele>616.475</ele>
        <time>2016-05-28T08:58:54Z</time>
      </trkpt>
      <trkpt lat="40.601762" lon="0.043589">
        <ele>617.483</ele>
        <time>2016-05-28T08:58:56Z</time>
      </trkpt>
      <trkpt lat="40.601847" lon="0.043689">
        <ele>618.471</ele>
        <time>2016-05-28T08:58:59Z</time>
      </trkpt>
      <trkpt lat="40.601933" lon="0.043778">
        <ele>619.854</ele>
        <time>2016-05-28T08:59:02Z</time>
      </trkpt>
      <trkpt lat="40.601971" lon="0.043817">
        <ele>620.071</ele>
        <time>2016-05-28T08:59:03Z</time>
      </trkpt>
      <trkpt lat="40.602020" lon="0.043864">
        <ele>620.441</ele>
        <time>2016-05-28T08:59:05Z</time>
      </trkpt>
      <trkpt lat="40.602079" lon="0.043914">
        <ele>621.045</ele>
        <time>2016-05-28T08:59:07Z</time>
      </trkpt>
      <trkpt lat="40.602109" lon="0.043936">
        <ele>621.447</ele>
        <time>2016-05-28T08:59:08Z</time>
      </trkpt>
      <trkpt lat="40.602165" lon="0.043984">
        <ele>622.211</ele>
        <time>2016-05-28T08:59:10Z</time>
      </trkpt>
      <trkpt lat="40.602292" lon="0.044098">
        <ele>623.208</ele>
        <time>2016-05-28T08:59:15Z</time>
      </trkpt>
      <trkpt lat="40.602317" lon="0.044121">
        <ele>623.457</ele>
        <time>2016-05-28T08:59:16Z</time>
      </trkpt>
      <trkpt lat="40.602374" lon="0.044158">
        <ele>624.274</ele>
        <time>2016-05-28T08:59:18Z</time>
      </trkpt>
      <trkpt lat="40.602402" lon="0.044177">
        <ele>624.658</ele>
        <time>2016-05-28T08:59:19Z</time>
      </trkpt>
      <trkpt lat="40.602428" lon="0.044198">
        <ele>624.886</ele>
        <time>2016-05-28T08:59:20Z</time>
      </trkpt>
      <trkpt lat="40.602453" lon="0.044220">
        <ele>625.434</ele>
        <time>2016-05-28T08:59:21Z</time>
      </trkpt>
      <trkpt lat="40.602478" lon="0.044242">
        <ele>625.417</ele>
        <time>2016-05-28T08:59:22Z</time>
      </trkpt>
      <trkpt lat="40.602552" lon="0.044307">
        <ele>626.254</ele>
        <time>2016-05-28T08:59:25Z</time>
      </trkpt>
      <trkpt lat="40.602577" lon="0.044326">
        <ele>626.414</ele>
        <time>2016-05-28T08:59:26Z</time>
      </trkpt>
      <trkpt lat="40.602651" lon="0.044377">
        <ele>627.427</ele>
        <time>2016-05-28T08:59:29Z</time>
      </trkpt>
      <trkpt lat="40.602676" lon="0.044395">
        <ele>627.668</ele>
        <time>2016-05-28T08:59:30Z</time>
      </trkpt>
      <trkpt lat="40.602725" lon="0.044433">
        <ele>628.414</ele>
        <time>2016-05-28T08:59:32Z</time>
      </trkpt>
      <trkpt lat="40.602826" lon="0.044502">
        <ele>629.408</ele>
        <time>2016-05-28T08:59:36Z</time>
      </trkpt>
      <trkpt lat="40.602851" lon="0.044521">
        <ele>629.495</ele>
        <time>2016-05-28T08:59:37Z</time>
      </trkpt>
      <trkpt lat="40.602972" lon="0.044624">
        <ele>630.852</ele>
        <time>2016-05-28T08:59:42Z</time>
      </trkpt>
      <trkpt lat="40.602994" lon="0.044647">
        <ele>631.036</ele>
        <time>2016-05-28T08:59:43Z</time>
      </trkpt>
      <trkpt lat="40.603054" lon="0.044714">
        <ele>632.094</ele>
        <time>2016-05-28T08:59:46Z</time>
      </trkpt>
      <trkpt lat="40.603104" lon="0.044805">
        <ele>632.692</ele>
        <time>2016-05-28T08:59:49Z</time>
      </trkpt>
      <trkpt lat="40.603140" lon="0.044865">
        <ele>633.435</ele>
        <time>2016-05-28T08:59:51Z</time>
      </trkpt>
      <trkpt lat="40.603219" lon="0.045030">
        <ele>634.242</ele>
        <time>2016-05-28T08:59:56Z</time>
      </trkpt>
      <trkpt lat="40.603234" lon="0.045059">
        <ele>634.452</ele>
        <time>2016-05-28T08:59:57Z</time>
      </trkpt>
      <trkpt lat="40.603256" lon="0.045123">
        <ele>634.853</ele>
        <time>2016-05-28T08:59:59Z</time>
      </trkpt>
      <trkpt lat="40.603276" lon="0.045261">
        <ele>635.604</ele>
        <time>2016-05-28T09:00:03Z</time>
      </trkpt>
      <trkpt lat="40.603263" lon="0.045340">
        <ele>635.214</ele>
        <time>2016-05-28T09:00:05Z</time>
      </trkpt>
      <trkpt lat="40.603234" lon="0.045431">
        <ele>635.608</ele>
        <time>2016-05-28T09:00:08Z</time>
      </trkpt>
      <trkpt lat="40.603226" lon="0.045654">
        <ele>635.238</ele>
        <time>2016-05-28T09:00:13Z</time>
      </trkpt>
      <trkpt lat="40.603247" lon="0.045813">
        <ele>635.855</ele>
        <time>2016-05-28T09:00:17Z</time>
      </trkpt>
      <trkpt lat="40.603278" lon="0.045852">
        <ele>672.519</ele>
        <time>2018-04-02T09:25:46Z</time>
      </trkpt>
      <trkpt lat="40.603274" lon="0.045743">
        <ele>672.527</ele>
        <time>2018-04-02T09:25:51Z</time>
      </trkpt>
      <trkpt lat="40.603401" lon="0.045729">
        <ele>675.455</ele>
        <time>2018-04-02T09:26:01Z</time>
      </trkpt>
      <trkpt lat="40.603567" lon="0.045724">
        <ele>678.348</ele>
        <time>2018-04-02T09:26:14Z</time>
      </trkpt>
      <trkpt lat="40.603645" lon="0.045718">
        <ele>679.745</ele>
        <time>2018-04-02T09:26:20Z</time>
      </trkpt>
      <trkpt lat="40.603731" lon="0.045674">
        <ele>681.235</ele>
        <time>2018-04-02T09:26:27Z</time>
      </trkpt>
      <trkpt lat="40.603826" lon="0.045671">
        <ele>682.645</ele>
        <time>2018-04-02T09:26:34Z</time>
      </trkpt>
      <trkpt lat="40.603990" lon="0.045784">
        <ele>686.047</ele>
        <time>2018-04-02T09:26:47Z</time>
      </trkpt>
      <trkpt lat="40.604044" lon="0.045825">
        <ele>686.511</ele>
        <time>2018-04-02T09:26:51Z</time>
      </trkpt>
      <trkpt lat="40.604281" lon="0.045963">
        <ele>687.908</ele>
        <time>2018-04-02T09:27:06Z</time>
      </trkpt>
      <trkpt lat="40.604656" lon="0.046097">
        <ele>687.917</ele>
        <time>2018-04-02T09:27:20Z</time>
      </trkpt>
      <trkpt lat="40.605000" lon="0.046228">
        <ele>689.464</ele>
        <time>2018-04-02T09:27:33Z</time>
      </trkpt>
      <trkpt lat="40.605193" lon="0.046340">
        <ele>692.748</ele>
        <time>2018-04-02T09:27:43Z</time>
      </trkpt>
      <trkpt lat="40.605479" lon="0.046618">
        <ele>695.646</ele>
        <time>2018-04-02T09:27:59Z</time>
      </trkpt>
      <trkpt lat="40.605766" lon="0.046838">
        <ele>698.054</ele>
        <time>2018-04-02T09:28:14Z</time>
      </trkpt>
      <trkpt lat="40.606045" lon="0.047036">
        <ele>696.647</ele>
        <time>2018-04-02T09:28:24Z</time>
      </trkpt>
      <trkpt lat="40.606094" lon="0.047054">
        <ele>696.654</ele>
        <time>2018-04-02T09:28:25Z</time>
      </trkpt>
      <trkpt lat="40.606151" lon="0.047064">
        <ele>696.184</ele>
        <time>2018-04-02T09:28:26Z</time>
      </trkpt>
      <trkpt lat="40.606216" lon="0.047068">
        <ele>695.122</ele>
        <time>2018-04-02T09:28:27Z</time>
      </trkpt>
      <trkpt lat="40.606285" lon="0.047064">
        <ele>695.162</ele>
        <time>2018-04-02T09:28:28Z</time>
      </trkpt>
      <trkpt lat="40.606423" lon="0.047027">
        <ele>694.208</ele>
        <time>2018-04-02T09:28:30Z</time>
      </trkpt>
      <trkpt lat="40.606486" lon="0.046996">
        <ele>694.208</ele>
        <time>2018-04-02T09:28:31Z</time>
      </trkpt>
      <trkpt lat="40.606541" lon="0.046959">
        <ele>694.675</ele>
        <time>2018-04-02T09:28:32Z</time>
      </trkpt>
      <trkpt lat="40.606590" lon="0.046916">
        <ele>694.642</ele>
        <time>2018-04-02T09:28:33Z</time>
      </trkpt>
      <trkpt lat="40.606638" lon="0.046870">
        <ele>694.656</ele>
        <time>2018-04-02T09:28:34Z</time>
      </trkpt>
      <trkpt lat="40.606687" lon="0.046833">
        <ele>694.284</ele>
        <time>2018-04-02T09:28:35Z</time>
      </trkpt>
      <trkpt lat="40.606738" lon="0.046812">
        <ele>694.292</ele>
        <time>2018-04-02T09:28:36Z</time>
      </trkpt>
      <trkpt lat="40.606790" lon="0.046811">
        <ele>694.275</ele>
        <time>2018-04-02T09:28:37Z</time>
      </trkpt>
      <trkpt lat="40.606842" lon="0.046829">
        <ele>694.262</ele>
        <time>2018-04-02T09:28:38Z</time>
      </trkpt>
      <trkpt lat="40.606898" lon="0.046857">
        <ele>693.232</ele>
        <time>2018-04-02T09:28:39Z</time>
      </trkpt>
      <trkpt lat="40.607024" lon="0.046923">
        <ele>692.241</ele>
        <time>2018-04-02T09:28:41Z</time>
      </trkpt>
      <trkpt lat="40.607307" lon="0.047157">
        <ele>688.981</ele>
        <time>2018-04-02T09:28:45Z</time>
      </trkpt>
      <trkpt lat="40.607525" lon="0.047393">
        <ele>687.909</ele>
        <time>2018-04-02T09:28:48Z</time>
      </trkpt>
      <trkpt lat="40.607597" lon="0.047451">
        <ele>687.908</ele>
        <time>2018-04-02T09:28:49Z</time>
      </trkpt>
      <trkpt lat="40.607660" lon="0.047499">
        <ele>687.997</ele>
        <time>2018-04-02T09:28:50Z</time>
      </trkpt>
      <trkpt lat="40.607711" lon="0.047537">
        <ele>687.464</ele>
        <time>2018-04-02T09:28:51Z</time>
      </trkpt>
      <trkpt lat="40.607758" lon="0.047562">
        <ele>688.968</ele>
        <time>2018-04-02T09:28:52Z</time>
      </trkpt>
      <trkpt lat="40.607809" lon="0.047567">
        <ele>688.946</ele>
        <time>2018-04-02T09:28:53Z</time>
      </trkpt>
      <trkpt lat="40.607865" lon="0.047545">
        <ele>688.994</ele>
        <time>2018-04-02T09:28:54Z</time>
      </trkpt>
      <trkpt lat="40.607924" lon="0.047507">
        <ele>687.467</ele>
        <time>2018-04-02T09:28:55Z</time>
      </trkpt>
      <trkpt lat="40.607980" lon="0.047471">
        <ele>687.454</ele>
        <time>2018-04-02T09:28:56Z</time>
      </trkpt>
      <trkpt lat="40.608031" lon="0.047429">
        <ele>687.994</ele>
        <time>2018-04-02T09:28:57Z</time>
      </trkpt>
      <trkpt lat="40.608075" lon="0.047374">
        <ele>687.993</ele>
        <time>2018-04-02T09:28:58Z</time>
      </trkpt>
      <trkpt lat="40.608110" lon="0.047317">
        <ele>687.965</ele>
        <time>2018-04-02T09:28:59Z</time>
      </trkpt>
      <trkpt lat="40.608219" lon="0.047154">
        <ele>687.921</ele>
        <time>2018-04-02T09:29:02Z</time>
      </trkpt>
      <trkpt lat="40.608263" lon="0.047108">
        <ele>687.908</ele>
        <time>2018-04-02T09:29:03Z</time>
      </trkpt>
      <trkpt lat="40.608318" lon="0.047074">
        <ele>687.062</ele>
        <time>2018-04-02T09:29:04Z</time>
      </trkpt>
      <trkpt lat="40.608377" lon="0.047048">
        <ele>686.549</ele>
        <time>2018-04-02T09:29:05Z</time>
      </trkpt>
      <trkpt lat="40.608441" lon="0.047038">
        <ele>686.053</ele>
        <time>2018-04-02T09:29:06Z</time>
      </trkpt>
      <trkpt lat="40.608506" lon="0.047053">
        <ele>686.061</ele>
        <time>2018-04-02T09:29:07Z</time>
      </trkpt>
      <trkpt lat="40.608562" lon="0.047091">
        <ele>686.089</ele>
        <time>2018-04-02T09:29:08Z</time>
      </trkpt>
      <trkpt lat="40.608608" lon="0.047145">
        <ele>686.082</ele>
        <time>2018-04-02T09:29:09Z</time>
      </trkpt>
      <trkpt lat="40.608703" lon="0.047279">
        <ele>686.079</ele>
        <time>2018-04-02T09:29:12Z</time>
      </trkpt>
      <trkpt lat="40.608720" lon="0.047312">
        <ele>686.019</ele>
        <time>2018-04-02T09:29:13Z</time>
      </trkpt>
      <trkpt lat="40.608727" lon="0.047337">
        <ele>687.426</ele>
        <time>2018-04-02T09:29:14Z</time>
      </trkpt>
      <trkpt lat="40.608729" lon="0.047368">
        <ele>687.447</ele>
        <time>2018-04-02T09:29:15Z</time>
      </trkpt>
      <trkpt lat="40.608726" lon="0.047392">
        <ele>687.911</ele>
        <time>2018-04-02T09:29:16Z</time>
      </trkpt>
      <trkpt lat="40.608716" lon="0.047411">
        <ele>688.408</ele>
        <time>2018-04-02T09:29:17Z</time>
      </trkpt>
      <trkpt lat="40.608700" lon="0.047425">
        <ele>688.445</ele>
        <time>2018-04-02T09:29:18Z</time>
      </trkpt>
      <trkpt lat="40.608683" lon="0.047434">
        <ele>688.942</ele>
        <time>2018-04-02T09:29:19Z</time>
      </trkpt>
      <trkpt lat="40.608666" lon="0.047443">
        <ele>689.486</ele>
        <time>2018-04-02T09:29:20Z</time>
      </trkpt>
      <trkpt lat="40.608651" lon="0.047454">
        <ele>689.414</ele>
        <time>2018-04-02T09:29:21Z</time>
      </trkpt>
      <trkpt lat="40.608528" lon="0.047503">
        <ele>692.752</ele>
        <time>2018-04-02T09:29:29Z</time>
      </trkpt>
      <trkpt lat="40.608407" lon="0.047586">
        <ele>696.685</ele>
        <time>2018-04-02T09:29:39Z</time>
      </trkpt>
      <trkpt lat="40.608365" lon="0.047676">
        <ele>698.592</ele>
        <time>2018-04-02T09:29:45Z</time>
      </trkpt>
      <trkpt lat="40.608363" lon="0.047693">
        <ele>698.592</ele>
        <time>2018-04-02T09:29:46Z</time>
      </trkpt>
      <trkpt lat="40.608360" lon="0.047709">
        <ele>699.021</ele>
        <time>2018-04-02T09:29:47Z</time>
      </trkpt>
      <trkpt lat="40.608354" lon="0.047724">
        <ele>699.041</ele>
        <time>2018-04-02T09:29:48Z</time>
      </trkpt>
      <trkpt lat="40.608346" lon="0.047739">
        <ele>699.505</ele>
        <time>2018-04-02T09:29:49Z</time>
      </trkpt>
      <trkpt lat="40.608336" lon="0.047754">
        <ele>699.908</ele>
        <time>2018-04-02T09:29:50Z</time>
      </trkpt>
      <trkpt lat="40.608327" lon="0.047765">
        <ele>699.985</ele>
        <time>2018-04-02T09:29:51Z</time>
      </trkpt>
      <trkpt lat="40.608317" lon="0.047777">
        <ele>700.482</ele>
        <time>2018-04-02T09:29:52Z</time>
      </trkpt>
      <trkpt lat="40.608308" lon="0.047791">
        <ele>700.436</ele>
        <time>2018-04-02T09:29:53Z</time>
      </trkpt>
      <trkpt lat="40.608300" lon="0.047806">
        <ele>700.934</ele>
        <time>2018-04-02T09:29:54Z</time>
      </trkpt>
      <trkpt lat="40.608294" lon="0.047819">
        <ele>700.982</ele>
        <time>2018-04-02T09:29:55Z</time>
      </trkpt>
      <trkpt lat="40.608286" lon="0.047832">
        <ele>700.935</ele>
        <time>2018-04-02T09:29:56Z</time>
      </trkpt>
      <trkpt lat="40.608277" lon="0.047845">
        <ele>701.422</ele>
        <time>2018-04-02T09:29:57Z</time>
      </trkpt>
      <trkpt lat="40.608178" lon="0.047975">
        <ele>704.722</ele>
        <time>2018-04-02T09:30:08Z</time>
      </trkpt>
      <trkpt lat="40.608099" lon="0.048111">
        <ele>706.738</ele>
        <time>2018-04-02T09:30:19Z</time>
      </trkpt>
      <trkpt lat="40.608095" lon="0.048126">
        <ele>707.670</ele>
        <time>2018-04-02T09:30:20Z</time>
      </trkpt>
      <trkpt lat="40.608087" lon="0.048139">
        <ele>707.617</ele>
        <time>2018-04-02T09:30:21Z</time>
      </trkpt>
      <trkpt lat="40.608079" lon="0.048150">
        <ele>708.608</ele>
        <time>2018-04-02T09:30:22Z</time>
      </trkpt>
      <trkpt lat="40.608069" lon="0.048160">
        <ele>708.626</ele>
        <time>2018-04-02T09:30:23Z</time>
      </trkpt>
      <trkpt lat="40.608060" lon="0.048169">
        <ele>709.163</ele>
        <time>2018-04-02T09:30:24Z</time>
      </trkpt>
      <trkpt lat="40.608050" lon="0.048182">
        <ele>709.147</ele>
        <time>2018-04-02T09:30:25Z</time>
      </trkpt>
      <trkpt lat="40.607947" lon="0.048248">
        <ele>711.985</ele>
        <time>2018-04-02T09:30:35Z</time>
      </trkpt>
      <trkpt lat="40.607914" lon="0.048263">
        <ele>712.953</ele>
        <time>2018-04-02T09:30:39Z</time>
      </trkpt>
      <trkpt lat="40.607790" lon="0.048391">
        <ele>715.836</ele>
        <time>2018-04-02T09:30:52Z</time>
      </trkpt>
      <trkpt lat="40.607764" lon="0.048421">
        <ele>716.883</ele>
        <time>2018-04-02T09:30:55Z</time>
      </trkpt>
      <trkpt lat="40.607758" lon="0.048435">
        <ele>716.823</ele>
        <time>2018-04-02T09:30:56Z</time>
      </trkpt>
      <trkpt lat="40.607748" lon="0.048445">
        <ele>716.876</ele>
        <time>2018-04-02T09:30:57Z</time>
      </trkpt>
      <trkpt lat="40.607735" lon="0.048449">
        <ele>717.790</ele>
        <time>2018-04-02T09:30:58Z</time>
      </trkpt>
      <trkpt lat="40.607722" lon="0.048450">
        <ele>717.719</ele>
        <time>2018-04-02T09:30:59Z</time>
      </trkpt>
      <trkpt lat="40.607710" lon="0.048449">
        <ele>718.208</ele>
        <time>2018-04-02T09:31:00Z</time>
      </trkpt>
      <trkpt lat="40.607699" lon="0.048449">
        <ele>717.710</ele>
        <time>2018-04-02T09:31:01Z</time>
      </trkpt>
      <trkpt lat="40.607688" lon="0.048451">
        <ele>718.737</ele>
        <time>2018-04-02T09:31:02Z</time>
      </trkpt>
      <trkpt lat="40.607606" lon="0.048486">
        <ele>720.141</ele>
        <time>2018-04-02T09:31:09Z</time>
      </trkpt>
      <trkpt lat="40.607596" lon="0.048483">
        <ele>720.129</ele>
        <time>2018-04-02T09:31:10Z</time>
      </trkpt>
      <trkpt lat="40.607586" lon="0.048483">
        <ele>720.627</ele>
        <time>2018-04-02T09:31:11Z</time>
      </trkpt>
      <trkpt lat="40.607577" lon="0.048490">
        <ele>720.610</ele>
        <time>2018-04-02T09:31:12Z</time>
      </trkpt>
      <trkpt lat="40.607569" lon="0.048502">
        <ele>721.177</ele>
        <time>2018-04-02T09:31:13Z</time>
      </trkpt>
      <trkpt lat="40.607563" lon="0.048516">
        <ele>721.117</ele>
        <time>2018-04-02T09:31:14Z</time>
      </trkpt>
      <trkpt lat="40.607560" lon="0.048531">
        <ele>721.153</ele>
        <time>2018-04-02T09:31:15Z</time>
      </trkpt>
      <trkpt lat="40.607559" lon="0.048546">
        <ele>721.604</ele>
        <time>2018-04-02T09:31:16Z</time>
      </trkpt>
      <trkpt lat="40.607559" lon="0.048559">
        <ele>721.614</ele>
        <time>2018-04-02T09:31:17Z</time>
      </trkpt>
      <trkpt lat="40.607559" lon="0.048580">
        <ele>722.008</ele>
        <time>2018-04-02T09:31:19Z</time>
      </trkpt>
      <trkpt lat="40.607566" lon="0.048590">
        <ele>722.088</ele>
        <time>2018-04-02T09:31:20Z</time>
      </trkpt>
      <trkpt lat="40.607574" lon="0.048601">
        <ele>722.595</ele>
        <time>2018-04-02T09:31:21Z</time>
      </trkpt>
      <trkpt lat="40.607584" lon="0.048610">
        <ele>722.559</ele>
        <time>2018-04-02T09:31:22Z</time>
      </trkpt>
      <trkpt lat="40.607595" lon="0.048619">
        <ele>722.557</ele>
        <time>2018-04-02T09:31:23Z</time>
      </trkpt>
      <trkpt lat="40.607604" lon="0.048628">
        <ele>723.045</ele>
        <time>2018-04-02T09:31:24Z</time>
      </trkpt>
      <trkpt lat="40.607615" lon="0.048638">
        <ele>723.068</ele>
        <time>2018-04-02T09:31:25Z</time>
      </trkpt>
      <trkpt lat="40.607627" lon="0.048644">
        <ele>723.555</ele>
        <time>2018-04-02T09:31:26Z</time>
      </trkpt>
      <trkpt lat="40.607647" lon="0.048660">
        <ele>724.025</ele>
        <time>2018-04-02T09:31:28Z</time>
      </trkpt>
      <trkpt lat="40.607659" lon="0.048662">
        <ele>724.047</ele>
        <time>2018-04-02T09:31:29Z</time>
      </trkpt>
      <trkpt lat="40.607671" lon="0.048661">
        <ele>724.429</ele>
        <time>2018-04-02T09:31:30Z</time>
      </trkpt>
      <trkpt lat="40.607683" lon="0.048661">
        <ele>724.421</ele>
        <time>2018-04-02T09:31:31Z</time>
      </trkpt>
      <trkpt lat="40.607694" lon="0.048664">
        <ele>724.408</ele>
        <time>2018-04-02T09:31:32Z</time>
      </trkpt>
      <trkpt lat="40.607706" lon="0.048669">
        <ele>724.937</ele>
        <time>2018-04-02T09:31:33Z</time>
      </trkpt>
      <trkpt lat="40.607720" lon="0.048670">
        <ele>724.944</ele>
        <time>2018-04-02T09:31:34Z</time>
      </trkpt>
      <trkpt lat="40.607734" lon="0.048668">
        <ele>724.958</ele>
        <time>2018-04-02T09:31:35Z</time>
      </trkpt>
      <trkpt lat="40.607954" lon="0.048618">
        <ele>728.396</ele>
        <time>2018-04-02T09:31:52Z</time>
      </trkpt>
      <trkpt lat="40.608121" lon="0.048568">
        <ele>731.234</ele>
        <time>2018-04-02T09:32:05Z</time>
      </trkpt>
      <trkpt lat="40.608342" lon="0.048506">
        <ele>733.697</ele>
        <time>2018-04-02T09:32:21Z</time>
      </trkpt>
      <trkpt lat="40.608455" lon="0.048512">
        <ele>736.034</ele>
        <time>2018-04-02T09:32:30Z</time>
      </trkpt>
      <trkpt lat="40.608466" lon="0.048518">
        <ele>736.594</ele>
        <time>2018-04-02T09:32:31Z</time>
      </trkpt>
      <trkpt lat="40.608477" lon="0.048526">
        <ele>736.554</ele>
        <time>2018-04-02T09:32:32Z</time>
      </trkpt>
      <trkpt lat="40.608489" lon="0.048539">
        <ele>736.956</ele>
        <time>2018-04-02T09:32:33Z</time>
      </trkpt>
      <trkpt lat="40.608499" lon="0.048550">
        <ele>736.911</ele>
        <time>2018-04-02T09:32:34Z</time>
      </trkpt>
      <trkpt lat="40.608507" lon="0.048562">
        <ele>737.408</ele>
        <time>2018-04-02T09:32:35Z</time>
      </trkpt>
      <trkpt lat="40.608446" lon="0.048704">
        <ele>740.358</ele>
        <time>2018-04-02T09:32:46Z</time>
      </trkpt>
      <trkpt lat="40.608165" lon="0.048828">
        <ele>743.785</ele>
        <time>2018-04-02T09:33:03Z</time>
      </trkpt>
      <trkpt lat="40.607945" lon="0.048931">
        <ele>747.079</ele>
        <time>2018-04-02T09:33:17Z</time>
      </trkpt>
      <trkpt lat="40.607705" lon="0.049076">
        <ele>750.487</ele>
        <time>2018-04-02T09:33:34Z</time>
      </trkpt>
      <trkpt lat="40.607517" lon="0.049222">
        <ele>753.365</ele>
        <time>2018-04-02T09:33:48Z</time>
      </trkpt>
      <trkpt lat="40.607360" lon="0.049269">
        <ele>756.678</ele>
        <time>2018-04-02T09:33:59Z</time>
      </trkpt>
      <trkpt lat="40.607153" lon="0.049282">
        <ele>759.175</ele>
        <time>2018-04-02T09:34:13Z</time>
      </trkpt>
      <trkpt lat="40.606839" lon="0.049258">
        <ele>760.525</ele>
        <time>2018-04-02T09:34:29Z</time>
      </trkpt>
      <trkpt lat="40.606660" lon="0.049574">
        <ele>762.945</ele>
        <time>2018-04-02T09:34:44Z</time>
      </trkpt>
      <trkpt lat="40.606624" lon="0.049869">
        <ele>764.847</ele>
        <time>2018-04-02T09:34:57Z</time>
      </trkpt>
      <trkpt lat="40.606689" lon="0.050046">
        <ele>764.811</ele>
        <time>2018-04-02T09:35:17Z</time>
      </trkpt>
      <trkpt lat="40.606985" lon="0.050053">
        <ele>765.308</ele>
        <time>2018-04-02T09:35:28Z</time>
      </trkpt>
      <trkpt lat="40.607361" lon="0.049855">
        <ele>765.817</ele>
        <time>2018-04-02T09:35:42Z</time>
      </trkpt>
      <trkpt lat="40.607718" lon="0.049737">
        <ele>766.714</ele>
        <time>2018-04-02T09:35:56Z</time>
      </trkpt>
      <trkpt lat="40.608049" lon="0.049683">
        <ele>765.388</ele>
        <time>2018-04-02T09:36:05Z</time>
      </trkpt>
      <trkpt lat="40.608095" lon="0.049679">
        <ele>764.846</ele>
        <time>2018-04-02T09:36:06Z</time>
      </trkpt>
      <trkpt lat="40.608141" lon="0.049669">
        <ele>764.844</ele>
        <time>2018-04-02T09:36:07Z</time>
      </trkpt>
      <trkpt lat="40.608185" lon="0.049657">
        <ele>764.867</ele>
        <time>2018-04-02T09:36:08Z</time>
      </trkpt>
      <trkpt lat="40.608375" lon="0.049567">
        <ele>766.394</ele>
        <time>2018-04-02T09:36:13Z</time>
      </trkpt>
      <trkpt lat="40.608516" lon="0.049581">
        <ele>766.764</ele>
        <time>2018-04-02T09:36:17Z</time>
      </trkpt>
      <trkpt lat="40.608589" lon="0.049653">
        <ele>766.795</ele>
        <time>2018-04-02T09:36:19Z</time>
      </trkpt>
      <trkpt lat="40.608620" lon="0.049702">
        <ele>766.749</ele>
        <time>2018-04-02T09:36:20Z</time>
      </trkpt>
      <trkpt lat="40.608645" lon="0.049761">
        <ele>765.323</ele>
        <time>2018-04-02T09:36:21Z</time>
      </trkpt>
      <trkpt lat="40.608693" lon="0.049891">
        <ele>764.308</ele>
        <time>2018-04-02T09:36:23Z</time>
      </trkpt>
      <trkpt lat="40.608725" lon="0.049948">
        <ele>764.342</ele>
        <time>2018-04-02T09:36:24Z</time>
      </trkpt>
      <trkpt lat="40.608764" lon="0.049997">
        <ele>763.999</ele>
        <time>2018-04-02T09:36:25Z</time>
      </trkpt>
      <trkpt lat="40.608808" lon="0.050033">
        <ele>762.913</ele>
        <time>2018-04-02T09:36:26Z</time>
      </trkpt>
      <trkpt lat="40.608860" lon="0.050047">
        <ele>762.441</ele>
        <time>2018-04-02T09:36:27Z</time>
      </trkpt>
      <trkpt lat="40.608911" lon="0.050037">
        <ele>761.929</ele>
        <time>2018-04-02T09:36:28Z</time>
      </trkpt>
      <trkpt lat="40.608955" lon="0.050011">
        <ele>761.982</ele>
        <time>2018-04-02T09:36:29Z</time>
      </trkpt>
      <trkpt lat="40.608993" lon="0.049979">
        <ele>761.929</ele>
        <time>2018-04-02T09:36:30Z</time>
      </trkpt>
      <trkpt lat="40.609021" lon="0.049941">
        <ele>761.969</ele>
        <time>2018-04-02T09:36:31Z</time>
      </trkpt>
      <trkpt lat="40.609045" lon="0.049901">
        <ele>761.965</ele>
        <time>2018-04-02T09:36:32Z</time>
      </trkpt>
      <trkpt lat="40.609069" lon="0.049860">
        <ele>761.968</ele>
        <time>2018-04-02T09:36:33Z</time>
      </trkpt>
      <trkpt lat="40.609095" lon="0.049824">
        <ele>761.514</ele>
        <time>2018-04-02T09:36:34Z</time>
      </trkpt>
      <trkpt lat="40.609122" lon="0.049788">
        <ele>761.508</ele>
        <time>2018-04-02T09:36:35Z</time>
      </trkpt>
      <trkpt lat="40.609485" lon="0.049481">
        <ele>761.969</ele>
        <time>2018-04-02T09:36:47Z</time>
      </trkpt>
      <trkpt lat="40.609892" lon="0.049125">
        <ele>759.556</ele>
        <time>2018-04-02T09:37:00Z</time>
      </trkpt>
      <trkpt lat="40.610156" lon="0.049013">
        <ele>759.560</ele>
        <time>2018-04-02T09:37:07Z</time>
      </trkpt>
      <trkpt lat="40.610199" lon="0.049023">
        <ele>759.538</ele>
        <time>2018-04-02T09:37:08Z</time>
      </trkpt>
      <trkpt lat="40.610528" lon="0.049097">
        <ele>758.696</ele>
        <time>2018-04-02T09:37:15Z</time>
      </trkpt>
      <trkpt lat="40.610852" lon="0.048965">
        <ele>761.589</ele>
        <time>2018-04-02T09:37:26Z</time>
      </trkpt>
      <trkpt lat="40.611038" lon="0.048746">
        <ele>764.336</ele>
        <time>2018-04-02T09:37:35Z</time>
      </trkpt>
      <trkpt lat="40.611172" lon="0.048468">
        <ele>765.336</ele>
        <time>2018-04-02T09:37:43Z</time>
      </trkpt>
      <trkpt lat="40.611184" lon="0.048413">
        <ele>765.344</ele>
        <time>2018-04-02T09:37:44Z</time>
      </trkpt>
      <trkpt lat="40.611193" lon="0.048345">
        <ele>763.405</ele>
        <time>2018-04-02T09:37:45Z</time>
      </trkpt>
      <trkpt lat="40.611247" lon="0.047942">
        <ele>761.515</ele>
        <time>2018-04-02T09:37:50Z</time>
      </trkpt>
      <trkpt lat="40.611268" lon="0.047867">
        <ele>761.508</ele>
        <time>2018-04-02T09:37:51Z</time>
      </trkpt>
      <trkpt lat="40.611319" lon="0.047734">
        <ele>760.097</ele>
        <time>2018-04-02T09:37:53Z</time>
      </trkpt>
      <trkpt lat="40.611352" lon="0.047672">
        <ele>759.544</ele>
        <time>2018-04-02T09:37:54Z</time>
      </trkpt>
      <trkpt lat="40.611394" lon="0.047609">
        <ele>759.128</ele>
        <time>2018-04-02T09:37:55Z</time>
      </trkpt>
      <trkpt lat="40.611448" lon="0.047549">
        <ele>757.626</ele>
        <time>2018-04-02T09:37:56Z</time>
      </trkpt>
      <trkpt lat="40.611509" lon="0.047497">
        <ele>757.134</ele>
        <time>2018-04-02T09:37:57Z</time>
      </trkpt>
      <trkpt lat="40.611571" lon="0.047449">
        <ele>755.797</ele>
        <time>2018-04-02T09:37:58Z</time>
      </trkpt>
      <trkpt lat="40.611689" lon="0.047355">
        <ele>753.894</ele>
        <time>2018-04-02T09:38:00Z</time>
      </trkpt>
      <trkpt lat="40.611753" lon="0.047327">
        <ele>752.394</ele>
        <time>2018-04-02T09:38:01Z</time>
      </trkpt>
      <trkpt lat="40.611821" lon="0.047330">
        <ele>751.885</ele>
        <time>2018-04-02T09:38:02Z</time>
      </trkpt>
      <trkpt lat="40.611891" lon="0.047356">
        <ele>751.489</ele>
        <time>2018-04-02T09:38:03Z</time>
      </trkpt>
      <trkpt lat="40.611957" lon="0.047389">
        <ele>751.417</ele>
        <time>2018-04-02T09:38:04Z</time>
      </trkpt>
      <trkpt lat="40.612022" lon="0.047422">
        <ele>751.408</ele>
        <time>2018-04-02T09:38:05Z</time>
      </trkpt>
      <trkpt lat="40.612534" lon="0.047664">
        <ele>751.841</ele>
        <time>2018-04-02T09:38:16Z</time>
      </trkpt>
      <trkpt lat="40.612615" lon="0.047709">
        <ele>752.858</ele>
        <time>2018-04-02T09:38:18Z</time>
      </trkpt>
      <trkpt lat="40.612721" lon="0.047804">
        <ele>752.822</ele>
        <time>2018-04-02T09:38:21Z</time>
      </trkpt>
      <trkpt lat="40.612755" lon="0.047840">
        <ele>752.840</ele>
        <time>2018-04-02T09:38:22Z</time>
      </trkpt>
      <trkpt lat="40.612828" lon="0.047914">
        <ele>752.818</ele>
        <time>2018-04-02T09:38:24Z</time>
      </trkpt>
      <trkpt lat="40.613129" lon="0.048270">
        <ele>752.821</ele>
        <time>2018-04-02T09:38:33Z</time>
      </trkpt>
      <trkpt lat="40.613513" lon="0.048427">
        <ele>752.848</ele>
        <time>2018-04-02T09:38:44Z</time>
      </trkpt>
      <trkpt lat="40.613551" lon="0.048402">
        <ele>752.858</ele>
        <time>2018-04-02T09:38:45Z</time>
      </trkpt>
      <trkpt lat="40.613586" lon="0.048368">
        <ele>752.877</ele>
        <time>2018-04-02T09:38:46Z</time>
      </trkpt>
      <trkpt lat="40.613617" lon="0.048330">
        <ele>752.861</ele>
        <time>2018-04-02T09:38:47Z</time>
      </trkpt>
      <trkpt lat="40.613636" lon="0.048295">
        <ele>752.827</ele>
        <time>2018-04-02T09:38:48Z</time>
      </trkpt>
      <trkpt lat="40.613651" lon="0.048259">
        <ele>752.808</ele>
        <time>2018-04-02T09:38:49Z</time>
      </trkpt>
      <trkpt lat="40.613660" lon="0.048226">
        <ele>752.880</ele>
        <time>2018-04-02T09:38:50Z</time>
      </trkpt>
      <trkpt lat="40.613611" lon="0.047991">
        <ele>755.727</ele>
        <time>2018-04-02T09:38:57Z</time>
      </trkpt>
      <trkpt lat="40.613440" lon="0.047711">
        <ele>758.681</ele>
        <time>2018-04-02T09:39:10Z</time>
      </trkpt>
      <trkpt lat="40.613364" lon="0.047532">
        <ele>760.599</ele>
        <time>2018-04-02T09:39:20Z</time>
      </trkpt>
      <trkpt lat="40.613266" lon="0.047356">
        <ele>763.997</ele>
        <time>2018-04-02T09:39:29Z</time>
      </trkpt>
      <trkpt lat="40.613252" lon="0.047337">
        <ele>763.910</ele>
        <time>2018-04-02T09:39:30Z</time>
      </trkpt>
      <trkpt lat="40.613106" lon="0.047180">
        <ele>766.747</ele>
        <time>2018-04-02T09:39:41Z</time>
      </trkpt>
      <trkpt lat="40.612849" lon="0.046945">
        <ele>770.147</ele>
        <time>2018-04-02T09:39:58Z</time>
      </trkpt>
      <trkpt lat="40.612706" lon="0.046744">
        <ele>774.045</ele>
        <time>2018-04-02T09:40:10Z</time>
      </trkpt>
      <trkpt lat="40.612554" lon="0.046558">
        <ele>777.347</ele>
        <time>2018-04-02T09:40:23Z</time>
      </trkpt>
      <trkpt lat="40.612333" lon="0.046399">
        <ele>780.711</ele>
        <time>2018-04-02T09:40:37Z</time>
      </trkpt>
      <trkpt lat="40.612192" lon="0.046123">
        <ele>782.608</ele>
        <time>2018-04-02T09:40:50Z</time>
      </trkpt>
      <trkpt lat="40.612067" lon="0.045994">
        <ele>786.057</ele>
        <time>2018-04-02T09:40:59Z</time>
      </trkpt>
      <trkpt lat="40.612051" lon="0.045988">
        <ele>786.544</ele>
        <time>2018-04-02T09:41:00Z</time>
      </trkpt>
      <trkpt lat="40.611987" lon="0.045932">
        <ele>787.998</ele>
        <time>2018-04-02T09:41:05Z</time>
      </trkpt>
      <trkpt lat="40.611980" lon="0.045910">
        <ele>787.996</ele>
        <time>2018-04-02T09:41:06Z</time>
      </trkpt>
      <trkpt lat="40.611975" lon="0.045890">
        <ele>788.434</ele>
        <time>2018-04-02T09:41:07Z</time>
      </trkpt>
      <trkpt lat="40.611975" lon="0.045866">
        <ele>788.477</ele>
        <time>2018-04-02T09:41:08Z</time>
      </trkpt>
      <trkpt lat="40.611978" lon="0.045843">
        <ele>788.964</ele>
        <time>2018-04-02T09:41:09Z</time>
      </trkpt>
      <trkpt lat="40.611952" lon="0.045501">
        <ele>790.324</ele>
        <time>2018-04-02T09:41:23Z</time>
      </trkpt>
      <trkpt lat="40.611992" lon="0.045231">
        <ele>792.751</ele>
        <time>2018-04-02T09:41:36Z</time>
      </trkpt>
      <trkpt lat="40.612189" lon="0.045148">
        <ele>794.101</ele>
        <time>2018-04-02T09:41:48Z</time>
      </trkpt>
      <trkpt lat="40.612304" lon="0.045394">
        <ele>797.011</ele>
        <time>2018-04-02T09:42:00Z</time>
      </trkpt>
      <trkpt lat="40.612303" lon="0.045578">
        <ele>798.508</ele>
        <time>2018-04-02T09:42:08Z</time>
      </trkpt>
      <trkpt lat="40.612514" lon="0.045917">
        <ele>801.888</ele>
        <time>2018-04-02T09:42:24Z</time>
      </trkpt>
      <trkpt lat="40.612699" lon="0.046121">
        <ele>805.225</ele>
        <time>2018-04-02T09:42:35Z</time>
      </trkpt>
      <trkpt lat="40.612939" lon="0.046261">
        <ele>809.019</ele>
        <time>2018-04-02T09:42:49Z</time>
      </trkpt>
      <trkpt lat="40.613112" lon="0.046296">
        <ele>812.447</ele>
        <time>2018-04-02T09:42:59Z</time>
      </trkpt>
      <trkpt lat="40.613397" lon="0.046298">
        <ele>815.325</ele>
        <time>2018-04-02T09:43:16Z</time>
      </trkpt>
      <trkpt lat="40.613395" lon="0.046011">
        <ele>817.758</ele>
        <time>2018-04-02T09:43:29Z</time>
      </trkpt>
      <trkpt lat="40.613502" lon="0.045734">
        <ele>819.135</ele>
        <time>2018-04-02T09:43:42Z</time>
      </trkpt>
      <trkpt lat="40.613660" lon="0.045646">
        <ele>821.525</ele>
        <time>2018-04-02T09:43:56Z</time>
      </trkpt>
      <trkpt lat="40.613680" lon="0.045628">
        <ele>822.013</ele>
        <time>2018-04-02T09:43:58Z</time>
      </trkpt>
      <trkpt lat="40.613699" lon="0.045621">
        <ele>822.043</ele>
        <time>2018-04-02T09:43:59Z</time>
      </trkpt>
      <trkpt lat="40.613717" lon="0.045610">
        <ele>822.007</ele>
        <time>2018-04-02T09:44:00Z</time>
      </trkpt>
      <trkpt lat="40.613735" lon="0.045599">
        <ele>822.508</ele>
        <time>2018-04-02T09:44:01Z</time>
      </trkpt>
      <trkpt lat="40.613753" lon="0.045588">
        <ele>822.564</ele>
        <time>2018-04-02T09:44:02Z</time>
      </trkpt>
      <trkpt lat="40.614085" lon="0.045372">
        <ele>825.911</ele>
        <time>2018-04-02T09:44:20Z</time>
      </trkpt>
      <trkpt lat="40.614308" lon="0.045164">
        <ele>829.255</ele>
        <time>2018-04-02T09:44:35Z</time>
      </trkpt>
      <trkpt lat="40.614462" lon="0.044985">
        <ele>832.623</ele>
        <time>2018-04-02T09:44:47Z</time>
      </trkpt>
      <trkpt lat="40.614662" lon="0.044723">
        <ele>836.021</ele>
        <time>2018-04-02T09:45:02Z</time>
      </trkpt>
      <trkpt lat="40.614723" lon="0.044595">
        <ele>837.954</ele>
        <time>2018-04-02T09:45:10Z</time>
      </trkpt>
      <trkpt lat="40.614729" lon="0.044579">
        <ele>837.921</ele>
        <time>2018-04-02T09:45:11Z</time>
      </trkpt>
      <trkpt lat="40.614734" lon="0.044562">
        <ele>837.981</ele>
        <time>2018-04-02T09:45:12Z</time>
      </trkpt>
      <trkpt lat="40.614741" lon="0.044539">
        <ele>837.997</ele>
        <time>2018-04-02T09:45:13Z</time>
      </trkpt>
      <trkpt lat="40.614752" lon="0.044516">
        <ele>838.423</ele>
        <time>2018-04-02T09:45:14Z</time>
      </trkpt>
      <trkpt lat="40.614763" lon="0.044496">
        <ele>838.825</ele>
        <time>2018-04-02T09:45:15Z</time>
      </trkpt>
      <trkpt lat="40.614870" lon="0.044289">
        <ele>842.208</ele>
        <time>2018-04-02T09:45:26Z</time>
      </trkpt>
      <trkpt lat="40.614943" lon="0.044088">
        <ele>844.132</ele>
        <time>2018-04-02T09:45:40Z</time>
      </trkpt>
      <trkpt lat="40.614996" lon="0.043952">
        <ele>845.659</ele>
        <time>2018-04-02T09:45:49Z</time>
      </trkpt>
      <trkpt lat="40.614998" lon="0.043932">
        <ele>846.183</ele>
        <time>2018-04-02T09:45:50Z</time>
      </trkpt>
      <trkpt lat="40.615003" lon="0.043913">
        <ele>846.161</ele>
        <time>2018-04-02T09:45:51Z</time>
      </trkpt>
      <trkpt lat="40.615010" lon="0.043893">
        <ele>846.149</ele>
        <time>2018-04-02T09:45:52Z</time>
      </trkpt>
      <trkpt lat="40.615015" lon="0.043877">
        <ele>846.122</ele>
        <time>2018-04-02T09:45:53Z</time>
      </trkpt>
      <trkpt lat="40.615073" lon="0.043564">
        <ele>848.529</ele>
        <time>2018-04-02T09:46:07Z</time>
      </trkpt>
      <trkpt lat="40.615088" lon="0.043191">
        <ele>851.879</ele>
        <time>2018-04-02T09:46:22Z</time>
      </trkpt>
      <trkpt lat="40.615139" lon="0.042895">
        <ele>855.233</ele>
        <time>2018-04-02T09:46:33Z</time>
      </trkpt>
      <trkpt lat="40.615233" lon="0.042573">
        <ele>857.623</ele>
        <time>2018-04-02T09:46:46Z</time>
      </trkpt>
      <trkpt lat="40.615278" lon="0.042130">
        <ele>859.015</ele>
        <time>2018-04-02T09:47:00Z</time>
      </trkpt>
      <trkpt lat="40.615220" lon="0.041776">
        <ele>861.908</ele>
        <time>2018-04-02T09:47:14Z</time>
      </trkpt>
      <trkpt lat="40.615204" lon="0.041769">
        <ele>861.946</ele>
        <time>2018-04-02T09:47:15Z</time>
      </trkpt>
      <trkpt lat="40.615189" lon="0.041761">
        <ele>861.923</ele>
        <time>2018-04-02T09:47:16Z</time>
      </trkpt>
      <trkpt lat="40.615173" lon="0.041750">
        <ele>861.917</ele>
        <time>2018-04-02T09:47:17Z</time>
      </trkpt>
      <trkpt lat="40.615158" lon="0.041740">
        <ele>862.455</ele>
        <time>2018-04-02T09:47:18Z</time>
      </trkpt>
      <trkpt lat="40.615141" lon="0.041731">
        <ele>862.463</ele>
        <time>2018-04-02T09:47:19Z</time>
      </trkpt>
      <trkpt lat="40.615123" lon="0.041722">
        <ele>863.466</ele>
        <time>2018-04-02T09:47:20Z</time>
      </trkpt>
      <trkpt lat="40.615011" lon="0.041656">
        <ele>864.893</ele>
        <time>2018-04-02T09:47:27Z</time>
      </trkpt>
      <trkpt lat="40.614999" lon="0.041635">
        <ele>865.833</ele>
        <time>2018-04-02T09:47:28Z</time>
      </trkpt>
      <trkpt lat="40.614990" lon="0.041613">
        <ele>865.872</ele>
        <time>2018-04-02T09:47:29Z</time>
      </trkpt>
      <trkpt lat="40.614982" lon="0.041567">
        <ele>866.713</ele>
        <time>2018-04-02T09:47:31Z</time>
      </trkpt>
      <trkpt lat="40.614980" lon="0.041521">
        <ele>867.214</ele>
        <time>2018-04-02T09:47:33Z</time>
      </trkpt>
      <trkpt lat="40.615015" lon="0.041418">
        <ele>869.608</ele>
        <time>2018-04-02T09:47:38Z</time>
      </trkpt>
      <trkpt lat="40.615090" lon="0.041229">
        <ele>873.090</ele>
        <time>2018-04-02T09:47:48Z</time>
      </trkpt>
      <trkpt lat="40.615167" lon="0.041046">
        <ele>876.397</ele>
        <time>2018-04-02T09:47:59Z</time>
      </trkpt>
      <trkpt lat="40.615239" lon="0.040857">
        <ele>879.261</ele>
        <time>2018-04-02T09:48:12Z</time>
      </trkpt>
      <trkpt lat="40.615298" lon="0.040654">
        <ele>882.689</ele>
        <time>2018-04-02T09:48:26Z</time>
      </trkpt>
      <trkpt lat="40.615309" lon="0.040606">
        <ele>883.167</ele>
        <time>2018-04-02T09:48:29Z</time>
      </trkpt>
      <trkpt lat="40.615337" lon="0.040496">
        <ele>884.510</ele>
        <time>2018-04-02T09:48:36Z</time>
      </trkpt>
      <trkpt lat="40.615359" lon="0.040435">
        <ele>885.587</ele>
        <time>2018-04-02T09:48:40Z</time>
      </trkpt>
      <trkpt lat="40.615431" lon="0.040204">
        <ele>888.837</ele>
        <time>2018-04-02T09:48:54Z</time>
      </trkpt>
      <trkpt lat="40.615529" lon="0.040016">
        <ele>891.794</ele>
        <time>2018-04-02T09:49:07Z</time>
      </trkpt>
      <trkpt lat="40.615592" lon="0.039725">
        <ele>894.657</ele>
        <time>2018-04-02T09:49:23Z</time>
      </trkpt>
      <trkpt lat="40.615616" lon="0.039451">
        <ele>898.022</ele>
        <time>2018-04-02T09:49:37Z</time>
      </trkpt>
      <trkpt lat="40.615630" lon="0.039181">
        <ele>901.308</ele>
        <time>2018-04-02T09:49:51Z</time>
      </trkpt>
      <trkpt lat="40.615629" lon="0.038824">
        <ele>904.212</ele>
        <time>2018-04-02T09:50:08Z</time>
      </trkpt>
      <trkpt lat="40.615674" lon="0.038515">
        <ele>907.619</ele>
        <time>2018-04-02T09:50:23Z</time>
      </trkpt>
      <trkpt lat="40.615718" lon="0.038253">
        <ele>910.963</ele>
        <time>2018-04-02T09:50:35Z</time>
      </trkpt>
      <trkpt lat="40.615808" lon="0.037916">
        <ele>913.891</ele>
        <time>2018-04-02T09:50:51Z</time>
      </trkpt>
      <trkpt lat="40.615839" lon="0.037832">
        <ele>914.859</ele>
        <time>2018-04-02T09:50:55Z</time>
      </trkpt>
      <trkpt lat="40.615942" lon="0.037654">
        <ele>915.732</ele>
        <time>2018-04-02T09:51:09Z</time>
      </trkpt>
      <trkpt lat="40.615968" lon="0.037647">
        <ele>915.729</ele>
        <time>2018-04-02T09:51:12Z</time>
      </trkpt>
      <trkpt lat="40.616024" lon="0.037615">
        <ele>916.229</ele>
        <time>2018-04-02T09:51:18Z</time>
      </trkpt>
      <trkpt lat="40.616110" lon="0.037632">
        <ele>917.757</ele>
        <time>2018-04-02T09:51:23Z</time>
      </trkpt>
      <trkpt lat="40.616131" lon="0.037653">
        <ele>917.700</ele>
        <time>2018-04-02T09:51:24Z</time>
      </trkpt>
      <trkpt lat="40.616143" lon="0.037670">
        <ele>918.220</ele>
        <time>2018-04-02T09:51:25Z</time>
      </trkpt>
      <trkpt lat="40.616155" lon="0.037693">
        <ele>918.208</ele>
        <time>2018-04-02T09:51:26Z</time>
      </trkpt>
      <trkpt lat="40.616165" lon="0.037714">
        <ele>919.178</ele>
        <time>2018-04-02T09:51:27Z</time>
      </trkpt>
      <trkpt lat="40.616174" lon="0.037738">
        <ele>919.655</ele>
        <time>2018-04-02T09:51:28Z</time>
      </trkpt>
      <trkpt lat="40.616233" lon="0.037928">
        <ele>923.019</ele>
        <time>2018-04-02T09:51:36Z</time>
      </trkpt>
      <trkpt lat="40.616364" lon="0.038141">
        <ele>926.377</ele>
        <time>2018-04-02T09:51:48Z</time>
      </trkpt>
      <trkpt lat="40.616495" lon="0.038286">
        <ele>929.785</ele>
        <time>2018-04-02T09:51:59Z</time>
      </trkpt>
      <trkpt lat="40.616746" lon="0.038401">
        <ele>932.198</ele>
        <time>2018-04-02T09:52:15Z</time>
      </trkpt>
      <trkpt lat="40.616890" lon="0.038486">
        <ele>935.055</ele>
        <time>2018-04-02T09:52:24Z</time>
      </trkpt>
      <trkpt lat="40.617018" lon="0.038558">
        <ele>937.995</ele>
        <time>2018-04-02T09:52:32Z</time>
      </trkpt>
      <trkpt lat="40.617117" lon="0.038596">
        <ele>939.396</ele>
        <time>2018-04-02T09:52:39Z</time>
      </trkpt>
      <trkpt lat="40.617131" lon="0.038596">
        <ele>939.331</ele>
        <time>2018-04-02T09:52:40Z</time>
      </trkpt>
      <trkpt lat="40.617147" lon="0.038593">
        <ele>939.824</ele>
        <time>2018-04-02T09:52:41Z</time>
      </trkpt>
      <trkpt lat="40.617348" lon="0.038499">
        <ele>943.108</ele>
        <time>2018-04-02T09:52:57Z</time>
      </trkpt>
      <trkpt lat="40.617549" lon="0.038347">
        <ele>946.082</ele>
        <time>2018-04-02T09:53:12Z</time>
      </trkpt>
      <trkpt lat="40.617774" lon="0.038347">
        <ele>949.479</ele>
        <time>2018-04-02T09:53:25Z</time>
      </trkpt>
      <trkpt lat="40.618006" lon="0.038329">
        <ele>952.873</ele>
        <time>2018-04-02T09:53:39Z</time>
      </trkpt>
      <trkpt lat="40.618290" lon="0.038228">
        <ele>956.151</ele>
        <time>2018-04-02T09:53:56Z</time>
      </trkpt>
      <trkpt lat="40.618644" lon="0.038049">
        <ele>958.049</ele>
        <time>2018-04-02T09:54:13Z</time>
      </trkpt>
      <trkpt lat="40.618947" lon="0.037726">
        <ele>961.472</ele>
        <time>2018-04-02T09:54:30Z</time>
      </trkpt>
      <trkpt lat="40.619231" lon="0.037401">
        <ele>963.869</ele>
        <time>2018-04-02T09:54:45Z</time>
      </trkpt>
      <trkpt lat="40.619474" lon="0.036978">
        <ele>965.349</ele>
        <time>2018-04-02T09:55:00Z</time>
      </trkpt>
      <trkpt lat="40.619721" lon="0.036743">
        <ele>965.369</ele>
        <time>2018-04-02T09:55:12Z</time>
      </trkpt>
      <trkpt lat="40.619999" lon="0.036499">
        <ele>965.304</ele>
        <time>2018-04-02T09:55:24Z</time>
      </trkpt>
      <trkpt lat="40.620070" lon="0.036445">
        <ele>964.824</ele>
        <time>2018-04-02T09:55:26Z</time>
      </trkpt>
      <trkpt lat="40.620205" lon="0.036351">
        <ele>963.308</ele>
        <time>2018-04-02T09:55:29Z</time>
      </trkpt>
      <trkpt lat="40.620339" lon="0.036219">
        <ele>961.939</ele>
        <time>2018-04-02T09:55:36Z</time>
      </trkpt>
      <trkpt lat="40.620477" lon="0.036079">
        <ele>960.916</ele>
        <time>2018-04-02T09:55:50Z</time>
      </trkpt>
      <trkpt lat="40.620609" lon="0.035893">
        <ele>959.560</ele>
        <time>2018-04-02T09:55:54Z</time>
      </trkpt>
      <trkpt lat="40.620639" lon="0.035825">
        <ele>958.528</ele>
        <time>2018-04-02T09:55:55Z</time>
      </trkpt>
      <trkpt lat="40.620662" lon="0.035744">
        <ele>957.616</ele>
        <time>2018-04-02T09:55:56Z</time>
      </trkpt>
      <trkpt lat="40.620676" lon="0.035652">
        <ele>957.199</ele>
        <time>2018-04-02T09:55:57Z</time>
      </trkpt>
      <trkpt lat="40.620685" lon="0.035560">
        <ele>956.696</ele>
        <time>2018-04-02T09:55:58Z</time>
      </trkpt>
      <trkpt lat="40.620723" lon="0.035319">
        <ele>956.696</ele>
        <time>2018-04-02T09:56:01Z</time>
      </trkpt>
      <trkpt lat="40.620822" lon="0.034977">
        <ele>959.545</ele>
        <time>2018-04-02T09:56:09Z</time>
      </trkpt>
      <trkpt lat="40.620878" lon="0.034717">
        <ele>962.947</ele>
        <time>2018-04-02T09:56:16Z</time>
      </trkpt>
      <trkpt lat="40.620848" lon="0.034323">
        <ele>966.211</ele>
        <time>2018-04-02T09:56:28Z</time>
      </trkpt>
      <trkpt lat="40.620838" lon="0.033829">
        <ele>966.208</ele>
        <time>2018-04-02T09:56:41Z</time>
      </trkpt>
      <trkpt lat="40.620843" lon="0.033609">
        <ele>965.317</ele>
        <time>2018-04-02T09:56:45Z</time>
      </trkpt>
      <trkpt lat="40.620975" lon="0.032969">
        <ele>962.494</ele>
        <time>2018-04-02T09:56:55Z</time>
      </trkpt>
      <trkpt lat="40.621083" lon="0.032625">
        <ele>960.418</ele>
        <time>2018-04-02T09:56:59Z</time>
      </trkpt>
      <trkpt lat="40.621094" lon="0.032529">
        <ele>959.576</ele>
        <time>2018-04-02T09:57:00Z</time>
      </trkpt>
      <trkpt lat="40.621096" lon="0.032432">
        <ele>959.554</ele>
        <time>2018-04-02T09:57:01Z</time>
      </trkpt>
      <trkpt lat="40.621068" lon="0.032089">
        <ele>959.517</ele>
        <time>2018-04-02T09:57:05Z</time>
      </trkpt>
      <trkpt lat="40.621056" lon="0.032022">
        <ele>959.524</ele>
        <time>2018-04-02T09:57:06Z</time>
      </trkpt>
      <trkpt lat="40.621042" lon="0.031962">
        <ele>959.594</ele>
        <time>2018-04-02T09:57:07Z</time>
      </trkpt>
      <trkpt lat="40.621027" lon="0.031913">
        <ele>959.521</ele>
        <time>2018-04-02T09:57:08Z</time>
      </trkpt>
      <trkpt lat="40.621010" lon="0.031863">
        <ele>959.541</ele>
        <time>2018-04-02T09:57:09Z</time>
      </trkpt>
      <trkpt lat="40.620978" lon="0.031758">
        <ele>959.505</ele>
        <time>2018-04-02T09:57:11Z</time>
      </trkpt>
      <trkpt lat="40.620971" lon="0.031697">
        <ele>959.508</ele>
        <time>2018-04-02T09:57:12Z</time>
      </trkpt>
      <trkpt lat="40.620974" lon="0.031630">
        <ele>959.555</ele>
        <time>2018-04-02T09:57:13Z</time>
      </trkpt>
      <trkpt lat="40.620985" lon="0.031560">
        <ele>959.522</ele>
        <time>2018-04-02T09:57:14Z</time>
      </trkpt>
      <trkpt lat="40.621000" lon="0.031486">
        <ele>959.076</ele>
        <time>2018-04-02T09:57:15Z</time>
      </trkpt>
      <trkpt lat="40.621018" lon="0.030570">
        <ele>957.114</ele>
        <time>2018-04-02T09:57:27Z</time>
      </trkpt>
      <trkpt lat="40.621018" lon="0.030448">
        <ele>958.532</ele>
        <time>2018-04-02T09:57:30Z</time>
      </trkpt>
      <trkpt lat="40.621006" lon="0.029847">
        <ele>958.585</ele>
        <time>2018-04-02T09:57:44Z</time>
      </trkpt>
      <trkpt lat="40.620988" lon="0.029525">
        <ele>961.952</ele>
        <time>2018-04-02T09:57:51Z</time>
      </trkpt>
      <trkpt lat="40.620913" lon="0.029076">
        <ele>964.312</ele>
        <time>2018-04-02T09:58:04Z</time>
      </trkpt>
      <trkpt lat="40.620682" lon="0.028717">
        <ele>965.795</ele>
        <time>2018-04-02T09:58:17Z</time>
      </trkpt>
      <trkpt lat="40.620333" lon="0.028207">
        <ele>969.149</ele>
        <time>2018-04-02T09:58:33Z</time>
      </trkpt>
      <trkpt lat="40.620105" lon="0.027700">
        <ele>970.523</ele>
        <time>2018-04-02T09:58:46Z</time>
      </trkpt>
      <trkpt lat="40.619982" lon="0.027134">
        <ele>972.508</ele>
        <time>2018-04-02T09:58:59Z</time>
      </trkpt>
      <trkpt lat="40.620131" lon="0.026589">
        <ele>971.582</ele>
        <time>2018-04-02T09:59:11Z</time>
      </trkpt>
      <trkpt lat="40.620158" lon="0.026544">
        <ele>970.549</ele>
        <time>2018-04-02T09:59:12Z</time>
      </trkpt>
      <trkpt lat="40.620462" lon="0.026155">
        <ele>967.743</ele>
        <time>2018-04-02T09:59:19Z</time>
      </trkpt>
      <trkpt lat="40.620496" lon="0.026093">
        <ele>967.711</ele>
        <time>2018-04-02T09:59:20Z</time>
      </trkpt>
      <trkpt lat="40.620523" lon="0.026025">
        <ele>967.799</ele>
        <time>2018-04-02T09:59:21Z</time>
      </trkpt>
      <trkpt lat="40.620547" lon="0.025952">
        <ele>967.752</ele>
        <time>2018-04-02T09:59:22Z</time>
      </trkpt>
      <trkpt lat="40.620566" lon="0.025873">
        <ele>966.769</ele>
        <time>2018-04-02T09:59:23Z</time>
      </trkpt>
      <trkpt lat="40.620587" lon="0.025789">
        <ele>966.289</ele>
        <time>2018-04-02T09:59:24Z</time>
      </trkpt>
      <trkpt lat="40.620613" lon="0.025713">
        <ele>965.735</ele>
        <time>2018-04-02T09:59:25Z</time>
      </trkpt>
      <trkpt lat="40.620644" lon="0.025641">
        <ele>965.786</ele>
        <time>2018-04-02T09:59:26Z</time>
      </trkpt>
      <trkpt lat="40.620679" lon="0.025574">
        <ele>965.714</ele>
        <time>2018-04-02T09:59:27Z</time>
      </trkpt>
      <trkpt lat="40.620721" lon="0.025514">
        <ele>965.308</ele>
        <time>2018-04-02T09:59:28Z</time>
      </trkpt>
      <trkpt lat="40.620766" lon="0.025464">
        <ele>965.786</ele>
        <time>2018-04-02T09:59:29Z</time>
      </trkpt>
      <trkpt lat="40.620812" lon="0.025417">
        <ele>965.313</ele>
        <time>2018-04-02T09:59:30Z</time>
      </trkpt>
      <trkpt lat="40.620866" lon="0.025369">
        <ele>964.387</ele>
        <time>2018-04-02T09:59:31Z</time>
      </trkpt>
      <trkpt lat="40.620928" lon="0.025320">
        <ele>964.365</ele>
        <time>2018-04-02T09:59:32Z</time>
      </trkpt>
      <trkpt lat="40.621030" lon="0.025216">
        <ele>962.943</ele>
        <time>2018-04-02T09:59:34Z</time>
      </trkpt>
      <trkpt lat="40.621063" lon="0.025150">
        <ele>962.926</ele>
        <time>2018-04-02T09:59:35Z</time>
      </trkpt>
      <trkpt lat="40.621082" lon="0.025073">
        <ele>962.433</ele>
        <time>2018-04-02T09:59:36Z</time>
      </trkpt>
      <trkpt lat="40.621093" lon="0.024994">
        <ele>962.453</ele>
        <time>2018-04-02T09:59:37Z</time>
      </trkpt>
      <trkpt lat="40.621105" lon="0.024916">
        <ele>961.921</ele>
        <time>2018-04-02T09:59:38Z</time>
      </trkpt>
      <trkpt lat="40.621126" lon="0.024840">
        <ele>961.441</ele>
        <time>2018-04-02T09:59:39Z</time>
      </trkpt>
      <trkpt lat="40.621154" lon="0.024765">
        <ele>960.905</ele>
        <time>2018-04-02T09:59:40Z</time>
      </trkpt>
      <trkpt lat="40.621191" lon="0.024683">
        <ele>960.408</ele>
        <time>2018-04-02T09:59:41Z</time>
      </trkpt>
      <trkpt lat="40.621229" lon="0.024604">
        <ele>960.035</ele>
        <time>2018-04-02T09:59:42Z</time>
      </trkpt>
      <trkpt lat="40.621349" lon="0.024316">
        <ele>957.632</ele>
        <time>2018-04-02T09:59:45Z</time>
      </trkpt>
      <trkpt lat="40.621370" lon="0.024196">
        <ele>956.646</ele>
        <time>2018-04-02T09:59:46Z</time>
      </trkpt>
      <trkpt lat="40.621380" lon="0.024058">
        <ele>955.664</ele>
        <time>2018-04-02T09:59:47Z</time>
      </trkpt>
      <trkpt lat="40.621385" lon="0.023937">
        <ele>955.642</ele>
        <time>2018-04-02T09:59:48Z</time>
      </trkpt>
      <trkpt lat="40.621396" lon="0.023818">
        <ele>954.725</ele>
        <time>2018-04-02T09:59:49Z</time>
      </trkpt>
      <trkpt lat="40.621417" lon="0.023706">
        <ele>954.742</ele>
        <time>2018-04-02T09:59:50Z</time>
      </trkpt>
      <trkpt lat="40.621443" lon="0.023603">
        <ele>954.252</ele>
        <time>2018-04-02T09:59:51Z</time>
      </trkpt>
      <trkpt lat="40.621562" lon="0.023243">
        <ele>954.295</ele>
        <time>2018-04-02T09:59:55Z</time>
      </trkpt>
      <trkpt lat="40.621605" lon="0.023169">
        <ele>954.749</ele>
        <time>2018-04-02T09:59:56Z</time>
      </trkpt>
      <trkpt lat="40.621792" lon="0.022915">
        <ele>952.823</ele>
        <time>2018-04-02T10:00:00Z</time>
      </trkpt>
      <trkpt lat="40.621853" lon="0.022862">
        <ele>951.308</ele>
        <time>2018-04-02T10:00:01Z</time>
      </trkpt>
      <trkpt lat="40.622015" lon="0.022741">
        <ele>949.992</ele>
        <time>2018-04-02T10:00:04Z</time>
      </trkpt>
      <trkpt lat="40.622065" lon="0.022690">
        <ele>948.979</ele>
        <time>2018-04-02T10:00:05Z</time>
      </trkpt>
      <trkpt lat="40.622156" lon="0.022575">
        <ele>948.023</ele>
        <time>2018-04-02T10:00:07Z</time>
      </trkpt>
      <trkpt lat="40.622197" lon="0.022504">
        <ele>948.041</ele>
        <time>2018-04-02T10:00:08Z</time>
      </trkpt>
      <trkpt lat="40.622356" lon="0.022177">
        <ele>945.189</ele>
        <time>2018-04-02T10:00:12Z</time>
      </trkpt>
      <trkpt lat="40.622413" lon="0.022106">
        <ele>944.662</ele>
        <time>2018-04-02T10:00:13Z</time>
      </trkpt>
      <trkpt lat="40.622478" lon="0.022042">
        <ele>943.689</ele>
        <time>2018-04-02T10:00:14Z</time>
      </trkpt>
      <trkpt lat="40.622541" lon="0.021979">
        <ele>943.179</ele>
        <time>2018-04-02T10:00:15Z</time>
      </trkpt>
      <trkpt lat="40.622597" lon="0.021905">
        <ele>942.768</ele>
        <time>2018-04-02T10:00:16Z</time>
      </trkpt>
      <trkpt lat="40.622648" lon="0.021822">
        <ele>941.742</ele>
        <time>2018-04-02T10:00:17Z</time>
      </trkpt>
      <trkpt lat="40.622698" lon="0.021735">
        <ele>941.726</ele>
        <time>2018-04-02T10:00:18Z</time>
      </trkpt>
      <trkpt lat="40.622754" lon="0.021652">
        <ele>940.708</ele>
        <time>2018-04-02T10:00:19Z</time>
      </trkpt>
      <trkpt lat="40.622937" lon="0.021425">
        <ele>936.919</ele>
        <time>2018-04-02T10:00:22Z</time>
      </trkpt>
      <trkpt lat="40.622994" lon="0.021337">
        <ele>935.966</ele>
        <time>2018-04-02T10:00:23Z</time>
      </trkpt>
      <trkpt lat="40.623144" lon="0.021095">
        <ele>933.520</ele>
        <time>2018-04-02T10:00:26Z</time>
      </trkpt>
      <trkpt lat="40.623197" lon="0.021030">
        <ele>932.158</ele>
        <time>2018-04-02T10:00:27Z</time>
      </trkpt>
      <trkpt lat="40.623256" lon="0.020971">
        <ele>931.166</ele>
        <time>2018-04-02T10:00:28Z</time>
      </trkpt>
      <trkpt lat="40.623322" lon="0.020921">
        <ele>930.249</ele>
        <time>2018-04-02T10:00:29Z</time>
      </trkpt>
      <trkpt lat="40.623391" lon="0.020879">
        <ele>928.716</ele>
        <time>2018-04-02T10:00:30Z</time>
      </trkpt>
      <trkpt lat="40.623462" lon="0.020837">
        <ele>927.896</ele>
        <time>2018-04-02T10:00:31Z</time>
      </trkpt>
      <trkpt lat="40.623530" lon="0.020789">
        <ele>926.883</ele>
        <time>2018-04-02T10:00:32Z</time>
      </trkpt>
      <trkpt lat="40.623600" lon="0.020732">
        <ele>924.925</ele>
        <time>2018-04-02T10:00:33Z</time>
      </trkpt>
      <trkpt lat="40.623668" lon="0.020668">
        <ele>923.417</ele>
        <time>2018-04-02T10:00:34Z</time>
      </trkpt>
      <trkpt lat="40.623730" lon="0.020599">
        <ele>922.508</ele>
        <time>2018-04-02T10:00:35Z</time>
      </trkpt>
      <trkpt lat="40.623789" lon="0.020526">
        <ele>921.061</ele>
        <time>2018-04-02T10:00:36Z</time>
      </trkpt>
      <trkpt lat="40.623898" lon="0.020393">
        <ele>918.618</ele>
        <time>2018-04-02T10:00:38Z</time>
      </trkpt>
      <trkpt lat="40.623954" lon="0.020341">
        <ele>917.742</ele>
        <time>2018-04-02T10:00:39Z</time>
      </trkpt>
      <trkpt lat="40.624036" lon="0.020264">
        <ele>914.860</ele>
        <time>2018-04-02T10:00:41Z</time>
      </trkpt>
      <trkpt lat="40.624055" lon="0.020223">
        <ele>913.838</ele>
        <time>2018-04-02T10:00:42Z</time>
      </trkpt>
      <trkpt lat="40.624056" lon="0.020179">
        <ele>913.371</ele>
        <time>2018-04-02T10:00:43Z</time>
      </trkpt>
      <trkpt lat="40.624034" lon="0.020143">
        <ele>912.998</ele>
        <time>2018-04-02T10:00:44Z</time>
      </trkpt>
      <trkpt lat="40.623994" lon="0.020121">
        <ele>912.438</ele>
        <time>2018-04-02T10:00:45Z</time>
      </trkpt>
      <trkpt lat="40.623948" lon="0.020116">
        <ele>912.987</ele>
        <time>2018-04-02T10:00:46Z</time>
      </trkpt>
      <trkpt lat="40.623900" lon="0.020124">
        <ele>911.942</ele>
        <time>2018-04-02T10:00:47Z</time>
      </trkpt>
      <trkpt lat="40.623859" lon="0.020131">
        <ele>911.926</ele>
        <time>2018-04-02T10:00:48Z</time>
      </trkpt>
      <trkpt lat="40.623821" lon="0.020126">
        <ele>911.408</ele>
        <time>2018-04-02T10:00:49Z</time>
      </trkpt>
      <trkpt lat="40.623783" lon="0.020108">
        <ele>910.571</ele>
        <time>2018-04-02T10:00:50Z</time>
      </trkpt>
      <trkpt lat="40.623749" lon="0.020084">
        <ele>910.048</ele>
        <time>2018-04-02T10:00:51Z</time>
      </trkpt>
      <trkpt lat="40.623726" lon="0.020048">
        <ele>909.052</ele>
        <time>2018-04-02T10:00:52Z</time>
      </trkpt>
      <trkpt lat="40.623717" lon="0.019998">
        <ele>908.110</ele>
        <time>2018-04-02T10:00:53Z</time>
      </trkpt>
      <trkpt lat="40.623725" lon="0.019941">
        <ele>907.688</ele>
        <time>2018-04-02T10:00:54Z</time>
      </trkpt>
      <trkpt lat="40.623752" lon="0.019885">
        <ele>906.611</ele>
        <time>2018-04-02T10:00:55Z</time>
      </trkpt>
      <trkpt lat="40.623794" lon="0.019835">
        <ele>905.738</ele>
        <time>2018-04-02T10:00:56Z</time>
      </trkpt>
      <trkpt lat="40.623844" lon="0.019798">
        <ele>905.218</ele>
        <time>2018-04-02T10:00:57Z</time>
      </trkpt>
      <trkpt lat="40.623898" lon="0.019768">
        <ele>904.294</ele>
        <time>2018-04-02T10:00:58Z</time>
      </trkpt>
      <trkpt lat="40.623959" lon="0.019739">
        <ele>902.857</ele>
        <time>2018-04-02T10:00:59Z</time>
      </trkpt>
      <trkpt lat="40.624179" lon="0.019656">
        <ele>898.922</ele>
        <time>2018-04-02T10:01:02Z</time>
      </trkpt>
      <trkpt lat="40.624401" lon="0.019585">
        <ele>895.108</ele>
        <time>2018-04-02T10:01:05Z</time>
      </trkpt>
      <trkpt lat="40.624546" lon="0.019539">
        <ele>892.232</ele>
        <time>2018-04-02T10:01:07Z</time>
      </trkpt>
      <trkpt lat="40.624793" lon="0.019471">
        <ele>888.439</ele>
        <time>2018-04-02T10:01:11Z</time>
      </trkpt>
      <trkpt lat="40.624841" lon="0.019463">
        <ele>887.433</ele>
        <time>2018-04-02T10:01:12Z</time>
      </trkpt>
      <trkpt lat="40.624882" lon="0.019444">
        <ele>886.911</ele>
        <time>2018-04-02T10:01:13Z</time>
      </trkpt>
      <trkpt lat="40.624913" lon="0.019414">
        <ele>885.989</ele>
        <time>2018-04-02T10:01:14Z</time>
      </trkpt>
      <trkpt lat="40.624932" lon="0.019379">
        <ele>885.542</ele>
        <time>2018-04-02T10:01:15Z</time>
      </trkpt>
      <trkpt lat="40.624938" lon="0.019342">
        <ele>885.089</ele>
        <time>2018-04-02T10:01:16Z</time>
      </trkpt>
      <trkpt lat="40.624913" lon="0.019273">
        <ele>883.559</ele>
        <time>2018-04-02T10:01:18Z</time>
      </trkpt>
      <trkpt lat="40.624879" lon="0.019246">
        <ele>883.139</ele>
        <time>2018-04-02T10:01:19Z</time>
      </trkpt>
      <trkpt lat="40.624844" lon="0.019231">
        <ele>882.601</ele>
        <time>2018-04-02T10:01:20Z</time>
      </trkpt>
      <trkpt lat="40.624804" lon="0.019218">
        <ele>882.621</ele>
        <time>2018-04-02T10:01:21Z</time>
      </trkpt>
      <trkpt lat="40.624716" lon="0.019175">
        <ele>880.208</ele>
        <time>2018-04-02T10:01:23Z</time>
      </trkpt>
      <trkpt lat="40.624675" lon="0.019144">
        <ele>879.286</ele>
        <time>2018-04-02T10:01:24Z</time>
      </trkpt>
      <trkpt lat="40.624640" lon="0.019110">
        <ele>878.783</ele>
        <time>2018-04-02T10:01:25Z</time>
      </trkpt>
      <trkpt lat="40.624619" lon="0.019073">
        <ele>877.857</ele>
        <time>2018-04-02T10:01:26Z</time>
      </trkpt>
      <trkpt lat="40.624605" lon="0.019035">
        <ele>877.395</ele>
        <time>2018-04-02T10:01:27Z</time>
      </trkpt>
      <trkpt lat="40.624605" lon="0.018992">
        <ele>877.383</ele>
        <time>2018-04-02T10:01:28Z</time>
      </trkpt>
      <trkpt lat="40.624623" lon="0.018947">
        <ele>876.376</ele>
        <time>2018-04-02T10:01:29Z</time>
      </trkpt>
      <trkpt lat="40.624659" lon="0.018904">
        <ele>875.473</ele>
        <time>2018-04-02T10:01:30Z</time>
      </trkpt>
      <trkpt lat="40.624711" lon="0.018868">
        <ele>874.963</ele>
        <time>2018-04-02T10:01:31Z</time>
      </trkpt>
      <trkpt lat="40.624776" lon="0.018851">
        <ele>873.976</ele>
        <time>2018-04-02T10:01:32Z</time>
      </trkpt>
      <trkpt lat="40.624846" lon="0.018845">
        <ele>873.090</ele>
        <time>2018-04-02T10:01:33Z</time>
      </trkpt>
      <trkpt lat="40.624919" lon="0.018840">
        <ele>872.519</ele>
        <time>2018-04-02T10:01:34Z</time>
      </trkpt>
      <trkpt lat="40.625244" lon="0.018840">
        <ele>869.608</ele>
        <time>2018-04-02T10:01:39Z</time>
      </trkpt>
      <trkpt lat="40.625355" lon="0.018843">
        <ele>868.270</ele>
        <time>2018-04-02T10:01:41Z</time>
      </trkpt>
      <trkpt lat="40.625397" lon="0.018821">
        <ele>867.767</ele>
        <time>2018-04-02T10:01:42Z</time>
      </trkpt>
      <trkpt lat="40.625427" lon="0.018784">
        <ele>867.251</ele>
        <time>2018-04-02T10:01:43Z</time>
      </trkpt>
      <trkpt lat="40.625440" lon="0.018735">
        <ele>866.239</ele>
        <time>2018-04-02T10:01:44Z</time>
      </trkpt>
      <trkpt lat="40.625432" lon="0.018680">
        <ele>865.897</ele>
        <time>2018-04-02T10:01:45Z</time>
      </trkpt>
      <trkpt lat="40.625408" lon="0.018631">
        <ele>865.320</ele>
        <time>2018-04-02T10:01:46Z</time>
      </trkpt>
      <trkpt lat="40.625372" lon="0.018583">
        <ele>864.877</ele>
        <time>2018-04-02T10:01:47Z</time>
      </trkpt>
      <trkpt lat="40.625331" lon="0.018535">
        <ele>863.897</ele>
        <time>2018-04-02T10:01:48Z</time>
      </trkpt>
      <trkpt lat="40.625292" lon="0.018479">
        <ele>862.917</ele>
        <time>2018-04-02T10:01:49Z</time>
      </trkpt>
      <trkpt lat="40.625259" lon="0.018420">
        <ele>862.487</ele>
        <time>2018-04-02T10:01:50Z</time>
      </trkpt>
      <trkpt lat="40.625235" lon="0.018354">
        <ele>861.915</ele>
        <time>2018-04-02T10:01:51Z</time>
      </trkpt>
      <trkpt lat="40.625222" lon="0.018285">
        <ele>861.008</ele>
        <time>2018-04-02T10:01:52Z</time>
      </trkpt>
      <trkpt lat="40.625224" lon="0.018220">
        <ele>860.074</ele>
        <time>2018-04-02T10:01:53Z</time>
      </trkpt>
      <trkpt lat="40.625241" lon="0.018161">
        <ele>859.091</ele>
        <time>2018-04-02T10:01:54Z</time>
      </trkpt>
      <trkpt lat="40.625266" lon="0.018109">
        <ele>858.525</ele>
        <time>2018-04-02T10:01:55Z</time>
      </trkpt>
      <trkpt lat="40.625297" lon="0.018061">
        <ele>858.143</ele>
        <time>2018-04-02T10:01:56Z</time>
      </trkpt>
      <trkpt lat="40.625331" lon="0.018011">
        <ele>857.111</ele>
        <time>2018-04-02T10:01:57Z</time>
      </trkpt>
      <trkpt lat="40.625395" lon="0.017908">
        <ele>856.184</ele>
        <time>2018-04-02T10:01:59Z</time>
      </trkpt>
      <trkpt lat="40.625421" lon="0.017862">
        <ele>855.271</ele>
        <time>2018-04-02T10:02:00Z</time>
      </trkpt>
      <trkpt lat="40.625524" lon="0.017713">
        <ele>853.371</ele>
        <time>2018-04-02T10:02:09Z</time>
      </trkpt>
      <trkpt lat="40.625526" lon="0.017696">
        <ele>853.775</ele>
        <time>2018-04-02T10:02:25Z</time>
      </trkpt>
      <trkpt lat="40.625542" lon="0.017660">
        <ele>853.728</ele>
        <time>2018-04-02T10:02:39Z</time>
      </trkpt>
      <trkpt lat="40.625702" lon="0.017291">
        <ele>853.720</ele>
        <time>2018-04-02T10:02:49Z</time>
      </trkpt>
      <trkpt lat="40.625718" lon="0.017243">
        <ele>853.708</ele>
        <time>2018-04-02T10:02:50Z</time>
      </trkpt>
      <trkpt lat="40.625801" lon="0.016932">
        <ele>853.760</ele>
        <time>2018-04-02T10:02:56Z</time>
      </trkpt>
      <trkpt lat="40.625814" lon="0.016873">
        <ele>853.737</ele>
        <time>2018-04-02T10:02:57Z</time>
      </trkpt>
      <trkpt lat="40.625828" lon="0.016814">
        <ele>853.771</ele>
        <time>2018-04-02T10:02:58Z</time>
      </trkpt>
      <trkpt lat="40.625874" lon="0.016573">
        <ele>853.749</ele>
        <time>2018-04-02T10:03:02Z</time>
      </trkpt>
      <trkpt lat="40.625880" lon="0.016513">
        <ele>853.767</ele>
        <time>2018-04-02T10:03:03Z</time>
      </trkpt>
      <trkpt lat="40.625887" lon="0.016455">
        <ele>853.760</ele>
        <time>2018-04-02T10:03:04Z</time>
      </trkpt>
      <trkpt lat="40.625896" lon="0.016398">
        <ele>853.727</ele>
        <time>2018-04-02T10:03:05Z</time>
      </trkpt>
      <trkpt lat="40.625904" lon="0.016341">
        <ele>853.737</ele>
        <time>2018-04-02T10:03:06Z</time>
      </trkpt>
      <trkpt lat="40.625920" lon="0.015973">
        <ele>853.797</ele>
        <time>2018-04-02T10:03:12Z</time>
      </trkpt>
      <trkpt lat="40.625911" lon="0.015914">
        <ele>853.723</ele>
        <time>2018-04-02T10:03:13Z</time>
      </trkpt>
      <trkpt lat="40.625839" lon="0.015338">
        <ele>855.725</ele>
        <time>2018-04-02T10:03:23Z</time>
      </trkpt>
      <trkpt lat="40.625844" lon="0.014851">
        <ele>858.108</ele>
        <time>2018-04-02T10:03:33Z</time>
      </trkpt>
      <trkpt lat="40.625846" lon="0.014796">
        <ele>858.172</ele>
        <time>2018-04-02T10:03:34Z</time>
      </trkpt>
      <trkpt lat="40.625876" lon="0.014526">
        <ele>861.089</ele>
        <time>2018-04-02T10:03:39Z</time>
      </trkpt>
      <trkpt lat="40.625852" lon="0.014197">
        <ele>864.883</ele>
        <time>2018-04-02T10:03:48Z</time>
      </trkpt>
      <trkpt lat="40.625742" lon="0.013825">
        <ele>868.281</ele>
        <time>2018-04-02T10:04:01Z</time>
      </trkpt>
      <trkpt lat="40.625804" lon="0.013363">
        <ele>869.669</ele>
        <time>2018-04-02T10:04:17Z</time>
      </trkpt>
      <trkpt lat="40.625927" lon="0.013084">
        <ele>873.072</ele>
        <time>2018-04-02T10:04:27Z</time>
      </trkpt>
      <trkpt lat="40.626092" lon="0.012597">
        <ele>875.449</ele>
        <time>2018-04-02T10:04:42Z</time>
      </trkpt>
      <trkpt lat="40.626175" lon="0.012098">
        <ele>876.879</ele>
        <time>2018-04-02T10:04:56Z</time>
      </trkpt>
      <trkpt lat="40.626262" lon="0.011499">
        <ele>879.287</ele>
        <time>2018-04-02T10:05:12Z</time>
      </trkpt>
      <trkpt lat="40.626261" lon="0.010827">
        <ele>881.142</ele>
        <time>2018-04-02T10:05:29Z</time>
      </trkpt>
      <trkpt lat="40.626271" lon="0.010228">
        <ele>881.626</ele>
        <time>2018-04-02T10:05:45Z</time>
      </trkpt>
      <trkpt lat="40.626295" lon="0.010189">
        <ele>881.608</ele>
        <time>2018-04-02T10:05:46Z</time>
      </trkpt>
      <trkpt lat="40.626394" lon="0.010067">
        <ele>880.291</ele>
        <time>2018-04-02T10:05:49Z</time>
      </trkpt>
      <trkpt lat="40.626432" lon="0.010006">
        <ele>879.248</ele>
        <time>2018-04-02T10:05:50Z</time>
      </trkpt>
      <trkpt lat="40.626470" lon="0.009923">
        <ele>877.372</ele>
        <time>2018-04-02T10:05:51Z</time>
      </trkpt>
      <trkpt lat="40.626498" lon="0.009825">
        <ele>876.830</ele>
        <time>2018-04-02T10:05:52Z</time>
      </trkpt>
      <trkpt lat="40.626510" lon="0.009729">
        <ele>876.848</ele>
        <time>2018-04-02T10:05:53Z</time>
      </trkpt>
      <trkpt lat="40.626506" lon="0.009647">
        <ele>876.811</ele>
        <time>2018-04-02T10:05:54Z</time>
      </trkpt>
      <trkpt lat="40.626489" lon="0.009586">
        <ele>877.828</ele>
        <time>2018-04-02T10:05:55Z</time>
      </trkpt>
      <trkpt lat="40.626467" lon="0.009543">
        <ele>878.728</ele>
        <time>2018-04-02T10:05:56Z</time>
      </trkpt>
      <trkpt lat="40.626441" lon="0.009501">
        <ele>879.252</ele>
        <time>2018-04-02T10:05:57Z</time>
      </trkpt>
      <trkpt lat="40.626409" lon="0.009428">
        <ele>880.253</ele>
        <time>2018-04-02T10:05:59Z</time>
      </trkpt>
      <trkpt lat="40.626315" lon="0.009141">
        <ele>883.508</ele>
        <time>2018-04-02T10:06:06Z</time>
      </trkpt>
      <trkpt lat="40.626363" lon="0.008909">
        <ele>886.408</ele>
        <time>2018-04-02T10:06:12Z</time>
      </trkpt>
      <trkpt lat="40.626639" lon="0.008504">
        <ele>887.918</ele>
        <time>2018-04-02T10:06:26Z</time>
      </trkpt>
      <trkpt lat="40.626678" lon="0.008465">
        <ele>886.985</ele>
        <time>2018-04-02T10:06:27Z</time>
      </trkpt>
      <trkpt lat="40.626717" lon="0.008420">
        <ele>886.939</ele>
        <time>2018-04-02T10:06:28Z</time>
      </trkpt>
      <trkpt lat="40.626749" lon="0.008362">
        <ele>886.457</ele>
        <time>2018-04-02T10:06:29Z</time>
      </trkpt>
      <trkpt lat="40.626769" lon="0.008299">
        <ele>886.435</ele>
        <time>2018-04-02T10:06:30Z</time>
      </trkpt>
      <trkpt lat="40.626773" lon="0.008230">
        <ele>885.978</ele>
        <time>2018-04-02T10:06:31Z</time>
      </trkpt>
      <trkpt lat="40.626762" lon="0.008165">
        <ele>885.985</ele>
        <time>2018-04-02T10:06:32Z</time>
      </trkpt>
      <trkpt lat="40.626719" lon="0.008023">
        <ele>885.985</ele>
        <time>2018-04-02T10:06:35Z</time>
      </trkpt>
      <trkpt lat="40.626731" lon="0.007716">
        <ele>887.472</ele>
        <time>2018-04-02T10:06:42Z</time>
      </trkpt>
      <trkpt lat="40.627028" lon="0.007002">
        <ele>887.913</ele>
        <time>2018-04-02T10:06:58Z</time>
      </trkpt>
      <trkpt lat="40.627088" lon="0.006862">
        <ele>887.914</ele>
        <time>2018-04-02T10:07:01Z</time>
      </trkpt>
      <trkpt lat="40.627107" lon="0.006813">
        <ele>887.908</ele>
        <time>2018-04-02T10:07:02Z</time>
      </trkpt>
      <trkpt lat="40.627128" lon="0.006770">
        <ele>887.940</ele>
        <time>2018-04-02T10:07:03Z</time>
      </trkpt>
      <trkpt lat="40.627281" lon="0.006195">
        <ele>890.387</ele>
        <time>2018-04-02T10:07:17Z</time>
      </trkpt>
      <trkpt lat="40.627383" lon="0.005914">
        <ele>890.821</ele>
        <time>2018-04-02T10:07:24Z</time>
      </trkpt>
      <trkpt lat="40.627535" lon="0.005722">
        <ele>890.849</ele>
        <time>2018-04-02T10:07:29Z</time>
      </trkpt>
      <trkpt lat="40.627558" lon="0.005675">
        <ele>890.857</ele>
        <time>2018-04-02T10:07:30Z</time>
      </trkpt>
      <trkpt lat="40.627578" lon="0.005628">
        <ele>890.810</ele>
        <time>2018-04-02T10:07:31Z</time>
      </trkpt>
      <trkpt lat="40.627596" lon="0.005578">
        <ele>890.857</ele>
        <time>2018-04-02T10:07:32Z</time>
      </trkpt>
      <trkpt lat="40.627612" lon="0.005527">
        <ele>891.267</ele>
        <time>2018-04-02T10:07:33Z</time>
      </trkpt>
      <trkpt lat="40.627829" lon="0.004831">
        <ele>892.259</ele>
        <time>2018-04-02T10:07:49Z</time>
      </trkpt>
      <trkpt lat="40.627828" lon="0.004829">
        <ele>892.703</ele>
        <time>2018-04-02T10:08:09Z</time>
      </trkpt>
      <trkpt lat="40.627834" lon="0.004826">
        <ele>892.723</ele>
        <time>2018-04-02T10:08:50Z</time>
      </trkpt>
      <trkpt lat="40.627822" lon="0.004834">
        <ele>892.708</ele>
        <time>2018-04-02T10:09:24Z</time>
      </trkpt>
      <trkpt lat="40.627825" lon="0.004818">
        <ele>892.748</ele>
        <time>2018-04-02T10:09:58Z</time>
      </trkpt>
      <trkpt lat="40.627828" lon="0.004838">
        <ele>892.735</ele>
        <time>2018-04-02T10:10:29Z</time>
      </trkpt>
      <trkpt lat="40.627864" lon="0.004631">
        <ele>891.229</ele>
        <time>2018-04-02T10:10:41Z</time>
      </trkpt>
      <trkpt lat="40.627939" lon="0.004419">
        <ele>889.317</ele>
        <time>2018-04-02T10:10:44Z</time>
      </trkpt>
      <trkpt lat="40.627960" lon="0.004336">
        <ele>888.885</ele>
        <time>2018-04-02T10:10:45Z</time>
      </trkpt>
      <trkpt lat="40.628028" lon="0.004009">
        <ele>890.398</ele>
        <time>2018-04-02T10:10:50Z</time>
      </trkpt>
      <trkpt lat="40.628119" lon="0.003642">
        <ele>893.275</ele>
        <time>2018-04-02T10:10:57Z</time>
      </trkpt>
      <trkpt lat="40.628172" lon="0.003332">
        <ele>897.075</ele>
        <time>2018-04-02T10:11:05Z</time>
      </trkpt>
      <trkpt lat="40.628214" lon="0.003040">
        <ele>899.982</ele>
        <time>2018-04-02T10:11:14Z</time>
      </trkpt>
      <trkpt lat="40.628254" lon="0.002711">
        <ele>902.843</ele>
        <time>2018-04-02T10:11:26Z</time>
      </trkpt>
      <trkpt lat="40.628276" lon="0.002471">
        <ele>906.117</ele>
        <time>2018-04-02T10:11:35Z</time>
      </trkpt>
      <trkpt lat="40.628321" lon="0.002123">
        <ele>909.008</ele>
        <time>2018-04-02T10:11:50Z</time>
      </trkpt>
      <trkpt lat="40.628422" lon="0.001790">
        <ele>911.981</ele>
        <time>2018-04-02T10:12:05Z</time>
      </trkpt>
      <trkpt lat="40.628587" lon="0.001474">
        <ele>914.878</ele>
        <time>2018-04-02T10:12:21Z</time>
      </trkpt>
      <trkpt lat="40.628592" lon="0.001440">
        <ele>914.392</ele>
        <time>2018-04-02T10:12:22Z</time>
      </trkpt>
      <trkpt lat="40.628587" lon="0.001406">
        <ele>914.330</ele>
        <time>2018-04-02T10:12:23Z</time>
      </trkpt>
      <trkpt lat="40.628574" lon="0.001380">
        <ele>914.858</ele>
        <time>2018-04-02T10:12:24Z</time>
      </trkpt>
      <trkpt lat="40.628555" lon="0.001357">
        <ele>915.311</ele>
        <time>2018-04-02T10:12:25Z</time>
      </trkpt>
      <trkpt lat="40.628533" lon="0.001340">
        <ele>915.358</ele>
        <time>2018-04-02T10:12:26Z</time>
      </trkpt>
      <trkpt lat="40.628315" lon="0.001023">
        <ele>918.698</ele>
        <time>2018-04-02T10:12:39Z</time>
      </trkpt>
      <trkpt lat="40.628140" lon="0.000643">
        <ele>920.684</ele>
        <time>2018-04-02T10:12:53Z</time>
      </trkpt>
      <trkpt lat="40.628035" lon="0.000280">
        <ele>923.007</ele>
        <time>2018-04-02T10:13:05Z</time>
      </trkpt>
      <trkpt lat="40.627894" lon="-0.000104">
        <ele>926.317</ele>
        <time>2018-04-02T10:13:18Z</time>
      </trkpt>
      <trkpt lat="40.627549" lon="-0.000412">
        <ele>927.308</ele>
        <time>2018-04-02T10:13:33Z</time>
      </trkpt>
      <trkpt lat="40.627366" lon="-0.000598">
        <ele>927.381</ele>
        <time>2018-04-02T10:13:42Z</time>
      </trkpt>
      <trkpt lat="40.627340" lon="-0.000586">
        <ele>927.368</ele>
        <time>2018-04-02T10:13:43Z</time>
      </trkpt>
      <trkpt lat="40.627322" lon="-0.000563">
        <ele>927.372</ele>
        <time>2018-04-02T10:13:44Z</time>
      </trkpt>
      <trkpt lat="40.627307" lon="-0.000537">
        <ele>927.310</ele>
        <time>2018-04-02T10:13:45Z</time>
      </trkpt>
      <trkpt lat="40.627298" lon="-0.000505">
        <ele>928.758</ele>
        <time>2018-04-02T10:13:46Z</time>
      </trkpt>
      <trkpt lat="40.627297" lon="-0.000477">
        <ele>929.271</ele>
        <time>2018-04-02T10:13:47Z</time>
      </trkpt>
      <trkpt lat="40.627294" lon="-0.000450">
        <ele>929.228</ele>
        <time>2018-04-02T10:13:48Z</time>
      </trkpt>
      <trkpt lat="40.627290" lon="-0.000420">
        <ele>929.768</ele>
        <time>2018-04-02T10:13:49Z</time>
      </trkpt>
      <trkpt lat="40.627277" lon="-0.000360">
        <ele>929.739</ele>
        <time>2018-04-02T10:13:51Z</time>
      </trkpt>
      <trkpt lat="40.627264" lon="-0.000335">
        <ele>930.201</ele>
        <time>2018-04-02T10:13:52Z</time>
      </trkpt>
      <trkpt lat="40.627246" lon="-0.000311">
        <ele>930.221</ele>
        <time>2018-04-02T10:13:53Z</time>
      </trkpt>
      <trkpt lat="40.627227" lon="-0.000296">
        <ele>930.208</ele>
        <time>2018-04-02T10:13:54Z</time>
      </trkpt>
      <trkpt lat="40.627206" lon="-0.000282">
        <ele>930.296</ele>
        <time>2018-04-02T10:13:55Z</time>
      </trkpt>
      <trkpt lat="40.627184" lon="-0.000278">
        <ele>930.683</ele>
        <time>2018-04-02T10:13:56Z</time>
      </trkpt>
      <trkpt lat="40.627163" lon="-0.000283">
        <ele>931.187</ele>
        <time>2018-04-02T10:13:57Z</time>
      </trkpt>
      <trkpt lat="40.627142" lon="-0.000298">
        <ele>931.145</ele>
        <time>2018-04-02T10:13:58Z</time>
      </trkpt>
      <trkpt lat="40.627125" lon="-0.000312">
        <ele>931.113</ele>
        <time>2018-04-02T10:13:59Z</time>
      </trkpt>
      <trkpt lat="40.627108" lon="-0.000348">
        <ele>931.636</ele>
        <time>2018-04-02T10:14:01Z</time>
      </trkpt>
      <trkpt lat="40.627099" lon="-0.000704">
        <ele>935.543</ele>
        <time>2018-04-02T10:14:16Z</time>
      </trkpt>
      <trkpt lat="40.627098" lon="-0.000727">
        <ele>935.953</ele>
        <time>2018-04-02T10:14:17Z</time>
      </trkpt>
      <trkpt lat="40.627094" lon="-0.000751">
        <ele>935.934</ele>
        <time>2018-04-02T10:14:18Z</time>
      </trkpt>
      <trkpt lat="40.627090" lon="-0.000773">
        <ele>936.955</ele>
        <time>2018-04-02T10:14:19Z</time>
      </trkpt>
      <trkpt lat="40.627084" lon="-0.000796">
        <ele>936.910</ele>
        <time>2018-04-02T10:14:20Z</time>
      </trkpt>
      <trkpt lat="40.627076" lon="-0.000819">
        <ele>937.408</ele>
        <time>2018-04-02T10:14:21Z</time>
      </trkpt>
      <trkpt lat="40.627004" lon="-0.001062">
        <ele>940.716</ele>
        <time>2018-04-02T10:14:33Z</time>
      </trkpt>
      <trkpt lat="40.626930" lon="-0.001340">
        <ele>944.153</ele>
        <time>2018-04-02T10:14:47Z</time>
      </trkpt>
      <trkpt lat="40.626856" lon="-0.001608">
        <ele>947.537</ele>
        <time>2018-04-02T10:15:00Z</time>
      </trkpt>
      <trkpt lat="40.626806" lon="-0.001832">
        <ele>950.855</ele>
        <time>2018-04-02T10:15:11Z</time>
      </trkpt>
      <trkpt lat="40.626758" lon="-0.002079">
        <ele>954.233</ele>
        <time>2018-04-02T10:15:23Z</time>
      </trkpt>
      <trkpt lat="40.626763" lon="-0.002344">
        <ele>956.676</ele>
        <time>2018-04-02T10:15:35Z</time>
      </trkpt>
      <trkpt lat="40.626805" lon="-0.002645">
        <ele>960.023</ele>
        <time>2018-04-02T10:15:49Z</time>
      </trkpt>
      <trkpt lat="40.626884" lon="-0.002911">
        <ele>961.493</ele>
        <time>2018-04-02T10:16:03Z</time>
      </trkpt>
      <trkpt lat="40.626899" lon="-0.002928">
        <ele>961.448</ele>
        <time>2018-04-02T10:16:04Z</time>
      </trkpt>
      <trkpt lat="40.626921" lon="-0.002944">
        <ele>961.461</ele>
        <time>2018-04-02T10:16:05Z</time>
      </trkpt>
      <trkpt lat="40.626947" lon="-0.002954">
        <ele>961.417</ele>
        <time>2018-04-02T10:16:06Z</time>
      </trkpt>
      <trkpt lat="40.626976" lon="-0.002954">
        <ele>961.408</ele>
        <time>2018-04-02T10:16:07Z</time>
      </trkpt>
      <trkpt lat="40.627001" lon="-0.002946">
        <ele>961.427</ele>
        <time>2018-04-02T10:16:08Z</time>
      </trkpt>
      <trkpt lat="40.627023" lon="-0.002934">
        <ele>961.454</ele>
        <time>2018-04-02T10:16:09Z</time>
      </trkpt>
      <trkpt lat="40.627254" lon="-0.002765">
        <ele>964.898</ele>
        <time>2018-04-02T10:16:23Z</time>
      </trkpt>
      <trkpt lat="40.627517" lon="-0.002608">
        <ele>968.696</ele>
        <time>2018-04-02T10:16:38Z</time>
      </trkpt>
      <trkpt lat="40.627829" lon="-0.002575">
        <ele>969.674</ele>
        <time>2018-04-02T10:16:51Z</time>
      </trkpt>
      <trkpt lat="40.628192" lon="-0.002758">
        <ele>969.647</ele>
        <time>2018-04-02T10:17:03Z</time>
      </trkpt>
      <trkpt lat="40.628540" lon="-0.002889">
        <ele>972.524</ele>
        <time>2018-04-02T10:17:16Z</time>
      </trkpt>
      <trkpt lat="40.628508" lon="-0.003152">
        <ele>974.924</ele>
        <time>2018-04-02T10:17:27Z</time>
      </trkpt>
      <trkpt lat="40.628259" lon="-0.003342">
        <ele>975.353</ele>
        <time>2018-04-02T10:17:39Z</time>
      </trkpt>
      <trkpt lat="40.627847" lon="-0.003813">
        <ele>978.204</ele>
        <time>2018-04-02T10:17:58Z</time>
      </trkpt>
      <trkpt lat="40.627602" lon="-0.004157">
        <ele>982.114</ele>
        <time>2018-04-02T10:18:13Z</time>
      </trkpt>
      <trkpt lat="40.627483" lon="-0.004475">
        <ele>985.008</ele>
        <time>2018-04-02T10:18:25Z</time>
      </trkpt>
      <trkpt lat="40.627303" lon="-0.004594">
        <ele>988.388</ele>
        <time>2018-04-02T10:18:36Z</time>
      </trkpt>
      <trkpt lat="40.627250" lon="-0.004577">
        <ele>988.355</ele>
        <time>2018-04-02T10:18:39Z</time>
      </trkpt>
      <trkpt lat="40.627230" lon="-0.004560">
        <ele>988.329</ele>
        <time>2018-04-02T10:18:40Z</time>
      </trkpt>
      <trkpt lat="40.627214" lon="-0.004542">
        <ele>988.317</ele>
        <time>2018-04-02T10:18:41Z</time>
      </trkpt>
      <trkpt lat="40.627199" lon="-0.004522">
        <ele>989.375</ele>
        <time>2018-04-02T10:18:42Z</time>
      </trkpt>
      <trkpt lat="40.627185" lon="-0.004504">
        <ele>988.898</ele>
        <time>2018-04-02T10:18:43Z</time>
      </trkpt>
      <trkpt lat="40.627173" lon="-0.004482">
        <ele>989.385</ele>
        <time>2018-04-02T10:18:44Z</time>
      </trkpt>
      <trkpt lat="40.627162" lon="-0.004461">
        <ele>989.355</ele>
        <time>2018-04-02T10:18:45Z</time>
      </trkpt>
      <trkpt lat="40.626891" lon="-0.004387">
        <ele>992.268</ele>
        <time>2018-04-02T10:19:00Z</time>
      </trkpt>
      <trkpt lat="40.626621" lon="-0.004535">
        <ele>994.642</ele>
        <time>2018-04-02T10:19:15Z</time>
      </trkpt>
      <trkpt lat="40.626480" lon="-0.004322">
        <ele>997.526</ele>
        <time>2018-04-02T10:19:24Z</time>
      </trkpt>
      <trkpt lat="40.626301" lon="-0.003974">
        <ele>999.408</ele>
        <time>2018-04-02T10:19:39Z</time>
      </trkpt>
      <trkpt lat="40.626224" lon="-0.003676">
        <ele>997.059</ele>
        <time>2018-04-02T10:19:47Z</time>
      </trkpt>
      <trkpt lat="40.626026" lon="-0.003453">
        <ele>993.656</ele>
        <time>2018-04-02T10:19:55Z</time>
      </trkpt>
      <trkpt lat="40.625982" lon="-0.003467">
        <ele>993.170</ele>
        <time>2018-04-02T10:19:56Z</time>
      </trkpt>
      <trkpt lat="40.625939" lon="-0.003495">
        <ele>992.778</ele>
        <time>2018-04-02T10:19:57Z</time>
      </trkpt>
      <trkpt lat="40.625842" lon="-0.003569">
        <ele>991.716</ele>
        <time>2018-04-02T10:19:59Z</time>
      </trkpt>
      <trkpt lat="40.625612" lon="-0.003687">
        <ele>988.849</ele>
        <time>2018-04-02T10:20:03Z</time>
      </trkpt>
      <trkpt lat="40.625546" lon="-0.003681">
        <ele>988.346</ele>
        <time>2018-04-02T10:20:04Z</time>
      </trkpt>
      <trkpt lat="40.625486" lon="-0.003656">
        <ele>988.366</ele>
        <time>2018-04-02T10:20:05Z</time>
      </trkpt>
      <trkpt lat="40.625442" lon="-0.003623">
        <ele>988.342</ele>
        <time>2018-04-02T10:20:06Z</time>
      </trkpt>
      <trkpt lat="40.625413" lon="-0.003587">
        <ele>990.322</ele>
        <time>2018-04-02T10:20:07Z</time>
      </trkpt>
      <trkpt lat="40.625390" lon="-0.003556">
        <ele>990.714</ele>
        <time>2018-04-02T10:20:08Z</time>
      </trkpt>
      <trkpt lat="40.625369" lon="-0.003524">
        <ele>990.308</ele>
        <time>2018-04-02T10:20:09Z</time>
      </trkpt>
      <trkpt lat="40.625173" lon="-0.003332">
        <ele>990.767</ele>
        <time>2018-04-02T10:20:16Z</time>
      </trkpt>
      <trkpt lat="40.625142" lon="-0.003293">
        <ele>990.764</ele>
        <time>2018-04-02T10:20:17Z</time>
      </trkpt>
      <trkpt lat="40.625117" lon="-0.003248">
        <ele>990.758</ele>
        <time>2018-04-02T10:20:18Z</time>
      </trkpt>
      <trkpt lat="40.624866" lon="-0.002798">
        <ele>991.766</ele>
        <time>2018-04-02T10:20:30Z</time>
      </trkpt>
      <trkpt lat="40.624321" lon="-0.002372">
        <ele>991.714</ele>
        <time>2018-04-02T10:20:44Z</time>
      </trkpt>
      <trkpt lat="40.624289" lon="-0.002323">
        <ele>991.797</ele>
        <time>2018-04-02T10:20:45Z</time>
      </trkpt>
      <trkpt lat="40.624267" lon="-0.002266">
        <ele>991.794</ele>
        <time>2018-04-02T10:20:46Z</time>
      </trkpt>
      <trkpt lat="40.624256" lon="-0.002205">
        <ele>990.364</ele>
        <time>2018-04-02T10:20:47Z</time>
      </trkpt>
      <trkpt lat="40.624252" lon="-0.002147">
        <ele>990.358</ele>
        <time>2018-04-02T10:20:48Z</time>
      </trkpt>
      <trkpt lat="40.624250" lon="-0.002091">
        <ele>990.352</ele>
        <time>2018-04-02T10:20:49Z</time>
      </trkpt>
      <trkpt lat="40.624251" lon="-0.002035">
        <ele>990.317</ele>
        <time>2018-04-02T10:20:50Z</time>
      </trkpt>
      <trkpt lat="40.624262" lon="-0.001922">
        <ele>990.308</ele>
        <time>2018-04-02T10:20:52Z</time>
      </trkpt>
      <trkpt lat="40.624308" lon="-0.001500">
        <ele>991.758</ele>
        <time>2018-04-02T10:21:00Z</time>
      </trkpt>
      <trkpt lat="40.624265" lon="-0.001286">
        <ele>990.795</ele>
        <time>2018-04-02T10:21:04Z</time>
      </trkpt>
      <trkpt lat="40.624239" lon="-0.001235">
        <ele>990.769</ele>
        <time>2018-04-02T10:21:05Z</time>
      </trkpt>
      <trkpt lat="40.624206" lon="-0.001190">
        <ele>990.787</ele>
        <time>2018-04-02T10:21:06Z</time>
      </trkpt>
      <trkpt lat="40.624169" lon="-0.001152">
        <ele>990.735</ele>
        <time>2018-04-02T10:21:07Z</time>
      </trkpt>
      <trkpt lat="40.624130" lon="-0.001122">
        <ele>990.718</ele>
        <time>2018-04-02T10:21:08Z</time>
      </trkpt>
      <trkpt lat="40.624089" lon="-0.001096">
        <ele>990.785</ele>
        <time>2018-04-02T10:21:09Z</time>
      </trkpt>
      <trkpt lat="40.624050" lon="-0.001073">
        <ele>990.765</ele>
        <time>2018-04-02T10:21:10Z</time>
      </trkpt>
      <trkpt lat="40.623966" lon="-0.001022">
        <ele>989.841</ele>
        <time>2018-04-02T10:21:12Z</time>
      </trkpt>
      <trkpt lat="40.623929" lon="-0.000985">
        <ele>989.881</ele>
        <time>2018-04-02T10:21:13Z</time>
      </trkpt>
      <trkpt lat="40.623895" lon="-0.000940">
        <ele>989.809</ele>
        <time>2018-04-02T10:21:14Z</time>
      </trkpt>
      <trkpt lat="40.623872" lon="-0.000892">
        <ele>989.808</ele>
        <time>2018-04-02T10:21:15Z</time>
      </trkpt>
      <trkpt lat="40.623856" lon="-0.000836">
        <ele>989.857</ele>
        <time>2018-04-02T10:21:16Z</time>
      </trkpt>
      <trkpt lat="40.623847" lon="-0.000779">
        <ele>989.884</ele>
        <time>2018-04-02T10:21:17Z</time>
      </trkpt>
      <trkpt lat="40.623841" lon="-0.000722">
        <ele>989.888</ele>
        <time>2018-04-02T10:21:18Z</time>
      </trkpt>
      <trkpt lat="40.623812" lon="-0.000472">
        <ele>991.276</ele>
        <time>2018-04-02T10:21:23Z</time>
      </trkpt>
      <trkpt lat="40.623690" lon="0.000449">
        <ele>989.824</ele>
        <time>2018-04-02T10:21:39Z</time>
      </trkpt>
      <trkpt lat="40.623608" lon="0.001195">
        <ele>986.967</ele>
        <time>2018-04-02T10:21:49Z</time>
      </trkpt>
      <trkpt lat="40.623461" lon="0.001930">
        <ele>983.514</ele>
        <time>2018-04-02T10:21:58Z</time>
      </trkpt>
      <trkpt lat="40.623407" lon="0.002250">
        <ele>982.144</ele>
        <time>2018-04-02T10:22:02Z</time>
      </trkpt>
      <trkpt lat="40.623391" lon="0.002326">
        <ele>981.117</ele>
        <time>2018-04-02T10:22:03Z</time>
      </trkpt>
      <trkpt lat="40.623374" lon="0.002400">
        <ele>980.287</ele>
        <time>2018-04-02T10:22:04Z</time>
      </trkpt>
      <trkpt lat="40.623352" lon="0.002470">
        <ele>979.715</ele>
        <time>2018-04-02T10:22:05Z</time>
      </trkpt>
      <trkpt lat="40.623331" lon="0.002530">
        <ele>978.708</ele>
        <time>2018-04-02T10:22:06Z</time>
      </trkpt>
      <trkpt lat="40.623305" lon="0.002589">
        <ele>977.354</ele>
        <time>2018-04-02T10:22:07Z</time>
      </trkpt>
      <trkpt lat="40.623275" lon="0.002635">
        <ele>976.891</ele>
        <time>2018-04-02T10:22:08Z</time>
      </trkpt>
      <trkpt lat="40.623255" lon="0.002656">
        <ele>976.325</ele>
        <time>2018-04-02T10:22:09Z</time>
      </trkpt>
      <trkpt lat="40.623229" lon="0.002665">
        <ele>975.853</ele>
        <time>2018-04-02T10:22:10Z</time>
      </trkpt>
      <trkpt lat="40.623199" lon="0.002661">
        <ele>975.871</ele>
        <time>2018-04-02T10:22:11Z</time>
      </trkpt>
      <trkpt lat="40.623174" lon="0.002642">
        <ele>975.334</ele>
        <time>2018-04-02T10:22:12Z</time>
      </trkpt>
      <trkpt lat="40.623158" lon="0.002606">
        <ele>975.341</ele>
        <time>2018-04-02T10:22:13Z</time>
      </trkpt>
      <trkpt lat="40.623152" lon="0.002561">
        <ele>975.381</ele>
        <time>2018-04-02T10:22:14Z</time>
      </trkpt>
      <trkpt lat="40.623148" lon="0.002513">
        <ele>975.328</ele>
        <time>2018-04-02T10:22:15Z</time>
      </trkpt>
      <trkpt lat="40.623142" lon="0.002412">
        <ele>975.389</ele>
        <time>2018-04-02T10:22:17Z</time>
      </trkpt>
      <trkpt lat="40.623127" lon="0.002293">
        <ele>974.417</ele>
        <time>2018-04-02T10:22:19Z</time>
      </trkpt>
      <trkpt lat="40.623108" lon="0.002230">
        <ele>974.408</ele>
        <time>2018-04-02T10:22:20Z</time>
      </trkpt>
      <trkpt lat="40.623083" lon="0.002163">
        <ele>972.955</ele>
        <time>2018-04-02T10:22:21Z</time>
      </trkpt>
      <trkpt lat="40.623054" lon="0.002093">
        <ele>972.032</ele>
        <time>2018-04-02T10:22:22Z</time>
      </trkpt>
      <trkpt lat="40.623031" lon="0.002024">
        <ele>971.066</ele>
        <time>2018-04-02T10:22:23Z</time>
      </trkpt>
      <trkpt lat="40.622987" lon="0.001891">
        <ele>969.114</ele>
        <time>2018-04-02T10:22:25Z</time>
      </trkpt>
      <trkpt lat="40.622978" lon="0.001816">
        <ele>968.142</ele>
        <time>2018-04-02T10:22:26Z</time>
      </trkpt>
      <trkpt lat="40.622982" lon="0.001730">
        <ele>967.225</ele>
        <time>2018-04-02T10:22:27Z</time>
      </trkpt>
      <trkpt lat="40.622996" lon="0.001634">
        <ele>966.282</ele>
        <time>2018-04-02T10:22:28Z</time>
      </trkpt>
      <trkpt lat="40.623012" lon="0.001535">
        <ele>965.342</ele>
        <time>2018-04-02T10:22:29Z</time>
      </trkpt>
      <trkpt lat="40.623020" lon="0.001431">
        <ele>965.356</ele>
        <time>2018-04-02T10:22:30Z</time>
      </trkpt>
      <trkpt lat="40.623017" lon="0.001322">
        <ele>964.859</ele>
        <time>2018-04-02T10:22:31Z</time>
      </trkpt>
      <trkpt lat="40.623006" lon="0.001216">
        <ele>963.814</ele>
        <time>2018-04-02T10:22:32Z</time>
      </trkpt>
      <trkpt lat="40.622990" lon="0.001116">
        <ele>963.808</ele>
        <time>2018-04-02T10:22:33Z</time>
      </trkpt>
      <trkpt lat="40.622970" lon="0.001017">
        <ele>963.398</ele>
        <time>2018-04-02T10:22:34Z</time>
      </trkpt>
      <trkpt lat="40.622814" lon="0.000495">
        <ele>960.415</ele>
        <time>2018-04-02T10:22:39Z</time>
      </trkpt>
      <trkpt lat="40.622763" lon="0.000386">
        <ele>959.519</ele>
        <time>2018-04-02T10:22:40Z</time>
      </trkpt>
      <trkpt lat="40.622698" lon="0.000283">
        <ele>958.057</ele>
        <time>2018-04-02T10:22:41Z</time>
      </trkpt>
      <trkpt lat="40.622622" lon="0.000184">
        <ele>957.185</ele>
        <time>2018-04-02T10:22:42Z</time>
      </trkpt>
      <trkpt lat="40.622535" lon="0.000090">
        <ele>956.128</ele>
        <time>2018-04-02T10:22:43Z</time>
      </trkpt>
      <trkpt lat="40.622444" lon="0.000001">
        <ele>955.225</ele>
        <time>2018-04-02T10:22:44Z</time>
      </trkpt>
      <trkpt lat="40.622159" lon="-0.000218">
        <ele>953.275</ele>
        <time>2018-04-02T10:22:47Z</time>
      </trkpt>
      <trkpt lat="40.621789" lon="-0.000445">
        <ele>950.882</ele>
        <time>2018-04-02T10:22:51Z</time>
      </trkpt>
      <trkpt lat="40.621626" lon="-0.000543">
        <ele>950.843</ele>
        <time>2018-04-02T10:22:53Z</time>
      </trkpt>
      <trkpt lat="40.621252" lon="-0.000802">
        <ele>954.717</ele>
        <time>2018-04-02T10:23:00Z</time>
      </trkpt>
      <trkpt lat="40.621051" lon="-0.000898">
        <ele>955.608</ele>
        <time>2018-04-02T10:23:06Z</time>
      </trkpt>
      <trkpt lat="40.621037" lon="-0.000933">
        <ele>956.131</ele>
        <time>2018-04-02T10:23:07Z</time>
      </trkpt>
      <trkpt lat="40.621034" lon="-0.000972">
        <ele>956.148</ele>
        <time>2018-04-02T10:23:08Z</time>
      </trkpt>
      <trkpt lat="40.621038" lon="-0.001011">
        <ele>956.122</ele>
        <time>2018-04-02T10:23:09Z</time>
      </trkpt>
      <trkpt lat="40.621046" lon="-0.001056">
        <ele>956.680</ele>
        <time>2018-04-02T10:23:10Z</time>
      </trkpt>
      <trkpt lat="40.621136" lon="-0.001777">
        <ele>959.078</ele>
        <time>2018-04-02T10:23:25Z</time>
      </trkpt>
      <trkpt lat="40.621329" lon="-0.002519">
        <ele>960.081</ele>
        <time>2018-04-02T10:23:41Z</time>
      </trkpt>
      <trkpt lat="40.621513" lon="-0.003162">
        <ele>961.938</ele>
        <time>2018-04-02T10:23:55Z</time>
      </trkpt>
      <trkpt lat="40.621516" lon="-0.003218">
        <ele>961.968</ele>
        <time>2018-04-02T10:23:56Z</time>
      </trkpt>
      <trkpt lat="40.621535" lon="-0.003435">
        <ele>960.928</ele>
        <time>2018-04-02T10:24:00Z</time>
      </trkpt>
      <trkpt lat="40.621542" lon="-0.003489">
        <ele>960.989</ele>
        <time>2018-04-02T10:24:01Z</time>
      </trkpt>
      <trkpt lat="40.621629" lon="-0.004292">
        <ele>960.417</ele>
        <time>2018-04-02T10:24:15Z</time>
      </trkpt>
      <trkpt lat="40.621635" lon="-0.005059">
        <ele>960.408</ele>
        <time>2018-04-02T10:24:27Z</time>
      </trkpt>
      <trkpt lat="40.621627" lon="-0.005121">
        <ele>960.035</ele>
        <time>2018-04-02T10:24:28Z</time>
      </trkpt>
      <trkpt lat="40.621604" lon="-0.005249">
        <ele>960.062</ele>
        <time>2018-04-02T10:24:30Z</time>
      </trkpt>
      <trkpt lat="40.621584" lon="-0.005313">
        <ele>960.086</ele>
        <time>2018-04-02T10:24:31Z</time>
      </trkpt>
      <trkpt lat="40.621569" lon="-0.005376">
        <ele>959.544</ele>
        <time>2018-04-02T10:24:32Z</time>
      </trkpt>
      <trkpt lat="40.621560" lon="-0.005453">
        <ele>959.512</ele>
        <time>2018-04-02T10:24:33Z</time>
      </trkpt>
      <trkpt lat="40.621559" lon="-0.005519">
        <ele>959.515</ele>
        <time>2018-04-02T10:24:34Z</time>
      </trkpt>
      <trkpt lat="40.621561" lon="-0.005590">
        <ele>959.062</ele>
        <time>2018-04-02T10:24:35Z</time>
      </trkpt>
      <trkpt lat="40.621550" lon="-0.005800">
        <ele>959.032</ele>
        <time>2018-04-02T10:24:38Z</time>
      </trkpt>
      <trkpt lat="40.621536" lon="-0.005873">
        <ele>959.089</ele>
        <time>2018-04-02T10:24:39Z</time>
      </trkpt>
      <trkpt lat="40.621519" lon="-0.005937">
        <ele>959.006</ele>
        <time>2018-04-02T10:24:40Z</time>
      </trkpt>
      <trkpt lat="40.621500" lon="-0.006009">
        <ele>958.526</ele>
        <time>2018-04-02T10:24:41Z</time>
      </trkpt>
      <trkpt lat="40.621488" lon="-0.006076">
        <ele>958.508</ele>
        <time>2018-04-02T10:24:42Z</time>
      </trkpt>
      <trkpt lat="40.621477" lon="-0.006146">
        <ele>958.511</ele>
        <time>2018-04-02T10:24:43Z</time>
      </trkpt>
      <trkpt lat="40.621453" lon="-0.006269">
        <ele>958.598</ele>
        <time>2018-04-02T10:24:45Z</time>
      </trkpt>
      <trkpt lat="40.621431" lon="-0.006321">
        <ele>958.552</ele>
        <time>2018-04-02T10:24:46Z</time>
      </trkpt>
      <trkpt lat="40.621348" lon="-0.006465">
        <ele>958.540</ele>
        <time>2018-04-02T10:24:49Z</time>
      </trkpt>
      <trkpt lat="40.621313" lon="-0.006506">
        <ele>958.578</ele>
        <time>2018-04-02T10:24:50Z</time>
      </trkpt>
      <trkpt lat="40.621272" lon="-0.006558">
        <ele>958.061</ele>
        <time>2018-04-02T10:24:51Z</time>
      </trkpt>
      <trkpt lat="40.621241" lon="-0.006612">
        <ele>958.068</ele>
        <time>2018-04-02T10:24:52Z</time>
      </trkpt>
      <trkpt lat="40.621217" lon="-0.006682">
        <ele>957.618</ele>
        <time>2018-04-02T10:24:53Z</time>
      </trkpt>
      <trkpt lat="40.621207" lon="-0.006749">
        <ele>957.639</ele>
        <time>2018-04-02T10:24:54Z</time>
      </trkpt>
      <trkpt lat="40.621202" lon="-0.006821">
        <ele>957.601</ele>
        <time>2018-04-02T10:24:55Z</time>
      </trkpt>
      <trkpt lat="40.621206" lon="-0.006904">
        <ele>957.121</ele>
        <time>2018-04-02T10:24:56Z</time>
      </trkpt>
      <trkpt lat="40.621213" lon="-0.006977">
        <ele>957.108</ele>
        <time>2018-04-02T10:24:57Z</time>
      </trkpt>
      <trkpt lat="40.621307" lon="-0.007388">
        <ele>955.256</ele>
        <time>2018-04-02T10:25:02Z</time>
      </trkpt>
      <trkpt lat="40.621386" lon="-0.007882">
        <ele>953.723</ele>
        <time>2018-04-02T10:25:08Z</time>
      </trkpt>
      <trkpt lat="40.621377" lon="-0.007957">
        <ele>953.757</ele>
        <time>2018-04-02T10:25:09Z</time>
      </trkpt>
      <trkpt lat="40.621358" lon="-0.008031">
        <ele>953.775</ele>
        <time>2018-04-02T10:25:10Z</time>
      </trkpt>
      <trkpt lat="40.621328" lon="-0.008098">
        <ele>953.233</ele>
        <time>2018-04-02T10:25:11Z</time>
      </trkpt>
      <trkpt lat="40.621293" lon="-0.008161">
        <ele>953.296</ele>
        <time>2018-04-02T10:25:12Z</time>
      </trkpt>
      <trkpt lat="40.621252" lon="-0.008224">
        <ele>953.273</ele>
        <time>2018-04-02T10:25:13Z</time>
      </trkpt>
      <trkpt lat="40.621215" lon="-0.008278">
        <ele>952.393</ele>
        <time>2018-04-02T10:25:14Z</time>
      </trkpt>
      <trkpt lat="40.621171" lon="-0.008341">
        <ele>952.325</ele>
        <time>2018-04-02T10:25:15Z</time>
      </trkpt>
      <trkpt lat="40.621053" lon="-0.008512">
        <ele>952.326</ele>
        <time>2018-04-02T10:25:18Z</time>
      </trkpt>
      <trkpt lat="40.621018" lon="-0.008584">
        <ele>951.308</ele>
        <time>2018-04-02T10:25:19Z</time>
      </trkpt>
      <trkpt lat="40.620992" lon="-0.008655">
        <ele>950.808</ele>
        <time>2018-04-02T10:25:20Z</time>
      </trkpt>
      <trkpt lat="40.620754" lon="-0.009273">
        <ele>948.965</ele>
        <time>2018-04-02T10:25:28Z</time>
      </trkpt>
      <trkpt lat="40.620730" lon="-0.009358">
        <ele>948.082</ele>
        <time>2018-04-02T10:25:29Z</time>
      </trkpt>
      <trkpt lat="40.620716" lon="-0.009436">
        <ele>948.086</ele>
        <time>2018-04-02T10:25:30Z</time>
      </trkpt>
      <trkpt lat="40.620689" lon="-0.009700">
        <ele>946.014</ele>
        <time>2018-04-02T10:25:33Z</time>
      </trkpt>
      <trkpt lat="40.620694" lon="-0.009798">
        <ele>945.152</ele>
        <time>2018-04-02T10:25:34Z</time>
      </trkpt>
      <trkpt lat="40.620710" lon="-0.009900">
        <ele>944.675</ele>
        <time>2018-04-02T10:25:35Z</time>
      </trkpt>
      <trkpt lat="40.620738" lon="-0.010004">
        <ele>944.112</ele>
        <time>2018-04-02T10:25:36Z</time>
      </trkpt>
      <trkpt lat="40.620770" lon="-0.010107">
        <ele>943.122</ele>
        <time>2018-04-02T10:25:37Z</time>
      </trkpt>
      <trkpt lat="40.620806" lon="-0.010207">
        <ele>943.136</ele>
        <time>2018-04-02T10:25:38Z</time>
      </trkpt>
      <trkpt lat="40.620955" lon="-0.010577">
        <ele>941.217</ele>
        <time>2018-04-02T10:25:42Z</time>
      </trkpt>
      <trkpt lat="40.621095" lon="-0.010940">
        <ele>937.918</ele>
        <time>2018-04-02T10:25:47Z</time>
      </trkpt>
      <trkpt lat="40.621110" lon="-0.010991">
        <ele>937.908</ele>
        <time>2018-04-02T10:25:48Z</time>
      </trkpt>
      <trkpt lat="40.621131" lon="-0.011096">
        <ele>936.986</ele>
        <time>2018-04-02T10:25:56Z</time>
      </trkpt>
      <trkpt lat="40.621141" lon="-0.011101">
        <ele>936.443</ele>
        <time>2018-04-02T10:25:57Z</time>
      </trkpt>
      <trkpt lat="40.621250" lon="-0.011118">
        <ele>935.597</ele>
        <time>2018-04-02T10:26:01Z</time>
      </trkpt>
      <trkpt lat="40.621289" lon="-0.011095">
        <ele>935.585</ele>
        <time>2018-04-02T10:26:02Z</time>
      </trkpt>
      <trkpt lat="40.621324" lon="-0.011054">
        <ele>935.073</ele>
        <time>2018-04-02T10:26:03Z</time>
      </trkpt>
      <trkpt lat="40.621357" lon="-0.011001">
        <ele>935.086</ele>
        <time>2018-04-02T10:26:04Z</time>
      </trkpt>
      <trkpt lat="40.621385" lon="-0.010945">
        <ele>934.053</ele>
        <time>2018-04-02T10:26:05Z</time>
      </trkpt>
      <trkpt lat="40.621416" lon="-0.010878">
        <ele>933.583</ele>
        <time>2018-04-02T10:26:06Z</time>
      </trkpt>
      <trkpt lat="40.621847" lon="-0.010157">
        <ele>931.683</ele>
        <time>2018-04-02T10:26:19Z</time>
      </trkpt>
      <trkpt lat="40.622139" lon="-0.009820">
        <ele>930.225</ele>
        <time>2018-04-02T10:26:27Z</time>
      </trkpt>
      <trkpt lat="40.622173" lon="-0.009795">
        <ele>929.717</ele>
        <time>2018-04-02T10:26:28Z</time>
      </trkpt>
      <trkpt lat="40.622209" lon="-0.009779">
        <ele>929.208</ele>
        <time>2018-04-02T10:26:29Z</time>
      </trkpt>
      <trkpt lat="40.622245" lon="-0.009781">
        <ele>928.721</ele>
        <time>2018-04-02T10:26:30Z</time>
      </trkpt>
      <trkpt lat="40.622280" lon="-0.009805">
        <ele>928.768</ele>
        <time>2018-04-02T10:26:31Z</time>
      </trkpt>
      <trkpt lat="40.622304" lon="-0.009845">
        <ele>928.712</ele>
        <time>2018-04-02T10:26:32Z</time>
      </trkpt>
      <trkpt lat="40.622309" lon="-0.009895">
        <ele>928.750</ele>
        <time>2018-04-02T10:26:33Z</time>
      </trkpt>
      <trkpt lat="40.622302" lon="-0.009954">
        <ele>928.798</ele>
        <time>2018-04-02T10:26:34Z</time>
      </trkpt>
      <trkpt lat="40.622291" lon="-0.010015">
        <ele>928.791</ele>
        <time>2018-04-02T10:26:35Z</time>
      </trkpt>
      <trkpt lat="40.622276" lon="-0.010082">
        <ele>928.728</ele>
        <time>2018-04-02T10:26:36Z</time>
      </trkpt>
      <trkpt lat="40.622049" lon="-0.010852">
        <ele>927.328</ele>
        <time>2018-04-02T10:26:46Z</time>
      </trkpt>
      <trkpt lat="40.622047" lon="-0.010930">
        <ele>927.337</ele>
        <time>2018-04-02T10:26:47Z</time>
      </trkpt>
      <trkpt lat="40.622058" lon="-0.011004">
        <ele>927.349</ele>
        <time>2018-04-02T10:26:48Z</time>
      </trkpt>
      <trkpt lat="40.622083" lon="-0.011069">
        <ele>927.313</ele>
        <time>2018-04-02T10:26:49Z</time>
      </trkpt>
      <trkpt lat="40.622116" lon="-0.011121">
        <ele>927.308</ele>
        <time>2018-04-02T10:26:50Z</time>
      </trkpt>
      <trkpt lat="40.622157" lon="-0.011155">
        <ele>927.336</ele>
        <time>2018-04-02T10:26:51Z</time>
      </trkpt>
      <trkpt lat="40.622202" lon="-0.011175">
        <ele>929.273</ele>
        <time>2018-04-02T10:26:52Z</time>
      </trkpt>
      <trkpt lat="40.622242" lon="-0.011180">
        <ele>930.287</ele>
        <time>2018-04-02T10:26:53Z</time>
      </trkpt>
      <trkpt lat="40.622279" lon="-0.011182">
        <ele>930.685</ele>
        <time>2018-04-02T10:26:54Z</time>
      </trkpt>
      <trkpt lat="40.622315" lon="-0.011181">
        <ele>930.653</ele>
        <time>2018-04-02T10:26:55Z</time>
      </trkpt>
      <trkpt lat="40.622347" lon="-0.011169">
        <ele>931.656</ele>
        <time>2018-04-02T10:26:56Z</time>
      </trkpt>
      <trkpt lat="40.622379" lon="-0.011153">
        <ele>931.623</ele>
        <time>2018-04-02T10:26:57Z</time>
      </trkpt>
      <trkpt lat="40.622808" lon="-0.011000">
        <ele>928.743</ele>
        <time>2018-04-02T10:27:07Z</time>
      </trkpt>
      <trkpt lat="40.622869" lon="-0.010987">
        <ele>928.781</ele>
        <time>2018-04-02T10:27:08Z</time>
      </trkpt>
      <trkpt lat="40.622930" lon="-0.010979">
        <ele>928.761</ele>
        <time>2018-04-02T10:27:09Z</time>
      </trkpt>
      <trkpt lat="40.622985" lon="-0.010979">
        <ele>928.717</ele>
        <time>2018-04-02T10:27:10Z</time>
      </trkpt>
      <trkpt lat="40.623037" lon="-0.010994">
        <ele>928.208</ele>
        <time>2018-04-02T10:27:11Z</time>
      </trkpt>
      <trkpt lat="40.623084" lon="-0.011025">
        <ele>928.291</ele>
        <time>2018-04-02T10:27:12Z</time>
      </trkpt>
      <trkpt lat="40.623115" lon="-0.011066">
        <ele>928.218</ele>
        <time>2018-04-02T10:27:13Z</time>
      </trkpt>
      <trkpt lat="40.623128" lon="-0.011116">
        <ele>928.292</ele>
        <time>2018-04-02T10:27:14Z</time>
      </trkpt>
      <trkpt lat="40.623128" lon="-0.011168">
        <ele>928.260</ele>
        <time>2018-04-02T10:27:15Z</time>
      </trkpt>
      <trkpt lat="40.623123" lon="-0.011219">
        <ele>928.248</ele>
        <time>2018-04-02T10:27:16Z</time>
      </trkpt>
      <trkpt lat="40.623116" lon="-0.011272">
        <ele>928.231</ele>
        <time>2018-04-02T10:27:17Z</time>
      </trkpt>
      <trkpt lat="40.623124" lon="-0.011719">
        <ele>927.878</ele>
        <time>2018-04-02T10:27:24Z</time>
      </trkpt>
      <trkpt lat="40.623125" lon="-0.011794">
        <ele>927.858</ele>
        <time>2018-04-02T10:27:25Z</time>
      </trkpt>
      <trkpt lat="40.623123" lon="-0.011863">
        <ele>927.812</ele>
        <time>2018-04-02T10:27:26Z</time>
      </trkpt>
      <trkpt lat="40.623095" lon="-0.012206">
        <ele>925.832</ele>
        <time>2018-04-02T10:27:31Z</time>
      </trkpt>
      <trkpt lat="40.623080" lon="-0.012272">
        <ele>924.905</ele>
        <time>2018-04-02T10:27:32Z</time>
      </trkpt>
      <trkpt lat="40.623066" lon="-0.012343">
        <ele>924.408</ele>
        <time>2018-04-02T10:27:33Z</time>
      </trkpt>
      <trkpt lat="40.623058" lon="-0.012413">
        <ele>923.444</ele>
        <time>2018-04-02T10:27:34Z</time>
      </trkpt>
      <trkpt lat="40.623053" lon="-0.012485">
        <ele>923.061</ele>
        <time>2018-04-02T10:27:35Z</time>
      </trkpt>
      <trkpt lat="40.623052" lon="-0.012562">
        <ele>922.085</ele>
        <time>2018-04-02T10:27:36Z</time>
      </trkpt>
      <trkpt lat="40.623064" lon="-0.012714">
        <ele>920.113</ele>
        <time>2018-04-02T10:27:38Z</time>
      </trkpt>
      <trkpt lat="40.623084" lon="-0.012786">
        <ele>919.121</ele>
        <time>2018-04-02T10:27:39Z</time>
      </trkpt>
      <trkpt lat="40.623130" lon="-0.012931">
        <ele>918.284</ele>
        <time>2018-04-02T10:27:41Z</time>
      </trkpt>
      <trkpt lat="40.623137" lon="-0.013002">
        <ele>917.271</ele>
        <time>2018-04-02T10:27:42Z</time>
      </trkpt>
      <trkpt lat="40.623133" lon="-0.013081">
        <ele>916.741</ele>
        <time>2018-04-02T10:27:43Z</time>
      </trkpt>
      <trkpt lat="40.623122" lon="-0.013156">
        <ele>916.279</ele>
        <time>2018-04-02T10:27:44Z</time>
      </trkpt>
      <trkpt lat="40.623106" lon="-0.013241">
        <ele>915.705</ele>
        <time>2018-04-02T10:27:45Z</time>
      </trkpt>
      <trkpt lat="40.623080" lon="-0.013332">
        <ele>915.325</ele>
        <time>2018-04-02T10:27:46Z</time>
      </trkpt>
      <trkpt lat="40.623052" lon="-0.013418">
        <ele>914.308</ele>
        <time>2018-04-02T10:27:47Z</time>
      </trkpt>
      <trkpt lat="40.622954" lon="-0.013665">
        <ele>912.460</ele>
        <time>2018-04-02T10:27:50Z</time>
      </trkpt>
      <trkpt lat="40.622871" lon="-0.013851">
        <ele>910.517</ele>
        <time>2018-04-02T10:27:53Z</time>
      </trkpt>
      <trkpt lat="40.622855" lon="-0.013906">
        <ele>910.031</ele>
        <time>2018-04-02T10:27:54Z</time>
      </trkpt>
      <trkpt lat="40.622843" lon="-0.013956">
        <ele>909.069</ele>
        <time>2018-04-02T10:27:55Z</time>
      </trkpt>
      <trkpt lat="40.622843" lon="-0.013999">
        <ele>908.547</ele>
        <time>2018-04-02T10:27:56Z</time>
      </trkpt>
      <trkpt lat="40.622854" lon="-0.014043">
        <ele>908.160</ele>
        <time>2018-04-02T10:27:57Z</time>
      </trkpt>
      <trkpt lat="40.622877" lon="-0.014084">
        <ele>907.177</ele>
        <time>2018-04-02T10:27:58Z</time>
      </trkpt>
      <trkpt lat="40.622913" lon="-0.014116">
        <ele>906.637</ele>
        <time>2018-04-02T10:27:59Z</time>
      </trkpt>
      <trkpt lat="40.622960" lon="-0.014138">
        <ele>906.668</ele>
        <time>2018-04-02T10:28:00Z</time>
      </trkpt>
      <trkpt lat="40.623009" lon="-0.014151">
        <ele>906.142</ele>
        <time>2018-04-02T10:28:01Z</time>
      </trkpt>
      <trkpt lat="40.623063" lon="-0.014160">
        <ele>905.726</ele>
        <time>2018-04-02T10:28:02Z</time>
      </trkpt>
      <trkpt lat="40.623232" lon="-0.014194">
        <ele>905.208</ele>
        <time>2018-04-02T10:28:05Z</time>
      </trkpt>
      <trkpt lat="40.623290" lon="-0.014201">
        <ele>904.299</ele>
        <time>2018-04-02T10:28:06Z</time>
      </trkpt>
      <trkpt lat="40.623690" lon="-0.014282">
        <ele>900.876</ele>
        <time>2018-04-02T10:28:12Z</time>
      </trkpt>
      <trkpt lat="40.623845" lon="-0.014319">
        <ele>900.440</ele>
        <time>2018-04-02T10:28:14Z</time>
      </trkpt>
      <trkpt lat="40.624142" lon="-0.014447">
        <ele>898.018</ele>
        <time>2018-04-02T10:28:18Z</time>
      </trkpt>
      <trkpt lat="40.624356" lon="-0.014552">
        <ele>895.126</ele>
        <time>2018-04-02T10:28:21Z</time>
      </trkpt>
      <trkpt lat="40.624467" lon="-0.014613">
        <ele>893.289</ele>
        <time>2018-04-02T10:28:23Z</time>
      </trkpt>
      <trkpt lat="40.624510" lon="-0.014657">
        <ele>892.786</ele>
        <time>2018-04-02T10:28:24Z</time>
      </trkpt>
      <trkpt lat="40.624547" lon="-0.014715">
        <ele>891.756</ele>
        <time>2018-04-02T10:28:25Z</time>
      </trkpt>
      <trkpt lat="40.624575" lon="-0.014779">
        <ele>891.243</ele>
        <time>2018-04-02T10:28:26Z</time>
      </trkpt>
      <trkpt lat="40.624593" lon="-0.014845">
        <ele>890.364</ele>
        <time>2018-04-02T10:28:27Z</time>
      </trkpt>
      <trkpt lat="40.624604" lon="-0.014912">
        <ele>889.810</ele>
        <time>2018-04-02T10:28:28Z</time>
      </trkpt>
      <trkpt lat="40.624606" lon="-0.014982">
        <ele>889.308</ele>
        <time>2018-04-02T10:28:29Z</time>
      </trkpt>
      <trkpt lat="40.624602" lon="-0.015050">
        <ele>888.877</ele>
        <time>2018-04-02T10:28:30Z</time>
      </trkpt>
      <trkpt lat="40.624590" lon="-0.015111">
        <ele>887.994</ele>
        <time>2018-04-02T10:28:31Z</time>
      </trkpt>
      <trkpt lat="40.624569" lon="-0.015168">
        <ele>887.438</ele>
        <time>2018-04-02T10:28:32Z</time>
      </trkpt>
      <trkpt lat="40.624534" lon="-0.015225">
        <ele>886.416</ele>
        <time>2018-04-02T10:28:33Z</time>
      </trkpt>
      <trkpt lat="40.624483" lon="-0.015279">
        <ele>885.594</ele>
        <time>2018-04-02T10:28:34Z</time>
      </trkpt>
      <trkpt lat="40.624427" lon="-0.015326">
        <ele>885.057</ele>
        <time>2018-04-02T10:28:35Z</time>
      </trkpt>
      <trkpt lat="40.624257" lon="-0.015485">
        <ele>883.114</ele>
        <time>2018-04-02T10:28:38Z</time>
      </trkpt>
      <trkpt lat="40.624016" lon="-0.015757">
        <ele>879.714</ele>
        <time>2018-04-02T10:28:42Z</time>
      </trkpt>
      <trkpt lat="40.623804" lon="-0.015939">
        <ele>878.329</ele>
        <time>2018-04-02T10:28:45Z</time>
      </trkpt>
      <trkpt lat="40.623488" lon="-0.016129">
        <ele>874.400</ele>
        <time>2018-04-02T10:28:50Z</time>
      </trkpt>
      <trkpt lat="40.623380" lon="-0.016191">
        <ele>872.520</ele>
        <time>2018-04-02T10:28:52Z</time>
      </trkpt>
      <trkpt lat="40.623338" lon="-0.016239">
        <ele>872.008</ele>
        <time>2018-04-02T10:28:53Z</time>
      </trkpt>
      <trkpt lat="40.623312" lon="-0.016305">
        <ele>871.035</ele>
        <time>2018-04-02T10:28:54Z</time>
      </trkpt>
      <trkpt lat="40.623296" lon="-0.016381">
        <ele>870.662</ele>
        <time>2018-04-02T10:28:55Z</time>
      </trkpt>
      <trkpt lat="40.623289" lon="-0.016463">
        <ele>870.646</ele>
        <time>2018-04-02T10:28:56Z</time>
      </trkpt>
      <trkpt lat="40.623293" lon="-0.016549">
        <ele>869.164</ele>
        <time>2018-04-02T10:28:57Z</time>
      </trkpt>
      <trkpt lat="40.623302" lon="-0.016640">
        <ele>869.182</ele>
        <time>2018-04-02T10:28:58Z</time>
      </trkpt>
      <trkpt lat="40.623309" lon="-0.016728">
        <ele>867.755</ele>
        <time>2018-04-02T10:28:59Z</time>
      </trkpt>
      <trkpt lat="40.623319" lon="-0.016893">
        <ele>866.272</ele>
        <time>2018-04-02T10:29:01Z</time>
      </trkpt>
      <trkpt lat="40.623333" lon="-0.016964">
        <ele>865.392</ele>
        <time>2018-04-02T10:29:02Z</time>
      </trkpt>
      <trkpt lat="40.623362" lon="-0.017027">
        <ele>864.888</ele>
        <time>2018-04-02T10:29:03Z</time>
      </trkpt>
      <trkpt lat="40.623405" lon="-0.017074">
        <ele>864.324</ele>
        <time>2018-04-02T10:29:04Z</time>
      </trkpt>
      <trkpt lat="40.623458" lon="-0.017113">
        <ele>862.926</ele>
        <time>2018-04-02T10:29:05Z</time>
      </trkpt>
      <trkpt lat="40.623507" lon="-0.017157">
        <ele>862.908</ele>
        <time>2018-04-02T10:29:06Z</time>
      </trkpt>
      <trkpt lat="40.623547" lon="-0.017217">
        <ele>862.481</ele>
        <time>2018-04-02T10:29:07Z</time>
      </trkpt>
      <trkpt lat="40.623581" lon="-0.017291">
        <ele>861.438</ele>
        <time>2018-04-02T10:29:08Z</time>
      </trkpt>
      <trkpt lat="40.623608" lon="-0.017377">
        <ele>860.572</ele>
        <time>2018-04-02T10:29:09Z</time>
      </trkpt>
      <trkpt lat="40.623629" lon="-0.017467">
        <ele>859.510</ele>
        <time>2018-04-02T10:29:10Z</time>
      </trkpt>
      <trkpt lat="40.623640" lon="-0.017552">
        <ele>858.538</ele>
        <time>2018-04-02T10:29:11Z</time>
      </trkpt>
      <trkpt lat="40.623647" lon="-0.017635">
        <ele>857.611</ele>
        <time>2018-04-02T10:29:12Z</time>
      </trkpt>
      <trkpt lat="40.623658" lon="-0.017717">
        <ele>856.648</ele>
        <time>2018-04-02T10:29:13Z</time>
      </trkpt>
      <trkpt lat="40.623679" lon="-0.017798">
        <ele>856.118</ele>
        <time>2018-04-02T10:29:14Z</time>
      </trkpt>
      <trkpt lat="40.623711" lon="-0.017873">
        <ele>855.726</ele>
        <time>2018-04-02T10:29:15Z</time>
      </trkpt>
      <trkpt lat="40.623752" lon="-0.017936">
        <ele>854.747</ele>
        <time>2018-04-02T10:29:16Z</time>
      </trkpt>
      <trkpt lat="40.623805" lon="-0.017988">
        <ele>853.711</ele>
        <time>2018-04-02T10:29:17Z</time>
      </trkpt>
      <trkpt lat="40.623872" lon="-0.018025">
        <ele>853.308</ele>
        <time>2018-04-02T10:29:18Z</time>
      </trkpt>
      <trkpt lat="40.623940" lon="-0.018047">
        <ele>852.885</ele>
        <time>2018-04-02T10:29:19Z</time>
      </trkpt>
      <trkpt lat="40.624002" lon="-0.018068">
        <ele>852.392</ele>
        <time>2018-04-02T10:29:20Z</time>
      </trkpt>
      <trkpt lat="40.624058" lon="-0.018096">
        <ele>851.356</ele>
        <time>2018-04-02T10:29:21Z</time>
      </trkpt>
      <trkpt lat="40.624108" lon="-0.018132">
        <ele>850.444</ele>
        <time>2018-04-02T10:29:22Z</time>
      </trkpt>
      <trkpt lat="40.624153" lon="-0.018174">
        <ele>849.912</ele>
        <time>2018-04-02T10:29:23Z</time>
      </trkpt>
      <trkpt lat="40.624200" lon="-0.018227">
        <ele>848.585</ele>
        <time>2018-04-02T10:29:24Z</time>
      </trkpt>
      <trkpt lat="40.624250" lon="-0.018300">
        <ele>847.552</ele>
        <time>2018-04-02T10:29:25Z</time>
      </trkpt>
      <trkpt lat="40.624426" lon="-0.018557">
        <ele>843.212</ele>
        <time>2018-04-02T10:29:28Z</time>
      </trkpt>
      <trkpt lat="40.624597" lon="-0.018802">
        <ele>840.329</ele>
        <time>2018-04-02T10:29:31Z</time>
      </trkpt>
      <trkpt lat="40.624615" lon="-0.018855">
        <ele>839.800</ele>
        <time>2018-04-02T10:29:32Z</time>
      </trkpt>
      <trkpt lat="40.624612" lon="-0.018895">
        <ele>839.820</ele>
        <time>2018-04-02T10:29:33Z</time>
      </trkpt>
      <trkpt lat="40.624598" lon="-0.018924">
        <ele>839.808</ele>
        <time>2018-04-02T10:29:34Z</time>
      </trkpt>
      <trkpt lat="40.624574" lon="-0.018956">
        <ele>839.355</ele>
        <time>2018-04-02T10:29:35Z</time>
      </trkpt>
      <trkpt lat="40.624454" lon="-0.019126">
        <ele>836.072</ele>
        <time>2018-04-02T10:29:39Z</time>
      </trkpt>
      <trkpt lat="40.624430" lon="-0.019165">
        <ele>836.056</ele>
        <time>2018-04-02T10:29:40Z</time>
      </trkpt>
      <trkpt lat="40.624398" lon="-0.019307">
        <ele>833.154</ele>
        <time>2018-04-02T10:29:43Z</time>
      </trkpt>
      <trkpt lat="40.624395" lon="-0.019365">
        <ele>831.662</ele>
        <time>2018-04-02T10:29:44Z</time>
      </trkpt>
      <trkpt lat="40.624387" lon="-0.019424">
        <ele>831.265</ele>
        <time>2018-04-02T10:29:45Z</time>
      </trkpt>
      <trkpt lat="40.624369" lon="-0.019477">
        <ele>831.292</ele>
        <time>2018-04-02T10:29:46Z</time>
      </trkpt>
      <trkpt lat="40.624349" lon="-0.019520">
        <ele>830.732</ele>
        <time>2018-04-02T10:29:47Z</time>
      </trkpt>
      <trkpt lat="40.624331" lon="-0.019676">
        <ele>830.744</ele>
        <time>2018-04-02T10:29:52Z</time>
      </trkpt>
      <trkpt lat="40.624368" lon="-0.019708">
        <ele>832.105</ele>
        <time>2018-04-02T10:29:54Z</time>
      </trkpt>
      <trkpt lat="40.624463" lon="-0.019843">
        <ele>834.515</ele>
        <time>2018-04-02T10:30:00Z</time>
      </trkpt>
      <trkpt lat="40.624470" lon="-0.019864">
        <ele>835.508</ele>
        <time>2018-04-02T10:30:01Z</time>
      </trkpt>
      <trkpt lat="40.624478" lon="-0.019882">
        <ele>835.567</ele>
        <time>2018-04-02T10:30:02Z</time>
      </trkpt>
      <trkpt lat="40.624487" lon="-0.019901">
        <ele>836.044</ele>
        <time>2018-04-02T10:30:03Z</time>
      </trkpt>
      <trkpt lat="40.624497" lon="-0.019920">
        <ele>836.078</ele>
        <time>2018-04-02T10:30:04Z</time>
      </trkpt>
      <trkpt lat="40.624654" lon="-0.020226">
        <ele>836.486</ele>
        <time>2018-04-02T10:30:16Z</time>
      </trkpt>
      <trkpt lat="40.624819" lon="-0.020516">
        <ele>837.434</ele>
        <time>2018-04-02T10:30:28Z</time>
      </trkpt>
      <trkpt lat="40.624812" lon="-0.020655">
        <ele>840.387</ele>
        <time>2018-04-02T10:30:35Z</time>
      </trkpt>
      <trkpt lat="40.624789" lon="-0.020664">
        <ele>840.374</ele>
        <time>2018-04-02T10:30:47Z</time>
      </trkpt>
      <trkpt lat="40.624588" lon="-0.020717">
        <ele>843.214</ele>
        <time>2018-04-02T10:30:59Z</time>
      </trkpt>
      <trkpt lat="40.624458" lon="-0.020653">
        <ele>846.193</ele>
        <time>2018-04-02T10:31:09Z</time>
      </trkpt>
      <trkpt lat="40.624431" lon="-0.020634">
        <ele>847.065</ele>
        <time>2018-04-02T10:31:11Z</time>
      </trkpt>
      <trkpt lat="40.624419" lon="-0.020626">
        <ele>847.521</ele>
        <time>2018-04-02T10:31:12Z</time>
      </trkpt>
      <trkpt lat="40.624244" lon="-0.020518">
        <ele>850.908</ele>
        <time>2018-04-02T10:31:26Z</time>
      </trkpt>
      <trkpt lat="40.624074" lon="-0.020407">
        <ele>854.242</ele>
        <time>2018-04-02T10:31:37Z</time>
      </trkpt>
      <trkpt lat="40.623894" lon="-0.020287">
        <ele>856.699</ele>
        <time>2018-04-02T10:31:52Z</time>
      </trkpt>
      <trkpt lat="40.623744" lon="-0.020172">
        <ele>856.683</ele>
        <time>2018-04-02T10:32:03Z</time>
      </trkpt>
      <trkpt lat="40.623558" lon="-0.020335">
        <ele>858.551</ele>
        <time>2018-04-02T10:32:15Z</time>
      </trkpt>
      <trkpt lat="40.623540" lon="-0.020337">
        <ele>858.569</ele>
        <time>2018-04-02T10:32:16Z</time>
      </trkpt>
      <trkpt lat="40.623272" lon="-0.020301">
        <ele>859.512</ele>
        <time>2018-04-02T10:32:30Z</time>
      </trkpt>
      <trkpt lat="40.623106" lon="-0.020223">
        <ele>862.989</ele>
        <time>2018-04-02T10:32:39Z</time>
      </trkpt>
      <trkpt lat="40.622947" lon="-0.019983">
        <ele>864.369</ele>
        <time>2018-04-02T10:32:52Z</time>
      </trkpt>
      <trkpt lat="40.622814" lon="-0.019826">
        <ele>867.733</ele>
        <time>2018-04-02T10:33:03Z</time>
      </trkpt>
      <trkpt lat="40.622796" lon="-0.019826">
        <ele>867.723</ele>
        <time>2018-04-02T10:33:04Z</time>
      </trkpt>
      <trkpt lat="40.622780" lon="-0.019830">
        <ele>867.715</ele>
        <time>2018-04-02T10:33:05Z</time>
      </trkpt>
      <trkpt lat="40.622727" lon="-0.019898">
        <ele>868.208</ele>
        <time>2018-04-02T10:33:10Z</time>
      </trkpt>
      <trkpt lat="40.622739" lon="-0.019993">
        <ele>868.696</ele>
        <time>2018-04-02T10:33:15Z</time>
      </trkpt>
      <trkpt lat="40.622753" lon="-0.020009">
        <ele>868.693</ele>
        <time>2018-04-02T10:33:16Z</time>
      </trkpt>
      <trkpt lat="40.622765" lon="-0.020026">
        <ele>868.697</ele>
        <time>2018-04-02T10:33:17Z</time>
      </trkpt>
      <trkpt lat="40.622774" lon="-0.020040">
        <ele>868.695</ele>
        <time>2018-04-02T10:33:18Z</time>
      </trkpt>
      <trkpt lat="40.622784" lon="-0.020051">
        <ele>868.693</ele>
        <time>2018-04-02T10:33:19Z</time>
      </trkpt>
      <trkpt lat="40.622792" lon="-0.020067">
        <ele>868.656</ele>
        <time>2018-04-02T10:33:20Z</time>
      </trkpt>
      <trkpt lat="40.622804" lon="-0.020085">
        <ele>868.613</ele>
        <time>2018-04-02T10:33:21Z</time>
      </trkpt>
      <trkpt lat="40.622966" lon="-0.020425">
        <ele>867.743</ele>
        <time>2018-04-02T10:33:32Z</time>
      </trkpt>
      <trkpt lat="40.623148" lon="-0.020775">
        <ele>867.761</ele>
        <time>2018-04-02T10:33:44Z</time>
      </trkpt>
      <trkpt lat="40.623223" lon="-0.020831">
        <ele>869.121</ele>
        <time>2018-04-02T10:33:48Z</time>
      </trkpt>
      <trkpt lat="40.623271" lon="-0.020870">
        <ele>869.613</ele>
        <time>2018-04-02T10:33:59Z</time>
      </trkpt>
      <trkpt lat="40.623269" lon="-0.020872">
        <ele>869.608</ele>
        <time>2018-04-02T10:34:16Z</time>
      </trkpt>
      <trkpt lat="40.623255" lon="-0.020870">
        <ele>869.629</ele>
        <time>2018-04-02T10:34:17Z</time>
      </trkpt>
      <trkpt lat="40.623176" lon="-0.020877">
        <ele>870.146</ele>
        <time>2018-04-02T10:34:26Z</time>
      </trkpt>
      <trkpt lat="40.623148" lon="-0.020883">
        <ele>871.550</ele>
        <time>2018-04-02T10:34:28Z</time>
      </trkpt>
      <trkpt lat="40.623138" lon="-0.020881">
        <ele>871.578</ele>
        <time>2018-04-02T10:34:29Z</time>
      </trkpt>
      <trkpt lat="40.623128" lon="-0.020884">
        <ele>871.586</ele>
        <time>2018-04-02T10:34:30Z</time>
      </trkpt>
      <trkpt lat="40.623118" lon="-0.020893">
        <ele>872.059</ele>
        <time>2018-04-02T10:34:31Z</time>
      </trkpt>
      <trkpt lat="40.623111" lon="-0.020909">
        <ele>872.036</ele>
        <time>2018-04-02T10:34:32Z</time>
      </trkpt>
      <trkpt lat="40.623110" lon="-0.020930">
        <ele>872.526</ele>
        <time>2018-04-02T10:34:33Z</time>
      </trkpt>
      <trkpt lat="40.623120" lon="-0.020976">
        <ele>873.097</ele>
        <time>2018-04-02T10:34:35Z</time>
      </trkpt>
      <trkpt lat="40.623185" lon="-0.021047">
        <ele>874.423</ele>
        <time>2018-04-02T10:34:41Z</time>
      </trkpt>
      <trkpt lat="40.623205" lon="-0.021188">
        <ele>877.825</ele>
        <time>2018-04-02T10:34:48Z</time>
      </trkpt>
      <trkpt lat="40.623197" lon="-0.021297">
        <ele>879.208</ele>
        <time>2018-04-02T10:34:53Z</time>
      </trkpt>
      <trkpt lat="40.623254" lon="-0.021440">
        <ele>879.742</ele>
        <time>2018-04-02T10:35:07Z</time>
      </trkpt>
      <trkpt lat="40.623279" lon="-0.021489">
        <ele>880.219</ele>
        <time>2018-04-02T10:35:43Z</time>
      </trkpt>
      <trkpt lat="40.623322" lon="-0.021553">
        <ele>881.673</ele>
        <time>2018-04-02T10:37:24Z</time>
      </trkpt>
      <trkpt lat="40.623318" lon="-0.021547">
        <ele>882.161</ele>
        <time>2018-04-02T10:39:33Z</time>
      </trkpt>
      <trkpt lat="40.623317" lon="-0.021555">
        <ele>882.199</ele>
        <time>2018-04-02T10:39:58Z</time>
      </trkpt>
      <trkpt lat="40.623456" lon="-0.021594">
        <ele>883.532</ele>
        <time>2018-04-02T10:41:03Z</time>
      </trkpt>
      <trkpt lat="40.623515" lon="-0.021625">
        <ele>883.559</ele>
        <time>2018-04-02T10:41:09Z</time>
      </trkpt>
      <trkpt lat="40.623766" lon="-0.021720">
        <ele>883.519</ele>
        <time>2018-04-02T10:41:38Z</time>
      </trkpt>
      <trkpt lat="40.623946" lon="-0.021826">
        <ele>881.186</ele>
        <time>2018-04-02T10:41:52Z</time>
      </trkpt>
      <trkpt lat="40.623988" lon="-0.021924">
        <ele>880.260</ele>
        <time>2018-04-02T10:42:06Z</time>
      </trkpt>
      <trkpt lat="40.624003" lon="-0.021950">
        <ele>881.126</ele>
        <time>2018-04-02T10:42:10Z</time>
      </trkpt>
      <trkpt lat="40.624055" lon="-0.022021">
        <ele>882.108</ele>
        <time>2018-04-02T10:42:25Z</time>
      </trkpt>
      <trkpt lat="40.624125" lon="-0.022106">
        <ele>882.131</ele>
        <time>2018-04-02T10:42:36Z</time>
      </trkpt>
      <trkpt lat="40.624144" lon="-0.022234">
        <ele>883.578</ele>
        <time>2018-04-02T10:42:53Z</time>
      </trkpt>
      <trkpt lat="40.624142" lon="-0.022313">
        <ele>884.542</ele>
        <time>2018-04-02T10:43:12Z</time>
      </trkpt>
      <trkpt lat="40.624210" lon="-0.022483">
        <ele>887.410</ele>
        <time>2018-04-02T10:45:13Z</time>
      </trkpt>
      <trkpt lat="40.624356" lon="-0.022710">
        <ele>888.498</ele>
        <time>2018-04-02T10:45:26Z</time>
      </trkpt>
      <trkpt lat="40.624480" lon="-0.022780">
        <ele>888.411</ele>
        <time>2018-04-02T10:45:29Z</time>
      </trkpt>
      <trkpt lat="40.624562" lon="-0.022842">
        <ele>888.878</ele>
        <time>2018-04-02T10:45:39Z</time>
      </trkpt>
      <trkpt lat="40.624669" lon="-0.022981">
        <ele>888.898</ele>
        <time>2018-04-02T10:45:50Z</time>
      </trkpt>
      <trkpt lat="40.624729" lon="-0.023131">
        <ele>888.839</ele>
        <time>2018-04-02T10:45:55Z</time>
      </trkpt>
      <trkpt lat="40.624816" lon="-0.023192">
        <ele>887.401</ele>
        <time>2018-04-02T10:45:59Z</time>
      </trkpt>
      <trkpt lat="40.625010" lon="-0.023321">
        <ele>886.921</ele>
        <time>2018-04-02T10:46:07Z</time>
      </trkpt>
      <trkpt lat="40.625038" lon="-0.023357">
        <ele>886.908</ele>
        <time>2018-04-02T10:46:08Z</time>
      </trkpt>
      <trkpt lat="40.625056" lon="-0.023385">
        <ele>886.996</ele>
        <time>2018-04-02T10:46:09Z</time>
      </trkpt>
      <trkpt lat="40.625185" lon="-0.023677">
        <ele>890.323</ele>
        <time>2018-04-02T10:46:17Z</time>
      </trkpt>
      <trkpt lat="40.625225" lon="-0.023964">
        <ele>893.267</ele>
        <time>2018-04-02T10:46:28Z</time>
      </trkpt>
      <trkpt lat="40.625221" lon="-0.023988">
        <ele>893.215</ele>
        <time>2018-04-02T10:46:29Z</time>
      </trkpt>
      <trkpt lat="40.625215" lon="-0.024007">
        <ele>893.233</ele>
        <time>2018-04-02T10:46:30Z</time>
      </trkpt>
      <trkpt lat="40.625214" lon="-0.024032">
        <ele>893.266</ele>
        <time>2018-04-02T10:46:31Z</time>
      </trkpt>
      <trkpt lat="40.625213" lon="-0.024057">
        <ele>893.263</ele>
        <time>2018-04-02T10:46:32Z</time>
      </trkpt>
      <trkpt lat="40.625211" lon="-0.024079">
        <ele>893.213</ele>
        <time>2018-04-02T10:46:33Z</time>
      </trkpt>
      <trkpt lat="40.625209" lon="-0.024098">
        <ele>893.246</ele>
        <time>2018-04-02T10:46:34Z</time>
      </trkpt>
      <trkpt lat="40.625184" lon="-0.024292">
        <ele>895.688</ele>
        <time>2018-04-02T10:46:45Z</time>
      </trkpt>
      <trkpt lat="40.625185" lon="-0.024322">
        <ele>895.616</ele>
        <time>2018-04-02T10:46:46Z</time>
      </trkpt>
      <trkpt lat="40.625188" lon="-0.024354">
        <ele>895.608</ele>
        <time>2018-04-02T10:46:47Z</time>
      </trkpt>
      <trkpt lat="40.625188" lon="-0.024384">
        <ele>895.647</ele>
        <time>2018-04-02T10:46:48Z</time>
      </trkpt>
      <trkpt lat="40.625183" lon="-0.024409">
        <ele>895.614</ele>
        <time>2018-04-02T10:46:49Z</time>
      </trkpt>
      <trkpt lat="40.625181" lon="-0.024433">
        <ele>895.668</ele>
        <time>2018-04-02T10:46:50Z</time>
      </trkpt>
      <trkpt lat="40.625182" lon="-0.024458">
        <ele>895.666</ele>
        <time>2018-04-02T10:46:51Z</time>
      </trkpt>
      <trkpt lat="40.625183" lon="-0.024485">
        <ele>896.514</ele>
        <time>2018-04-02T10:46:52Z</time>
      </trkpt>
      <trkpt lat="40.625185" lon="-0.024514">
        <ele>896.577</ele>
        <time>2018-04-02T10:46:53Z</time>
      </trkpt>
      <trkpt lat="40.625176" lon="-0.024618">
        <ele>898.024</ele>
        <time>2018-04-02T10:46:59Z</time>
      </trkpt>
      <trkpt lat="40.625171" lon="-0.024641">
        <ele>898.494</ele>
        <time>2018-04-02T10:47:00Z</time>
      </trkpt>
      <trkpt lat="40.625169" lon="-0.024664">
        <ele>898.941</ele>
        <time>2018-04-02T10:47:01Z</time>
      </trkpt>
      <trkpt lat="40.625170" lon="-0.024691">
        <ele>898.981</ele>
        <time>2018-04-02T10:47:02Z</time>
      </trkpt>
      <trkpt lat="40.625170" lon="-0.024714">
        <ele>898.909</ele>
        <time>2018-04-02T10:47:03Z</time>
      </trkpt>
      <trkpt lat="40.625170" lon="-0.024887">
        <ele>902.308</ele>
        <time>2018-04-02T10:47:11Z</time>
      </trkpt>
      <trkpt lat="40.625129" lon="-0.025095">
        <ele>902.827</ele>
        <time>2018-04-02T10:47:22Z</time>
      </trkpt>
      <trkpt lat="40.625121" lon="-0.025119">
        <ele>903.334</ele>
        <time>2018-04-02T10:47:23Z</time>
      </trkpt>
      <trkpt lat="40.625097" lon="-0.025346">
        <ele>904.758</ele>
        <time>2018-04-02T10:47:31Z</time>
      </trkpt>
      <trkpt lat="40.625102" lon="-0.025372">
        <ele>904.716</ele>
        <time>2018-04-02T10:47:32Z</time>
      </trkpt>
      <trkpt lat="40.625110" lon="-0.025398">
        <ele>905.244</ele>
        <time>2018-04-02T10:47:33Z</time>
      </trkpt>
      <trkpt lat="40.625123" lon="-0.025435">
        <ele>905.287</ele>
        <time>2018-04-02T10:47:34Z</time>
      </trkpt>
      <trkpt lat="40.625134" lon="-0.025472">
        <ele>905.754</ele>
        <time>2018-04-02T10:47:35Z</time>
      </trkpt>
      <trkpt lat="40.625170" lon="-0.025614">
        <ele>906.194</ele>
        <time>2018-04-02T10:47:40Z</time>
      </trkpt>
      <trkpt lat="40.625180" lon="-0.025635">
        <ele>906.172</ele>
        <time>2018-04-02T10:47:41Z</time>
      </trkpt>
      <trkpt lat="40.625189" lon="-0.025655">
        <ele>906.113</ele>
        <time>2018-04-02T10:47:42Z</time>
      </trkpt>
      <trkpt lat="40.625327" lon="-0.025950">
        <ele>909.014</ele>
        <time>2018-04-02T10:47:53Z</time>
      </trkpt>
      <trkpt lat="40.625498" lon="-0.026222">
        <ele>912.908</ele>
        <time>2018-04-02T10:48:05Z</time>
      </trkpt>
      <trkpt lat="40.625617" lon="-0.026460">
        <ele>914.840</ele>
        <time>2018-04-02T10:48:16Z</time>
      </trkpt>
      <trkpt lat="40.625627" lon="-0.026477">
        <ele>915.387</ele>
        <time>2018-04-02T10:48:17Z</time>
      </trkpt>
      <trkpt lat="40.625640" lon="-0.026494">
        <ele>915.381</ele>
        <time>2018-04-02T10:48:18Z</time>
      </trkpt>
      <trkpt lat="40.625653" lon="-0.026506">
        <ele>915.399</ele>
        <time>2018-04-02T10:48:19Z</time>
      </trkpt>
      <trkpt lat="40.625667" lon="-0.026521">
        <ele>915.717</ele>
        <time>2018-04-02T10:48:20Z</time>
      </trkpt>
      <trkpt lat="40.625684" lon="-0.026532">
        <ele>915.720</ele>
        <time>2018-04-02T10:48:21Z</time>
      </trkpt>
      <trkpt lat="40.625698" lon="-0.026545">
        <ele>916.227</ele>
        <time>2018-04-02T10:48:22Z</time>
      </trkpt>
      <trkpt lat="40.625715" lon="-0.026558">
        <ele>916.267</ele>
        <time>2018-04-02T10:48:23Z</time>
      </trkpt>
      <trkpt lat="40.625736" lon="-0.026568">
        <ele>916.799</ele>
        <time>2018-04-02T10:48:24Z</time>
      </trkpt>
      <trkpt lat="40.625754" lon="-0.026575">
        <ele>916.707</ele>
        <time>2018-04-02T10:48:25Z</time>
      </trkpt>
      <trkpt lat="40.625928" lon="-0.026800">
        <ele>917.227</ele>
        <time>2018-04-02T10:48:36Z</time>
      </trkpt>
      <trkpt lat="40.625995" lon="-0.026990">
        <ele>918.608</ele>
        <time>2018-04-02T10:48:43Z</time>
      </trkpt>
      <trkpt lat="40.626008" lon="-0.027024">
        <ele>918.622</ele>
        <time>2018-04-02T10:48:44Z</time>
      </trkpt>
      <trkpt lat="40.626019" lon="-0.027054">
        <ele>918.659</ele>
        <time>2018-04-02T10:48:45Z</time>
      </trkpt>
      <trkpt lat="40.626229" lon="-0.027300">
        <ele>918.643</ele>
        <time>2018-04-02T10:48:54Z</time>
      </trkpt>
      <trkpt lat="40.626386" lon="-0.027393">
        <ele>918.681</ele>
        <time>2018-04-02T10:49:00Z</time>
      </trkpt>
      <trkpt lat="40.626407" lon="-0.027426">
        <ele>918.659</ele>
        <time>2018-04-02T10:49:01Z</time>
      </trkpt>
      <trkpt lat="40.626642" lon="-0.027688">
        <ele>921.022</ele>
        <time>2018-04-02T10:49:15Z</time>
      </trkpt>
      <trkpt lat="40.626712" lon="-0.027760">
        <ele>922.019</ele>
        <time>2018-04-02T10:49:19Z</time>
      </trkpt>
      <trkpt lat="40.626911" lon="-0.028116">
        <ele>923.989</ele>
        <time>2018-04-02T10:49:32Z</time>
      </trkpt>
      <trkpt lat="40.627123" lon="-0.028397">
        <ele>927.381</ele>
        <time>2018-04-02T10:49:44Z</time>
      </trkpt>
      <trkpt lat="40.627140" lon="-0.028418">
        <ele>927.861</ele>
        <time>2018-04-02T10:49:45Z</time>
      </trkpt>
      <trkpt lat="40.627155" lon="-0.028439">
        <ele>927.817</ele>
        <time>2018-04-02T10:49:46Z</time>
      </trkpt>
      <trkpt lat="40.627362" lon="-0.028750">
        <ele>930.608</ele>
        <time>2018-04-02T10:50:00Z</time>
      </trkpt>
      <trkpt lat="40.627436" lon="-0.029075">
        <ele>931.171</ele>
        <time>2018-04-02T10:50:12Z</time>
      </trkpt>
      <trkpt lat="40.627476" lon="-0.029362">
        <ele>933.588</ele>
        <time>2018-04-02T10:50:22Z</time>
      </trkpt>
      <trkpt lat="40.627489" lon="-0.029444">
        <ele>934.532</ele>
        <time>2018-04-02T10:50:25Z</time>
      </trkpt>
      <trkpt lat="40.627490" lon="-0.029471">
        <ele>934.510</ele>
        <time>2018-04-02T10:50:26Z</time>
      </trkpt>
      <trkpt lat="40.627491" lon="-0.029497">
        <ele>934.588</ele>
        <time>2018-04-02T10:50:27Z</time>
      </trkpt>
      <trkpt lat="40.627491" lon="-0.029526">
        <ele>934.541</ele>
        <time>2018-04-02T10:50:28Z</time>
      </trkpt>
      <trkpt lat="40.627493" lon="-0.029564">
        <ele>934.578</ele>
        <time>2018-04-02T10:50:29Z</time>
      </trkpt>
      <trkpt lat="40.627489" lon="-0.030126">
        <ele>934.078</ele>
        <time>2018-04-02T10:50:41Z</time>
      </trkpt>
      <trkpt lat="40.627518" lon="-0.030590">
        <ele>934.541</ele>
        <time>2018-04-02T10:50:52Z</time>
      </trkpt>
      <trkpt lat="40.627528" lon="-0.031056">
        <ele>934.581</ele>
        <time>2018-04-02T10:51:05Z</time>
      </trkpt>
      <trkpt lat="40.627509" lon="-0.031419">
        <ele>937.409</ele>
        <time>2018-04-02T10:51:18Z</time>
      </trkpt>
      <trkpt lat="40.627468" lon="-0.031720">
        <ele>939.808</ele>
        <time>2018-04-02T10:51:32Z</time>
      </trkpt>
      <trkpt lat="40.627454" lon="-0.031779">
        <ele>940.367</ele>
        <time>2018-04-02T10:51:35Z</time>
      </trkpt>
      <trkpt lat="40.627459" lon="-0.031804">
        <ele>940.384</ele>
        <time>2018-04-02T10:51:36Z</time>
      </trkpt>
      <trkpt lat="40.627469" lon="-0.031825">
        <ele>940.388</ele>
        <time>2018-04-02T10:51:37Z</time>
      </trkpt>
      <trkpt lat="40.627486" lon="-0.031845">
        <ele>940.716</ele>
        <time>2018-04-02T10:51:38Z</time>
      </trkpt>
      <trkpt lat="40.627499" lon="-0.031863">
        <ele>940.784</ele>
        <time>2018-04-02T10:51:39Z</time>
      </trkpt>
      <trkpt lat="40.627508" lon="-0.031883">
        <ele>940.767</ele>
        <time>2018-04-02T10:51:40Z</time>
      </trkpt>
      <trkpt lat="40.627517" lon="-0.031902">
        <ele>941.274</ele>
        <time>2018-04-02T10:51:41Z</time>
      </trkpt>
      <trkpt lat="40.627530" lon="-0.031924">
        <ele>941.274</ele>
        <time>2018-04-02T10:51:42Z</time>
      </trkpt>
      <trkpt lat="40.627548" lon="-0.031949">
        <ele>941.219</ele>
        <time>2018-04-02T10:51:43Z</time>
      </trkpt>
      <trkpt lat="40.627734" lon="-0.032075">
        <ele>944.609</ele>
        <time>2018-04-02T10:51:54Z</time>
      </trkpt>
      <trkpt lat="40.627885" lon="-0.032149">
        <ele>948.019</ele>
        <time>2018-04-02T10:52:03Z</time>
      </trkpt>
      <trkpt lat="40.628053" lon="-0.032293">
        <ele>951.308</ele>
        <time>2018-04-02T10:52:16Z</time>
      </trkpt>
      <trkpt lat="40.628074" lon="-0.032381">
        <ele>952.324</ele>
        <time>2018-04-02T10:52:21Z</time>
      </trkpt>
      <trkpt lat="40.628069" lon="-0.032397">
        <ele>952.861</ele>
        <time>2018-04-02T10:52:22Z</time>
      </trkpt>
      <trkpt lat="40.628060" lon="-0.032410">
        <ele>952.875</ele>
        <time>2018-04-02T10:52:23Z</time>
      </trkpt>
      <trkpt lat="40.628050" lon="-0.032421">
        <ele>953.233</ele>
        <time>2018-04-02T10:52:24Z</time>
      </trkpt>
      <trkpt lat="40.628040" lon="-0.032431">
        <ele>953.291</ele>
        <time>2018-04-02T10:52:25Z</time>
      </trkpt>
      <trkpt lat="40.628028" lon="-0.032438">
        <ele>953.734</ele>
        <time>2018-04-02T10:52:26Z</time>
      </trkpt>
      <trkpt lat="40.628016" lon="-0.032443">
        <ele>953.731</ele>
        <time>2018-04-02T10:52:27Z</time>
      </trkpt>
      <trkpt lat="40.628005" lon="-0.032444">
        <ele>954.231</ele>
        <time>2018-04-02T10:52:28Z</time>
      </trkpt>
      <trkpt lat="40.627817" lon="-0.032414">
        <ele>957.682</ele>
        <time>2018-04-02T10:52:43Z</time>
      </trkpt>
      <trkpt lat="40.627668" lon="-0.032411">
        <ele>960.443</ele>
        <time>2018-04-02T10:52:54Z</time>
      </trkpt>
      <trkpt lat="40.627548" lon="-0.032342">
        <ele>962.417</ele>
        <time>2018-04-02T10:53:06Z</time>
      </trkpt>
      <trkpt lat="40.627519" lon="-0.032326">
        <ele>962.908</ele>
        <time>2018-04-02T10:53:20Z</time>
      </trkpt>
      <trkpt lat="40.627478" lon="-0.032301">
        <ele>963.361</ele>
        <time>2018-04-02T10:53:32Z</time>
      </trkpt>
      <trkpt lat="40.627309" lon="-0.032275">
        <ele>966.758</ele>
        <time>2018-04-02T10:53:44Z</time>
      </trkpt>
      <trkpt lat="40.627158" lon="-0.032278">
        <ele>969.692</ele>
        <time>2018-04-02T10:53:52Z</time>
      </trkpt>
      <trkpt lat="40.627036" lon="-0.032265">
        <ele>970.550</ele>
        <time>2018-04-02T10:53:58Z</time>
      </trkpt>
      <trkpt lat="40.627012" lon="-0.032283">
        <ele>970.538</ele>
        <time>2018-04-02T10:53:59Z</time>
      </trkpt>
      <trkpt lat="40.626692" lon="-0.032549">
        <ele>972.041</ele>
        <time>2018-04-02T10:54:12Z</time>
      </trkpt>
      <trkpt lat="40.626454" lon="-0.032777">
        <ele>975.338</ele>
        <time>2018-04-02T10:54:24Z</time>
      </trkpt>
      <trkpt lat="40.626157" lon="-0.032777">
        <ele>976.828</ele>
        <time>2018-04-02T10:54:38Z</time>
      </trkpt>
      <trkpt lat="40.625796" lon="-0.032666">
        <ele>977.882</ele>
        <time>2018-04-02T10:54:53Z</time>
      </trkpt>
      <trkpt lat="40.625250" lon="-0.032550">
        <ele>979.243</ele>
        <time>2018-04-02T10:55:12Z</time>
      </trkpt>
      <trkpt lat="40.624882" lon="-0.032467">
        <ele>979.717</ele>
        <time>2018-04-02T10:55:25Z</time>
      </trkpt>
      <trkpt lat="40.624579" lon="-0.032391">
        <ele>980.208</ele>
        <time>2018-04-02T10:55:36Z</time>
      </trkpt>
      <trkpt lat="40.624137" lon="-0.032038">
        <ele>982.631</ele>
        <time>2018-04-02T10:55:54Z</time>
      </trkpt>
      <trkpt lat="40.623772" lon="-0.031675">
        <ele>984.058</ele>
        <time>2018-04-02T10:56:10Z</time>
      </trkpt>
      <trkpt lat="40.623344" lon="-0.031372">
        <ele>986.462</ele>
        <time>2018-04-02T10:56:27Z</time>
      </trkpt>
      <trkpt lat="40.623066" lon="-0.031324">
        <ele>989.320</ele>
        <time>2018-04-02T10:56:39Z</time>
      </trkpt>
      <trkpt lat="40.622798" lon="-0.031626">
        <ele>992.738</ele>
        <time>2018-04-02T10:56:54Z</time>
      </trkpt>
      <trkpt lat="40.622476" lon="-0.031771">
        <ele>994.151</ele>
        <time>2018-04-02T10:57:09Z</time>
      </trkpt>
      <trkpt lat="40.622103" lon="-0.031739">
        <ele>996.568</ele>
        <time>2018-04-02T10:57:24Z</time>
      </trkpt>
      <trkpt lat="40.621692" lon="-0.031800">
        <ele>999.478</ele>
        <time>2018-04-02T10:57:41Z</time>
      </trkpt>
      <trkpt lat="40.621477" lon="-0.031790">
        <ele>1002.718</ele>
        <time>2018-04-02T10:57:51Z</time>
      </trkpt>
      <trkpt lat="40.621240" lon="-0.031907">
        <ele>1004.798</ele>
        <time>2018-04-02T10:58:04Z</time>
      </trkpt>
      <trkpt lat="40.621165" lon="-0.032018">
        <ele>1004.717</ele>
        <time>2018-04-02T10:58:09Z</time>
      </trkpt>
      <trkpt lat="40.621141" lon="-0.032021">
        <ele>1004.708</ele>
        <time>2018-04-02T10:58:10Z</time>
      </trkpt>
      <trkpt lat="40.621115" lon="-0.032017">
        <ele>1004.734</ele>
        <time>2018-04-02T10:58:11Z</time>
      </trkpt>
      <trkpt lat="40.621093" lon="-0.032001">
        <ele>1005.241</ele>
        <time>2018-04-02T10:58:12Z</time>
      </trkpt>
      <trkpt lat="40.621076" lon="-0.031978">
        <ele>1005.615</ele>
        <time>2018-04-02T10:58:13Z</time>
      </trkpt>
      <trkpt lat="40.621063" lon="-0.031954">
        <ele>1006.163</ele>
        <time>2018-04-02T10:58:14Z</time>
      </trkpt>
      <trkpt lat="40.621049" lon="-0.031931">
        <ele>1006.681</ele>
        <time>2018-04-02T10:58:15Z</time>
      </trkpt>
      <trkpt lat="40.621035" lon="-0.031911">
        <ele>1006.614</ele>
        <time>2018-04-02T10:58:16Z</time>
      </trkpt>
      <trkpt lat="40.620845" lon="-0.031689">
        <ele>1010.041</ele>
        <time>2018-04-02T10:58:28Z</time>
      </trkpt>
      <trkpt lat="40.620660" lon="-0.031441">
        <ele>1013.331</ele>
        <time>2018-04-02T10:58:40Z</time>
      </trkpt>
      <trkpt lat="40.620637" lon="-0.031378">
        <ele>1013.367</ele>
        <time>2018-04-02T10:58:51Z</time>
      </trkpt>
      <trkpt lat="40.620647" lon="-0.031398">
        <ele>1013.381</ele>
        <time>2018-04-02T10:59:25Z</time>
      </trkpt>
      <trkpt lat="40.620639" lon="-0.031401">
        <ele>1013.819</ele>
        <time>2018-04-02T10:59:55Z</time>
      </trkpt>
      <trkpt lat="40.620630" lon="-0.031386">
        <ele>1013.808</ele>
        <time>2018-04-02T11:00:26Z</time>
      </trkpt>
      <trkpt lat="40.620595" lon="-0.031372">
        <ele>1013.869</ele>
        <time>2018-04-02T11:01:05Z</time>
      </trkpt>
      <trkpt lat="40.620545" lon="-0.031190">
        <ele>1015.286</ele>
        <time>2018-04-02T11:01:18Z</time>
      </trkpt>
      <trkpt lat="40.620546" lon="-0.031103">
        <ele>1015.760</ele>
        <time>2018-04-02T11:01:28Z</time>
      </trkpt>
      <trkpt lat="40.620548" lon="-0.031139">
        <ele>1016.298</ele>
        <time>2018-04-02T11:02:06Z</time>
      </trkpt>
      <trkpt lat="40.620510" lon="-0.030952">
        <ele>1017.686</ele>
        <time>2018-04-02T11:02:17Z</time>
      </trkpt>
      <trkpt lat="40.620512" lon="-0.030917">
        <ele>1018.689</ele>
        <time>2018-04-02T11:02:19Z</time>
      </trkpt>
      <trkpt lat="40.620515" lon="-0.030902">
        <ele>1018.686</ele>
        <time>2018-04-02T11:02:20Z</time>
      </trkpt>
      <trkpt lat="40.620514" lon="-0.030889">
        <ele>1018.676</ele>
        <time>2018-04-02T11:02:35Z</time>
      </trkpt>
      <trkpt lat="40.620498" lon="-0.030825">
        <ele>1019.123</ele>
        <time>2018-04-02T11:02:47Z</time>
      </trkpt>
      <trkpt lat="40.620503" lon="-0.030829">
        <ele>1019.183</ele>
        <time>2018-04-02T11:03:08Z</time>
      </trkpt>
      <trkpt lat="40.620495" lon="-0.030834">
        <ele>1019.611</ele>
        <time>2018-04-02T11:03:24Z</time>
      </trkpt>
      <trkpt lat="40.620505" lon="-0.030819">
        <ele>1019.608</ele>
        <time>2018-04-02T11:03:50Z</time>
      </trkpt>
      <trkpt lat="40.620502" lon="-0.030790">
        <ele>1020.145</ele>
        <time>2018-04-02T11:04:09Z</time>
      </trkpt>
      <trkpt lat="40.620448" lon="-0.030571">
        <ele>1022.592</ele>
        <time>2018-04-02T11:04:19Z</time>
      </trkpt>
      <trkpt lat="40.620420" lon="-0.030482">
        <ele>1023.966</ele>
        <time>2018-04-02T11:04:22Z</time>
      </trkpt>
      <trkpt lat="40.620254" lon="-0.030276">
        <ele>1025.824</ele>
        <time>2018-04-02T11:04:35Z</time>
      </trkpt>
      <trkpt lat="40.620169" lon="-0.030282">
        <ele>1027.782</ele>
        <time>2018-04-02T11:04:39Z</time>
      </trkpt>
      <trkpt lat="40.620155" lon="-0.030300">
        <ele>1027.715</ele>
        <time>2018-04-02T11:04:40Z</time>
      </trkpt>
      <trkpt lat="40.620146" lon="-0.030321">
        <ele>1028.212</ele>
        <time>2018-04-02T11:04:41Z</time>
      </trkpt>
      <trkpt lat="40.620141" lon="-0.030346">
        <ele>1028.222</ele>
        <time>2018-04-02T11:04:42Z</time>
      </trkpt>
      <trkpt lat="40.620138" lon="-0.030371">
        <ele>1028.223</ele>
        <time>2018-04-02T11:04:43Z</time>
      </trkpt>
      <trkpt lat="40.620139" lon="-0.030396">
        <ele>1028.283</ele>
        <time>2018-04-02T11:04:44Z</time>
      </trkpt>
      <trkpt lat="40.620160" lon="-0.030747">
        <ele>1029.711</ele>
        <time>2018-04-02T11:04:55Z</time>
      </trkpt>
      <trkpt lat="40.620149" lon="-0.030787">
        <ele>1030.108</ele>
        <time>2018-04-02T11:04:57Z</time>
      </trkpt>
      <trkpt lat="40.620142" lon="-0.030810">
        <ele>1030.615</ele>
        <time>2018-04-02T11:05:10Z</time>
      </trkpt>
      <trkpt lat="40.620125" lon="-0.030791">
        <ele>1030.682</ele>
        <time>2018-04-02T11:05:44Z</time>
      </trkpt>
      <trkpt lat="40.620140" lon="-0.030798">
        <ele>1030.686</ele>
        <time>2018-04-02T11:06:08Z</time>
      </trkpt>
      <trkpt lat="40.620124" lon="-0.030807">
        <ele>1030.664</ele>
        <time>2018-04-02T11:06:34Z</time>
      </trkpt>
      <trkpt lat="40.620017" lon="-0.031005">
        <ele>1031.162</ele>
        <time>2018-04-02T11:06:50Z</time>
      </trkpt>
      <trkpt lat="40.620055" lon="-0.031434">
        <ele>1034.025</ele>
        <time>2018-04-02T11:07:01Z</time>
      </trkpt>
      <trkpt lat="40.620030" lon="-0.031769">
        <ele>1037.852</ele>
        <time>2018-04-02T11:07:11Z</time>
      </trkpt>
      <trkpt lat="40.619961" lon="-0.032003">
        <ele>1040.792</ele>
        <time>2018-04-02T11:07:19Z</time>
      </trkpt>
      <trkpt lat="40.619904" lon="-0.032080">
        <ele>1041.739</ele>
        <time>2018-04-02T11:07:23Z</time>
      </trkpt>
      <trkpt lat="40.619885" lon="-0.032093">
        <ele>1042.201</ele>
        <time>2018-04-02T11:07:24Z</time>
      </trkpt>
      <trkpt lat="40.619864" lon="-0.032102">
        <ele>1042.221</ele>
        <time>2018-04-02T11:07:25Z</time>
      </trkpt>
      <trkpt lat="40.619842" lon="-0.032108">
        <ele>1042.208</ele>
        <time>2018-04-02T11:07:26Z</time>
      </trkpt>
      <trkpt lat="40.619820" lon="-0.032116">
        <ele>1042.696</ele>
        <time>2018-04-02T11:07:27Z</time>
      </trkpt>
      <trkpt lat="40.619525" lon="-0.032268">
        <ele>1044.113</ele>
        <time>2018-04-02T11:07:41Z</time>
      </trkpt>
      <trkpt lat="40.619122" lon="-0.032217">
        <ele>1043.627</ele>
        <time>2018-04-02T11:07:54Z</time>
      </trkpt>
      <trkpt lat="40.618972" lon="-0.032224">
        <ele>1041.235</ele>
        <time>2018-04-02T11:07:57Z</time>
      </trkpt>
      <trkpt lat="40.618920" lon="-0.032230">
        <ele>1041.213</ele>
        <time>2018-04-02T11:07:58Z</time>
      </trkpt>
      <trkpt lat="40.618879" lon="-0.032254">
        <ele>1041.286</ele>
        <time>2018-04-02T11:07:59Z</time>
      </trkpt>
      <trkpt lat="40.618846" lon="-0.032297">
        <ele>1040.793</ele>
        <time>2018-04-02T11:08:00Z</time>
      </trkpt>
      <trkpt lat="40.618828" lon="-0.032345">
        <ele>1040.753</ele>
        <time>2018-04-02T11:08:01Z</time>
      </trkpt>
      <trkpt lat="40.618822" lon="-0.032394">
        <ele>1040.772</ele>
        <time>2018-04-02T11:08:02Z</time>
      </trkpt>
      <trkpt lat="40.618828" lon="-0.032442">
        <ele>1040.713</ele>
        <time>2018-04-02T11:08:03Z</time>
      </trkpt>
      <trkpt lat="40.618837" lon="-0.032490">
        <ele>1040.714</ele>
        <time>2018-04-02T11:08:04Z</time>
      </trkpt>
      <trkpt lat="40.618903" lon="-0.032884">
        <ele>1043.608</ele>
        <time>2018-04-02T11:08:14Z</time>
      </trkpt>
      <trkpt lat="40.618949" lon="-0.033232">
        <ele>1046.590</ele>
        <time>2018-04-02T11:08:24Z</time>
      </trkpt>
      <trkpt lat="40.618877" lon="-0.033577">
        <ele>1050.397</ele>
        <time>2018-04-02T11:08:35Z</time>
      </trkpt>
      <trkpt lat="40.619005" lon="-0.034056">
        <ele>1051.381</ele>
        <time>2018-04-02T11:08:49Z</time>
      </trkpt>
      <trkpt lat="40.619180" lon="-0.034463">
        <ele>1053.279</ele>
        <time>2018-04-02T11:09:02Z</time>
      </trkpt>
      <trkpt lat="40.619527" lon="-0.034932">
        <ele>1054.257</ele>
        <time>2018-04-02T11:09:19Z</time>
      </trkpt>
      <trkpt lat="40.619695" lon="-0.035445">
        <ele>1056.640</ele>
        <time>2018-04-02T11:09:33Z</time>
      </trkpt>
      <trkpt lat="40.619860" lon="-0.035837">
        <ele>1059.597</ele>
        <time>2018-04-02T11:09:45Z</time>
      </trkpt>
      <trkpt lat="40.620129" lon="-0.036139">
        <ele>1062.857</ele>
        <time>2018-04-02T11:09:58Z</time>
      </trkpt>
      <trkpt lat="40.620418" lon="-0.035978">
        <ele>1062.893</ele>
        <time>2018-04-02T11:10:08Z</time>
      </trkpt>
      <trkpt lat="40.620527" lon="-0.035853">
        <ele>1062.865</ele>
        <time>2018-04-02T11:10:12Z</time>
      </trkpt>
      <trkpt lat="40.620563" lon="-0.035827">
        <ele>1062.821</ele>
        <time>2018-04-02T11:10:13Z</time>
      </trkpt>
      <trkpt lat="40.620937" lon="-0.035462">
        <ele>1064.308</ele>
        <time>2018-04-02T11:10:27Z</time>
      </trkpt>
      <trkpt lat="40.621156" lon="-0.035189">
        <ele>1067.672</ele>
        <time>2018-04-02T11:10:37Z</time>
      </trkpt>
      <trkpt lat="40.621416" lon="-0.035135">
        <ele>1071.039</ele>
        <time>2018-04-02T11:10:47Z</time>
      </trkpt>
      <trkpt lat="40.621609" lon="-0.035204">
        <ele>1073.453</ele>
        <time>2018-04-02T11:10:55Z</time>
      </trkpt>
      <trkpt lat="40.621618" lon="-0.035232">
        <ele>1073.441</ele>
        <time>2018-04-02T11:10:56Z</time>
      </trkpt>
      <trkpt lat="40.621620" lon="-0.035532">
        <ele>1076.329</ele>
        <time>2018-04-02T11:11:06Z</time>
      </trkpt>
      <trkpt lat="40.621589" lon="-0.035765">
        <ele>1079.712</ele>
        <time>2018-04-02T11:11:15Z</time>
      </trkpt>
      <trkpt lat="40.621560" lon="-0.036009">
        <ele>1082.529</ele>
        <time>2018-04-02T11:11:25Z</time>
      </trkpt>
      <trkpt lat="40.621514" lon="-0.036314">
        <ele>1085.949</ele>
        <time>2018-04-02T11:11:37Z</time>
      </trkpt>
      <trkpt lat="40.621509" lon="-0.036730">
        <ele>1088.337</ele>
        <time>2018-04-02T11:11:52Z</time>
      </trkpt>
      <trkpt lat="40.621513" lon="-0.037355">
        <ele>1090.249</ele>
        <time>2018-04-02T11:12:10Z</time>
      </trkpt>
      <trkpt lat="40.621542" lon="-0.037925">
        <ele>1092.213</ele>
        <time>2018-04-02T11:12:27Z</time>
      </trkpt>
      <trkpt lat="40.621544" lon="-0.038504">
        <ele>1093.108</ele>
        <time>2018-04-02T11:12:42Z</time>
      </trkpt>
      <trkpt lat="40.621426" lon="-0.039135">
        <ele>1093.156</ele>
        <time>2018-04-02T11:12:57Z</time>
      </trkpt>
      <trkpt lat="40.621599" lon="-0.039722">
        <ele>1095.063</ele>
        <time>2018-04-02T11:13:13Z</time>
      </trkpt>
      <trkpt lat="40.621701" lon="-0.039902">
        <ele>1098.487</ele>
        <time>2018-04-02T11:13:19Z</time>
      </trkpt>
      <trkpt lat="40.621993" lon="-0.040043">
        <ele>1101.875</ele>
        <time>2018-04-02T11:13:30Z</time>
      </trkpt>
      <trkpt lat="40.622281" lon="-0.040244">
        <ele>1105.133</ele>
        <time>2018-04-02T11:13:44Z</time>
      </trkpt>
      <trkpt lat="40.622405" lon="-0.040232">
        <ele>1105.626</ele>
        <time>2018-04-02T11:13:50Z</time>
      </trkpt>
      <trkpt lat="40.622494" lon="-0.040210">
        <ele>1103.783</ele>
        <time>2018-04-02T11:13:52Z</time>
      </trkpt>
      <trkpt lat="40.622578" lon="-0.040173">
        <ele>1103.723</ele>
        <time>2018-04-02T11:13:54Z</time>
      </trkpt>
      <trkpt lat="40.622617" lon="-0.040154">
        <ele>1103.256</ele>
        <time>2018-04-02T11:13:55Z</time>
      </trkpt>
      <trkpt lat="40.622719" lon="-0.040124">
        <ele>1102.759</ele>
        <time>2018-04-02T11:13:59Z</time>
      </trkpt>
      <trkpt lat="40.622744" lon="-0.040191">
        <ele>1102.214</ele>
        <time>2018-04-02T11:14:05Z</time>
      </trkpt>
      <trkpt lat="40.622692" lon="-0.040248">
        <ele>1103.708</ele>
        <time>2018-04-02T11:14:11Z</time>
      </trkpt>
      <trkpt lat="40.622694" lon="-0.040258">
        <ele>1104.238</ele>
        <time>2018-04-02T11:14:25Z</time>
      </trkpt>
      <trkpt lat="40.622704" lon="-0.040262">
        <ele>1104.245</ele>
        <time>2018-04-02T11:14:34Z</time>
      </trkpt>
      <trkpt lat="40.622670" lon="-0.040285">
        <ele>1104.669</ele>
        <time>2018-04-02T11:14:53Z</time>
      </trkpt>
      <trkpt lat="40.622492" lon="-0.040443">
        <ele>1106.137</ele>
        <time>2018-04-02T11:15:03Z</time>
      </trkpt>
      <trkpt lat="40.622460" lon="-0.040552">
        <ele>1107.515</ele>
        <time>2018-04-02T11:15:07Z</time>
      </trkpt>
      <trkpt lat="40.622472" lon="-0.040586">
        <ele>1108.028</ele>
        <time>2018-04-02T11:15:08Z</time>
      </trkpt>
      <trkpt lat="40.622523" lon="-0.040975">
        <ele>1109.525</ele>
        <time>2018-04-02T11:15:22Z</time>
      </trkpt>
      <trkpt lat="40.622485" lon="-0.041142">
        <ele>1109.915</ele>
        <time>2018-04-02T11:15:28Z</time>
      </trkpt>
      <trkpt lat="40.622471" lon="-0.041824">
        <ele>1109.998</ele>
        <time>2018-04-02T11:15:44Z</time>
      </trkpt>
      <trkpt lat="40.622583" lon="-0.042886">
        <ele>1110.915</ele>
        <time>2018-04-02T11:16:04Z</time>
      </trkpt>
      <trkpt lat="40.622665" lon="-0.044018">
        <ele>1111.926</ele>
        <time>2018-04-02T11:16:23Z</time>
      </trkpt>
      <trkpt lat="40.622785" lon="-0.044930">
        <ele>1111.908</ele>
        <time>2018-04-02T11:16:39Z</time>
      </trkpt>
      <trkpt lat="40.622809" lon="-0.045086">
        <ele>1112.382</ele>
        <time>2018-04-02T11:16:43Z</time>
      </trkpt>
      <trkpt lat="40.622801" lon="-0.045113">
        <ele>1112.389</ele>
        <time>2018-04-02T11:16:44Z</time>
      </trkpt>
      <trkpt lat="40.622791" lon="-0.045129">
        <ele>1112.313</ele>
        <time>2018-04-02T11:16:45Z</time>
      </trkpt>
      <trkpt lat="40.622750" lon="-0.045160">
        <ele>1112.311</ele>
        <time>2018-04-02T11:16:57Z</time>
      </trkpt>
      <trkpt lat="40.622742" lon="-0.045182">
        <ele>1112.319</ele>
        <time>2018-04-02T11:17:02Z</time>
      </trkpt>
      <trkpt lat="40.622738" lon="-0.045201">
        <ele>1112.352</ele>
        <time>2018-04-02T11:17:03Z</time>
      </trkpt>
      <trkpt lat="40.622731" lon="-0.045220">
        <ele>1112.349</ele>
        <time>2018-04-02T11:17:04Z</time>
      </trkpt>
      <trkpt lat="40.622725" lon="-0.045242">
        <ele>1112.399</ele>
        <time>2018-04-02T11:17:05Z</time>
      </trkpt>
      <trkpt lat="40.622717" lon="-0.045264">
        <ele>1112.399</ele>
        <time>2018-04-02T11:17:06Z</time>
      </trkpt>
      <trkpt lat="40.622706" lon="-0.045288">
        <ele>1112.307</ele>
        <time>2018-04-02T11:17:07Z</time>
      </trkpt>
      <trkpt lat="40.622691" lon="-0.045314">
        <ele>1112.327</ele>
        <time>2018-04-02T11:17:08Z</time>
      </trkpt>
      <trkpt lat="40.622646" lon="-0.045473">
        <ele>1110.908</ele>
        <time>2018-04-02T11:17:12Z</time>
      </trkpt>
      <trkpt lat="40.622586" lon="-0.045734">
        <ele>1109.922</ele>
        <time>2018-04-02T11:17:19Z</time>
      </trkpt>
      <trkpt lat="40.622604" lon="-0.046127">
        <ele>1109.939</ele>
        <time>2018-04-02T11:17:30Z</time>
      </trkpt>
      <trkpt lat="40.622632" lon="-0.046299">
        <ele>1111.423</ele>
        <time>2018-04-02T11:17:35Z</time>
      </trkpt>
      <trkpt lat="40.622629" lon="-0.046338">
        <ele>1111.441</ele>
        <time>2018-04-02T11:17:36Z</time>
      </trkpt>
      <trkpt lat="40.622459" lon="-0.046787">
        <ele>1111.929</ele>
        <time>2018-04-02T11:17:49Z</time>
      </trkpt>
      <trkpt lat="40.622441" lon="-0.046872">
        <ele>1110.932</ele>
        <time>2018-04-02T11:17:51Z</time>
      </trkpt>
      <trkpt lat="40.622496" lon="-0.047303">
        <ele>1109.099</ele>
        <time>2018-04-02T11:18:02Z</time>
      </trkpt>
      <trkpt lat="40.622402" lon="-0.047506">
        <ele>1106.649</ele>
        <time>2018-04-02T11:18:11Z</time>
      </trkpt>
      <trkpt lat="40.622371" lon="-0.047643">
        <ele>1104.241</ele>
        <time>2018-04-02T11:18:17Z</time>
      </trkpt>
      <trkpt lat="40.622376" lon="-0.047827">
        <ele>1101.381</ele>
        <time>2018-04-02T11:18:22Z</time>
      </trkpt>
      <trkpt lat="40.622396" lon="-0.047921">
        <ele>1100.309</ele>
        <time>2018-04-02T11:18:24Z</time>
      </trkpt>
      <trkpt lat="40.622475" lon="-0.048133">
        <ele>1098.408</ele>
        <time>2018-04-02T11:18:29Z</time>
      </trkpt>
      <trkpt lat="40.622547" lon="-0.048329">
        <ele>1097.447</ele>
        <time>2018-04-02T11:18:33Z</time>
      </trkpt>
      <trkpt lat="40.622619" lon="-0.048499">
        <ele>1096.094</ele>
        <time>2018-04-02T11:18:38Z</time>
      </trkpt>
      <trkpt lat="40.622711" lon="-0.048868">
        <ele>1092.628</ele>
        <time>2018-04-02T11:18:47Z</time>
      </trkpt>
      <trkpt lat="40.622724" lon="-0.048907">
        <ele>1092.236</ele>
        <time>2018-04-02T11:18:48Z</time>
      </trkpt>
      <trkpt lat="40.622747" lon="-0.049201">
        <ele>1089.354</ele>
        <time>2018-04-02T11:18:54Z</time>
      </trkpt>
      <trkpt lat="40.622848" lon="-0.049455">
        <ele>1086.447</ele>
        <time>2018-04-02T11:19:01Z</time>
      </trkpt>
      <trkpt lat="40.622876" lon="-0.049476">
        <ele>1086.424</ele>
        <time>2018-04-02T11:19:02Z</time>
      </trkpt>
      <trkpt lat="40.622973" lon="-0.049656">
        <ele>1084.014</ele>
        <time>2018-04-02T11:19:06Z</time>
      </trkpt>
      <trkpt lat="40.623141" lon="-0.049789">
        <ele>1083.036</ele>
        <time>2018-04-02T11:19:12Z</time>
      </trkpt>
      <trkpt lat="40.623154" lon="-0.049937">
        <ele>1084.917</ele>
        <time>2018-04-02T11:19:18Z</time>
      </trkpt>
      <trkpt lat="40.623116" lon="-0.049963">
        <ele>1084.918</ele>
        <time>2018-04-02T11:19:20Z</time>
      </trkpt>
      <trkpt lat="40.623091" lon="-0.050011">
        <ele>1083.508</ele>
        <time>2018-04-02T11:19:22Z</time>
      </trkpt>
      <trkpt lat="40.623046" lon="-0.050074">
        <ele>1083.026</ele>
        <time>2018-04-02T11:19:25Z</time>
      </trkpt>
      <trkpt lat="40.622982" lon="-0.050234">
        <ele>1083.093</ele>
        <time>2018-04-02T11:19:30Z</time>
      </trkpt>
      <trkpt lat="40.622771" lon="-0.050628">
        <ele>1081.177</ele>
        <time>2018-04-02T11:19:42Z</time>
      </trkpt>
      <trkpt lat="40.622629" lon="-0.051012">
        <ele>1079.215</ele>
        <time>2018-04-02T11:19:53Z</time>
      </trkpt>
      <trkpt lat="40.622542" lon="-0.051232">
        <ele>1076.853</ele>
        <time>2018-04-02T11:19:59Z</time>
      </trkpt>
      <trkpt lat="40.622578" lon="-0.051466">
        <ele>1076.896</ele>
        <time>2018-04-02T11:20:04Z</time>
      </trkpt>
      <trkpt lat="40.622596" lon="-0.051576">
        <ele>1076.383</ele>
        <time>2018-04-02T11:20:06Z</time>
      </trkpt>
      <trkpt lat="40.622672" lon="-0.051782">
        <ele>1075.863</ele>
        <time>2018-04-02T11:20:10Z</time>
      </trkpt>
      <trkpt lat="40.622791" lon="-0.051994">
        <ele>1075.378</ele>
        <time>2018-04-02T11:20:15Z</time>
      </trkpt>
      <trkpt lat="40.622993" lon="-0.052154">
        <ele>1072.933</ele>
        <time>2018-04-02T11:20:21Z</time>
      </trkpt>
      <trkpt lat="40.623245" lon="-0.052338">
        <ele>1069.626</ele>
        <time>2018-04-02T11:20:30Z</time>
      </trkpt>
      <trkpt lat="40.623425" lon="-0.052440">
        <ele>1067.208</ele>
        <time>2018-04-02T11:20:37Z</time>
      </trkpt>
      <trkpt lat="40.623547" lon="-0.052832">
        <ele>1069.690</ele>
        <time>2018-04-02T11:20:49Z</time>
      </trkpt>
      <trkpt lat="40.623676" lon="-0.053282">
        <ele>1071.077</ele>
        <time>2018-04-02T11:21:00Z</time>
      </trkpt>
      <trkpt lat="40.623728" lon="-0.053425">
        <ele>1069.161</ele>
        <time>2018-04-02T11:21:03Z</time>
      </trkpt>
      <trkpt lat="40.623657" lon="-0.053827">
        <ele>1067.679</ele>
        <time>2018-04-02T11:21:12Z</time>
      </trkpt>
      <trkpt lat="40.623414" lon="-0.054118">
        <ele>1063.877</ele>
        <time>2018-04-02T11:21:21Z</time>
      </trkpt>
      <trkpt lat="40.623388" lon="-0.054147">
        <ele>1063.850</ele>
        <time>2018-04-02T11:21:22Z</time>
      </trkpt>
      <trkpt lat="40.623288" lon="-0.054298">
        <ele>1060.417</ele>
        <time>2018-04-02T11:21:27Z</time>
      </trkpt>
      <trkpt lat="40.623263" lon="-0.054431">
        <ele>1059.077</ele>
        <time>2018-04-02T11:21:31Z</time>
      </trkpt>
      <trkpt lat="40.623228" lon="-0.054505">
        <ele>1057.554</ele>
        <time>2018-04-02T11:21:34Z</time>
      </trkpt>
      <trkpt lat="40.623258" lon="-0.054565">
        <ele>1056.156</ele>
        <time>2018-04-02T11:21:38Z</time>
      </trkpt>
      <trkpt lat="40.623409" lon="-0.054616">
        <ele>1055.111</ele>
        <time>2018-04-02T11:21:43Z</time>
      </trkpt>
      <trkpt lat="40.623523" lon="-0.054868">
        <ele>1051.308</ele>
        <time>2018-04-02T11:21:50Z</time>
      </trkpt>
      <trkpt lat="40.623494" lon="-0.055051">
        <ele>1050.858</ele>
        <time>2018-04-02T11:21:54Z</time>
      </trkpt>
      <trkpt lat="40.623410" lon="-0.055341">
        <ele>1052.335</ele>
        <time>2018-04-02T11:22:01Z</time>
      </trkpt>
      <trkpt lat="40.623283" lon="-0.055567">
        <ele>1050.839</ele>
        <time>2018-04-02T11:22:10Z</time>
      </trkpt>
      <trkpt lat="40.623287" lon="-0.055746">
        <ele>1049.417</ele>
        <time>2018-04-02T11:22:15Z</time>
      </trkpt>
      <trkpt lat="40.623373" lon="-0.056107">
        <ele>1047.995</ele>
        <time>2018-04-02T11:22:24Z</time>
      </trkpt>
      <trkpt lat="40.623388" lon="-0.056151">
        <ele>1047.948</ele>
        <time>2018-04-02T11:22:25Z</time>
      </trkpt>
      <trkpt lat="40.623486" lon="-0.056521">
        <ele>1046.515</ele>
        <time>2018-04-02T11:22:34Z</time>
      </trkpt>
      <trkpt lat="40.623531" lon="-0.056631">
        <ele>1045.555</ele>
        <time>2018-04-02T11:22:37Z</time>
      </trkpt>
      <trkpt lat="40.623638" lon="-0.056912">
        <ele>1045.564</ele>
        <time>2018-04-02T11:22:44Z</time>
      </trkpt>
      <trkpt lat="40.623773" lon="-0.057335">
        <ele>1045.006</ele>
        <time>2018-04-02T11:22:56Z</time>
      </trkpt>
      <trkpt lat="40.623786" lon="-0.057750">
        <ele>1046.016</ele>
        <time>2018-04-02T11:23:06Z</time>
      </trkpt>
      <trkpt lat="40.623786" lon="-0.057786">
        <ele>1046.008</ele>
        <time>2018-04-02T11:23:07Z</time>
      </trkpt>
      <trkpt lat="40.623793" lon="-0.058020">
        <ele>1047.949</ele>
        <time>2018-04-02T11:23:14Z</time>
      </trkpt>
      <trkpt lat="40.623787" lon="-0.058074">
        <ele>1048.496</ele>
        <time>2018-04-02T11:23:19Z</time>
      </trkpt>
      <trkpt lat="40.623789" lon="-0.058095">
        <ele>1048.410</ele>
        <time>2018-04-02T11:23:20Z</time>
      </trkpt>
      <trkpt lat="40.623790" lon="-0.058120">
        <ele>1048.418</ele>
        <time>2018-04-02T11:23:21Z</time>
      </trkpt>
      <trkpt lat="40.623788" lon="-0.058144">
        <ele>1048.416</ele>
        <time>2018-04-02T11:23:22Z</time>
      </trkpt>
      <trkpt lat="40.623780" lon="-0.058161">
        <ele>1048.919</ele>
        <time>2018-04-02T11:23:23Z</time>
      </trkpt>
      <trkpt lat="40.623769" lon="-0.058174">
        <ele>1048.956</ele>
        <time>2018-04-02T11:23:24Z</time>
      </trkpt>
      <trkpt lat="40.623739" lon="-0.058205">
        <ele>1049.486</ele>
        <time>2018-04-02T11:23:26Z</time>
      </trkpt>
      <trkpt lat="40.623785" lon="-0.058508">
        <ele>1051.354</ele>
        <time>2018-04-02T11:23:36Z</time>
      </trkpt>
      <trkpt lat="40.623831" lon="-0.058755">
        <ele>1053.256</ele>
        <time>2018-04-02T11:23:44Z</time>
      </trkpt>
      <trkpt lat="40.623917" lon="-0.059222">
        <ele>1055.111</ele>
        <time>2018-04-02T11:23:58Z</time>
      </trkpt>
      <trkpt lat="40.623931" lon="-0.059699">
        <ele>1055.608</ele>
        <time>2018-04-02T11:24:11Z</time>
      </trkpt>
      <trkpt lat="40.623964" lon="-0.060079">
        <ele>1055.678</ele>
        <time>2018-04-02T11:24:23Z</time>
      </trkpt>
      <trkpt lat="40.623974" lon="-0.060206">
        <ele>1054.735</ele>
        <time>2018-04-02T11:24:26Z</time>
      </trkpt>
      <trkpt lat="40.623883" lon="-0.060711">
        <ele>1053.749</ele>
        <time>2018-04-02T11:24:40Z</time>
      </trkpt>
      <trkpt lat="40.623745" lon="-0.061079">
        <ele>1050.887</ele>
        <time>2018-04-02T11:24:50Z</time>
      </trkpt>
      <trkpt lat="40.623640" lon="-0.061416">
        <ele>1048.955</ele>
        <time>2018-04-02T11:24:59Z</time>
      </trkpt>
      <trkpt lat="40.623505" lon="-0.061883">
        <ele>1046.048</ele>
        <time>2018-04-02T11:25:09Z</time>
      </trkpt>
      <trkpt lat="40.623406" lon="-0.062243">
        <ele>1043.645</ele>
        <time>2018-04-02T11:25:19Z</time>
      </trkpt>
      <trkpt lat="40.623340" lon="-0.062711">
        <ele>1041.265</ele>
        <time>2018-04-02T11:25:30Z</time>
      </trkpt>
      <trkpt lat="40.623329" lon="-0.062916">
        <ele>1040.272</ele>
        <time>2018-04-02T11:25:34Z</time>
      </trkpt>
      <trkpt lat="40.623246" lon="-0.063496">
        <ele>1036.913</ele>
        <time>2018-04-02T11:25:46Z</time>
      </trkpt>
      <trkpt lat="40.623160" lon="-0.063788">
        <ele>1033.514</ele>
        <time>2018-04-02T11:25:56Z</time>
      </trkpt>
      <trkpt lat="40.623064" lon="-0.064011">
        <ele>1030.608</ele>
        <time>2018-04-02T11:26:04Z</time>
      </trkpt>
      <trkpt lat="40.622907" lon="-0.064145">
        <ele>1026.840</ele>
        <time>2018-04-02T11:26:12Z</time>
      </trkpt>
      <trkpt lat="40.622882" lon="-0.064166">
        <ele>1026.327</ele>
        <time>2018-04-02T11:26:13Z</time>
      </trkpt>
      <trkpt lat="40.622665" lon="-0.064320">
        <ele>1028.221</ele>
        <time>2018-04-02T11:26:24Z</time>
      </trkpt>
      <trkpt lat="40.622632" lon="-0.064329">
        <ele>1028.229</ele>
        <time>2018-04-02T11:26:34Z</time>
      </trkpt>
      <trkpt lat="40.622610" lon="-0.064408">
        <ele>1020.227</ele>
        <time>1999-11-30T00:00:00Z</time>
      </trkpt>
      <trkpt lat="40.622566" lon="-0.064518">
        <ele>1018.710</ele>
        <time>1999-11-30T00:00:00Z</time>
      </trkpt>
      <trkpt lat="40.622510" lon="-0.064619">
        <ele>1016.817</ele>
        <time>1999-11-30T00:00:00Z</time>
      </trkpt>
      <trkpt lat="40.622451" lon="-0.064734">
        <ele>1015.817</ele>
        <time>1999-11-30T00:00:00Z</time>
      </trkpt>
      <trkpt lat="40.622404" lon="-0.064861">
        <ele>1015.285</ele>
        <time>1999-11-30T00:00:00Z</time>
      </trkpt>
      <trkpt lat="40.622344" lon="-0.064953">
        <ele>1015.289</ele>
        <time>1999-11-30T00:00:00Z</time>
      </trkpt>
      <trkpt lat="40.622289" lon="-0.065068">
        <ele>1014.217</ele>
        <time>1999-11-30T00:00:00Z</time>
      </trkpt>
      <trkpt lat="40.622270" lon="-0.065226">
        <ele>1013.008</ele>
        <time>1999-11-30T00:00:00Z</time>
      </trkpt>
      <trkpt lat="40.622254" lon="-0.065365">
        <ele>1011.551</ele>
        <time>1999-11-30T00:00:00Z</time>
      </trkpt>
      <trkpt lat="40.622206" lon="-0.065511">
        <ele>1009.598</ele>
        <time>1999-11-30T00:00:00Z</time>
      </trkpt>
      <trkpt lat="40.622155" lon="-0.065651">
        <ele>1008.192</ele>
        <time>1999-11-30T00:00:00Z</time>
      </trkpt>
      <trkpt lat="40.622127" lon="-0.065786">
        <ele>1007.130</ele>
        <time>1999-11-30T00:00:00Z</time>
      </trkpt>
      <trkpt lat="40.622082" lon="-0.065891">
        <ele>1005.328</ele>
        <time>1999-11-30T00:00:00Z</time>
      </trkpt>
      <trkpt lat="40.622060" lon="-0.066016">
        <ele>1004.081</ele>
        <time>1999-11-30T00:00:00Z</time>
      </trkpt>
      <trkpt lat="40.622042" lon="-0.066149">
        <ele>1002.378</ele>
        <time>1999-11-30T00:00:00Z</time>
      </trkpt>
      <trkpt lat="40.622007" lon="-0.066309">
        <ele>1000.048</ele>
        <time>1999-11-30T00:00:00Z</time>
      </trkpt>
      <trkpt lat="40.621964" lon="-0.066502">
        <ele>997.196</ele>
        <time>1999-11-30T00:00:00Z</time>
      </trkpt>
      <trkpt lat="40.621912" lon="-0.066681">
        <ele>994.631</ele>
        <time>1999-11-30T00:00:00Z</time>
      </trkpt>
      <trkpt lat="40.621876" lon="-0.066821">
        <ele>992.724</ele>
        <time>1999-11-30T00:00:00Z</time>
      </trkpt>
      <trkpt lat="40.621846" lon="-0.066958">
        <ele>990.508</ele>
        <time>1999-11-30T00:00:00Z</time>
      </trkpt>
      <trkpt lat="40.621769" lon="-0.067061">
        <ele>988.042</ele>
        <time>1999-11-30T00:00:00Z</time>
      </trkpt>
      <trkpt lat="40.621774" lon="-0.067208">
        <ele>985.639</ele>
        <time>1999-11-30T00:00:00Z</time>
      </trkpt>
      <trkpt lat="40.621819" lon="-0.067331">
        <ele>983.713</ele>
        <time>1999-11-30T00:00:00Z</time>
      </trkpt>
      <trkpt lat="40.621752" lon="-0.067426">
        <ele>981.531</ele>
        <time>1999-11-30T00:00:00Z</time>
      </trkpt>
      <trkpt lat="40.621757" lon="-0.067559">
        <ele>980.289</ele>
        <time>1999-11-30T00:00:00Z</time>
      </trkpt>
      <trkpt lat="40.621732" lon="-0.067737">
        <ele>976.912</ele>
        <time>1999-11-30T00:00:00Z</time>
      </trkpt>
      <trkpt lat="40.621714" lon="-0.067884">
        <ele>974.439</ele>
        <time>1999-11-30T00:00:00Z</time>
      </trkpt>
      <trkpt lat="40.621690" lon="-0.068004">
        <ele>972.789</ele>
        <time>1999-11-30T00:00:00Z</time>
      </trkpt>
      <trkpt lat="40.621639" lon="-0.068106">
        <ele>971.262</ele>
        <time>1999-11-30T00:00:00Z</time>
      </trkpt>
      <trkpt lat="40.621639" lon="-0.068259">
        <ele>969.283</ele>
        <time>1999-11-30T00:00:00Z</time>
      </trkpt>
      <trkpt lat="40.621672" lon="-0.068373">
        <ele>967.811</ele>
        <time>1999-11-30T00:00:00Z</time>
      </trkpt>
      <trkpt lat="40.621759" lon="-0.068404">
        <ele>967.208</ele>
        <time>1999-11-30T00:00:00Z</time>
      </trkpt>
      <trkpt lat="40.621837" lon="-0.068464">
        <ele>965.789</ele>
        <time>1999-11-30T00:00:00Z</time>
      </trkpt>
      <trkpt lat="40.621790" lon="-0.068576">
        <ele>964.796</ele>
        <time>1999-11-30T00:00:00Z</time>
      </trkpt>
      <trkpt lat="40.621774" lon="-0.068734">
        <ele>962.580</ele>
        <time>1999-11-30T00:00:00Z</time>
      </trkpt>
      <trkpt lat="40.621769" lon="-0.068861">
        <ele>961.018</ele>
        <time>1999-11-30T00:00:00Z</time>
      </trkpt>
      <trkpt lat="40.621752" lon="-0.068984">
        <ele>959.546</ele>
        <time>1999-11-30T00:00:00Z</time>
      </trkpt>
      <trkpt lat="40.621710" lon="-0.069118">
        <ele>958.479</ele>
        <time>1999-11-30T00:00:00Z</time>
      </trkpt>
      <trkpt lat="40.621664" lon="-0.069255">
        <ele>957.476</ele>
        <time>1999-11-30T00:00:00Z</time>
      </trkpt>
      <trkpt lat="40.621619" lon="-0.069372">
        <ele>955.836</ele>
        <time>1999-11-30T00:00:00Z</time>
      </trkpt>
      <trkpt lat="40.621636" lon="-0.069506">
        <ele>953.976</ele>
        <time>1999-11-30T00:00:00Z</time>
      </trkpt>
      <trkpt lat="40.621686" lon="-0.069626">
        <ele>951.290</ele>
        <time>1999-11-30T00:00:00Z</time>
      </trkpt>
      <trkpt lat="40.621719" lon="-0.069773">
        <ele>949.219</ele>
        <time>1999-11-30T00:00:00Z</time>
      </trkpt>
      <trkpt lat="40.621732" lon="-0.069908">
        <ele>946.708</ele>
        <time>1999-11-30T00:00:00Z</time>
      </trkpt>
      <trkpt lat="40.621817" lon="-0.069983">
        <ele>944.770</ele>
        <time>1999-11-30T00:00:00Z</time>
      </trkpt>
      <trkpt lat="40.621849" lon="-0.070099">
        <ele>942.837</ele>
        <time>1999-11-30T00:00:00Z</time>
      </trkpt>
      <trkpt lat="40.621881" lon="-0.070268">
        <ele>940.711</ele>
        <time>1999-11-30T00:00:00Z</time>
      </trkpt>
      <trkpt lat="40.621886" lon="-0.070397">
        <ele>938.989</ele>
        <time>1999-11-30T00:00:00Z</time>
      </trkpt>
      <trkpt lat="40.621901" lon="-0.070539">
        <ele>937.277</ele>
        <time>1999-11-30T00:00:00Z</time>
      </trkpt>
      <trkpt lat="40.621934" lon="-0.070686">
        <ele>935.790</ele>
        <time>1999-11-30T00:00:00Z</time>
      </trkpt>
      <trkpt lat="40.621954" lon="-0.070827">
        <ele>934.217</ele>
        <time>1999-11-30T00:00:00Z</time>
      </trkpt>
      <trkpt lat="40.621979" lon="-0.070952">
        <ele>933.627</ele>
        <time>1999-11-30T00:00:00Z</time>
      </trkpt>
      <trkpt lat="40.622020" lon="-0.071069">
        <ele>932.275</ele>
        <time>1999-11-30T00:00:00Z</time>
      </trkpt>
      <trkpt lat="40.622067" lon="-0.071175">
        <ele>930.928</ele>
        <time>1999-11-30T00:00:00Z</time>
      </trkpt>
      <trkpt lat="40.622127" lon="-0.071267">
        <ele>928.720</ele>
        <time>1999-11-30T00:00:00Z</time>
      </trkpt>
      <trkpt lat="40.622174" lon="-0.071396">
        <ele>925.908</ele>
        <time>1999-11-30T00:00:00Z</time>
      </trkpt>
      <trkpt lat="40.622174" lon="-0.071516">
        <ele>924.280</ele>
        <time>1999-11-30T00:00:00Z</time>
      </trkpt>
      <trkpt lat="40.622116" lon="-0.071616">
        <ele>922.477</ele>
        <time>1999-11-30T00:00:00Z</time>
      </trkpt>
      <trkpt lat="40.622045" lon="-0.071708">
        <ele>921.131</ele>
        <time>1999-11-30T00:00:00Z</time>
      </trkpt>
      <trkpt lat="40.621959" lon="-0.071781">
        <ele>920.169</ele>
        <time>1999-11-30T00:00:00Z</time>
      </trkpt>
      <trkpt lat="40.621877" lon="-0.071857">
        <ele>919.347</ele>
        <time>1999-11-30T00:00:00Z</time>
      </trkpt>
      <trkpt lat="40.621972" lon="-0.071877">
        <ele>917.740</ele>
        <time>1999-11-30T00:00:00Z</time>
      </trkpt>
      <trkpt lat="40.621916" lon="-0.071972">
        <ele>915.597</ele>
        <time>1999-11-30T00:00:00Z</time>
      </trkpt>
      <trkpt lat="40.621832" lon="-0.072041">
        <ele>912.987</ele>
        <time>1999-11-30T00:00:00Z</time>
      </trkpt>
      <trkpt lat="40.621735" lon="-0.072074">
        <ele>910.092</ele>
        <time>1999-11-30T00:00:00Z</time>
      </trkpt>
      <trkpt lat="40.621707" lon="-0.072187">
        <ele>907.273</ele>
        <time>1999-11-30T00:00:00Z</time>
      </trkpt>
      <trkpt lat="40.621781" lon="-0.072271">
        <ele>906.320</ele>
        <time>1999-11-30T00:00:00Z</time>
      </trkpt>
      <trkpt lat="40.621866" lon="-0.072191">
        <ele>906.408</ele>
        <time>1999-11-30T00:00:00Z</time>
      </trkpt>
      <trkpt lat="40.621967" lon="-0.072168">
        <ele>904.392</ele>
        <time>1999-11-30T00:00:00Z</time>
      </trkpt>
      <trkpt lat="40.621997" lon="-0.072287">
        <ele>904.139</ele>
        <time>1999-11-30T00:00:00Z</time>
      </trkpt>
      <trkpt lat="40.622006" lon="-0.072417">
        <ele>906.713</ele>
        <time>1999-11-30T00:00:00Z</time>
      </trkpt>
      <trkpt lat="40.621999" lon="-0.072536">
        <ele>907.941</ele>
        <time>1999-11-30T00:00:00Z</time>
      </trkpt>
      <trkpt lat="40.621969" lon="-0.072653">
        <ele>909.739</ele>
        <time>1999-11-30T00:00:00Z</time>
      </trkpt>
      <trkpt lat="40.622016" lon="-0.072762">
        <ele>913.082</ele>
        <time>1999-11-30T00:00:00Z</time>
      </trkpt>
      <trkpt lat="40.622097" lon="-0.072819">
        <ele>913.359</ele>
        <time>1999-11-30T00:00:00Z</time>
      </trkpt>
      <trkpt lat="40.622197" lon="-0.072796">
        <ele>914.179</ele>
        <time>1999-11-30T00:00:00Z</time>
      </trkpt>
      <trkpt lat="40.622301" lon="-0.072751">
        <ele>914.921</ele>
        <time>1999-11-30T00:00:00Z</time>
      </trkpt>
      <trkpt lat="40.622389" lon="-0.072706">
        <ele>915.941</ele>
        <time>1999-11-30T00:00:00Z</time>
      </trkpt>
      <trkpt lat="40.622487" lon="-0.072726">
        <ele>917.305</ele>
        <time>1999-11-30T00:00:00Z</time>
      </trkpt>
      <trkpt lat="40.622547" lon="-0.072838">
        <ele>917.708</ele>
        <time>1999-11-30T00:00:00Z</time>
      </trkpt>
      <trkpt lat="40.622605" lon="-0.072957">
        <ele>918.475</ele>
        <time>1999-11-30T00:00:00Z</time>
      </trkpt>
      <trkpt lat="40.622654" lon="-0.073082">
        <ele>918.652</ele>
        <time>1999-11-30T00:00:00Z</time>
      </trkpt>
      <trkpt lat="40.622700" lon="-0.073199">
        <ele>918.736</ele>
        <time>1999-11-30T00:00:00Z</time>
      </trkpt>
      <trkpt lat="40.622747" lon="-0.073306">
        <ele>918.734</ele>
        <time>1999-11-30T00:00:00Z</time>
      </trkpt>
      <trkpt lat="40.622829" lon="-0.073416">
        <ele>918.952</ele>
        <time>1999-11-30T00:00:00Z</time>
      </trkpt>
      <trkpt lat="40.622907" lon="-0.073501">
        <ele>918.765</ele>
        <time>1999-11-30T00:00:00Z</time>
      </trkpt>
      <trkpt lat="40.623002" lon="-0.073579">
        <ele>918.462</ele>
        <time>1999-11-30T00:00:00Z</time>
      </trkpt>
      <trkpt lat="40.623086" lon="-0.073639">
        <ele>918.322</ele>
        <time>1999-11-30T00:00:00Z</time>
      </trkpt>
      <trkpt lat="40.623159" lon="-0.073710">
        <ele>918.052</ele>
        <time>1999-11-30T00:00:00Z</time>
      </trkpt>
      <trkpt lat="40.623255" lon="-0.073772">
        <ele>917.653</ele>
        <time>1999-11-30T00:00:00Z</time>
      </trkpt>
      <trkpt lat="40.623361" lon="-0.073831">
        <ele>917.608</ele>
        <time>1999-11-30T00:00:00Z</time>
      </trkpt>
      <trkpt lat="40.623454" lon="-0.073896">
        <ele>917.508</ele>
        <time>1999-11-30T00:00:00Z</time>
      </trkpt>
      <trkpt lat="40.623544" lon="-0.073939">
        <ele>917.768</ele>
        <time>1999-11-30T00:00:00Z</time>
      </trkpt>
      <trkpt lat="40.623649" lon="-0.074019">
        <ele>917.655</ele>
        <time>1999-11-30T00:00:00Z</time>
      </trkpt>
      <trkpt lat="40.623735" lon="-0.074112">
        <ele>917.759</ele>
        <time>1999-11-30T00:00:00Z</time>
      </trkpt>
      <trkpt lat="40.623782" lon="-0.074229">
        <ele>916.137</ele>
        <time>1999-11-30T00:00:00Z</time>
      </trkpt>
      <trkpt lat="40.623845" lon="-0.074348">
        <ele>916.085</ele>
        <time>1999-11-30T00:00:00Z</time>
      </trkpt>
      <trkpt lat="40.623896" lon="-0.074491">
        <ele>914.538</ele>
        <time>1999-11-30T00:00:00Z</time>
      </trkpt>
      <trkpt lat="40.623929" lon="-0.074629">
        <ele>913.335</ele>
        <time>1999-11-30T00:00:00Z</time>
      </trkpt>
      <trkpt lat="40.623932" lon="-0.074766">
        <ele>911.835</ele>
        <time>1999-11-30T00:00:00Z</time>
      </trkpt>
      <trkpt lat="40.623847" lon="-0.074894">
        <ele>910.037</ele>
        <time>1999-11-30T00:00:00Z</time>
      </trkpt>
      <trkpt lat="40.623792" lon="-0.075006">
        <ele>909.249</ele>
        <time>1999-11-30T00:00:00Z</time>
      </trkpt>
      <trkpt lat="40.623767" lon="-0.075161">
        <ele>907.213</ele>
        <time>1999-11-30T00:00:00Z</time>
      </trkpt>
      <trkpt lat="40.623752" lon="-0.075314">
        <ele>905.408</ele>
        <time>1999-11-30T00:00:00Z</time>
      </trkpt>
      <trkpt lat="40.623684" lon="-0.075461">
        <ele>902.736</ele>
        <time>1999-11-30T00:00:00Z</time>
      </trkpt>
      <trkpt lat="40.623642" lon="-0.075589">
        <ele>900.373</ele>
        <time>1999-11-30T00:00:00Z</time>
      </trkpt>
      <trkpt lat="40.623644" lon="-0.075721">
        <ele>899.617</ele>
        <time>1999-11-30T00:00:00Z</time>
      </trkpt>
      <trkpt lat="40.623637" lon="-0.075839">
        <ele>900.125</ele>
        <time>1999-11-30T00:00:00Z</time>
      </trkpt>
      <trkpt lat="40.623637" lon="-0.075839">
        <ele>900.133</ele>
        <time>1999-11-30T00:00:00Z</time>
      </trkpt>
      <trkpt lat="40.623561" lon="-0.075918">
        <ele>899.146</ele>
        <time>1999-11-30T00:00:00Z</time>
      </trkpt>
      <trkpt lat="40.623469" lon="-0.076006">
        <ele>897.823</ele>
        <time>1999-11-30T00:00:00Z</time>
      </trkpt>
      <trkpt lat="40.623362" lon="-0.076078">
        <ele>897.693</ele>
        <time>1999-11-30T00:00:00Z</time>
      </trkpt>
      <trkpt lat="40.623264" lon="-0.076159">
        <ele>897.175</ele>
        <time>1999-11-30T00:00:00Z</time>
      </trkpt>
      <trkpt lat="40.623190" lon="-0.076229">
        <ele>896.528</ele>
        <time>1999-11-30T00:00:00Z</time>
      </trkpt>
      <trkpt lat="40.623077" lon="-0.076296">
        <ele>896.420</ele>
        <time>1999-11-30T00:00:00Z</time>
      </trkpt>
      <trkpt lat="40.623006" lon="-0.076404">
        <ele>895.408</ele>
        <time>1999-11-30T00:00:00Z</time>
      </trkpt>
      <trkpt lat="40.622935" lon="-0.076536">
        <ele>893.830</ele>
        <time>1999-11-30T00:00:00Z</time>
      </trkpt>
      <trkpt lat="40.622859" lon="-0.076621">
        <ele>893.197</ele>
        <time>1999-11-30T00:00:00Z</time>
      </trkpt>
      <trkpt lat="40.622813" lon="-0.076618">
        <ele>893.531</ele>
        <time>1999-11-30T00:00:00Z</time>
      </trkpt>
      <trkpt lat="40.622760" lon="-0.076665">
        <ele>892.879</ele>
        <time>1999-11-30T00:00:00Z</time>
      </trkpt>
      <trkpt lat="40.622747" lon="-0.076657">
        <ele>892.987</ele>
        <time>1999-11-30T00:00:00Z</time>
      </trkpt>
      <trkpt lat="40.622765" lon="-0.076898">
        <ele>889.860</ele>
        <time>2018-10-14T09:01:38Z</time>
      </trkpt>
      <trkpt lat="40.622762" lon="-0.076904">
        <ele>889.337</ele>
        <time>2018-10-14T09:01:45Z</time>
      </trkpt>
      <trkpt lat="40.622763" lon="-0.077015">
        <ele>888.497</ele>
        <time>2018-10-14T09:01:53Z</time>
      </trkpt>
      <trkpt lat="40.622748" lon="-0.077020">
        <ele>888.498</ele>
        <time>2018-10-14T09:02:00Z</time>
      </trkpt>
      <trkpt lat="40.622710" lon="-0.077061">
        <ele>887.915</ele>
        <time>2018-10-14T09:02:03Z</time>
      </trkpt>
      <trkpt lat="40.622691" lon="-0.077086">
        <ele>886.926</ele>
        <time>2018-10-14T09:02:04Z</time>
      </trkpt>
      <trkpt lat="40.622674" lon="-0.077104">
        <ele>886.908</ele>
        <time>2018-10-14T09:02:05Z</time>
      </trkpt>
      <trkpt lat="40.622656" lon="-0.077115">
        <ele>886.922</ele>
        <time>2018-10-14T09:02:06Z</time>
      </trkpt>
      <trkpt lat="40.622636" lon="-0.077122">
        <ele>886.969</ele>
        <time>2018-10-14T09:02:07Z</time>
      </trkpt>
      <trkpt lat="40.622471" lon="-0.077215">
        <ele>886.443</ele>
        <time>2018-10-14T09:02:15Z</time>
      </trkpt>
      <trkpt lat="40.622330" lon="-0.077372">
        <ele>885.561</ele>
        <time>2018-10-14T09:02:22Z</time>
      </trkpt>
      <trkpt lat="40.622272" lon="-0.077519">
        <ele>884.019</ele>
        <time>2018-10-14T09:02:28Z</time>
      </trkpt>
      <trkpt lat="40.622237" lon="-0.077653">
        <ele>884.072</ele>
        <time>2018-10-14T09:02:33Z</time>
      </trkpt>
      <trkpt lat="40.622223" lon="-0.077732">
        <ele>883.599</ele>
        <time>2018-10-14T09:02:36Z</time>
      </trkpt>
      <trkpt lat="40.622191" lon="-0.077901">
        <ele>884.039</ele>
        <time>2018-10-14T09:02:43Z</time>
      </trkpt>
      <trkpt lat="40.622200" lon="-0.078011">
        <ele>883.542</ele>
        <time>2018-10-14T09:02:47Z</time>
      </trkpt>
      <trkpt lat="40.622285" lon="-0.078194">
        <ele>883.122</ele>
        <time>2018-10-14T09:02:55Z</time>
      </trkpt>
      <trkpt lat="40.622310" lon="-0.078223">
        <ele>883.114</ele>
        <time>2018-10-14T09:03:00Z</time>
      </trkpt>
      <trkpt lat="40.622320" lon="-0.078217">
        <ele>882.608</ele>
        <time>2018-10-14T09:03:23Z</time>
      </trkpt>
      <trkpt lat="40.622316" lon="-0.078220">
        <ele>882.677</ele>
        <time>2018-10-14T09:03:40Z</time>
      </trkpt>
      <trkpt lat="40.622324" lon="-0.078242">
        <ele>882.684</ele>
        <time>2018-10-14T09:03:50Z</time>
      </trkpt>
      <trkpt lat="40.622344" lon="-0.078273">
        <ele>882.678</ele>
        <time>2018-10-14T09:03:52Z</time>
      </trkpt>
      <trkpt lat="40.622359" lon="-0.078472">
        <ele>881.646</ele>
        <time>2018-10-14T09:03:59Z</time>
      </trkpt>
      <trkpt lat="40.622362" lon="-0.078489">
        <ele>881.634</ele>
        <time>2018-10-14T09:04:00Z</time>
      </trkpt>
      <trkpt lat="40.622279" lon="-0.078670">
        <ele>881.177</ele>
        <time>2018-10-14T09:04:07Z</time>
      </trkpt>
      <trkpt lat="40.622199" lon="-0.078839">
        <ele>879.764</ele>
        <time>2018-10-14T09:04:13Z</time>
      </trkpt>
      <trkpt lat="40.622202" lon="-0.079043">
        <ele>879.214</ele>
        <time>2018-10-14T09:04:18Z</time>
      </trkpt>
      <trkpt lat="40.622187" lon="-0.079109">
        <ele>880.723</ele>
        <time>2018-10-14T09:04:20Z</time>
      </trkpt>
      <trkpt lat="40.622154" lon="-0.079243">
        <ele>879.283</ele>
        <time>2018-10-14T09:04:23Z</time>
      </trkpt>
      <trkpt lat="40.622092" lon="-0.079324">
        <ele>877.811</ele>
        <time>2018-10-14T09:04:27Z</time>
      </trkpt>
      <trkpt lat="40.622063" lon="-0.079373">
        <ele>877.808</ele>
        <time>2018-10-14T09:04:29Z</time>
      </trkpt>
      <trkpt lat="40.622015" lon="-0.079604">
        <ele>877.855</ele>
        <time>2018-10-14T09:04:37Z</time>
      </trkpt>
      <trkpt lat="40.622015" lon="-0.079634">
        <ele>877.852</ele>
        <time>2018-10-14T09:04:38Z</time>
      </trkpt>
      <trkpt lat="40.621944" lon="-0.079742">
        <ele>877.816</ele>
        <time>2018-10-14T09:04:44Z</time>
      </trkpt>
      <trkpt lat="40.621892" lon="-0.079913">
        <ele>877.894</ele>
        <time>2018-10-14T09:04:50Z</time>
      </trkpt>
      <trkpt lat="40.621886" lon="-0.079966">
        <ele>877.312</ele>
        <time>2018-10-14T09:04:52Z</time>
      </trkpt>
      <trkpt lat="40.621800" lon="-0.080069">
        <ele>877.355</ele>
        <time>2018-10-14T09:04:58Z</time>
      </trkpt>
      <trkpt lat="40.621723" lon="-0.080203">
        <ele>876.882</ele>
        <time>2018-10-14T09:05:05Z</time>
      </trkpt>
      <trkpt lat="40.621696" lon="-0.080366">
        <ele>875.962</ele>
        <time>2018-10-14T09:05:11Z</time>
      </trkpt>
      <trkpt lat="40.621617" lon="-0.080599">
        <ele>875.911</ele>
        <time>2018-10-14T09:05:20Z</time>
      </trkpt>
      <trkpt lat="40.621570" lon="-0.080807">
        <ele>875.921</ele>
        <time>2018-10-14T09:05:27Z</time>
      </trkpt>
      <trkpt lat="40.621591" lon="-0.081054">
        <ele>875.403</ele>
        <time>2018-10-14T09:05:34Z</time>
      </trkpt>
      <trkpt lat="40.621656" lon="-0.081297">
        <ele>874.908</ele>
        <time>2018-10-14T09:05:41Z</time>
      </trkpt>
      <trkpt lat="40.621749" lon="-0.081436">
        <ele>873.994</ele>
        <time>2018-10-14T09:05:46Z</time>
      </trkpt>
      <trkpt lat="40.621758" lon="-0.081472">
        <ele>873.921</ele>
        <time>2018-10-14T09:05:47Z</time>
      </trkpt>
      <trkpt lat="40.621760" lon="-0.081513">
        <ele>873.945</ele>
        <time>2018-10-14T09:05:48Z</time>
      </trkpt>
      <trkpt lat="40.621761" lon="-0.081552">
        <ele>873.973</ele>
        <time>2018-10-14T09:05:49Z</time>
      </trkpt>
      <trkpt lat="40.621771" lon="-0.081589">
        <ele>873.931</ele>
        <time>2018-10-14T09:05:50Z</time>
      </trkpt>
      <trkpt lat="40.621786" lon="-0.081615">
        <ele>873.944</ele>
        <time>2018-10-14T09:05:51Z</time>
      </trkpt>
      <trkpt lat="40.621803" lon="-0.081636">
        <ele>873.961</ele>
        <time>2018-10-14T09:05:52Z</time>
      </trkpt>
      <trkpt lat="40.621818" lon="-0.081657">
        <ele>873.981</ele>
        <time>2018-10-14T09:05:53Z</time>
      </trkpt>
      <trkpt lat="40.621836" lon="-0.081675">
        <ele>873.958</ele>
        <time>2018-10-14T09:05:54Z</time>
      </trkpt>
      <trkpt lat="40.621865" lon="-0.081701">
        <ele>873.952</ele>
        <time>2018-10-14T09:05:55Z</time>
      </trkpt>
      <trkpt lat="40.622056" lon="-0.081885">
        <ele>873.017</ele>
        <time>2018-10-14T09:06:02Z</time>
      </trkpt>
      <trkpt lat="40.622136" lon="-0.082116">
        <ele>872.508</ele>
        <time>2018-10-14T09:06:08Z</time>
      </trkpt>
      <trkpt lat="40.622119" lon="-0.082347">
        <ele>871.018</ele>
        <time>2018-10-14T09:06:13Z</time>
      </trkpt>
      <trkpt lat="40.621965" lon="-0.082510">
        <ele>869.655</ele>
        <time>2018-10-14T09:06:19Z</time>
      </trkpt>
      <trkpt lat="40.621916" lon="-0.082524">
        <ele>869.679</ele>
        <time>2018-10-14T09:06:21Z</time>
      </trkpt>
      <trkpt lat="40.621865" lon="-0.082642">
        <ele>869.187</ele>
        <time>2018-10-14T09:06:26Z</time>
      </trkpt>
      <trkpt lat="40.621843" lon="-0.082790">
        <ele>869.185</ele>
        <time>2018-10-14T09:06:31Z</time>
      </trkpt>
      <trkpt lat="40.621846" lon="-0.083089">
        <ele>869.168</ele>
        <time>2018-10-14T09:06:39Z</time>
      </trkpt>
      <trkpt lat="40.621812" lon="-0.083320">
        <ele>867.785</ele>
        <time>2018-10-14T09:06:46Z</time>
      </trkpt>
      <trkpt lat="40.621771" lon="-0.083400">
        <ele>867.245</ele>
        <time>2018-10-14T09:06:49Z</time>
      </trkpt>
      <trkpt lat="40.621752" lon="-0.083640">
        <ele>867.244</ele>
        <time>2018-10-14T09:06:56Z</time>
      </trkpt>
      <trkpt lat="40.621707" lon="-0.083774">
        <ele>867.205</ele>
        <time>2018-10-14T09:07:00Z</time>
      </trkpt>
      <trkpt lat="40.621720" lon="-0.083841">
        <ele>866.215</ele>
        <time>2018-10-14T09:07:02Z</time>
      </trkpt>
      <trkpt lat="40.621667" lon="-0.084072">
        <ele>866.208</ele>
        <time>2018-10-14T09:07:09Z</time>
      </trkpt>
      <trkpt lat="40.621607" lon="-0.084324">
        <ele>866.257</ele>
        <time>2018-10-14T09:07:15Z</time>
      </trkpt>
      <trkpt lat="40.621588" lon="-0.084448">
        <ele>865.374</ele>
        <time>2018-10-14T09:07:18Z</time>
      </trkpt>
      <trkpt lat="40.621512" lon="-0.084553">
        <ele>864.888</ele>
        <time>2018-10-14T09:07:22Z</time>
      </trkpt>
      <trkpt lat="40.621435" lon="-0.084826">
        <ele>864.896</ele>
        <time>2018-10-14T09:07:30Z</time>
      </trkpt>
      <trkpt lat="40.621330" lon="-0.084991">
        <ele>863.414</ele>
        <time>2018-10-14T09:07:36Z</time>
      </trkpt>
      <trkpt lat="40.621175" lon="-0.085107">
        <ele>863.477</ele>
        <time>2018-10-14T09:07:42Z</time>
      </trkpt>
      <trkpt lat="40.620942" lon="-0.085139">
        <ele>863.434</ele>
        <time>2018-10-14T09:07:49Z</time>
      </trkpt>
      <trkpt lat="40.620768" lon="-0.085147">
        <ele>862.994</ele>
        <time>2018-10-14T09:07:55Z</time>
      </trkpt>
      <trkpt lat="40.620680" lon="-0.085234">
        <ele>861.977</ele>
        <time>2018-10-14T09:07:59Z</time>
      </trkpt>
      <trkpt lat="40.620499" lon="-0.085326">
        <ele>862.961</ele>
        <time>2018-10-14T09:08:06Z</time>
      </trkpt>
      <trkpt lat="40.620409" lon="-0.085494">
        <ele>862.927</ele>
        <time>2018-10-14T09:08:11Z</time>
      </trkpt>
      <trkpt lat="40.620364" lon="-0.085766">
        <ele>861.908</ele>
        <time>2018-10-14T09:08:17Z</time>
      </trkpt>
      <trkpt lat="40.620365" lon="-0.085916">
        <ele>860.550</ele>
        <time>2018-10-14T09:08:22Z</time>
      </trkpt>
      <trkpt lat="40.620352" lon="-0.085976">
        <ele>860.517</ele>
        <time>2018-10-14T09:08:24Z</time>
      </trkpt>
      <trkpt lat="40.620284" lon="-0.086012">
        <ele>861.941</ele>
        <time>2018-10-14T09:08:28Z</time>
      </trkpt>
      <trkpt lat="40.620244" lon="-0.086042">
        <ele>862.479</ele>
        <time>2018-10-14T09:08:30Z</time>
      </trkpt>
      <trkpt lat="40.620152" lon="-0.086125">
        <ele>862.457</ele>
        <time>2018-10-14T09:08:35Z</time>
      </trkpt>
      <trkpt lat="40.620040" lon="-0.086340">
        <ele>864.870</ele>
        <time>2018-10-14T09:08:43Z</time>
      </trkpt>
      <trkpt lat="40.619889" lon="-0.086560">
        <ele>865.817</ele>
        <time>2018-10-14T09:08:52Z</time>
      </trkpt>
      <trkpt lat="40.619748" lon="-0.086763">
        <ele>867.767</ele>
        <time>2018-10-14T09:09:01Z</time>
      </trkpt>
      <trkpt lat="40.619712" lon="-0.086792">
        <ele>867.789</ele>
        <time>2018-10-14T09:09:03Z</time>
      </trkpt>
      <trkpt lat="40.619556" lon="-0.087005">
        <ele>868.206</ele>
        <time>2018-10-14T09:09:11Z</time>
      </trkpt>
      <trkpt lat="40.619418" lon="-0.087208">
        <ele>868.226</ele>
        <time>2018-10-14T09:09:19Z</time>
      </trkpt>
      <trkpt lat="40.619299" lon="-0.087358">
        <ele>868.208</ele>
        <time>2018-10-14T09:09:25Z</time>
      </trkpt>
      <trkpt lat="40.619250" lon="-0.087403">
        <ele>868.281</ele>
        <time>2018-10-14T09:09:31Z</time>
      </trkpt>
      <trkpt lat="40.619269" lon="-0.087402">
        <ele>868.258</ele>
        <time>2018-10-14T09:09:40Z</time>
      </trkpt>
      <trkpt lat="40.619261" lon="-0.087409">
        <ele>868.262</ele>
        <time>2018-10-14T09:09:54Z</time>
      </trkpt>
      <trkpt lat="40.619262" lon="-0.087400">
        <ele>868.280</ele>
        <time>2018-10-14T09:10:09Z</time>
      </trkpt>
      <trkpt lat="40.619253" lon="-0.087400">
        <ele>868.628</ele>
        <time>2018-10-14T09:10:20Z</time>
      </trkpt>
      <trkpt lat="40.619210" lon="-0.087454">
        <ele>868.611</ele>
        <time>2018-10-14T09:10:24Z</time>
      </trkpt>
      <trkpt lat="40.619225" lon="-0.087641">
        <ele>869.198</ele>
        <time>2018-10-14T09:10:30Z</time>
      </trkpt>
      <trkpt lat="40.619238" lon="-0.087723">
        <ele>869.678</ele>
        <time>2018-10-14T09:10:32Z</time>
      </trkpt>
      <trkpt lat="40.619179" lon="-0.087966">
        <ele>871.065</ele>
        <time>2018-10-14T09:10:40Z</time>
      </trkpt>
      <trkpt lat="40.619142" lon="-0.088007">
        <ele>871.568</ele>
        <time>2018-10-14T09:10:45Z</time>
      </trkpt>
      <trkpt lat="40.619130" lon="-0.088030">
        <ele>871.514</ele>
        <time>2018-10-14T09:10:55Z</time>
      </trkpt>
      <trkpt lat="40.619067" lon="-0.088160">
        <ele>872.508</ele>
        <time>2018-10-14T09:11:01Z</time>
      </trkpt>
      <trkpt lat="40.619037" lon="-0.088237">
        <ele>872.049</ele>
        <time>2018-10-14T09:11:07Z</time>
      </trkpt>
      <trkpt lat="40.619037" lon="-0.088231">
        <ele>872.026</ele>
        <time>2018-10-14T09:11:16Z</time>
      </trkpt>
      <trkpt lat="40.619027" lon="-0.088256">
        <ele>872.060</ele>
        <time>2018-10-14T09:11:20Z</time>
      </trkpt>
      <trkpt lat="40.618972" lon="-0.088431">
        <ele>872.048</ele>
        <time>2018-10-14T09:11:27Z</time>
      </trkpt>
      <trkpt lat="40.618943" lon="-0.088583">
        <ele>870.636</ele>
        <time>2018-10-14T09:11:31Z</time>
      </trkpt>
      <trkpt lat="40.618941" lon="-0.088915">
        <ele>868.239</ele>
        <time>2018-10-14T09:11:38Z</time>
      </trkpt>
      <trkpt lat="40.618945" lon="-0.089094">
        <ele>867.716</ele>
        <time>2018-10-14T09:11:42Z</time>
      </trkpt>
      <trkpt lat="40.618854" lon="-0.089161">
        <ele>867.276</ele>
        <time>2018-10-14T09:11:47Z</time>
      </trkpt>
      <trkpt lat="40.618628" lon="-0.089220">
        <ele>866.758</ele>
        <time>2018-10-14T09:11:55Z</time>
      </trkpt>
      <trkpt lat="40.618572" lon="-0.089388">
        <ele>867.752</ele>
        <time>2018-10-14T09:12:01Z</time>
      </trkpt>
      <trkpt lat="40.618565" lon="-0.089644">
        <ele>868.617</ele>
        <time>2018-10-14T09:12:09Z</time>
      </trkpt>
      <trkpt lat="40.618500" lon="-0.089848">
        <ele>868.608</ele>
        <time>2018-10-14T09:12:15Z</time>
      </trkpt>
      <trkpt lat="40.618490" lon="-0.089872">
        <ele>868.698</ele>
        <time>2018-10-14T09:12:20Z</time>
      </trkpt>
      <trkpt lat="40.618456" lon="-0.089982">
        <ele>868.615</ele>
        <time>2018-10-14T09:12:26Z</time>
      </trkpt>
      <trkpt lat="40.618431" lon="-0.090047">
        <ele>867.229</ele>
        <time>2018-10-14T09:12:28Z</time>
      </trkpt>
      <trkpt lat="40.618426" lon="-0.090081">
        <ele>866.757</ele>
        <time>2018-10-14T09:12:32Z</time>
      </trkpt>
      <trkpt lat="40.618405" lon="-0.090118">
        <ele>866.785</ele>
        <time>2018-10-14T09:12:39Z</time>
      </trkpt>
      <trkpt lat="40.618398" lon="-0.090129">
        <ele>866.758</ele>
        <time>2018-10-14T09:12:48Z</time>
      </trkpt>
      <trkpt lat="40.618355" lon="-0.090205">
        <ele>866.725</ele>
        <time>2018-10-14T09:12:54Z</time>
      </trkpt>
      <trkpt lat="40.618215" lon="-0.090429">
        <ele>865.325</ele>
        <time>2018-10-14T09:13:01Z</time>
      </trkpt>
      <trkpt lat="40.618091" lon="-0.090779">
        <ele>863.474</ele>
        <time>2018-10-14T09:13:09Z</time>
      </trkpt>
      <trkpt lat="40.618047" lon="-0.091000">
        <ele>861.956</ele>
        <time>2018-10-14T09:13:14Z</time>
      </trkpt>
      <trkpt lat="40.618007" lon="-0.091285">
        <ele>861.421</ele>
        <time>2018-10-14T09:13:20Z</time>
      </trkpt>
      <trkpt lat="40.617940" lon="-0.091678">
        <ele>860.508</ele>
        <time>2018-10-14T09:13:28Z</time>
      </trkpt>
      <trkpt lat="40.617866" lon="-0.091981">
        <ele>859.590</ele>
        <time>2018-10-14T09:13:35Z</time>
      </trkpt>
      <trkpt lat="40.617877" lon="-0.092193">
        <ele>859.057</ele>
        <time>2018-10-14T09:13:40Z</time>
      </trkpt>
      <trkpt lat="40.617908" lon="-0.092482">
        <ele>858.591</ele>
        <time>2018-10-14T09:13:47Z</time>
      </trkpt>
      <trkpt lat="40.617969" lon="-0.092730">
        <ele>857.649</ele>
        <time>2018-10-14T09:13:53Z</time>
      </trkpt>
      <trkpt lat="40.618034" lon="-0.092955">
        <ele>854.757</ele>
        <time>2018-10-14T09:13:59Z</time>
      </trkpt>
      <trkpt lat="40.618165" lon="-0.093061">
        <ele>853.760</ele>
        <time>2018-10-14T09:14:04Z</time>
      </trkpt>
      <trkpt lat="40.618410" lon="-0.093211">
        <ele>851.827</ele>
        <time>2018-10-14T09:14:11Z</time>
      </trkpt>
      <trkpt lat="40.618525" lon="-0.093274">
        <ele>850.457</ele>
        <time>2018-10-14T09:14:16Z</time>
      </trkpt>
      <trkpt lat="40.618558" lon="-0.093388">
        <ele>849.948</ele>
        <time>2018-10-14T09:14:22Z</time>
      </trkpt>
      <trkpt lat="40.618547" lon="-0.093485">
        <ele>849.961</ele>
        <time>2018-10-14T09:14:26Z</time>
      </trkpt>
      <trkpt lat="40.618485" lon="-0.093559">
        <ele>851.317</ele>
        <time>2018-10-14T09:14:30Z</time>
      </trkpt>
      <trkpt lat="40.618286" lon="-0.093640">
        <ele>852.808</ele>
        <time>2018-10-14T09:14:39Z</time>
      </trkpt>
      <trkpt lat="40.618171" lon="-0.093741">
        <ele>854.767</ele>
        <time>2018-10-14T09:14:46Z</time>
      </trkpt>
      <trkpt lat="40.618135" lon="-0.093867">
        <ele>856.174</ele>
        <time>2018-10-14T09:14:52Z</time>
      </trkpt>
      <trkpt lat="40.618142" lon="-0.093912">
        <ele>857.128</ele>
        <time>2018-10-14T09:14:54Z</time>
      </trkpt>
      <trkpt lat="40.618263" lon="-0.093975">
        <ele>859.586</ele>
        <time>2018-10-14T09:15:02Z</time>
      </trkpt>
      <trkpt lat="40.618382" lon="-0.094008">
        <ele>861.994</ele>
        <time>2018-10-14T09:15:10Z</time>
      </trkpt>
      <trkpt lat="40.618541" lon="-0.094112">
        <ele>863.897</ele>
        <time>2018-10-14T09:15:20Z</time>
      </trkpt>
      <trkpt lat="40.618650" lon="-0.094211">
        <ele>866.724</ele>
        <time>2018-10-14T09:15:28Z</time>
      </trkpt>
      <trkpt lat="40.618662" lon="-0.094224">
        <ele>866.754</ele>
        <time>2018-10-14T09:15:29Z</time>
      </trkpt>
      <trkpt lat="40.618721" lon="-0.094344">
        <ele>868.258</ele>
        <time>2018-10-14T09:15:36Z</time>
      </trkpt>
      <trkpt lat="40.618744" lon="-0.094504">
        <ele>870.152</ele>
        <time>2018-10-14T09:15:44Z</time>
      </trkpt>
      <trkpt lat="40.618758" lon="-0.094559">
        <ele>870.617</ele>
        <time>2018-10-14T09:15:47Z</time>
      </trkpt>
      <trkpt lat="40.618753" lon="-0.094634">
        <ele>872.008</ele>
        <time>2018-10-14T09:15:51Z</time>
      </trkpt>
      <trkpt lat="40.618755" lon="-0.094694">
        <ele>872.588</ele>
        <time>2018-10-14T09:15:54Z</time>
      </trkpt>
      <trkpt lat="40.618762" lon="-0.094770">
        <ele>873.045</ele>
        <time>2018-10-14T09:15:58Z</time>
      </trkpt>
      <trkpt lat="40.618791" lon="-0.094848">
        <ele>873.589</ele>
        <time>2018-10-14T09:16:06Z</time>
      </trkpt>
      <trkpt lat="40.618838" lon="-0.094888">
        <ele>873.577</ele>
        <time>2018-10-14T09:16:12Z</time>
      </trkpt>
      <trkpt lat="40.618849" lon="-0.094896">
        <ele>871.775</ele>
        <time>2013-06-29T12:22:54Z</time>
      </trkpt>
      <trkpt lat="40.618902" lon="-0.094993">
        <ele>872.418</ele>
        <time>2013-06-29T12:23:00Z</time>
      </trkpt>
      <trkpt lat="40.618970" lon="-0.095075">
        <ele>872.775</ele>
        <time>2013-06-29T12:23:05Z</time>
      </trkpt>
      <trkpt lat="40.619059" lon="-0.095134">
        <ele>873.575</ele>
        <time>2013-06-29T12:23:11Z</time>
      </trkpt>
      <trkpt lat="40.619146" lon="-0.095212">
        <ele>874.632</ele>
        <time>2013-06-29T12:23:17Z</time>
      </trkpt>
      <trkpt lat="40.619227" lon="-0.095269">
        <ele>875.292</ele>
        <time>2013-06-29T12:23:23Z</time>
      </trkpt>
      <trkpt lat="40.619262" lon="-0.095383">
        <ele>875.911</ele>
        <time>2013-06-29T12:23:32Z</time>
      </trkpt>
      <trkpt lat="40.619170" lon="-0.095413">
        <ele>876.508</ele>
        <time>2013-06-29T12:23:39Z</time>
      </trkpt>
      <trkpt lat="40.619079" lon="-0.095374">
        <ele>876.326</ele>
        <time>2013-06-29T12:23:46Z</time>
      </trkpt>
      <trkpt lat="40.619001" lon="-0.095305">
        <ele>875.083</ele>
        <time>2013-06-29T12:23:52Z</time>
      </trkpt>
      <trkpt lat="40.618902" lon="-0.095256">
        <ele>874.417</ele>
        <time>2013-06-29T12:23:59Z</time>
      </trkpt>
      <trkpt lat="40.618902" lon="-0.095256">
        <ele>874.415</ele>
        <time>2013-06-29T12:23:59Z</time>
      </trkpt>
      <trkpt lat="40.618835" lon="-0.095343">
        <ele>876.983</ele>
        <time>2013-06-29T12:24:07Z</time>
      </trkpt>
      <trkpt lat="40.618855" lon="-0.095466">
        <ele>880.666</ele>
        <time>2013-06-29T12:24:15Z</time>
      </trkpt>
      <trkpt lat="40.618868" lon="-0.095584">
        <ele>884.273</ele>
        <time>2013-06-29T12:24:22Z</time>
      </trkpt>
      <trkpt lat="40.618802" lon="-0.095673">
        <ele>886.253</ele>
        <time>2013-06-29T12:24:31Z</time>
      </trkpt>
      <trkpt lat="40.618702" lon="-0.095723">
        <ele>886.079</ele>
        <time>2013-06-29T12:24:38Z</time>
      </trkpt>
      <trkpt lat="40.618637" lon="-0.095816">
        <ele>885.005</ele>
        <time>2013-06-29T12:24:43Z</time>
      </trkpt>
      <trkpt lat="40.618589" lon="-0.095923">
        <ele>883.625</ele>
        <time>2013-06-29T12:24:47Z</time>
      </trkpt>
      <trkpt lat="40.618572" lon="-0.096071">
        <ele>884.208</ele>
        <time>2013-06-29T12:24:51Z</time>
      </trkpt>
      <trkpt lat="40.618566" lon="-0.096200">
        <ele>885.380</ele>
        <time>2013-06-29T12:24:57Z</time>
      </trkpt>
      <trkpt lat="40.618572" lon="-0.096327">
        <ele>887.057</ele>
        <time>2013-06-29T12:25:04Z</time>
      </trkpt>
      <trkpt lat="40.618555" lon="-0.096449">
        <ele>887.621</ele>
        <time>2013-06-29T12:25:12Z</time>
      </trkpt>
      <trkpt lat="40.618499" lon="-0.096549">
        <ele>887.219</ele>
        <time>2013-06-29T12:25:20Z</time>
      </trkpt>
      <trkpt lat="40.618425" lon="-0.096468">
        <ele>885.797</ele>
        <time>2013-06-29T12:25:28Z</time>
      </trkpt>
      <trkpt lat="40.618374" lon="-0.096369">
        <ele>885.060</ele>
        <time>2013-06-29T12:25:35Z</time>
      </trkpt>
      <trkpt lat="40.618277" lon="-0.096339">
        <ele>889.887</ele>
        <time>2013-06-29T12:25:43Z</time>
      </trkpt>
      <trkpt lat="40.618180" lon="-0.096324">
        <ele>893.227</ele>
        <time>2013-06-29T12:25:52Z</time>
      </trkpt>
      <trkpt lat="40.618095" lon="-0.096284">
        <ele>891.079</ele>
        <time>2013-06-29T12:25:59Z</time>
      </trkpt>
      <trkpt lat="40.617997" lon="-0.096292">
        <ele>894.305</ele>
        <time>2013-06-29T12:26:06Z</time>
      </trkpt>
      <trkpt lat="40.617911" lon="-0.096366">
        <ele>896.225</ele>
        <time>2013-06-29T12:26:13Z</time>
      </trkpt>
      <trkpt lat="40.617854" lon="-0.096496">
        <ele>898.108</ele>
        <time>2013-06-29T12:26:18Z</time>
      </trkpt>
      <trkpt lat="40.617812" lon="-0.096626">
        <ele>901.290</ele>
        <time>2013-06-29T12:26:21Z</time>
      </trkpt>
      <trkpt lat="40.617750" lon="-0.096741">
        <ele>903.087</ele>
        <time>2013-06-29T12:26:25Z</time>
      </trkpt>
      <trkpt lat="40.617686" lon="-0.096834">
        <ele>903.341</ele>
        <time>2013-06-29T12:26:32Z</time>
      </trkpt>
      <trkpt lat="40.617615" lon="-0.096914">
        <ele>902.289</ele>
        <time>2013-06-29T12:26:39Z</time>
      </trkpt>
      <trkpt lat="40.617542" lon="-0.096990">
        <ele>901.687</ele>
        <time>2013-06-29T12:26:46Z</time>
      </trkpt>
      <trkpt lat="40.617485" lon="-0.097095">
        <ele>906.620</ele>
        <time>2013-06-29T12:26:53Z</time>
      </trkpt>
      <trkpt lat="40.617434" lon="-0.097202">
        <ele>910.327</ele>
        <time>2013-06-29T12:27:00Z</time>
      </trkpt>
      <trkpt lat="40.617447" lon="-0.097328">
        <ele>912.127</ele>
        <time>2013-06-29T12:27:07Z</time>
      </trkpt>
      <trkpt lat="40.617485" lon="-0.097456">
        <ele>912.248</ele>
        <time>2013-06-29T12:27:12Z</time>
      </trkpt>
      <trkpt lat="40.617494" lon="-0.097581">
        <ele>912.961</ele>
        <time>2013-06-29T12:27:16Z</time>
      </trkpt>
      <trkpt lat="40.617475" lon="-0.097738">
        <ele>911.217</ele>
        <time>2013-06-29T12:27:20Z</time>
      </trkpt>
      <trkpt lat="40.617464" lon="-0.097865">
        <ele>908.208</ele>
        <time>2013-06-29T12:27:24Z</time>
      </trkpt>
      <trkpt lat="40.617504" lon="-0.097986">
        <ele>908.797</ele>
        <time>2013-06-29T12:27:31Z</time>
      </trkpt>
      <trkpt lat="40.617547" lon="-0.098101">
        <ele>912.024</ele>
        <time>2013-06-29T12:27:38Z</time>
      </trkpt>
      <trkpt lat="40.617594" lon="-0.098215">
        <ele>911.848</ele>
        <time>2013-06-29T12:27:45Z</time>
      </trkpt>
      <trkpt lat="40.617602" lon="-0.098344">
        <ele>908.936</ele>
        <time>2013-06-29T12:27:53Z</time>
      </trkpt>
      <trkpt lat="40.617545" lon="-0.098440">
        <ele>906.914</ele>
        <time>2013-06-29T12:27:59Z</time>
      </trkpt>
      <trkpt lat="40.617467" lon="-0.098513">
        <ele>908.257</ele>
        <time>2013-06-29T12:28:05Z</time>
      </trkpt>
      <trkpt lat="40.617385" lon="-0.098588">
        <ele>908.754</ele>
        <time>2013-06-29T12:28:11Z</time>
      </trkpt>
      <trkpt lat="40.617310" lon="-0.098676">
        <ele>909.654</ele>
        <time>2013-06-29T12:28:18Z</time>
      </trkpt>
      <trkpt lat="40.617257" lon="-0.098780">
        <ele>911.352</ele>
        <time>2013-06-29T12:28:26Z</time>
      </trkpt>
      <trkpt lat="40.617205" lon="-0.098884">
        <ele>912.753</ele>
        <time>2013-06-29T12:28:34Z</time>
      </trkpt>
      <trkpt lat="40.617169" lon="-0.099006">
        <ele>916.208</ele>
        <time>2013-06-29T12:28:43Z</time>
      </trkpt>
      <trkpt lat="40.617164" lon="-0.099136">
        <ele>920.408</ele>
        <time>2013-06-29T12:28:51Z</time>
      </trkpt>
      <trkpt lat="40.617145" lon="-0.099254">
        <ele>921.088</ele>
        <time>2013-06-29T12:29:01Z</time>
      </trkpt>
      <trkpt lat="40.617216" lon="-0.099173">
        <ele>922.695</ele>
        <time>2013-06-29T12:29:22Z</time>
      </trkpt>
      <trkpt lat="40.617216" lon="-0.099173">
        <ele>922.689</ele>
        <time>2013-06-29T12:29:22Z</time>
      </trkpt>
      <trkpt lat="40.617269" lon="-0.099066">
        <ele>923.617</ele>
        <time>2013-06-29T12:29:43Z</time>
      </trkpt>
      <trkpt lat="40.617304" lon="-0.098954">
        <ele>922.355</ele>
        <time>2013-06-29T12:30:06Z</time>
      </trkpt>
      <trkpt lat="40.617375" lon="-0.098881">
        <ele>921.428</ele>
        <time>2013-06-29T12:30:17Z</time>
      </trkpt>
      <trkpt lat="40.617715" lon="-0.098706">
        <ele>924.285</ele>
        <time>2013-06-29T12:30:25Z</time>
      </trkpt>
      <trkpt lat="40.620157" lon="-0.099252">
        <ele>968.986</ele>
        <time>2018-11-10T18:19:40Z</time>
      </trkpt>
      <trkpt lat="40.620094" lon="-0.099252">
        <ele>968.960</ele>
        <time>2018-11-10T18:20:00Z</time>
      </trkpt>
      <trkpt lat="40.620031" lon="-0.099237">
        <ele>968.626</ele>
        <time>2018-11-10T18:20:20Z</time>
      </trkpt>
      <trkpt lat="40.619968" lon="-0.099221">
        <ele>968.308</ele>
        <time>2018-11-10T18:20:40Z</time>
      </trkpt>
      <trkpt lat="40.619906" lon="-0.099206">
        <ele>968.061</ele>
        <time>2018-11-10T18:21:00Z</time>
      </trkpt>
      <trkpt lat="40.619843" lon="-0.099198">
        <ele>967.928</ele>
        <time>2018-11-10T18:21:20Z</time>
      </trkpt>
      <trkpt lat="40.619773" lon="-0.099198">
        <ele>967.422</ele>
        <time>2018-11-10T18:21:40Z</time>
      </trkpt>
      <trkpt lat="40.619704" lon="-0.099198">
        <ele>966.770</ele>
        <time>2018-11-10T18:22:00Z</time>
      </trkpt>
      <trkpt lat="40.619635" lon="-0.099198">
        <ele>966.148</ele>
        <time>2018-11-10T18:22:20Z</time>
      </trkpt>
      <trkpt lat="40.619572" lon="-0.099198">
        <ele>965.451</ele>
        <time>2018-11-10T18:22:40Z</time>
      </trkpt>
      <trkpt lat="40.619497" lon="-0.099206">
        <ele>964.698</ele>
        <time>2018-11-10T18:23:00Z</time>
      </trkpt>
      <trkpt lat="40.619434" lon="-0.099229">
        <ele>964.335</ele>
        <time>2018-11-10T18:23:20Z</time>
      </trkpt>
      <trkpt lat="40.619371" lon="-0.099252">
        <ele>964.029</ele>
        <time>2018-11-10T18:23:40Z</time>
      </trkpt>
      <trkpt lat="40.619308" lon="-0.099283">
        <ele>963.700</ele>
        <time>2018-11-10T18:24:00Z</time>
      </trkpt>
      <trkpt lat="40.619245" lon="-0.099307">
        <ele>963.220</ele>
        <time>2018-11-10T18:24:20Z</time>
      </trkpt>
      <trkpt lat="40.619182" lon="-0.099338">
        <ele>963.008</ele>
        <time>2018-11-10T18:24:40Z</time>
      </trkpt>
      <trkpt lat="40.619126" lon="-0.099384">
        <ele>963.265</ele>
        <time>2018-11-10T18:25:00Z</time>
      </trkpt>
      <trkpt lat="40.619076" lon="-0.099438">
        <ele>963.322</ele>
        <time>2018-11-10T18:25:20Z</time>
      </trkpt>
      <trkpt lat="40.619032" lon="-0.099500">
        <ele>963.856</ele>
        <time>2018-11-10T18:25:40Z</time>
      </trkpt>
      <trkpt lat="40.619000" lon="-0.099570">
        <ele>964.984</ele>
        <time>2018-11-10T18:26:00Z</time>
      </trkpt>
      <trkpt lat="40.618937" lon="-0.099624">
        <ele>964.912</ele>
        <time>2018-11-10T18:26:20Z</time>
      </trkpt>
      <trkpt lat="40.618881" lon="-0.099663">
        <ele>964.615</ele>
        <time>2018-11-10T18:26:40Z</time>
      </trkpt>
      <trkpt lat="40.618837" lon="-0.099725">
        <ele>964.722</ele>
        <time>2018-11-10T18:27:00Z</time>
      </trkpt>
      <trkpt lat="40.618799" lon="-0.099795">
        <ele>965.349</ele>
        <time>2018-11-10T18:27:20Z</time>
      </trkpt>
      <trkpt lat="40.618749" lon="-0.099841">
        <ele>965.299</ele>
        <time>2018-11-10T18:27:40Z</time>
      </trkpt>
      <trkpt lat="40.618686" lon="-0.099872">
        <ele>964.607</ele>
        <time>2018-11-10T18:28:00Z</time>
      </trkpt>
      <trkpt lat="40.618623" lon="-0.099888">
        <ele>963.627</ele>
        <time>2018-11-10T18:28:20Z</time>
      </trkpt>
      <trkpt lat="40.618554" lon="-0.099888">
        <ele>962.208</ele>
        <time>2018-11-10T18:28:40Z</time>
      </trkpt>
      <trkpt lat="40.618491" lon="-0.099903">
        <ele>961.142</ele>
        <time>2018-11-10T18:29:00Z</time>
      </trkpt>
      <trkpt lat="40.618428" lon="-0.099919">
        <ele>960.069</ele>
        <time>2018-11-10T18:29:20Z</time>
      </trkpt>
      <trkpt lat="40.618352" lon="-0.099919">
        <ele>958.293</ele>
        <time>2018-11-10T18:29:40Z</time>
      </trkpt>
      <trkpt lat="40.618289" lon="-0.099911">
        <ele>956.681</ele>
        <time>2018-11-10T18:30:00Z</time>
      </trkpt>
      <trkpt lat="40.618233" lon="-0.099872">
        <ele>954.969</ele>
        <time>2018-11-10T18:30:20Z</time>
      </trkpt>
      <trkpt lat="40.618183" lon="-0.099818">
        <ele>953.872</ele>
        <time>2018-11-10T18:30:40Z</time>
      </trkpt>
      <trkpt lat="40.618132" lon="-0.099764">
        <ele>952.639</ele>
        <time>2018-11-10T18:31:00Z</time>
      </trkpt>
      <trkpt lat="40.618082" lon="-0.099717">
        <ele>951.386</ele>
        <time>2018-11-10T18:31:20Z</time>
      </trkpt>
      <trkpt lat="40.617922" lon="-0.099615">
        <ele>946.528</ele>
        <time>2018-11-10T18:31:40Z</time>
      </trkpt>
      <trkpt lat="40.617841" lon="-0.099559">
        <ele>943.789</ele>
        <time>2018-11-10T18:32:00Z</time>
      </trkpt>
      <trkpt lat="40.617760" lon="-0.099493">
        <ele>940.817</ele>
        <time>2018-11-10T18:32:20Z</time>
      </trkpt>
      <trkpt lat="40.617679" lon="-0.099427">
        <ele>937.508</ele>
        <time>2018-11-10T18:32:40Z</time>
      </trkpt>
      <trkpt lat="40.617607" lon="-0.099349">
        <ele>934.545</ele>
        <time>2018-11-10T18:33:00Z</time>
      </trkpt>
      <trkpt lat="40.617559" lon="-0.099316">
        <ele>932.862</ele>
        <time>2018-11-10T18:33:20Z</time>
      </trkpt>
      <trkpt lat="40.617535" lon="-0.099299">
        <ele>932.016</ele>
        <time>2018-11-10T18:33:40Z</time>
      </trkpt>
      <trkpt lat="40.617508" lon="-0.099289">
        <ele>931.114</ele>
        <time>2018-11-10T18:34:00Z</time>
      </trkpt>
      <trkpt lat="40.617481" lon="-0.099286">
        <ele>930.312</ele>
        <time>2018-11-10T18:34:20Z</time>
      </trkpt>
      <trkpt lat="40.617454" lon="-0.099282">
        <ele>929.535</ele>
        <time>2018-11-10T18:34:40Z</time>
      </trkpt>
      <trkpt lat="40.617427" lon="-0.099276">
        <ele>928.642</ele>
        <time>2018-11-10T18:35:00Z</time>
      </trkpt>
      <trkpt lat="40.617371" lon="-0.099266">
        <ele>926.929</ele>
        <time>2018-11-10T18:35:20Z</time>
      </trkpt>
      <trkpt lat="40.617344" lon="-0.099263">
        <ele>926.189</ele>
        <time>2018-11-10T18:35:40Z</time>
      </trkpt>
      <trkpt lat="40.617317" lon="-0.099253">
        <ele>925.306</ele>
        <time>2018-11-10T18:36:00Z</time>
      </trkpt>
      <trkpt lat="40.617290" lon="-0.099249">
        <ele>924.526</ele>
        <time>2018-11-10T18:36:20Z</time>
      </trkpt>
      <trkpt lat="40.617263" lon="-0.099246">
        <ele>923.508</ele>
        <time>2018-11-10T18:36:40Z</time>
      </trkpt>
      <trkpt lat="40.617244" lon="-0.099272">
        <ele>923.151</ele>
        <time>2018-11-10T18:37:00Z</time>
      </trkpt>
      <trkpt lat="40.617231" lon="-0.099302">
        <ele>922.858</ele>
        <time>2018-11-10T18:37:20Z</time>
      </trkpt>
      <trkpt lat="40.617212" lon="-0.099342">
        <ele>922.352</ele>
        <time>2018-11-10T18:37:40Z</time>
      </trkpt>
      <trkpt lat="40.617204" lon="-0.099375">
        <ele>922.210</ele>
        <time>2018-11-10T18:38:00Z</time>
      </trkpt>
      <trkpt lat="40.617190" lon="-0.099405">
        <ele>921.868</ele>
        <time>2018-11-10T18:38:20Z</time>
      </trkpt>
      <trkpt lat="40.617177" lon="-0.099435">
        <ele>921.451</ele>
        <time>2018-11-10T18:38:40Z</time>
      </trkpt>
      <trkpt lat="40.617110" lon="-0.099545">
        <ele>918.918</ele>
        <time>2018-11-10T18:39:00Z</time>
      </trkpt>
      <trkpt lat="40.617069" lon="-0.099631">
        <ele>917.275</ele>
        <time>2018-11-10T18:39:20Z</time>
      </trkpt>
      <trkpt lat="40.617037" lon="-0.099717">
        <ele>916.414</ele>
        <time>2018-11-10T18:39:40Z</time>
      </trkpt>
      <trkpt lat="40.617002" lon="-0.099830">
        <ele>915.754</ele>
        <time>2018-11-10T18:40:00Z</time>
      </trkpt>
      <trkpt lat="40.616956" lon="-0.099990">
        <ele>913.909</ele>
        <time>2018-11-10T18:40:20Z</time>
      </trkpt>
      <trkpt lat="40.616921" lon="-0.100049">
        <ele>912.008</ele>
        <time>2018-11-10T18:40:40Z</time>
      </trkpt>
      <trkpt lat="40.616900" lon="-0.100126">
        <ele>911.184</ele>
        <time>2018-11-10T18:41:00Z</time>
      </trkpt>
      <trkpt lat="40.616821" lon="-0.100182">
        <ele>908.051</ele>
        <time>2018-11-10T18:41:20Z</time>
      </trkpt>
      <trkpt lat="40.616754" lon="-0.100232">
        <ele>906.835</ele>
        <time>2018-11-10T18:41:40Z</time>
      </trkpt>
      <trkpt lat="40.616676" lon="-0.100275">
        <ele>904.963</ele>
        <time>2018-11-10T18:42:00Z</time>
      </trkpt>
      <trkpt lat="40.616498" lon="-0.100265">
        <ele>900.971</ele>
        <time>2018-11-10T18:42:20Z</time>
      </trkpt>
      <trkpt lat="40.616401" lon="-0.100245">
        <ele>899.464</ele>
        <time>2018-11-10T18:42:40Z</time>
      </trkpt>
      <trkpt lat="40.616264" lon="-0.100146">
        <ele>897.311</ele>
        <time>2018-11-10T18:43:00Z</time>
      </trkpt>
      <trkpt lat="40.616089" lon="-0.100023">
        <ele>894.518</ele>
        <time>2018-11-10T18:43:20Z</time>
      </trkpt>
      <trkpt lat="40.615927" lon="-0.099913">
        <ele>892.425</ele>
        <time>2018-11-10T18:43:40Z</time>
      </trkpt>
      <trkpt lat="40.615779" lon="-0.099820">
        <ele>890.226</ele>
        <time>2018-11-10T18:44:00Z</time>
      </trkpt>
      <trkpt lat="40.615620" lon="-0.099711">
        <ele>888.008</ele>
        <time>2018-11-10T18:44:20Z</time>
      </trkpt>
      <trkpt lat="40.615483" lon="-0.099578">
        <ele>886.208</ele>
        <time>2018-11-10T18:44:40Z</time>
      </trkpt>
      <trkpt lat="40.615240" lon="-0.099329">
        <ele>881.665</ele>
        <time>2018-11-10T18:45:00Z</time>
      </trkpt>
      <trkpt lat="40.615033" lon="-0.099163">
        <ele>877.452</ele>
        <time>2018-11-10T18:45:20Z</time>
      </trkpt>
      <trkpt lat="40.614944" lon="-0.099041">
        <ele>875.426</ele>
        <time>2018-11-10T18:45:40Z</time>
      </trkpt>
      <trkpt lat="40.614827" lon="-0.098831">
        <ele>872.894</ele>
        <time>2018-11-10T18:46:00Z</time>
      </trkpt>
      <trkpt lat="40.614602" lon="-0.098665">
        <ele>867.672</ele>
        <time>2018-11-10T18:46:20Z</time>
      </trkpt>
      <trkpt lat="40.614324" lon="-0.098421">
        <ele>861.315</ele>
        <time>2018-11-10T18:46:40Z</time>
      </trkpt>
      <trkpt lat="40.614126" lon="-0.098300">
        <ele>858.992</ele>
        <time>2018-11-10T18:47:00Z</time>
      </trkpt>
      <trkpt lat="40.613884" lon="-0.098123">
        <ele>856.329</ele>
        <time>2018-11-10T18:47:20Z</time>
      </trkpt>
      <trkpt lat="40.613587" lon="-0.097924">
        <ele>848.989</ele>
        <time>2018-11-10T18:47:40Z</time>
      </trkpt>
      <trkpt lat="40.613381" lon="-0.097736">
        <ele>844.706</ele>
        <time>2018-11-10T18:48:00Z</time>
      </trkpt>
      <trkpt lat="40.613066" lon="-0.097514">
        <ele>840.626</ele>
        <time>2018-11-10T18:48:20Z</time>
      </trkpt>
      <trkpt lat="40.612815" lon="-0.097392">
        <ele>837.408</ele>
        <time>2018-11-10T18:48:40Z</time>
      </trkpt>
      <trkpt lat="40.612338" lon="-0.097061">
        <ele>831.291</ele>
        <time>2018-11-10T18:49:00Z</time>
      </trkpt>
      <trkpt lat="40.612258" lon="-0.096906">
        <ele>830.768</ele>
        <time>2018-11-10T18:49:20Z</time>
      </trkpt>
      <trkpt lat="40.612114" lon="-0.096740">
        <ele>830.722</ele>
        <time>2018-11-10T18:49:40Z</time>
      </trkpt>
      <trkpt lat="40.611943" lon="-0.096574">
        <ele>830.490</ele>
        <time>2018-11-10T18:50:00Z</time>
      </trkpt>
      <trkpt lat="40.611746" lon="-0.096341">
        <ele>828.988</ele>
        <time>2018-11-10T18:50:20Z</time>
      </trkpt>
      <trkpt lat="40.611467" lon="-0.096175">
        <ele>827.231</ele>
        <time>2018-11-10T18:50:40Z</time>
      </trkpt>
      <trkpt lat="40.611045" lon="-0.095866">
        <ele>824.858</ele>
        <time>2018-11-10T18:51:00Z</time>
      </trkpt>
      <trkpt lat="40.610209" lon="-0.095257">
        <ele>822.045</ele>
        <time>2018-11-10T18:51:20Z</time>
      </trkpt>
      <trkpt lat="40.609832" lon="-0.094903">
        <ele>824.113</ele>
        <time>2018-11-10T18:51:40Z</time>
      </trkpt>
      <trkpt lat="40.609167" lon="-0.094483">
        <ele>824.043</ele>
        <time>2018-11-10T18:52:00Z</time>
      </trkpt>
      <trkpt lat="40.608520" lon="-0.094073">
        <ele>822.007</ele>
        <time>2018-11-10T18:52:20Z</time>
      </trkpt>
      <trkpt lat="40.608125" lon="-0.093775">
        <ele>819.808</ele>
        <time>2018-11-10T18:52:40Z</time>
      </trkpt>
      <trkpt lat="40.607919" lon="-0.093465">
        <ele>819.064</ele>
        <time>2018-11-10T18:53:00Z</time>
      </trkpt>
      <trkpt lat="40.607730" lon="-0.092945">
        <ele>817.911</ele>
        <time>2018-11-10T18:53:20Z</time>
      </trkpt>
      <trkpt lat="40.607460" lon="-0.092060">
        <ele>816.735</ele>
        <time>2018-11-10T18:53:40Z</time>
      </trkpt>
      <trkpt lat="40.607168" lon="-0.091008">
        <ele>817.113</ele>
        <time>2018-11-10T18:54:00Z</time>
      </trkpt>
      <trkpt lat="40.606918" lon="-0.090007">
        <ele>817.931</ele>
        <time>2018-11-10T18:54:20Z</time>
      </trkpt>
      <trkpt lat="40.606734" lon="-0.089323">
        <ele>818.784</ele>
        <time>2018-11-10T18:54:40Z</time>
      </trkpt>
      <trkpt lat="40.606545" lon="-0.088676">
        <ele>820.821</ele>
        <time>2018-11-10T18:55:00Z</time>
      </trkpt>
      <trkpt lat="40.606397" lon="-0.088211">
        <ele>822.128</ele>
        <time>2018-11-10T18:55:20Z</time>
      </trkpt>
      <trkpt lat="40.606302" lon="-0.088062">
        <ele>822.542</ele>
        <time>2018-11-10T18:55:40Z</time>
      </trkpt>
      <trkpt lat="40.605844" lon="-0.088278">
        <ele>822.322</ele>
        <time>2018-11-10T18:56:00Z</time>
      </trkpt>
      <trkpt lat="40.605427" lon="-0.088510">
        <ele>823.514</ele>
        <time>2018-11-10T18:56:20Z</time>
      </trkpt>
      <trkpt lat="40.605130" lon="-0.088576">
        <ele>828.108</ele>
        <time>2018-11-10T18:56:40Z</time>
      </trkpt>
      <trkpt lat="40.604820" lon="-0.088460">
        <ele>831.987</ele>
        <time>2018-11-10T18:57:00Z</time>
      </trkpt>
      <trkpt lat="40.604524" lon="-0.088178">
        <ele>838.364</ele>
        <time>2018-11-10T18:57:20Z</time>
      </trkpt>
      <trkpt lat="40.604241" lon="-0.087713">
        <ele>840.518</ele>
        <time>2018-11-10T18:57:40Z</time>
      </trkpt>
      <trkpt lat="40.603706" lon="-0.087075">
        <ele>846.266</ele>
        <time>2017-12-29T00:24:13Z</time>
      </trkpt>
      <trkpt lat="40.601914" lon="-0.085723">
        <ele>862.464</ele>
        <time>2017-12-29T00:24:33Z</time>
      </trkpt>
      <trkpt lat="40.601262" lon="-0.085530">
        <ele>874.187</ele>
        <time>2017-12-29T00:24:53Z</time>
      </trkpt>
      <trkpt lat="40.600549" lon="-0.085224">
        <ele>861.184</ele>
        <time>2017-12-29T00:25:13Z</time>
      </trkpt>
      <trkpt lat="40.599649" lon="-0.083814">
        <ele>870.011</ele>
        <time>2017-12-29T00:25:33Z</time>
      </trkpt>
      <trkpt lat="40.599405" lon="-0.083685">
        <ele>869.382</ele>
        <time>2017-12-29T00:25:53Z</time>
      </trkpt>
      <trkpt lat="40.598949" lon="-0.083942">
        <ele>869.843</ele>
        <time>2017-12-29T00:26:13Z</time>
      </trkpt>
      <trkpt lat="40.599095" lon="-0.084736">
        <ele>884.817</ele>
        <time>2017-12-29T00:26:33Z</time>
      </trkpt>
      <trkpt lat="40.599910" lon="-0.085616">
        <ele>893.408</ele>
        <time>2017-12-29T00:26:53Z</time>
      </trkpt>
      <trkpt lat="40.600790" lon="-0.086217">
        <ele>900.361</ele>
        <time>2017-12-29T00:27:13Z</time>
      </trkpt>
      <trkpt lat="40.601295" lon="-0.086582">
        <ele>901.528</ele>
        <time>2017-12-29T00:27:33Z</time>
      </trkpt>
      <trkpt lat="40.601311" lon="-0.087032">
        <ele>906.722</ele>
        <time>2017-12-29T00:27:53Z</time>
      </trkpt>
      <trkpt lat="40.601083" lon="-0.087419">
        <ele>904.080</ele>
        <time>2017-12-29T00:28:13Z</time>
      </trkpt>
      <trkpt lat="40.600627" lon="-0.087376">
        <ele>914.368</ele>
        <time>2017-12-29T00:28:33Z</time>
      </trkpt>
      <trkpt lat="40.600106" lon="-0.087590">
        <ele>915.091</ele>
        <time>2017-12-29T00:28:53Z</time>
      </trkpt>
      <trkpt lat="40.599617" lon="-0.087590">
        <ele>920.418</ele>
        <time>2017-12-29T00:29:13Z</time>
      </trkpt>
      <trkpt lat="40.599112" lon="-0.087032">
        <ele>931.775</ele>
        <time>2017-12-29T00:29:33Z</time>
      </trkpt>
      <trkpt lat="40.598411" lon="-0.086432">
        <ele>938.163</ele>
        <time>2017-12-29T00:29:53Z</time>
      </trkpt>
      <trkpt lat="40.597564" lon="-0.086303">
        <ele>941.644</ele>
        <time>2017-12-29T00:30:13Z</time>
      </trkpt>
      <trkpt lat="40.595755" lon="-0.086110">
        <ele>954.818</ele>
        <time>2017-12-29T00:30:33Z</time>
      </trkpt>
      <trkpt lat="40.594093" lon="-0.085595">
        <ele>964.308</ele>
        <time>2017-12-29T00:30:53Z</time>
      </trkpt>
      <trkpt lat="40.593034" lon="-0.085166">
        <ele>958.539</ele>
        <time>2017-12-29T00:31:13Z</time>
      </trkpt>
      <trkpt lat="40.591731" lon="-0.084801">
        <ele>957.876</ele>
        <time>2017-12-29T00:31:33Z</time>
      </trkpt>
      <trkpt lat="40.590851" lon="-0.085015">
        <ele>954.090</ele>
        <time>2017-12-29T00:31:53Z</time>
      </trkpt>
      <trkpt lat="40.590004" lon="-0.085273">
        <ele>947.178</ele>
        <time>2017-12-29T00:32:13Z</time>
      </trkpt>
      <trkpt lat="40.588896" lon="-0.085230">
        <ele>944.636</ele>
        <time>2017-12-29T00:32:33Z</time>
      </trkpt>
      <trkpt lat="40.588016" lon="-0.085402">
        <ele>940.269</ele>
        <time>2017-12-29T00:32:53Z</time>
      </trkpt>
      <trkpt lat="40.586842" lon="-0.085402">
        <ele>930.566</ele>
        <time>2017-12-29T00:33:13Z</time>
      </trkpt>
      <trkpt lat="40.585962" lon="-0.085402">
        <ele>927.943</ele>
        <time>2017-12-29T00:33:33Z</time>
      </trkpt>
      <trkpt lat="40.584821" lon="-0.085636">
        <ele>920.617</ele>
        <time>2017-12-29T00:33:53Z</time>
      </trkpt>
      <trkpt lat="40.584362" lon="-0.086068">
        <ele>919.187</ele>
        <time>2017-12-29T00:34:13Z</time>
      </trkpt>
      <trkpt lat="40.583770" lon="-0.088558">
        <ele>916.115</ele>
        <time>2017-12-29T00:34:33Z</time>
      </trkpt>
      <trkpt lat="40.583691" lon="-0.090746">
        <ele>922.308</ele>
        <time>2017-12-29T00:34:53Z</time>
      </trkpt>
      <trkpt lat="40.583826" lon="-0.094176">
        <ele>923.884</ele>
        <time>2017-12-29T00:35:13Z</time>
      </trkpt>
      <trkpt lat="40.583826" lon="-0.097551">
        <ele>932.311</ele>
        <time>2017-12-29T00:35:33Z</time>
      </trkpt>
      <trkpt lat="40.584096" lon="-0.099930">
        <ele>939.025</ele>
        <time>2017-12-29T00:35:53Z</time>
      </trkpt>
      <trkpt lat="40.583332" lon="-0.102198">
        <ele>944.423</ele>
        <time>2017-12-29T00:36:13Z</time>
      </trkpt>
      <trkpt lat="40.582434" lon="-0.103360">
        <ele>949.051</ele>
        <time>2017-12-29T00:36:33Z</time>
      </trkpt>
      <trkpt lat="40.580481" lon="-0.103279">
        <ele>952.884</ele>
        <time>2017-12-29T00:36:53Z</time>
      </trkpt>
      <trkpt lat="40.579847" lon="-0.103079">
        <ele>956.621</ele>
        <time>2017-12-29T00:37:13Z</time>
      </trkpt>
      <trkpt lat="40.578001" lon="-0.101503">
        <ele>963.318</ele>
        <time>2017-12-29T00:37:33Z</time>
      </trkpt>
      <trkpt lat="40.576101" lon="-0.101469">
        <ele>978.252</ele>
        <time>2017-12-29T00:37:53Z</time>
      </trkpt>
      <trkpt lat="40.574026" lon="-0.101752">
        <ele>986.153</ele>
        <time>2017-12-29T00:38:13Z</time>
      </trkpt>
      <trkpt lat="40.572148" lon="-0.102143">
        <ele>995.208</ele>
        <time>2017-12-29T00:38:33Z</time>
      </trkpt>
      <trkpt lat="40.570756" lon="-0.102198">
        <ele>1000.808</ele>
        <time>2017-12-29T00:38:53Z</time>
      </trkpt>
      <trkpt lat="40.569723" lon="-0.102530">
        <ele>1010.968</ele>
        <time>2017-12-29T00:39:13Z</time>
      </trkpt>
      <trkpt lat="40.568824" lon="-0.102475">
        <ele>1012.315</ele>
        <time>2017-12-29T00:39:33Z</time>
      </trkpt>
      <trkpt lat="40.567504" lon="-0.102366">
        <ele>1013.539</ele>
        <time>2017-12-29T00:39:53Z</time>
      </trkpt>
      <trkpt lat="40.566844" lon="-0.102581">
        <ele>1011.487</ele>
        <time>2017-12-29T00:40:13Z</time>
      </trkpt>
      <trkpt lat="40.566278" lon="-0.103278">
        <ele>1010.685</ele>
        <time>2017-12-29T00:40:33Z</time>
      </trkpt>
      <trkpt lat="40.565635" lon="-0.104522">
        <ele>1005.778</ele>
        <time>2017-12-29T00:40:53Z</time>
      </trkpt>
      <trkpt lat="40.564742" lon="-0.104921">
        <ele>995.245</ele>
        <time>2017-12-29T00:41:13Z</time>
      </trkpt>
      <trkpt lat="40.563987" lon="-0.105253">
        <ele>982.622</ele>
        <time>2017-12-29T00:41:33Z</time>
      </trkpt>
      <trkpt lat="40.563798" lon="-0.105104">
        <ele>985.056</ele>
        <time>2017-12-29T00:41:53Z</time>
      </trkpt>
      <trkpt lat="40.563542" lon="-0.100507">
        <ele>984.259</ele>
        <time>2017-12-29T00:42:13Z</time>
      </trkpt>
      <trkpt lat="40.563116" lon="-0.096820">
        <ele>986.714</ele>
        <time>2017-12-29T00:42:33Z</time>
      </trkpt>
      <trkpt lat="40.563421" lon="-0.091951">
        <ele>963.308</ele>
        <time>2018-11-10T19:16:40Z</time>
      </trkpt>
      <trkpt lat="40.563619" lon="-0.090425">
        <ele>963.058</ele>
        <time>2018-11-10T19:17:00Z</time>
      </trkpt>
      <trkpt lat="40.564288" lon="-0.086099">
        <ele>992.335</ele>
        <time>2017-12-29T00:42:53Z</time>
      </trkpt>
      <trkpt lat="40.565411" lon="-0.078907">
        <ele>991.559</ele>
        <time>2017-12-29T00:43:13Z</time>
      </trkpt>
      <trkpt lat="40.562810" lon="-0.077434">
        <ele>997.547</ele>
        <time>2017-12-29T00:43:33Z</time>
      </trkpt>
      <trkpt lat="40.561938" lon="-0.077291">
        <ele>997.535</ele>
        <time>2017-12-29T00:43:53Z</time>
      </trkpt>
      <trkpt lat="40.561303" lon="-0.078278">
        <ele>999.388</ele>
        <time>2017-12-29T00:44:13Z</time>
      </trkpt>
      <trkpt lat="40.559594" lon="-0.078674">
        <ele>1008.035</ele>
        <time>2017-12-29T00:44:33Z</time>
      </trkpt>
      <trkpt lat="40.558516" lon="-0.078497">
        <ele>1011.272</ele>
        <time>2017-12-29T00:44:53Z</time>
      </trkpt>
      <trkpt lat="40.556999" lon="-0.077591">
        <ele>1028.383</ele>
        <time>2017-12-29T00:45:13Z</time>
      </trkpt>
      <trkpt lat="40.556379" lon="-0.077248">
        <ele>1035.825</ele>
        <time>2017-12-29T00:45:33Z</time>
      </trkpt>
      <trkpt lat="40.555532" lon="-0.076904">
        <ele>1045.917</ele>
        <time>2017-12-29T00:45:53Z</time>
      </trkpt>
      <trkpt lat="40.554927" lon="-0.076599">
        <ele>1047.808</ele>
        <time>2017-12-29T00:46:13Z</time>
      </trkpt>
      <trkpt lat="40.554570" lon="-0.076089">
        <ele>1062.851</ele>
        <time>2017-12-29T00:46:33Z</time>
      </trkpt>
      <trkpt lat="40.553265" lon="-0.075316">
        <ele>1079.388</ele>
        <time>2017-12-29T00:46:53Z</time>
      </trkpt>
      <trkpt lat="40.552776" lon="-0.075145">
        <ele>1086.392</ele>
        <time>2017-12-29T00:47:13Z</time>
      </trkpt>
      <trkpt lat="40.551945" lon="-0.075080">
        <ele>1091.710</ele>
        <time>2017-12-29T00:47:33Z</time>
      </trkpt>
      <trkpt lat="40.551195" lon="-0.073814">
        <ele>1100.358</ele>
        <time>2017-12-29T00:47:53Z</time>
      </trkpt>
      <trkpt lat="40.550494" lon="-0.073106">
        <ele>1114.761</ele>
        <time>2017-12-29T00:48:13Z</time>
      </trkpt>
      <trkpt lat="40.549092" lon="-0.072913">
        <ele>1119.928</ele>
        <time>2017-12-29T00:48:33Z</time>
      </trkpt>
      <trkpt lat="40.548586" lon="-0.073020">
        <ele>1128.885</ele>
        <time>2017-12-29T00:48:53Z</time>
      </trkpt>
      <trkpt lat="40.547380" lon="-0.073149">
        <ele>1148.022</ele>
        <time>2017-12-29T00:49:13Z</time>
      </trkpt>
      <trkpt lat="40.546515" lon="-0.073171">
        <ele>1162.362</ele>
        <time>2017-12-29T00:49:33Z</time>
      </trkpt>
      <trkpt lat="40.545700" lon="-0.073214">
        <ele>1177.908</ele>
        <time>2017-12-29T00:49:53Z</time>
      </trkpt>
      <trkpt lat="40.545553" lon="-0.073771">
        <ele>1183.508</ele>
        <time>2017-12-29T00:50:13Z</time>
      </trkpt>
      <trkpt lat="40.545260" lon="-0.074522">
        <ele>1186.955</ele>
        <time>2017-12-29T00:50:33Z</time>
      </trkpt>
      <trkpt lat="40.545032" lon="-0.074716">
        <ele>1189.552</ele>
        <time>2017-12-29T00:50:53Z</time>
      </trkpt>
      <trkpt lat="40.544445" lon="-0.074694">
        <ele>1197.476</ele>
        <time>2017-12-29T00:51:13Z</time>
      </trkpt>
      <trkpt lat="40.543955" lon="-0.075274">
        <ele>1201.254</ele>
        <time>2017-12-29T00:51:33Z</time>
      </trkpt>
      <trkpt lat="40.542814" lon="-0.075982">
        <ele>1212.472</ele>
        <time>2017-12-29T00:51:53Z</time>
      </trkpt>
      <trkpt lat="40.542390" lon="-0.076475">
        <ele>1216.565</ele>
        <time>2017-12-29T00:52:13Z</time>
      </trkpt>
      <trkpt lat="40.541836" lon="-0.076325">
        <ele>1219.842</ele>
        <time>2017-12-29T00:52:33Z</time>
      </trkpt>
      <trkpt lat="40.541183" lon="-0.076711">
        <ele>1223.069</ele>
        <time>2017-12-29T00:52:53Z</time>
      </trkpt>
      <trkpt lat="40.540841" lon="-0.076969">
        <ele>1225.395</ele>
        <time>2017-12-29T00:53:13Z</time>
      </trkpt>
      <trkpt lat="40.539830" lon="-0.076389">
        <ele>1221.449</ele>
        <time>2017-12-29T00:53:33Z</time>
      </trkpt>
      <trkpt lat="40.539096" lon="-0.076604">
        <ele>1237.523</ele>
        <time>2017-12-29T00:53:53Z</time>
      </trkpt>
      <trkpt lat="40.537971" lon="-0.076754">
        <ele>1236.808</ele>
        <time>2017-12-29T00:54:13Z</time>
      </trkpt>
      <trkpt lat="40.537628" lon="-0.076218">
        <ele>1234.742</ele>
        <time>2017-12-29T00:54:33Z</time>
      </trkpt>
      <trkpt lat="40.537710" lon="-0.075402">
        <ele>1226.529</ele>
        <time>2017-12-29T00:54:53Z</time>
      </trkpt>
      <trkpt lat="40.537792" lon="-0.074909">
        <ele>1227.123</ele>
        <time>2017-12-29T00:55:13Z</time>
      </trkpt>
      <trkpt lat="40.537694" lon="-0.074394">
        <ele>1229.681</ele>
        <time>2017-12-29T00:55:33Z</time>
      </trkpt>
      <trkpt lat="40.537661" lon="-0.073900">
        <ele>1232.569</ele>
        <time>2017-12-29T00:55:53Z</time>
      </trkpt>
      <trkpt lat="40.537270" lon="-0.073471">
        <ele>1228.962</ele>
        <time>2017-12-29T00:56:13Z</time>
      </trkpt>
      <trkpt lat="40.537090" lon="-0.072656">
        <ele>1226.319</ele>
        <time>2017-12-29T00:56:33Z</time>
      </trkpt>
      <trkpt lat="40.536813" lon="-0.071754">
        <ele>1233.676</ele>
        <time>2017-12-29T00:56:53Z</time>
      </trkpt>
      <trkpt lat="40.535786" lon="-0.071368">
        <ele>1234.017</ele>
        <time>2017-12-29T00:57:13Z</time>
      </trkpt>
      <trkpt lat="40.534514" lon="-0.071797">
        <ele>1221.187</ele>
        <time>2017-12-29T00:57:33Z</time>
      </trkpt>
      <trkpt lat="40.534057" lon="-0.071883">
        <ele>1221.115</ele>
        <time>2017-12-29T00:57:53Z</time>
      </trkpt>
      <trkpt lat="40.533552" lon="-0.071883">
        <ele>1227.208</ele>
        <time>2017-12-29T00:58:13Z</time>
      </trkpt>
      <trkpt lat="40.533013" lon="-0.072248">
        <ele>1221.744</ele>
        <time>2017-12-29T00:58:33Z</time>
      </trkpt>
      <trkpt lat="40.532475" lon="-0.072484">
        <ele>1220.021</ele>
        <time>2017-12-29T00:58:53Z</time>
      </trkpt>
      <trkpt lat="40.531806" lon="-0.072484">
        <ele>1213.665</ele>
        <time>2017-12-29T00:59:13Z</time>
      </trkpt>
      <trkpt lat="40.531758" lon="-0.071626">
        <ele>1213.463</ele>
        <time>2017-12-29T00:59:33Z</time>
      </trkpt>
      <trkpt lat="40.531888" lon="-0.070789">
        <ele>1216.351</ele>
        <time>2017-12-29T00:59:53Z</time>
      </trkpt>
      <trkpt lat="40.531594" lon="-0.070102">
        <ele>1214.964</ele>
        <time>2017-12-29T01:00:13Z</time>
      </trkpt>
      <trkpt lat="40.530910" lon="-0.069909">
        <ele>1210.091</ele>
        <time>2017-12-29T01:00:33Z</time>
      </trkpt>
      <trkpt lat="40.530649" lon="-0.069737">
        <ele>1210.788</ele>
        <time>2017-12-29T01:00:53Z</time>
      </trkpt>
      <trkpt lat="40.530649" lon="-0.069416">
        <ele>1216.786</ele>
        <time>2017-12-29T01:01:13Z</time>
      </trkpt>
      <trkpt lat="40.530143" lon="-0.069115">
        <ele>1215.560</ele>
        <time>2017-12-29T01:01:33Z</time>
      </trkpt>
      <trkpt lat="40.529768" lon="-0.068772">
        <ele>1215.326</ele>
        <time>2017-12-29T01:01:53Z</time>
      </trkpt>
      <trkpt lat="40.529213" lon="-0.069158">
        <ele>1210.908</ele>
        <time>2017-12-29T01:02:13Z</time>
      </trkpt>
      <trkpt lat="40.528708" lon="-0.069201">
        <ele>1210.331</ele>
        <time>2017-12-29T01:02:33Z</time>
      </trkpt>
      <trkpt lat="40.527876" lon="-0.069458">
        <ele>1210.888</ele>
        <time>2017-12-29T01:02:53Z</time>
      </trkpt>
      <trkpt lat="40.526832" lon="-0.069373">
        <ele>1207.582</ele>
        <time>2017-12-29T01:03:13Z</time>
      </trkpt>
      <trkpt lat="40.525821" lon="-0.069437">
        <ele>1202.880</ele>
        <time>2017-12-29T01:03:33Z</time>
      </trkpt>
      <trkpt lat="40.524467" lon="-0.069437">
        <ele>1197.068</ele>
        <time>2017-12-29T01:03:53Z</time>
      </trkpt>
      <trkpt lat="40.524059" lon="-0.069695">
        <ele>1197.251</ele>
        <time>2017-12-29T01:04:13Z</time>
      </trkpt>
      <trkpt lat="40.522575" lon="-0.070360">
        <ele>1195.068</ele>
        <time>2017-12-29T01:04:33Z</time>
      </trkpt>
      <trkpt lat="40.520830" lon="-0.070982">
        <ele>1184.965</ele>
        <time>2017-12-29T01:04:53Z</time>
      </trkpt>
      <trkpt lat="40.520324" lon="-0.070896">
        <ele>1182.556</ele>
        <time>2017-12-29T01:05:13Z</time>
      </trkpt>
      <trkpt lat="40.519737" lon="-0.070381">
        <ele>1187.559</ele>
        <time>2017-12-29T01:05:33Z</time>
      </trkpt>
      <trkpt lat="40.519509" lon="-0.070167">
        <ele>1188.014</ele>
        <time>2017-12-29T01:05:53Z</time>
      </trkpt>
      <trkpt lat="40.519313" lon="-0.069244">
        <ele>1181.608</ele>
        <time>2017-12-29T01:06:13Z</time>
      </trkpt>
      <trkpt lat="40.519476" lon="-0.068235">
        <ele>1178.568</ele>
        <time>2017-12-29T01:06:33Z</time>
      </trkpt>
      <trkpt lat="40.519068" lon="-0.066905">
        <ele>1177.785</ele>
        <time>2017-12-29T01:06:53Z</time>
      </trkpt>
      <trkpt lat="40.518644" lon="-0.066798">
        <ele>1172.129</ele>
        <time>2017-12-29T01:07:13Z</time>
      </trkpt>
      <trkpt lat="40.518220" lon="-0.067077">
        <ele>1161.797</ele>
        <time>2017-12-29T01:07:33Z</time>
      </trkpt>
      <trkpt lat="40.517763" lon="-0.066862">
        <ele>1159.455</ele>
        <time>2017-12-29T01:07:53Z</time>
      </trkpt>
      <trkpt lat="40.517486" lon="-0.066068">
        <ele>1155.358</ele>
        <time>2017-12-29T01:08:13Z</time>
      </trkpt>
      <trkpt lat="40.517290" lon="-0.066583">
        <ele>1151.995</ele>
        <time>2017-12-29T01:08:33Z</time>
      </trkpt>
      <trkpt lat="40.517209" lon="-0.067055">
        <ele>1147.532</ele>
        <time>2017-12-29T01:08:53Z</time>
      </trkpt>
      <trkpt lat="40.517372" lon="-0.067677">
        <ele>1143.192</ele>
        <time>2017-12-29T01:09:13Z</time>
      </trkpt>
      <trkpt lat="40.516703" lon="-0.067184">
        <ele>1137.773</ele>
        <time>2017-12-29T01:09:33Z</time>
      </trkpt>
      <trkpt lat="40.516654" lon="-0.067699">
        <ele>1135.220</ele>
        <time>2017-12-29T01:09:53Z</time>
      </trkpt>
      <trkpt lat="40.516621" lon="-0.068128">
        <ele>1132.108</ele>
        <time>2017-12-29T01:10:13Z</time>
      </trkpt>
      <trkpt lat="40.516148" lon="-0.068128">
        <ele>1128.762</ele>
        <time>2017-12-29T01:10:33Z</time>
      </trkpt>
      <trkpt lat="40.515936" lon="-0.068021">
        <ele>1130.979</ele>
        <time>2017-12-29T01:10:53Z</time>
      </trkpt>
      <trkpt lat="40.515887" lon="-0.068686">
        <ele>1122.813</ele>
        <time>2017-12-29T01:11:13Z</time>
      </trkpt>
      <trkpt lat="40.515561" lon="-0.068922">
        <ele>1122.681</ele>
        <time>2017-12-29T01:11:33Z</time>
      </trkpt>
      <trkpt lat="40.515300" lon="-0.069630">
        <ele>1121.529</ele>
        <time>2017-12-29T01:11:53Z</time>
      </trkpt>
      <trkpt lat="40.514794" lon="-0.070124">
        <ele>1123.912</ele>
        <time>2017-12-29T01:12:13Z</time>
      </trkpt>
      <trkpt lat="40.513930" lon="-0.070231">
        <ele>1125.749</ele>
        <time>2017-12-29T01:12:33Z</time>
      </trkpt>
      <trkpt lat="40.513799" lon="-0.070767">
        <ele>1124.586</ele>
        <time>2017-12-29T01:12:53Z</time>
      </trkpt>
      <trkpt lat="40.513489" lon="-0.070381">
        <ele>1129.884</ele>
        <time>2017-12-29T01:13:13Z</time>
      </trkpt>
      <trkpt lat="40.512592" lon="-0.069995">
        <ele>1140.007</ele>
        <time>2017-12-29T01:13:33Z</time>
      </trkpt>
      <trkpt lat="40.512249" lon="-0.069115">
        <ele>1146.217</ele>
        <time>2017-12-29T01:13:53Z</time>
      </trkpt>
      <trkpt lat="40.511434" lon="-0.068235">
        <ele>1157.808</ele>
        <time>2017-12-29T01:14:13Z</time>
      </trkpt>
      <trkpt lat="40.510667" lon="-0.068042">
        <ele>1166.641</ele>
        <time>2017-12-29T01:14:33Z</time>
      </trkpt>
      <trkpt lat="40.509819" lon="-0.068235">
        <ele>1162.688</ele>
        <time>2017-12-29T01:14:53Z</time>
      </trkpt>
      <trkpt lat="40.508677" lon="-0.068707">
        <ele>1150.582</ele>
        <time>2017-12-29T01:15:13Z</time>
      </trkpt>
      <trkpt lat="40.507910" lon="-0.068343">
        <ele>1139.020</ele>
        <time>2017-12-29T01:15:33Z</time>
      </trkpt>
      <trkpt lat="40.506442" lon="-0.067592">
        <ele>1117.378</ele>
        <time>2017-12-29T01:15:53Z</time>
      </trkpt>
      <trkpt lat="40.505903" lon="-0.067098">
        <ele>1111.791</ele>
        <time>2017-12-29T01:16:13Z</time>
      </trkpt>
      <trkpt lat="40.505316" lon="-0.065961">
        <ele>1096.658</ele>
        <time>2017-12-29T01:16:33Z</time>
      </trkpt>
      <trkpt lat="40.504322" lon="-0.063838">
        <ele>1080.925</ele>
        <time>2018-03-13T16:01:07Z</time>
      </trkpt>
      <trkpt lat="40.504752" lon="-0.064628">
        <ele>1085.815</ele>
        <time>2018-11-10T19:51:40Z</time>
      </trkpt>
      <trkpt lat="40.505112" lon="-0.065402">
        <ele>1093.565</ele>
        <time>2018-11-10T19:52:00Z</time>
      </trkpt>
      <trkpt lat="40.504244" lon="-0.063688">
        <ele>1080.011</ele>
        <time>2018-03-13T16:01:03Z</time>
      </trkpt>
      <trkpt lat="40.503912" lon="-0.063126">
        <ele>1077.908</ele>
        <time>2018-03-13T16:00:48Z</time>
      </trkpt>
      <trkpt lat="40.503782" lon="-0.062959">
        <ele>1075.754</ele>
        <time>2018-03-13T16:00:42Z</time>
      </trkpt>
      <trkpt lat="40.503370" lon="-0.062482">
        <ele>1071.551</ele>
        <time>2018-03-13T16:00:27Z</time>
      </trkpt>
      <trkpt lat="40.503053" lon="-0.061890">
        <ele>1068.415</ele>
        <time>2018-03-13T16:00:11Z</time>
      </trkpt>
      <trkpt lat="40.502961" lon="-0.061406">
        <ele>1067.023</ele>
        <time>2018-03-13T16:00:00Z</time>
      </trkpt>
      <trkpt lat="40.502914" lon="-0.061120">
        <ele>1065.971</ele>
        <time>2018-03-13T15:59:54Z</time>
      </trkpt>
      <trkpt lat="40.502856" lon="-0.060893">
        <ele>1065.044</ele>
        <time>2018-03-13T15:59:49Z</time>
      </trkpt>
      <trkpt lat="40.502791" lon="-0.060667">
        <ele>1063.961</ele>
        <time>2018-03-13T15:59:43Z</time>
      </trkpt>
      <trkpt lat="40.502756" lon="-0.060555">
        <ele>1063.038</ele>
        <time>2018-03-13T15:59:41Z</time>
      </trkpt>
      <trkpt lat="40.502728" lon="-0.060479">
        <ele>1062.357</ele>
        <time>2018-03-13T15:59:39Z</time>
      </trkpt>
      <trkpt lat="40.502697" lon="-0.060400">
        <ele>1061.800</ele>
        <time>2018-03-13T15:59:37Z</time>
      </trkpt>
      <trkpt lat="40.502523" lon="-0.060011">
        <ele>1060.020</ele>
        <time>2018-03-13T15:59:27Z</time>
      </trkpt>
      <trkpt lat="40.502411" lon="-0.059751">
        <ele>1060.008</ele>
        <time>2018-03-13T15:59:21Z</time>
      </trkpt>
      <trkpt lat="40.502124" lon="-0.059102">
        <ele>1059.048</ele>
        <time>2018-03-13T15:59:04Z</time>
      </trkpt>
      <trkpt lat="40.502074" lon="-0.058994">
        <ele>1059.015</ele>
        <time>2018-03-13T15:59:02Z</time>
      </trkpt>
      <trkpt lat="40.501894" lon="-0.058560">
        <ele>1059.669</ele>
        <time>2018-03-13T15:58:51Z</time>
      </trkpt>
      <trkpt lat="40.501789" lon="-0.058218">
        <ele>1059.047</ele>
        <time>2018-03-13T15:58:43Z</time>
      </trkpt>
      <trkpt lat="40.501700" lon="-0.057854">
        <ele>1060.045</ele>
        <time>2018-03-13T15:58:35Z</time>
      </trkpt>
      <trkpt lat="40.501622" lon="-0.057524">
        <ele>1060.068</ele>
        <time>2018-03-13T15:58:27Z</time>
      </trkpt>
      <trkpt lat="40.501534" lon="-0.057142">
        <ele>1060.045</ele>
        <time>2018-03-13T15:58:19Z</time>
      </trkpt>
      <trkpt lat="40.501510" lon="-0.057070">
        <ele>1060.032</ele>
        <time>2018-03-13T15:58:17Z</time>
      </trkpt>
      <trkpt lat="40.501465" lon="-0.056874">
        <ele>1061.077</ele>
        <time>2018-03-13T15:58:12Z</time>
      </trkpt>
      <trkpt lat="40.501435" lon="-0.056759">
        <ele>1061.061</ele>
        <time>2018-03-13T15:58:10Z</time>
      </trkpt>
      <trkpt lat="40.501397" lon="-0.056585">
        <ele>1061.627</ele>
        <time>2018-03-13T15:58:06Z</time>
      </trkpt>
      <trkpt lat="40.501379" lon="-0.056520">
        <ele>1062.008</ele>
        <time>2018-03-13T15:58:04Z</time>
      </trkpt>
      <trkpt lat="40.501332" lon="-0.056326">
        <ele>1062.050</ele>
        <time>2018-03-13T15:58:00Z</time>
      </trkpt>
      <trkpt lat="40.501314" lon="-0.056265">
        <ele>1062.017</ele>
        <time>2018-03-13T15:57:59Z</time>
      </trkpt>
      <trkpt lat="40.501304" lon="-0.056235">
        <ele>1062.011</ele>
        <time>2018-03-13T15:57:58Z</time>
      </trkpt>
      <trkpt lat="40.501214" lon="-0.055822">
        <ele>1062.059</ele>
        <time>2018-03-13T15:57:49Z</time>
      </trkpt>
      <trkpt lat="40.501168" lon="-0.055606">
        <ele>1062.097</ele>
        <time>2018-03-13T15:57:44Z</time>
      </trkpt>
      <trkpt lat="40.501140" lon="-0.055521">
        <ele>1062.090</ele>
        <time>2018-03-13T15:57:42Z</time>
      </trkpt>
      <trkpt lat="40.501120" lon="-0.055490">
        <ele>1062.017</ele>
        <time>2018-03-13T15:57:41Z</time>
      </trkpt>
      <trkpt lat="40.501050" lon="-0.055435">
        <ele>1062.034</ele>
        <time>2018-03-13T15:57:38Z</time>
      </trkpt>
      <trkpt lat="40.501020" lon="-0.055429">
        <ele>1061.722</ele>
        <time>2018-03-13T15:57:38Z</time>
      </trkpt>
      <trkpt lat="40.500976" lon="-0.055383">
        <ele>1061.062</ele>
        <time>2018-03-13T15:57:36Z</time>
      </trkpt>
      <trkpt lat="40.500990" lon="-0.055366">
        <ele>1061.008</ele>
        <time>2018-03-13T15:57:35Z</time>
      </trkpt>
      <trkpt lat="40.501068" lon="-0.055421">
        <ele>1061.908</ele>
        <time>2018-03-13T15:57:33Z</time>
      </trkpt>
      <trkpt lat="40.501129" lon="-0.055488">
        <ele>1062.045</ele>
        <time>2018-03-13T15:57:31Z</time>
      </trkpt>
      <trkpt lat="40.501160" lon="-0.055584">
        <ele>1062.032</ele>
        <time>2018-03-13T15:57:28Z</time>
      </trkpt>
      <trkpt lat="40.501133" lon="-0.055571">
        <ele>1062.066</ele>
        <time>2018-03-13T15:57:28Z</time>
      </trkpt>
      <trkpt lat="40.501118" lon="-0.055535">
        <ele>1062.024</ele>
        <time>2018-03-13T15:57:27Z</time>
      </trkpt>
      <trkpt lat="40.501010" lon="-0.055416">
        <ele>1061.452</ele>
        <time>2018-03-13T15:57:23Z</time>
      </trkpt>
      <trkpt lat="40.500924" lon="-0.055334">
        <ele>1060.145</ele>
        <time>2018-03-13T15:57:20Z</time>
      </trkpt>
      <trkpt lat="40.500924" lon="-0.055172">
        <ele>1059.612</ele>
        <time>2018-03-13T15:57:16Z</time>
      </trkpt>
      <trkpt lat="40.500946" lon="-0.055116">
        <ele>1059.589</ele>
        <time>2018-03-13T15:57:15Z</time>
      </trkpt>
      <trkpt lat="40.500992" lon="-0.055001">
        <ele>1060.044</ele>
        <time>2018-03-13T15:57:12Z</time>
      </trkpt>
      <trkpt lat="40.501024" lon="-0.054588">
        <ele>1060.005</ele>
        <time>2018-03-13T15:57:03Z</time>
      </trkpt>
      <trkpt lat="40.500994" lon="-0.054529">
        <ele>1060.015</ele>
        <time>2018-03-13T15:57:01Z</time>
      </trkpt>
      <trkpt lat="40.500917" lon="-0.054423">
        <ele>1059.308</ele>
        <time>2018-03-13T15:56:58Z</time>
      </trkpt>
      <trkpt lat="40.500796" lon="-0.054261">
        <ele>1059.047</ele>
        <time>2018-03-13T15:56:53Z</time>
      </trkpt>
      <trkpt lat="40.500565" lon="-0.053931">
        <ele>1063.084</ele>
        <time>2018-03-13T15:56:43Z</time>
      </trkpt>
      <trkpt lat="40.500529" lon="-0.053878">
        <ele>1063.088</ele>
        <time>2018-03-13T15:56:42Z</time>
      </trkpt>
      <trkpt lat="40.500538" lon="-0.053593">
        <ele>1063.336</ele>
        <time>2018-03-13T15:56:36Z</time>
      </trkpt>
      <trkpt lat="40.500601" lon="-0.053456">
        <ele>1064.034</ele>
        <time>2018-03-13T15:56:32Z</time>
      </trkpt>
      <trkpt lat="40.500622" lon="-0.053413">
        <ele>1064.037</ele>
        <time>2018-03-13T15:56:31Z</time>
      </trkpt>
      <trkpt lat="40.500952" lon="-0.052797">
        <ele>1064.414</ele>
        <time>2018-03-13T15:56:15Z</time>
      </trkpt>
      <trkpt lat="40.501239" lon="-0.052390">
        <ele>1064.071</ele>
        <time>2018-03-13T15:56:03Z</time>
      </trkpt>
      <trkpt lat="40.501600" lon="-0.051807">
        <ele>1065.047</ele>
        <time>2018-03-13T15:55:46Z</time>
      </trkpt>
      <trkpt lat="40.501804" lon="-0.051449">
        <ele>1065.029</ele>
        <time>2018-03-13T15:55:37Z</time>
      </trkpt>
      <trkpt lat="40.502113" lon="-0.050810">
        <ele>1065.821</ele>
        <time>2018-03-13T15:55:20Z</time>
      </trkpt>
      <trkpt lat="40.502159" lon="-0.050712">
        <ele>1065.908</ele>
        <time>2018-03-13T15:55:18Z</time>
      </trkpt>
      <trkpt lat="40.502235" lon="-0.050453">
        <ele>1066.017</ele>
        <time>2018-03-13T15:55:12Z</time>
      </trkpt>
      <trkpt lat="40.502306" lon="-0.050227">
        <ele>1067.044</ele>
        <time>2018-03-13T15:55:07Z</time>
      </trkpt>
      <trkpt lat="40.502392" lon="-0.050039">
        <ele>1067.088</ele>
        <time>2018-03-13T15:55:02Z</time>
      </trkpt>
      <trkpt lat="40.502463" lon="-0.049915">
        <ele>1067.726</ele>
        <time>2018-03-13T15:54:58Z</time>
      </trkpt>
      <trkpt lat="40.502659" lon="-0.049509">
        <ele>1068.324</ele>
        <time>2018-03-13T15:54:48Z</time>
      </trkpt>
      <trkpt lat="40.502812" lon="-0.049226">
        <ele>1068.877</ele>
        <time>2018-03-13T15:54:40Z</time>
      </trkpt>
      <trkpt lat="40.502948" lon="-0.049014">
        <ele>1068.574</ele>
        <time>2018-03-13T15:54:34Z</time>
      </trkpt>
      <trkpt lat="40.503068" lon="-0.048765">
        <ele>1068.471</ele>
        <time>2018-03-13T15:54:28Z</time>
      </trkpt>
      <trkpt lat="40.503142" lon="-0.048581">
        <ele>1069.076</ele>
        <time>2018-03-13T15:54:24Z</time>
      </trkpt>
      <trkpt lat="40.503191" lon="-0.048467">
        <ele>1069.090</ele>
        <time>2018-03-13T15:54:21Z</time>
      </trkpt>
      <trkpt lat="40.503237" lon="-0.048340">
        <ele>1069.019</ele>
        <time>2018-03-13T15:54:18Z</time>
      </trkpt>
      <trkpt lat="40.503287" lon="-0.048187">
        <ele>1069.008</ele>
        <time>2018-03-13T15:54:14Z</time>
      </trkpt>
      <trkpt lat="40.503396" lon="-0.047965">
        <ele>1068.350</ele>
        <time>2018-03-13T15:54:08Z</time>
      </trkpt>
      <trkpt lat="40.503523" lon="-0.047778">
        <ele>1067.877</ele>
        <time>2018-03-13T15:54:03Z</time>
      </trkpt>
      <trkpt lat="40.503633" lon="-0.047636">
        <ele>1066.391</ele>
        <time>2018-03-13T15:53:58Z</time>
      </trkpt>
      <trkpt lat="40.503753" lon="-0.047490">
        <ele>1065.959</ele>
        <time>2018-03-13T15:53:54Z</time>
      </trkpt>
      <trkpt lat="40.503841" lon="-0.047387">
        <ele>1065.327</ele>
        <time>2018-03-13T15:53:50Z</time>
      </trkpt>
      <trkpt lat="40.503999" lon="-0.047188">
        <ele>1064.660</ele>
        <time>2018-03-13T15:53:44Z</time>
      </trkpt>
      <trkpt lat="40.504041" lon="-0.047122">
        <ele>1064.997</ele>
        <time>2018-03-13T15:53:42Z</time>
      </trkpt>
      <trkpt lat="40.504131" lon="-0.046957">
        <ele>1064.864</ele>
        <time>2018-03-13T15:53:38Z</time>
      </trkpt>
      <trkpt lat="40.504285" lon="-0.046594">
        <ele>1065.759</ele>
        <time>2018-03-13T15:53:29Z</time>
      </trkpt>
      <trkpt lat="40.504454" lon="-0.046284">
        <ele>1065.703</ele>
        <time>2018-03-13T15:53:21Z</time>
      </trkpt>
      <trkpt lat="40.504574" lon="-0.046064">
        <ele>1065.923</ele>
        <time>2018-03-13T15:53:15Z</time>
      </trkpt>
      <trkpt lat="40.504809" lon="-0.045641">
        <ele>1066.308</ele>
        <time>2018-03-13T15:53:03Z</time>
      </trkpt>
      <trkpt lat="40.504935" lon="-0.045396">
        <ele>1066.778</ele>
        <time>2018-03-13T15:52:57Z</time>
      </trkpt>
      <trkpt lat="40.504951" lon="-0.045360">
        <ele>1066.785</ele>
        <time>2018-03-13T15:52:56Z</time>
      </trkpt>
      <trkpt lat="40.504979" lon="-0.045297">
        <ele>1066.939</ele>
        <time>2018-03-13T15:52:54Z</time>
      </trkpt>
      <trkpt lat="40.504988" lon="-0.045274">
        <ele>1066.867</ele>
        <time>2018-03-13T15:52:54Z</time>
      </trkpt>
      <trkpt lat="40.504997" lon="-0.045253">
        <ele>1066.665</ele>
        <time>2018-03-13T15:52:53Z</time>
      </trkpt>
      <trkpt lat="40.505036" lon="-0.045115">
        <ele>1067.018</ele>
        <time>2018-03-13T15:52:50Z</time>
      </trkpt>
      <trkpt lat="40.505066" lon="-0.044985">
        <ele>1066.655</ele>
        <time>2018-03-13T15:52:47Z</time>
      </trkpt>
      <trkpt lat="40.505091" lon="-0.044601">
        <ele>1068.022</ele>
        <time>2018-03-13T15:52:39Z</time>
      </trkpt>
      <trkpt lat="40.505087" lon="-0.044572">
        <ele>1068.066</ele>
        <time>2018-03-13T15:52:38Z</time>
      </trkpt>
      <trkpt lat="40.505073" lon="-0.044506">
        <ele>1068.029</ele>
        <time>2018-03-13T15:52:37Z</time>
      </trkpt>
      <trkpt lat="40.505074" lon="-0.044505">
        <ele>1068.021</ele>
        <time>2018-03-13T15:52:37Z</time>
      </trkpt>
      <trkpt lat="40.505081" lon="-0.044469">
        <ele>1068.008</ele>
        <time>2018-03-13T15:52:36Z</time>
      </trkpt>
      <trkpt lat="40.505078" lon="-0.044444">
        <ele>1068.089</ele>
        <time>2018-03-13T15:52:35Z</time>
      </trkpt>
      <trkpt lat="40.504938" lon="-0.044114">
        <ele>1062.636</ele>
        <time>2018-03-13T15:52:27Z</time>
      </trkpt>
      <trkpt lat="40.504726" lon="-0.043794">
        <ele>1061.970</ele>
        <time>2018-03-13T15:52:18Z</time>
      </trkpt>
      <trkpt lat="40.504700" lon="-0.043737">
        <ele>1061.528</ele>
        <time>2018-03-13T15:52:16Z</time>
      </trkpt>
      <trkpt lat="40.504641" lon="-0.043564">
        <ele>1060.776</ele>
        <time>2018-03-13T15:52:12Z</time>
      </trkpt>
      <trkpt lat="40.504598" lon="-0.043225">
        <ele>1053.529</ele>
        <time>2018-03-13T15:52:05Z</time>
      </trkpt>
      <trkpt lat="40.504489" lon="-0.043000">
        <ele>1056.446</ele>
        <time>2018-03-13T15:51:59Z</time>
      </trkpt>
      <trkpt lat="40.504436" lon="-0.042936">
        <ele>1056.423</ele>
        <time>2018-03-13T15:51:57Z</time>
      </trkpt>
      <trkpt lat="40.504233" lon="-0.042748">
        <ele>1054.995</ele>
        <time>2018-03-13T15:51:50Z</time>
      </trkpt>
      <trkpt lat="40.504019" lon="-0.042475">
        <ele>1053.049</ele>
        <time>2018-03-13T15:51:41Z</time>
      </trkpt>
      <trkpt lat="40.503867" lon="-0.042224">
        <ele>1052.323</ele>
        <time>2018-03-13T15:51:34Z</time>
      </trkpt>
      <trkpt lat="40.503800" lon="-0.042058">
        <ele>1053.008</ele>
        <time>2018-03-13T15:51:30Z</time>
      </trkpt>
      <trkpt lat="40.503840" lon="-0.041948">
        <ele>1048.952</ele>
        <time>2018-03-13T15:51:27Z</time>
      </trkpt>
      <trkpt lat="40.503853" lon="-0.041948">
        <ele>1048.249</ele>
        <time>2018-03-13T15:51:27Z</time>
      </trkpt>
      <trkpt lat="40.503941" lon="-0.042055">
        <ele>1047.243</ele>
        <time>2018-03-13T15:51:23Z</time>
      </trkpt>
      <trkpt lat="40.504013" lon="-0.042164">
        <ele>1046.061</ele>
        <time>2018-03-13T15:51:20Z</time>
      </trkpt>
      <trkpt lat="40.504109" lon="-0.042279">
        <ele>1042.089</ele>
        <time>2018-03-13T15:51:16Z</time>
      </trkpt>
      <trkpt lat="40.504214" lon="-0.042339">
        <ele>1041.932</ele>
        <time>2018-03-13T15:51:13Z</time>
      </trkpt>
      <trkpt lat="40.504340" lon="-0.042398">
        <ele>1038.579</ele>
        <time>2018-03-13T15:51:09Z</time>
      </trkpt>
      <trkpt lat="40.504486" lon="-0.042472">
        <ele>1039.056</ele>
        <time>2018-03-13T15:51:05Z</time>
      </trkpt>
      <trkpt lat="40.504617" lon="-0.042528">
        <ele>1036.262</ele>
        <time>2018-03-13T15:51:01Z</time>
      </trkpt>
      <trkpt lat="40.504718" lon="-0.042580">
        <ele>1036.483</ele>
        <time>2018-03-13T15:50:58Z</time>
      </trkpt>
      <trkpt lat="40.504800" lon="-0.042651">
        <ele>1032.511</ele>
        <time>2018-03-13T15:50:55Z</time>
      </trkpt>
      <trkpt lat="40.504810" lon="-0.042662">
        <ele>1032.208</ele>
        <time>2018-03-13T15:50:54Z</time>
      </trkpt>
      <trkpt lat="40.504842" lon="-0.042713">
        <ele>1031.799</ele>
        <time>2018-03-13T15:50:53Z</time>
      </trkpt>
      <trkpt lat="40.504906" lon="-0.042794">
        <ele>1029.546</ele>
        <time>2018-03-13T15:50:50Z</time>
      </trkpt>
      <trkpt lat="40.504986" lon="-0.042939">
        <ele>1027.580</ele>
        <time>2018-03-13T15:50:46Z</time>
      </trkpt>
      <trkpt lat="40.505057" lon="-0.043087">
        <ele>1025.518</ele>
        <time>2018-03-13T15:50:43Z</time>
      </trkpt>
      <trkpt lat="40.505176" lon="-0.043257">
        <ele>1026.676</ele>
        <time>2018-03-13T15:50:38Z</time>
      </trkpt>
      <trkpt lat="40.505263" lon="-0.043286">
        <ele>1024.229</ele>
        <time>2018-03-13T15:50:35Z</time>
      </trkpt>
      <trkpt lat="40.505344" lon="-0.043300">
        <ele>1023.646</ele>
        <time>2018-03-13T15:50:33Z</time>
      </trkpt>
      <trkpt lat="40.505367" lon="-0.043309">
        <ele>1023.813</ele>
        <time>2018-03-13T15:50:32Z</time>
      </trkpt>
      <trkpt lat="40.505480" lon="-0.043321">
        <ele>1022.294</ele>
        <time>2018-03-13T15:50:29Z</time>
      </trkpt>
      <trkpt lat="40.505492" lon="-0.043323">
        <ele>1021.957</ele>
        <time>2018-03-13T15:50:28Z</time>
      </trkpt>
      <trkpt lat="40.505620" lon="-0.043347">
        <ele>1021.622</ele>
        <time>2018-03-13T15:50:25Z</time>
      </trkpt>
      <trkpt lat="40.505728" lon="-0.043355">
        <ele>1019.308</ele>
        <time>2018-03-13T15:50:22Z</time>
      </trkpt>
      <trkpt lat="40.505882" lon="-0.043347">
        <ele>1017.812</ele>
        <time>2018-03-13T15:50:17Z</time>
      </trkpt>
      <trkpt lat="40.506063" lon="-0.043282">
        <ele>1014.549</ele>
        <time>2018-03-13T15:50:12Z</time>
      </trkpt>
      <trkpt lat="40.506258" lon="-0.043215">
        <ele>1013.073</ele>
        <time>2018-03-13T15:50:06Z</time>
      </trkpt>
      <trkpt lat="40.506452" lon="-0.043136">
        <ele>1010.751</ele>
        <time>2018-03-13T15:50:00Z</time>
      </trkpt>
      <trkpt lat="40.506664" lon="-0.043099">
        <ele>1007.639</ele>
        <time>2018-03-13T15:49:54Z</time>
      </trkpt>
      <trkpt lat="40.506832" lon="-0.043168">
        <ele>1005.442</ele>
        <time>2018-03-13T15:49:49Z</time>
      </trkpt>
      <trkpt lat="40.506985" lon="-0.043320">
        <ele>1002.439</ele>
        <time>2018-03-13T15:49:43Z</time>
      </trkpt>
      <trkpt lat="40.507103" lon="-0.043463">
        <ele>1000.626</ele>
        <time>2018-03-13T15:49:39Z</time>
      </trkpt>
      <trkpt lat="40.507214" lon="-0.043593">
        <ele>999.434</ele>
        <time>2018-03-13T15:49:35Z</time>
      </trkpt>
      <trkpt lat="40.507332" lon="-0.043721">
        <ele>999.255</ele>
        <time>2018-03-13T15:49:30Z</time>
      </trkpt>
      <trkpt lat="40.507431" lon="-0.043850">
        <ele>999.110</ele>
        <time>2018-03-13T15:49:26Z</time>
      </trkpt>
      <trkpt lat="40.507451" lon="-0.044062">
        <ele>995.608</ele>
        <time>2018-03-13T15:49:21Z</time>
      </trkpt>
      <trkpt lat="40.507412" lon="-0.044187">
        <ele>995.256</ele>
        <time>2018-03-13T15:49:19Z</time>
      </trkpt>
      <trkpt lat="40.507358" lon="-0.044305">
        <ele>991.373</ele>
        <time>2018-03-13T15:49:15Z</time>
      </trkpt>
      <trkpt lat="40.507281" lon="-0.044440">
        <ele>989.967</ele>
        <time>2018-03-13T15:49:12Z</time>
      </trkpt>
      <trkpt lat="40.507206" lon="-0.044588">
        <ele>987.565</ele>
        <time>2018-03-13T15:49:08Z</time>
      </trkpt>
      <trkpt lat="40.507156" lon="-0.044735">
        <ele>987.393</ele>
        <time>2018-03-13T15:49:04Z</time>
      </trkpt>
      <trkpt lat="40.507091" lon="-0.044907">
        <ele>985.746</ele>
        <time>2018-03-13T15:49:00Z</time>
      </trkpt>
      <trkpt lat="40.507028" lon="-0.045056">
        <ele>984.433</ele>
        <time>2018-03-13T15:48:56Z</time>
      </trkpt>
      <trkpt lat="40.507007" lon="-0.045137">
        <ele>981.830</ele>
        <time>2018-03-13T15:48:54Z</time>
      </trkpt>
      <trkpt lat="40.506981" lon="-0.045269">
        <ele>980.781</ele>
        <time>2018-03-13T15:48:51Z</time>
      </trkpt>
      <trkpt lat="40.506976" lon="-0.045347">
        <ele>979.561</ele>
        <time>2018-03-13T15:48:50Z</time>
      </trkpt>
      <trkpt lat="40.506973" lon="-0.045420">
        <ele>978.217</ele>
        <time>2018-03-13T15:48:48Z</time>
      </trkpt>
      <trkpt lat="40.506943" lon="-0.045607">
        <ele>978.308</ele>
        <time>2018-03-13T15:48:44Z</time>
      </trkpt>
      <trkpt lat="40.506928" lon="-0.045693">
        <ele>978.731</ele>
        <time>2018-03-13T15:48:42Z</time>
      </trkpt>
      <trkpt lat="40.506927" lon="-0.045714">
        <ele>978.958</ele>
        <time>2018-03-13T15:48:42Z</time>
      </trkpt>
      <trkpt lat="40.506892" lon="-0.045826">
        <ele>980.842</ele>
        <time>2018-03-13T15:48:39Z</time>
      </trkpt>
      <trkpt lat="40.506897" lon="-0.045825">
        <ele>980.630</ele>
        <time>2018-03-13T15:48:39Z</time>
      </trkpt>
      <trkpt lat="40.506942" lon="-0.045788">
        <ele>978.038</ele>
        <time>2018-03-13T15:48:37Z</time>
      </trkpt>
      <trkpt lat="40.507030" lon="-0.045888">
        <ele>978.761</ele>
        <time>2018-03-13T15:48:34Z</time>
      </trkpt>
      <trkpt lat="40.507132" lon="-0.045933">
        <ele>978.058</ele>
        <time>2018-03-13T15:48:31Z</time>
      </trkpt>
      <trkpt lat="40.507133" lon="-0.045936">
        <ele>978.045</ele>
        <time>2018-03-13T15:48:31Z</time>
      </trkpt>
      <trkpt lat="40.507350" lon="-0.045952">
        <ele>977.784</ele>
        <time>2018-03-13T15:48:24Z</time>
      </trkpt>
      <trkpt lat="40.507572" lon="-0.045909">
        <ele>978.007</ele>
        <time>2018-03-13T15:48:18Z</time>
      </trkpt>
      <trkpt lat="40.507748" lon="-0.045902">
        <ele>978.017</ele>
        <time>2018-03-13T15:48:13Z</time>
      </trkpt>
      <trkpt lat="40.507830" lon="-0.045918">
        <ele>977.508</ele>
        <time>2018-03-13T15:48:11Z</time>
      </trkpt>
      <trkpt lat="40.508087" lon="-0.045957">
        <ele>975.081</ele>
        <time>2018-03-13T15:48:03Z</time>
      </trkpt>
      <trkpt lat="40.508188" lon="-0.045960">
        <ele>973.248</ele>
        <time>2018-03-13T15:48:00Z</time>
      </trkpt>
      <trkpt lat="40.508233" lon="-0.045950">
        <ele>972.082</ele>
        <time>2018-03-13T15:47:59Z</time>
      </trkpt>
      <trkpt lat="40.508370" lon="-0.046028">
        <ele>969.140</ele>
        <time>2018-03-13T15:47:55Z</time>
      </trkpt>
      <trkpt lat="40.508382" lon="-0.046040">
        <ele>967.568</ele>
        <time>2018-03-13T15:47:54Z</time>
      </trkpt>
      <trkpt lat="40.508425" lon="-0.046156">
        <ele>965.091</ele>
        <time>2018-03-13T15:47:51Z</time>
      </trkpt>
      <trkpt lat="40.508422" lon="-0.046246">
        <ele>964.238</ele>
        <time>2018-03-13T15:47:49Z</time>
      </trkpt>
      <trkpt lat="40.508485" lon="-0.046659">
        <ele>965.955</ele>
        <time>2018-03-13T15:47:40Z</time>
      </trkpt>
      <trkpt lat="40.508498" lon="-0.046688">
        <ele>967.272</ele>
        <time>2018-03-13T15:47:39Z</time>
      </trkpt>
      <trkpt lat="40.508728" lon="-0.046880">
        <ele>962.913</ele>
        <time>2018-03-13T15:47:32Z</time>
      </trkpt>
      <trkpt lat="40.508856" lon="-0.047068">
        <ele>960.814</ele>
        <time>2018-03-13T15:47:26Z</time>
      </trkpt>
      <trkpt lat="40.509007" lon="-0.047200">
        <ele>960.408</ele>
        <time>2018-03-13T15:47:21Z</time>
      </trkpt>
      <trkpt lat="40.509129" lon="-0.047379">
        <ele>958.540</ele>
        <time>2018-03-13T15:47:16Z</time>
      </trkpt>
      <trkpt lat="40.509295" lon="-0.047560">
        <ele>961.827</ele>
        <time>2018-03-13T15:47:09Z</time>
      </trkpt>
      <trkpt lat="40.509420" lon="-0.047637">
        <ele>964.421</ele>
        <time>2018-03-13T15:47:05Z</time>
      </trkpt>
      <trkpt lat="40.509574" lon="-0.047648">
        <ele>964.179</ele>
        <time>2018-03-13T15:47:01Z</time>
      </trkpt>
      <trkpt lat="40.509636" lon="-0.047585">
        <ele>963.597</ele>
        <time>2018-03-13T15:46:59Z</time>
      </trkpt>
      <trkpt lat="40.509636" lon="-0.047414">
        <ele>963.750</ele>
        <time>2018-03-13T15:46:55Z</time>
      </trkpt>
      <trkpt lat="40.509620" lon="-0.047093">
        <ele>961.997</ele>
        <time>2018-03-13T15:46:48Z</time>
      </trkpt>
      <trkpt lat="40.509644" lon="-0.046834">
        <ele>959.284</ele>
        <time>2018-03-13T15:46:42Z</time>
      </trkpt>
      <trkpt lat="40.509688" lon="-0.046611">
        <ele>957.542</ele>
        <time>2018-03-13T15:46:37Z</time>
      </trkpt>
      <trkpt lat="40.509693" lon="-0.046589">
        <ele>957.622</ele>
        <time>2018-03-13T15:46:37Z</time>
      </trkpt>
      <trkpt lat="40.509713" lon="-0.046414">
        <ele>956.014</ele>
        <time>2018-03-13T15:46:33Z</time>
      </trkpt>
      <trkpt lat="40.509751" lon="-0.046268">
        <ele>954.808</ele>
        <time>2018-03-13T15:46:30Z</time>
      </trkpt>
      <trkpt lat="40.509804" lon="-0.046148">
        <ele>955.677</ele>
        <time>2018-03-13T15:46:27Z</time>
      </trkpt>
      <trkpt lat="40.509827" lon="-0.046051">
        <ele>954.534</ele>
        <time>2018-03-13T15:46:24Z</time>
      </trkpt>
      <trkpt lat="40.509850" lon="-0.045936">
        <ele>951.868</ele>
        <time>2018-03-13T15:46:22Z</time>
      </trkpt>
      <trkpt lat="40.509881" lon="-0.045812">
        <ele>950.266</ele>
        <time>2018-03-13T15:46:19Z</time>
      </trkpt>
      <trkpt lat="40.509891" lon="-0.045779">
        <ele>949.244</ele>
        <time>2018-03-13T15:46:18Z</time>
      </trkpt>
      <trkpt lat="40.509919" lon="-0.045700">
        <ele>947.177</ele>
        <time>2018-03-13T15:46:16Z</time>
      </trkpt>
      <trkpt lat="40.509954" lon="-0.045636">
        <ele>947.534</ele>
        <time>2018-03-13T15:46:14Z</time>
      </trkpt>
      <trkpt lat="40.509998" lon="-0.045563">
        <ele>946.891</ele>
        <time>2018-03-13T15:46:12Z</time>
      </trkpt>
      <trkpt lat="40.510041" lon="-0.045509">
        <ele>946.824</ele>
        <time>2018-03-13T15:46:11Z</time>
      </trkpt>
      <trkpt lat="40.510138" lon="-0.045411">
        <ele>947.004</ele>
        <time>2018-03-13T15:46:07Z</time>
      </trkpt>
      <trkpt lat="40.510265" lon="-0.045312">
        <ele>945.314</ele>
        <time>2018-03-13T15:46:03Z</time>
      </trkpt>
      <trkpt lat="40.510279" lon="-0.045305">
        <ele>945.808</ele>
        <time>2018-03-13T15:46:03Z</time>
      </trkpt>
      <trkpt lat="40.510323" lon="-0.045242">
        <ele>947.745</ele>
        <time>2018-03-13T15:46:01Z</time>
      </trkpt>
      <trkpt lat="40.510374" lon="-0.045137">
        <ele>945.652</ele>
        <time>2018-03-13T15:45:58Z</time>
      </trkpt>
      <trkpt lat="40.510426" lon="-0.044979">
        <ele>941.786</ele>
        <time>2018-03-13T15:45:54Z</time>
      </trkpt>
      <trkpt lat="40.510485" lon="-0.044864">
        <ele>938.914</ele>
        <time>2018-03-13T15:45:51Z</time>
      </trkpt>
      <trkpt lat="40.510529" lon="-0.044814">
        <ele>939.152</ele>
        <time>2018-03-13T15:45:49Z</time>
      </trkpt>
      <trkpt lat="40.510583" lon="-0.044739">
        <ele>940.955</ele>
        <time>2018-03-13T15:45:47Z</time>
      </trkpt>
      <trkpt lat="40.510653" lon="-0.044643">
        <ele>938.742</ele>
        <time>2018-03-13T15:45:44Z</time>
      </trkpt>
      <trkpt lat="40.510751" lon="-0.044507">
        <ele>937.949</ele>
        <time>2018-03-13T15:45:40Z</time>
      </trkpt>
      <trkpt lat="40.510800" lon="-0.044418">
        <ele>936.747</ele>
        <time>2018-03-13T15:45:38Z</time>
      </trkpt>
      <trkpt lat="40.510840" lon="-0.044347">
        <ele>936.429</ele>
        <time>2018-03-13T15:45:36Z</time>
      </trkpt>
      <trkpt lat="40.510875" lon="-0.044275">
        <ele>935.021</ele>
        <time>2018-03-13T15:45:34Z</time>
      </trkpt>
      <trkpt lat="40.510914" lon="-0.044204">
        <ele>933.608</ele>
        <time>2018-03-13T15:45:32Z</time>
      </trkpt>
      <trkpt lat="40.510958" lon="-0.044115">
        <ele>932.737</ele>
        <time>2018-03-13T15:45:29Z</time>
      </trkpt>
      <trkpt lat="40.511000" lon="-0.044049">
        <ele>932.444</ele>
        <time>2018-03-13T15:45:28Z</time>
      </trkpt>
      <trkpt lat="40.511064" lon="-0.043951">
        <ele>931.158</ele>
        <time>2018-03-13T15:45:25Z</time>
      </trkpt>
      <trkpt lat="40.511098" lon="-0.043894">
        <ele>931.546</ele>
        <time>2018-03-13T15:45:23Z</time>
      </trkpt>
      <trkpt lat="40.511127" lon="-0.043829">
        <ele>929.124</ele>
        <time>2018-03-13T15:45:21Z</time>
      </trkpt>
      <trkpt lat="40.511164" lon="-0.043769">
        <ele>926.947</ele>
        <time>2018-03-13T15:45:20Z</time>
      </trkpt>
      <trkpt lat="40.511203" lon="-0.043707">
        <ele>924.954</ele>
        <time>2018-03-13T15:45:18Z</time>
      </trkpt>
      <trkpt lat="40.511257" lon="-0.043664">
        <ele>926.541</ele>
        <time>2018-03-13T15:45:16Z</time>
      </trkpt>
      <trkpt lat="40.511266" lon="-0.043656">
        <ele>926.589</ele>
        <time>2018-03-13T15:45:16Z</time>
      </trkpt>
      <trkpt lat="40.511306" lon="-0.043619">
        <ele>925.006</ele>
        <time>2018-03-13T15:45:14Z</time>
      </trkpt>
      <trkpt lat="40.511386" lon="-0.043555">
        <ele>922.326</ele>
        <time>2018-03-13T15:45:12Z</time>
      </trkpt>
      <trkpt lat="40.511500" lon="-0.043481">
        <ele>918.208</ele>
        <time>2018-03-13T15:45:08Z</time>
      </trkpt>
      <trkpt lat="40.511639" lon="-0.043454">
        <ele>917.741</ele>
        <time>2018-03-13T15:45:04Z</time>
      </trkpt>
      <trkpt lat="40.511764" lon="-0.043478">
        <ele>916.128</ele>
        <time>2018-03-13T15:45:00Z</time>
      </trkpt>
      <trkpt lat="40.511843" lon="-0.043507">
        <ele>917.062</ele>
        <time>2018-03-13T15:44:58Z</time>
      </trkpt>
      <trkpt lat="40.511920" lon="-0.043537">
        <ele>917.470</ele>
        <time>2018-03-13T15:44:55Z</time>
      </trkpt>
      <trkpt lat="40.511998" lon="-0.043567">
        <ele>916.198</ele>
        <time>2018-03-13T15:44:53Z</time>
      </trkpt>
      <trkpt lat="40.512068" lon="-0.043586">
        <ele>914.961</ele>
        <time>2018-03-13T15:44:51Z</time>
      </trkpt>
      <trkpt lat="40.512084" lon="-0.043589">
        <ele>914.638</ele>
        <time>2018-03-13T15:44:51Z</time>
      </trkpt>
      <trkpt lat="40.512147" lon="-0.043617">
        <ele>913.185</ele>
        <time>2018-03-13T15:44:49Z</time>
      </trkpt>
      <trkpt lat="40.512215" lon="-0.043688">
        <ele>910.878</ele>
        <time>2018-03-13T15:44:46Z</time>
      </trkpt>
      <trkpt lat="40.512237" lon="-0.043744">
        <ele>910.733</ele>
        <time>2018-03-13T15:44:45Z</time>
      </trkpt>
      <trkpt lat="40.512246" lon="-0.043772">
        <ele>911.226</ele>
        <time>2018-03-13T15:44:44Z</time>
      </trkpt>
      <trkpt lat="40.512261" lon="-0.043810">
        <ele>912.308</ele>
        <time>2018-03-13T15:44:43Z</time>
      </trkpt>
      <trkpt lat="40.512268" lon="-0.043821">
        <ele>912.370</ele>
        <time>2018-03-13T15:44:43Z</time>
      </trkpt>
      <trkpt lat="40.512284" lon="-0.043864">
        <ele>912.787</ele>
        <time>2018-03-13T15:44:42Z</time>
      </trkpt>
      <trkpt lat="40.512304" lon="-0.043906">
        <ele>912.811</ele>
        <time>2018-03-13T15:44:41Z</time>
      </trkpt>
      <trkpt lat="40.512331" lon="-0.043956">
        <ele>912.229</ele>
        <time>2018-03-13T15:44:39Z</time>
      </trkpt>
      <trkpt lat="40.512367" lon="-0.043967">
        <ele>912.037</ele>
        <time>2018-03-13T15:44:38Z</time>
      </trkpt>
      <trkpt lat="40.512389" lon="-0.043965">
        <ele>911.690</ele>
        <time>2018-03-13T15:44:38Z</time>
      </trkpt>
      <trkpt lat="40.512416" lon="-0.043939">
        <ele>911.517</ele>
        <time>2018-03-13T15:44:37Z</time>
      </trkpt>
      <trkpt lat="40.512450" lon="-0.043900">
        <ele>911.984</ele>
        <time>2018-03-13T15:44:35Z</time>
      </trkpt>
      <trkpt lat="40.512469" lon="-0.043848">
        <ele>909.754</ele>
        <time>2018-03-13T15:44:34Z</time>
      </trkpt>
      <trkpt lat="40.512489" lon="-0.043809">
        <ele>908.056</ele>
        <time>2018-03-13T15:44:33Z</time>
      </trkpt>
      <trkpt lat="40.512513" lon="-0.043782">
        <ele>907.411</ele>
        <time>2018-03-13T15:44:32Z</time>
      </trkpt>
      <trkpt lat="40.512531" lon="-0.043765">
        <ele>907.108</ele>
        <time>2018-03-13T15:44:31Z</time>
      </trkpt>
      <trkpt lat="40.512560" lon="-0.043741">
        <ele>906.288</ele>
        <time>2018-03-13T15:44:30Z</time>
      </trkpt>
      <trkpt lat="40.512587" lon="-0.043715">
        <ele>905.115</ele>
        <time>2018-03-13T15:44:29Z</time>
      </trkpt>
      <trkpt lat="40.512606" lon="-0.043692">
        <ele>905.069</ele>
        <time>2018-03-13T15:44:29Z</time>
      </trkpt>
      <trkpt lat="40.512639" lon="-0.043666">
        <ele>905.367</ele>
        <time>2018-03-13T15:44:28Z</time>
      </trkpt>
      <trkpt lat="40.512668" lon="-0.043644">
        <ele>905.095</ele>
        <time>2018-03-13T15:44:27Z</time>
      </trkpt>
      <trkpt lat="40.512677" lon="-0.043637">
        <ele>904.858</ele>
        <time>2018-03-13T15:44:26Z</time>
      </trkpt>
      <trkpt lat="40.512697" lon="-0.043628">
        <ele>904.375</ele>
        <time>2018-03-13T15:44:26Z</time>
      </trkpt>
      <trkpt lat="40.512735" lon="-0.043611">
        <ele>903.712</ele>
        <time>2018-03-13T15:44:25Z</time>
      </trkpt>
      <trkpt lat="40.512767" lon="-0.043595">
        <ele>902.563</ele>
        <time>2018-03-13T15:44:24Z</time>
      </trkpt>
      <trkpt lat="40.512804" lon="-0.043580">
        <ele>901.444</ele>
        <time>2018-03-13T15:44:22Z</time>
      </trkpt>
      <trkpt lat="40.512849" lon="-0.043572">
        <ele>901.018</ele>
        <time>2018-03-13T15:44:21Z</time>
      </trkpt>
      <trkpt lat="40.512866" lon="-0.043559">
        <ele>900.308</ele>
        <time>2018-03-13T15:44:20Z</time>
      </trkpt>
      <trkpt lat="40.512875" lon="-0.043551">
        <ele>899.849</ele>
        <time>2018-03-13T15:44:20Z</time>
      </trkpt>
      <trkpt lat="40.512908" lon="-0.043547">
        <ele>899.196</ele>
        <time>2018-03-13T15:44:19Z</time>
      </trkpt>
      <trkpt lat="40.512944" lon="-0.043546">
        <ele>898.750</ele>
        <time>2018-03-13T15:44:18Z</time>
      </trkpt>
      <trkpt lat="40.512981" lon="-0.043546">
        <ele>898.478</ele>
        <time>2018-03-13T15:44:17Z</time>
      </trkpt>
      <trkpt lat="40.513031" lon="-0.043543">
        <ele>897.836</ele>
        <time>2018-03-13T15:44:16Z</time>
      </trkpt>
      <trkpt lat="40.513067" lon="-0.043527">
        <ele>897.119</ele>
        <time>2018-03-13T15:44:15Z</time>
      </trkpt>
      <trkpt lat="40.513091" lon="-0.043487">
        <ele>895.516</ele>
        <time>2018-03-13T15:44:13Z</time>
      </trkpt>
      <trkpt lat="40.513094" lon="-0.043470">
        <ele>895.053</ele>
        <time>2018-03-13T15:44:13Z</time>
      </trkpt>
      <trkpt lat="40.513086" lon="-0.043425">
        <ele>894.827</ele>
        <time>2018-03-13T15:44:12Z</time>
      </trkpt>
      <trkpt lat="40.513075" lon="-0.043400">
        <ele>894.068</ele>
        <time>2018-03-13T15:44:11Z</time>
      </trkpt>
      <trkpt lat="40.513057" lon="-0.043386">
        <ele>893.714</ele>
        <time>2018-03-13T15:44:11Z</time>
      </trkpt>
      <trkpt lat="40.513026" lon="-0.043358">
        <ele>893.008</ele>
        <time>2018-03-13T15:44:10Z</time>
      </trkpt>
      <trkpt lat="40.513000" lon="-0.043323">
        <ele>891.795</ele>
        <time>2018-03-13T15:44:09Z</time>
      </trkpt>
      <trkpt lat="40.512962" lon="-0.043246">
        <ele>891.012</ele>
        <time>2018-03-13T15:44:07Z</time>
      </trkpt>
      <trkpt lat="40.512932" lon="-0.043181">
        <ele>889.326</ele>
        <time>2018-03-13T15:44:05Z</time>
      </trkpt>
      <trkpt lat="40.512914" lon="-0.043125">
        <ele>887.234</ele>
        <time>2018-03-13T15:44:03Z</time>
      </trkpt>
      <trkpt lat="40.512896" lon="-0.043082">
        <ele>885.732</ele>
        <time>2018-03-13T15:44:02Z</time>
      </trkpt>
      <trkpt lat="40.512860" lon="-0.043036">
        <ele>885.095</ele>
        <time>2018-03-13T15:44:01Z</time>
      </trkpt>
      <trkpt lat="40.512806" lon="-0.042999">
        <ele>885.842</ele>
        <time>2018-03-13T15:43:59Z</time>
      </trkpt>
      <trkpt lat="40.512721" lon="-0.042971">
        <ele>885.559</ele>
        <time>2018-03-13T15:43:57Z</time>
      </trkpt>
      <trkpt lat="40.512654" lon="-0.042937">
        <ele>885.112</ele>
        <time>2018-03-13T15:43:55Z</time>
      </trkpt>
      <trkpt lat="40.512613" lon="-0.042872">
        <ele>883.632</ele>
        <time>2018-03-13T15:43:53Z</time>
      </trkpt>
      <trkpt lat="40.512588" lon="-0.042807">
        <ele>882.605</ele>
        <time>2018-03-13T15:43:51Z</time>
      </trkpt>
      <trkpt lat="40.512572" lon="-0.042728">
        <ele>881.408</ele>
        <time>2018-03-13T15:43:49Z</time>
      </trkpt>
      <trkpt lat="40.512570" lon="-0.042706">
        <ele>880.754</ele>
        <time>2018-03-13T15:43:49Z</time>
      </trkpt>
      <trkpt lat="40.512568" lon="-0.042664">
        <ele>879.861</ele>
        <time>2018-03-13T15:43:48Z</time>
      </trkpt>
      <trkpt lat="40.512563" lon="-0.042579">
        <ele>879.085</ele>
        <time>2018-03-13T15:43:46Z</time>
      </trkpt>
      <trkpt lat="40.512562" lon="-0.042558">
        <ele>878.323</ele>
        <time>2018-03-13T15:43:45Z</time>
      </trkpt>
      <trkpt lat="40.512544" lon="-0.042491">
        <ele>876.671</ele>
        <time>2018-03-13T15:43:44Z</time>
      </trkpt>
      <trkpt lat="40.512534" lon="-0.042470">
        <ele>876.274</ele>
        <time>2018-03-13T15:43:43Z</time>
      </trkpt>
      <trkpt lat="40.512495" lon="-0.042389">
        <ele>874.221</ele>
        <time>2018-03-13T15:43:41Z</time>
      </trkpt>
      <trkpt lat="40.512472" lon="-0.042353">
        <ele>874.588</ele>
        <time>2018-03-13T15:43:40Z</time>
      </trkpt>
      <trkpt lat="40.512453" lon="-0.042315">
        <ele>874.079</ele>
        <time>2018-03-13T15:43:39Z</time>
      </trkpt>
      <trkpt lat="40.512412" lon="-0.042234">
        <ele>872.305</ele>
        <time>2018-03-13T15:43:37Z</time>
      </trkpt>
      <trkpt lat="40.512389" lon="-0.042194">
        <ele>871.925</ele>
        <time>2018-03-13T15:43:36Z</time>
      </trkpt>
      <trkpt lat="40.512364" lon="-0.042146">
        <ele>871.008</ele>
        <time>2018-03-13T15:43:35Z</time>
      </trkpt>
      <trkpt lat="40.512272" lon="-0.042040">
        <ele>869.210</ele>
        <time>2018-03-13T15:43:31Z</time>
      </trkpt>
      <trkpt lat="40.512158" lon="-0.041991">
        <ele>867.067</ele>
        <time>2018-03-13T15:43:28Z</time>
      </trkpt>
      <trkpt lat="40.512019" lon="-0.041997">
        <ele>867.711</ele>
        <time>2018-03-13T15:43:24Z</time>
      </trkpt>
      <trkpt lat="40.511941" lon="-0.042009">
        <ele>869.729</ele>
        <time>2018-03-13T15:43:21Z</time>
      </trkpt>
      <trkpt lat="40.511702" lon="-0.042068">
        <ele>873.697</ele>
        <time>2018-03-13T15:43:14Z</time>
      </trkpt>
      <trkpt lat="40.511207" lon="-0.042303">
        <ele>877.580</ele>
        <time>2018-03-13T15:42:59Z</time>
      </trkpt>
      <trkpt lat="40.511122" lon="-0.042397">
        <ele>878.957</ele>
        <time>2018-03-13T15:42:56Z</time>
      </trkpt>
      <trkpt lat="40.511050" lon="-0.042493">
        <ele>880.884</ele>
        <time>2018-03-13T15:42:53Z</time>
      </trkpt>
      <trkpt lat="40.510850" lon="-0.042752">
        <ele>884.164</ele>
        <time>2018-03-13T15:42:45Z</time>
      </trkpt>
      <trkpt lat="40.510653" lon="-0.043064">
        <ele>882.206</ele>
        <time>2018-03-13T15:42:36Z</time>
      </trkpt>
      <trkpt lat="40.510373" lon="-0.043722">
        <ele>885.716</ele>
        <time>2018-03-13T15:42:20Z</time>
      </trkpt>
      <trkpt lat="40.510353" lon="-0.043751">
        <ele>885.908</ele>
        <time>2018-03-13T15:42:19Z</time>
      </trkpt>
      <trkpt lat="40.510260" lon="-0.043814">
        <ele>880.959</ele>
        <time>2018-03-13T15:42:16Z</time>
      </trkpt>
      <trkpt lat="40.510234" lon="-0.043792">
        <ele>879.376</ele>
        <time>2018-03-13T15:42:15Z</time>
      </trkpt>
      <trkpt lat="40.510212" lon="-0.043755">
        <ele>877.940</ele>
        <time>2018-03-13T15:42:14Z</time>
      </trkpt>
      <trkpt lat="40.510200" lon="-0.043707">
        <ele>877.378</ele>
        <time>2018-03-13T15:42:13Z</time>
      </trkpt>
      <trkpt lat="40.510201" lon="-0.043522">
        <ele>877.316</ele>
        <time>2018-03-13T15:42:09Z</time>
      </trkpt>
      <trkpt lat="40.510227" lon="-0.043176">
        <ele>877.549</ele>
        <time>2018-03-13T15:42:01Z</time>
      </trkpt>
      <trkpt lat="40.510198" lon="-0.042841">
        <ele>879.446</ele>
        <time>2018-03-13T15:41:54Z</time>
      </trkpt>
      <trkpt lat="40.510185" lon="-0.042726">
        <ele>879.983</ele>
        <time>2018-03-13T15:41:51Z</time>
      </trkpt>
      <trkpt lat="40.510146" lon="-0.042247">
        <ele>880.176</ele>
        <time>2018-03-13T15:41:41Z</time>
      </trkpt>
      <trkpt lat="40.510173" lon="-0.042137">
        <ele>879.390</ele>
        <time>2018-03-13T15:41:38Z</time>
      </trkpt>
      <trkpt lat="40.510209" lon="-0.042011">
        <ele>878.019</ele>
        <time>2018-03-13T15:41:35Z</time>
      </trkpt>
      <trkpt lat="40.510235" lon="-0.041922">
        <ele>876.108</ele>
        <time>2018-03-13T15:41:33Z</time>
      </trkpt>
      <trkpt lat="40.510254" lon="-0.041859">
        <ele>875.580</ele>
        <time>2018-03-13T15:41:32Z</time>
      </trkpt>
      <trkpt lat="40.510263" lon="-0.041786">
        <ele>875.197</ele>
        <time>2018-03-13T15:41:30Z</time>
      </trkpt>
      <trkpt lat="40.510278" lon="-0.041702">
        <ele>873.531</ele>
        <time>2018-03-13T15:41:28Z</time>
      </trkpt>
      <trkpt lat="40.510287" lon="-0.041668">
        <ele>873.199</ele>
        <time>2018-03-13T15:41:27Z</time>
      </trkpt>
      <trkpt lat="40.510291" lon="-0.041631">
        <ele>872.917</ele>
        <time>2018-03-13T15:41:27Z</time>
      </trkpt>
      <trkpt lat="40.510307" lon="-0.041539">
        <ele>871.220</ele>
        <time>2018-03-13T15:41:25Z</time>
      </trkpt>
      <trkpt lat="40.510311" lon="-0.041501">
        <ele>870.857</ele>
        <time>2018-03-13T15:41:24Z</time>
      </trkpt>
      <trkpt lat="40.510312" lon="-0.041422">
        <ele>870.884</ele>
        <time>2018-03-13T15:41:22Z</time>
      </trkpt>
      <trkpt lat="40.510311" lon="-0.041404">
        <ele>870.833</ele>
        <time>2018-03-13T15:41:22Z</time>
      </trkpt>
      <trkpt lat="40.510293" lon="-0.041234">
        <ele>870.523</ele>
        <time>2018-03-13T15:41:18Z</time>
      </trkpt>
      <trkpt lat="40.510265" lon="-0.041161">
        <ele>871.115</ele>
        <time>2018-03-13T15:41:16Z</time>
      </trkpt>
      <trkpt lat="40.510202" lon="-0.041038">
        <ele>870.108</ele>
        <time>2018-03-13T15:41:13Z</time>
      </trkpt>
      <trkpt lat="40.510181" lon="-0.040987">
        <ele>870.056</ele>
        <time>2018-03-13T15:41:12Z</time>
      </trkpt>
      <trkpt lat="40.510138" lon="-0.040918">
        <ele>869.353</ele>
        <time>2018-03-13T15:41:10Z</time>
      </trkpt>
      <trkpt lat="40.509986" lon="-0.040623">
        <ele>868.437</ele>
        <time>2018-03-13T15:41:02Z</time>
      </trkpt>
      <trkpt lat="40.509908" lon="-0.040481">
        <ele>868.135</ele>
        <time>2018-03-13T15:40:58Z</time>
      </trkpt>
      <trkpt lat="40.509892" lon="-0.040357">
        <ele>867.863</ele>
        <time>2018-03-13T15:40:55Z</time>
      </trkpt>
      <trkpt lat="40.509886" lon="-0.040285">
        <ele>866.716</ele>
        <time>2018-03-13T15:40:54Z</time>
      </trkpt>
      <trkpt lat="40.509889" lon="-0.040210">
        <ele>865.933</ele>
        <time>2018-03-13T15:40:52Z</time>
      </trkpt>
      <trkpt lat="40.509892" lon="-0.040192">
        <ele>865.670</ele>
        <time>2018-03-13T15:40:52Z</time>
      </trkpt>
      <trkpt lat="40.509896" lon="-0.040061">
        <ele>864.383</ele>
        <time>2018-03-13T15:40:49Z</time>
      </trkpt>
      <trkpt lat="40.509899" lon="-0.039956">
        <ele>862.625</ele>
        <time>2018-03-13T15:40:47Z</time>
      </trkpt>
      <trkpt lat="40.509898" lon="-0.039845">
        <ele>861.417</ele>
        <time>2018-03-13T15:40:44Z</time>
      </trkpt>
      <trkpt lat="40.509900" lon="-0.039710">
        <ele>859.508</ele>
        <time>2018-03-13T15:40:41Z</time>
      </trkpt>
      <trkpt lat="40.509900" lon="-0.039598">
        <ele>858.831</ele>
        <time>2018-03-13T15:40:39Z</time>
      </trkpt>
      <trkpt lat="40.509894" lon="-0.039470">
        <ele>857.458</ele>
        <time>2018-03-13T15:40:36Z</time>
      </trkpt>
      <trkpt lat="40.509825" lon="-0.039194">
        <ele>855.382</ele>
        <time>2018-03-13T15:40:30Z</time>
      </trkpt>
      <trkpt lat="40.509703" lon="-0.039076">
        <ele>854.060</ele>
        <time>2018-03-13T15:40:25Z</time>
      </trkpt>
      <trkpt lat="40.509650" lon="-0.039050">
        <ele>854.558</ele>
        <time>2018-03-13T15:40:24Z</time>
      </trkpt>
      <trkpt lat="40.509611" lon="-0.039037">
        <ele>855.011</ele>
        <time>2018-03-13T15:40:23Z</time>
      </trkpt>
      <trkpt lat="40.509569" lon="-0.038937">
        <ele>853.278</ele>
        <time>2018-03-13T15:40:20Z</time>
      </trkpt>
      <trkpt lat="40.509578" lon="-0.038910">
        <ele>852.725</ele>
        <time>2018-03-13T15:40:19Z</time>
      </trkpt>
      <trkpt lat="40.509665" lon="-0.038788">
        <ele>851.534</ele>
        <time>2018-03-13T15:40:16Z</time>
      </trkpt>
      <trkpt lat="40.509840" lon="-0.038588">
        <ele>849.355</ele>
        <time>2018-03-13T15:40:09Z</time>
      </trkpt>
      <trkpt lat="40.509922" lon="-0.038490">
        <ele>849.910</ele>
        <time>2018-03-13T15:40:06Z</time>
      </trkpt>
      <trkpt lat="40.510010" lon="-0.038361">
        <ele>848.808</ele>
        <time>2018-03-13T15:40:02Z</time>
      </trkpt>
      <trkpt lat="40.510075" lon="-0.038249">
        <ele>847.736</ele>
        <time>2018-03-13T15:39:59Z</time>
      </trkpt>
      <trkpt lat="40.510179" lon="-0.038085">
        <ele>846.593</ele>
        <time>2018-03-13T15:39:54Z</time>
      </trkpt>
      <trkpt lat="40.510237" lon="-0.037990">
        <ele>846.427</ele>
        <time>2018-03-13T15:39:52Z</time>
      </trkpt>
      <trkpt lat="40.510413" lon="-0.037600">
        <ele>842.515</ele>
        <time>2018-03-13T15:39:42Z</time>
      </trkpt>
      <trkpt lat="40.510433" lon="-0.037518">
        <ele>842.293</ele>
        <time>2018-03-13T15:39:40Z</time>
      </trkpt>
      <trkpt lat="40.510479" lon="-0.037275">
        <ele>842.476</ele>
        <time>2018-03-13T15:39:35Z</time>
      </trkpt>
      <trkpt lat="40.510534" lon="-0.037083">
        <ele>841.943</ele>
        <time>2018-03-13T15:39:30Z</time>
      </trkpt>
      <trkpt lat="40.510577" lon="-0.036914">
        <ele>840.880</ele>
        <time>2018-03-13T15:39:26Z</time>
      </trkpt>
      <trkpt lat="40.510610" lon="-0.036757">
        <ele>840.211</ele>
        <time>2018-03-13T15:39:23Z</time>
      </trkpt>
      <trkpt lat="40.510641" lon="-0.036639">
        <ele>839.721</ele>
        <time>2018-03-13T15:39:20Z</time>
      </trkpt>
      <trkpt lat="40.510686" lon="-0.036529">
        <ele>838.903</ele>
        <time>2018-03-13T15:39:17Z</time>
      </trkpt>
      <trkpt lat="40.510710" lon="-0.036475">
        <ele>838.808</ele>
        <time>2018-03-13T15:39:16Z</time>
      </trkpt>
      <trkpt lat="40.510743" lon="-0.036405">
        <ele>837.994</ele>
        <time>2018-03-13T15:39:14Z</time>
      </trkpt>
      <trkpt lat="40.510769" lon="-0.036346">
        <ele>837.071</ele>
        <time>2018-03-13T15:39:13Z</time>
      </trkpt>
      <trkpt lat="40.510830" lon="-0.036214">
        <ele>835.595</ele>
        <time>2018-03-13T15:39:09Z</time>
      </trkpt>
      <trkpt lat="40.510862" lon="-0.036136">
        <ele>835.833</ele>
        <time>2018-03-13T15:39:07Z</time>
      </trkpt>
      <trkpt lat="40.510922" lon="-0.035921">
        <ele>835.951</ele>
        <time>2018-03-13T15:39:02Z</time>
      </trkpt>
      <trkpt lat="40.510946" lon="-0.035719">
        <ele>838.074</ele>
        <time>2018-03-13T15:38:58Z</time>
      </trkpt>
      <trkpt lat="40.510966" lon="-0.035610">
        <ele>837.311</ele>
        <time>2018-03-13T15:38:56Z</time>
      </trkpt>
      <trkpt lat="40.510972" lon="-0.035566">
        <ele>837.198</ele>
        <time>2018-03-13T15:38:55Z</time>
      </trkpt>
      <trkpt lat="40.511010" lon="-0.035489">
        <ele>835.096</ele>
        <time>2018-03-13T15:38:53Z</time>
      </trkpt>
      <trkpt lat="40.511063" lon="-0.035418">
        <ele>833.431</ele>
        <time>2018-03-13T15:38:50Z</time>
      </trkpt>
      <trkpt lat="40.511122" lon="-0.035343">
        <ele>832.924</ele>
        <time>2018-03-13T15:38:48Z</time>
      </trkpt>
      <trkpt lat="40.511164" lon="-0.035301">
        <ele>833.108</ele>
        <time>2018-03-13T15:38:47Z</time>
      </trkpt>
      <trkpt lat="40.511239" lon="-0.035235">
        <ele>831.542</ele>
        <time>2018-03-13T15:38:44Z</time>
      </trkpt>
      <trkpt lat="40.511278" lon="-0.035202">
        <ele>830.229</ele>
        <time>2018-03-13T15:38:43Z</time>
      </trkpt>
      <trkpt lat="40.511289" lon="-0.035190">
        <ele>830.153</ele>
        <time>2018-03-13T15:38:42Z</time>
      </trkpt>
      <trkpt lat="40.511338" lon="-0.035135">
        <ele>828.891</ele>
        <time>2018-03-13T15:38:40Z</time>
      </trkpt>
      <trkpt lat="40.511359" lon="-0.035113">
        <ele>828.549</ele>
        <time>2018-03-13T15:38:39Z</time>
      </trkpt>
      <trkpt lat="40.511425" lon="-0.035064">
        <ele>827.322</ele>
        <time>2018-03-13T15:38:37Z</time>
      </trkpt>
      <trkpt lat="40.511477" lon="-0.035042">
        <ele>825.929</ele>
        <time>2018-03-13T15:38:36Z</time>
      </trkpt>
      <trkpt lat="40.511513" lon="-0.035025">
        <ele>824.856</ele>
        <time>2018-03-13T15:38:35Z</time>
      </trkpt>
      <trkpt lat="40.511605" lon="-0.034964">
        <ele>823.726</ele>
        <time>2018-03-13T15:38:32Z</time>
      </trkpt>
      <trkpt lat="40.511643" lon="-0.034946">
        <ele>823.547</ele>
        <time>2018-03-13T15:38:30Z</time>
      </trkpt>
      <trkpt lat="40.511680" lon="-0.034918">
        <ele>823.411</ele>
        <time>2018-03-13T15:38:29Z</time>
      </trkpt>
      <trkpt lat="40.511720" lon="-0.034884">
        <ele>822.008</ele>
        <time>2018-03-13T15:38:28Z</time>
      </trkpt>
      <trkpt lat="40.511754" lon="-0.034842">
        <ele>820.875</ele>
        <time>2018-03-13T15:38:26Z</time>
      </trkpt>
      <trkpt lat="40.511777" lon="-0.034799">
        <ele>820.462</ele>
        <time>2018-03-13T15:38:25Z</time>
      </trkpt>
      <trkpt lat="40.511790" lon="-0.034748">
        <ele>820.156</ele>
        <time>2018-03-13T15:38:24Z</time>
      </trkpt>
      <trkpt lat="40.511817" lon="-0.034676">
        <ele>819.824</ele>
        <time>2018-03-13T15:38:22Z</time>
      </trkpt>
      <trkpt lat="40.511834" lon="-0.034635">
        <ele>819.662</ele>
        <time>2018-03-13T15:38:21Z</time>
      </trkpt>
      <trkpt lat="40.511899" lon="-0.034486">
        <ele>820.765</ele>
        <time>2018-03-13T15:38:18Z</time>
      </trkpt>
      <trkpt lat="40.511954" lon="-0.034290">
        <ele>824.652</ele>
        <time>2018-03-13T15:38:13Z</time>
      </trkpt>
      <trkpt lat="40.511966" lon="-0.034102">
        <ele>827.389</ele>
        <time>2018-03-13T15:38:09Z</time>
      </trkpt>
      <trkpt lat="40.511931" lon="-0.034005">
        <ele>825.978</ele>
        <time>2018-03-13T15:38:07Z</time>
      </trkpt>
      <trkpt lat="40.511869" lon="-0.033897">
        <ele>824.633</ele>
        <time>2018-03-13T15:38:04Z</time>
      </trkpt>
      <trkpt lat="40.511802" lon="-0.033763">
        <ele>825.926</ele>
        <time>2018-03-13T15:38:00Z</time>
      </trkpt>
      <trkpt lat="40.511749" lon="-0.033618">
        <ele>826.108</ele>
        <time>2018-03-13T15:37:57Z</time>
      </trkpt>
      <trkpt lat="40.511675" lon="-0.033309">
        <ele>826.810</ele>
        <time>2018-03-13T15:37:50Z</time>
      </trkpt>
      <trkpt lat="40.511635" lon="-0.033076">
        <ele>827.227</ele>
        <time>2018-03-13T15:37:44Z</time>
      </trkpt>
      <trkpt lat="40.511641" lon="-0.032694">
        <ele>828.731</ele>
        <time>2018-03-13T15:37:36Z</time>
      </trkpt>
      <trkpt lat="40.511702" lon="-0.032343">
        <ele>829.539</ele>
        <time>2018-03-13T15:37:28Z</time>
      </trkpt>
      <trkpt lat="40.511715" lon="-0.032235">
        <ele>829.387</ele>
        <time>2018-03-13T15:37:26Z</time>
      </trkpt>
      <trkpt lat="40.511805" lon="-0.031535">
        <ele>829.550</ele>
        <time>2018-03-13T15:37:11Z</time>
      </trkpt>
      <trkpt lat="40.511833" lon="-0.031333">
        <ele>829.257</ele>
        <time>2018-03-13T15:37:06Z</time>
      </trkpt>
      <trkpt lat="40.511878" lon="-0.030992">
        <ele>828.754</ele>
        <time>2018-03-13T15:36:59Z</time>
      </trkpt>
      <trkpt lat="40.511885" lon="-0.030940">
        <ele>828.839</ele>
        <time>2018-03-13T15:36:57Z</time>
      </trkpt>
      <trkpt lat="40.511920" lon="-0.030691">
        <ele>828.801</ele>
        <time>2018-03-13T15:36:52Z</time>
      </trkpt>
      <trkpt lat="40.511941" lon="-0.030536">
        <ele>829.321</ele>
        <time>2018-03-13T15:36:49Z</time>
      </trkpt>
      <trkpt lat="40.511978" lon="-0.030387">
        <ele>831.108</ele>
        <time>2018-03-13T15:36:45Z</time>
      </trkpt>
      <trkpt lat="40.512038" lon="-0.030093">
        <ele>830.096</ele>
        <time>2018-03-13T15:36:39Z</time>
      </trkpt>
      <trkpt lat="40.512062" lon="-0.029623">
        <ele>828.593</ele>
        <time>2018-03-13T15:36:28Z</time>
      </trkpt>
      <trkpt lat="40.512060" lon="-0.029515">
        <ele>828.967</ele>
        <time>2018-03-13T15:36:26Z</time>
      </trkpt>
      <trkpt lat="40.512079" lon="-0.029410">
        <ele>828.395</ele>
        <time>2018-03-13T15:36:24Z</time>
      </trkpt>
      <trkpt lat="40.512085" lon="-0.029380">
        <ele>827.983</ele>
        <time>2018-03-13T15:36:23Z</time>
      </trkpt>
      <trkpt lat="40.512110" lon="-0.029297">
        <ele>827.126</ele>
        <time>2018-03-13T15:36:21Z</time>
      </trkpt>
      <trkpt lat="40.512126" lon="-0.029251">
        <ele>827.043</ele>
        <time>2018-03-13T15:36:20Z</time>
      </trkpt>
      <trkpt lat="40.512160" lon="-0.029189">
        <ele>825.770</ele>
        <time>2018-03-13T15:36:18Z</time>
      </trkpt>
      <trkpt lat="40.512224" lon="-0.029139">
        <ele>824.658</ele>
        <time>2018-03-13T15:36:16Z</time>
      </trkpt>
      <trkpt lat="40.512281" lon="-0.029110">
        <ele>823.352</ele>
        <time>2018-03-13T15:36:14Z</time>
      </trkpt>
      <trkpt lat="40.512425" lon="-0.029069">
        <ele>823.017</ele>
        <time>2018-03-13T15:36:10Z</time>
      </trkpt>
      <trkpt lat="40.512576" lon="-0.029044">
        <ele>822.608</ele>
        <time>2018-03-13T15:36:06Z</time>
      </trkpt>
      <trkpt lat="40.512707" lon="-0.028996">
        <ele>822.168</ele>
        <time>2018-03-13T15:36:02Z</time>
      </trkpt>
      <trkpt lat="40.512729" lon="-0.028959">
        <ele>822.845</ele>
        <time>2018-03-13T15:36:01Z</time>
      </trkpt>
      <trkpt lat="40.512755" lon="-0.028843">
        <ele>824.569</ele>
        <time>2018-03-13T15:35:58Z</time>
      </trkpt>
      <trkpt lat="40.512770" lon="-0.028712">
        <ele>826.287</ele>
        <time>2018-03-13T15:35:55Z</time>
      </trkpt>
      <trkpt lat="40.512704" lon="-0.028475">
        <ele>827.115</ele>
        <time>2018-03-13T15:35:50Z</time>
      </trkpt>
      <trkpt lat="40.512526" lon="-0.028404">
        <ele>823.438</ele>
        <time>2018-03-13T15:35:44Z</time>
      </trkpt>
      <trkpt lat="40.512389" lon="-0.028239">
        <ele>825.395</ele>
        <time>2018-03-13T15:35:39Z</time>
      </trkpt>
      <trkpt lat="40.512077" lon="-0.027596">
        <ele>826.772</ele>
        <time>2018-03-13T15:35:23Z</time>
      </trkpt>
      <trkpt lat="40.512044" lon="-0.027525">
        <ele>827.212</ele>
        <time>2018-03-13T15:35:21Z</time>
      </trkpt>
      <trkpt lat="40.512010" lon="-0.027449">
        <ele>827.432</ele>
        <time>2018-03-13T15:35:19Z</time>
      </trkpt>
      <trkpt lat="40.511884" lon="-0.027188">
        <ele>824.905</ele>
        <time>2018-03-13T15:35:12Z</time>
      </trkpt>
      <trkpt lat="40.511815" lon="-0.026999">
        <ele>824.608</ele>
        <time>2018-03-13T15:35:08Z</time>
      </trkpt>
      <trkpt lat="40.511777" lon="-0.026780">
        <ele>826.244</ele>
        <time>2018-03-13T15:35:03Z</time>
      </trkpt>
      <trkpt lat="40.511742" lon="-0.026593">
        <ele>827.171</ele>
        <time>2018-03-13T15:34:58Z</time>
      </trkpt>
      <trkpt lat="40.511690" lon="-0.026430">
        <ele>826.525</ele>
        <time>2018-03-13T15:34:55Z</time>
      </trkpt>
      <trkpt lat="40.511638" lon="-0.026247">
        <ele>825.373</ele>
        <time>2018-03-13T15:34:50Z</time>
      </trkpt>
      <trkpt lat="40.511598" lon="-0.026120">
        <ele>823.721</ele>
        <time>2018-03-13T15:34:47Z</time>
      </trkpt>
      <trkpt lat="40.511533" lon="-0.025935">
        <ele>822.574</ele>
        <time>2018-03-13T15:34:43Z</time>
      </trkpt>
      <trkpt lat="40.511479" lon="-0.025726">
        <ele>821.191</ele>
        <time>2018-03-13T15:34:38Z</time>
      </trkpt>
      <trkpt lat="40.511466" lon="-0.025670">
        <ele>820.788</ele>
        <time>2018-03-13T15:34:37Z</time>
      </trkpt>
      <trkpt lat="40.511376" lon="-0.025471">
        <ele>819.834</ele>
        <time>2018-03-13T15:34:32Z</time>
      </trkpt>
      <trkpt lat="40.511296" lon="-0.025280">
        <ele>818.555</ele>
        <time>2018-03-13T15:34:27Z</time>
      </trkpt>
      <trkpt lat="40.511256" lon="-0.025175">
        <ele>818.610</ele>
        <time>2018-03-13T15:34:25Z</time>
      </trkpt>
      <trkpt lat="40.511246" lon="-0.025148">
        <ele>818.208</ele>
        <time>2018-03-13T15:34:24Z</time>
      </trkpt>
      <trkpt lat="40.511210" lon="-0.025032">
        <ele>816.286</ele>
        <time>2018-03-13T15:34:21Z</time>
      </trkpt>
      <trkpt lat="40.511224" lon="-0.024739">
        <ele>813.353</ele>
        <time>2018-03-13T15:34:15Z</time>
      </trkpt>
      <trkpt lat="40.511238" lon="-0.024678">
        <ele>812.837</ele>
        <time>2018-03-13T15:34:13Z</time>
      </trkpt>
      <trkpt lat="40.511244" lon="-0.024611">
        <ele>812.685</ele>
        <time>2018-03-13T15:34:12Z</time>
      </trkpt>
      <trkpt lat="40.511098" lon="-0.024429">
        <ele>814.033</ele>
        <time>2018-03-13T15:34:06Z</time>
      </trkpt>
      <trkpt lat="40.510967" lon="-0.024366">
        <ele>812.796</ele>
        <time>2018-03-13T15:34:02Z</time>
      </trkpt>
      <trkpt lat="40.510881" lon="-0.024311">
        <ele>813.043</ele>
        <time>2018-03-13T15:33:59Z</time>
      </trkpt>
      <trkpt lat="40.510837" lon="-0.024282">
        <ele>813.340</ele>
        <time>2018-03-13T15:33:58Z</time>
      </trkpt>
      <trkpt lat="40.510815" lon="-0.024270">
        <ele>813.111</ele>
        <time>2018-03-13T15:33:57Z</time>
      </trkpt>
      <trkpt lat="40.510706" lon="-0.024201">
        <ele>812.421</ele>
        <time>2018-03-13T15:33:54Z</time>
      </trkpt>
      <trkpt lat="40.510550" lon="-0.024117">
        <ele>812.703</ele>
        <time>2018-03-13T15:33:49Z</time>
      </trkpt>
      <trkpt lat="40.510355" lon="-0.024050">
        <ele>812.208</ele>
        <time>2018-03-13T15:33:43Z</time>
      </trkpt>
      <trkpt lat="40.510219" lon="-0.024005">
        <ele>811.054</ele>
        <time>2018-03-13T15:33:39Z</time>
      </trkpt>
      <trkpt lat="40.510148" lon="-0.023983">
        <ele>810.921</ele>
        <time>2018-03-13T15:33:37Z</time>
      </trkpt>
      <trkpt lat="40.510020" lon="-0.023949">
        <ele>809.855</ele>
        <time>2018-03-13T15:33:34Z</time>
      </trkpt>
      <trkpt lat="40.509853" lon="-0.023896">
        <ele>807.793</ele>
        <time>2018-03-13T15:33:29Z</time>
      </trkpt>
      <trkpt lat="40.509734" lon="-0.023829">
        <ele>806.181</ele>
        <time>2018-03-13T15:33:25Z</time>
      </trkpt>
      <trkpt lat="40.509634" lon="-0.023764">
        <ele>805.274</ele>
        <time>2018-03-13T15:33:22Z</time>
      </trkpt>
      <trkpt lat="40.509515" lon="-0.023677">
        <ele>803.731</ele>
        <time>2018-03-13T15:33:18Z</time>
      </trkpt>
      <trkpt lat="40.509444" lon="-0.023614">
        <ele>803.068</ele>
        <time>2018-03-13T15:33:15Z</time>
      </trkpt>
      <trkpt lat="40.509373" lon="-0.023541">
        <ele>802.862</ele>
        <time>2018-03-13T15:33:13Z</time>
      </trkpt>
      <trkpt lat="40.509296" lon="-0.023470">
        <ele>801.883</ele>
        <time>2018-03-13T15:33:10Z</time>
      </trkpt>
      <trkpt lat="40.509162" lon="-0.023339">
        <ele>800.711</ele>
        <time>2018-03-13T15:33:05Z</time>
      </trkpt>
      <trkpt lat="40.509132" lon="-0.023304">
        <ele>800.708</ele>
        <time>2018-03-13T15:33:04Z</time>
      </trkpt>
      <trkpt lat="40.509041" lon="-0.023188">
        <ele>798.989</ele>
        <time>2018-03-13T15:33:01Z</time>
      </trkpt>
      <trkpt lat="40.508950" lon="-0.023088">
        <ele>798.616</ele>
        <time>2018-03-13T15:32:57Z</time>
      </trkpt>
      <trkpt lat="40.508839" lon="-0.022986">
        <ele>797.370</ele>
        <time>2018-03-13T15:32:53Z</time>
      </trkpt>
      <trkpt lat="40.508747" lon="-0.022880">
        <ele>796.148</ele>
        <time>2018-03-13T15:32:50Z</time>
      </trkpt>
      <trkpt lat="40.508635" lon="-0.022772">
        <ele>794.796</ele>
        <time>2018-03-13T15:32:46Z</time>
      </trkpt>
      <trkpt lat="40.508530" lon="-0.022684">
        <ele>793.189</ele>
        <time>2018-03-13T15:32:42Z</time>
      </trkpt>
      <trkpt lat="40.508409" lon="-0.022576">
        <ele>792.946</ele>
        <time>2018-03-13T15:32:38Z</time>
      </trkpt>
      <trkpt lat="40.508262" lon="-0.022464">
        <ele>791.863</ele>
        <time>2018-03-13T15:32:33Z</time>
      </trkpt>
      <trkpt lat="40.508100" lon="-0.022328">
        <ele>790.113</ele>
        <time>2018-03-13T15:32:28Z</time>
      </trkpt>
      <trkpt lat="40.507926" lon="-0.022190">
        <ele>789.243</ele>
        <time>2018-03-13T15:32:22Z</time>
      </trkpt>
      <trkpt lat="40.507807" lon="-0.022091">
        <ele>787.907</ele>
        <time>2018-03-13T15:32:18Z</time>
      </trkpt>
      <trkpt lat="40.507503" lon="-0.021825">
        <ele>786.008</ele>
        <time>2018-03-13T15:32:07Z</time>
      </trkpt>
      <trkpt lat="40.507396" lon="-0.021663">
        <ele>785.124</ele>
        <time>2018-03-13T15:32:03Z</time>
      </trkpt>
      <trkpt lat="40.507243" lon="-0.021426">
        <ele>784.691</ele>
        <time>2018-03-13T15:31:56Z</time>
      </trkpt>
      <trkpt lat="40.507200" lon="-0.021324">
        <ele>783.795</ele>
        <time>2018-03-13T15:31:54Z</time>
      </trkpt>
      <trkpt lat="40.507145" lon="-0.021143">
        <ele>782.033</ele>
        <time>2018-03-13T15:31:49Z</time>
      </trkpt>
      <trkpt lat="40.507084" lon="-0.020898">
        <ele>781.071</ele>
        <time>2018-03-13T15:31:44Z</time>
      </trkpt>
      <trkpt lat="40.507040" lon="-0.020759">
        <ele>780.174</ele>
        <time>2018-03-13T15:31:40Z</time>
      </trkpt>
      <trkpt lat="40.507014" lon="-0.020647">
        <ele>779.751</ele>
        <time>2018-03-13T15:31:38Z</time>
      </trkpt>
      <trkpt lat="40.507000" lon="-0.020476">
        <ele>779.118</ele>
        <time>2018-03-13T15:31:34Z</time>
      </trkpt>
      <trkpt lat="40.506986" lon="-0.020309">
        <ele>778.135</ele>
        <time>2018-03-13T15:31:30Z</time>
      </trkpt>
      <trkpt lat="40.506976" lon="-0.020069">
        <ele>777.086</ele>
        <time>2018-03-13T15:31:25Z</time>
      </trkpt>
      <trkpt lat="40.506968" lon="-0.020016">
        <ele>776.914</ele>
        <time>2018-03-13T15:31:24Z</time>
      </trkpt>
      <trkpt lat="40.506961" lon="-0.019989">
        <ele>776.808</ele>
        <time>2018-03-13T15:31:23Z</time>
      </trkpt>
      <trkpt lat="40.506953" lon="-0.019959">
        <ele>776.626</ele>
        <time>2018-03-13T15:31:23Z</time>
      </trkpt>
      <trkpt lat="40.506924" lon="-0.019677">
        <ele>775.163</ele>
        <time>2018-03-13T15:31:17Z</time>
      </trkpt>
      <trkpt lat="40.506943" lon="-0.019607">
        <ele>775.067</ele>
        <time>2018-03-13T15:31:15Z</time>
      </trkpt>
      <trkpt lat="40.506968" lon="-0.019526">
        <ele>775.095</ele>
        <time>2018-03-13T15:31:13Z</time>
      </trkpt>
      <trkpt lat="40.507002" lon="-0.019411">
        <ele>775.053</ele>
        <time>2018-03-13T15:31:10Z</time>
      </trkpt>
      <trkpt lat="40.507053" lon="-0.019247">
        <ele>774.186</ele>
        <time>2018-03-13T15:31:07Z</time>
      </trkpt>
      <trkpt lat="40.507069" lon="-0.019027">
        <ele>773.223</ele>
        <time>2018-03-13T15:31:02Z</time>
      </trkpt>
      <trkpt lat="40.507076" lon="-0.018722">
        <ele>772.040</ele>
        <time>2018-03-13T15:30:55Z</time>
      </trkpt>
      <trkpt lat="40.507097" lon="-0.018573">
        <ele>771.026</ele>
        <time>2018-03-13T15:30:52Z</time>
      </trkpt>
      <trkpt lat="40.507110" lon="-0.018473">
        <ele>769.947</ele>
        <time>2018-03-13T15:30:50Z</time>
      </trkpt>
      <trkpt lat="40.507158" lon="-0.018342">
        <ele>768.211</ele>
        <time>2018-03-13T15:30:46Z</time>
      </trkpt>
      <trkpt lat="40.507201" lon="-0.018272">
        <ele>767.108</ele>
        <time>2018-03-13T15:30:44Z</time>
      </trkpt>
      <trkpt lat="40.507246" lon="-0.018206">
        <ele>767.025</ele>
        <time>2018-03-13T15:30:43Z</time>
      </trkpt>
      <trkpt lat="40.507265" lon="-0.018175">
        <ele>766.762</ele>
        <time>2018-03-13T15:30:42Z</time>
      </trkpt>
      <trkpt lat="40.507301" lon="-0.018131">
        <ele>765.716</ele>
        <time>2018-03-13T15:30:40Z</time>
      </trkpt>
      <trkpt lat="40.507353" lon="-0.018079">
        <ele>765.024</ele>
        <time>2018-03-13T15:30:38Z</time>
      </trkpt>
      <trkpt lat="40.507411" lon="-0.018061">
        <ele>764.722</ele>
        <time>2018-03-13T15:30:37Z</time>
      </trkpt>
      <trkpt lat="40.507462" lon="-0.018055">
        <ele>763.855</ele>
        <time>2018-03-13T15:30:35Z</time>
      </trkpt>
      <trkpt lat="40.507516" lon="-0.018058">
        <ele>763.082</ele>
        <time>2018-03-13T15:30:34Z</time>
      </trkpt>
      <trkpt lat="40.507668" lon="-0.018083">
        <ele>761.919</ele>
        <time>2018-03-13T15:30:29Z</time>
      </trkpt>
      <trkpt lat="40.507732" lon="-0.018083">
        <ele>761.742</ele>
        <time>2018-03-13T15:30:27Z</time>
      </trkpt>
      <trkpt lat="40.507794" lon="-0.018083">
        <ele>761.722</ele>
        <time>2018-03-13T15:30:26Z</time>
      </trkpt>
      <trkpt lat="40.507895" lon="-0.018090">
        <ele>761.014</ele>
        <time>2018-03-13T15:30:23Z</time>
      </trkpt>
      <trkpt lat="40.507976" lon="-0.018097">
        <ele>761.008</ele>
        <time>2018-03-13T15:30:21Z</time>
      </trkpt>
      <trkpt lat="40.508159" lon="-0.018106">
        <ele>760.237</ele>
        <time>2018-03-13T15:30:15Z</time>
      </trkpt>
      <trkpt lat="40.508244" lon="-0.018095">
        <ele>760.084</ele>
        <time>2018-03-13T15:30:13Z</time>
      </trkpt>
      <trkpt lat="40.508346" lon="-0.018056">
        <ele>758.868</ele>
        <time>2018-03-13T15:30:10Z</time>
      </trkpt>
      <trkpt lat="40.508429" lon="-0.018015">
        <ele>756.626</ele>
        <time>2018-03-13T15:30:07Z</time>
      </trkpt>
      <trkpt lat="40.508445" lon="-0.018003">
        <ele>756.124</ele>
        <time>2018-03-13T15:30:07Z</time>
      </trkpt>
      <trkpt lat="40.508504" lon="-0.017958">
        <ele>756.057</ele>
        <time>2018-03-13T15:30:05Z</time>
      </trkpt>
      <trkpt lat="40.508592" lon="-0.017888">
        <ele>754.984</ele>
        <time>2018-03-13T15:30:02Z</time>
      </trkpt>
      <trkpt lat="40.508628" lon="-0.017867">
        <ele>754.571</ele>
        <time>2018-03-13T15:30:01Z</time>
      </trkpt>
      <trkpt lat="40.508682" lon="-0.017831">
        <ele>753.813</ele>
        <time>2018-03-13T15:29:59Z</time>
      </trkpt>
      <trkpt lat="40.508761" lon="-0.017779">
        <ele>752.643</ele>
        <time>2018-03-13T15:29:56Z</time>
      </trkpt>
      <trkpt lat="40.508803" lon="-0.017748">
        <ele>752.107</ele>
        <time>2018-03-13T15:29:55Z</time>
      </trkpt>
      <trkpt lat="40.508848" lon="-0.017713">
        <ele>752.708</ele>
        <time>2018-03-13T15:29:53Z</time>
      </trkpt>
      <trkpt lat="40.508867" lon="-0.017699">
        <ele>752.314</ele>
        <time>2018-03-13T15:29:53Z</time>
      </trkpt>
      <trkpt lat="40.509047" lon="-0.017569">
        <ele>750.031</ele>
        <time>2018-03-13T15:29:47Z</time>
      </trkpt>
      <trkpt lat="40.509099" lon="-0.017533">
        <ele>750.135</ele>
        <time>2018-03-13T15:29:45Z</time>
      </trkpt>
      <trkpt lat="40.509247" lon="-0.017463">
        <ele>749.753</ele>
        <time>2018-03-13T15:29:41Z</time>
      </trkpt>
      <trkpt lat="40.509382" lon="-0.017430">
        <ele>749.021</ele>
        <time>2018-03-13T15:29:37Z</time>
      </trkpt>
      <trkpt lat="40.509490" lon="-0.017409">
        <ele>748.624</ele>
        <time>2018-03-13T15:29:34Z</time>
      </trkpt>
      <trkpt lat="40.509760" lon="-0.017341">
        <ele>748.191</ele>
        <time>2018-03-13T15:29:26Z</time>
      </trkpt>
      <trkpt lat="40.509842" lon="-0.017289">
        <ele>748.028</ele>
        <time>2018-03-13T15:29:23Z</time>
      </trkpt>
      <trkpt lat="40.509980" lon="-0.017158">
        <ele>747.027</ele>
        <time>2018-03-13T15:29:18Z</time>
      </trkpt>
      <trkpt lat="40.510033" lon="-0.017117">
        <ele>747.668</ele>
        <time>2018-03-13T15:29:17Z</time>
      </trkpt>
      <trkpt lat="40.510087" lon="-0.017083">
        <ele>747.114</ele>
        <time>2018-03-13T15:29:15Z</time>
      </trkpt>
      <trkpt lat="40.510217" lon="-0.016965">
        <ele>748.008</ele>
        <time>2018-03-13T15:29:11Z</time>
      </trkpt>
      <trkpt lat="40.510286" lon="-0.016832">
        <ele>748.785</ele>
        <time>2018-03-13T15:29:07Z</time>
      </trkpt>
      <trkpt lat="40.510323" lon="-0.016713">
        <ele>750.022</ele>
        <time>2018-03-13T15:29:04Z</time>
      </trkpt>
      <trkpt lat="40.510341" lon="-0.016635">
        <ele>750.036</ele>
        <time>2018-03-13T15:29:02Z</time>
      </trkpt>
      <trkpt lat="40.510347" lon="-0.016592">
        <ele>750.034</ele>
        <time>2018-03-13T15:29:01Z</time>
      </trkpt>
      <trkpt lat="40.510399" lon="-0.016260">
        <ele>750.062</ele>
        <time>2018-03-13T15:28:54Z</time>
      </trkpt>
      <trkpt lat="40.510367" lon="-0.015993">
        <ele>750.085</ele>
        <time>2018-03-13T15:28:48Z</time>
      </trkpt>
      <trkpt lat="40.510376" lon="-0.015830">
        <ele>748.482</ele>
        <time>2018-03-13T15:28:45Z</time>
      </trkpt>
      <trkpt lat="40.510387" lon="-0.015720">
        <ele>747.939</ele>
        <time>2018-03-13T15:28:42Z</time>
      </trkpt>
      <trkpt lat="40.510399" lon="-0.015639">
        <ele>745.877</ele>
        <time>2018-03-13T15:28:40Z</time>
      </trkpt>
      <trkpt lat="40.510400" lon="-0.015611">
        <ele>745.261</ele>
        <time>2018-03-13T15:28:40Z</time>
      </trkpt>
      <trkpt lat="40.510399" lon="-0.015530">
        <ele>744.527</ele>
        <time>2018-03-13T15:28:38Z</time>
      </trkpt>
      <trkpt lat="40.510396" lon="-0.015490">
        <ele>743.908</ele>
        <time>2018-03-13T15:28:37Z</time>
      </trkpt>
      <trkpt lat="40.510380" lon="-0.015302">
        <ele>743.130</ele>
        <time>2018-03-13T15:28:33Z</time>
      </trkpt>
      <trkpt lat="40.510376" lon="-0.015212">
        <ele>742.447</ele>
        <time>2018-03-13T15:28:31Z</time>
      </trkpt>
      <trkpt lat="40.510359" lon="-0.015057">
        <ele>742.471</ele>
        <time>2018-03-13T15:28:28Z</time>
      </trkpt>
      <trkpt lat="40.510276" lon="-0.014859">
        <ele>743.459</ele>
        <time>2018-03-13T15:28:23Z</time>
      </trkpt>
      <trkpt lat="40.510122" lon="-0.014536">
        <ele>740.597</ele>
        <time>2018-03-13T15:28:14Z</time>
      </trkpt>
      <trkpt lat="40.510087" lon="-0.014426">
        <ele>740.180</ele>
        <time>2018-03-13T15:28:12Z</time>
      </trkpt>
      <trkpt lat="40.510062" lon="-0.014290">
        <ele>739.547</ele>
        <time>2018-03-13T15:28:09Z</time>
      </trkpt>
      <trkpt lat="40.510064" lon="-0.014209">
        <ele>739.584</ele>
        <time>2018-03-13T15:28:07Z</time>
      </trkpt>
      <trkpt lat="40.510087" lon="-0.013790">
        <ele>739.933</ele>
        <time>2018-03-13T15:27:58Z</time>
      </trkpt>
      <trkpt lat="40.510105" lon="-0.013651">
        <ele>740.323</ele>
        <time>2018-03-13T15:27:55Z</time>
      </trkpt>
      <trkpt lat="40.510173" lon="-0.013468">
        <ele>740.815</ele>
        <time>2018-03-13T15:27:51Z</time>
      </trkpt>
      <trkpt lat="40.510227" lon="-0.013304">
        <ele>742.408</ele>
        <time>2018-03-13T15:27:47Z</time>
      </trkpt>
      <trkpt lat="40.510233" lon="-0.013197">
        <ele>743.796</ele>
        <time>2018-03-13T15:27:44Z</time>
      </trkpt>
      <trkpt lat="40.510258" lon="-0.012856">
        <ele>744.263</ele>
        <time>2018-03-13T15:27:37Z</time>
      </trkpt>
      <trkpt lat="40.510266" lon="-0.012639">
        <ele>744.097</ele>
        <time>2018-03-13T15:27:32Z</time>
      </trkpt>
      <trkpt lat="40.510290" lon="-0.012124">
        <ele>743.695</ele>
        <time>2018-03-13T15:27:21Z</time>
      </trkpt>
      <trkpt lat="40.510335" lon="-0.011818">
        <ele>743.033</ele>
        <time>2018-03-13T15:27:14Z</time>
      </trkpt>
      <trkpt lat="40.510410" lon="-0.011107">
        <ele>742.236</ele>
        <time>2018-03-13T15:26:59Z</time>
      </trkpt>
      <trkpt lat="40.510432" lon="-0.010927">
        <ele>741.753</ele>
        <time>2018-03-13T15:26:55Z</time>
      </trkpt>
      <trkpt lat="40.510459" lon="-0.010646">
        <ele>741.390</ele>
        <time>2018-03-13T15:26:49Z</time>
      </trkpt>
      <trkpt lat="40.510465" lon="-0.010549">
        <ele>741.748</ele>
        <time>2018-03-13T15:26:46Z</time>
      </trkpt>
      <trkpt lat="40.510481" lon="-0.010361">
        <ele>741.661</ele>
        <time>2018-03-13T15:26:42Z</time>
      </trkpt>
      <trkpt lat="40.510494" lon="-0.010273">
        <ele>741.717</ele>
        <time>2018-03-13T15:26:40Z</time>
      </trkpt>
      <trkpt lat="40.510508" lon="-0.010187">
        <ele>741.108</ele>
        <time>2018-03-13T15:26:38Z</time>
      </trkpt>
      <trkpt lat="40.510571" lon="-0.009844">
        <ele>740.457</ele>
        <time>2018-03-13T15:26:31Z</time>
      </trkpt>
      <trkpt lat="40.510596" lon="-0.009677">
        <ele>741.324</ele>
        <time>2018-03-13T15:26:27Z</time>
      </trkpt>
      <trkpt lat="40.510651" lon="-0.009462">
        <ele>741.018</ele>
        <time>2018-03-13T15:26:22Z</time>
      </trkpt>
      <trkpt lat="40.510712" lon="-0.009276">
        <ele>740.976</ele>
        <time>2018-03-13T15:26:18Z</time>
      </trkpt>
      <trkpt lat="40.510754" lon="-0.009160">
        <ele>740.384</ele>
        <time>2018-03-13T15:26:15Z</time>
      </trkpt>
      <trkpt lat="40.510776" lon="-0.009090">
        <ele>739.137</ele>
        <time>2018-03-13T15:26:13Z</time>
      </trkpt>
      <trkpt lat="40.510835" lon="-0.008891">
        <ele>737.794</ele>
        <time>2018-03-13T15:26:09Z</time>
      </trkpt>
      <trkpt lat="40.510884" lon="-0.008735">
        <ele>737.271</ele>
        <time>2018-03-13T15:26:05Z</time>
      </trkpt>
      <trkpt lat="40.510923" lon="-0.008611">
        <ele>736.814</ele>
        <time>2018-03-13T15:26:02Z</time>
      </trkpt>
      <trkpt lat="40.510987" lon="-0.008419">
        <ele>735.654</ele>
        <time>2018-03-13T15:25:58Z</time>
      </trkpt>
      <trkpt lat="40.511046" lon="-0.008190">
        <ele>733.609</ele>
        <time>2018-03-13T15:25:52Z</time>
      </trkpt>
      <trkpt lat="40.511086" lon="-0.008002">
        <ele>731.208</ele>
        <time>2018-03-13T15:25:48Z</time>
      </trkpt>
      <trkpt lat="40.511086" lon="-0.007871">
        <ele>731.234</ele>
        <time>2018-03-13T15:25:45Z</time>
      </trkpt>
      <trkpt lat="40.511071" lon="-0.007742">
        <ele>730.591</ele>
        <time>2018-03-13T15:25:42Z</time>
      </trkpt>
      <trkpt lat="40.511070" lon="-0.007716">
        <ele>730.095</ele>
        <time>2018-03-13T15:25:42Z</time>
      </trkpt>
      <trkpt lat="40.511060" lon="-0.007597">
        <ele>728.663</ele>
        <time>2018-03-13T15:25:39Z</time>
      </trkpt>
      <trkpt lat="40.511062" lon="-0.007499">
        <ele>727.721</ele>
        <time>2018-03-13T15:25:37Z</time>
      </trkpt>
      <trkpt lat="40.511064" lon="-0.007421">
        <ele>726.054</ele>
        <time>2018-03-13T15:25:35Z</time>
      </trkpt>
      <trkpt lat="40.511064" lon="-0.007394">
        <ele>726.041</ele>
        <time>2018-03-13T15:25:35Z</time>
      </trkpt>
      <trkpt lat="40.511057" lon="-0.007284">
        <ele>725.338</ele>
        <time>2018-03-13T15:25:32Z</time>
      </trkpt>
      <trkpt lat="40.511056" lon="-0.007196">
        <ele>724.619</ele>
        <time>2018-03-13T15:25:30Z</time>
      </trkpt>
      <trkpt lat="40.511044" lon="-0.006870">
        <ele>723.009</ele>
        <time>2018-03-13T15:25:23Z</time>
      </trkpt>
      <trkpt lat="40.511000" lon="-0.006392">
        <ele>722.719</ele>
        <time>2018-03-13T15:25:13Z</time>
      </trkpt>
      <trkpt lat="40.510943" lon="-0.006151">
        <ele>721.508</ele>
        <time>2018-03-13T15:25:07Z</time>
      </trkpt>
      <trkpt lat="40.510904" lon="-0.006016">
        <ele>721.874</ele>
        <time>2018-03-13T15:25:04Z</time>
      </trkpt>
      <trkpt lat="40.510735" lon="-0.005623">
        <ele>720.021</ele>
        <time>2018-03-13T15:24:54Z</time>
      </trkpt>
      <trkpt lat="40.510632" lon="-0.005410">
        <ele>720.825</ele>
        <time>2018-03-13T15:24:49Z</time>
      </trkpt>
      <trkpt lat="40.510589" lon="-0.005284">
        <ele>721.563</ele>
        <time>2018-03-13T15:24:46Z</time>
      </trkpt>
      <trkpt lat="40.510574" lon="-0.005012">
        <ele>720.471</ele>
        <time>2018-03-13T15:24:40Z</time>
      </trkpt>
      <trkpt lat="40.510616" lon="-0.004934">
        <ele>720.014</ele>
        <time>2018-03-13T15:24:38Z</time>
      </trkpt>
      <trkpt lat="40.510680" lon="-0.004883">
        <ele>720.091</ele>
        <time>2018-03-13T15:24:36Z</time>
      </trkpt>
      <trkpt lat="40.510792" lon="-0.004850">
        <ele>719.148</ele>
        <time>2018-03-13T15:24:33Z</time>
      </trkpt>
      <trkpt lat="40.510982" lon="-0.004860">
        <ele>718.092</ele>
        <time>2018-03-13T15:24:27Z</time>
      </trkpt>
      <trkpt lat="40.511053" lon="-0.004870">
        <ele>717.773</ele>
        <time>2018-03-13T15:24:25Z</time>
      </trkpt>
      <trkpt lat="40.511287" lon="-0.004886">
        <ele>717.020</ele>
        <time>2018-03-13T15:24:18Z</time>
      </trkpt>
      <trkpt lat="40.511603" lon="-0.004895">
        <ele>717.008</ele>
        <time>2018-03-13T15:24:09Z</time>
      </trkpt>
      <trkpt lat="40.511802" lon="-0.004875">
        <ele>717.022</ele>
        <time>2018-03-13T15:24:04Z</time>
      </trkpt>
      <trkpt lat="40.511936" lon="-0.004846">
        <ele>717.049</ele>
        <time>2018-03-13T15:24:00Z</time>
      </trkpt>
      <trkpt lat="40.512068" lon="-0.004792">
        <ele>717.253</ele>
        <time>2018-03-13T15:23:56Z</time>
      </trkpt>
      <trkpt lat="40.512282" lon="-0.004687">
        <ele>717.041</ele>
        <time>2018-03-13T15:23:49Z</time>
      </trkpt>
      <trkpt lat="40.512716" lon="-0.004420">
        <ele>717.819</ele>
        <time>2018-03-13T15:23:36Z</time>
      </trkpt>
      <trkpt lat="40.512928" lon="-0.004209">
        <ele>720.692</ele>
        <time>2018-03-13T15:23:28Z</time>
      </trkpt>
      <trkpt lat="40.513146" lon="-0.004031">
        <ele>720.269</ele>
        <time>2018-03-13T15:23:21Z</time>
      </trkpt>
      <trkpt lat="40.513278" lon="-0.003917">
        <ele>720.726</ele>
        <time>2018-03-13T15:23:16Z</time>
      </trkpt>
      <trkpt lat="40.513322" lon="-0.003875">
        <ele>721.662</ele>
        <time>2018-03-13T15:23:15Z</time>
      </trkpt>
      <trkpt lat="40.513511" lon="-0.003566">
        <ele>722.083</ele>
        <time>2018-03-13T15:23:06Z</time>
      </trkpt>
      <trkpt lat="40.513518" lon="-0.003505">
        <ele>722.411</ele>
        <time>2018-03-13T15:23:05Z</time>
      </trkpt>
      <trkpt lat="40.513523" lon="-0.003395">
        <ele>723.008</ele>
        <time>2018-03-13T15:23:02Z</time>
      </trkpt>
      <trkpt lat="40.513524" lon="-0.003293">
        <ele>724.099</ele>
        <time>2018-03-13T15:23:00Z</time>
      </trkpt>
      <trkpt lat="40.513522" lon="-0.003184">
        <ele>724.076</ele>
        <time>2018-03-13T15:22:58Z</time>
      </trkpt>
      <trkpt lat="40.513520" lon="-0.003067">
        <ele>724.010</ele>
        <time>2018-03-13T15:22:55Z</time>
      </trkpt>
      <trkpt lat="40.513525" lon="-0.002311">
        <ele>723.638</ele>
        <time>2018-03-13T15:22:39Z</time>
      </trkpt>
      <trkpt lat="40.513537" lon="-0.002118">
        <ele>723.496</ele>
        <time>2018-03-13T15:22:35Z</time>
      </trkpt>
      <trkpt lat="40.513558" lon="-0.001926">
        <ele>724.179</ele>
        <time>2018-03-13T15:22:30Z</time>
      </trkpt>
      <trkpt lat="40.513591" lon="-0.001697">
        <ele>723.066</ele>
        <time>2018-03-13T15:22:25Z</time>
      </trkpt>
      <trkpt lat="40.513602" lon="-0.001580">
        <ele>722.783</ele>
        <time>2018-03-13T15:22:23Z</time>
      </trkpt>
      <trkpt lat="40.513624" lon="-0.001426">
        <ele>722.025</ele>
        <time>2018-03-13T15:22:19Z</time>
      </trkpt>
      <trkpt lat="40.513641" lon="-0.001277">
        <ele>722.326</ele>
        <time>2018-03-13T15:22:16Z</time>
      </trkpt>
      <trkpt lat="40.513728" lon="-0.000779">
        <ele>720.408</ele>
        <time>2018-03-13T15:22:05Z</time>
      </trkpt>
      <trkpt lat="40.513762" lon="-0.000610">
        <ele>720.208</ele>
        <time>2018-03-13T15:22:01Z</time>
      </trkpt>
      <trkpt lat="40.513820" lon="-0.000357">
        <ele>720.355</ele>
        <time>2018-03-13T15:21:56Z</time>
      </trkpt>
      <trkpt lat="40.513873" lon="-0.000179">
        <ele>718.272</ele>
        <time>2018-03-13T15:21:51Z</time>
      </trkpt>
      <trkpt lat="40.513926" lon="-0.000030">
        <ele>716.766</ele>
        <time>2018-03-13T15:21:48Z</time>
      </trkpt>
      <trkpt lat="40.513952" lon="0.000033">
        <ele>716.484</ele>
        <time>2018-03-13T15:21:46Z</time>
      </trkpt>
      <trkpt lat="40.513999" lon="0.000143">
        <ele>715.612</ele>
        <time>2018-03-13T15:21:44Z</time>
      </trkpt>
      <trkpt lat="40.514062" lon="0.000303">
        <ele>715.075</ele>
        <time>2018-03-13T15:21:40Z</time>
      </trkpt>
      <trkpt lat="40.514110" lon="0.000429">
        <ele>714.112</ele>
        <time>2018-03-13T15:21:37Z</time>
      </trkpt>
      <trkpt lat="40.514184" lon="0.000583">
        <ele>712.429</ele>
        <time>2018-03-13T15:21:33Z</time>
      </trkpt>
      <trkpt lat="40.514328" lon="0.000853">
        <ele>712.048</ele>
        <time>2018-03-13T15:21:25Z</time>
      </trkpt>
      <trkpt lat="40.514484" lon="0.001162">
        <ele>709.761</ele>
        <time>2018-03-13T15:21:17Z</time>
      </trkpt>
      <trkpt lat="40.514624" lon="0.001439">
        <ele>708.717</ele>
        <time>2018-03-13T15:21:10Z</time>
      </trkpt>
      <trkpt lat="40.514757" lon="0.001660">
        <ele>708.508</ele>
        <time>2018-03-13T15:21:04Z</time>
      </trkpt>
      <trkpt lat="40.514785" lon="0.001705">
        <ele>708.657</ele>
        <time>2018-03-13T15:21:03Z</time>
      </trkpt>
      <trkpt lat="40.515120" lon="0.002275">
        <ele>706.784</ele>
        <time>2018-03-13T15:20:47Z</time>
      </trkpt>
      <trkpt lat="40.515349" lon="0.002666">
        <ele>705.628</ele>
        <time>2018-03-13T15:20:36Z</time>
      </trkpt>
      <trkpt lat="40.515375" lon="0.002706">
        <ele>705.796</ele>
        <time>2018-03-13T15:20:35Z</time>
      </trkpt>
      <trkpt lat="40.515688" lon="0.003304">
        <ele>704.954</ele>
        <time>2018-03-13T15:20:20Z</time>
      </trkpt>
      <trkpt lat="40.515794" lon="0.003540">
        <ele>704.167</ele>
        <time>2018-03-13T15:20:14Z</time>
      </trkpt>
      <trkpt lat="40.515934" lon="0.003798">
        <ele>703.114</ele>
        <time>2018-03-13T15:20:07Z</time>
      </trkpt>
      <trkpt lat="40.516097" lon="0.004076">
        <ele>702.321</ele>
        <time>2018-03-13T15:19:59Z</time>
      </trkpt>
      <trkpt lat="40.516276" lon="0.004347">
        <ele>702.044</ele>
        <time>2018-03-13T15:19:51Z</time>
      </trkpt>
      <trkpt lat="40.516371" lon="0.004528">
        <ele>701.405</ele>
        <time>2018-03-13T15:19:47Z</time>
      </trkpt>
      <trkpt lat="40.516456" lon="0.004794">
        <ele>701.415</ele>
        <time>2018-03-13T15:19:40Z</time>
      </trkpt>
      <trkpt lat="40.516486" lon="0.004900">
        <ele>700.408</ele>
        <time>2018-03-13T15:19:38Z</time>
      </trkpt>
      <trkpt lat="40.516526" lon="0.005059">
        <ele>700.377</ele>
        <time>2018-03-13T15:19:34Z</time>
      </trkpt>
      <trkpt lat="40.516551" lon="0.005165">
        <ele>699.794</ele>
        <time>2018-03-13T15:19:32Z</time>
      </trkpt>
      <trkpt lat="40.516628" lon="0.005746">
        <ele>700.898</ele>
        <time>2018-03-13T15:19:19Z</time>
      </trkpt>
      <trkpt lat="40.516631" lon="0.005852">
        <ele>700.846</ele>
        <time>2018-03-13T15:19:17Z</time>
      </trkpt>
      <trkpt lat="40.516632" lon="0.005958">
        <ele>700.754</ele>
        <time>2018-03-13T15:19:14Z</time>
      </trkpt>
      <trkpt lat="40.516626" lon="0.006506">
        <ele>700.977</ele>
        <time>2018-03-13T15:19:03Z</time>
      </trkpt>
      <trkpt lat="40.516613" lon="0.006921">
        <ele>699.914</ele>
        <time>2018-03-13T15:18:54Z</time>
      </trkpt>
      <trkpt lat="40.516614" lon="0.007051">
        <ele>699.361</ele>
        <time>2018-03-13T15:18:51Z</time>
      </trkpt>
      <trkpt lat="40.516614" lon="0.007179">
        <ele>699.335</ele>
        <time>2018-03-13T15:18:48Z</time>
      </trkpt>
      <trkpt lat="40.516613" lon="0.007222">
        <ele>698.686</ele>
        <time>2018-03-13T15:18:47Z</time>
      </trkpt>
      <trkpt lat="40.516617" lon="0.007573">
        <ele>697.214</ele>
        <time>2018-03-13T15:18:39Z</time>
      </trkpt>
      <trkpt lat="40.516617" lon="0.007749">
        <ele>697.208</ele>
        <time>2018-03-13T15:18:36Z</time>
      </trkpt>
      <trkpt lat="40.516619" lon="0.007872">
        <ele>697.166</ele>
        <time>2018-03-13T15:18:33Z</time>
      </trkpt>
      <trkpt lat="40.516619" lon="0.007914">
        <ele>697.013</ele>
        <time>2018-03-13T15:18:32Z</time>
      </trkpt>
      <trkpt lat="40.516625" lon="0.008210">
        <ele>696.457</ele>
        <time>2018-03-13T15:18:26Z</time>
      </trkpt>
      <trkpt lat="40.516669" lon="0.008940">
        <ele>695.375</ele>
        <time>2018-03-13T15:18:10Z</time>
      </trkpt>
      <trkpt lat="40.516724" lon="0.009141">
        <ele>692.423</ele>
        <time>2018-03-13T15:18:05Z</time>
      </trkpt>
      <trkpt lat="40.516765" lon="0.009257">
        <ele>691.776</ele>
        <time>2018-03-13T15:18:02Z</time>
      </trkpt>
      <trkpt lat="40.516801" lon="0.009399">
        <ele>690.963</ele>
        <time>2018-03-13T15:17:59Z</time>
      </trkpt>
      <trkpt lat="40.516825" lon="0.009489">
        <ele>690.650</ele>
        <time>2018-03-13T15:17:57Z</time>
      </trkpt>
      <trkpt lat="40.516863" lon="0.009611">
        <ele>689.812</ele>
        <time>2018-03-13T15:17:54Z</time>
      </trkpt>
      <trkpt lat="40.516882" lon="0.009671">
        <ele>689.532</ele>
        <time>2018-03-13T15:17:53Z</time>
      </trkpt>
      <trkpt lat="40.516920" lon="0.009790">
        <ele>688.805</ele>
        <time>2018-03-13T15:17:50Z</time>
      </trkpt>
      <trkpt lat="40.517014" lon="0.010076">
        <ele>687.208</ele>
        <time>2018-03-13T15:17:43Z</time>
      </trkpt>
      <trkpt lat="40.517064" lon="0.010191">
        <ele>686.684</ele>
        <time>2018-03-13T15:17:40Z</time>
      </trkpt>
      <trkpt lat="40.517136" lon="0.010328">
        <ele>686.731</ele>
        <time>2018-03-13T15:17:37Z</time>
      </trkpt>
      <trkpt lat="40.517203" lon="0.010478">
        <ele>685.645</ele>
        <time>2018-03-13T15:17:33Z</time>
      </trkpt>
      <trkpt lat="40.517232" lon="0.010559">
        <ele>686.343</ele>
        <time>2018-03-13T15:17:31Z</time>
      </trkpt>
      <trkpt lat="40.517299" lon="0.010774">
        <ele>685.331</ele>
        <time>2018-03-13T15:17:26Z</time>
      </trkpt>
      <trkpt lat="40.517326" lon="0.010860">
        <ele>685.064</ele>
        <time>2018-03-13T15:17:24Z</time>
      </trkpt>
      <trkpt lat="40.517361" lon="0.010959">
        <ele>684.771</ele>
        <time>2018-03-13T15:17:21Z</time>
      </trkpt>
      <trkpt lat="40.517405" lon="0.011066">
        <ele>684.728</ele>
        <time>2018-03-13T15:17:19Z</time>
      </trkpt>
      <trkpt lat="40.517484" lon="0.011441">
        <ele>684.399</ele>
        <time>2018-03-13T15:17:10Z</time>
      </trkpt>
      <trkpt lat="40.517548" lon="0.011972">
        <ele>683.307</ele>
        <time>2018-03-13T15:16:59Z</time>
      </trkpt>
      <trkpt lat="40.517653" lon="0.012581">
        <ele>684.827</ele>
        <time>2018-03-13T15:16:45Z</time>
      </trkpt>
      <trkpt lat="40.517669" lon="0.012670">
        <ele>684.808</ele>
        <time>2018-03-13T15:16:43Z</time>
      </trkpt>
      <trkpt lat="40.517767" lon="0.012988">
        <ele>684.742</ele>
        <time>2018-03-13T15:16:36Z</time>
      </trkpt>
      <trkpt lat="40.517998" lon="0.013592">
        <ele>683.679</ele>
        <time>2018-03-13T15:16:21Z</time>
      </trkpt>
      <trkpt lat="40.518151" lon="0.013845">
        <ele>683.363</ele>
        <time>2018-03-13T15:16:14Z</time>
      </trkpt>
      <trkpt lat="40.518168" lon="0.013875">
        <ele>683.181</ele>
        <time>2018-03-13T15:16:13Z</time>
      </trkpt>
      <trkpt lat="40.518305" lon="0.014206">
        <ele>681.369</ele>
        <time>2018-03-13T15:16:05Z</time>
      </trkpt>
      <trkpt lat="40.518332" lon="0.014385">
        <ele>680.922</ele>
        <time>2018-03-13T15:16:01Z</time>
      </trkpt>
      <trkpt lat="40.518337" lon="0.014486">
        <ele>681.069</ele>
        <time>2018-03-13T15:15:59Z</time>
      </trkpt>
      <trkpt lat="40.518336" lon="0.014521">
        <ele>680.966</ele>
        <time>2018-03-13T15:15:58Z</time>
      </trkpt>
      <trkpt lat="40.518332" lon="0.014628">
        <ele>680.967</ele>
        <time>2018-03-13T15:15:56Z</time>
      </trkpt>
      <trkpt lat="40.518319" lon="0.014734">
        <ele>680.081</ele>
        <time>2018-03-13T15:15:54Z</time>
      </trkpt>
      <trkpt lat="40.518314" lon="0.014767">
        <ele>679.419</ele>
        <time>2018-03-13T15:15:53Z</time>
      </trkpt>
      <trkpt lat="40.518290" lon="0.014876">
        <ele>679.008</ele>
        <time>2018-03-13T15:15:50Z</time>
      </trkpt>
      <trkpt lat="40.518245" lon="0.015000">
        <ele>679.029</ele>
        <time>2018-03-13T15:15:47Z</time>
      </trkpt>
      <trkpt lat="40.518205" lon="0.015132">
        <ele>678.536</ele>
        <time>2018-03-13T15:15:44Z</time>
      </trkpt>
      <trkpt lat="40.518183" lon="0.015654">
        <ele>676.390</ele>
        <time>2018-03-13T15:15:33Z</time>
      </trkpt>
      <trkpt lat="40.518208" lon="0.015783">
        <ele>675.978</ele>
        <time>2018-03-13T15:15:30Z</time>
      </trkpt>
      <trkpt lat="40.518213" lon="0.015926">
        <ele>675.046</ele>
        <time>2018-03-13T15:15:27Z</time>
      </trkpt>
      <trkpt lat="40.518210" lon="0.016005">
        <ele>674.249</ele>
        <time>2018-03-13T15:15:25Z</time>
      </trkpt>
      <trkpt lat="40.518191" lon="0.016259">
        <ele>673.226</ele>
        <time>2018-03-13T15:15:20Z</time>
      </trkpt>
      <trkpt lat="40.518178" lon="0.016431">
        <ele>672.683</ele>
        <time>2018-03-13T15:15:16Z</time>
      </trkpt>
      <trkpt lat="40.518213" lon="0.016756">
        <ele>671.021</ele>
        <time>2018-03-13T15:15:09Z</time>
      </trkpt>
      <trkpt lat="40.518245" lon="0.016904">
        <ele>671.141</ele>
        <time>2018-03-13T15:15:05Z</time>
      </trkpt>
      <trkpt lat="40.518350" lon="0.017450">
        <ele>675.205</ele>
        <time>2018-03-13T15:14:53Z</time>
      </trkpt>
      <trkpt lat="40.518483" lon="0.018083">
        <ele>677.608</ele>
        <time>2018-03-13T15:14:39Z</time>
      </trkpt>
      <trkpt lat="40.518467" lon="0.018252">
        <ele>677.685</ele>
        <time>2018-03-13T15:14:35Z</time>
      </trkpt>
      <trkpt lat="40.518446" lon="0.018330">
        <ele>677.232</ele>
        <time>2018-03-13T15:14:33Z</time>
      </trkpt>
      <trkpt lat="40.518412" lon="0.018448">
        <ele>677.716</ele>
        <time>2018-03-13T15:14:31Z</time>
      </trkpt>
      <trkpt lat="40.518352" lon="0.018916">
        <ele>675.654</ele>
        <time>2018-03-13T15:14:20Z</time>
      </trkpt>
      <trkpt lat="40.518332" lon="0.019104">
        <ele>675.712</ele>
        <time>2018-03-13T15:14:16Z</time>
      </trkpt>
      <trkpt lat="40.518342" lon="0.019210">
        <ele>675.745</ele>
        <time>2018-03-13T15:14:14Z</time>
      </trkpt>
      <trkpt lat="40.518424" lon="0.019388">
        <ele>673.492</ele>
        <time>2018-03-13T15:14:09Z</time>
      </trkpt>
      <trkpt lat="40.518521" lon="0.019526">
        <ele>672.569</ele>
        <time>2018-03-13T15:14:05Z</time>
      </trkpt>
      <trkpt lat="40.518618" lon="0.019668">
        <ele>674.153</ele>
        <time>2018-03-13T15:14:01Z</time>
      </trkpt>
      <trkpt lat="40.518652" lon="0.019728">
        <ele>673.004</ele>
        <time>2018-03-13T15:14:00Z</time>
      </trkpt>
      <trkpt lat="40.518686" lon="0.019792">
        <ele>672.514</ele>
        <time>2018-03-13T15:13:58Z</time>
      </trkpt>
      <trkpt lat="40.518720" lon="0.019864">
        <ele>672.308</ele>
        <time>2018-03-13T15:13:56Z</time>
      </trkpt>
      <trkpt lat="40.518853" lon="0.020301">
        <ele>673.128</ele>
        <time>2018-03-13T15:13:46Z</time>
      </trkpt>
      <trkpt lat="40.518918" lon="0.020728">
        <ele>669.575</ele>
        <time>2018-03-13T15:13:36Z</time>
      </trkpt>
      <trkpt lat="40.518884" lon="0.020883">
        <ele>670.189</ele>
        <time>2018-03-13T15:13:33Z</time>
      </trkpt>
      <trkpt lat="40.518871" lon="0.020966">
        <ele>670.557</ele>
        <time>2018-03-13T15:13:31Z</time>
      </trkpt>
      <trkpt lat="40.518868" lon="0.020990">
        <ele>670.775</ele>
        <time>2018-03-13T15:13:30Z</time>
      </trkpt>
      <trkpt lat="40.518871" lon="0.021078">
        <ele>670.488</ele>
        <time>2018-03-13T15:13:29Z</time>
      </trkpt>
      <trkpt lat="40.518879" lon="0.021163">
        <ele>668.675</ele>
        <time>2018-03-13T15:13:27Z</time>
      </trkpt>
      <trkpt lat="40.518895" lon="0.021289">
        <ele>666.682</ele>
        <time>2018-03-13T15:13:24Z</time>
      </trkpt>
      <trkpt lat="40.518914" lon="0.021411">
        <ele>665.267</ele>
        <time>2018-03-13T15:13:21Z</time>
      </trkpt>
      <trkpt lat="40.518930" lon="0.021511">
        <ele>665.281</ele>
        <time>2018-03-13T15:13:19Z</time>
      </trkpt>
      <trkpt lat="40.518942" lon="0.021583">
        <ele>665.319</ele>
        <time>2018-03-13T15:13:17Z</time>
      </trkpt>
      <trkpt lat="40.518951" lon="0.021630">
        <ele>665.208</ele>
        <time>2018-03-13T15:13:16Z</time>
      </trkpt>
      <trkpt lat="40.518964" lon="0.021705">
        <ele>664.649</ele>
        <time>2018-03-13T15:13:15Z</time>
      </trkpt>
      <trkpt lat="40.518985" lon="0.021780">
        <ele>664.616</ele>
        <time>2018-03-13T15:13:13Z</time>
      </trkpt>
      <trkpt lat="40.518998" lon="0.021833">
        <ele>664.230</ele>
        <time>2018-03-13T15:13:12Z</time>
      </trkpt>
      <trkpt lat="40.519008" lon="0.021888">
        <ele>663.948</ele>
        <time>2018-03-13T15:13:10Z</time>
      </trkpt>
      <trkpt lat="40.519018" lon="0.021941">
        <ele>663.566</ele>
        <time>2018-03-13T15:13:09Z</time>
      </trkpt>
      <trkpt lat="40.519032" lon="0.022007">
        <ele>663.069</ele>
        <time>2018-03-13T15:13:08Z</time>
      </trkpt>
      <trkpt lat="40.519038" lon="0.022042">
        <ele>662.936</ele>
        <time>2018-03-13T15:13:07Z</time>
      </trkpt>
      <trkpt lat="40.519096" lon="0.022413">
        <ele>661.993</ele>
        <time>2018-03-13T15:12:59Z</time>
      </trkpt>
      <trkpt lat="40.519190" lon="0.022899">
        <ele>660.035</ele>
        <time>2018-03-13T15:12:48Z</time>
      </trkpt>
      <trkpt lat="40.519210" lon="0.023054">
        <ele>660.086</ele>
        <time>2018-03-13T15:12:44Z</time>
      </trkpt>
      <trkpt lat="40.519219" lon="0.023134">
        <ele>659.914</ele>
        <time>2018-03-13T15:12:43Z</time>
      </trkpt>
      <trkpt lat="40.519213" lon="0.023453">
        <ele>660.008</ele>
        <time>2018-03-13T15:12:36Z</time>
      </trkpt>
      <trkpt lat="40.519195" lon="0.023694">
        <ele>660.376</ele>
        <time>2018-03-13T15:12:31Z</time>
      </trkpt>
      <trkpt lat="40.519168" lon="0.023852">
        <ele>660.773</ele>
        <time>2018-03-13T15:12:27Z</time>
      </trkpt>
      <trkpt lat="40.519149" lon="0.023927">
        <ele>661.037</ele>
        <time>2018-03-13T15:12:25Z</time>
      </trkpt>
      <trkpt lat="40.519103" lon="0.024069">
        <ele>661.875</ele>
        <time>2018-03-13T15:12:22Z</time>
      </trkpt>
      <trkpt lat="40.519036" lon="0.024198">
        <ele>662.013</ele>
        <time>2018-03-13T15:12:19Z</time>
      </trkpt>
      <trkpt lat="40.518957" lon="0.024318">
        <ele>662.026</ele>
        <time>2018-03-13T15:12:15Z</time>
      </trkpt>
      <trkpt lat="40.518917" lon="0.024373">
        <ele>662.083</ele>
        <time>2018-03-13T15:12:13Z</time>
      </trkpt>
      <trkpt lat="40.518584" lon="0.024724">
        <ele>663.070</ele>
        <time>2018-03-13T15:12:01Z</time>
      </trkpt>
      <trkpt lat="40.518483" lon="0.024811">
        <ele>663.093</ele>
        <time>2018-03-13T15:11:58Z</time>
      </trkpt>
      <trkpt lat="40.518386" lon="0.024888">
        <ele>664.065</ele>
        <time>2018-03-13T15:11:55Z</time>
      </trkpt>
      <trkpt lat="40.518198" lon="0.025009">
        <ele>664.021</ele>
        <time>2018-03-13T15:11:49Z</time>
      </trkpt>
      <trkpt lat="40.518097" lon="0.025055">
        <ele>664.008</ele>
        <time>2018-03-13T15:11:46Z</time>
      </trkpt>
      <trkpt lat="40.517769" lon="0.025176">
        <ele>664.912</ele>
        <time>2018-03-13T15:11:36Z</time>
      </trkpt>
      <trkpt lat="40.517599" lon="0.025247">
        <ele>665.089</ele>
        <time>2018-03-13T15:11:31Z</time>
      </trkpt>
      <trkpt lat="40.517311" lon="0.025391">
        <ele>662.313</ele>
        <time>2018-03-13T15:11:22Z</time>
      </trkpt>
      <trkpt lat="40.517139" lon="0.025510">
        <ele>663.781</ele>
        <time>2018-03-13T15:11:16Z</time>
      </trkpt>
      <trkpt lat="40.516955" lon="0.025746">
        <ele>658.539</ele>
        <time>2018-03-13T15:11:09Z</time>
      </trkpt>
      <trkpt lat="40.516822" lon="0.025992">
        <ele>664.942</ele>
        <time>2018-03-13T15:11:02Z</time>
      </trkpt>
      <trkpt lat="40.516754" lon="0.026083">
        <ele>666.829</ele>
        <time>2018-03-13T15:10:59Z</time>
      </trkpt>
      <trkpt lat="40.516569" lon="0.026191">
        <ele>668.586</ele>
        <time>2018-03-13T15:10:54Z</time>
      </trkpt>
      <trkpt lat="40.516413" lon="0.026225">
        <ele>668.998</ele>
        <time>2018-03-13T15:10:49Z</time>
      </trkpt>
      <trkpt lat="40.516297" lon="0.026251">
        <ele>669.015</ele>
        <time>2018-03-13T15:10:46Z</time>
      </trkpt>
      <trkpt lat="40.516101" lon="0.026292">
        <ele>668.026</ele>
        <time>2018-03-13T15:10:40Z</time>
      </trkpt>
      <trkpt lat="40.515979" lon="0.026310">
        <ele>668.008</ele>
        <time>2018-03-13T15:10:37Z</time>
      </trkpt>
      <trkpt lat="40.515764" lon="0.026333">
        <ele>667.412</ele>
        <time>2018-03-13T15:10:30Z</time>
      </trkpt>
      <trkpt lat="40.515573" lon="0.026332">
        <ele>667.079</ele>
        <time>2018-03-13T15:10:25Z</time>
      </trkpt>
      <trkpt lat="40.515476" lon="0.026334">
        <ele>667.043</ele>
        <time>2018-03-13T15:10:22Z</time>
      </trkpt>
      <trkpt lat="40.515328" lon="0.026353">
        <ele>667.021</ele>
        <time>2018-03-13T15:10:18Z</time>
      </trkpt>
      <trkpt lat="40.515277" lon="0.026351">
        <ele>667.039</ele>
        <time>2018-03-13T15:10:17Z</time>
      </trkpt>
      <trkpt lat="40.515173" lon="0.026343">
        <ele>667.022</ele>
        <time>2018-03-13T15:10:14Z</time>
      </trkpt>
      <trkpt lat="40.515013" lon="0.026342">
        <ele>666.079</ele>
        <time>2018-03-13T15:10:09Z</time>
      </trkpt>
      <trkpt lat="40.514788" lon="0.026332">
        <ele>666.066</ele>
        <time>2018-03-13T15:10:03Z</time>
      </trkpt>
      <trkpt lat="40.514450" lon="0.026248">
        <ele>666.314</ele>
        <time>2018-03-13T15:09:53Z</time>
      </trkpt>
      <trkpt lat="40.514285" lon="0.026194">
        <ele>667.454</ele>
        <time>2018-03-13T15:09:48Z</time>
      </trkpt>
      <trkpt lat="40.514174" lon="0.026148">
        <ele>668.009</ele>
        <time>2018-03-13T15:09:45Z</time>
      </trkpt>
      <trkpt lat="40.513946" lon="0.026050">
        <ele>668.208</ele>
        <time>2018-03-13T15:09:38Z</time>
      </trkpt>
      <trkpt lat="40.513659" lon="0.025902">
        <ele>669.094</ele>
        <time>2018-03-13T15:09:29Z</time>
      </trkpt>
      <trkpt lat="40.513546" lon="0.025837">
        <ele>668.931</ele>
        <time>2018-03-13T15:09:25Z</time>
      </trkpt>
      <trkpt lat="40.513489" lon="0.025802">
        <ele>668.975</ele>
        <time>2018-03-13T15:09:24Z</time>
      </trkpt>
      <trkpt lat="40.513374" lon="0.025735">
        <ele>670.053</ele>
        <time>2018-03-13T15:09:20Z</time>
      </trkpt>
      <trkpt lat="40.513255" lon="0.025674">
        <ele>670.091</ele>
        <time>2018-03-13T15:09:16Z</time>
      </trkpt>
      <trkpt lat="40.513193" lon="0.025648">
        <ele>670.024</ele>
        <time>2018-03-13T15:09:15Z</time>
      </trkpt>
      <trkpt lat="40.513069" lon="0.025601">
        <ele>670.931</ele>
        <time>2018-03-13T15:09:11Z</time>
      </trkpt>
      <trkpt lat="40.512955" lon="0.025548">
        <ele>671.018</ele>
        <time>2018-03-13T15:09:07Z</time>
      </trkpt>
      <trkpt lat="40.512846" lon="0.025484">
        <ele>672.056</ele>
        <time>2018-03-13T15:09:04Z</time>
      </trkpt>
      <trkpt lat="40.512696" lon="0.025395">
        <ele>672.259</ele>
        <time>2018-03-13T15:08:59Z</time>
      </trkpt>
      <trkpt lat="40.512484" lon="0.025266">
        <ele>674.014</ele>
        <time>2018-03-13T15:08:53Z</time>
      </trkpt>
      <trkpt lat="40.512361" lon="0.025113">
        <ele>674.108</ele>
        <time>2018-03-13T15:08:48Z</time>
      </trkpt>
      <trkpt lat="40.512315" lon="0.025057">
        <ele>674.338</ele>
        <time>2018-03-13T15:08:46Z</time>
      </trkpt>
      <trkpt lat="40.512148" lon="0.024910">
        <ele>674.065</ele>
        <time>2018-03-13T15:08:40Z</time>
      </trkpt>
      <trkpt lat="40.512021" lon="0.024821">
        <ele>673.929</ele>
        <time>2018-03-13T15:08:36Z</time>
      </trkpt>
      <trkpt lat="40.511947" lon="0.024785">
        <ele>673.577</ele>
        <time>2018-03-13T15:08:34Z</time>
      </trkpt>
      <trkpt lat="40.511875" lon="0.024747">
        <ele>673.095</ele>
        <time>2018-03-13T15:08:32Z</time>
      </trkpt>
      <trkpt lat="40.511833" lon="0.024728">
        <ele>673.058</ele>
        <time>2018-03-13T15:08:30Z</time>
      </trkpt>
      <trkpt lat="40.511579" lon="0.024717">
        <ele>672.015</ele>
        <time>2018-03-13T15:08:23Z</time>
      </trkpt>
      <trkpt lat="40.511487" lon="0.024710">
        <ele>672.162</ele>
        <time>2018-03-13T15:08:21Z</time>
      </trkpt>
      <trkpt lat="40.511404" lon="0.024703">
        <ele>672.482</ele>
        <time>2018-03-13T15:08:18Z</time>
      </trkpt>
      <trkpt lat="40.511071" lon="0.024687">
        <ele>672.643</ele>
        <time>2018-03-13T15:08:09Z</time>
      </trkpt>
      <trkpt lat="40.510994" lon="0.024678">
        <ele>672.817</ele>
        <time>2018-03-13T15:08:07Z</time>
      </trkpt>
      <trkpt lat="40.510847" lon="0.024653">
        <ele>673.608</ele>
        <time>2018-03-13T15:08:02Z</time>
      </trkpt>
      <trkpt lat="40.510556" lon="0.024486">
        <ele>674.241</ele>
        <time>2018-03-13T15:07:54Z</time>
      </trkpt>
      <trkpt lat="40.510524" lon="0.024456">
        <ele>674.258</ele>
        <time>2018-03-13T15:07:52Z</time>
      </trkpt>
      <trkpt lat="40.510471" lon="0.024415">
        <ele>675.152</ele>
        <time>2018-03-13T15:07:49Z</time>
      </trkpt>
      <trkpt lat="40.510408" lon="0.024378">
        <ele>673.810</ele>
        <time>2018-03-13T15:07:47Z</time>
      </trkpt>
      <trkpt lat="40.510342" lon="0.024345">
        <ele>671.338</ele>
        <time>2018-03-13T15:07:45Z</time>
      </trkpt>
      <trkpt lat="40.510272" lon="0.024350">
        <ele>671.481</ele>
        <time>2018-03-13T15:07:44Z</time>
      </trkpt>
      <trkpt lat="40.510159" lon="0.024387">
        <ele>671.798</ele>
        <time>2018-03-13T15:07:40Z</time>
      </trkpt>
      <trkpt lat="40.510093" lon="0.024448">
        <ele>672.055</ele>
        <time>2018-03-13T15:07:40Z</time>
      </trkpt>
      <trkpt lat="40.510043" lon="0.024503">
        <ele>672.038</ele>
        <time>2018-03-13T15:07:39Z</time>
      </trkpt>
      <trkpt lat="40.509974" lon="0.024607">
        <ele>671.170</ele>
        <time>2018-03-13T15:07:36Z</time>
      </trkpt>
      <trkpt lat="40.509945" lon="0.024666">
        <ele>670.617</ele>
        <time>2018-03-13T15:07:35Z</time>
      </trkpt>
      <trkpt lat="40.509892" lon="0.024727">
        <ele>670.008</ele>
        <time>2018-03-13T15:07:33Z</time>
      </trkpt>
      <trkpt lat="40.509833" lon="0.024797">
        <ele>668.976</ele>
        <time>2018-03-13T15:07:31Z</time>
      </trkpt>
      <trkpt lat="40.509762" lon="0.024878">
        <ele>667.783</ele>
        <time>2018-03-13T15:07:28Z</time>
      </trkpt>
      <trkpt lat="40.509708" lon="0.024939">
        <ele>667.457</ele>
        <time>2018-03-13T15:07:27Z</time>
      </trkpt>
      <trkpt lat="40.509670" lon="0.024976">
        <ele>667.335</ele>
        <time>2018-03-13T15:07:26Z</time>
      </trkpt>
      <trkpt lat="40.509639" lon="0.025020">
        <ele>667.953</ele>
        <time>2018-03-13T15:07:24Z</time>
      </trkpt>
      <trkpt lat="40.509615" lon="0.025036">
        <ele>667.696</ele>
        <time>2018-03-13T15:07:24Z</time>
      </trkpt>
      <trkpt lat="40.509570" lon="0.025066">
        <ele>666.833</ele>
        <time>2018-03-13T15:07:22Z</time>
      </trkpt>
      <trkpt lat="40.509487" lon="0.025110">
        <ele>665.240</ele>
        <time>2018-03-13T15:07:19Z</time>
      </trkpt>
      <trkpt lat="40.509443" lon="0.025131">
        <ele>664.252</ele>
        <time>2018-03-13T15:07:18Z</time>
      </trkpt>
      <trkpt lat="40.509193" lon="0.025181">
        <ele>662.653</ele>
        <time>2018-03-13T15:07:10Z</time>
      </trkpt>
      <trkpt lat="40.509103" lon="0.025202">
        <ele>662.008</ele>
        <time>2018-03-13T15:07:08Z</time>
      </trkpt>
      <trkpt lat="40.509075" lon="0.025210">
        <ele>662.008</ele>
        <time>2018-03-13T15:07:07Z</time>
      </trkpt>
      <trkpt lat="40.508892" lon="0.025254">
        <ele>662.548</ele>
        <time>2018-03-13T15:07:01Z</time>
      </trkpt>
      <trkpt lat="40.508783" lon="0.025280">
        <ele>662.355</ele>
        <time>2018-03-13T15:06:58Z</time>
      </trkpt>
      <trkpt lat="40.508636" lon="0.025308">
        <ele>661.749</ele>
        <time>2018-03-13T15:06:54Z</time>
      </trkpt>
      <trkpt lat="40.508504" lon="0.025310">
        <ele>662.737</ele>
        <time>2018-03-13T15:06:50Z</time>
      </trkpt>
      <trkpt lat="40.508413" lon="0.025315">
        <ele>663.045</ele>
        <time>2018-03-13T15:06:47Z</time>
      </trkpt>
      <trkpt lat="40.508249" lon="0.025327">
        <ele>663.088</ele>
        <time>2018-03-13T15:06:43Z</time>
      </trkpt>
      <trkpt lat="40.508028" lon="0.025352">
        <ele>663.025</ele>
        <time>2018-03-13T15:06:36Z</time>
      </trkpt>
      <trkpt lat="40.507886" lon="0.025375">
        <ele>662.042</ele>
        <time>2018-03-13T15:06:32Z</time>
      </trkpt>
      <trkpt lat="40.507497" lon="0.025443">
        <ele>660.311</ele>
        <time>2018-03-13T15:06:20Z</time>
      </trkpt>
      <trkpt lat="40.507318" lon="0.025462">
        <ele>660.021</ele>
        <time>2018-03-13T15:06:16Z</time>
      </trkpt>
      <trkpt lat="40.507167" lon="0.025473">
        <ele>660.003</ele>
        <time>2018-03-13T15:06:12Z</time>
      </trkpt>
      <trkpt lat="40.506918" lon="0.025470">
        <ele>659.608</ele>
        <time>2018-03-13T15:06:05Z</time>
      </trkpt>
      <trkpt lat="40.506862" lon="0.025465">
        <ele>659.784</ele>
        <time>2018-03-13T15:06:03Z</time>
      </trkpt>
      <trkpt lat="40.506384" lon="0.025423">
        <ele>659.011</ele>
        <time>2018-03-13T15:05:49Z</time>
      </trkpt>
      <trkpt lat="40.505923" lon="0.025359">
        <ele>659.075</ele>
        <time>2018-03-13T15:05:36Z</time>
      </trkpt>
      <trkpt lat="40.505823" lon="0.025335">
        <ele>659.073</ele>
        <time>2018-03-13T15:05:33Z</time>
      </trkpt>
      <trkpt lat="40.505569" lon="0.025251">
        <ele>659.051</ele>
        <time>2018-03-13T15:05:25Z</time>
      </trkpt>
      <trkpt lat="40.505509" lon="0.025243">
        <ele>659.084</ele>
        <time>2018-03-13T15:05:23Z</time>
      </trkpt>
      <trkpt lat="40.505446" lon="0.025240">
        <ele>659.061</ele>
        <time>2018-03-13T15:05:22Z</time>
      </trkpt>
      <trkpt lat="40.505322" lon="0.025212">
        <ele>659.168</ele>
        <time>2018-03-13T15:05:18Z</time>
      </trkpt>
      <trkpt lat="40.505203" lon="0.025184">
        <ele>659.759</ele>
        <time>2018-03-13T15:05:15Z</time>
      </trkpt>
      <trkpt lat="40.504847" lon="0.025123">
        <ele>660.003</ele>
        <time>2018-03-13T15:05:04Z</time>
      </trkpt>
      <trkpt lat="40.504731" lon="0.025114">
        <ele>661.023</ele>
        <time>2018-03-13T15:05:01Z</time>
      </trkpt>
      <trkpt lat="40.504512" lon="0.025103">
        <ele>661.308</ele>
        <time>2018-03-13T15:04:55Z</time>
      </trkpt>
      <trkpt lat="40.504350" lon="0.025095">
        <ele>662.028</ele>
        <time>2018-03-13T15:04:50Z</time>
      </trkpt>
      <trkpt lat="40.504293" lon="0.025091">
        <ele>662.015</ele>
        <time>2018-03-13T15:04:49Z</time>
      </trkpt>
      <trkpt lat="40.504125" lon="0.025080">
        <ele>662.949</ele>
        <time>2018-03-13T15:04:44Z</time>
      </trkpt>
      <trkpt lat="40.504019" lon="0.025072">
        <ele>663.047</ele>
        <time>2018-03-13T15:04:41Z</time>
      </trkpt>
      <trkpt lat="40.503902" lon="0.025043">
        <ele>663.095</ele>
        <time>2018-03-13T15:04:38Z</time>
      </trkpt>
      <trkpt lat="40.503808" lon="0.025040">
        <ele>663.178</ele>
        <time>2018-03-13T15:04:35Z</time>
      </trkpt>
      <trkpt lat="40.503758" lon="0.025034">
        <ele>663.285</ele>
        <time>2018-03-13T15:04:33Z</time>
      </trkpt>
      <trkpt lat="40.503616" lon="0.025014">
        <ele>663.612</ele>
        <time>2018-03-13T15:04:30Z</time>
      </trkpt>
      <trkpt lat="40.503562" lon="0.024995">
        <ele>664.088</ele>
        <time>2018-03-13T15:04:27Z</time>
      </trkpt>
      <trkpt lat="40.503502" lon="0.024946">
        <ele>664.724</ele>
        <time>2018-03-13T15:04:25Z</time>
      </trkpt>
      <trkpt lat="40.503364" lon="0.024882">
        <ele>665.126</ele>
        <time>2018-03-13T15:04:21Z</time>
      </trkpt>
      <trkpt lat="40.503275" lon="0.024846">
        <ele>665.008</ele>
        <time>2018-03-13T15:04:04Z</time>
      </trkpt>
      <trkpt lat="40.503217" lon="0.024821">
        <ele>665.181</ele>
        <time>2018-03-13T15:04:02Z</time>
      </trkpt>
      <trkpt lat="40.503138" lon="0.024770">
        <ele>666.048</ele>
        <time>2018-03-13T15:04:00Z</time>
      </trkpt>
      <trkpt lat="40.503089" lon="0.024720">
        <ele>666.522</ele>
        <time>2018-03-13T15:03:57Z</time>
      </trkpt>
      <trkpt lat="40.503087" lon="0.024560">
        <ele>668.060</ele>
        <time>2018-03-13T15:03:53Z</time>
      </trkpt>
      <trkpt lat="40.503109" lon="0.024265">
        <ele>670.078</ele>
        <time>2018-03-13T15:03:47Z</time>
      </trkpt>
      <trkpt lat="40.503136" lon="0.024071">
        <ele>671.041</ele>
        <time>2018-03-13T15:03:43Z</time>
      </trkpt>
      <trkpt lat="40.503146" lon="0.023881">
        <ele>672.098</ele>
        <time>2018-03-13T15:03:38Z</time>
      </trkpt>
      <trkpt lat="40.503189" lon="0.023521">
        <ele>675.025</ele>
        <time>2018-03-13T15:03:30Z</time>
      </trkpt>
      <trkpt lat="40.503207" lon="0.023442">
        <ele>675.063</ele>
        <time>2018-03-13T15:03:29Z</time>
      </trkpt>
      <trkpt lat="40.503228" lon="0.023293">
        <ele>676.044</ele>
        <time>2018-03-13T15:03:25Z</time>
      </trkpt>
      <trkpt lat="40.503242" lon="0.023156">
        <ele>677.018</ele>
        <time>2018-03-13T15:03:22Z</time>
      </trkpt>
      <trkpt lat="40.503258" lon="0.022912">
        <ele>679.608</ele>
        <time>2018-03-13T15:03:17Z</time>
      </trkpt>
      <trkpt lat="40.503276" lon="0.022764">
        <ele>680.099</ele>
        <time>2018-03-13T15:03:14Z</time>
      </trkpt>
      <trkpt lat="40.503285" lon="0.022720">
        <ele>680.036</ele>
        <time>2018-03-13T15:03:13Z</time>
      </trkpt>
      <trkpt lat="40.503276" lon="0.022632">
        <ele>680.120</ele>
        <time>2018-03-13T15:03:11Z</time>
      </trkpt>
      <trkpt lat="40.503251" lon="0.022535">
        <ele>680.478</ele>
        <time>2018-03-13T15:03:09Z</time>
      </trkpt>
      <trkpt lat="40.503127" lon="0.022315">
        <ele>681.556</ele>
        <time>2018-03-13T15:03:03Z</time>
      </trkpt>
      <trkpt lat="40.503083" lon="0.022286">
        <ele>682.019</ele>
        <time>2018-03-13T15:03:01Z</time>
      </trkpt>
      <trkpt lat="40.502978" lon="0.022199">
        <ele>682.926</ele>
        <time>2018-03-13T15:02:58Z</time>
      </trkpt>
      <trkpt lat="40.502937" lon="0.022142">
        <ele>683.563</ele>
        <time>2018-03-13T15:02:56Z</time>
      </trkpt>
      <trkpt lat="40.502801" lon="0.022123">
        <ele>685.023</ele>
        <time>2018-03-13T15:02:52Z</time>
      </trkpt>
      <trkpt lat="40.502640" lon="0.022124">
        <ele>685.383</ele>
        <time>2018-03-13T15:02:48Z</time>
      </trkpt>
      <trkpt lat="40.502585" lon="0.022131">
        <ele>685.011</ele>
        <time>2018-03-13T15:02:46Z</time>
      </trkpt>
      <trkpt lat="40.502474" lon="0.022119">
        <ele>684.008</ele>
        <time>2018-03-13T15:02:43Z</time>
      </trkpt>
      <trkpt lat="40.502417" lon="0.022126">
        <ele>684.025</ele>
        <time>2018-03-13T15:02:41Z</time>
      </trkpt>
      <trkpt lat="40.502334" lon="0.022083">
        <ele>683.272</ele>
        <time>2018-03-13T15:02:39Z</time>
      </trkpt>
      <trkpt lat="40.502216" lon="0.022031">
        <ele>683.066</ele>
        <time>2018-03-13T15:02:35Z</time>
      </trkpt>
      <trkpt lat="40.502101" lon="0.022026">
        <ele>682.174</ele>
        <time>2018-03-13T15:02:32Z</time>
      </trkpt>
      <trkpt lat="40.501922" lon="0.022197">
        <ele>680.752</ele>
        <time>2018-03-13T15:02:25Z</time>
      </trkpt>
      <trkpt lat="40.501742" lon="0.022197">
        <ele>680.715</ele>
        <time>2018-03-13T15:02:20Z</time>
      </trkpt>
      <trkpt lat="40.501670" lon="0.022159">
        <ele>681.012</ele>
        <time>2018-03-13T15:02:18Z</time>
      </trkpt>
      <trkpt lat="40.501634" lon="0.022152">
        <ele>681.089</ele>
        <time>2018-03-13T15:02:17Z</time>
      </trkpt>
      <trkpt lat="40.501566" lon="0.022149">
        <ele>681.017</ele>
        <time>2018-03-13T15:02:15Z</time>
      </trkpt>
      <trkpt lat="40.501208" lon="0.021999">
        <ele>681.887</ele>
        <time>2018-03-13T15:02:04Z</time>
      </trkpt>
      <trkpt lat="40.501088" lon="0.021893">
        <ele>682.115</ele>
        <time>2018-03-13T15:02:00Z</time>
      </trkpt>
      <trkpt lat="40.500865" lon="0.021881">
        <ele>681.408</ele>
        <time>2018-03-13T15:01:54Z</time>
      </trkpt>
      <trkpt lat="40.500705" lon="0.021774">
        <ele>681.244</ele>
        <time>2018-03-13T15:01:49Z</time>
      </trkpt>
      <trkpt lat="40.500662" lon="0.021777">
        <ele>680.811</ele>
        <time>2018-03-13T15:01:48Z</time>
      </trkpt>
      <trkpt lat="40.500600" lon="0.021779">
        <ele>680.355</ele>
        <time>2018-03-13T15:01:46Z</time>
      </trkpt>
      <trkpt lat="40.500578" lon="0.021775">
        <ele>680.163</ele>
        <time>2018-03-13T15:01:45Z</time>
      </trkpt>
      <trkpt lat="40.500535" lon="0.021736">
        <ele>680.441</ele>
        <time>2018-03-13T15:01:44Z</time>
      </trkpt>
      <trkpt lat="40.500533" lon="0.021638">
        <ele>681.034</ele>
        <time>2018-03-13T15:01:42Z</time>
      </trkpt>
      <trkpt lat="40.500514" lon="0.021614">
        <ele>681.051</ele>
        <time>2018-03-13T15:01:41Z</time>
      </trkpt>
      <trkpt lat="40.500439" lon="0.021552">
        <ele>679.768</ele>
        <time>2018-03-13T15:01:38Z</time>
      </trkpt>
      <trkpt lat="40.500352" lon="0.021554">
        <ele>679.019</ele>
        <time>2018-03-13T15:01:36Z</time>
      </trkpt>
      <trkpt lat="40.500250" lon="0.021637">
        <ele>678.709</ele>
        <time>2018-03-13T15:01:32Z</time>
      </trkpt>
      <trkpt lat="40.500181" lon="0.021729">
        <ele>678.019</ele>
        <time>2018-03-13T15:01:30Z</time>
      </trkpt>
      <trkpt lat="40.500120" lon="0.021833">
        <ele>677.508</ele>
        <time>2018-03-13T15:01:27Z</time>
      </trkpt>
      <trkpt lat="40.500026" lon="0.021975">
        <ele>676.054</ele>
        <time>2018-03-13T15:01:23Z</time>
      </trkpt>
      <trkpt lat="40.499905" lon="0.022190">
        <ele>673.831</ele>
        <time>2018-03-13T15:01:17Z</time>
      </trkpt>
      <trkpt lat="40.499831" lon="0.022316">
        <ele>672.935</ele>
        <time>2018-03-13T15:01:13Z</time>
      </trkpt>
      <trkpt lat="40.499734" lon="0.022407">
        <ele>672.063</ele>
        <time>2018-03-13T15:01:10Z</time>
      </trkpt>
      <trkpt lat="40.499699" lon="0.022423">
        <ele>671.981</ele>
        <time>2018-03-13T15:01:09Z</time>
      </trkpt>
      <trkpt lat="40.499624" lon="0.022486">
        <ele>670.074</ele>
        <time>2018-03-13T15:01:06Z</time>
      </trkpt>
      <trkpt lat="40.499531" lon="0.022612">
        <ele>669.041</ele>
        <time>2018-03-13T15:01:02Z</time>
      </trkpt>
      <trkpt lat="40.499429" lon="0.022756">
        <ele>667.728</ele>
        <time>2018-03-13T15:00:58Z</time>
      </trkpt>
      <trkpt lat="40.499319" lon="0.022939">
        <ele>665.981</ele>
        <time>2018-03-13T15:00:53Z</time>
      </trkpt>
      <trkpt lat="40.499242" lon="0.023069">
        <ele>664.561</ele>
        <time>2018-03-13T15:00:49Z</time>
      </trkpt>
      <trkpt lat="40.499196" lon="0.023150">
        <ele>664.017</ele>
        <time>2018-03-13T15:00:47Z</time>
      </trkpt>
      <trkpt lat="40.499166" lon="0.023197">
        <ele>663.708</ele>
        <time>2018-03-13T15:00:46Z</time>
      </trkpt>
      <trkpt lat="40.499135" lon="0.023239">
        <ele>663.011</ele>
        <time>2018-03-13T15:00:45Z</time>
      </trkpt>
      <trkpt lat="40.499100" lon="0.023280">
        <ele>663.058</ele>
        <time>2018-03-13T15:00:43Z</time>
      </trkpt>
      <trkpt lat="40.499037" lon="0.023340">
        <ele>662.042</ele>
        <time>2018-03-13T15:00:41Z</time>
      </trkpt>
      <trkpt lat="40.498998" lon="0.023392">
        <ele>662.030</ele>
        <time>2018-03-13T15:00:40Z</time>
      </trkpt>
      <trkpt lat="40.498965" lon="0.023447">
        <ele>661.338</ele>
        <time>2018-03-13T15:00:38Z</time>
      </trkpt>
      <trkpt lat="40.498936" lon="0.023513">
        <ele>661.041</ele>
        <time>2018-03-13T15:00:36Z</time>
      </trkpt>
      <trkpt lat="40.498910" lon="0.023584">
        <ele>660.988</ele>
        <time>2018-03-13T15:00:35Z</time>
      </trkpt>
      <trkpt lat="40.498878" lon="0.023655">
        <ele>660.415</ele>
        <time>2018-03-13T15:00:33Z</time>
      </trkpt>
      <trkpt lat="40.498850" lon="0.023735">
        <ele>659.954</ele>
        <time>2018-03-13T15:00:31Z</time>
      </trkpt>
      <trkpt lat="40.498812" lon="0.023857">
        <ele>659.056</ele>
        <time>2018-03-13T15:00:28Z</time>
      </trkpt>
      <trkpt lat="40.498800" lon="0.023897">
        <ele>659.011</ele>
        <time>2018-03-13T15:00:27Z</time>
      </trkpt>
      <trkpt lat="40.498772" lon="0.023964">
        <ele>658.608</ele>
        <time>2018-03-13T15:00:25Z</time>
      </trkpt>
      <trkpt lat="40.498732" lon="0.023999">
        <ele>658.078</ele>
        <time>2018-03-13T15:00:24Z</time>
      </trkpt>
      <trkpt lat="40.498667" lon="0.023991">
        <ele>657.865</ele>
        <time>2018-03-13T15:00:22Z</time>
      </trkpt>
      <trkpt lat="40.498531" lon="0.023877">
        <ele>656.169</ele>
        <time>2018-03-13T15:00:18Z</time>
      </trkpt>
      <trkpt lat="40.498476" lon="0.023814">
        <ele>656.377</ele>
        <time>2018-03-13T15:00:16Z</time>
      </trkpt>
      <trkpt lat="40.498378" lon="0.023647">
        <ele>657.085</ele>
        <time>2018-03-13T15:00:11Z</time>
      </trkpt>
      <trkpt lat="40.498313" lon="0.023460">
        <ele>657.338</ele>
        <time>2018-03-13T15:00:06Z</time>
      </trkpt>
      <trkpt lat="40.498250" lon="0.023275">
        <ele>659.385</ele>
        <time>2018-03-13T15:00:02Z</time>
      </trkpt>
      <trkpt lat="40.498124" lon="0.023004">
        <ele>661.272</ele>
        <time>2018-03-13T14:59:55Z</time>
      </trkpt>
      <trkpt lat="40.498072" lon="0.022921">
        <ele>661.329</ele>
        <time>2018-03-13T14:59:53Z</time>
      </trkpt>
      <trkpt lat="40.497957" lon="0.022768">
        <ele>663.000</ele>
        <time>2018-03-13T14:59:48Z</time>
      </trkpt>
      <trkpt lat="40.497893" lon="0.022696">
        <ele>664.020</ele>
        <time>2018-03-13T14:59:46Z</time>
      </trkpt>
      <trkpt lat="40.497678" lon="0.022495">
        <ele>665.008</ele>
        <time>2018-03-13T14:59:38Z</time>
      </trkpt>
      <trkpt lat="40.497470" lon="0.022284">
        <ele>667.035</ele>
        <time>2018-03-13T14:59:31Z</time>
      </trkpt>
      <trkpt lat="40.497196" lon="0.022087">
        <ele>669.242</ele>
        <time>2018-03-13T14:59:22Z</time>
      </trkpt>
      <trkpt lat="40.497072" lon="0.022027">
        <ele>670.526</ele>
        <time>2018-03-13T14:59:18Z</time>
      </trkpt>
      <trkpt lat="40.496955" lon="0.022012">
        <ele>672.094</ele>
        <time>2018-03-13T14:59:15Z</time>
      </trkpt>
      <trkpt lat="40.496665" lon="0.022035">
        <ele>672.062</ele>
        <time>2018-03-13T14:59:06Z</time>
      </trkpt>
      <trkpt lat="40.496337" lon="0.021921">
        <ele>674.035</ele>
        <time>2018-03-13T14:58:57Z</time>
      </trkpt>
      <trkpt lat="40.496096" lon="0.021862">
        <ele>674.712</ele>
        <time>2018-03-13T14:58:50Z</time>
      </trkpt>
      <trkpt lat="40.496016" lon="0.021845">
        <ele>675.179</ele>
        <time>2018-03-13T14:58:47Z</time>
      </trkpt>
      <trkpt lat="40.495899" lon="0.021834">
        <ele>675.576</ele>
        <time>2018-03-13T14:58:44Z</time>
      </trkpt>
      <trkpt lat="40.495714" lon="0.022025">
        <ele>674.390</ele>
        <time>2018-03-13T14:58:37Z</time>
      </trkpt>
      <trkpt lat="40.495367" lon="0.022514">
        <ele>672.319</ele>
        <time>2018-03-13T14:58:23Z</time>
      </trkpt>
      <trkpt lat="40.495211" lon="0.022714">
        <ele>673.008</ele>
        <time>2018-03-13T14:58:17Z</time>
      </trkpt>
      <trkpt lat="40.495034" lon="0.022923">
        <ele>672.060</ele>
        <time>2018-03-13T14:58:10Z</time>
      </trkpt>
      <trkpt lat="40.494899" lon="0.023049">
        <ele>671.097</ele>
        <time>2018-03-13T14:58:05Z</time>
      </trkpt>
      <trkpt lat="40.494621" lon="0.023226">
        <ele>669.021</ele>
        <time>2018-03-13T14:57:56Z</time>
      </trkpt>
      <trkpt lat="40.494379" lon="0.023353">
        <ele>668.359</ele>
        <time>2018-03-13T14:57:49Z</time>
      </trkpt>
      <trkpt lat="40.494209" lon="0.023447">
        <ele>667.347</ele>
        <time>2018-03-13T14:57:44Z</time>
      </trkpt>
      <trkpt lat="40.493986" lon="0.023521">
        <ele>667.070</ele>
        <time>2018-03-13T14:57:37Z</time>
      </trkpt>
      <trkpt lat="40.493907" lon="0.023540">
        <ele>666.967</ele>
        <time>2018-03-13T14:57:35Z</time>
      </trkpt>
      <trkpt lat="40.493658" lon="0.023583">
        <ele>665.084</ele>
        <time>2018-03-13T14:57:28Z</time>
      </trkpt>
      <trkpt lat="40.493521" lon="0.023597">
        <ele>665.065</ele>
        <time>2018-03-13T14:57:24Z</time>
      </trkpt>
      <trkpt lat="40.493285" lon="0.023558">
        <ele>664.068</ele>
        <time>2018-03-13T14:57:17Z</time>
      </trkpt>
      <trkpt lat="40.493239" lon="0.023545">
        <ele>664.114</ele>
        <time>2018-03-13T14:57:15Z</time>
      </trkpt>
      <trkpt lat="40.493058" lon="0.023493">
        <ele>663.008</ele>
        <time>2018-03-13T14:57:10Z</time>
      </trkpt>
      <trkpt lat="40.492915" lon="0.023469">
        <ele>662.069</ele>
        <time>2018-03-13T14:57:06Z</time>
      </trkpt>
      <trkpt lat="40.492714" lon="0.023447">
        <ele>662.066</ele>
        <time>2018-03-13T14:57:00Z</time>
      </trkpt>
      <trkpt lat="40.492663" lon="0.023437">
        <ele>662.060</ele>
        <time>2018-03-13T14:56:59Z</time>
      </trkpt>
      <trkpt lat="40.492508" lon="0.023405">
        <ele>662.068</ele>
        <time>2018-03-13T14:56:54Z</time>
      </trkpt>
      <trkpt lat="40.492348" lon="0.023382">
        <ele>661.096</ele>
        <time>2018-03-13T14:56:50Z</time>
      </trkpt>
      <trkpt lat="40.492240" lon="0.023375">
        <ele>661.089</ele>
        <time>2018-03-13T14:56:47Z</time>
      </trkpt>
      <trkpt lat="40.492129" lon="0.023378">
        <ele>661.076</ele>
        <time>2018-03-13T14:56:44Z</time>
      </trkpt>
      <trkpt lat="40.492020" lon="0.023389">
        <ele>660.593</ele>
        <time>2018-03-13T14:56:40Z</time>
      </trkpt>
      <trkpt lat="40.491846" lon="0.023394">
        <ele>660.037</ele>
        <time>2018-03-13T14:56:35Z</time>
      </trkpt>
      <trkpt lat="40.491665" lon="0.023387">
        <ele>659.949</ele>
        <time>2018-03-13T14:56:30Z</time>
      </trkpt>
      <trkpt lat="40.491537" lon="0.023381">
        <ele>659.413</ele>
        <time>2018-03-13T14:56:27Z</time>
      </trkpt>
      <trkpt lat="40.491410" lon="0.023373">
        <ele>659.008</ele>
        <time>2018-03-13T14:56:23Z</time>
      </trkpt>
      <trkpt lat="40.491272" lon="0.023376">
        <ele>659.076</ele>
        <time>2018-03-13T14:56:19Z</time>
      </trkpt>
      <trkpt lat="40.491123" lon="0.023368">
        <ele>660.043</ele>
        <time>2018-03-13T14:56:15Z</time>
      </trkpt>
      <trkpt lat="40.490897" lon="0.023352">
        <ele>660.057</ele>
        <time>2018-03-13T14:56:08Z</time>
      </trkpt>
      <trkpt lat="40.490749" lon="0.023344">
        <ele>660.075</ele>
        <time>2018-03-13T14:56:04Z</time>
      </trkpt>
      <trkpt lat="40.490675" lon="0.023339">
        <ele>660.183</ele>
        <time>2018-03-13T14:56:02Z</time>
      </trkpt>
      <trkpt lat="40.490457" lon="0.023313">
        <ele>660.076</ele>
        <time>2018-03-13T14:55:56Z</time>
      </trkpt>
      <trkpt lat="40.490055" lon="0.023304">
        <ele>660.063</ele>
        <time>2018-03-13T14:55:44Z</time>
      </trkpt>
      <trkpt lat="40.489975" lon="0.023298">
        <ele>661.030</ele>
        <time>2018-03-13T14:55:42Z</time>
      </trkpt>
      <trkpt lat="40.489663" lon="0.023260">
        <ele>662.055</ele>
        <time>2018-03-13T14:55:33Z</time>
      </trkpt>
      <trkpt lat="40.489500" lon="0.023243">
        <ele>662.607</ele>
        <time>2018-03-13T14:55:28Z</time>
      </trkpt>
      <trkpt lat="40.489247" lon="0.023205">
        <ele>663.017</ele>
        <time>2018-03-13T14:55:21Z</time>
      </trkpt>
      <trkpt lat="40.489078" lon="0.023176">
        <ele>663.208</ele>
        <time>2018-03-13T14:55:16Z</time>
      </trkpt>
      <trkpt lat="40.488820" lon="0.023143">
        <ele>665.668</ele>
        <time>2018-03-13T14:55:09Z</time>
      </trkpt>
      <trkpt lat="40.488575" lon="0.023106">
        <ele>666.085</ele>
        <time>2018-03-13T14:55:02Z</time>
      </trkpt>
      <trkpt lat="40.488494" lon="0.023092">
        <ele>667.039</ele>
        <time>2018-03-13T14:54:59Z</time>
      </trkpt>
      <trkpt lat="40.488250" lon="0.023060">
        <ele>668.017</ele>
        <time>2018-03-13T14:54:52Z</time>
      </trkpt>
      <trkpt lat="40.488011" lon="0.023033">
        <ele>669.015</ele>
        <time>2018-03-13T14:54:46Z</time>
      </trkpt>
      <trkpt lat="40.487777" lon="0.023014">
        <ele>669.298</ele>
        <time>2018-03-13T14:54:39Z</time>
      </trkpt>
      <trkpt lat="40.487622" lon="0.023008">
        <ele>670.055</ele>
        <time>2018-03-13T14:54:35Z</time>
      </trkpt>
      <trkpt lat="40.487388" lon="0.022966">
        <ele>671.032</ele>
        <time>2018-03-13T14:54:28Z</time>
      </trkpt>
      <trkpt lat="40.487238" lon="0.022926">
        <ele>672.064</ele>
        <time>2018-03-13T14:54:23Z</time>
      </trkpt>
      <trkpt lat="40.487014" lon="0.022871">
        <ele>672.106</ele>
        <time>2018-03-13T14:54:17Z</time>
      </trkpt>
      <trkpt lat="40.486736" lon="0.022893">
        <ele>673.016</ele>
        <time>2018-03-13T14:54:09Z</time>
      </trkpt>
      <trkpt lat="40.486539" lon="0.022895">
        <ele>674.008</ele>
        <time>2018-03-13T14:54:03Z</time>
      </trkpt>
      <trkpt lat="40.486352" lon="0.022867">
        <ele>675.019</ele>
        <time>2018-03-13T14:53:58Z</time>
      </trkpt>
      <trkpt lat="40.486233" lon="0.022837">
        <ele>675.086</ele>
        <time>2018-03-13T14:53:55Z</time>
      </trkpt>
      <trkpt lat="40.486060" lon="0.022764">
        <ele>675.350</ele>
        <time>2018-03-13T14:53:49Z</time>
      </trkpt>
      <trkpt lat="40.485874" lon="0.022686">
        <ele>675.328</ele>
        <time>2018-03-13T14:53:44Z</time>
      </trkpt>
      <trkpt lat="40.485739" lon="0.022651">
        <ele>675.176</ele>
        <time>2018-03-13T14:53:40Z</time>
      </trkpt>
      <trkpt lat="40.485172" lon="0.022496">
        <ele>678.039</ele>
        <time>2018-03-13T14:53:23Z</time>
      </trkpt>
      <trkpt lat="40.484619" lon="0.022341">
        <ele>678.046</ele>
        <time>2018-03-13T14:53:07Z</time>
      </trkpt>
      <trkpt lat="40.484423" lon="0.022276">
        <ele>679.063</ele>
        <time>2018-03-13T14:53:01Z</time>
      </trkpt>
      <trkpt lat="40.484374" lon="0.022257">
        <ele>679.042</ele>
        <time>2018-03-13T14:53:00Z</time>
      </trkpt>
      <trkpt lat="40.484011" lon="0.022036">
        <ele>679.622</ele>
        <time>2018-03-13T14:52:49Z</time>
      </trkpt>
      <trkpt lat="40.483764" lon="0.021788">
        <ele>680.014</ele>
        <time>2018-03-13T14:52:40Z</time>
      </trkpt>
      <trkpt lat="40.483717" lon="0.021759">
        <ele>680.008</ele>
        <time>2018-03-13T14:52:38Z</time>
      </trkpt>
      <trkpt lat="40.483472" lon="0.021659">
        <ele>679.517</ele>
        <time>2018-03-13T14:52:31Z</time>
      </trkpt>
      <trkpt lat="40.483323" lon="0.021586">
        <ele>679.524</ele>
        <time>2018-03-13T14:52:26Z</time>
      </trkpt>
      <trkpt lat="40.483275" lon="0.021549">
        <ele>680.068</ele>
        <time>2018-03-13T14:52:25Z</time>
      </trkpt>
      <trkpt lat="40.483141" lon="0.021408">
        <ele>680.056</ele>
        <time>2018-03-13T14:52:20Z</time>
      </trkpt>
      <trkpt lat="40.482632" lon="0.021071">
        <ele>681.914</ele>
        <time>2018-03-13T14:52:04Z</time>
      </trkpt>
      <trkpt lat="40.482401" lon="0.020979">
        <ele>681.517</ele>
        <time>2018-03-13T14:51:57Z</time>
      </trkpt>
      <trkpt lat="40.482248" lon="0.020937">
        <ele>681.184</ele>
        <time>2018-03-13T14:51:52Z</time>
      </trkpt>
      <trkpt lat="40.481710" lon="0.020803">
        <ele>682.071</ele>
        <time>2018-03-13T14:51:37Z</time>
      </trkpt>
      <trkpt lat="40.481152" lon="0.020651">
        <ele>682.045</ele>
        <time>2018-03-13T14:51:20Z</time>
      </trkpt>
      <trkpt lat="40.480883" lon="0.020560">
        <ele>682.047</ele>
        <time>2018-03-13T14:51:13Z</time>
      </trkpt>
      <trkpt lat="40.480360" lon="0.020377">
        <ele>683.011</ele>
        <time>2018-03-13T14:50:57Z</time>
      </trkpt>
      <trkpt lat="40.480237" lon="0.020330">
        <ele>683.008</ele>
        <time>2018-03-13T14:50:53Z</time>
      </trkpt>
      <trkpt lat="40.480000" lon="0.020237">
        <ele>683.037</ele>
        <time>2018-03-13T14:50:46Z</time>
      </trkpt>
      <trkpt lat="40.479432" lon="0.020119">
        <ele>682.034</ele>
        <time>2018-03-13T14:50:30Z</time>
      </trkpt>
      <trkpt lat="40.479227" lon="0.020087">
        <ele>682.058</ele>
        <time>2018-03-13T14:50:24Z</time>
      </trkpt>
      <trkpt lat="40.478838" lon="0.020009">
        <ele>682.086</ele>
        <time>2018-03-13T14:50:13Z</time>
      </trkpt>
      <trkpt lat="40.478805" lon="0.020003">
        <ele>682.044</ele>
        <time>2018-03-13T14:50:12Z</time>
      </trkpt>
      <trkpt lat="40.478655" lon="0.019973">
        <ele>682.527</ele>
        <time>2018-03-13T14:50:08Z</time>
      </trkpt>
      <trkpt lat="40.478572" lon="0.019966">
        <ele>682.194</ele>
        <time>2018-03-13T14:50:05Z</time>
      </trkpt>
      <trkpt lat="40.478495" lon="0.019958">
        <ele>682.021</ele>
        <time>2018-03-13T14:50:03Z</time>
      </trkpt>
      <trkpt lat="40.478477" lon="0.019954">
        <ele>682.096</ele>
        <time>2018-03-13T14:50:03Z</time>
      </trkpt>
      <trkpt lat="40.478410" lon="0.019971">
        <ele>682.031</ele>
        <time>2018-03-13T14:50:01Z</time>
      </trkpt>
      <trkpt lat="40.478404" lon="0.019968">
        <ele>682.024</ele>
        <time>2018-03-13T14:50:00Z</time>
      </trkpt>
      <trkpt lat="40.478262" lon="0.019914">
        <ele>682.008</ele>
        <time>2018-03-13T14:49:56Z</time>
      </trkpt>
      <trkpt lat="40.478137" lon="0.019913">
        <ele>681.812</ele>
        <time>2018-03-13T14:49:53Z</time>
      </trkpt>
      <trkpt lat="40.478072" lon="0.019958">
        <ele>681.079</ele>
        <time>2018-03-13T14:49:51Z</time>
      </trkpt>
      <trkpt lat="40.478056" lon="0.019984">
        <ele>681.043</ele>
        <time>2018-03-13T14:49:50Z</time>
      </trkpt>
      <trkpt lat="40.477898" lon="0.020293">
        <ele>679.061</ele>
        <time>2018-03-13T14:49:42Z</time>
      </trkpt>
      <trkpt lat="40.477843" lon="0.020397">
        <ele>678.839</ele>
        <time>2018-03-13T14:49:39Z</time>
      </trkpt>
      <trkpt lat="40.477792" lon="0.020474">
        <ele>678.092</ele>
        <time>2018-03-13T14:49:37Z</time>
      </trkpt>
      <trkpt lat="40.477719" lon="0.020635">
        <ele>677.069</ele>
        <time>2018-03-13T14:49:33Z</time>
      </trkpt>
      <trkpt lat="40.477609" lon="0.020852">
        <ele>676.076</ele>
        <time>2018-03-13T14:49:27Z</time>
      </trkpt>
      <trkpt lat="40.477463" lon="0.021155">
        <ele>676.054</ele>
        <time>2018-03-13T14:49:19Z</time>
      </trkpt>
      <trkpt lat="40.477351" lon="0.021393">
        <ele>675.056</ele>
        <time>2018-03-13T14:49:13Z</time>
      </trkpt>
      <trkpt lat="40.477289" lon="0.021512">
        <ele>674.011</ele>
        <time>2018-03-13T14:49:10Z</time>
      </trkpt>
      <trkpt lat="40.477258" lon="0.021573">
        <ele>673.708</ele>
        <time>2018-03-13T14:49:08Z</time>
      </trkpt>
      <trkpt lat="40.477182" lon="0.021727">
        <ele>672.058</ele>
        <time>2018-03-13T14:49:04Z</time>
      </trkpt>
      <trkpt lat="40.477111" lon="0.021854">
        <ele>671.985</ele>
        <time>2018-03-13T14:49:01Z</time>
      </trkpt>
      <trkpt lat="40.477077" lon="0.021923">
        <ele>671.079</ele>
        <time>2018-03-13T14:48:59Z</time>
      </trkpt>
      <trkpt lat="40.477007" lon="0.022068">
        <ele>671.057</ele>
        <time>2018-03-13T14:48:55Z</time>
      </trkpt>
      <trkpt lat="40.476865" lon="0.022318">
        <ele>670.085</ele>
        <time>2018-03-13T14:48:49Z</time>
      </trkpt>
      <trkpt lat="40.476742" lon="0.022553">
        <ele>669.058</ele>
        <time>2018-03-13T14:48:42Z</time>
      </trkpt>
      <trkpt lat="40.476623" lon="0.022788">
        <ele>668.015</ele>
        <time>2018-03-13T14:48:36Z</time>
      </trkpt>
      <trkpt lat="40.476608" lon="0.022816">
        <ele>667.862</ele>
        <time>2018-03-13T14:48:36Z</time>
      </trkpt>
      <trkpt lat="40.476565" lon="0.022901">
        <ele>668.021</ele>
        <time>2018-03-13T14:48:33Z</time>
      </trkpt>
      <trkpt lat="40.476505" lon="0.023021">
        <ele>667.041</ele>
        <time>2018-03-13T14:48:30Z</time>
      </trkpt>
      <trkpt lat="40.476409" lon="0.023200">
        <ele>665.405</ele>
        <time>2018-03-13T14:48:26Z</time>
      </trkpt>
      <trkpt lat="40.476375" lon="0.023256">
        <ele>664.908</ele>
        <time>2018-03-13T14:48:24Z</time>
      </trkpt>
      <trkpt lat="40.476345" lon="0.023312">
        <ele>665.035</ele>
        <time>2018-03-13T14:48:22Z</time>
      </trkpt>
      <trkpt lat="40.476307" lon="0.023395">
        <ele>665.072</ele>
        <time>2018-03-13T14:48:20Z</time>
      </trkpt>
      <trkpt lat="40.476239" lon="0.023545">
        <ele>665.046</ele>
        <time>2018-03-13T14:48:17Z</time>
      </trkpt>
      <trkpt lat="40.476219" lon="0.023609">
        <ele>665.014</ele>
        <time>2018-03-13T14:48:15Z</time>
      </trkpt>
      <trkpt lat="40.476177" lon="0.023755">
        <ele>663.572</ele>
        <time>2018-03-13T14:48:12Z</time>
      </trkpt>
      <trkpt lat="40.475875" lon="0.023926">
        <ele>662.065</ele>
        <time>2018-03-13T14:48:02Z</time>
      </trkpt>
      <trkpt lat="40.475746" lon="0.023914">
        <ele>662.072</ele>
        <time>2018-03-13T14:47:59Z</time>
      </trkpt>
      <trkpt lat="40.475558" lon="0.023873">
        <ele>662.099</ele>
        <time>2018-03-13T14:47:53Z</time>
      </trkpt>
      <trkpt lat="40.475213" lon="0.023798">
        <ele>661.029</ele>
        <time>2018-03-13T14:47:43Z</time>
      </trkpt>
      <trkpt lat="40.474915" lon="0.023732">
        <ele>660.000</ele>
        <time>2018-03-13T14:47:35Z</time>
      </trkpt>
      <trkpt lat="40.474823" lon="0.023717">
        <ele>660.020</ele>
        <time>2018-03-13T14:47:32Z</time>
      </trkpt>
      <trkpt lat="40.474790" lon="0.023715">
        <ele>660.008</ele>
        <time>2018-03-13T14:47:31Z</time>
      </trkpt>
      <trkpt lat="40.474225" lon="0.023629">
        <ele>659.075</ele>
        <time>2018-03-13T14:47:15Z</time>
      </trkpt>
      <trkpt lat="40.474112" lon="0.023618">
        <ele>659.022</ele>
        <time>2018-03-13T14:47:12Z</time>
      </trkpt>
      <trkpt lat="40.473993" lon="0.023600">
        <ele>659.056</ele>
        <time>2018-03-13T14:47:08Z</time>
      </trkpt>
      <trkpt lat="40.473836" lon="0.023573">
        <ele>658.074</ele>
        <time>2018-03-13T14:47:04Z</time>
      </trkpt>
      <trkpt lat="40.473727" lon="0.023561">
        <ele>658.092</ele>
        <time>2018-03-13T14:47:00Z</time>
      </trkpt>
      <trkpt lat="40.473661" lon="0.023563">
        <ele>657.695</ele>
        <time>2018-03-13T14:46:59Z</time>
      </trkpt>
      <trkpt lat="40.473444" lon="0.023526">
        <ele>657.062</ele>
        <time>2018-03-13T14:46:52Z</time>
      </trkpt>
      <trkpt lat="40.473351" lon="0.023498">
        <ele>657.099</ele>
        <time>2018-03-13T14:46:50Z</time>
      </trkpt>
      <trkpt lat="40.473165" lon="0.023459">
        <ele>657.097</ele>
        <time>2018-03-13T14:46:44Z</time>
      </trkpt>
      <trkpt lat="40.472904" lon="0.023439">
        <ele>656.423</ele>
        <time>2018-03-13T14:46:37Z</time>
      </trkpt>
      <trkpt lat="40.472884" lon="0.023432">
        <ele>656.325</ele>
        <time>2018-03-13T14:46:36Z</time>
      </trkpt>
      <trkpt lat="40.472807" lon="0.023412">
        <ele>656.008</ele>
        <time>2018-03-13T14:46:34Z</time>
      </trkpt>
      <trkpt lat="40.472809" lon="0.023412">
        <ele>656.022</ele>
        <time>2018-03-13T14:46:34Z</time>
      </trkpt>
      <trkpt lat="40.472800" lon="0.023411">
        <ele>656.159</ele>
        <time>2018-03-13T14:46:34Z</time>
      </trkpt>
      <trkpt lat="40.472752" lon="0.023429">
        <ele>656.063</ele>
        <time>2018-03-13T14:46:32Z</time>
      </trkpt>
      <trkpt lat="40.472502" lon="0.023381">
        <ele>657.031</ele>
        <time>2018-03-13T14:46:25Z</time>
      </trkpt>
      <trkpt lat="40.472357" lon="0.023336">
        <ele>657.069</ele>
        <time>2018-03-13T14:46:21Z</time>
      </trkpt>
      <trkpt lat="40.472307" lon="0.023324">
        <ele>657.042</ele>
        <time>2018-03-13T14:46:19Z</time>
      </trkpt>
      <trkpt lat="40.471933" lon="0.023176">
        <ele>657.059</ele>
        <time>2018-03-13T14:46:08Z</time>
      </trkpt>
      <trkpt lat="40.471618" lon="0.022950">
        <ele>657.036</ele>
        <time>2018-03-13T14:45:58Z</time>
      </trkpt>
      <trkpt lat="40.471456" lon="0.022799">
        <ele>657.091</ele>
        <time>2018-03-13T14:45:52Z</time>
      </trkpt>
      <trkpt lat="40.471378" lon="0.022726">
        <ele>656.981</ele>
        <time>2018-03-13T14:45:50Z</time>
      </trkpt>
      <trkpt lat="40.471307" lon="0.022661">
        <ele>657.019</ele>
        <time>2018-03-13T14:45:47Z</time>
      </trkpt>
      <trkpt lat="40.471238" lon="0.022592">
        <ele>657.008</ele>
        <time>2018-03-13T14:45:45Z</time>
      </trkpt>
      <trkpt lat="40.471053" lon="0.022405">
        <ele>656.332</ele>
        <time>2018-03-13T14:45:38Z</time>
      </trkpt>
      <trkpt lat="40.470915" lon="0.022292">
        <ele>656.029</ele>
        <time>2018-03-13T14:45:26Z</time>
      </trkpt>
      <trkpt lat="40.470890" lon="0.022151">
        <ele>656.753</ele>
        <time>2018-11-11T02:09:40Z</time>
      </trkpt>
      <trkpt lat="40.470691" lon="0.021947">
        <ele>655.471</ele>
        <time>2018-11-11T02:10:00Z</time>
      </trkpt>
      <trkpt lat="40.470446" lon="0.021633">
        <ele>654.569</ele>
        <time>2018-11-11T02:10:20Z</time>
      </trkpt>
      <trkpt lat="40.470228" lon="0.021389">
        <ele>653.662</ele>
        <time>2018-11-11T02:10:40Z</time>
      </trkpt>
      <trkpt lat="40.470008" lon="0.021101">
        <ele>653.219</ele>
        <time>2018-11-11T02:11:00Z</time>
      </trkpt>
      <trkpt lat="40.469844" lon="0.020849">
        <ele>652.566</ele>
        <time>2018-11-11T02:11:20Z</time>
      </trkpt>
      <trkpt lat="40.469646" lon="0.020610">
        <ele>652.012</ele>
        <time>2018-11-11T02:11:40Z</time>
      </trkpt>
      <trkpt lat="40.469467" lon="0.020375">
        <ele>652.132</ele>
        <time>2018-11-11T02:12:00Z</time>
      </trkpt>
      <trkpt lat="40.469386" lon="0.020232">
        <ele>651.805</ele>
        <time>2018-11-11T02:12:20Z</time>
      </trkpt>
      <trkpt lat="40.469296" lon="0.020092">
        <ele>651.008</ele>
        <time>2018-11-11T02:12:40Z</time>
      </trkpt>
      <trkpt lat="40.469224" lon="0.019991">
        <ele>650.384</ele>
        <time>2018-11-11T02:13:00Z</time>
      </trkpt>
      <trkpt lat="40.469164" lon="0.019898">
        <ele>649.711</ele>
        <time>2018-11-11T02:13:20Z</time>
      </trkpt>
      <trkpt lat="40.469118" lon="0.019822">
        <ele>649.325</ele>
        <time>2018-11-11T02:13:40Z</time>
      </trkpt>
      <trkpt lat="40.469031" lon="0.019773">
        <ele>648.953</ele>
        <time>2018-11-11T02:14:00Z</time>
      </trkpt>
      <trkpt lat="40.468931" lon="0.019671">
        <ele>649.091</ele>
        <time>2018-11-11T02:14:20Z</time>
      </trkpt>
      <trkpt lat="40.468774" lon="0.019609">
        <ele>649.784</ele>
        <time>2018-11-11T02:14:40Z</time>
      </trkpt>
      <trkpt lat="40.468610" lon="0.019528">
        <ele>650.231</ele>
        <time>2018-11-11T02:15:00Z</time>
      </trkpt>
      <trkpt lat="40.468352" lon="0.019398">
        <ele>650.818</ele>
        <time>2018-11-11T02:15:20Z</time>
      </trkpt>
      <trkpt lat="40.468046" lon="0.019245">
        <ele>651.843</ele>
        <time>2018-11-11T02:15:40Z</time>
      </trkpt>
      <trkpt lat="40.467678" lon="0.019037">
        <ele>652.664</ele>
        <time>2018-11-11T02:16:00Z</time>
      </trkpt>
      <trkpt lat="40.467337" lon="0.018827">
        <ele>653.410</ele>
        <time>2018-11-11T02:16:20Z</time>
      </trkpt>
      <trkpt lat="40.467079" lon="0.018787">
        <ele>653.508</ele>
        <time>2018-11-11T02:16:40Z</time>
      </trkpt>
      <trkpt lat="40.466568" lon="0.018698">
        <ele>653.997</ele>
        <time>2018-11-11T02:17:00Z</time>
      </trkpt>
      <trkpt lat="40.465968" lon="0.018593">
        <ele>654.484</ele>
        <time>2018-11-11T02:17:20Z</time>
      </trkpt>
      <trkpt lat="40.465526" lon="0.018530">
        <ele>653.918</ele>
        <time>2018-11-11T02:17:40Z</time>
      </trkpt>
      <trkpt lat="40.465218" lon="0.018482">
        <ele>653.856</ele>
        <time>2018-11-11T02:18:00Z</time>
      </trkpt>
      <trkpt lat="40.464456" lon="0.018329">
        <ele>655.084</ele>
        <time>2018-11-11T02:18:20Z</time>
      </trkpt>
      <trkpt lat="40.463878" lon="0.018088">
        <ele>655.557</ele>
        <time>2018-11-11T02:18:40Z</time>
      </trkpt>
      <trkpt lat="40.463173" lon="0.017690">
        <ele>654.594</ele>
        <time>2018-11-11T02:19:00Z</time>
      </trkpt>
      <trkpt lat="40.462885" lon="0.017411">
        <ele>653.871</ele>
        <time>2018-11-11T02:19:20Z</time>
      </trkpt>
      <trkpt lat="40.462777" lon="0.017316">
        <ele>653.765</ele>
        <time>2018-11-11T02:19:40Z</time>
      </trkpt>
      <trkpt lat="40.462554" lon="0.017069">
        <ele>652.968</ele>
        <time>2018-11-11T02:20:00Z</time>
      </trkpt>
      <trkpt lat="40.462337" lon="0.016840">
        <ele>652.714</ele>
        <time>2018-11-11T02:20:20Z</time>
      </trkpt>
      <trkpt lat="40.461421" lon="0.015821">
        <ele>650.808</ele>
        <time>2018-11-11T02:20:40Z</time>
      </trkpt>
      <trkpt lat="40.460987" lon="0.015285">
        <ele>649.919</ele>
        <time>2018-11-11T02:21:00Z</time>
      </trkpt>
      <trkpt lat="40.460450" lon="0.014432">
        <ele>648.886</ele>
        <time>2018-11-11T02:21:20Z</time>
      </trkpt>
      <trkpt lat="40.459993" lon="0.013859">
        <ele>649.950</ele>
        <time>2018-11-11T02:21:40Z</time>
      </trkpt>
      <trkpt lat="40.459128" lon="0.013021">
        <ele>654.748</ele>
        <time>2018-11-11T02:22:00Z</time>
      </trkpt>
      <trkpt lat="40.458674" lon="0.012683">
        <ele>651.256</ele>
        <time>2018-11-11T02:22:20Z</time>
      </trkpt>
      <trkpt lat="40.458291" lon="0.011653">
        <ele>646.889</ele>
        <time>2018-11-11T02:22:40Z</time>
      </trkpt>
      <trkpt lat="40.457902" lon="0.010153">
        <ele>641.926</ele>
        <time>2018-11-11T02:23:00Z</time>
      </trkpt>
      <trkpt lat="40.457727" lon="0.011063">
        <ele>639.743</ele>
        <time>2018-11-11T02:23:20Z</time>
      </trkpt>
      <trkpt lat="40.457827" lon="0.011413">
        <ele>640.643</ele>
        <time>2018-11-11T02:23:40Z</time>
      </trkpt>
      <trkpt lat="40.457976" lon="0.012072">
        <ele>642.364</ele>
        <time>2018-11-11T02:24:00Z</time>
      </trkpt>
      <trkpt lat="40.458216" lon="0.012912">
        <ele>644.710</ele>
        <time>2018-11-11T02:24:20Z</time>
      </trkpt>
      <trkpt lat="40.458372" lon="0.013505">
        <ele>646.208</ele>
        <time>2018-11-11T02:24:40Z</time>
      </trkpt>
      <trkpt lat="40.458449" lon="0.013812">
        <ele>646.177</ele>
        <time>2018-11-11T02:25:00Z</time>
      </trkpt>
      <trkpt lat="40.458513" lon="0.013989">
        <ele>645.724</ele>
        <time>2018-11-11T02:25:20Z</time>
      </trkpt>
      <trkpt lat="40.458577" lon="0.014155">
        <ele>645.058</ele>
        <time>2018-11-11T02:25:40Z</time>
      </trkpt>
      <trkpt lat="40.458586" lon="0.014335">
        <ele>643.756</ele>
        <time>2018-11-11T02:26:00Z</time>
      </trkpt>
      <trkpt lat="40.458424" lon="0.014410">
        <ele>642.264</ele>
        <time>2018-11-11T02:26:20Z</time>
      </trkpt>
      <trkpt lat="40.458096" lon="0.014515">
        <ele>640.117</ele>
        <time>2018-11-11T02:26:40Z</time>
      </trkpt>
      <trkpt lat="40.457642" lon="0.014623">
        <ele>638.274</ele>
        <time>2018-11-11T02:27:00Z</time>
      </trkpt>
      <trkpt lat="40.457323" lon="0.014729">
        <ele>637.291</ele>
        <time>2018-11-11T02:27:20Z</time>
      </trkpt>
      <trkpt lat="40.456930" lon="0.014846">
        <ele>635.467</ele>
        <time>2018-11-11T02:27:40Z</time>
      </trkpt>
      <trkpt lat="40.456640" lon="0.014857">
        <ele>633.781</ele>
        <time>2018-11-11T02:28:00Z</time>
      </trkpt>
      <trkpt lat="40.456204" lon="0.014867">
        <ele>629.519</ele>
        <time>2018-11-11T02:28:20Z</time>
      </trkpt>
      <trkpt lat="40.455885" lon="0.014884">
        <ele>627.208</ele>
        <time>2018-11-11T02:28:40Z</time>
      </trkpt>
      <trkpt lat="40.455454" lon="0.014964">
        <ele>624.989</ele>
        <time>2018-11-11T02:29:00Z</time>
      </trkpt>
      <trkpt lat="40.455246" lon="0.015043">
        <ele>623.146</ele>
        <time>2018-11-11T02:29:20Z</time>
      </trkpt>
      <trkpt lat="40.455088" lon="0.015086">
        <ele>621.730</ele>
        <time>2018-11-11T02:29:40Z</time>
      </trkpt>
      <trkpt lat="40.455012" lon="0.015297">
        <ele>620.688</ele>
        <time>2018-11-11T02:30:00Z</time>
      </trkpt>
      <trkpt lat="40.454960" lon="0.015623">
        <ele>619.986</ele>
        <time>2018-11-11T02:30:20Z</time>
      </trkpt>
      <trkpt lat="40.454899" lon="0.015959">
        <ele>619.069</ele>
        <time>2018-11-11T02:30:40Z</time>
      </trkpt>
      <trkpt lat="40.454889" lon="0.016315">
        <ele>617.656</ele>
        <time>2018-11-11T02:31:00Z</time>
      </trkpt>
      <trkpt lat="40.454840" lon="0.016619">
        <ele>614.223</ele>
        <time>2018-11-11T02:31:20Z</time>
      </trkpt>
      <trkpt lat="40.454818" lon="0.017006">
        <ele>613.583</ele>
        <time>2018-11-11T02:31:40Z</time>
      </trkpt>
      <trkpt lat="40.454718" lon="0.017359">
        <ele>614.925</ele>
        <time>2018-11-11T02:32:00Z</time>
      </trkpt>
      <trkpt lat="40.454630" lon="0.017691">
        <ele>616.017</ele>
        <time>2018-11-11T02:32:20Z</time>
      </trkpt>
      <trkpt lat="40.454701" lon="0.018059">
        <ele>615.808</ele>
        <time>2018-11-11T02:32:40Z</time>
      </trkpt>
      <trkpt lat="40.454866" lon="0.018475">
        <ele>614.871</ele>
        <time>2018-11-11T02:33:00Z</time>
      </trkpt>
      <trkpt lat="40.455073" lon="0.019020">
        <ele>611.658</ele>
        <time>2018-11-11T02:33:20Z</time>
      </trkpt>
      <trkpt lat="40.455193" lon="0.019519">
        <ele>609.352</ele>
        <time>2018-11-11T02:33:40Z</time>
      </trkpt>
      <trkpt lat="40.455290" lon="0.019813">
        <ele>608.760</ele>
        <time>2018-11-11T02:34:00Z</time>
      </trkpt>
      <trkpt lat="40.455343" lon="0.019968">
        <ele>608.728</ele>
        <time>2018-11-11T02:34:20Z</time>
      </trkpt>
      <trkpt lat="40.455316" lon="0.020234">
        <ele>606.951</ele>
        <time>2018-11-11T02:34:40Z</time>
      </trkpt>
      <trkpt lat="40.455189" lon="0.020412">
        <ele>604.048</ele>
        <time>2018-11-11T02:35:00Z</time>
      </trkpt>
      <trkpt lat="40.455012" lon="0.020400">
        <ele>604.345</ele>
        <time>2018-09-29T08:09:37Z</time>
      </trkpt>
      <trkpt lat="40.454975" lon="0.020391">
        <ele>604.879</ele>
        <time>2018-09-29T08:09:38Z</time>
      </trkpt>
      <trkpt lat="40.454693" lon="0.020370">
        <ele>604.805</ele>
        <time>2018-09-29T08:09:45Z</time>
      </trkpt>
      <trkpt lat="40.454453" lon="0.020451">
        <ele>606.225</ele>
        <time>2018-09-29T08:09:52Z</time>
      </trkpt>
      <trkpt lat="40.454224" lon="0.020527">
        <ele>606.208</ele>
        <time>2018-09-29T08:10:00Z</time>
      </trkpt>
      <trkpt lat="40.454064" lon="0.020661">
        <ele>606.230</ele>
        <time>2018-09-29T08:10:05Z</time>
      </trkpt>
      <trkpt lat="40.453950" lon="0.020772">
        <ele>605.227</ele>
        <time>2018-09-29T08:10:08Z</time>
      </trkpt>
      <trkpt lat="40.453857" lon="0.020836">
        <ele>604.831</ele>
        <time>2018-09-29T08:10:10Z</time>
      </trkpt>
      <trkpt lat="40.453805" lon="0.020859">
        <ele>604.339</ele>
        <time>2018-09-29T08:10:11Z</time>
      </trkpt>
      <trkpt lat="40.453696" lon="0.020892">
        <ele>604.317</ele>
        <time>2018-09-29T08:10:13Z</time>
      </trkpt>
      <trkpt lat="40.453640" lon="0.020895">
        <ele>603.850</ele>
        <time>2018-09-29T08:10:14Z</time>
      </trkpt>
      <trkpt lat="40.453584" lon="0.020891">
        <ele>603.887</ele>
        <time>2018-09-29T08:10:15Z</time>
      </trkpt>
      <trkpt lat="40.453155" lon="0.020766">
        <ele>602.854</ele>
        <time>2018-09-29T08:10:23Z</time>
      </trkpt>
      <trkpt lat="40.452712" lon="0.020585">
        <ele>602.447</ele>
        <time>2018-09-29T08:10:32Z</time>
      </trkpt>
      <trkpt lat="40.452196" lon="0.020443">
        <ele>601.429</ele>
        <time>2018-09-29T08:10:42Z</time>
      </trkpt>
      <trkpt lat="40.451661" lon="0.020272">
        <ele>600.921</ele>
        <time>2018-09-29T08:10:52Z</time>
      </trkpt>
      <trkpt lat="40.451204" lon="0.020053">
        <ele>600.908</ele>
        <time>2018-09-29T08:11:01Z</time>
      </trkpt>
      <trkpt lat="40.450744" lon="0.020009">
        <ele>600.057</ele>
        <time>2018-09-29T08:11:10Z</time>
      </trkpt>
      <trkpt lat="40.450266" lon="0.020114">
        <ele>599.514</ele>
        <time>2018-09-29T08:11:19Z</time>
      </trkpt>
      <trkpt lat="40.449917" lon="0.020293">
        <ele>598.048</ele>
        <time>2018-09-29T08:11:26Z</time>
      </trkpt>
      <trkpt lat="40.449870" lon="0.020327">
        <ele>598.056</ele>
        <time>2018-09-29T08:11:27Z</time>
      </trkpt>
      <trkpt lat="40.449694" lon="0.020518">
        <ele>597.194</ele>
        <time>2018-09-29T08:11:31Z</time>
      </trkpt>
      <trkpt lat="40.449659" lon="0.020582">
        <ele>597.157</ele>
        <time>2018-09-29T08:11:32Z</time>
      </trkpt>
      <trkpt lat="40.449337" lon="0.021132">
        <ele>595.644</ele>
        <time>2018-09-29T08:11:40Z</time>
      </trkpt>
      <trkpt lat="40.449161" lon="0.021453">
        <ele>595.621</ele>
        <time>2018-09-29T08:11:45Z</time>
      </trkpt>
      <trkpt lat="40.449118" lon="0.021601">
        <ele>595.697</ele>
        <time>2018-09-29T08:11:47Z</time>
      </trkpt>
      <trkpt lat="40.449105" lon="0.021671">
        <ele>595.623</ele>
        <time>2018-09-29T08:11:48Z</time>
      </trkpt>
      <trkpt lat="40.449087" lon="0.021810">
        <ele>597.125</ele>
        <time>2018-09-29T08:11:50Z</time>
      </trkpt>
      <trkpt lat="40.449088" lon="0.022321">
        <ele>597.108</ele>
        <time>2018-09-29T08:11:58Z</time>
      </trkpt>
      <trkpt lat="40.449055" lon="0.022843">
        <ele>593.722</ele>
        <time>2018-09-29T08:12:04Z</time>
      </trkpt>
      <trkpt lat="40.449026" lon="0.022947">
        <ele>592.359</ele>
        <time>2018-09-29T08:12:05Z</time>
      </trkpt>
      <trkpt lat="40.448980" lon="0.023055">
        <ele>591.843</ele>
        <time>2018-09-29T08:12:06Z</time>
      </trkpt>
      <trkpt lat="40.448816" lon="0.023384">
        <ele>589.421</ele>
        <time>2018-09-29T08:12:09Z</time>
      </trkpt>
      <trkpt lat="40.448775" lon="0.023486">
        <ele>589.439</ele>
        <time>2018-09-29T08:12:10Z</time>
      </trkpt>
      <trkpt lat="40.448742" lon="0.023588">
        <ele>589.422</ele>
        <time>2018-09-29T08:12:11Z</time>
      </trkpt>
      <trkpt lat="40.448721" lon="0.023674">
        <ele>589.479</ele>
        <time>2018-09-29T08:12:12Z</time>
      </trkpt>
      <trkpt lat="40.448658" lon="0.024024">
        <ele>591.376</ele>
        <time>2018-09-29T08:12:17Z</time>
      </trkpt>
      <trkpt lat="40.448651" lon="0.024102">
        <ele>591.379</ele>
        <time>2018-09-29T08:12:18Z</time>
      </trkpt>
      <trkpt lat="40.448649" lon="0.024684">
        <ele>591.305</ele>
        <time>2018-09-29T08:12:25Z</time>
      </trkpt>
      <trkpt lat="40.448654" lon="0.025012">
        <ele>589.925</ele>
        <time>2018-09-29T08:12:29Z</time>
      </trkpt>
      <trkpt lat="40.448672" lon="0.025799">
        <ele>587.508</ele>
        <time>2018-09-29T08:12:37Z</time>
      </trkpt>
      <trkpt lat="40.448699" lon="0.026497">
        <ele>587.040</ele>
        <time>2018-09-29T08:12:45Z</time>
      </trkpt>
      <trkpt lat="40.448662" lon="0.027055">
        <ele>587.087</ele>
        <time>2018-09-29T08:12:53Z</time>
      </trkpt>
      <trkpt lat="40.448648" lon="0.027119">
        <ele>587.061</ele>
        <time>2018-09-29T08:12:54Z</time>
      </trkpt>
      <trkpt lat="40.448609" lon="0.027243">
        <ele>586.579</ele>
        <time>2018-09-29T08:12:56Z</time>
      </trkpt>
      <trkpt lat="40.448530" lon="0.027425">
        <ele>586.547</ele>
        <time>2018-09-29T08:12:59Z</time>
      </trkpt>
      <trkpt lat="40.448254" lon="0.027834">
        <ele>585.570</ele>
        <time>2018-09-29T08:13:07Z</time>
      </trkpt>
      <trkpt lat="40.447959" lon="0.028278">
        <ele>588.477</ele>
        <time>2018-09-29T08:13:15Z</time>
      </trkpt>
      <trkpt lat="40.447711" lon="0.028799">
        <ele>589.974</ele>
        <time>2018-09-29T08:13:24Z</time>
      </trkpt>
      <trkpt lat="40.447667" lon="0.028910">
        <ele>589.911</ele>
        <time>2018-09-29T08:13:26Z</time>
      </trkpt>
      <trkpt lat="40.447589" lon="0.029404">
        <ele>591.821</ele>
        <time>2018-09-29T08:13:34Z</time>
      </trkpt>
      <trkpt lat="40.447579" lon="0.029651">
        <ele>593.203</ele>
        <time>2018-09-29T08:13:38Z</time>
      </trkpt>
      <trkpt lat="40.447601" lon="0.030026">
        <ele>594.208</ele>
        <time>2018-09-29T08:13:46Z</time>
      </trkpt>
      <trkpt lat="40.447702" lon="0.030279">
        <ele>594.284</ele>
        <time>2018-09-29T08:13:52Z</time>
      </trkpt>
      <trkpt lat="40.447886" lon="0.030545">
        <ele>592.751</ele>
        <time>2018-09-29T08:13:58Z</time>
      </trkpt>
      <trkpt lat="40.448267" lon="0.031074">
        <ele>594.285</ele>
        <time>2018-09-29T08:14:10Z</time>
      </trkpt>
      <trkpt lat="40.448570" lon="0.031439">
        <ele>594.293</ele>
        <time>2018-09-29T08:14:19Z</time>
      </trkpt>
      <trkpt lat="40.448654" lon="0.031683">
        <ele>596.631</ele>
        <time>2018-09-29T08:14:25Z</time>
      </trkpt>
      <trkpt lat="40.448573" lon="0.031867">
        <ele>598.514</ele>
        <time>2018-09-29T08:14:30Z</time>
      </trkpt>
      <trkpt lat="40.448307" lon="0.032020">
        <ele>600.921</ele>
        <time>2018-09-29T08:14:38Z</time>
      </trkpt>
      <trkpt lat="40.448003" lon="0.032076">
        <ele>603.358</ele>
        <time>2018-09-29T08:14:47Z</time>
      </trkpt>
      <trkpt lat="40.447814" lon="0.032163">
        <ele>605.239</ele>
        <time>2018-09-29T08:14:53Z</time>
      </trkpt>
      <trkpt lat="40.447680" lon="0.032433">
        <ele>606.201</ele>
        <time>2018-09-29T08:15:00Z</time>
      </trkpt>
      <trkpt lat="40.447517" lon="0.032882">
        <ele>608.621</ele>
        <time>2018-09-29T08:15:11Z</time>
      </trkpt>
      <trkpt lat="40.447310" lon="0.033131">
        <ele>610.508</ele>
        <time>2018-09-29T08:15:19Z</time>
      </trkpt>
      <trkpt lat="40.447082" lon="0.033358">
        <ele>612.596</ele>
        <time>2018-09-29T08:15:28Z</time>
      </trkpt>
      <trkpt lat="40.446795" lon="0.033694">
        <ele>612.093</ele>
        <time>2018-09-29T08:15:39Z</time>
      </trkpt>
      <trkpt lat="40.446416" lon="0.034011">
        <ele>613.937</ele>
        <time>2018-09-29T08:15:51Z</time>
      </trkpt>
      <trkpt lat="40.446071" lon="0.034310">
        <ele>615.835</ele>
        <time>2018-09-29T08:16:02Z</time>
      </trkpt>
      <trkpt lat="40.445873" lon="0.034592">
        <ele>615.873</ele>
        <time>2018-09-29T08:16:10Z</time>
      </trkpt>
      <trkpt lat="40.445858" lon="0.035035">
        <ele>615.866</ele>
        <time>2018-09-29T08:16:19Z</time>
      </trkpt>
      <trkpt lat="40.446021" lon="0.035370">
        <ele>616.313</ele>
        <time>2018-09-29T08:16:27Z</time>
      </trkpt>
      <trkpt lat="40.446142" lon="0.035618">
        <ele>618.250</ele>
        <time>2018-09-29T08:16:34Z</time>
      </trkpt>
      <trkpt lat="40.446103" lon="0.035898">
        <ele>619.716</ele>
        <time>2018-09-29T08:16:41Z</time>
      </trkpt>
      <trkpt lat="40.445912" lon="0.036303">
        <ele>622.576</ele>
        <time>2018-09-29T08:16:52Z</time>
      </trkpt>
      <trkpt lat="40.445890" lon="0.036710">
        <ele>624.513</ele>
        <time>2018-09-29T08:17:02Z</time>
      </trkpt>
      <trkpt lat="40.445888" lon="0.037078">
        <ele>626.408</ele>
        <time>2018-09-29T08:17:11Z</time>
      </trkpt>
      <trkpt lat="40.445857" lon="0.037527">
        <ele>628.314</ele>
        <time>2018-09-29T08:17:21Z</time>
      </trkpt>
      <trkpt lat="40.445874" lon="0.038036">
        <ele>629.891</ele>
        <time>2018-09-29T08:17:32Z</time>
      </trkpt>
      <trkpt lat="40.445819" lon="0.038489">
        <ele>631.255</ele>
        <time>2018-09-29T08:17:42Z</time>
      </trkpt>
      <trkpt lat="40.445781" lon="0.038997">
        <ele>632.643</ele>
        <time>2018-09-29T08:17:53Z</time>
      </trkpt>
      <trkpt lat="40.445805" lon="0.039343">
        <ele>634.151</ele>
        <time>2018-09-29T08:18:01Z</time>
      </trkpt>
      <trkpt lat="40.445854" lon="0.039662">
        <ele>637.064</ele>
        <time>2018-09-29T08:18:08Z</time>
      </trkpt>
      <trkpt lat="40.445810" lon="0.039873">
        <ele>637.961</ele>
        <time>2018-09-29T08:18:14Z</time>
      </trkpt>
      <trkpt lat="40.445617" lon="0.039963">
        <ele>640.328</ele>
        <time>2018-09-29T08:18:21Z</time>
      </trkpt>
      <trkpt lat="40.445371" lon="0.040041">
        <ele>643.297</ele>
        <time>2018-09-29T08:18:30Z</time>
      </trkpt>
      <trkpt lat="40.445180" lon="0.040185">
        <ele>645.623</ele>
        <time>2018-09-29T08:18:38Z</time>
      </trkpt>
      <trkpt lat="40.445065" lon="0.040384">
        <ele>649.025</ele>
        <time>2018-09-29T08:18:45Z</time>
      </trkpt>
      <trkpt lat="40.445038" lon="0.040670">
        <ele>651.908</ele>
        <time>2018-09-29T08:18:54Z</time>
      </trkpt>
      <trkpt lat="40.445043" lon="0.040856">
        <ele>653.322</ele>
        <time>2018-09-29T08:19:01Z</time>
      </trkpt>
      <trkpt lat="40.445040" lon="0.041109">
        <ele>656.289</ele>
        <time>2018-09-29T08:19:10Z</time>
      </trkpt>
      <trkpt lat="40.444975" lon="0.041349">
        <ele>658.163</ele>
        <time>2018-09-29T08:19:19Z</time>
      </trkpt>
      <trkpt lat="40.444863" lon="0.041670">
        <ele>660.571</ele>
        <time>2018-09-29T08:19:31Z</time>
      </trkpt>
      <trkpt lat="40.444801" lon="0.041848">
        <ele>662.939</ele>
        <time>2018-09-29T08:19:38Z</time>
      </trkpt>
      <trkpt lat="40.444695" lon="0.042099">
        <ele>665.812</ele>
        <time>2018-09-29T08:19:48Z</time>
      </trkpt>
      <trkpt lat="40.444634" lon="0.042275">
        <ele>667.799</ele>
        <time>2018-09-29T08:19:55Z</time>
      </trkpt>
      <trkpt lat="40.444580" lon="0.042518">
        <ele>670.636</ele>
        <time>2018-09-29T08:20:04Z</time>
      </trkpt>
      <trkpt lat="40.444546" lon="0.042825">
        <ele>674.043</ele>
        <time>2018-09-29T08:20:14Z</time>
      </trkpt>
      <trkpt lat="40.444520" lon="0.043054">
        <ele>676.964</ele>
        <time>2018-09-29T08:20:21Z</time>
      </trkpt>
      <trkpt lat="40.444524" lon="0.043203">
        <ele>678.810</ele>
        <time>2018-09-29T08:20:27Z</time>
      </trkpt>
      <trkpt lat="40.444548" lon="0.043240">
        <ele>679.308</ele>
        <time>2018-09-29T08:20:29Z</time>
      </trkpt>
      <trkpt lat="40.444567" lon="0.043244">
        <ele>679.387</ele>
        <time>2018-09-29T08:20:30Z</time>
      </trkpt>
      <trkpt lat="40.444704" lon="0.043169">
        <ele>679.794</ele>
        <time>2018-09-29T08:20:37Z</time>
      </trkpt>
      <trkpt lat="40.444887" lon="0.043107">
        <ele>683.158</ele>
        <time>2018-09-29T08:20:46Z</time>
      </trkpt>
      <trkpt lat="40.444957" lon="0.043177">
        <ele>684.136</ele>
        <time>2018-09-29T08:20:51Z</time>
      </trkpt>
      <trkpt lat="40.444966" lon="0.043300">
        <ele>685.564</ele>
        <time>2018-09-29T08:20:56Z</time>
      </trkpt>
      <trkpt lat="40.445018" lon="0.043360">
        <ele>686.017</ele>
        <time>2018-09-29T08:21:00Z</time>
      </trkpt>
      <trkpt lat="40.445040" lon="0.043364">
        <ele>687.024</ele>
        <time>2018-09-29T08:21:01Z</time>
      </trkpt>
      <trkpt lat="40.445166" lon="0.043342">
        <ele>688.911</ele>
        <time>2018-09-29T08:21:07Z</time>
      </trkpt>
      <trkpt lat="40.445312" lon="0.043339">
        <ele>690.337</ele>
        <time>2018-09-29T08:21:14Z</time>
      </trkpt>
      <trkpt lat="40.445482" lon="0.043340">
        <ele>692.249</ele>
        <time>2018-09-29T08:21:23Z</time>
      </trkpt>
      <trkpt lat="40.445613" lon="0.043356">
        <ele>692.713</ele>
        <time>2018-09-29T08:21:29Z</time>
      </trkpt>
      <trkpt lat="40.445885" lon="0.043371">
        <ele>692.708</ele>
        <time>2018-09-29T08:21:40Z</time>
      </trkpt>
      <trkpt lat="40.446109" lon="0.043369">
        <ele>694.636</ele>
        <time>2018-09-29T08:21:49Z</time>
      </trkpt>
      <trkpt lat="40.446302" lon="0.043456">
        <ele>694.653</ele>
        <time>2018-09-29T08:21:57Z</time>
      </trkpt>
      <trkpt lat="40.446566" lon="0.043563">
        <ele>695.157</ele>
        <time>2018-09-29T08:22:07Z</time>
      </trkpt>
      <trkpt lat="40.446754" lon="0.043622">
        <ele>696.625</ele>
        <time>2018-09-29T08:22:14Z</time>
      </trkpt>
      <trkpt lat="40.446957" lon="0.043687">
        <ele>697.073</ele>
        <time>2018-09-29T08:22:22Z</time>
      </trkpt>
      <trkpt lat="40.447103" lon="0.043733">
        <ele>697.036</ele>
        <time>2018-09-29T08:22:29Z</time>
      </trkpt>
      <trkpt lat="40.447336" lon="0.043760">
        <ele>697.033</ele>
        <time>2018-09-29T08:22:37Z</time>
      </trkpt>
      <trkpt lat="40.447614" lon="0.043721">
        <ele>697.510</ele>
        <time>2018-09-29T08:22:45Z</time>
      </trkpt>
      <trkpt lat="40.447905" lon="0.043717">
        <ele>697.539</ele>
        <time>2018-09-29T08:22:53Z</time>
      </trkpt>
      <trkpt lat="40.448177" lon="0.043784">
        <ele>697.501</ele>
        <time>2018-09-29T08:23:01Z</time>
      </trkpt>
      <trkpt lat="40.448537" lon="0.043800">
        <ele>699.021</ele>
        <time>2018-09-29T08:23:12Z</time>
      </trkpt>
      <trkpt lat="40.448832" lon="0.043810">
        <ele>699.908</ele>
        <time>2018-09-29T08:23:21Z</time>
      </trkpt>
      <trkpt lat="40.449029" lon="0.043865">
        <ele>700.996</ele>
        <time>2018-09-29T08:23:28Z</time>
      </trkpt>
      <trkpt lat="40.449255" lon="0.043951">
        <ele>700.933</ele>
        <time>2018-09-29T08:23:36Z</time>
      </trkpt>
      <trkpt lat="40.449434" lon="0.044051">
        <ele>698.527</ele>
        <time>2018-09-29T08:23:41Z</time>
      </trkpt>
      <trkpt lat="40.449741" lon="0.044254">
        <ele>697.095</ele>
        <time>2018-09-29T08:23:47Z</time>
      </trkpt>
      <trkpt lat="40.449956" lon="0.044401">
        <ele>697.073</ele>
        <time>2018-09-29T08:23:53Z</time>
      </trkpt>
      <trkpt lat="40.450188" lon="0.044558">
        <ele>697.096</ele>
        <time>2018-09-29T08:24:00Z</time>
      </trkpt>
      <trkpt lat="40.450373" lon="0.044681">
        <ele>698.583</ele>
        <time>2018-09-29T08:24:06Z</time>
      </trkpt>
      <trkpt lat="40.450642" lon="0.044716">
        <ele>699.030</ele>
        <time>2018-09-29T08:24:14Z</time>
      </trkpt>
      <trkpt lat="40.450789" lon="0.044784">
        <ele>699.576</ele>
        <time>2018-09-29T08:24:20Z</time>
      </trkpt>
      <trkpt lat="40.450834" lon="0.044931">
        <ele>699.590</ele>
        <time>2018-09-29T08:24:24Z</time>
      </trkpt>
      <trkpt lat="40.450827" lon="0.044973">
        <ele>699.519</ele>
        <time>2018-09-29T08:24:25Z</time>
      </trkpt>
      <trkpt lat="40.450823" lon="0.045012">
        <ele>699.508</ele>
        <time>2018-09-29T08:24:26Z</time>
      </trkpt>
      <trkpt lat="40.450822" lon="0.045057">
        <ele>699.570</ele>
        <time>2018-09-29T08:24:27Z</time>
      </trkpt>
      <trkpt lat="40.450821" lon="0.045100">
        <ele>699.517</ele>
        <time>2018-09-29T08:24:28Z</time>
      </trkpt>
      <trkpt lat="40.450820" lon="0.045145">
        <ele>699.541</ele>
        <time>2018-09-29T08:24:29Z</time>
      </trkpt>
      <trkpt lat="40.450821" lon="0.045187">
        <ele>699.529</ele>
        <time>2018-09-29T08:24:30Z</time>
      </trkpt>
      <trkpt lat="40.450828" lon="0.045341">
        <ele>699.557</ele>
        <time>2018-09-29T08:24:33Z</time>
      </trkpt>
      <trkpt lat="40.450830" lon="0.045731">
        <ele>699.550</ele>
        <time>2018-09-29T08:24:41Z</time>
      </trkpt>
      <trkpt lat="40.450844" lon="0.046061">
        <ele>699.537</ele>
        <time>2018-09-29T08:24:48Z</time>
      </trkpt>
      <trkpt lat="40.450933" lon="0.046247">
        <ele>699.514</ele>
        <time>2018-09-29T08:24:53Z</time>
      </trkpt>
      <trkpt lat="40.450971" lon="0.046296">
        <ele>698.592</ele>
        <time>2018-09-29T08:24:54Z</time>
      </trkpt>
      <trkpt lat="40.451007" lon="0.046344">
        <ele>698.573</ele>
        <time>2018-09-29T08:24:55Z</time>
      </trkpt>
      <trkpt lat="40.451228" lon="0.046593">
        <ele>697.520</ele>
        <time>2018-09-29T08:25:01Z</time>
      </trkpt>
      <trkpt lat="40.451460" lon="0.046800">
        <ele>699.008</ele>
        <time>2018-09-29T08:25:08Z</time>
      </trkpt>
      <trkpt lat="40.451826" lon="0.047073">
        <ele>699.062</ele>
        <time>2018-09-29T08:25:18Z</time>
      </trkpt>
      <trkpt lat="40.452123" lon="0.047288">
        <ele>699.039</ele>
        <time>2018-09-29T08:25:26Z</time>
      </trkpt>
      <trkpt lat="40.452342" lon="0.047457">
        <ele>697.563</ele>
        <time>2018-09-29T08:25:32Z</time>
      </trkpt>
      <trkpt lat="40.452354" lon="0.047458">
        <ele>697.011</ele>
        <time>2018-09-29T08:25:37Z</time>
      </trkpt>
      <trkpt lat="40.452404" lon="0.047496">
        <ele>697.099</ele>
        <time>2018-09-29T08:25:44Z</time>
      </trkpt>
      <trkpt lat="40.452641" lon="0.047640">
        <ele>693.772</ele>
        <time>2018-09-29T08:25:49Z</time>
      </trkpt>
      <trkpt lat="40.453027" lon="0.047876">
        <ele>692.239</ele>
        <time>2018-09-29T08:25:56Z</time>
      </trkpt>
      <trkpt lat="40.453084" lon="0.047928">
        <ele>691.316</ele>
        <time>2018-09-29T08:26:00Z</time>
      </trkpt>
      <trkpt lat="40.453075" lon="0.047924">
        <ele>691.883</ele>
        <time>2018-09-29T08:26:15Z</time>
      </trkpt>
      <trkpt lat="40.453064" lon="0.047921">
        <ele>691.325</ele>
        <time>2018-09-29T08:26:38Z</time>
      </trkpt>
      <trkpt lat="40.453065" lon="0.047921">
        <ele>691.317</ele>
        <time>2018-09-29T08:26:57Z</time>
      </trkpt>
      <trkpt lat="40.453068" lon="0.047925">
        <ele>691.308</ele>
        <time>2018-09-29T08:27:27Z</time>
      </trkpt>
      <trkpt lat="40.453070" lon="0.047922">
        <ele>691.341</ele>
        <time>2018-09-29T08:27:52Z</time>
      </trkpt>
      <trkpt lat="40.453066" lon="0.047931">
        <ele>691.378</ele>
        <time>2018-09-29T08:28:16Z</time>
      </trkpt>
      <trkpt lat="40.453066" lon="0.047936">
        <ele>691.312</ele>
        <time>2018-09-29T08:28:37Z</time>
      </trkpt>
      <trkpt lat="40.453073" lon="0.047942">
        <ele>690.860</ele>
        <time>2018-09-29T08:29:00Z</time>
      </trkpt>
      <trkpt lat="40.453068" lon="0.047936">
        <ele>690.898</ele>
        <time>2018-09-29T08:29:28Z</time>
      </trkpt>
      <trkpt lat="40.453070" lon="0.047934">
        <ele>690.841</ele>
        <time>2018-09-29T08:29:55Z</time>
      </trkpt>
      <trkpt lat="40.453068" lon="0.047936">
        <ele>690.838</ele>
        <time>2018-09-29T08:30:23Z</time>
      </trkpt>
      <trkpt lat="40.453072" lon="0.047944">
        <ele>690.835</ele>
        <time>2018-09-29T08:30:47Z</time>
      </trkpt>
      <trkpt lat="40.453070" lon="0.047941">
        <ele>690.869</ele>
        <time>2018-09-29T08:31:18Z</time>
      </trkpt>
      <trkpt lat="40.453063" lon="0.047940">
        <ele>690.804</ele>
        <time>2018-09-29T08:31:47Z</time>
      </trkpt>
      <trkpt lat="40.453061" lon="0.047944">
        <ele>690.824</ele>
        <time>2018-09-29T08:32:06Z</time>
      </trkpt>
      <trkpt lat="40.453063" lon="0.047950">
        <ele>690.808</ele>
        <time>2018-09-29T08:32:28Z</time>
      </trkpt>
      <trkpt lat="40.453071" lon="0.047944">
        <ele>690.819</ele>
        <time>2018-09-29T08:32:50Z</time>
      </trkpt>
      <trkpt lat="40.453078" lon="0.047946">
        <ele>690.886</ele>
        <time>2018-09-29T08:33:12Z</time>
      </trkpt>
      <trkpt lat="40.453078" lon="0.047944">
        <ele>690.860</ele>
        <time>2018-09-29T08:33:32Z</time>
      </trkpt>
      <trkpt lat="40.453073" lon="0.047928">
        <ele>690.828</ele>
        <time>2018-09-29T08:33:58Z</time>
      </trkpt>
      <trkpt lat="40.453076" lon="0.047919">
        <ele>690.826</ele>
        <time>2018-09-29T08:34:20Z</time>
      </trkpt>
      <trkpt lat="40.453079" lon="0.047922">
        <ele>690.359</ele>
        <time>2018-09-29T08:34:36Z</time>
      </trkpt>
      <trkpt lat="40.453075" lon="0.047914">
        <ele>690.366</ele>
        <time>2018-09-29T08:34:55Z</time>
      </trkpt>
      <trkpt lat="40.453134" lon="0.047976">
        <ele>689.813</ele>
        <time>2018-09-29T08:35:03Z</time>
      </trkpt>
      <trkpt lat="40.453319" lon="0.048190">
        <ele>689.423</ele>
        <time>2018-09-29T08:35:10Z</time>
      </trkpt>
      <trkpt lat="40.453551" lon="0.048393">
        <ele>689.483</ele>
        <time>2018-09-29T08:35:17Z</time>
      </trkpt>
      <trkpt lat="40.453783" lon="0.048697">
        <ele>689.411</ele>
        <time>2018-09-29T08:35:25Z</time>
      </trkpt>
      <trkpt lat="40.453808" lon="0.048743">
        <ele>689.408</ele>
        <time>2018-09-29T08:35:26Z</time>
      </trkpt>
      <trkpt lat="40.453862" lon="0.048828">
        <ele>689.475</ele>
        <time>2018-09-29T08:35:28Z</time>
      </trkpt>
      <trkpt lat="40.454127" lon="0.049181">
        <ele>691.862</ele>
        <time>2018-09-29T08:35:37Z</time>
      </trkpt>
      <trkpt lat="40.454408" lon="0.049468">
        <ele>692.226</ele>
        <time>2018-09-29T08:35:45Z</time>
      </trkpt>
      <trkpt lat="40.454452" lon="0.049499">
        <ele>692.264</ele>
        <time>2018-09-29T08:35:46Z</time>
      </trkpt>
      <trkpt lat="40.454497" lon="0.049525">
        <ele>692.212</ele>
        <time>2018-09-29T08:35:47Z</time>
      </trkpt>
      <trkpt lat="40.454585" lon="0.049571">
        <ele>690.855</ele>
        <time>2018-09-29T08:35:49Z</time>
      </trkpt>
      <trkpt lat="40.454627" lon="0.049580">
        <ele>690.862</ele>
        <time>2018-09-29T08:35:50Z</time>
      </trkpt>
      <trkpt lat="40.454747" lon="0.049589">
        <ele>690.829</ele>
        <time>2018-09-29T08:35:53Z</time>
      </trkpt>
      <trkpt lat="40.454902" lon="0.049648">
        <ele>688.934</ele>
        <time>2018-09-29T08:35:58Z</time>
      </trkpt>
      <trkpt lat="40.455002" lon="0.049702">
        <ele>687.055</ele>
        <time>2018-09-29T08:36:02Z</time>
      </trkpt>
      <trkpt lat="40.454996" lon="0.049697">
        <ele>687.010</ele>
        <time>2018-09-29T08:36:11Z</time>
      </trkpt>
      <trkpt lat="40.455087" lon="0.049732">
        <ele>686.508</ele>
        <time>2018-09-29T08:36:17Z</time>
      </trkpt>
      <trkpt lat="40.455342" lon="0.049786">
        <ele>684.656</ele>
        <time>2018-09-29T08:36:22Z</time>
      </trkpt>
      <trkpt lat="40.455692" lon="0.049964">
        <ele>683.163</ele>
        <time>2018-09-29T08:36:28Z</time>
      </trkpt>
      <trkpt lat="40.455745" lon="0.050006">
        <ele>682.677</ele>
        <time>2018-09-29T08:36:29Z</time>
      </trkpt>
      <trkpt lat="40.455790" lon="0.050053">
        <ele>682.635</ele>
        <time>2018-09-29T08:36:30Z</time>
      </trkpt>
      <trkpt lat="40.455827" lon="0.050110">
        <ele>682.653</ele>
        <time>2018-09-29T08:36:31Z</time>
      </trkpt>
      <trkpt lat="40.455852" lon="0.050179">
        <ele>682.636</ele>
        <time>2018-09-29T08:36:32Z</time>
      </trkpt>
      <trkpt lat="40.455867" lon="0.050254">
        <ele>682.153</ele>
        <time>2018-09-29T08:36:33Z</time>
      </trkpt>
      <trkpt lat="40.455872" lon="0.050331">
        <ele>682.160</ele>
        <time>2018-09-29T08:36:34Z</time>
      </trkpt>
      <trkpt lat="40.455876" lon="0.050413">
        <ele>681.723</ele>
        <time>2018-09-29T08:36:35Z</time>
      </trkpt>
      <trkpt lat="40.455887" lon="0.050499">
        <ele>681.783</ele>
        <time>2018-09-29T08:36:36Z</time>
      </trkpt>
      <trkpt lat="40.455904" lon="0.050581">
        <ele>681.211</ele>
        <time>2018-09-29T08:36:37Z</time>
      </trkpt>
      <trkpt lat="40.455931" lon="0.050666">
        <ele>681.208</ele>
        <time>2018-09-29T08:36:38Z</time>
      </trkpt>
      <trkpt lat="40.456021" lon="0.050886">
        <ele>680.235</ele>
        <time>2018-09-29T08:36:41Z</time>
      </trkpt>
      <trkpt lat="40.456064" lon="0.050937">
        <ele>679.792</ele>
        <time>2018-09-29T08:36:42Z</time>
      </trkpt>
      <trkpt lat="40.456239" lon="0.051120">
        <ele>679.766</ele>
        <time>2018-09-29T08:36:47Z</time>
      </trkpt>
      <trkpt lat="40.456451" lon="0.051303">
        <ele>679.754</ele>
        <time>2018-09-29T08:36:53Z</time>
      </trkpt>
      <trkpt lat="40.456485" lon="0.051331">
        <ele>679.712</ele>
        <time>2018-09-29T08:36:54Z</time>
      </trkpt>
      <trkpt lat="40.456516" lon="0.051372">
        <ele>679.785</ele>
        <time>2018-09-29T08:36:55Z</time>
      </trkpt>
      <trkpt lat="40.456550" lon="0.051412">
        <ele>679.712</ele>
        <time>2018-09-29T08:36:56Z</time>
      </trkpt>
      <trkpt lat="40.456593" lon="0.051451">
        <ele>678.879</ele>
        <time>2018-09-29T08:36:57Z</time>
      </trkpt>
      <trkpt lat="40.456635" lon="0.051483">
        <ele>678.311</ele>
        <time>2018-09-29T08:36:58Z</time>
      </trkpt>
      <trkpt lat="40.456683" lon="0.051505">
        <ele>678.321</ele>
        <time>2018-09-29T08:36:59Z</time>
      </trkpt>
      <trkpt lat="40.456738" lon="0.051516">
        <ele>677.303</ele>
        <time>2018-09-29T08:37:00Z</time>
      </trkpt>
      <trkpt lat="40.456797" lon="0.051526">
        <ele>676.908</ele>
        <time>2018-09-29T08:37:01Z</time>
      </trkpt>
      <trkpt lat="40.457054" lon="0.051540">
        <ele>674.524</ele>
        <time>2018-09-29T08:37:06Z</time>
      </trkpt>
      <trkpt lat="40.457259" lon="0.051498">
        <ele>672.131</ele>
        <time>2018-09-29T08:37:11Z</time>
      </trkpt>
      <trkpt lat="40.457325" lon="0.051534">
        <ele>671.175</ele>
        <time>2018-09-29T08:37:13Z</time>
      </trkpt>
      <trkpt lat="40.457346" lon="0.051577">
        <ele>670.693</ele>
        <time>2018-09-29T08:37:14Z</time>
      </trkpt>
      <trkpt lat="40.457355" lon="0.051630">
        <ele>670.131</ele>
        <time>2018-09-29T08:37:15Z</time>
      </trkpt>
      <trkpt lat="40.457344" lon="0.051683">
        <ele>669.754</ele>
        <time>2018-09-29T08:37:16Z</time>
      </trkpt>
      <trkpt lat="40.457320" lon="0.051732">
        <ele>669.751</ele>
        <time>2018-09-29T08:37:17Z</time>
      </trkpt>
      <trkpt lat="40.457263" lon="0.051829">
        <ele>668.738</ele>
        <time>2018-09-29T08:37:19Z</time>
      </trkpt>
      <trkpt lat="40.457247" lon="0.051873">
        <ele>668.792</ele>
        <time>2018-09-29T08:37:20Z</time>
      </trkpt>
      <trkpt lat="40.457238" lon="0.051913">
        <ele>668.273</ele>
        <time>2018-09-29T08:37:21Z</time>
      </trkpt>
      <trkpt lat="40.457239" lon="0.051953">
        <ele>667.720</ele>
        <time>2018-09-29T08:37:22Z</time>
      </trkpt>
      <trkpt lat="40.457253" lon="0.051989">
        <ele>667.208</ele>
        <time>2018-09-29T08:37:23Z</time>
      </trkpt>
      <trkpt lat="40.457382" lon="0.052034">
        <ele>665.882</ele>
        <time>2018-09-29T08:37:26Z</time>
      </trkpt>
      <trkpt lat="40.457441" lon="0.052032">
        <ele>664.499</ele>
        <time>2018-09-29T08:37:27Z</time>
      </trkpt>
      <trkpt lat="40.457497" lon="0.052024">
        <ele>663.963</ele>
        <time>2018-09-29T08:37:28Z</time>
      </trkpt>
      <trkpt lat="40.457551" lon="0.052012">
        <ele>663.451</ele>
        <time>2018-09-29T08:37:29Z</time>
      </trkpt>
      <trkpt lat="40.457609" lon="0.051992">
        <ele>662.939</ele>
        <time>2018-09-29T08:37:30Z</time>
      </trkpt>
      <trkpt lat="40.457668" lon="0.051967">
        <ele>662.052</ele>
        <time>2018-09-29T08:37:31Z</time>
      </trkpt>
      <trkpt lat="40.457932" lon="0.051841">
        <ele>658.129</ele>
        <time>2018-09-29T08:37:35Z</time>
      </trkpt>
      <trkpt lat="40.458064" lon="0.051745">
        <ele>657.646</ele>
        <time>2018-09-29T08:37:37Z</time>
      </trkpt>
      <trkpt lat="40.458117" lon="0.051693">
        <ele>657.633</ele>
        <time>2018-09-29T08:37:38Z</time>
      </trkpt>
      <trkpt lat="40.458169" lon="0.051649">
        <ele>657.623</ele>
        <time>2018-09-29T08:37:39Z</time>
      </trkpt>
      <trkpt lat="40.458219" lon="0.051616">
        <ele>657.615</ele>
        <time>2018-09-29T08:37:40Z</time>
      </trkpt>
      <trkpt lat="40.458273" lon="0.051588">
        <ele>657.208</ele>
        <time>2018-09-29T08:37:41Z</time>
      </trkpt>
      <trkpt lat="40.458327" lon="0.051564">
        <ele>657.256</ele>
        <time>2018-09-29T08:37:42Z</time>
      </trkpt>
      <trkpt lat="40.458380" lon="0.051545">
        <ele>657.223</ele>
        <time>2018-09-29T08:37:43Z</time>
      </trkpt>
      <trkpt lat="40.458599" lon="0.051483">
        <ele>657.217</ele>
        <time>2018-09-29T08:37:47Z</time>
      </trkpt>
      <trkpt lat="40.458659" lon="0.051482">
        <ele>657.215</ele>
        <time>2018-09-29T08:37:48Z</time>
      </trkpt>
      <trkpt lat="40.458721" lon="0.051488">
        <ele>657.293</ele>
        <time>2018-09-29T08:37:49Z</time>
      </trkpt>
      <trkpt lat="40.458781" lon="0.051501">
        <ele>656.256</ele>
        <time>2018-09-29T08:37:50Z</time>
      </trkpt>
      <trkpt lat="40.458837" lon="0.051529">
        <ele>656.263</ele>
        <time>2018-09-29T08:37:51Z</time>
      </trkpt>
      <trkpt lat="40.458886" lon="0.051571">
        <ele>656.240</ele>
        <time>2018-09-29T08:37:52Z</time>
      </trkpt>
      <trkpt lat="40.458930" lon="0.051621">
        <ele>656.792</ele>
        <time>2018-09-29T08:37:53Z</time>
      </trkpt>
      <trkpt lat="40.458970" lon="0.051682">
        <ele>656.773</ele>
        <time>2018-09-29T08:37:54Z</time>
      </trkpt>
      <trkpt lat="40.459001" lon="0.051747">
        <ele>656.720</ele>
        <time>2018-09-29T08:37:55Z</time>
      </trkpt>
      <trkpt lat="40.459019" lon="0.051819">
        <ele>656.708</ele>
        <time>2018-09-29T08:37:56Z</time>
      </trkpt>
      <trkpt lat="40.459024" lon="0.051894">
        <ele>656.722</ele>
        <time>2018-09-29T08:37:57Z</time>
      </trkpt>
      <trkpt lat="40.459011" lon="0.051965">
        <ele>656.719</ele>
        <time>2018-09-29T08:37:58Z</time>
      </trkpt>
      <trkpt lat="40.458989" lon="0.052038">
        <ele>656.713</ele>
        <time>2018-09-29T08:37:59Z</time>
      </trkpt>
      <trkpt lat="40.458876" lon="0.052481">
        <ele>653.831</ele>
        <time>2018-09-29T08:38:04Z</time>
      </trkpt>
      <trkpt lat="40.458844" lon="0.052559">
        <ele>653.399</ele>
        <time>2018-09-29T08:38:05Z</time>
      </trkpt>
      <trkpt lat="40.458808" lon="0.052621">
        <ele>653.372</ele>
        <time>2018-09-29T08:38:06Z</time>
      </trkpt>
      <trkpt lat="40.458748" lon="0.052726">
        <ele>652.829</ele>
        <time>2018-09-29T08:38:08Z</time>
      </trkpt>
      <trkpt lat="40.458738" lon="0.052786">
        <ele>651.936</ele>
        <time>2018-09-29T08:38:09Z</time>
      </trkpt>
      <trkpt lat="40.458744" lon="0.052848">
        <ele>651.917</ele>
        <time>2018-09-29T08:38:10Z</time>
      </trkpt>
      <trkpt lat="40.458761" lon="0.052907">
        <ele>651.487</ele>
        <time>2018-09-29T08:38:11Z</time>
      </trkpt>
      <trkpt lat="40.458788" lon="0.052957">
        <ele>651.415</ele>
        <time>2018-09-29T08:38:12Z</time>
      </trkpt>
      <trkpt lat="40.458818" lon="0.053003">
        <ele>651.408</ele>
        <time>2018-09-29T08:38:13Z</time>
      </trkpt>
      <trkpt lat="40.458851" lon="0.053049">
        <ele>651.494</ele>
        <time>2018-09-29T08:38:14Z</time>
      </trkpt>
      <trkpt lat="40.458890" lon="0.053089">
        <ele>651.451</ele>
        <time>2018-09-29T08:38:15Z</time>
      </trkpt>
      <trkpt lat="40.459022" lon="0.053268">
        <ele>651.925</ele>
        <time>2018-09-29T08:38:19Z</time>
      </trkpt>
      <trkpt lat="40.459049" lon="0.053321">
        <ele>651.933</ele>
        <time>2018-09-29T08:38:20Z</time>
      </trkpt>
      <trkpt lat="40.459082" lon="0.053370">
        <ele>651.991</ele>
        <time>2018-09-29T08:38:21Z</time>
      </trkpt>
      <trkpt lat="40.459123" lon="0.053414">
        <ele>651.954</ele>
        <time>2018-09-29T08:38:22Z</time>
      </trkpt>
      <trkpt lat="40.459169" lon="0.053453">
        <ele>651.991</ele>
        <time>2018-09-29T08:38:23Z</time>
      </trkpt>
      <trkpt lat="40.459218" lon="0.053487">
        <ele>651.928</ele>
        <time>2018-09-29T08:38:24Z</time>
      </trkpt>
      <trkpt lat="40.459306" lon="0.053560">
        <ele>652.853</ele>
        <time>2018-09-29T08:38:26Z</time>
      </trkpt>
      <trkpt lat="40.459346" lon="0.053606">
        <ele>652.804</ele>
        <time>2018-09-29T08:38:27Z</time>
      </trkpt>
      <trkpt lat="40.459510" lon="0.053802">
        <ele>652.814</ele>
        <time>2018-09-29T08:38:31Z</time>
      </trkpt>
      <trkpt lat="40.459554" lon="0.053845">
        <ele>652.808</ele>
        <time>2018-09-29T08:38:32Z</time>
      </trkpt>
      <trkpt lat="40.459596" lon="0.053890">
        <ele>652.818</ele>
        <time>2018-09-29T08:38:33Z</time>
      </trkpt>
      <trkpt lat="40.459688" lon="0.053968">
        <ele>651.985</ele>
        <time>2018-09-29T08:38:35Z</time>
      </trkpt>
      <trkpt lat="40.459740" lon="0.053993">
        <ele>651.999</ele>
        <time>2018-09-29T08:38:36Z</time>
      </trkpt>
      <trkpt lat="40.459830" lon="0.054050">
        <ele>651.917</ele>
        <time>2018-09-29T08:38:38Z</time>
      </trkpt>
      <trkpt lat="40.459873" lon="0.054089">
        <ele>651.435</ele>
        <time>2018-09-29T08:38:39Z</time>
      </trkpt>
      <trkpt lat="40.459922" lon="0.054123">
        <ele>650.918</ele>
        <time>2018-09-29T08:38:40Z</time>
      </trkpt>
      <trkpt lat="40.459972" lon="0.054149">
        <ele>650.495</ele>
        <time>2018-09-29T08:38:41Z</time>
      </trkpt>
      <trkpt lat="40.460022" lon="0.054175">
        <ele>650.492</ele>
        <time>2018-09-29T08:38:42Z</time>
      </trkpt>
      <trkpt lat="40.460225" lon="0.054263">
        <ele>649.971</ele>
        <time>2018-09-29T08:38:46Z</time>
      </trkpt>
      <trkpt lat="40.460265" lon="0.054299">
        <ele>649.041</ele>
        <time>2018-09-29T08:38:47Z</time>
      </trkpt>
      <trkpt lat="40.460298" lon="0.054350">
        <ele>649.015</ele>
        <time>2018-09-29T08:38:48Z</time>
      </trkpt>
      <trkpt lat="40.460326" lon="0.054415">
        <ele>648.008</ele>
        <time>2018-09-29T08:38:49Z</time>
      </trkpt>
      <trkpt lat="40.460348" lon="0.054482">
        <ele>646.660</ele>
        <time>2018-09-29T08:38:50Z</time>
      </trkpt>
      <trkpt lat="40.460366" lon="0.054548">
        <ele>646.197</ele>
        <time>2018-09-29T08:38:51Z</time>
      </trkpt>
      <trkpt lat="40.460372" lon="0.054617">
        <ele>645.621</ele>
        <time>2018-09-29T08:38:52Z</time>
      </trkpt>
      <trkpt lat="40.460357" lon="0.054675">
        <ele>644.799</ele>
        <time>2018-09-29T08:38:53Z</time>
      </trkpt>
      <trkpt lat="40.460330" lon="0.054707">
        <ele>643.747</ele>
        <time>2018-09-29T08:38:54Z</time>
      </trkpt>
      <trkpt lat="40.460283" lon="0.054735">
        <ele>643.280</ele>
        <time>2018-09-29T08:38:55Z</time>
      </trkpt>
      <trkpt lat="40.460229" lon="0.054750">
        <ele>642.797</ele>
        <time>2018-09-29T08:38:56Z</time>
      </trkpt>
      <trkpt lat="40.460162" lon="0.054760">
        <ele>641.874</ele>
        <time>2018-09-29T08:38:57Z</time>
      </trkpt>
      <trkpt lat="40.460093" lon="0.054762">
        <ele>641.387</ele>
        <time>2018-09-29T08:38:58Z</time>
      </trkpt>
      <trkpt lat="40.460016" lon="0.054761">
        <ele>640.842</ele>
        <time>2018-09-29T08:38:59Z</time>
      </trkpt>
      <trkpt lat="40.459940" lon="0.054766">
        <ele>639.826</ele>
        <time>2018-09-29T08:39:00Z</time>
      </trkpt>
      <trkpt lat="40.459854" lon="0.054784">
        <ele>638.908</ele>
        <time>2018-09-29T08:39:01Z</time>
      </trkpt>
      <trkpt lat="40.459607" lon="0.054837">
        <ele>635.551</ele>
        <time>2018-09-29T08:39:04Z</time>
      </trkpt>
      <trkpt lat="40.459352" lon="0.054899">
        <ele>632.268</ele>
        <time>2018-09-29T08:39:07Z</time>
      </trkpt>
      <trkpt lat="40.459091" lon="0.054992">
        <ele>628.392</ele>
        <time>2018-09-29T08:39:10Z</time>
      </trkpt>
      <trkpt lat="40.458806" lon="0.055068">
        <ele>624.930</ele>
        <time>2018-09-29T08:39:13Z</time>
      </trkpt>
      <trkpt lat="40.458521" lon="0.055098">
        <ele>622.138</ele>
        <time>2018-09-29T08:39:16Z</time>
      </trkpt>
      <trkpt lat="40.458155" lon="0.055161">
        <ele>618.761</ele>
        <time>2018-09-29T08:39:20Z</time>
      </trkpt>
      <trkpt lat="40.457762" lon="0.055285">
        <ele>615.368</ele>
        <time>2018-09-29T08:39:24Z</time>
      </trkpt>
      <trkpt lat="40.457573" lon="0.055373">
        <ele>613.995</ele>
        <time>2018-09-29T08:39:26Z</time>
      </trkpt>
      <trkpt lat="40.457228" lon="0.055619">
        <ele>610.588</ele>
        <time>2018-09-29T08:39:30Z</time>
      </trkpt>
      <trkpt lat="40.457144" lon="0.055694">
        <ele>609.624</ele>
        <time>2018-09-29T08:39:31Z</time>
      </trkpt>
      <trkpt lat="40.457067" lon="0.055775">
        <ele>609.626</ele>
        <time>2018-09-29T08:39:32Z</time>
      </trkpt>
      <trkpt lat="40.456981" lon="0.055859">
        <ele>608.108</ele>
        <time>2018-09-29T08:39:33Z</time>
      </trkpt>
      <trkpt lat="40.456647" lon="0.056210">
        <ele>604.841</ele>
        <time>2018-09-29T08:39:37Z</time>
      </trkpt>
      <trkpt lat="40.456399" lon="0.056486">
        <ele>603.368</ele>
        <time>2018-09-29T08:39:40Z</time>
      </trkpt>
      <trkpt lat="40.456124" lon="0.056733">
        <ele>600.032</ele>
        <time>2018-09-29T08:39:43Z</time>
      </trkpt>
      <trkpt lat="40.455849" lon="0.056946">
        <ele>597.670</ele>
        <time>2018-09-29T08:39:46Z</time>
      </trkpt>
      <trkpt lat="40.455621" lon="0.057128">
        <ele>595.678</ele>
        <time>2018-09-29T08:39:49Z</time>
      </trkpt>
      <trkpt lat="40.455276" lon="0.057304">
        <ele>593.241</ele>
        <time>2018-09-29T08:39:53Z</time>
      </trkpt>
      <trkpt lat="40.455115" lon="0.057397">
        <ele>591.348</ele>
        <time>2018-09-29T08:39:55Z</time>
      </trkpt>
      <trkpt lat="40.454981" lon="0.057495">
        <ele>590.365</ele>
        <time>2018-09-29T08:39:57Z</time>
      </trkpt>
      <trkpt lat="40.454907" lon="0.057535">
        <ele>589.458</ele>
        <time>2018-09-29T08:39:58Z</time>
      </trkpt>
      <trkpt lat="40.454829" lon="0.057560">
        <ele>588.452</ele>
        <time>2018-09-29T08:39:59Z</time>
      </trkpt>
      <trkpt lat="40.454746" lon="0.057572">
        <ele>587.517</ele>
        <time>2018-09-29T08:40:00Z</time>
      </trkpt>
      <trkpt lat="40.454665" lon="0.057574">
        <ele>588.408</ele>
        <time>2018-09-29T08:40:01Z</time>
      </trkpt>
      <trkpt lat="40.454590" lon="0.057569">
        <ele>587.988</ele>
        <time>2018-09-29T08:40:02Z</time>
      </trkpt>
      <trkpt lat="40.454518" lon="0.057571">
        <ele>587.915</ele>
        <time>2018-09-29T08:40:03Z</time>
      </trkpt>
      <trkpt lat="40.454458" lon="0.057581">
        <ele>587.019</ele>
        <time>2018-09-29T08:40:04Z</time>
      </trkpt>
      <trkpt lat="40.454404" lon="0.057597">
        <ele>586.557</ele>
        <time>2018-09-29T08:40:05Z</time>
      </trkpt>
      <trkpt lat="40.454358" lon="0.057629">
        <ele>586.055</ele>
        <time>2018-09-29T08:40:06Z</time>
      </trkpt>
      <trkpt lat="40.454324" lon="0.057676">
        <ele>585.588</ele>
        <time>2018-09-29T08:40:07Z</time>
      </trkpt>
      <trkpt lat="40.454300" lon="0.057739">
        <ele>584.645</ele>
        <time>2018-09-29T08:40:08Z</time>
      </trkpt>
      <trkpt lat="40.454288" lon="0.057812">
        <ele>584.192</ele>
        <time>2018-09-29T08:40:09Z</time>
      </trkpt>
      <trkpt lat="40.454289" lon="0.057883">
        <ele>584.692</ele>
        <time>2018-09-29T08:40:10Z</time>
      </trkpt>
      <trkpt lat="40.454287" lon="0.057958">
        <ele>583.673</ele>
        <time>2018-09-29T08:40:11Z</time>
      </trkpt>
      <trkpt lat="40.454273" lon="0.058027">
        <ele>583.620</ele>
        <time>2018-09-29T08:40:12Z</time>
      </trkpt>
      <trkpt lat="40.454247" lon="0.058094">
        <ele>583.108</ele>
        <time>2018-09-29T08:40:13Z</time>
      </trkpt>
      <trkpt lat="40.454213" lon="0.058150">
        <ele>583.122</ele>
        <time>2018-09-29T08:40:14Z</time>
      </trkpt>
      <trkpt lat="40.454178" lon="0.058205">
        <ele>583.179</ele>
        <time>2018-09-29T08:40:15Z</time>
      </trkpt>
      <trkpt lat="40.453987" lon="0.058601">
        <ele>581.783</ele>
        <time>2018-09-29T08:40:21Z</time>
      </trkpt>
      <trkpt lat="40.453948" lon="0.058670">
        <ele>581.251</ele>
        <time>2018-09-29T08:40:22Z</time>
      </trkpt>
      <trkpt lat="40.453898" lon="0.058732">
        <ele>580.229</ele>
        <time>2018-09-29T08:40:23Z</time>
      </trkpt>
      <trkpt lat="40.453847" lon="0.058793">
        <ele>580.212</ele>
        <time>2018-09-29T08:40:24Z</time>
      </trkpt>
      <trkpt lat="40.453807" lon="0.058858">
        <ele>579.889</ele>
        <time>2018-09-29T08:40:25Z</time>
      </trkpt>
      <trkpt lat="40.453774" lon="0.058935">
        <ele>579.326</ele>
        <time>2018-09-29T08:40:26Z</time>
      </trkpt>
      <trkpt lat="40.453755" lon="0.059011">
        <ele>578.876</ele>
        <time>2018-09-29T08:40:27Z</time>
      </trkpt>
      <trkpt lat="40.453749" lon="0.059097">
        <ele>578.390</ele>
        <time>2018-09-29T08:40:28Z</time>
      </trkpt>
      <trkpt lat="40.453757" lon="0.059170">
        <ele>577.819</ele>
        <time>2018-09-29T08:40:29Z</time>
      </trkpt>
      <trkpt lat="40.453783" lon="0.059231">
        <ele>577.408</ele>
        <time>2018-09-29T08:40:30Z</time>
      </trkpt>
      <trkpt lat="40.453825" lon="0.059274">
        <ele>577.430</ele>
        <time>2018-09-29T08:40:31Z</time>
      </trkpt>
      <trkpt lat="40.453874" lon="0.059306">
        <ele>576.487</ele>
        <time>2018-09-29T08:40:32Z</time>
      </trkpt>
      <trkpt lat="40.453919" lon="0.059344">
        <ele>576.411</ele>
        <time>2018-09-29T08:40:33Z</time>
      </trkpt>
      <trkpt lat="40.453954" lon="0.059401">
        <ele>575.439</ele>
        <time>2018-09-29T08:40:34Z</time>
      </trkpt>
      <trkpt lat="40.453974" lon="0.059471">
        <ele>575.427</ele>
        <time>2018-09-29T08:40:35Z</time>
      </trkpt>
      <trkpt lat="40.453982" lon="0.059549">
        <ele>575.040</ele>
        <time>2018-09-29T08:40:36Z</time>
      </trkpt>
      <trkpt lat="40.453981" lon="0.059631">
        <ele>574.557</ele>
        <time>2018-09-29T08:40:37Z</time>
      </trkpt>
      <trkpt lat="40.453975" lon="0.059716">
        <ele>574.094</ele>
        <time>2018-09-29T08:40:38Z</time>
      </trkpt>
      <trkpt lat="40.453978" lon="0.059792">
        <ele>573.038</ele>
        <time>2018-09-29T08:40:39Z</time>
      </trkpt>
      <trkpt lat="40.453993" lon="0.059871">
        <ele>572.670</ele>
        <time>2018-09-29T08:40:40Z</time>
      </trkpt>
      <trkpt lat="40.454021" lon="0.059956">
        <ele>571.617</ele>
        <time>2018-09-29T08:40:41Z</time>
      </trkpt>
      <trkpt lat="40.454081" lon="0.060142">
        <ele>570.208</ele>
        <time>2018-09-29T08:40:43Z</time>
      </trkpt>
      <trkpt lat="40.454100" lon="0.060237">
        <ele>570.276</ele>
        <time>2018-09-29T08:40:44Z</time>
      </trkpt>
      <trkpt lat="40.454115" lon="0.060342">
        <ele>570.273</ele>
        <time>2018-09-29T08:40:45Z</time>
      </trkpt>
      <trkpt lat="40.454118" lon="0.060436">
        <ele>569.257</ele>
        <time>2018-09-29T08:40:46Z</time>
      </trkpt>
      <trkpt lat="40.454114" lon="0.060538">
        <ele>569.255</ele>
        <time>2018-09-29T08:40:47Z</time>
      </trkpt>
      <trkpt lat="40.454109" lon="0.060640">
        <ele>568.213</ele>
        <time>2018-09-29T08:40:48Z</time>
      </trkpt>
      <trkpt lat="40.454109" lon="0.060734">
        <ele>568.216</ele>
        <time>2018-09-29T08:40:49Z</time>
      </trkpt>
      <trkpt lat="40.454115" lon="0.060820">
        <ele>568.223</ele>
        <time>2018-09-29T08:40:50Z</time>
      </trkpt>
      <trkpt lat="40.454127" lon="0.060913">
        <ele>567.390</ele>
        <time>2018-09-29T08:40:51Z</time>
      </trkpt>
      <trkpt lat="40.454146" lon="0.060993">
        <ele>567.318</ele>
        <time>2018-09-29T08:40:52Z</time>
      </trkpt>
      <trkpt lat="40.454172" lon="0.061059">
        <ele>566.898</ele>
        <time>2018-09-29T08:40:53Z</time>
      </trkpt>
      <trkpt lat="40.454208" lon="0.061120">
        <ele>566.317</ele>
        <time>2018-09-29T08:40:54Z</time>
      </trkpt>
      <trkpt lat="40.454312" lon="0.061315">
        <ele>565.808</ele>
        <time>2018-09-29T08:40:57Z</time>
      </trkpt>
      <trkpt lat="40.454413" lon="0.061600">
        <ele>565.894</ele>
        <time>2018-09-29T08:41:01Z</time>
      </trkpt>
      <trkpt lat="40.454436" lon="0.061737">
        <ele>565.361</ele>
        <time>2018-09-29T08:41:03Z</time>
      </trkpt>
      <trkpt lat="40.454434" lon="0.061797">
        <ele>565.315</ele>
        <time>2018-09-29T08:41:04Z</time>
      </trkpt>
      <trkpt lat="40.454416" lon="0.061856">
        <ele>564.443</ele>
        <time>2018-09-29T08:41:05Z</time>
      </trkpt>
      <trkpt lat="40.454380" lon="0.061905">
        <ele>563.931</ele>
        <time>2018-09-29T08:41:06Z</time>
      </trkpt>
      <trkpt lat="40.454337" lon="0.061948">
        <ele>563.974</ele>
        <time>2018-09-29T08:41:07Z</time>
      </trkpt>
      <trkpt lat="40.454148" lon="0.062141">
        <ele>562.581</ele>
        <time>2018-09-29T08:41:11Z</time>
      </trkpt>
      <trkpt lat="40.454113" lon="0.062202">
        <ele>562.568</ele>
        <time>2018-09-29T08:41:12Z</time>
      </trkpt>
      <trkpt lat="40.454097" lon="0.062262">
        <ele>562.097</ele>
        <time>2018-09-29T08:41:13Z</time>
      </trkpt>
      <trkpt lat="40.454098" lon="0.062318">
        <ele>562.023</ele>
        <time>2018-09-29T08:41:14Z</time>
      </trkpt>
      <trkpt lat="40.454110" lon="0.062370">
        <ele>562.025</ele>
        <time>2018-09-29T08:41:15Z</time>
      </trkpt>
      <trkpt lat="40.454125" lon="0.062425">
        <ele>562.008</ele>
        <time>2018-09-29T08:41:16Z</time>
      </trkpt>
      <trkpt lat="40.454137" lon="0.062481">
        <ele>562.082</ele>
        <time>2018-09-29T08:41:17Z</time>
      </trkpt>
      <trkpt lat="40.454162" lon="0.062591">
        <ele>562.069</ele>
        <time>2018-09-29T08:41:19Z</time>
      </trkpt>
      <trkpt lat="40.454189" lon="0.062635">
        <ele>562.053</ele>
        <time>2018-09-29T08:41:20Z</time>
      </trkpt>
      <trkpt lat="40.454252" lon="0.062733">
        <ele>561.511</ele>
        <time>2018-09-29T08:41:22Z</time>
      </trkpt>
      <trkpt lat="40.454268" lon="0.062796">
        <ele>561.019</ele>
        <time>2018-09-29T08:41:23Z</time>
      </trkpt>
      <trkpt lat="40.454306" lon="0.063152">
        <ele>561.012</ele>
        <time>2018-09-29T08:41:28Z</time>
      </trkpt>
      <trkpt lat="40.454295" lon="0.063601">
        <ele>561.059</ele>
        <time>2018-09-29T08:41:34Z</time>
      </trkpt>
      <trkpt lat="40.454291" lon="0.063680">
        <ele>561.056</ele>
        <time>2018-09-29T08:41:35Z</time>
      </trkpt>
      <trkpt lat="40.454280" lon="0.063761">
        <ele>560.174</ele>
        <time>2018-09-29T08:41:36Z</time>
      </trkpt>
      <trkpt lat="40.454260" lon="0.063845">
        <ele>559.656</ele>
        <time>2018-09-29T08:41:37Z</time>
      </trkpt>
      <trkpt lat="40.454201" lon="0.064107">
        <ele>558.121</ele>
        <time>2018-09-29T08:41:40Z</time>
      </trkpt>
      <trkpt lat="40.454209" lon="0.064195">
        <ele>558.108</ele>
        <time>2018-09-29T08:41:41Z</time>
      </trkpt>
      <trkpt lat="40.454236" lon="0.064270">
        <ele>558.610</ele>
        <time>2018-09-29T08:41:42Z</time>
      </trkpt>
      <trkpt lat="40.454274" lon="0.064333">
        <ele>558.637</ele>
        <time>2018-09-29T08:41:43Z</time>
      </trkpt>
      <trkpt lat="40.454319" lon="0.064385">
        <ele>558.661</ele>
        <time>2018-09-29T08:41:44Z</time>
      </trkpt>
      <trkpt lat="40.454374" lon="0.064431">
        <ele>558.659</ele>
        <time>2018-09-29T08:41:45Z</time>
      </trkpt>
      <trkpt lat="40.454425" lon="0.064471">
        <ele>558.687</ele>
        <time>2018-09-29T08:41:46Z</time>
      </trkpt>
      <trkpt lat="40.454526" lon="0.064567">
        <ele>558.630</ele>
        <time>2018-09-29T08:41:48Z</time>
      </trkpt>
      <trkpt lat="40.454562" lon="0.064626">
        <ele>558.627</ele>
        <time>2018-09-29T08:41:49Z</time>
      </trkpt>
      <trkpt lat="40.454589" lon="0.064689">
        <ele>558.684</ele>
        <time>2018-09-29T08:41:50Z</time>
      </trkpt>
      <trkpt lat="40.454675" lon="0.064917">
        <ele>558.684</ele>
        <time>2018-09-29T08:41:53Z</time>
      </trkpt>
      <trkpt lat="40.454850" lon="0.065267">
        <ele>559.607</ele>
        <time>2018-09-29T08:41:58Z</time>
      </trkpt>
      <trkpt lat="40.454867" lon="0.065340">
        <ele>560.117</ele>
        <time>2018-09-29T08:41:59Z</time>
      </trkpt>
      <trkpt lat="40.454875" lon="0.065417">
        <ele>560.108</ele>
        <time>2018-09-29T08:42:00Z</time>
      </trkpt>
      <trkpt lat="40.454909" lon="0.065839">
        <ele>562.571</ele>
        <time>2018-09-29T08:42:06Z</time>
      </trkpt>
      <trkpt lat="40.454887" lon="0.066051">
        <ele>562.928</ele>
        <time>2018-09-29T08:42:09Z</time>
      </trkpt>
      <trkpt lat="40.454869" lon="0.066116">
        <ele>562.942</ele>
        <time>2018-09-29T08:42:10Z</time>
      </trkpt>
      <trkpt lat="40.454849" lon="0.066184">
        <ele>562.920</ele>
        <time>2018-09-29T08:42:11Z</time>
      </trkpt>
      <trkpt lat="40.454787" lon="0.066392">
        <ele>562.998</ele>
        <time>2018-09-29T08:42:14Z</time>
      </trkpt>
      <trkpt lat="40.454777" lon="0.066456">
        <ele>562.991</ele>
        <time>2018-09-29T08:42:15Z</time>
      </trkpt>
      <trkpt lat="40.454773" lon="0.066520">
        <ele>562.968</ele>
        <time>2018-09-29T08:42:16Z</time>
      </trkpt>
      <trkpt lat="40.454783" lon="0.066708">
        <ele>562.985</ele>
        <time>2018-09-29T08:42:19Z</time>
      </trkpt>
      <trkpt lat="40.454804" lon="0.066770">
        <ele>562.539</ele>
        <time>2018-09-29T08:42:20Z</time>
      </trkpt>
      <trkpt lat="40.454917" lon="0.067008">
        <ele>559.601</ele>
        <time>2018-09-29T08:42:24Z</time>
      </trkpt>
      <trkpt lat="40.455098" lon="0.067348">
        <ele>557.221</ele>
        <time>2018-09-29T08:42:29Z</time>
      </trkpt>
      <trkpt lat="40.455116" lon="0.067429">
        <ele>557.208</ele>
        <time>2018-09-29T08:42:30Z</time>
      </trkpt>
      <trkpt lat="40.455119" lon="0.067504">
        <ele>557.266</ele>
        <time>2018-09-29T08:42:31Z</time>
      </trkpt>
      <trkpt lat="40.455108" lon="0.067582">
        <ele>557.243</ele>
        <time>2018-09-29T08:42:32Z</time>
      </trkpt>
      <trkpt lat="40.455092" lon="0.067654">
        <ele>557.257</ele>
        <time>2018-09-29T08:42:33Z</time>
      </trkpt>
      <trkpt lat="40.455072" lon="0.067726">
        <ele>557.215</ele>
        <time>2018-09-29T08:42:34Z</time>
      </trkpt>
      <trkpt lat="40.455022" lon="0.067866">
        <ele>557.293</ele>
        <time>2018-09-29T08:42:36Z</time>
      </trkpt>
      <trkpt lat="40.454988" lon="0.067929">
        <ele>557.216</ele>
        <time>2018-09-29T08:42:37Z</time>
      </trkpt>
      <trkpt lat="40.454778" lon="0.068287">
        <ele>554.373</ele>
        <time>2018-09-29T08:42:42Z</time>
      </trkpt>
      <trkpt lat="40.454734" lon="0.068351">
        <ele>554.390</ele>
        <time>2018-09-29T08:42:43Z</time>
      </trkpt>
      <trkpt lat="40.454703" lon="0.068424">
        <ele>553.377</ele>
        <time>2018-09-29T08:42:44Z</time>
      </trkpt>
      <trkpt lat="40.454685" lon="0.068514">
        <ele>552.961</ele>
        <time>2018-09-29T08:42:45Z</time>
      </trkpt>
      <trkpt lat="40.454677" lon="0.068600">
        <ele>552.427</ele>
        <time>2018-09-29T08:42:46Z</time>
      </trkpt>
      <trkpt lat="40.454672" lon="0.068696">
        <ele>552.408</ele>
        <time>2018-09-29T08:42:47Z</time>
      </trkpt>
      <trkpt lat="40.454655" lon="0.069046">
        <ele>550.970</ele>
        <time>2018-09-29T08:42:51Z</time>
      </trkpt>
      <trkpt lat="40.454638" lon="0.069136">
        <ele>550.997</ele>
        <time>2018-09-29T08:42:52Z</time>
      </trkpt>
      <trkpt lat="40.454544" lon="0.069599">
        <ele>551.461</ele>
        <time>2018-09-29T08:42:58Z</time>
      </trkpt>
      <trkpt lat="40.454447" lon="0.069908">
        <ele>548.519</ele>
        <time>2018-09-29T08:43:02Z</time>
      </trkpt>
      <trkpt lat="40.454409" lon="0.069978">
        <ele>547.637</ele>
        <time>2018-09-29T08:43:03Z</time>
      </trkpt>
      <trkpt lat="40.454225" lon="0.070235">
        <ele>546.610</ele>
        <time>2018-09-29T08:43:07Z</time>
      </trkpt>
      <trkpt lat="40.454016" lon="0.070608">
        <ele>544.237</ele>
        <time>2018-09-29T08:43:12Z</time>
      </trkpt>
      <trkpt lat="40.453994" lon="0.070689">
        <ele>543.774</ele>
        <time>2018-09-29T08:43:13Z</time>
      </trkpt>
      <trkpt lat="40.453976" lon="0.070760">
        <ele>543.213</ele>
        <time>2018-09-29T08:43:14Z</time>
      </trkpt>
      <trkpt lat="40.453952" lon="0.070834">
        <ele>542.343</ele>
        <time>2018-09-29T08:43:15Z</time>
      </trkpt>
      <trkpt lat="40.453915" lon="0.070895">
        <ele>542.307</ele>
        <time>2018-09-29T08:43:16Z</time>
      </trkpt>
      <trkpt lat="40.453869" lon="0.070947">
        <ele>541.308</ele>
        <time>2018-09-29T08:43:17Z</time>
      </trkpt>
      <trkpt lat="40.453814" lon="0.070995">
        <ele>540.864</ele>
        <time>2018-09-29T08:43:18Z</time>
      </trkpt>
      <trkpt lat="40.453766" lon="0.071042">
        <ele>540.431</ele>
        <time>2018-09-29T08:43:19Z</time>
      </trkpt>
      <trkpt lat="40.453726" lon="0.071107">
        <ele>539.995</ele>
        <time>2018-09-29T08:43:20Z</time>
      </trkpt>
      <trkpt lat="40.453699" lon="0.071179">
        <ele>539.413</ele>
        <time>2018-09-29T08:43:21Z</time>
      </trkpt>
      <trkpt lat="40.453680" lon="0.071260">
        <ele>539.451</ele>
        <time>2018-09-29T08:43:22Z</time>
      </trkpt>
      <trkpt lat="40.453669" lon="0.071351">
        <ele>538.944</ele>
        <time>2018-09-29T08:43:23Z</time>
      </trkpt>
      <trkpt lat="40.453667" lon="0.071439">
        <ele>538.471</ele>
        <time>2018-09-29T08:43:24Z</time>
      </trkpt>
      <trkpt lat="40.453671" lon="0.071538">
        <ele>537.578</ele>
        <time>2018-09-29T08:43:25Z</time>
      </trkpt>
      <trkpt lat="40.453670" lon="0.071732">
        <ele>536.544</ele>
        <time>2018-09-29T08:43:27Z</time>
      </trkpt>
      <trkpt lat="40.453657" lon="0.071834">
        <ele>536.505</ele>
        <time>2018-09-29T08:43:28Z</time>
      </trkpt>
      <trkpt lat="40.453634" lon="0.071937">
        <ele>536.015</ele>
        <time>2018-09-29T08:43:29Z</time>
      </trkpt>
      <trkpt lat="40.453602" lon="0.072021">
        <ele>535.108</ele>
        <time>2018-09-29T08:43:30Z</time>
      </trkpt>
      <trkpt lat="40.453558" lon="0.072083">
        <ele>535.117</ele>
        <time>2018-09-29T08:43:31Z</time>
      </trkpt>
      <trkpt lat="40.453504" lon="0.072131">
        <ele>535.194</ele>
        <time>2018-09-29T08:43:32Z</time>
      </trkpt>
      <trkpt lat="40.453446" lon="0.072161">
        <ele>535.168</ele>
        <time>2018-09-29T08:43:33Z</time>
      </trkpt>
      <trkpt lat="40.453386" lon="0.072174">
        <ele>534.676</ele>
        <time>2018-09-29T08:43:34Z</time>
      </trkpt>
      <trkpt lat="40.453326" lon="0.072179">
        <ele>534.654</ele>
        <time>2018-09-29T08:43:35Z</time>
      </trkpt>
      <trkpt lat="40.453269" lon="0.072179">
        <ele>534.637</ele>
        <time>2018-09-29T08:43:36Z</time>
      </trkpt>
      <trkpt lat="40.452921" lon="0.072195">
        <ele>536.064</ele>
        <time>2018-09-29T08:43:42Z</time>
      </trkpt>
      <trkpt lat="40.452814" lon="0.072210">
        <ele>536.531</ele>
        <time>2018-09-29T08:43:44Z</time>
      </trkpt>
      <trkpt lat="40.452769" lon="0.072212">
        <ele>536.549</ele>
        <time>2018-09-29T08:43:45Z</time>
      </trkpt>
      <trkpt lat="40.452681" lon="0.072231">
        <ele>536.502</ele>
        <time>2018-09-29T08:43:47Z</time>
      </trkpt>
      <trkpt lat="40.452639" lon="0.072252">
        <ele>536.522</ele>
        <time>2018-09-29T08:43:48Z</time>
      </trkpt>
      <trkpt lat="40.452558" lon="0.072316">
        <ele>536.508</ele>
        <time>2018-09-29T08:43:50Z</time>
      </trkpt>
      <trkpt lat="40.452517" lon="0.072366">
        <ele>536.577</ele>
        <time>2018-09-29T08:43:51Z</time>
      </trkpt>
      <trkpt lat="40.452486" lon="0.072418">
        <ele>535.514</ele>
        <time>2018-09-29T08:43:52Z</time>
      </trkpt>
      <trkpt lat="40.452456" lon="0.072479">
        <ele>534.648</ele>
        <time>2018-09-29T08:43:53Z</time>
      </trkpt>
      <trkpt lat="40.452431" lon="0.072551">
        <ele>534.666</ele>
        <time>2018-09-29T08:43:54Z</time>
      </trkpt>
      <trkpt lat="40.452410" lon="0.072629">
        <ele>533.624</ele>
        <time>2018-09-29T08:43:55Z</time>
      </trkpt>
      <trkpt lat="40.452339" lon="0.072892">
        <ele>531.257</ele>
        <time>2018-09-29T08:43:58Z</time>
      </trkpt>
      <trkpt lat="40.452272" lon="0.073042">
        <ele>529.814</ele>
        <time>2018-09-29T08:44:00Z</time>
      </trkpt>
      <trkpt lat="40.452226" lon="0.073094">
        <ele>529.851</ele>
        <time>2018-09-29T08:44:01Z</time>
      </trkpt>
      <trkpt lat="40.452175" lon="0.073131">
        <ele>529.888</ele>
        <time>2018-09-29T08:44:02Z</time>
      </trkpt>
      <trkpt lat="40.451783" lon="0.073371">
        <ele>528.824</ele>
        <time>2018-09-29T08:44:09Z</time>
      </trkpt>
      <trkpt lat="40.451727" lon="0.073427">
        <ele>528.826</ele>
        <time>2018-09-29T08:44:10Z</time>
      </trkpt>
      <trkpt lat="40.451489" lon="0.073662">
        <ele>528.808</ele>
        <time>2018-09-29T08:44:15Z</time>
      </trkpt>
      <trkpt lat="40.451167" lon="0.073836">
        <ele>528.891</ele>
        <time>2018-09-29T08:44:21Z</time>
      </trkpt>
      <trkpt lat="40.451059" lon="0.073908">
        <ele>528.878</ele>
        <time>2018-09-29T08:44:23Z</time>
      </trkpt>
      <trkpt lat="40.450882" lon="0.073982">
        <ele>528.312</ele>
        <time>2018-09-29T08:44:26Z</time>
      </trkpt>
      <trkpt lat="40.450830" lon="0.073998">
        <ele>528.340</ele>
        <time>2018-09-29T08:44:27Z</time>
      </trkpt>
      <trkpt lat="40.450438" lon="0.074117">
        <ele>526.938</ele>
        <time>2018-09-29T08:44:34Z</time>
      </trkpt>
      <trkpt lat="40.450384" lon="0.074124">
        <ele>526.931</ele>
        <time>2018-09-29T08:44:35Z</time>
      </trkpt>
      <trkpt lat="40.450328" lon="0.074125">
        <ele>527.488</ele>
        <time>2018-09-29T08:44:36Z</time>
      </trkpt>
      <trkpt lat="40.449910" lon="0.074029">
        <ele>525.585</ele>
        <time>2018-09-29T08:44:43Z</time>
      </trkpt>
      <trkpt lat="40.449797" lon="0.074002">
        <ele>524.596</ele>
        <time>2018-09-29T08:44:45Z</time>
      </trkpt>
      <trkpt lat="40.449737" lon="0.074014">
        <ele>523.531</ele>
        <time>2018-09-29T08:44:46Z</time>
      </trkpt>
      <trkpt lat="40.449674" lon="0.074051">
        <ele>523.024</ele>
        <time>2018-09-29T08:44:47Z</time>
      </trkpt>
      <trkpt lat="40.449614" lon="0.074105">
        <ele>522.608</ele>
        <time>2018-09-29T08:44:48Z</time>
      </trkpt>
      <trkpt lat="40.449549" lon="0.074168">
        <ele>521.662</ele>
        <time>2018-09-29T08:44:49Z</time>
      </trkpt>
      <trkpt lat="40.449488" lon="0.074228">
        <ele>521.699</ele>
        <time>2018-09-29T08:44:50Z</time>
      </trkpt>
      <trkpt lat="40.449372" lon="0.074358">
        <ele>521.123</ele>
        <time>2018-09-29T08:44:52Z</time>
      </trkpt>
      <trkpt lat="40.449330" lon="0.074432">
        <ele>521.161</ele>
        <time>2018-09-29T08:44:53Z</time>
      </trkpt>
      <trkpt lat="40.449291" lon="0.074506">
        <ele>521.149</ele>
        <time>2018-09-29T08:44:54Z</time>
      </trkpt>
      <trkpt lat="40.449250" lon="0.074569">
        <ele>521.142</ele>
        <time>2018-09-29T08:44:55Z</time>
      </trkpt>
      <trkpt lat="40.449207" lon="0.074622">
        <ele>520.249</ele>
        <time>2018-09-29T08:44:56Z</time>
      </trkpt>
      <trkpt lat="40.449162" lon="0.074673">
        <ele>520.246</ele>
        <time>2018-09-29T08:44:57Z</time>
      </trkpt>
      <trkpt lat="40.448808" lon="0.075046">
        <ele>517.844</ele>
        <time>2018-09-29T08:45:04Z</time>
      </trkpt>
      <trkpt lat="40.448361" lon="0.075448">
        <ele>514.405</ele>
        <time>2018-09-29T08:45:11Z</time>
      </trkpt>
      <trkpt lat="40.448047" lon="0.075871">
        <ele>511.015</ele>
        <time>2018-09-29T08:45:16Z</time>
      </trkpt>
      <trkpt lat="40.447774" lon="0.076220">
        <ele>509.108</ele>
        <time>2018-09-29T08:45:20Z</time>
      </trkpt>
      <trkpt lat="40.447717" lon="0.076320">
        <ele>508.667</ele>
        <time>2018-09-29T08:45:21Z</time>
      </trkpt>
      <trkpt lat="40.447565" lon="0.076596">
        <ele>507.784</ele>
        <time>2018-09-29T08:45:24Z</time>
      </trkpt>
      <trkpt lat="40.447501" lon="0.076673">
        <ele>507.748</ele>
        <time>2018-09-29T08:45:25Z</time>
      </trkpt>
      <trkpt lat="40.447373" lon="0.076812">
        <ele>507.756</ele>
        <time>2018-09-29T08:45:27Z</time>
      </trkpt>
      <trkpt lat="40.447318" lon="0.076891">
        <ele>507.244</ele>
        <time>2018-09-29T08:45:28Z</time>
      </trkpt>
      <trkpt lat="40.447209" lon="0.077062">
        <ele>506.777</ele>
        <time>2018-09-29T08:45:30Z</time>
      </trkpt>
      <trkpt lat="40.447098" lon="0.077218">
        <ele>505.714</ele>
        <time>2018-09-29T08:45:32Z</time>
      </trkpt>
      <trkpt lat="40.447058" lon="0.077308">
        <ele>505.351</ele>
        <time>2018-09-29T08:45:33Z</time>
      </trkpt>
      <trkpt lat="40.446890" lon="0.077731">
        <ele>502.965</ele>
        <time>2018-09-29T08:45:37Z</time>
      </trkpt>
      <trkpt lat="40.446786" lon="0.077913">
        <ele>501.968</ele>
        <time>2018-09-29T08:45:39Z</time>
      </trkpt>
      <trkpt lat="40.446722" lon="0.077984">
        <ele>501.914</ele>
        <time>2018-09-29T08:45:40Z</time>
      </trkpt>
      <trkpt lat="40.446654" lon="0.078034">
        <ele>501.408</ele>
        <time>2018-09-29T08:45:41Z</time>
      </trkpt>
      <trkpt lat="40.446269" lon="0.078322">
        <ele>500.039</ele>
        <time>2018-09-29T08:45:47Z</time>
      </trkpt>
      <trkpt lat="40.446161" lon="0.078404">
        <ele>500.016</ele>
        <time>2018-09-29T08:45:49Z</time>
      </trkpt>
      <trkpt lat="40.445806" lon="0.078683">
        <ele>500.570</ele>
        <time>2018-09-29T08:45:56Z</time>
      </trkpt>
      <trkpt lat="40.445734" lon="0.078783">
        <ele>500.568</ele>
        <time>2018-09-29T08:45:58Z</time>
      </trkpt>
      <trkpt lat="40.445707" lon="0.078846">
        <ele>500.556</ele>
        <time>2018-09-29T08:45:59Z</time>
      </trkpt>
      <trkpt lat="40.445682" lon="0.078917">
        <ele>500.519</ele>
        <time>2018-09-29T08:46:00Z</time>
      </trkpt>
      <trkpt lat="40.445659" lon="0.078981">
        <ele>500.056</ele>
        <time>2018-09-29T08:46:01Z</time>
      </trkpt>
      <trkpt lat="40.445625" lon="0.079041">
        <ele>500.063</ele>
        <time>2018-09-29T08:46:02Z</time>
      </trkpt>
      <trkpt lat="40.445572" lon="0.079082">
        <ele>499.562</ele>
        <time>2018-09-29T08:46:03Z</time>
      </trkpt>
      <trkpt lat="40.445517" lon="0.079100">
        <ele>499.583</ele>
        <time>2018-09-29T08:46:04Z</time>
      </trkpt>
      <trkpt lat="40.445458" lon="0.079113">
        <ele>498.511</ele>
        <time>2018-09-29T08:46:05Z</time>
      </trkpt>
      <trkpt lat="40.445392" lon="0.079133">
        <ele>497.608</ele>
        <time>2018-09-29T08:46:06Z</time>
      </trkpt>
      <trkpt lat="40.445329" lon="0.079162">
        <ele>497.139</ele>
        <time>2018-09-29T08:46:07Z</time>
      </trkpt>
      <trkpt lat="40.445265" lon="0.079193">
        <ele>497.156</ele>
        <time>2018-09-29T08:46:08Z</time>
      </trkpt>
      <trkpt lat="40.445201" lon="0.079213">
        <ele>497.130</ele>
        <time>2018-09-29T08:46:09Z</time>
      </trkpt>
      <trkpt lat="40.445142" lon="0.079209">
        <ele>497.118</ele>
        <time>2018-09-29T08:46:10Z</time>
      </trkpt>
      <trkpt lat="40.445083" lon="0.079179">
        <ele>496.656</ele>
        <time>2018-09-29T08:46:11Z</time>
      </trkpt>
      <trkpt lat="40.445040" lon="0.079141">
        <ele>496.669</ele>
        <time>2018-09-29T08:46:12Z</time>
      </trkpt>
      <trkpt lat="40.445008" lon="0.079105">
        <ele>496.616</ele>
        <time>2018-09-29T08:46:13Z</time>
      </trkpt>
      <trkpt lat="40.444968" lon="0.079059">
        <ele>496.673</ele>
        <time>2018-09-29T08:46:14Z</time>
      </trkpt>
      <trkpt lat="40.444780" lon="0.078847">
        <ele>496.189</ele>
        <time>2018-09-29T08:46:19Z</time>
      </trkpt>
      <trkpt lat="40.444743" lon="0.078792">
        <ele>495.706</ele>
        <time>2018-09-29T08:46:20Z</time>
      </trkpt>
      <trkpt lat="40.444541" lon="0.078404">
        <ele>495.726</ele>
        <time>2018-09-29T08:46:26Z</time>
      </trkpt>
      <trkpt lat="40.444510" lon="0.078338">
        <ele>495.708</ele>
        <time>2018-09-29T08:46:27Z</time>
      </trkpt>
      <trkpt lat="40.444415" lon="0.078157">
        <ele>495.771</ele>
        <time>2018-09-29T08:46:30Z</time>
      </trkpt>
      <trkpt lat="40.444394" lon="0.078095">
        <ele>495.298</ele>
        <time>2018-09-29T08:46:31Z</time>
      </trkpt>
      <trkpt lat="40.444327" lon="0.077905">
        <ele>494.742</ele>
        <time>2018-09-29T08:46:34Z</time>
      </trkpt>
      <trkpt lat="40.444298" lon="0.077855">
        <ele>494.230</ele>
        <time>2018-09-29T08:46:35Z</time>
      </trkpt>
      <trkpt lat="40.444263" lon="0.077797">
        <ele>494.258</ele>
        <time>2018-09-29T08:46:36Z</time>
      </trkpt>
      <trkpt lat="40.444239" lon="0.077745">
        <ele>494.211</ele>
        <time>2018-09-29T08:46:37Z</time>
      </trkpt>
      <trkpt lat="40.444215" lon="0.077684">
        <ele>494.278</ele>
        <time>2018-09-29T08:46:38Z</time>
      </trkpt>
      <trkpt lat="40.444135" lon="0.077319">
        <ele>492.855</ele>
        <time>2018-09-29T08:46:44Z</time>
      </trkpt>
      <trkpt lat="40.444101" lon="0.077197">
        <ele>492.318</ele>
        <time>2018-09-29T08:46:46Z</time>
      </trkpt>
      <trkpt lat="40.444073" lon="0.077059">
        <ele>492.398</ele>
        <time>2018-09-29T08:46:48Z</time>
      </trkpt>
      <trkpt lat="40.444049" lon="0.076987">
        <ele>491.317</ele>
        <time>2018-09-29T08:46:49Z</time>
      </trkpt>
      <trkpt lat="40.443958" lon="0.076777">
        <ele>490.408</ele>
        <time>2018-09-29T08:46:52Z</time>
      </trkpt>
      <trkpt lat="40.443917" lon="0.076722">
        <ele>490.464</ele>
        <time>2018-09-29T08:46:53Z</time>
      </trkpt>
      <trkpt lat="40.443871" lon="0.076665">
        <ele>489.921</ele>
        <time>2018-09-29T08:46:54Z</time>
      </trkpt>
      <trkpt lat="40.443830" lon="0.076601">
        <ele>489.965</ele>
        <time>2018-09-29T08:46:55Z</time>
      </trkpt>
      <trkpt lat="40.443791" lon="0.076528">
        <ele>488.963</ele>
        <time>2018-09-29T08:46:56Z</time>
      </trkpt>
      <trkpt lat="40.443692" lon="0.076334">
        <ele>487.551</ele>
        <time>2018-09-29T08:46:59Z</time>
      </trkpt>
      <trkpt lat="40.443673" lon="0.076255">
        <ele>487.034</ele>
        <time>2018-09-29T08:47:00Z</time>
      </trkpt>
      <trkpt lat="40.443640" lon="0.076083">
        <ele>486.021</ele>
        <time>2018-09-29T08:47:02Z</time>
      </trkpt>
      <trkpt lat="40.443617" lon="0.075999">
        <ele>485.198</ele>
        <time>2018-09-29T08:47:03Z</time>
      </trkpt>
      <trkpt lat="40.443584" lon="0.075908">
        <ele>485.159</ele>
        <time>2018-09-29T08:47:04Z</time>
      </trkpt>
      <trkpt lat="40.443423" lon="0.075580">
        <ele>485.603</ele>
        <time>2018-09-29T08:47:10Z</time>
      </trkpt>
      <trkpt lat="40.443395" lon="0.075548">
        <ele>485.623</ele>
        <time>2018-09-29T08:47:11Z</time>
      </trkpt>
      <trkpt lat="40.443369" lon="0.075507">
        <ele>485.608</ele>
        <time>2018-09-29T08:47:12Z</time>
      </trkpt>
      <trkpt lat="40.443349" lon="0.075459">
        <ele>486.048</ele>
        <time>2018-09-29T08:47:13Z</time>
      </trkpt>
      <trkpt lat="40.443330" lon="0.075412">
        <ele>486.085</ele>
        <time>2018-09-29T08:47:14Z</time>
      </trkpt>
      <trkpt lat="40.443302" lon="0.075363">
        <ele>486.059</ele>
        <time>2018-09-29T08:47:15Z</time>
      </trkpt>
      <trkpt lat="40.443277" lon="0.075326">
        <ele>486.017</ele>
        <time>2018-09-29T08:47:16Z</time>
      </trkpt>
      <trkpt lat="40.443225" lon="0.075236">
        <ele>486.035</ele>
        <time>2018-09-29T08:47:18Z</time>
      </trkpt>
      <trkpt lat="40.443206" lon="0.075183">
        <ele>486.048</ele>
        <time>2018-09-29T08:47:19Z</time>
      </trkpt>
      <trkpt lat="40.443085" lon="0.074735">
        <ele>483.645</ele>
        <time>2018-09-29T08:47:27Z</time>
      </trkpt>
      <trkpt lat="40.442943" lon="0.074165">
        <ele>482.252</ele>
        <time>2018-09-29T08:47:36Z</time>
      </trkpt>
      <trkpt lat="40.442882" lon="0.073855">
        <ele>482.216</ele>
        <time>2018-09-29T08:47:41Z</time>
      </trkpt>
      <trkpt lat="40.442885" lon="0.073805">
        <ele>482.276</ele>
        <time>2018-09-29T08:47:42Z</time>
      </trkpt>
      <trkpt lat="40.442895" lon="0.073754">
        <ele>482.213</ele>
        <time>2018-09-29T08:47:43Z</time>
      </trkpt>
      <trkpt lat="40.442910" lon="0.073701">
        <ele>482.208</ele>
        <time>2018-09-29T08:47:44Z</time>
      </trkpt>
      <trkpt lat="40.442915" lon="0.073652">
        <ele>482.244</ele>
        <time>2018-09-29T08:47:45Z</time>
      </trkpt>
      <trkpt lat="40.442910" lon="0.073600">
        <ele>482.221</ele>
        <time>2018-09-29T08:47:46Z</time>
      </trkpt>
      <trkpt lat="40.442906" lon="0.073551">
        <ele>483.225</ele>
        <time>2018-09-29T08:47:47Z</time>
      </trkpt>
      <trkpt lat="40.442850" lon="0.073293">
        <ele>484.113</ele>
        <time>2018-09-29T08:47:52Z</time>
      </trkpt>
      <trkpt lat="40.442740" lon="0.072879">
        <ele>483.651</ele>
        <time>2018-09-29T08:48:00Z</time>
      </trkpt>
      <trkpt lat="40.442734" lon="0.072831">
        <ele>483.674</ele>
        <time>2018-09-29T08:48:01Z</time>
      </trkpt>
      <trkpt lat="40.442733" lon="0.072777">
        <ele>483.621</ele>
        <time>2018-09-29T08:48:02Z</time>
      </trkpt>
      <trkpt lat="40.442704" lon="0.072546">
        <ele>484.618</ele>
        <time>2018-09-29T08:48:07Z</time>
      </trkpt>
      <trkpt lat="40.442633" lon="0.072320">
        <ele>485.194</ele>
        <time>2018-09-29T08:48:12Z</time>
      </trkpt>
      <trkpt lat="40.442574" lon="0.072011">
        <ele>486.057</ele>
        <time>2018-09-29T08:48:19Z</time>
      </trkpt>
      <trkpt lat="40.442526" lon="0.071717">
        <ele>487.522</ele>
        <time>2018-09-29T08:48:25Z</time>
      </trkpt>
      <trkpt lat="40.442461" lon="0.071533">
        <ele>487.508</ele>
        <time>2018-09-29T08:48:29Z</time>
      </trkpt>
      <trkpt lat="40.442444" lon="0.071427">
        <ele>487.552</ele>
        <time>2018-09-29T08:48:31Z</time>
      </trkpt>
      <trkpt lat="40.442428" lon="0.071374">
        <ele>487.589</ele>
        <time>2018-09-29T08:48:32Z</time>
      </trkpt>
      <trkpt lat="40.442411" lon="0.071324">
        <ele>487.513</ele>
        <time>2018-09-29T08:48:33Z</time>
      </trkpt>
      <trkpt lat="40.442401" lon="0.071272">
        <ele>487.591</ele>
        <time>2018-09-29T08:48:34Z</time>
      </trkpt>
      <trkpt lat="40.442397" lon="0.071221">
        <ele>487.549</ele>
        <time>2018-09-29T08:48:35Z</time>
      </trkpt>
      <trkpt lat="40.442360" lon="0.071022">
        <ele>488.432</ele>
        <time>2018-09-29T08:48:39Z</time>
      </trkpt>
      <trkpt lat="40.442343" lon="0.070968">
        <ele>488.459</ele>
        <time>2018-09-29T08:48:40Z</time>
      </trkpt>
      <trkpt lat="40.442247" lon="0.070647">
        <ele>489.996</ele>
        <time>2018-09-29T08:48:47Z</time>
      </trkpt>
      <trkpt lat="40.442149" lon="0.070391">
        <ele>490.884</ele>
        <time>2018-09-29T08:48:53Z</time>
      </trkpt>
      <trkpt lat="40.442068" lon="0.070121">
        <ele>491.307</ele>
        <time>2018-09-29T08:48:59Z</time>
      </trkpt>
      <trkpt lat="40.441968" lon="0.069895">
        <ele>491.817</ele>
        <time>2018-09-29T08:49:05Z</time>
      </trkpt>
      <trkpt lat="40.441893" lon="0.069945">
        <ele>489.908</ele>
        <time>2018-09-29T08:49:08Z</time>
      </trkpt>
      <trkpt lat="40.441734" lon="0.069961">
        <ele>488.411</ele>
        <time>2018-09-29T08:49:13Z</time>
      </trkpt>
      <trkpt lat="40.441616" lon="0.069944">
        <ele>487.548</ele>
        <time>2018-09-29T08:49:17Z</time>
      </trkpt>
      <trkpt lat="40.441518" lon="0.069964">
        <ele>486.552</ele>
        <time>2018-09-29T08:49:22Z</time>
      </trkpt>
      <trkpt lat="40.441464" lon="0.069968">
        <ele>486.030</ele>
        <time>2018-09-29T08:49:25Z</time>
      </trkpt>
      <trkpt lat="40.441318" lon="0.069762">
        <ele>484.698</ele>
        <time>2018-09-29T08:49:31Z</time>
      </trkpt>
      <trkpt lat="40.441173" lon="0.069752">
        <ele>484.631</ele>
        <time>2018-09-29T08:49:37Z</time>
      </trkpt>
      <trkpt lat="40.441049" lon="0.069718">
        <ele>484.138</ele>
        <time>2018-09-29T08:49:42Z</time>
      </trkpt>
      <trkpt lat="40.440854" lon="0.069764">
        <ele>483.275</ele>
        <time>2018-09-29T08:49:49Z</time>
      </trkpt>
      <trkpt lat="40.440832" lon="0.069785">
        <ele>482.776</ele>
        <time>2018-09-29T08:49:50Z</time>
      </trkpt>
      <trkpt lat="40.440782" lon="0.069818">
        <ele>482.290</ele>
        <time>2018-09-29T08:49:52Z</time>
      </trkpt>
      <trkpt lat="40.440688" lon="0.069847">
        <ele>480.819</ele>
        <time>2018-09-29T08:49:57Z</time>
      </trkpt>
      <trkpt lat="40.440628" lon="0.069899">
        <ele>480.308</ele>
        <time>2018-09-29T08:50:01Z</time>
      </trkpt>
      <trkpt lat="40.440610" lon="0.069895">
        <ele>480.340</ele>
        <time>2018-09-29T08:50:02Z</time>
      </trkpt>
      <trkpt lat="40.440542" lon="0.069861">
        <ele>479.817</ele>
        <time>2018-09-29T08:50:05Z</time>
      </trkpt>
      <trkpt lat="40.440413" lon="0.069934">
        <ele>478.861</ele>
        <time>2018-09-29T08:50:10Z</time>
      </trkpt>
      <trkpt lat="40.440219" lon="0.069949">
        <ele>478.349</ele>
        <time>2018-09-29T08:50:16Z</time>
      </trkpt>
      <trkpt lat="40.440169" lon="0.070001">
        <ele>477.497</ele>
        <time>2018-09-29T08:50:18Z</time>
      </trkpt>
      <trkpt lat="40.440063" lon="0.070050">
        <ele>475.960</ele>
        <time>2018-09-29T08:50:23Z</time>
      </trkpt>
      <trkpt lat="40.439991" lon="0.070181">
        <ele>475.577</ele>
        <time>2018-09-29T08:50:27Z</time>
      </trkpt>
      <trkpt lat="40.439895" lon="0.070255">
        <ele>474.514</ele>
        <time>2018-09-29T08:50:31Z</time>
      </trkpt>
      <trkpt lat="40.439801" lon="0.070415">
        <ele>473.519</ele>
        <time>2018-09-29T08:50:37Z</time>
      </trkpt>
      <trkpt lat="40.439773" lon="0.070440">
        <ele>473.509</ele>
        <time>2018-09-29T08:50:38Z</time>
      </trkpt>
      <trkpt lat="40.439630" lon="0.070563">
        <ele>472.119</ele>
        <time>2018-09-29T08:50:43Z</time>
      </trkpt>
      <trkpt lat="40.439619" lon="0.070755">
        <ele>471.108</ele>
        <time>2018-09-29T08:50:48Z</time>
      </trkpt>
      <trkpt lat="40.439572" lon="0.070864">
        <ele>470.214</ele>
        <time>2018-09-29T08:50:52Z</time>
      </trkpt>
      <trkpt lat="40.439509" lon="0.070867">
        <ele>470.281</ele>
        <time>2018-09-29T08:50:54Z</time>
      </trkpt>
      <trkpt lat="40.439345" lon="0.070880">
        <ele>469.285</ele>
        <time>2018-09-29T08:50:58Z</time>
      </trkpt>
      <trkpt lat="40.439250" lon="0.070873">
        <ele>468.743</ele>
        <time>2018-09-29T08:51:00Z</time>
      </trkpt>
      <trkpt lat="40.439055" lon="0.070822">
        <ele>468.381</ele>
        <time>2018-09-29T08:51:04Z</time>
      </trkpt>
      <trkpt lat="40.438884" lon="0.070699">
        <ele>468.324</ele>
        <time>2018-09-29T08:51:08Z</time>
      </trkpt>
      <trkpt lat="40.438556" lon="0.070594">
        <ele>468.341</ele>
        <time>2018-09-29T08:51:15Z</time>
      </trkpt>
      <trkpt lat="40.438501" lon="0.070583">
        <ele>468.348</ele>
        <time>2018-09-29T08:51:16Z</time>
      </trkpt>
      <trkpt lat="40.438372" lon="0.070551">
        <ele>468.369</ele>
        <time>2018-09-29T08:51:19Z</time>
      </trkpt>
      <trkpt lat="40.438167" lon="0.070532">
        <ele>468.304</ele>
        <time>2018-09-29T08:51:23Z</time>
      </trkpt>
      <trkpt lat="40.437978" lon="0.070494">
        <ele>468.324</ele>
        <time>2018-09-29T08:51:27Z</time>
      </trkpt>
      <trkpt lat="40.437895" lon="0.070498">
        <ele>468.308</ele>
        <time>2018-09-29T08:51:29Z</time>
      </trkpt>
      <trkpt lat="40.437714" lon="0.070332">
        <ele>468.359</ele>
        <time>2018-09-29T08:51:34Z</time>
      </trkpt>
      <trkpt lat="40.437610" lon="0.070170">
        <ele>469.296</ele>
        <time>2018-09-29T08:51:38Z</time>
      </trkpt>
      <trkpt lat="40.437551" lon="0.070137">
        <ele>469.710</ele>
        <time>2018-09-29T08:51:40Z</time>
      </trkpt>
      <trkpt lat="40.437511" lon="0.070142">
        <ele>469.798</ele>
        <time>2018-09-29T08:51:41Z</time>
      </trkpt>
      <trkpt lat="40.437475" lon="0.070162">
        <ele>469.756</ele>
        <time>2018-09-29T08:51:42Z</time>
      </trkpt>
      <trkpt lat="40.437439" lon="0.070196">
        <ele>469.789</ele>
        <time>2018-09-29T08:51:43Z</time>
      </trkpt>
      <trkpt lat="40.437398" lon="0.070239">
        <ele>469.726</ele>
        <time>2018-09-29T08:51:44Z</time>
      </trkpt>
      <trkpt lat="40.437121" lon="0.070624">
        <ele>468.723</ele>
        <time>2018-09-29T08:51:51Z</time>
      </trkpt>
      <trkpt lat="40.436748" lon="0.071159">
        <ele>465.983</ele>
        <time>2018-09-29T08:51:59Z</time>
      </trkpt>
      <trkpt lat="40.436479" lon="0.071614">
        <ele>463.425</ele>
        <time>2018-09-29T08:52:05Z</time>
      </trkpt>
      <trkpt lat="40.436271" lon="0.071905">
        <ele>462.017</ele>
        <time>2018-09-29T08:52:09Z</time>
      </trkpt>
      <trkpt lat="40.435907" lon="0.072369">
        <ele>459.608</ele>
        <time>2018-09-29T08:52:16Z</time>
      </trkpt>
      <trkpt lat="40.435563" lon="0.072911">
        <ele>458.671</ele>
        <time>2018-09-29T08:52:24Z</time>
      </trkpt>
      <trkpt lat="40.435219" lon="0.073469">
        <ele>458.688</ele>
        <time>2018-09-29T08:52:32Z</time>
      </trkpt>
      <trkpt lat="40.434886" lon="0.074052">
        <ele>457.732</ele>
        <time>2018-09-29T08:52:40Z</time>
      </trkpt>
      <trkpt lat="40.434499" lon="0.074789">
        <ele>455.320</ele>
        <time>2018-09-29T08:52:50Z</time>
      </trkpt>
      <trkpt lat="40.434211" lon="0.075256">
        <ele>454.338</ele>
        <time>2018-09-29T08:52:57Z</time>
      </trkpt>
      <trkpt lat="40.433849" lon="0.075900">
        <ele>452.931</ele>
        <time>2018-09-29T08:53:06Z</time>
      </trkpt>
      <trkpt lat="40.433769" lon="0.076040">
        <ele>452.938</ele>
        <time>2018-09-29T08:53:08Z</time>
      </trkpt>
      <trkpt lat="40.433735" lon="0.076115">
        <ele>452.425</ele>
        <time>2018-09-29T08:53:09Z</time>
      </trkpt>
      <trkpt lat="40.433702" lon="0.076191">
        <ele>452.482</ele>
        <time>2018-09-29T08:53:10Z</time>
      </trkpt>
      <trkpt lat="40.433665" lon="0.076263">
        <ele>451.943</ele>
        <time>2018-09-29T08:53:11Z</time>
      </trkpt>
      <trkpt lat="40.433624" lon="0.076329">
        <ele>451.917</ele>
        <time>2018-09-29T08:53:12Z</time>
      </trkpt>
      <trkpt lat="40.433571" lon="0.076393">
        <ele>451.908</ele>
        <time>2018-09-29T08:53:13Z</time>
      </trkpt>
      <trkpt lat="40.433523" lon="0.076449">
        <ele>451.961</ele>
        <time>2018-09-29T08:53:14Z</time>
      </trkpt>
      <trkpt lat="40.433155" lon="0.076830">
        <ele>451.468</ele>
        <time>2018-09-29T08:53:21Z</time>
      </trkpt>
      <trkpt lat="40.432729" lon="0.077290">
        <ele>449.582</ele>
        <time>2018-09-29T08:53:29Z</time>
      </trkpt>
      <trkpt lat="40.432239" lon="0.077806">
        <ele>447.620</ele>
        <time>2018-09-29T08:53:38Z</time>
      </trkpt>
      <trkpt lat="40.431740" lon="0.078343">
        <ele>446.618</ele>
        <time>2018-09-29T08:53:47Z</time>
      </trkpt>
      <trkpt lat="40.431117" lon="0.078990">
        <ele>445.791</ele>
        <time>2018-09-29T08:53:58Z</time>
      </trkpt>
      <trkpt lat="40.430692" lon="0.079433">
        <ele>445.748</ele>
        <time>2018-09-29T08:54:06Z</time>
      </trkpt>
      <trkpt lat="40.430226" lon="0.079871">
        <ele>445.245</ele>
        <time>2018-09-29T08:54:15Z</time>
      </trkpt>
      <trkpt lat="40.430144" lon="0.079967">
        <ele>445.282</ele>
        <time>2018-09-29T08:54:17Z</time>
      </trkpt>
      <trkpt lat="40.429867" lon="0.080288">
        <ele>443.743</ele>
        <time>2018-09-29T08:54:24Z</time>
      </trkpt>
      <trkpt lat="40.429681" lon="0.080527">
        <ele>442.317</ele>
        <time>2018-09-29T08:54:29Z</time>
      </trkpt>
      <trkpt lat="40.429640" lon="0.080552">
        <ele>442.308</ele>
        <time>2018-09-29T08:54:30Z</time>
      </trkpt>
      <trkpt lat="40.429587" lon="0.080564">
        <ele>442.341</ele>
        <time>2018-09-29T08:54:31Z</time>
      </trkpt>
      <trkpt lat="40.429543" lon="0.080561">
        <ele>442.378</ele>
        <time>2018-09-29T08:54:32Z</time>
      </trkpt>
      <trkpt lat="40.429495" lon="0.080546">
        <ele>442.372</ele>
        <time>2018-09-29T08:54:33Z</time>
      </trkpt>
      <trkpt lat="40.429448" lon="0.080520">
        <ele>442.360</ele>
        <time>2018-09-29T08:54:34Z</time>
      </trkpt>
      <trkpt lat="40.429400" lon="0.080488">
        <ele>442.388</ele>
        <time>2018-09-29T08:54:35Z</time>
      </trkpt>
      <trkpt lat="40.429075" lon="0.080217">
        <ele>442.311</ele>
        <time>2018-09-29T08:54:42Z</time>
      </trkpt>
      <trkpt lat="40.428943" lon="0.080078">
        <ele>442.338</ele>
        <time>2018-09-29T08:54:45Z</time>
      </trkpt>
      <trkpt lat="40.428830" lon="0.079930">
        <ele>443.725</ele>
        <time>2018-09-29T08:54:48Z</time>
      </trkpt>
      <trkpt lat="40.428477" lon="0.079342">
        <ele>444.271</ele>
        <time>2018-09-29T08:54:58Z</time>
      </trkpt>
      <trkpt lat="40.428448" lon="0.079282">
        <ele>444.241</ele>
        <time>2018-09-29T08:54:59Z</time>
      </trkpt>
      <trkpt lat="40.428236" lon="0.078770">
        <ele>444.215</ele>
        <time>2018-09-29T08:55:07Z</time>
      </trkpt>
      <trkpt lat="40.428038" lon="0.078210">
        <ele>445.208</ele>
        <time>2018-09-29T08:55:16Z</time>
      </trkpt>
      <trkpt lat="40.427839" lon="0.077644">
        <ele>445.760</ele>
        <time>2018-09-29T08:55:25Z</time>
      </trkpt>
      <trkpt lat="40.427653" lon="0.077242">
        <ele>446.697</ele>
        <time>2018-09-29T08:55:32Z</time>
      </trkpt>
      <trkpt lat="40.427595" lon="0.077129">
        <ele>446.671</ele>
        <time>2018-09-29T08:55:34Z</time>
      </trkpt>
      <trkpt lat="40.427393" lon="0.076524">
        <ele>447.199</ele>
        <time>2018-09-29T08:55:44Z</time>
      </trkpt>
      <trkpt lat="40.427310" lon="0.076271">
        <ele>447.647</ele>
        <time>2018-09-29T08:55:49Z</time>
      </trkpt>
      <trkpt lat="40.427248" lon="0.076191">
        <ele>447.690</ele>
        <time>2018-09-29T08:55:51Z</time>
      </trkpt>
      <trkpt lat="40.426928" lon="0.075883">
        <ele>447.657</ele>
        <time>2018-09-29T08:55:59Z</time>
      </trkpt>
      <trkpt lat="40.426660" lon="0.075673">
        <ele>448.164</ele>
        <time>2018-09-29T08:56:06Z</time>
      </trkpt>
      <trkpt lat="40.426622" lon="0.075668">
        <ele>448.166</ele>
        <time>2018-09-29T08:56:07Z</time>
      </trkpt>
      <trkpt lat="40.426578" lon="0.075674">
        <ele>448.129</ele>
        <time>2018-09-29T08:56:08Z</time>
      </trkpt>
      <trkpt lat="40.426536" lon="0.075690">
        <ele>448.121</ele>
        <time>2018-09-29T08:56:09Z</time>
      </trkpt>
      <trkpt lat="40.426498" lon="0.075720">
        <ele>448.108</ele>
        <time>2018-09-29T08:56:10Z</time>
      </trkpt>
      <trkpt lat="40.426464" lon="0.075765">
        <ele>448.129</ele>
        <time>2018-09-29T08:56:11Z</time>
      </trkpt>
      <trkpt lat="40.426437" lon="0.075814">
        <ele>448.196</ele>
        <time>2018-09-29T08:56:12Z</time>
      </trkpt>
      <trkpt lat="40.426409" lon="0.075868">
        <ele>448.530</ele>
        <time>2018-09-29T08:56:13Z</time>
      </trkpt>
      <trkpt lat="40.426379" lon="0.075925">
        <ele>449.088</ele>
        <time>2018-09-29T08:56:14Z</time>
      </trkpt>
      <trkpt lat="40.426173" lon="0.076336">
        <ele>451.046</ele>
        <time>2018-09-29T08:56:22Z</time>
      </trkpt>
      <trkpt lat="40.426142" lon="0.076390">
        <ele>451.439</ele>
        <time>2018-09-29T08:56:23Z</time>
      </trkpt>
      <trkpt lat="40.425774" lon="0.076946">
        <ele>453.436</ele>
        <time>2018-09-29T08:56:35Z</time>
      </trkpt>
      <trkpt lat="40.425686" lon="0.077086">
        <ele>453.873</ele>
        <time>2018-09-29T08:56:40Z</time>
      </trkpt>
      <trkpt lat="40.425685" lon="0.077096">
        <ele>454.373</ele>
        <time>2018-09-29T08:56:47Z</time>
      </trkpt>
      <trkpt lat="40.425685" lon="0.077096">
        <ele>454.385</ele>
        <time>2018-09-29T08:57:05Z</time>
      </trkpt>
      <trkpt lat="40.425682" lon="0.077101">
        <ele>454.313</ele>
        <time>2018-09-29T08:57:25Z</time>
      </trkpt>
      <trkpt lat="40.425683" lon="0.077093">
        <ele>454.308</ele>
        <time>2018-09-29T08:57:48Z</time>
      </trkpt>
      <trkpt lat="40.425679" lon="0.077097">
        <ele>454.380</ele>
        <time>2018-09-29T08:58:19Z</time>
      </trkpt>
      <trkpt lat="40.425688" lon="0.077094">
        <ele>454.327</ele>
        <time>2018-09-29T08:58:41Z</time>
      </trkpt>
      <trkpt lat="40.425691" lon="0.077095">
        <ele>453.851</ele>
        <time>2018-09-29T08:59:02Z</time>
      </trkpt>
      <trkpt lat="40.425692" lon="0.077092">
        <ele>453.829</ele>
        <time>2018-09-29T08:59:20Z</time>
      </trkpt>
      <trkpt lat="40.425681" lon="0.077094">
        <ele>453.877</ele>
        <time>2018-09-29T08:59:40Z</time>
      </trkpt>
      <trkpt lat="40.425650" lon="0.077118">
        <ele>453.870</ele>
        <time>2018-09-29T08:59:42Z</time>
      </trkpt>
      <trkpt lat="40.425627" lon="0.077143">
        <ele>453.857</ele>
        <time>2018-09-29T08:59:43Z</time>
      </trkpt>
      <trkpt lat="40.425518" lon="0.077277">
        <ele>454.834</ele>
        <time>2018-09-29T08:59:48Z</time>
      </trkpt>
      <trkpt lat="40.425384" lon="0.077452">
        <ele>456.744</ele>
        <time>2018-09-29T08:59:55Z</time>
      </trkpt>
      <trkpt lat="40.425231" lon="0.077701">
        <ele>457.205</ele>
        <time>2018-09-29T09:00:01Z</time>
      </trkpt>
      <trkpt lat="40.424988" lon="0.078089">
        <ele>458.215</ele>
        <time>2018-09-29T09:00:10Z</time>
      </trkpt>
      <trkpt lat="40.424963" lon="0.078132">
        <ele>458.608</ele>
        <time>2018-09-29T09:00:11Z</time>
      </trkpt>
      <trkpt lat="40.424769" lon="0.078452">
        <ele>459.177</ele>
        <time>2018-09-29T09:00:19Z</time>
      </trkpt>
      <trkpt lat="40.424625" lon="0.078633">
        <ele>459.634</ele>
        <time>2018-09-29T09:00:25Z</time>
      </trkpt>
      <trkpt lat="40.424487" lon="0.078911">
        <ele>460.178</ele>
        <time>2018-09-29T09:00:32Z</time>
      </trkpt>
      <trkpt lat="40.424361" lon="0.079172">
        <ele>460.116</ele>
        <time>2018-09-29T09:00:38Z</time>
      </trkpt>
      <trkpt lat="40.424181" lon="0.079490">
        <ele>460.174</ele>
        <time>2018-09-29T09:00:46Z</time>
      </trkpt>
      <trkpt lat="40.424007" lon="0.079873">
        <ele>460.677</ele>
        <time>2018-09-29T09:00:55Z</time>
      </trkpt>
      <trkpt lat="40.423941" lon="0.080110">
        <ele>461.544</ele>
        <time>2018-09-29T09:01:01Z</time>
      </trkpt>
      <trkpt lat="40.423965" lon="0.080262">
        <ele>462.071</ele>
        <time>2018-09-29T09:01:04Z</time>
      </trkpt>
      <trkpt lat="40.423969" lon="0.080316">
        <ele>462.026</ele>
        <time>2018-09-29T09:01:05Z</time>
      </trkpt>
      <trkpt lat="40.423969" lon="0.080371">
        <ele>462.047</ele>
        <time>2018-09-29T09:01:06Z</time>
      </trkpt>
      <trkpt lat="40.423967" lon="0.080423">
        <ele>462.511</ele>
        <time>2018-09-29T09:01:07Z</time>
      </trkpt>
      <trkpt lat="40.423962" lon="0.080474">
        <ele>463.008</ele>
        <time>2018-09-29T09:01:08Z</time>
      </trkpt>
      <trkpt lat="40.423955" lon="0.080528">
        <ele>463.065</ele>
        <time>2018-09-29T09:01:09Z</time>
      </trkpt>
      <trkpt lat="40.423954" lon="0.080581">
        <ele>463.062</ele>
        <time>2018-09-29T09:01:10Z</time>
      </trkpt>
      <trkpt lat="40.423956" lon="0.080639">
        <ele>463.036</ele>
        <time>2018-09-29T09:01:11Z</time>
      </trkpt>
      <trkpt lat="40.423934" lon="0.081025">
        <ele>465.444</ele>
        <time>2018-09-29T09:01:19Z</time>
      </trkpt>
      <trkpt lat="40.423863" lon="0.081366">
        <ele>466.352</ele>
        <time>2018-09-29T09:01:27Z</time>
      </trkpt>
      <trkpt lat="40.423767" lon="0.081756">
        <ele>468.375</ele>
        <time>2018-09-29T09:01:36Z</time>
      </trkpt>
      <trkpt lat="40.423759" lon="0.082094">
        <ele>470.262</ele>
        <time>2018-09-29T09:01:44Z</time>
      </trkpt>
      <trkpt lat="40.423792" lon="0.082298">
        <ele>471.129</ele>
        <time>2018-09-29T09:01:52Z</time>
      </trkpt>
      <trkpt lat="40.423777" lon="0.082418">
        <ele>472.647</ele>
        <time>2018-09-29T09:01:59Z</time>
      </trkpt>
      <trkpt lat="40.423741" lon="0.082459">
        <ele>472.629</ele>
        <time>2018-09-29T09:02:02Z</time>
      </trkpt>
      <trkpt lat="40.423623" lon="0.082504">
        <ele>473.521</ele>
        <time>2018-09-29T09:02:09Z</time>
      </trkpt>
      <trkpt lat="40.423597" lon="0.082502">
        <ele>473.508</ele>
        <time>2018-09-29T09:02:10Z</time>
      </trkpt>
      <trkpt lat="40.423417" lon="0.082572">
        <ele>474.577</ele>
        <time>2018-09-29T09:02:16Z</time>
      </trkpt>
      <trkpt lat="40.423333" lon="0.082740">
        <ele>476.974</ele>
        <time>2018-09-29T09:02:22Z</time>
      </trkpt>
      <trkpt lat="40.423226" lon="0.082972">
        <ele>479.398</ele>
        <time>2018-09-29T09:02:29Z</time>
      </trkpt>
      <trkpt lat="40.423165" lon="0.083160">
        <ele>480.866</ele>
        <time>2018-09-29T09:02:36Z</time>
      </trkpt>
      <trkpt lat="40.423178" lon="0.083351">
        <ele>481.724</ele>
        <time>2018-09-29T09:02:42Z</time>
      </trkpt>
      <trkpt lat="40.423231" lon="0.083782">
        <ele>481.727</ele>
        <time>2018-09-29T09:02:52Z</time>
      </trkpt>
      <trkpt lat="40.423140" lon="0.084062">
        <ele>483.664</ele>
        <time>2018-09-29T09:02:59Z</time>
      </trkpt>
      <trkpt lat="40.423042" lon="0.084407">
        <ele>485.611</ele>
        <time>2018-09-29T09:03:08Z</time>
      </trkpt>
      <trkpt lat="40.422923" lon="0.084695">
        <ele>487.555</ele>
        <time>2018-09-29T09:03:16Z</time>
      </trkpt>
      <trkpt lat="40.422821" lon="0.084998">
        <ele>488.907</ele>
        <time>2018-09-29T09:03:25Z</time>
      </trkpt>
      <trkpt lat="40.422690" lon="0.085205">
        <ele>490.817</ele>
        <time>2018-09-29T09:03:32Z</time>
      </trkpt>
      <trkpt lat="40.422571" lon="0.085475">
        <ele>491.808</ele>
        <time>2018-09-29T09:03:40Z</time>
      </trkpt>
      <trkpt lat="40.422387" lon="0.085661">
        <ele>492.848</ele>
        <time>2018-09-29T09:03:48Z</time>
      </trkpt>
      <trkpt lat="40.422140" lon="0.085791">
        <ele>494.235</ele>
        <time>2018-09-29T09:03:57Z</time>
      </trkpt>
      <trkpt lat="40.421970" lon="0.085884">
        <ele>496.149</ele>
        <time>2018-09-29T09:04:04Z</time>
      </trkpt>
      <trkpt lat="40.421894" lon="0.085866">
        <ele>497.117</ele>
        <time>2018-09-29T09:04:07Z</time>
      </trkpt>
      <trkpt lat="40.421874" lon="0.085838">
        <ele>497.115</ele>
        <time>2018-09-29T09:04:08Z</time>
      </trkpt>
      <trkpt lat="40.421861" lon="0.085805">
        <ele>497.638</ele>
        <time>2018-09-29T09:04:09Z</time>
      </trkpt>
      <trkpt lat="40.421855" lon="0.085767">
        <ele>497.695</ele>
        <time>2018-09-29T09:04:10Z</time>
      </trkpt>
      <trkpt lat="40.421859" lon="0.085729">
        <ele>498.112</ele>
        <time>2018-09-29T09:04:11Z</time>
      </trkpt>
      <trkpt lat="40.421872" lon="0.085692">
        <ele>498.167</ele>
        <time>2018-09-29T09:04:12Z</time>
      </trkpt>
      <trkpt lat="40.421887" lon="0.085658">
        <ele>498.581</ele>
        <time>2018-09-29T09:04:13Z</time>
      </trkpt>
      <trkpt lat="40.421905" lon="0.085623">
        <ele>498.519</ele>
        <time>2018-09-29T09:04:14Z</time>
      </trkpt>
      <trkpt lat="40.422004" lon="0.085281">
        <ele>499.508</ele>
        <time>2018-09-29T09:04:23Z</time>
      </trkpt>
      <trkpt lat="40.422048" lon="0.084882">
        <ele>500.949</ele>
        <time>2018-09-29T09:04:33Z</time>
      </trkpt>
      <trkpt lat="40.422055" lon="0.084608">
        <ele>501.946</ele>
        <time>2018-09-29T09:04:40Z</time>
      </trkpt>
      <trkpt lat="40.422008" lon="0.084303">
        <ele>503.370</ele>
        <time>2018-09-29T09:04:48Z</time>
      </trkpt>
      <trkpt lat="40.421912" lon="0.083969">
        <ele>504.888</ele>
        <time>2018-09-29T09:04:57Z</time>
      </trkpt>
      <trkpt lat="40.421793" lon="0.083680">
        <ele>506.796</ele>
        <time>2018-09-29T09:05:05Z</time>
      </trkpt>
      <trkpt lat="40.421661" lon="0.083320">
        <ele>507.269</ele>
        <time>2018-09-29T09:05:15Z</time>
      </trkpt>
      <trkpt lat="40.421498" lon="0.083044">
        <ele>509.666</ele>
        <time>2018-09-29T09:05:24Z</time>
      </trkpt>
      <trkpt lat="40.421365" lon="0.082837">
        <ele>511.573</ele>
        <time>2018-09-29T09:05:31Z</time>
      </trkpt>
      <trkpt lat="40.421199" lon="0.082711">
        <ele>513.436</ele>
        <time>2018-09-29T09:05:38Z</time>
      </trkpt>
      <trkpt lat="40.421058" lon="0.082531">
        <ele>514.417</ele>
        <time>2018-09-29T09:05:45Z</time>
      </trkpt>
      <trkpt lat="40.420874" lon="0.082243">
        <ele>516.318</ele>
        <time>2018-09-29T09:05:55Z</time>
      </trkpt>
      <trkpt lat="40.420751" lon="0.081971">
        <ele>518.208</ele>
        <time>2018-09-29T09:06:03Z</time>
      </trkpt>
      <trkpt lat="40.420582" lon="0.081669">
        <ele>518.286</ele>
        <time>2018-09-29T09:06:12Z</time>
      </trkpt>
      <trkpt lat="40.420335" lon="0.081399">
        <ele>519.233</ele>
        <time>2018-09-29T09:06:22Z</time>
      </trkpt>
      <trkpt lat="40.420091" lon="0.081211">
        <ele>520.227</ele>
        <time>2018-09-29T09:06:31Z</time>
      </trkpt>
      <trkpt lat="40.419771" lon="0.080988">
        <ele>520.275</ele>
        <time>2018-09-29T09:06:41Z</time>
      </trkpt>
      <trkpt lat="40.419443" lon="0.080804">
        <ele>521.133</ele>
        <time>2018-09-29T09:06:51Z</time>
      </trkpt>
      <trkpt lat="40.419141" lon="0.080722">
        <ele>522.136</ele>
        <time>2018-09-29T09:06:59Z</time>
      </trkpt>
      <trkpt lat="40.418841" lon="0.080623">
        <ele>522.193</ele>
        <time>2018-09-29T09:07:07Z</time>
      </trkpt>
      <trkpt lat="40.418581" lon="0.080679">
        <ele>522.160</ele>
        <time>2018-09-29T09:07:14Z</time>
      </trkpt>
      <trkpt lat="40.418368" lon="0.080815">
        <ele>523.067</ele>
        <time>2018-09-29T09:07:21Z</time>
      </trkpt>
      <trkpt lat="40.418095" lon="0.081061">
        <ele>525.581</ele>
        <time>2018-09-29T09:07:31Z</time>
      </trkpt>
      <trkpt lat="40.417866" lon="0.081353">
        <ele>527.919</ele>
        <time>2018-09-29T09:07:41Z</time>
      </trkpt>
      <trkpt lat="40.417705" lon="0.081623">
        <ele>531.208</ele>
        <time>2018-09-29T09:07:50Z</time>
      </trkpt>
      <trkpt lat="40.417547" lon="0.081899">
        <ele>532.739</ele>
        <time>2018-09-29T09:07:59Z</time>
      </trkpt>
      <trkpt lat="40.417450" lon="0.082260">
        <ele>534.686</ele>
        <time>2018-09-29T09:08:09Z</time>
      </trkpt>
      <trkpt lat="40.417434" lon="0.082508">
        <ele>536.590</ele>
        <time>2018-09-29T09:08:16Z</time>
      </trkpt>
      <trkpt lat="40.417402" lon="0.082754">
        <ele>538.968</ele>
        <time>2018-09-29T09:08:23Z</time>
      </trkpt>
      <trkpt lat="40.417340" lon="0.083069">
        <ele>542.876</ele>
        <time>2018-09-29T09:08:32Z</time>
      </trkpt>
      <trkpt lat="40.417294" lon="0.083283">
        <ele>544.729</ele>
        <time>2018-09-29T09:08:38Z</time>
      </trkpt>
      <trkpt lat="40.417271" lon="0.083525">
        <ele>548.036</ele>
        <time>2018-09-29T09:08:45Z</time>
      </trkpt>
      <trkpt lat="40.417221" lon="0.083808">
        <ele>550.483</ele>
        <time>2018-09-29T09:08:54Z</time>
      </trkpt>
      <trkpt lat="40.417173" lon="0.084051">
        <ele>552.995</ele>
        <time>2018-09-29T09:09:03Z</time>
      </trkpt>
      <trkpt lat="40.417124" lon="0.084284">
        <ele>554.349</ele>
        <time>2018-09-29T09:09:13Z</time>
      </trkpt>
      <trkpt lat="40.417092" lon="0.084486">
        <ele>555.723</ele>
        <time>2018-09-29T09:09:21Z</time>
      </trkpt>
      <trkpt lat="40.417042" lon="0.084715">
        <ele>557.708</ele>
        <time>2018-09-29T09:09:30Z</time>
      </trkpt>
      <trkpt lat="40.417000" lon="0.084949">
        <ele>560.522</ele>
        <time>2018-09-29T09:09:39Z</time>
      </trkpt>
      <trkpt lat="40.416961" lon="0.085203">
        <ele>563.439</ele>
        <time>2018-09-29T09:09:48Z</time>
      </trkpt>
      <trkpt lat="40.416936" lon="0.085471">
        <ele>566.833</ele>
        <time>2018-09-29T09:09:58Z</time>
      </trkpt>
      <trkpt lat="40.416949" lon="0.085719">
        <ele>567.841</ele>
        <time>2018-09-29T09:10:06Z</time>
      </trkpt>
      <trkpt lat="40.417006" lon="0.085991">
        <ele>569.769</ele>
        <time>2018-09-29T09:10:15Z</time>
      </trkpt>
      <trkpt lat="40.417009" lon="0.086217">
        <ele>569.762</ele>
        <time>2018-09-29T09:10:22Z</time>
      </trkpt>
      <trkpt lat="40.416949" lon="0.086468">
        <ele>569.769</ele>
        <time>2018-09-29T09:10:30Z</time>
      </trkpt>
      <trkpt lat="40.416869" lon="0.086759">
        <ele>571.126</ele>
        <time>2018-09-29T09:10:39Z</time>
      </trkpt>
      <trkpt lat="40.416769" lon="0.087076">
        <ele>573.598</ele>
        <time>2018-09-29T09:10:49Z</time>
      </trkpt>
      <trkpt lat="40.416702" lon="0.087291">
        <ele>575.415</ele>
        <time>2018-09-29T09:10:56Z</time>
      </trkpt>
      <trkpt lat="40.416670" lon="0.087553">
        <ele>577.426</ele>
        <time>2018-09-29T09:11:04Z</time>
      </trkpt>
      <trkpt lat="40.416640" lon="0.087883">
        <ele>577.808</ele>
        <time>2018-09-29T09:11:13Z</time>
      </trkpt>
      <trkpt lat="40.416610" lon="0.088166">
        <ele>578.842</ele>
        <time>2018-09-29T09:11:21Z</time>
      </trkpt>
      <trkpt lat="40.416720" lon="0.088348">
        <ele>579.359</ele>
        <time>2018-09-29T09:11:27Z</time>
      </trkpt>
      <trkpt lat="40.416949" lon="0.088418">
        <ele>580.213</ele>
        <time>2018-09-29T09:11:35Z</time>
      </trkpt>
      <trkpt lat="40.417173" lon="0.088404">
        <ele>581.211</ele>
        <time>2018-09-29T09:11:42Z</time>
      </trkpt>
      <trkpt lat="40.417400" lon="0.088337">
        <ele>581.759</ele>
        <time>2018-09-29T09:11:49Z</time>
      </trkpt>
      <trkpt lat="40.417605" lon="0.088285">
        <ele>582.242</ele>
        <time>2018-09-29T09:11:56Z</time>
      </trkpt>
      <trkpt lat="40.417854" lon="0.088356">
        <ele>583.119</ele>
        <time>2018-09-29T09:12:03Z</time>
      </trkpt>
      <trkpt lat="40.418168" lon="0.088508">
        <ele>583.646</ele>
        <time>2018-09-29T09:12:12Z</time>
      </trkpt>
      <trkpt lat="40.418384" lon="0.088719">
        <ele>583.618</ele>
        <time>2018-09-29T09:12:19Z</time>
      </trkpt>
      <trkpt lat="40.418618" lon="0.089184">
        <ele>582.798</ele>
        <time>2018-09-29T09:12:29Z</time>
      </trkpt>
      <trkpt lat="40.418857" lon="0.089703">
        <ele>582.217</ele>
        <time>2018-09-29T09:12:39Z</time>
      </trkpt>
      <trkpt lat="40.418885" lon="0.089913">
        <ele>583.608</ele>
        <time>2018-09-29T09:12:44Z</time>
      </trkpt>
      <trkpt lat="40.418899" lon="0.089955">
        <ele>583.614</ele>
        <time>2018-09-29T09:12:45Z</time>
      </trkpt>
      <trkpt lat="40.418925" lon="0.089988">
        <ele>583.671</ele>
        <time>2018-09-29T09:12:46Z</time>
      </trkpt>
      <trkpt lat="40.418958" lon="0.090010">
        <ele>583.625</ele>
        <time>2018-09-29T09:12:47Z</time>
      </trkpt>
      <trkpt lat="40.418997" lon="0.090020">
        <ele>583.613</ele>
        <time>2018-09-29T09:12:48Z</time>
      </trkpt>
      <trkpt lat="40.419036" lon="0.090020">
        <ele>584.151</ele>
        <time>2018-09-29T09:12:49Z</time>
      </trkpt>
      <trkpt lat="40.419078" lon="0.090014">
        <ele>584.114</ele>
        <time>2018-09-29T09:12:50Z</time>
      </trkpt>
      <trkpt lat="40.419121" lon="0.090004">
        <ele>584.141</ele>
        <time>2018-09-29T09:12:51Z</time>
      </trkpt>
      <trkpt lat="40.419159" lon="0.089989">
        <ele>584.118</ele>
        <time>2018-09-29T09:12:52Z</time>
      </trkpt>
      <trkpt lat="40.419192" lon="0.089960">
        <ele>584.178</ele>
        <time>2018-09-29T09:12:53Z</time>
      </trkpt>
      <trkpt lat="40.419221" lon="0.089925">
        <ele>584.133</ele>
        <time>2018-09-29T09:12:54Z</time>
      </trkpt>
      <trkpt lat="40.419250" lon="0.089894">
        <ele>584.126</ele>
        <time>2018-09-29T09:12:55Z</time>
      </trkpt>
      <trkpt lat="40.419283" lon="0.089869">
        <ele>584.108</ele>
        <time>2018-09-29T09:12:56Z</time>
      </trkpt>
      <trkpt lat="40.419317" lon="0.089851">
        <ele>584.160</ele>
        <time>2018-09-29T09:12:57Z</time>
      </trkpt>
      <trkpt lat="40.419353" lon="0.089843">
        <ele>584.117</ele>
        <time>2018-09-29T09:12:58Z</time>
      </trkpt>
      <trkpt lat="40.419387" lon="0.089844">
        <ele>584.141</ele>
        <time>2018-09-29T09:12:59Z</time>
      </trkpt>
      <trkpt lat="40.419422" lon="0.089852">
        <ele>584.189</ele>
        <time>2018-09-29T09:13:00Z</time>
      </trkpt>
      <trkpt lat="40.419454" lon="0.089866">
        <ele>584.197</ele>
        <time>2018-09-29T09:13:01Z</time>
      </trkpt>
      <trkpt lat="40.419486" lon="0.089889">
        <ele>584.170</ele>
        <time>2018-09-29T09:13:02Z</time>
      </trkpt>
      <trkpt lat="40.419515" lon="0.089921">
        <ele>584.167</ele>
        <time>2018-09-29T09:13:03Z</time>
      </trkpt>
      <trkpt lat="40.419538" lon="0.089959">
        <ele>584.674</ele>
        <time>2018-09-29T09:13:04Z</time>
      </trkpt>
      <trkpt lat="40.419558" lon="0.090004">
        <ele>585.124</ele>
        <time>2018-09-29T09:13:05Z</time>
      </trkpt>
      <trkpt lat="40.419573" lon="0.090046">
        <ele>585.504</ele>
        <time>2018-09-29T09:13:06Z</time>
      </trkpt>
      <trkpt lat="40.419643" lon="0.090337">
        <ele>586.514</ele>
        <time>2018-09-29T09:13:13Z</time>
      </trkpt>
      <trkpt lat="40.419787" lon="0.090659">
        <ele>588.408</ele>
        <time>2018-09-29T09:13:21Z</time>
      </trkpt>
      <trkpt lat="40.419963" lon="0.090783">
        <ele>589.975</ele>
        <time>2018-09-29T09:13:27Z</time>
      </trkpt>
      <trkpt lat="40.420086" lon="0.090978">
        <ele>589.912</ele>
        <time>2018-09-29T09:13:33Z</time>
      </trkpt>
      <trkpt lat="40.420154" lon="0.091296">
        <ele>592.346</ele>
        <time>2018-09-29T09:13:41Z</time>
      </trkpt>
      <trkpt lat="40.420161" lon="0.091622">
        <ele>594.264</ele>
        <time>2018-09-29T09:13:48Z</time>
      </trkpt>
      <trkpt lat="40.420125" lon="0.091935">
        <ele>595.622</ele>
        <time>2018-09-29T09:13:55Z</time>
      </trkpt>
      <trkpt lat="40.420019" lon="0.092242">
        <ele>597.145</ele>
        <time>2018-09-29T09:14:02Z</time>
      </trkpt>
      <trkpt lat="40.419954" lon="0.092565">
        <ele>597.632</ele>
        <time>2018-09-29T09:14:09Z</time>
      </trkpt>
      <trkpt lat="40.419918" lon="0.092774">
        <ele>598.059</ele>
        <time>2018-09-29T09:14:16Z</time>
      </trkpt>
      <trkpt lat="40.419915" lon="0.092771">
        <ele>598.054</ele>
        <time>2018-09-29T09:14:25Z</time>
      </trkpt>
      <trkpt lat="40.419912" lon="0.092763">
        <ele>598.056</ele>
        <time>2018-09-29T09:14:37Z</time>
      </trkpt>
      <trkpt lat="40.419901" lon="0.092760">
        <ele>598.011</ele>
        <time>2018-09-29T09:14:53Z</time>
      </trkpt>
      <trkpt lat="40.419893" lon="0.092756">
        <ele>598.008</ele>
        <time>2018-09-29T09:15:07Z</time>
      </trkpt>
      <trkpt lat="40.419909" lon="0.092757">
        <ele>598.068</ele>
        <time>2018-09-29T09:15:37Z</time>
      </trkpt>
      <trkpt lat="40.419921" lon="0.092769">
        <ele>598.015</ele>
        <time>2018-09-29T09:15:54Z</time>
      </trkpt>
      <trkpt lat="40.419919" lon="0.092913">
        <ele>598.019</ele>
        <time>2018-09-29T09:15:59Z</time>
      </trkpt>
      <trkpt lat="40.419905" lon="0.093295">
        <ele>598.077</ele>
        <time>2018-09-29T09:16:06Z</time>
      </trkpt>
      <trkpt lat="40.419911" lon="0.093409">
        <ele>598.065</ele>
        <time>2018-09-29T09:16:08Z</time>
      </trkpt>
      <trkpt lat="40.419917" lon="0.093468">
        <ele>598.098</ele>
        <time>2018-09-29T09:16:09Z</time>
      </trkpt>
      <trkpt lat="40.419968" lon="0.094026">
        <ele>595.145</ele>
        <time>2018-09-29T09:16:18Z</time>
      </trkpt>
      <trkpt lat="40.419976" lon="0.094163">
        <ele>594.732</ele>
        <time>2018-09-29T09:16:20Z</time>
      </trkpt>
      <trkpt lat="40.419989" lon="0.094232">
        <ele>594.274</ele>
        <time>2018-09-29T09:16:21Z</time>
      </trkpt>
      <trkpt lat="40.420008" lon="0.094304">
        <ele>594.256</ele>
        <time>2018-09-29T09:16:22Z</time>
      </trkpt>
      <trkpt lat="40.420054" lon="0.094455">
        <ele>593.721</ele>
        <time>2018-09-29T09:16:24Z</time>
      </trkpt>
      <trkpt lat="40.420085" lon="0.094530">
        <ele>593.208</ele>
        <time>2018-09-29T09:16:25Z</time>
      </trkpt>
      <trkpt lat="40.420122" lon="0.094603">
        <ele>592.720</ele>
        <time>2018-09-29T09:16:26Z</time>
      </trkpt>
      <trkpt lat="40.420164" lon="0.094669">
        <ele>592.377</ele>
        <time>2018-09-29T09:16:27Z</time>
      </trkpt>
      <trkpt lat="40.420203" lon="0.094733">
        <ele>591.391</ele>
        <time>2018-09-29T09:16:28Z</time>
      </trkpt>
      <trkpt lat="40.420232" lon="0.094806">
        <ele>591.329</ele>
        <time>2018-09-29T09:16:29Z</time>
      </trkpt>
      <trkpt lat="40.420252" lon="0.094892">
        <ele>591.347</ele>
        <time>2018-09-29T09:16:30Z</time>
      </trkpt>
      <trkpt lat="40.420268" lon="0.094974">
        <ele>590.810</ele>
        <time>2018-09-29T09:16:31Z</time>
      </trkpt>
      <trkpt lat="40.420293" lon="0.095133">
        <ele>589.927</ele>
        <time>2018-09-29T09:16:33Z</time>
      </trkpt>
      <trkpt lat="40.420298" lon="0.095206">
        <ele>589.424</ele>
        <time>2018-09-29T09:16:34Z</time>
      </trkpt>
      <trkpt lat="40.420290" lon="0.095537">
        <ele>588.428</ele>
        <time>2018-09-29T09:16:38Z</time>
      </trkpt>
      <trkpt lat="40.420339" lon="0.095890">
        <ele>587.089</ele>
        <time>2018-09-29T09:16:43Z</time>
      </trkpt>
      <trkpt lat="40.420346" lon="0.095896">
        <ele>587.017</ele>
        <time>2018-09-29T09:16:48Z</time>
      </trkpt>
      <trkpt lat="40.420345" lon="0.095897">
        <ele>587.008</ele>
        <time>2018-09-29T09:17:03Z</time>
      </trkpt>
      <trkpt lat="40.420368" lon="0.095991">
        <ele>587.035</ele>
        <time>2018-09-29T09:17:08Z</time>
      </trkpt>
      <trkpt lat="40.420382" lon="0.096039">
        <ele>587.042</ele>
        <time>2018-09-29T09:17:09Z</time>
      </trkpt>
      <trkpt lat="40.420485" lon="0.096383">
        <ele>585.556</ele>
        <time>2018-09-29T09:17:14Z</time>
      </trkpt>
      <trkpt lat="40.420512" lon="0.096460">
        <ele>585.124</ele>
        <time>2018-09-29T09:17:15Z</time>
      </trkpt>
      <trkpt lat="40.420545" lon="0.096534">
        <ele>585.182</ele>
        <time>2018-09-29T09:17:16Z</time>
      </trkpt>
      <trkpt lat="40.420583" lon="0.096607">
        <ele>584.695</ele>
        <time>2018-09-29T09:17:17Z</time>
      </trkpt>
      <trkpt lat="40.420665" lon="0.096744">
        <ele>584.182</ele>
        <time>2018-09-29T09:17:19Z</time>
      </trkpt>
      <trkpt lat="40.420714" lon="0.096807">
        <ele>584.159</ele>
        <time>2018-09-29T09:17:20Z</time>
      </trkpt>
      <trkpt lat="40.420768" lon="0.096860">
        <ele>583.616</ele>
        <time>2018-09-29T09:17:21Z</time>
      </trkpt>
      <trkpt lat="40.420824" lon="0.096907">
        <ele>583.676</ele>
        <time>2018-09-29T09:17:22Z</time>
      </trkpt>
      <trkpt lat="40.420882" lon="0.096950">
        <ele>583.613</ele>
        <time>2018-09-29T09:17:23Z</time>
      </trkpt>
      <trkpt lat="40.421048" lon="0.097066">
        <ele>583.108</ele>
        <time>2018-09-29T09:17:26Z</time>
      </trkpt>
      <trkpt lat="40.421107" lon="0.097086">
        <ele>583.174</ele>
        <time>2018-09-29T09:17:27Z</time>
      </trkpt>
      <trkpt lat="40.421218" lon="0.097119">
        <ele>583.151</ele>
        <time>2018-09-29T09:17:29Z</time>
      </trkpt>
      <trkpt lat="40.421268" lon="0.097142">
        <ele>584.185</ele>
        <time>2018-09-29T09:17:30Z</time>
      </trkpt>
      <trkpt lat="40.421316" lon="0.097171">
        <ele>584.123</ele>
        <time>2018-09-29T09:17:31Z</time>
      </trkpt>
      <trkpt lat="40.421496" lon="0.097292">
        <ele>584.651</ele>
        <time>2018-09-29T09:17:35Z</time>
      </trkpt>
      <trkpt lat="40.421543" lon="0.097312">
        <ele>584.624</ele>
        <time>2018-09-29T09:17:36Z</time>
      </trkpt>
      <trkpt lat="40.421589" lon="0.097324">
        <ele>585.121</ele>
        <time>2018-09-29T09:17:37Z</time>
      </trkpt>
      <trkpt lat="40.421633" lon="0.097336">
        <ele>585.168</ele>
        <time>2018-09-29T09:17:38Z</time>
      </trkpt>
      <trkpt lat="40.421672" lon="0.097351">
        <ele>585.145</ele>
        <time>2018-09-29T09:17:39Z</time>
      </trkpt>
      <trkpt lat="40.421709" lon="0.097370">
        <ele>585.147</ele>
        <time>2018-09-29T09:17:40Z</time>
      </trkpt>
      <trkpt lat="40.421744" lon="0.097397">
        <ele>585.511</ele>
        <time>2018-09-29T09:17:41Z</time>
      </trkpt>
      <trkpt lat="40.421775" lon="0.097437">
        <ele>585.508</ele>
        <time>2018-09-29T09:17:42Z</time>
      </trkpt>
      <trkpt lat="40.421798" lon="0.097483">
        <ele>585.567</ele>
        <time>2018-09-29T09:17:43Z</time>
      </trkpt>
      <trkpt lat="40.421816" lon="0.097533">
        <ele>585.544</ele>
        <time>2018-09-29T09:17:44Z</time>
      </trkpt>
      <trkpt lat="40.421906" lon="0.097874">
        <ele>585.558</ele>
        <time>2018-09-29T09:17:50Z</time>
      </trkpt>
      <trkpt lat="40.421961" lon="0.098062">
        <ele>585.596</ele>
        <time>2018-09-29T09:17:53Z</time>
      </trkpt>
      <trkpt lat="40.421977" lon="0.098125">
        <ele>585.554</ele>
        <time>2018-09-29T09:17:54Z</time>
      </trkpt>
      <trkpt lat="40.422110" lon="0.098712">
        <ele>581.717</ele>
        <time>2018-09-29T09:18:02Z</time>
      </trkpt>
      <trkpt lat="40.422148" lon="0.098970">
        <ele>580.734</ele>
        <time>2018-09-29T09:18:05Z</time>
      </trkpt>
      <trkpt lat="40.422194" lon="0.099139">
        <ele>580.271</ele>
        <time>2018-09-29T09:18:07Z</time>
      </trkpt>
      <trkpt lat="40.422227" lon="0.099223">
        <ele>579.317</ele>
        <time>2018-09-29T09:18:08Z</time>
      </trkpt>
      <trkpt lat="40.422265" lon="0.099302">
        <ele>578.887</ele>
        <time>2018-09-29T09:18:09Z</time>
      </trkpt>
      <trkpt lat="40.422343" lon="0.099459">
        <ele>577.815</ele>
        <time>2018-09-29T09:18:11Z</time>
      </trkpt>
      <trkpt lat="40.422465" lon="0.099680">
        <ele>576.908</ele>
        <time>2018-09-29T09:18:14Z</time>
      </trkpt>
      <trkpt lat="40.422512" lon="0.099743">
        <ele>576.984</ele>
        <time>2018-09-29T09:18:15Z</time>
      </trkpt>
      <trkpt lat="40.422701" lon="0.099969">
        <ele>576.451</ele>
        <time>2018-09-29T09:18:19Z</time>
      </trkpt>
      <trkpt lat="40.422736" lon="0.100032">
        <ele>575.925</ele>
        <time>2018-09-29T09:18:20Z</time>
      </trkpt>
      <trkpt lat="40.422763" lon="0.100107">
        <ele>575.443</ele>
        <time>2018-09-29T09:18:21Z</time>
      </trkpt>
      <trkpt lat="40.422820" lon="0.100262">
        <ele>574.511</ele>
        <time>2018-09-29T09:18:23Z</time>
      </trkpt>
      <trkpt lat="40.422966" lon="0.100539">
        <ele>573.064</ele>
        <time>2018-09-29T09:18:27Z</time>
      </trkpt>
      <trkpt lat="40.422996" lon="0.100610">
        <ele>573.581</ele>
        <time>2018-09-29T09:18:28Z</time>
      </trkpt>
      <trkpt lat="40.423021" lon="0.100682">
        <ele>573.588</ele>
        <time>2018-09-29T09:18:29Z</time>
      </trkpt>
      <trkpt lat="40.423040" lon="0.100755">
        <ele>573.583</ele>
        <time>2018-09-29T09:18:30Z</time>
      </trkpt>
      <trkpt lat="40.423056" lon="0.100827">
        <ele>573.525</ele>
        <time>2018-09-29T09:18:31Z</time>
      </trkpt>
      <trkpt lat="40.423118" lon="0.101343">
        <ele>573.517</ele>
        <time>2018-09-29T09:18:38Z</time>
      </trkpt>
      <trkpt lat="40.423205" lon="0.101880">
        <ele>575.408</ele>
        <time>2018-09-29T09:18:46Z</time>
      </trkpt>
      <trkpt lat="40.423217" lon="0.101938">
        <ele>575.491</ele>
        <time>2018-09-29T09:18:47Z</time>
      </trkpt>
      <trkpt lat="40.423225" lon="0.102001">
        <ele>575.918</ele>
        <time>2018-09-29T09:18:48Z</time>
      </trkpt>
      <trkpt lat="40.423230" lon="0.102064">
        <ele>576.482</ele>
        <time>2018-09-29T09:18:49Z</time>
      </trkpt>
      <trkpt lat="40.423234" lon="0.102129">
        <ele>576.450</ele>
        <time>2018-09-29T09:18:50Z</time>
      </trkpt>
      <trkpt lat="40.423239" lon="0.102196">
        <ele>576.448</ele>
        <time>2018-09-29T09:18:51Z</time>
      </trkpt>
      <trkpt lat="40.423266" lon="0.102522">
        <ele>577.461</ele>
        <time>2018-09-29T09:18:56Z</time>
      </trkpt>
      <trkpt lat="40.423263" lon="0.102580">
        <ele>577.438</ele>
        <time>2018-09-29T09:18:57Z</time>
      </trkpt>
      <trkpt lat="40.423213" lon="0.102855">
        <ele>577.475</ele>
        <time>2018-09-29T09:19:03Z</time>
      </trkpt>
      <trkpt lat="40.423177" lon="0.103203">
        <ele>576.466</ele>
        <time>2018-09-29T09:19:11Z</time>
      </trkpt>
      <trkpt lat="40.423183" lon="0.103359">
        <ele>575.429</ele>
        <time>2018-09-29T09:19:14Z</time>
      </trkpt>
      <trkpt lat="40.423229" lon="0.103727">
        <ele>574.021</ele>
        <time>2018-09-29T09:19:21Z</time>
      </trkpt>
      <trkpt lat="40.423267" lon="0.104126">
        <ele>572.108</ele>
        <time>2018-09-29T09:19:28Z</time>
      </trkpt>
      <trkpt lat="40.423287" lon="0.104310">
        <ele>571.179</ele>
        <time>2018-09-29T09:19:31Z</time>
      </trkpt>
      <trkpt lat="40.423320" lon="0.104438">
        <ele>570.256</ele>
        <time>2018-09-29T09:19:33Z</time>
      </trkpt>
      <trkpt lat="40.423340" lon="0.104495">
        <ele>570.270</ele>
        <time>2018-09-29T09:19:34Z</time>
      </trkpt>
      <trkpt lat="40.423358" lon="0.104554">
        <ele>570.218</ele>
        <time>2018-09-29T09:19:35Z</time>
      </trkpt>
      <trkpt lat="40.423387" lon="0.104665">
        <ele>569.216</ele>
        <time>2018-09-29T09:19:37Z</time>
      </trkpt>
      <trkpt lat="40.423410" lon="0.104722">
        <ele>568.739</ele>
        <time>2018-09-29T09:19:38Z</time>
      </trkpt>
      <trkpt lat="40.423438" lon="0.104775">
        <ele>568.786</ele>
        <time>2018-09-29T09:19:39Z</time>
      </trkpt>
      <trkpt lat="40.423676" lon="0.105211">
        <ele>566.863</ele>
        <time>2018-09-29T09:19:46Z</time>
      </trkpt>
      <trkpt lat="40.423831" lon="0.105442">
        <ele>565.837</ele>
        <time>2018-09-29T09:19:50Z</time>
      </trkpt>
      <trkpt lat="40.423928" lon="0.105541">
        <ele>565.349</ele>
        <time>2018-09-29T09:19:52Z</time>
      </trkpt>
      <trkpt lat="40.423980" lon="0.105584">
        <ele>565.313</ele>
        <time>2018-09-29T09:19:53Z</time>
      </trkpt>
      <trkpt lat="40.424032" lon="0.105617">
        <ele>564.908</ele>
        <time>2018-09-29T09:19:54Z</time>
      </trkpt>
      <trkpt lat="40.424091" lon="0.105648">
        <ele>563.956</ele>
        <time>2018-09-29T09:19:55Z</time>
      </trkpt>
      <trkpt lat="40.424150" lon="0.105674">
        <ele>563.943</ele>
        <time>2018-09-29T09:19:56Z</time>
      </trkpt>
      <trkpt lat="40.424211" lon="0.105699">
        <ele>563.467</ele>
        <time>2018-09-29T09:19:57Z</time>
      </trkpt>
      <trkpt lat="40.424338" lon="0.105740">
        <ele>563.425</ele>
        <time>2018-09-29T09:19:59Z</time>
      </trkpt>
      <trkpt lat="40.424403" lon="0.105745">
        <ele>562.563</ele>
        <time>2018-09-29T09:20:00Z</time>
      </trkpt>
      <trkpt lat="40.424678" lon="0.105719">
        <ele>561.556</ele>
        <time>2018-09-29T09:20:04Z</time>
      </trkpt>
      <trkpt lat="40.424811" lon="0.105675">
        <ele>560.583</ele>
        <time>2018-09-29T09:20:06Z</time>
      </trkpt>
      <trkpt lat="40.424876" lon="0.105649">
        <ele>560.590</ele>
        <time>2018-09-29T09:20:07Z</time>
      </trkpt>
      <trkpt lat="40.425129" lon="0.105569">
        <ele>560.135</ele>
        <time>2018-09-29T09:20:12Z</time>
      </trkpt>
      <trkpt lat="40.425367" lon="0.105476">
        <ele>557.286</ele>
        <time>2018-09-29T09:20:19Z</time>
      </trkpt>
      <trkpt lat="40.425505" lon="0.105416">
        <ele>555.314</ele>
        <time>2018-09-29T09:20:23Z</time>
      </trkpt>
      <trkpt lat="40.425546" lon="0.105391">
        <ele>555.308</ele>
        <time>2018-09-29T09:20:24Z</time>
      </trkpt>
      <trkpt lat="40.425637" lon="0.105343">
        <ele>553.846</ele>
        <time>2018-09-29T09:20:26Z</time>
      </trkpt>
      <trkpt lat="40.425858" lon="0.105268">
        <ele>550.023</ele>
        <time>2018-09-29T09:20:30Z</time>
      </trkpt>
      <trkpt lat="40.426052" lon="0.105176">
        <ele>548.057</ele>
        <time>2018-09-29T09:20:34Z</time>
      </trkpt>
      <trkpt lat="40.426081" lon="0.105192">
        <ele>548.035</ele>
        <time>2018-09-29T09:20:35Z</time>
      </trkpt>
      <trkpt lat="40.426103" lon="0.105226">
        <ele>548.033</ele>
        <time>2018-09-29T09:20:36Z</time>
      </trkpt>
      <trkpt lat="40.426119" lon="0.105275">
        <ele>548.086</ele>
        <time>2018-09-29T09:20:37Z</time>
      </trkpt>
      <trkpt lat="40.426126" lon="0.105335">
        <ele>548.033</ele>
        <time>2018-09-29T09:20:38Z</time>
      </trkpt>
      <trkpt lat="40.426177" lon="0.105771">
        <ele>549.090</ele>
        <time>2018-09-29T09:20:44Z</time>
      </trkpt>
      <trkpt lat="40.426202" lon="0.106472">
        <ele>550.913</ele>
        <time>2018-09-29T09:20:54Z</time>
      </trkpt>
      <trkpt lat="40.426182" lon="0.106797">
        <ele>550.043</ele>
        <time>2018-09-29T09:20:59Z</time>
      </trkpt>
      <trkpt lat="40.426121" lon="0.107377">
        <ele>548.507</ele>
        <time>2018-09-29T09:21:07Z</time>
      </trkpt>
      <trkpt lat="40.426128" lon="0.107519">
        <ele>548.508</ele>
        <time>2018-09-29T09:21:09Z</time>
      </trkpt>
      <trkpt lat="40.426141" lon="0.107589">
        <ele>548.024</ele>
        <time>2018-09-29T09:21:10Z</time>
      </trkpt>
      <trkpt lat="40.426161" lon="0.107658">
        <ele>548.081</ele>
        <time>2018-09-29T09:21:11Z</time>
      </trkpt>
      <trkpt lat="40.426190" lon="0.107726">
        <ele>547.145</ele>
        <time>2018-09-29T09:21:12Z</time>
      </trkpt>
      <trkpt lat="40.426226" lon="0.107790">
        <ele>547.123</ele>
        <time>2018-09-29T09:21:13Z</time>
      </trkpt>
      <trkpt lat="40.426268" lon="0.107853">
        <ele>546.671</ele>
        <time>2018-09-29T09:21:14Z</time>
      </trkpt>
      <trkpt lat="40.426315" lon="0.107917">
        <ele>546.644</ele>
        <time>2018-09-29T09:21:15Z</time>
      </trkpt>
      <trkpt lat="40.426421" lon="0.108029">
        <ele>545.641</ele>
        <time>2018-09-29T09:21:17Z</time>
      </trkpt>
      <trkpt lat="40.426481" lon="0.108070">
        <ele>545.238</ele>
        <time>2018-09-29T09:21:18Z</time>
      </trkpt>
      <trkpt lat="40.426867" lon="0.108258">
        <ele>543.748</ele>
        <time>2018-09-29T09:21:24Z</time>
      </trkpt>
      <trkpt lat="40.427235" lon="0.108423">
        <ele>540.861</ele>
        <time>2018-09-29T09:21:30Z</time>
      </trkpt>
      <trkpt lat="40.427324" lon="0.108468">
        <ele>539.417</ele>
        <time>2018-09-29T09:21:32Z</time>
      </trkpt>
      <trkpt lat="40.427348" lon="0.108508">
        <ele>538.908</ele>
        <time>2018-09-29T09:21:33Z</time>
      </trkpt>
      <trkpt lat="40.427352" lon="0.108549">
        <ele>538.427</ele>
        <time>2018-09-29T09:21:34Z</time>
      </trkpt>
      <trkpt lat="40.427336" lon="0.108593">
        <ele>537.994</ele>
        <time>2018-09-29T09:21:35Z</time>
      </trkpt>
      <trkpt lat="40.427303" lon="0.108622">
        <ele>537.928</ele>
        <time>2018-09-29T09:21:36Z</time>
      </trkpt>
      <trkpt lat="40.427253" lon="0.108644">
        <ele>537.576</ele>
        <time>2018-09-29T09:21:37Z</time>
      </trkpt>
      <trkpt lat="40.427208" lon="0.108671">
        <ele>537.014</ele>
        <time>2018-09-29T09:21:38Z</time>
      </trkpt>
      <trkpt lat="40.427165" lon="0.108716">
        <ele>536.567</ele>
        <time>2018-09-29T09:21:39Z</time>
      </trkpt>
      <trkpt lat="40.427127" lon="0.108771">
        <ele>535.564</ele>
        <time>2018-09-29T09:21:40Z</time>
      </trkpt>
      <trkpt lat="40.427038" lon="0.108889">
        <ele>534.661</ele>
        <time>2018-09-29T09:21:42Z</time>
      </trkpt>
      <trkpt lat="40.426643" lon="0.109389">
        <ele>535.184</ele>
        <time>2018-09-29T09:21:50Z</time>
      </trkpt>
      <trkpt lat="40.426332" lon="0.109786">
        <ele>535.107</ele>
        <time>2018-09-29T09:21:57Z</time>
      </trkpt>
      <trkpt lat="40.426280" lon="0.109825">
        <ele>535.117</ele>
        <time>2018-09-29T09:21:58Z</time>
      </trkpt>
      <trkpt lat="40.426228" lon="0.109855">
        <ele>535.108</ele>
        <time>2018-09-29T09:21:59Z</time>
      </trkpt>
      <trkpt lat="40.426062" lon="0.109933">
        <ele>535.191</ele>
        <time>2018-09-29T09:22:02Z</time>
      </trkpt>
      <trkpt lat="40.426011" lon="0.109963">
        <ele>535.188</ele>
        <time>2018-09-29T09:22:03Z</time>
      </trkpt>
      <trkpt lat="40.425968" lon="0.110001">
        <ele>535.162</ele>
        <time>2018-09-29T09:22:04Z</time>
      </trkpt>
      <trkpt lat="40.425936" lon="0.110054">
        <ele>535.130</ele>
        <time>2018-09-29T09:22:05Z</time>
      </trkpt>
      <trkpt lat="40.425917" lon="0.110116">
        <ele>534.678</ele>
        <time>2018-09-29T09:22:06Z</time>
      </trkpt>
      <trkpt lat="40.425902" lon="0.110173">
        <ele>534.691</ele>
        <time>2018-09-29T09:22:07Z</time>
      </trkpt>
      <trkpt lat="40.425892" lon="0.110235">
        <ele>534.628</ele>
        <time>2018-09-29T09:22:08Z</time>
      </trkpt>
      <trkpt lat="40.425796" lon="0.110783">
        <ele>533.115</ele>
        <time>2018-09-29T09:22:16Z</time>
      </trkpt>
      <trkpt lat="40.425689" lon="0.111337">
        <ele>529.816</ele>
        <time>2018-09-29T09:22:23Z</time>
      </trkpt>
      <trkpt lat="40.425653" lon="0.111496">
        <ele>529.376</ele>
        <time>2018-09-29T09:22:25Z</time>
      </trkpt>
      <trkpt lat="40.425623" lon="0.111575">
        <ele>528.813</ele>
        <time>2018-09-29T09:22:26Z</time>
      </trkpt>
      <trkpt lat="40.425588" lon="0.111647">
        <ele>528.808</ele>
        <time>2018-09-29T09:22:27Z</time>
      </trkpt>
      <trkpt lat="40.425553" lon="0.111727">
        <ele>528.364</ele>
        <time>2018-09-29T09:22:28Z</time>
      </trkpt>
      <trkpt lat="40.425523" lon="0.111808">
        <ele>527.911</ele>
        <time>2018-09-29T09:22:29Z</time>
      </trkpt>
      <trkpt lat="40.425405" lon="0.112072">
        <ele>525.585</ele>
        <time>2018-09-29T09:22:32Z</time>
      </trkpt>
      <trkpt lat="40.425248" lon="0.112347">
        <ele>523.043</ele>
        <time>2018-09-29T09:22:35Z</time>
      </trkpt>
      <trkpt lat="40.425198" lon="0.112444">
        <ele>523.061</ele>
        <time>2018-09-29T09:22:36Z</time>
      </trkpt>
      <trkpt lat="40.425139" lon="0.112539">
        <ele>521.624</ele>
        <time>2018-09-29T09:22:37Z</time>
      </trkpt>
      <trkpt lat="40.425017" lon="0.112709">
        <ele>521.171</ele>
        <time>2018-09-29T09:22:39Z</time>
      </trkpt>
      <trkpt lat="40.424897" lon="0.112853">
        <ele>519.268</ele>
        <time>2018-09-29T09:22:41Z</time>
      </trkpt>
      <trkpt lat="40.424827" lon="0.112904">
        <ele>518.745</ele>
        <time>2018-09-29T09:22:42Z</time>
      </trkpt>
      <trkpt lat="40.424610" lon="0.113049">
        <ele>516.847</ele>
        <time>2018-09-29T09:22:45Z</time>
      </trkpt>
      <trkpt lat="40.424546" lon="0.113111">
        <ele>516.811</ele>
        <time>2018-09-29T09:22:46Z</time>
      </trkpt>
      <trkpt lat="40.424492" lon="0.113187">
        <ele>515.408</ele>
        <time>2018-09-29T09:22:47Z</time>
      </trkpt>
      <trkpt lat="40.424452" lon="0.113270">
        <ele>514.927</ele>
        <time>2018-09-29T09:22:48Z</time>
      </trkpt>
      <trkpt lat="40.424417" lon="0.113364">
        <ele>514.964</ele>
        <time>2018-09-29T09:22:49Z</time>
      </trkpt>
      <trkpt lat="40.424385" lon="0.113459">
        <ele>514.428</ele>
        <time>2018-09-29T09:22:50Z</time>
      </trkpt>
      <trkpt lat="40.424359" lon="0.113556">
        <ele>513.966</ele>
        <time>2018-09-29T09:22:51Z</time>
      </trkpt>
      <trkpt lat="40.424340" lon="0.113651">
        <ele>513.424</ele>
        <time>2018-09-29T09:22:52Z</time>
      </trkpt>
      <trkpt lat="40.424319" lon="0.113846">
        <ele>513.047</ele>
        <time>2018-09-29T09:22:54Z</time>
      </trkpt>
      <trkpt lat="40.424324" lon="0.113935">
        <ele>512.544</ele>
        <time>2018-09-29T09:22:55Z</time>
      </trkpt>
      <trkpt lat="40.424337" lon="0.114025">
        <ele>512.511</ele>
        <time>2018-09-29T09:22:56Z</time>
      </trkpt>
      <trkpt lat="40.424512" lon="0.114807">
        <ele>512.562</ele>
        <time>2018-09-29T09:23:05Z</time>
      </trkpt>
      <trkpt lat="40.424539" lon="0.114894">
        <ele>512.583</ele>
        <time>2018-09-29T09:23:06Z</time>
      </trkpt>
      <trkpt lat="40.424619" lon="0.115211">
        <ele>512.511</ele>
        <time>2018-09-29T09:23:10Z</time>
      </trkpt>
      <trkpt lat="40.424626" lon="0.115288">
        <ele>512.508</ele>
        <time>2018-09-29T09:23:11Z</time>
      </trkpt>
      <trkpt lat="40.424623" lon="0.115373">
        <ele>512.529</ele>
        <time>2018-09-29T09:23:12Z</time>
      </trkpt>
      <trkpt lat="40.424550" lon="0.115866">
        <ele>512.036</ele>
        <time>2018-09-29T09:23:18Z</time>
      </trkpt>
      <trkpt lat="40.424520" lon="0.115935">
        <ele>512.020</ele>
        <time>2018-09-29T09:23:19Z</time>
      </trkpt>
      <trkpt lat="40.424480" lon="0.116004">
        <ele>512.078</ele>
        <time>2018-09-29T09:23:20Z</time>
      </trkpt>
      <trkpt lat="40.424438" lon="0.116067">
        <ele>512.066</ele>
        <time>2018-09-29T09:23:21Z</time>
      </trkpt>
      <trkpt lat="40.424394" lon="0.116125">
        <ele>512.069</ele>
        <time>2018-09-29T09:23:22Z</time>
      </trkpt>
      <trkpt lat="40.424348" lon="0.116181">
        <ele>512.076</ele>
        <time>2018-09-29T09:23:23Z</time>
      </trkpt>
      <trkpt lat="40.424307" lon="0.116234">
        <ele>512.053</ele>
        <time>2018-09-29T09:23:24Z</time>
      </trkpt>
      <trkpt lat="40.424190" lon="0.116405">
        <ele>512.022</ele>
        <time>2018-09-29T09:23:27Z</time>
      </trkpt>
      <trkpt lat="40.424014" lon="0.116615">
        <ele>511.062</ele>
        <time>2018-09-29T09:23:31Z</time>
      </trkpt>
      <trkpt lat="40.423969" lon="0.116665">
        <ele>510.608</ele>
        <time>2018-09-29T09:23:32Z</time>
      </trkpt>
      <trkpt lat="40.423723" lon="0.117007">
        <ele>508.608</ele>
        <time>2018-09-29T09:23:38Z</time>
      </trkpt>
      <trkpt lat="40.423688" lon="0.117074">
        <ele>508.615</ele>
        <time>2018-09-29T09:23:39Z</time>
      </trkpt>
      <trkpt lat="40.423552" lon="0.117348">
        <ele>507.732</ele>
        <time>2018-09-29T09:23:43Z</time>
      </trkpt>
      <trkpt lat="40.423225" lon="0.117824">
        <ele>504.366</ele>
        <time>2018-09-29T09:23:50Z</time>
      </trkpt>
      <trkpt lat="40.423056" lon="0.117982">
        <ele>500.914</ele>
        <time>2018-09-29T09:23:53Z</time>
      </trkpt>
      <trkpt lat="40.422887" lon="0.118165">
        <ele>498.142</ele>
        <time>2018-09-29T09:23:57Z</time>
      </trkpt>
      <trkpt lat="40.422801" lon="0.118288">
        <ele>495.765</ele>
        <time>2018-09-29T09:24:02Z</time>
      </trkpt>
      <trkpt lat="40.422784" lon="0.118271">
        <ele>495.292</ele>
        <time>2018-09-29T09:24:06Z</time>
      </trkpt>
      <trkpt lat="40.422781" lon="0.118253">
        <ele>495.749</ele>
        <time>2018-09-29T09:24:07Z</time>
      </trkpt>
      <trkpt lat="40.422783" lon="0.118223">
        <ele>495.742</ele>
        <time>2018-09-29T09:24:08Z</time>
      </trkpt>
      <trkpt lat="40.422795" lon="0.117929">
        <ele>494.722</ele>
        <time>2018-09-29T09:24:15Z</time>
      </trkpt>
      <trkpt lat="40.422769" lon="0.117809">
        <ele>493.714</ele>
        <time>2018-09-29T09:24:20Z</time>
      </trkpt>
      <trkpt lat="40.422740" lon="0.117784">
        <ele>493.208</ele>
        <time>2018-09-29T09:24:22Z</time>
      </trkpt>
      <trkpt lat="40.422677" lon="0.117820">
        <ele>492.397</ele>
        <time>2018-09-29T09:24:30Z</time>
      </trkpt>
      <trkpt lat="40.422649" lon="0.117880">
        <ele>491.814</ele>
        <time>2018-09-29T09:24:42Z</time>
      </trkpt>
      <trkpt lat="40.422571" lon="0.118054">
        <ele>489.918</ele>
        <time>2018-09-29T09:24:47Z</time>
      </trkpt>
      <trkpt lat="40.422547" lon="0.118094">
        <ele>489.446</ele>
        <time>2018-09-29T09:24:48Z</time>
      </trkpt>
      <trkpt lat="40.422491" lon="0.118176">
        <ele>488.444</ele>
        <time>2018-09-29T09:24:50Z</time>
      </trkpt>
      <trkpt lat="40.422447" lon="0.118211">
        <ele>488.037</ele>
        <time>2018-09-29T09:24:51Z</time>
      </trkpt>
      <trkpt lat="40.422189" lon="0.118390">
        <ele>484.654</ele>
        <time>2018-09-29T09:24:57Z</time>
      </trkpt>
      <trkpt lat="40.422081" lon="0.118455">
        <ele>484.121</ele>
        <time>2018-09-29T09:24:59Z</time>
      </trkpt>
      <trkpt lat="40.421940" lon="0.118530">
        <ele>484.181</ele>
        <time>2018-09-29T09:25:02Z</time>
      </trkpt>
      <trkpt lat="40.421746" lon="0.118675">
        <ele>485.661</ele>
        <time>2018-09-29T09:25:07Z</time>
      </trkpt>
      <trkpt lat="40.421595" lon="0.118716">
        <ele>486.017</ele>
        <time>2018-09-29T09:25:12Z</time>
      </trkpt>
      <trkpt lat="40.421350" lon="0.118749">
        <ele>486.008</ele>
        <time>2018-09-29T09:25:19Z</time>
      </trkpt>
      <trkpt lat="40.421105" lon="0.118756">
        <ele>486.531</ele>
        <time>2018-09-29T09:25:26Z</time>
      </trkpt>
      <trkpt lat="40.420874" lon="0.118719">
        <ele>487.078</ele>
        <time>2018-09-29T09:25:33Z</time>
      </trkpt>
      <trkpt lat="40.420682" lon="0.118667">
        <ele>488.022</ele>
        <time>2018-09-29T09:25:39Z</time>
      </trkpt>
      <trkpt lat="40.420659" lon="0.118678">
        <ele>488.060</ele>
        <time>2018-09-29T09:25:40Z</time>
      </trkpt>
      <trkpt lat="40.420567" lon="0.118914">
        <ele>489.968</ele>
        <time>2018-09-29T09:25:46Z</time>
      </trkpt>
      <trkpt lat="40.420450" lon="0.119253">
        <ele>490.411</ele>
        <time>2018-09-29T09:25:54Z</time>
      </trkpt>
      <trkpt lat="40.420334" lon="0.119487">
        <ele>488.968</ele>
        <time>2018-09-29T09:25:59Z</time>
      </trkpt>
      <trkpt lat="40.420249" lon="0.119629">
        <ele>487.275</ele>
        <time>2018-11-11T08:39:20Z</time>
      </trkpt>
      <trkpt lat="40.420162" lon="0.119771">
        <ele>486.129</ele>
        <time>2018-11-11T08:39:40Z</time>
      </trkpt>
      <trkpt lat="40.420088" lon="0.119882">
        <ele>485.100</ele>
        <time>2018-11-11T08:40:00Z</time>
      </trkpt>
      <trkpt lat="40.420060" lon="0.119928">
        <ele>484.820</ele>
        <time>2018-11-11T08:40:20Z</time>
      </trkpt>
      <trkpt lat="40.420016" lon="0.119966">
        <ele>484.408</ele>
        <time>2018-11-11T08:40:40Z</time>
      </trkpt>
      <trkpt lat="40.419895" lon="0.119953">
        <ele>484.595</ele>
        <time>2018-11-11T08:41:00Z</time>
      </trkpt>
      <trkpt lat="40.419751" lon="0.119902">
        <ele>484.372</ele>
        <time>2018-11-11T08:41:20Z</time>
      </trkpt>
      <trkpt lat="40.419610" lon="0.119819">
        <ele>483.756</ele>
        <time>2018-11-11T08:41:40Z</time>
      </trkpt>
      <trkpt lat="40.419517" lon="0.119749">
        <ele>483.614</ele>
        <time>2018-11-11T08:42:00Z</time>
      </trkpt>
      <trkpt lat="40.419443" lon="0.119676">
        <ele>483.732</ele>
        <time>2018-11-11T08:42:20Z</time>
      </trkpt>
      <trkpt lat="40.419395" lon="0.119613">
        <ele>483.735</ele>
        <time>2018-11-11T08:42:40Z</time>
      </trkpt>
      <trkpt lat="40.419381" lon="0.119661">
        <ele>483.422</ele>
        <time>2018-11-11T08:43:00Z</time>
      </trkpt>
      <trkpt lat="40.419381" lon="0.119755">
        <ele>482.849</ele>
        <time>2018-11-11T08:43:20Z</time>
      </trkpt>
      <trkpt lat="40.419383" lon="0.119867">
        <ele>481.988</ele>
        <time>2018-11-11T08:43:40Z</time>
      </trkpt>
      <trkpt lat="40.419398" lon="0.120031">
        <ele>480.824</ele>
        <time>2018-11-11T08:44:00Z</time>
      </trkpt>
      <trkpt lat="40.419410" lon="0.120178">
        <ele>479.926</ele>
        <time>2018-11-11T08:44:20Z</time>
      </trkpt>
      <trkpt lat="40.419408" lon="0.120284">
        <ele>478.908</ele>
        <time>2018-11-11T08:44:40Z</time>
      </trkpt>
      <trkpt lat="40.419345" lon="0.120324">
        <ele>478.281</ele>
        <time>2018-11-11T08:45:00Z</time>
      </trkpt>
      <trkpt lat="40.419230" lon="0.120384">
        <ele>477.078</ele>
        <time>2018-11-11T08:45:20Z</time>
      </trkpt>
      <trkpt lat="40.419133" lon="0.120447">
        <ele>475.532</ele>
        <time>2018-11-11T08:45:40Z</time>
      </trkpt>
      <trkpt lat="40.419117" lon="0.120517">
        <ele>474.240</ele>
        <time>2018-11-11T08:46:00Z</time>
      </trkpt>
      <trkpt lat="40.419114" lon="0.120634">
        <ele>472.338</ele>
        <time>2018-11-11T08:46:20Z</time>
      </trkpt>
      <trkpt lat="40.419187" lon="0.120757">
        <ele>471.611</ele>
        <time>2018-11-11T08:46:40Z</time>
      </trkpt>
      <trkpt lat="40.419323" lon="0.120889">
        <ele>470.358</ele>
        <time>2018-11-11T08:47:00Z</time>
      </trkpt>
      <trkpt lat="40.419478" lon="0.121014">
        <ele>468.715</ele>
        <time>2018-11-11T08:47:20Z</time>
      </trkpt>
      <trkpt lat="40.419666" lon="0.121116">
        <ele>466.459</ele>
        <time>2018-11-11T08:47:40Z</time>
      </trkpt>
      <trkpt lat="40.419768" lon="0.121137">
        <ele>465.503</ele>
        <time>2018-11-11T08:48:00Z</time>
      </trkpt>
      <trkpt lat="40.419856" lon="0.121123">
        <ele>465.223</ele>
        <time>2018-11-11T08:48:20Z</time>
      </trkpt>
      <trkpt lat="40.419963" lon="0.121134">
        <ele>464.508</ele>
        <time>2018-11-11T08:48:40Z</time>
      </trkpt>
      <trkpt lat="40.420008" lon="0.121186">
        <ele>463.448</ele>
        <time>2018-11-11T08:49:00Z</time>
      </trkpt>
      <trkpt lat="40.420011" lon="0.121258">
        <ele>463.075</ele>
        <time>2018-09-29T09:27:10Z</time>
      </trkpt>
      <trkpt lat="40.419890" lon="0.121452">
        <ele>462.059</ele>
        <time>2018-09-29T09:27:12Z</time>
      </trkpt>
      <trkpt lat="40.419776" lon="0.121763">
        <ele>458.217</ele>
        <time>2018-09-29T09:27:18Z</time>
      </trkpt>
      <trkpt lat="40.419764" lon="0.121884">
        <ele>456.745</ele>
        <time>2018-09-29T09:27:19Z</time>
      </trkpt>
      <trkpt lat="40.419736" lon="0.121980">
        <ele>456.228</ele>
        <time>2018-09-29T09:27:20Z</time>
      </trkpt>
      <trkpt lat="40.419709" lon="0.122071">
        <ele>455.395</ele>
        <time>2018-09-29T09:27:21Z</time>
      </trkpt>
      <trkpt lat="40.419685" lon="0.122167">
        <ele>454.872</ele>
        <time>2018-09-29T09:27:22Z</time>
      </trkpt>
      <trkpt lat="40.419659" lon="0.122241">
        <ele>454.358</ele>
        <time>2018-09-29T09:27:23Z</time>
      </trkpt>
      <trkpt lat="40.419639" lon="0.122327">
        <ele>454.352</ele>
        <time>2018-09-29T09:27:24Z</time>
      </trkpt>
      <trkpt lat="40.419574" lon="0.122495">
        <ele>454.317</ele>
        <time>2018-09-29T09:27:26Z</time>
      </trkpt>
      <trkpt lat="40.419558" lon="0.122588">
        <ele>454.308</ele>
        <time>2018-09-29T09:27:27Z</time>
      </trkpt>
      <trkpt lat="40.419463" lon="0.123133">
        <ele>454.378</ele>
        <time>2018-09-29T09:27:34Z</time>
      </trkpt>
      <trkpt lat="40.419337" lon="0.123814">
        <ele>453.895</ele>
        <time>2018-09-29T09:27:43Z</time>
      </trkpt>
      <trkpt lat="40.419210" lon="0.124441">
        <ele>451.049</ele>
        <time>2018-09-29T09:27:51Z</time>
      </trkpt>
      <trkpt lat="40.419142" lon="0.125079">
        <ele>448.137</ele>
        <time>2018-09-29T09:27:57Z</time>
      </trkpt>
      <trkpt lat="40.419111" lon="0.125180">
        <ele>448.195</ele>
        <time>2018-09-29T09:27:58Z</time>
      </trkpt>
      <trkpt lat="40.418980" lon="0.125692">
        <ele>449.518</ele>
        <time>2018-09-29T09:28:04Z</time>
      </trkpt>
      <trkpt lat="40.418971" lon="0.125777">
        <ele>449.525</ele>
        <time>2018-09-29T09:28:05Z</time>
      </trkpt>
      <trkpt lat="40.418948" lon="0.125941">
        <ele>449.592</ele>
        <time>2018-09-29T09:28:07Z</time>
      </trkpt>
      <trkpt lat="40.418922" lon="0.126023">
        <ele>449.538</ele>
        <time>2018-09-29T09:28:08Z</time>
      </trkpt>
      <trkpt lat="40.418885" lon="0.126099">
        <ele>448.570</ele>
        <time>2018-09-29T09:28:09Z</time>
      </trkpt>
      <trkpt lat="40.418837" lon="0.126180">
        <ele>448.117</ele>
        <time>2018-09-29T09:28:10Z</time>
      </trkpt>
      <trkpt lat="40.418781" lon="0.126266">
        <ele>447.108</ele>
        <time>2018-09-29T09:28:11Z</time>
      </trkpt>
      <trkpt lat="40.418500" lon="0.126689">
        <ele>444.236</ele>
        <time>2018-09-29T09:28:16Z</time>
      </trkpt>
      <trkpt lat="40.418469" lon="0.126769">
        <ele>443.353</ele>
        <time>2018-09-29T09:28:17Z</time>
      </trkpt>
      <trkpt lat="40.418467" lon="0.126845">
        <ele>443.387</ele>
        <time>2018-09-29T09:28:18Z</time>
      </trkpt>
      <trkpt lat="40.418495" lon="0.126911">
        <ele>442.395</ele>
        <time>2018-09-29T09:28:19Z</time>
      </trkpt>
      <trkpt lat="40.418553" lon="0.126948">
        <ele>441.813</ele>
        <time>2018-09-29T09:28:20Z</time>
      </trkpt>
      <trkpt lat="40.418620" lon="0.126946">
        <ele>441.326</ele>
        <time>2018-09-29T09:28:21Z</time>
      </trkpt>
      <trkpt lat="40.418694" lon="0.126914">
        <ele>441.323</ele>
        <time>2018-09-29T09:28:22Z</time>
      </trkpt>
      <trkpt lat="40.418770" lon="0.126875">
        <ele>439.970</ele>
        <time>2018-09-29T09:28:23Z</time>
      </trkpt>
      <trkpt lat="40.418847" lon="0.126848">
        <ele>439.434</ele>
        <time>2018-09-29T09:28:24Z</time>
      </trkpt>
      <trkpt lat="40.418932" lon="0.126841">
        <ele>439.455</ele>
        <time>2018-09-29T09:28:25Z</time>
      </trkpt>
      <trkpt lat="40.419023" lon="0.126859">
        <ele>438.010</ele>
        <time>2018-09-29T09:28:26Z</time>
      </trkpt>
      <trkpt lat="40.419114" lon="0.126894">
        <ele>437.508</ele>
        <time>2018-09-29T09:28:27Z</time>
      </trkpt>
      <trkpt lat="40.419198" lon="0.126940">
        <ele>437.596</ele>
        <time>2018-09-29T09:28:28Z</time>
      </trkpt>
      <trkpt lat="40.419287" lon="0.127000">
        <ele>436.593</ele>
        <time>2018-09-29T09:28:29Z</time>
      </trkpt>
      <trkpt lat="40.419370" lon="0.127062">
        <ele>436.177</ele>
        <time>2018-09-29T09:28:30Z</time>
      </trkpt>
      <trkpt lat="40.419725" lon="0.127339">
        <ele>432.725</ele>
        <time>2018-09-29T09:28:34Z</time>
      </trkpt>
      <trkpt lat="40.419820" lon="0.127416">
        <ele>432.733</ele>
        <time>2018-09-29T09:28:35Z</time>
      </trkpt>
      <trkpt lat="40.420169" lon="0.127751">
        <ele>429.356</ele>
        <time>2018-09-29T09:28:39Z</time>
      </trkpt>
      <trkpt lat="40.420495" lon="0.128148">
        <ele>426.483</ele>
        <time>2018-09-29T09:28:43Z</time>
      </trkpt>
      <trkpt lat="40.420751" lon="0.128413">
        <ele>423.660</ele>
        <time>2018-09-29T09:28:46Z</time>
      </trkpt>
      <trkpt lat="40.420849" lon="0.128483">
        <ele>422.646</ele>
        <time>2018-09-29T09:28:47Z</time>
      </trkpt>
      <trkpt lat="40.421249" lon="0.128723">
        <ele>418.388</ele>
        <time>2018-09-29T09:28:51Z</time>
      </trkpt>
      <trkpt lat="40.421338" lon="0.128783">
        <ele>416.816</ele>
        <time>2018-09-29T09:28:52Z</time>
      </trkpt>
      <trkpt lat="40.421414" lon="0.128848">
        <ele>415.408</ele>
        <time>2018-09-29T09:28:53Z</time>
      </trkpt>
      <trkpt lat="40.421478" lon="0.128922">
        <ele>414.477</ele>
        <time>2018-09-29T09:28:54Z</time>
      </trkpt>
      <trkpt lat="40.421529" lon="0.129010">
        <ele>414.424</ele>
        <time>2018-09-29T09:28:55Z</time>
      </trkpt>
      <trkpt lat="40.421555" lon="0.129101">
        <ele>413.928</ele>
        <time>2018-09-29T09:28:56Z</time>
      </trkpt>
      <trkpt lat="40.421569" lon="0.129200">
        <ele>413.976</ele>
        <time>2018-09-29T09:28:57Z</time>
      </trkpt>
      <trkpt lat="40.421579" lon="0.129303">
        <ele>412.564</ele>
        <time>2018-09-29T09:28:58Z</time>
      </trkpt>
      <trkpt lat="40.421591" lon="0.129411">
        <ele>412.587</ele>
        <time>2018-09-29T09:28:59Z</time>
      </trkpt>
      <trkpt lat="40.421610" lon="0.129521">
        <ele>411.524</ele>
        <time>2018-09-29T09:29:00Z</time>
      </trkpt>
      <trkpt lat="40.421641" lon="0.129630">
        <ele>411.111</ele>
        <time>2018-09-29T09:29:01Z</time>
      </trkpt>
      <trkpt lat="40.421683" lon="0.129737">
        <ele>410.691</ele>
        <time>2018-09-29T09:29:02Z</time>
      </trkpt>
      <trkpt lat="40.421733" lon="0.129840">
        <ele>410.181</ele>
        <time>2018-09-29T09:29:03Z</time>
      </trkpt>
      <trkpt lat="40.421791" lon="0.129939">
        <ele>409.619</ele>
        <time>2018-09-29T09:29:04Z</time>
      </trkpt>
      <trkpt lat="40.421856" lon="0.130031">
        <ele>408.708</ele>
        <time>2018-09-29T09:29:05Z</time>
      </trkpt>
      <trkpt lat="40.421924" lon="0.130121">
        <ele>408.292</ele>
        <time>2018-09-29T09:29:06Z</time>
      </trkpt>
      <trkpt lat="40.421996" lon="0.130209">
        <ele>408.289</ele>
        <time>2018-09-29T09:29:07Z</time>
      </trkpt>
      <trkpt lat="40.422439" lon="0.130741">
        <ele>405.833</ele>
        <time>2018-09-29T09:29:13Z</time>
      </trkpt>
      <trkpt lat="40.422775" lon="0.131244">
        <ele>402.411</ele>
        <time>2018-09-29T09:29:18Z</time>
      </trkpt>
      <trkpt lat="40.422886" lon="0.131470">
        <ele>401.969</ele>
        <time>2018-09-29T09:29:20Z</time>
      </trkpt>
      <trkpt lat="40.422994" lon="0.131699">
        <ele>400.532</ele>
        <time>2018-09-29T09:29:22Z</time>
      </trkpt>
      <trkpt lat="40.423034" lon="0.131818">
        <ele>400.519</ele>
        <time>2018-09-29T09:29:23Z</time>
      </trkpt>
      <trkpt lat="40.423065" lon="0.131936">
        <ele>400.026</ele>
        <time>2018-09-29T09:29:24Z</time>
      </trkpt>
      <trkpt lat="40.423094" lon="0.132046">
        <ele>399.099</ele>
        <time>2018-09-29T09:29:25Z</time>
      </trkpt>
      <trkpt lat="40.423132" lon="0.132141">
        <ele>398.607</ele>
        <time>2018-09-29T09:29:26Z</time>
      </trkpt>
      <trkpt lat="40.423180" lon="0.132222">
        <ele>398.627</ele>
        <time>2018-09-29T09:29:27Z</time>
      </trkpt>
      <trkpt lat="40.423234" lon="0.132293">
        <ele>398.108</ele>
        <time>2018-09-29T09:29:28Z</time>
      </trkpt>
      <trkpt lat="40.423292" lon="0.132356">
        <ele>398.112</ele>
        <time>2018-09-29T09:29:29Z</time>
      </trkpt>
      <trkpt lat="40.423353" lon="0.132411">
        <ele>398.129</ele>
        <time>2018-09-29T09:29:30Z</time>
      </trkpt>
      <trkpt lat="40.423721" lon="0.132817">
        <ele>395.713</ele>
        <time>2018-09-29T09:29:36Z</time>
      </trkpt>
      <trkpt lat="40.423778" lon="0.132907">
        <ele>394.731</ele>
        <time>2018-09-29T09:29:37Z</time>
      </trkpt>
      <trkpt lat="40.423829" lon="0.133011">
        <ele>393.869</ele>
        <time>2018-09-29T09:29:38Z</time>
      </trkpt>
      <trkpt lat="40.424037" lon="0.133488">
        <ele>389.432</ele>
        <time>2018-09-29T09:29:42Z</time>
      </trkpt>
      <trkpt lat="40.424180" lon="0.133897">
        <ele>386.539</ele>
        <time>2018-09-29T09:29:45Z</time>
      </trkpt>
      <trkpt lat="40.424323" lon="0.134268">
        <ele>383.216</ele>
        <time>2018-09-29T09:29:48Z</time>
      </trkpt>
      <trkpt lat="40.424372" lon="0.134356">
        <ele>382.227</ele>
        <time>2018-09-29T09:29:49Z</time>
      </trkpt>
      <trkpt lat="40.424432" lon="0.134422">
        <ele>381.368</ele>
        <time>2018-09-29T09:29:50Z</time>
      </trkpt>
      <trkpt lat="40.424510" lon="0.134468">
        <ele>380.814</ele>
        <time>2018-09-29T09:29:51Z</time>
      </trkpt>
      <trkpt lat="40.424674" lon="0.134540">
        <ele>379.308</ele>
        <time>2018-09-29T09:29:53Z</time>
      </trkpt>
      <trkpt lat="40.424750" lon="0.134602">
        <ele>378.985</ele>
        <time>2018-09-29T09:29:54Z</time>
      </trkpt>
      <trkpt lat="40.424810" lon="0.134681">
        <ele>378.972</ele>
        <time>2018-09-29T09:29:55Z</time>
      </trkpt>
      <trkpt lat="40.424863" lon="0.134775">
        <ele>378.486</ele>
        <time>2018-09-29T09:29:56Z</time>
      </trkpt>
      <trkpt lat="40.424916" lon="0.134873">
        <ele>377.424</ele>
        <time>2018-09-29T09:29:57Z</time>
      </trkpt>
      <trkpt lat="40.425250" lon="0.135322">
        <ele>374.572</ele>
        <time>2018-09-29T09:30:02Z</time>
      </trkpt>
      <trkpt lat="40.425670" lon="0.135932">
        <ele>372.155</ele>
        <time>2018-09-29T09:30:09Z</time>
      </trkpt>
      <trkpt lat="40.425741" lon="0.136007">
        <ele>371.652</ele>
        <time>2018-09-29T09:30:10Z</time>
      </trkpt>
      <trkpt lat="40.425817" lon="0.136071">
        <ele>370.769</ele>
        <time>2018-09-29T09:30:11Z</time>
      </trkpt>
      <trkpt lat="40.425951" lon="0.136188">
        <ele>369.759</ele>
        <time>2018-09-29T09:30:13Z</time>
      </trkpt>
      <trkpt lat="40.425998" lon="0.136259">
        <ele>369.203</ele>
        <time>2018-09-29T09:30:14Z</time>
      </trkpt>
      <trkpt lat="40.426021" lon="0.136330">
        <ele>369.223</ele>
        <time>2018-09-29T09:30:15Z</time>
      </trkpt>
      <trkpt lat="40.426017" lon="0.136404">
        <ele>369.208</ele>
        <time>2018-09-29T09:30:16Z</time>
      </trkpt>
      <trkpt lat="40.425990" lon="0.136465">
        <ele>369.258</ele>
        <time>2018-09-29T09:30:17Z</time>
      </trkpt>
      <trkpt lat="40.425952" lon="0.136528">
        <ele>369.275</ele>
        <time>2018-09-29T09:30:18Z</time>
      </trkpt>
      <trkpt lat="40.425699" lon="0.137061">
        <ele>368.859</ele>
        <time>2018-09-29T09:30:25Z</time>
      </trkpt>
      <trkpt lat="40.425444" lon="0.137650">
        <ele>366.897</ele>
        <time>2018-09-29T09:30:32Z</time>
      </trkpt>
      <trkpt lat="40.425300" lon="0.138093">
        <ele>363.035</ele>
        <time>2018-09-29T09:30:36Z</time>
      </trkpt>
      <trkpt lat="40.425237" lon="0.138357">
        <ele>360.118</ele>
        <time>2018-09-29T09:30:38Z</time>
      </trkpt>
      <trkpt lat="40.425155" lon="0.138664">
        <ele>356.725</ele>
        <time>2018-09-29T09:30:40Z</time>
      </trkpt>
      <trkpt lat="40.424993" lon="0.139242">
        <ele>353.452</ele>
        <time>2018-09-29T09:30:44Z</time>
      </trkpt>
      <trkpt lat="40.424968" lon="0.139374">
        <ele>353.499</ele>
        <time>2018-09-29T09:30:45Z</time>
      </trkpt>
      <trkpt lat="40.424960" lon="0.139496">
        <ele>352.907</ele>
        <time>2018-09-29T09:30:46Z</time>
      </trkpt>
      <trkpt lat="40.424969" lon="0.139622">
        <ele>352.427</ele>
        <time>2018-09-29T09:30:47Z</time>
      </trkpt>
      <trkpt lat="40.424989" lon="0.139739">
        <ele>352.408</ele>
        <time>2018-09-29T09:30:48Z</time>
      </trkpt>
      <trkpt lat="40.425019" lon="0.139857">
        <ele>351.572</ele>
        <time>2018-09-29T09:30:49Z</time>
      </trkpt>
      <trkpt lat="40.425054" lon="0.139964">
        <ele>351.539</ele>
        <time>2018-09-29T09:30:50Z</time>
      </trkpt>
      <trkpt lat="40.425098" lon="0.140072">
        <ele>351.053</ele>
        <time>2018-09-29T09:30:51Z</time>
      </trkpt>
      <trkpt lat="40.425144" lon="0.140171">
        <ele>351.031</ele>
        <time>2018-09-29T09:30:52Z</time>
      </trkpt>
      <trkpt lat="40.425300" lon="0.140573">
        <ele>345.549</ele>
        <time>2018-11-11T09:26:20Z</time>
      </trkpt>
      <trkpt lat="40.425411" lon="0.140941">
        <ele>344.832</ele>
        <time>2018-11-11T09:26:40Z</time>
      </trkpt>
      <trkpt lat="40.425633" lon="0.141026">
        <ele>345.169</ele>
        <time>2018-11-11T09:27:00Z</time>
      </trkpt>
      <trkpt lat="40.425875" lon="0.141181">
        <ele>345.596</ele>
        <time>2018-11-11T09:27:20Z</time>
      </trkpt>
      <trkpt lat="40.426091" lon="0.141332">
        <ele>345.945</ele>
        <time>2018-11-11T09:27:40Z</time>
      </trkpt>
      <trkpt lat="40.426370" lon="0.141526">
        <ele>346.847</ele>
        <time>2018-11-11T09:28:00Z</time>
      </trkpt>
      <trkpt lat="40.426640" lon="0.141802">
        <ele>346.211</ele>
        <time>2018-11-11T09:28:20Z</time>
      </trkpt>
      <trkpt lat="40.426797" lon="0.141994">
        <ele>346.008</ele>
        <time>2018-11-11T09:28:40Z</time>
      </trkpt>
      <trkpt lat="40.426929" lon="0.142165">
        <ele>345.987</ele>
        <time>2018-11-11T09:29:00Z</time>
      </trkpt>
      <trkpt lat="40.427234" lon="0.142364">
        <ele>346.554</ele>
        <time>2018-11-11T09:29:20Z</time>
      </trkpt>
      <trkpt lat="40.427598" lon="0.142655">
        <ele>347.218</ele>
        <time>2018-11-11T09:29:40Z</time>
      </trkpt>
      <trkpt lat="40.427947" lon="0.142960">
        <ele>348.266</ele>
        <time>2018-11-11T09:30:00Z</time>
      </trkpt>
      <trkpt lat="40.428213" lon="0.143152">
        <ele>348.334</ele>
        <time>2018-11-11T09:30:20Z</time>
      </trkpt>
      <trkpt lat="40.428581" lon="0.143527">
        <ele>347.327</ele>
        <time>2018-11-11T09:30:40Z</time>
      </trkpt>
      <trkpt lat="40.428434" lon="0.144040">
        <ele>346.024</ele>
        <time>2018-11-11T09:31:00Z</time>
      </trkpt>
      <trkpt lat="40.428355" lon="0.144412">
        <ele>344.441</ele>
        <time>2018-11-11T09:31:20Z</time>
      </trkpt>
      <trkpt lat="40.428101" lon="0.145560">
        <ele>341.478</ele>
        <time>2018-11-11T09:31:40Z</time>
      </trkpt>
      <trkpt lat="40.427926" lon="0.146336">
        <ele>339.333</ele>
        <time>2018-11-11T09:32:00Z</time>
      </trkpt>
      <trkpt lat="40.427545" lon="0.147826">
        <ele>338.026</ele>
        <time>2018-09-29T09:37:13Z</time>
      </trkpt>
      <trkpt lat="40.427547" lon="0.147854">
        <ele>338.508</ele>
        <time>2018-09-29T09:37:14Z</time>
      </trkpt>
      <trkpt lat="40.427539" lon="0.147882">
        <ele>338.530</ele>
        <time>2018-09-29T09:37:15Z</time>
      </trkpt>
      <trkpt lat="40.427451" lon="0.148164">
        <ele>338.517</ele>
        <time>2018-09-29T09:37:21Z</time>
      </trkpt>
      <trkpt lat="40.427348" lon="0.148508">
        <ele>337.011</ele>
        <time>2018-09-29T09:37:27Z</time>
      </trkpt>
      <trkpt lat="40.427118" lon="0.149297">
        <ele>335.689</ele>
        <time>2018-09-29T09:37:39Z</time>
      </trkpt>
      <trkpt lat="40.427041" lon="0.149886">
        <ele>334.217</ele>
        <time>2018-09-29T09:37:47Z</time>
      </trkpt>
      <trkpt lat="40.427026" lon="0.150815">
        <ele>332.260</ele>
        <time>2018-09-29T09:37:58Z</time>
      </trkpt>
      <trkpt lat="40.426998" lon="0.151988">
        <ele>329.897</ele>
        <time>2018-09-29T09:38:12Z</time>
      </trkpt>
      <trkpt lat="40.426962" lon="0.152734">
        <ele>329.844</ele>
        <time>2018-09-29T09:38:21Z</time>
      </trkpt>
      <trkpt lat="40.426885" lon="0.153871">
        <ele>331.397</ele>
        <time>2018-09-29T09:38:35Z</time>
      </trkpt>
      <trkpt lat="40.426831" lon="0.154707">
        <ele>332.723</ele>
        <time>2018-09-29T09:38:46Z</time>
      </trkpt>
      <trkpt lat="40.426812" lon="0.155342">
        <ele>331.225</ele>
        <time>2018-11-11T09:36:20Z</time>
      </trkpt>
      <trkpt lat="40.426771" lon="0.155445">
        <ele>331.608</ele>
        <time>2018-11-11T09:36:40Z</time>
      </trkpt>
      <trkpt lat="40.426703" lon="0.155574">
        <ele>322.472</ele>
        <time>2018-11-11T09:37:00Z</time>
      </trkpt>
      <trkpt lat="40.426636" lon="0.155725">
        <ele>322.659</ele>
        <time>2018-04-08T08:53:15Z</time>
      </trkpt>
      <trkpt lat="40.426575" lon="0.155898">
        <ele>322.633</ele>
        <time>2018-04-08T08:53:16Z</time>
      </trkpt>
      <trkpt lat="40.426465" lon="0.156065">
        <ele>322.661</ele>
        <time>2018-04-08T08:53:17Z</time>
      </trkpt>
      <trkpt lat="40.426368" lon="0.156320">
        <ele>322.639</ele>
        <time>2018-04-08T08:53:18Z</time>
      </trkpt>
      <trkpt lat="40.426248" lon="0.156560">
        <ele>322.612</ele>
        <time>2018-04-08T08:53:22Z</time>
      </trkpt>
      <trkpt lat="40.426114" lon="0.156783">
        <ele>323.179</ele>
        <time>2018-04-08T08:53:23Z</time>
      </trkpt>
      <trkpt lat="40.426000" lon="0.157009">
        <ele>323.646</ele>
        <time>2018-04-08T08:53:25Z</time>
      </trkpt>
      <trkpt lat="40.425891" lon="0.157257">
        <ele>323.622</ele>
        <time>2018-04-08T08:53:27Z</time>
      </trkpt>
      <trkpt lat="40.425757" lon="0.157514">
        <ele>323.662</ele>
        <time>2018-04-08T08:53:28Z</time>
      </trkpt>
      <trkpt lat="40.424824" lon="0.159179">
        <ele>317.308</ele>
        <time>2018-04-08T08:55:46Z</time>
      </trkpt>
      <trkpt lat="40.423766" lon="0.161276">
        <ele>317.308</ele>
        <time>2018-04-08T08:55:47Z</time>
      </trkpt>
      <trkpt lat="40.423114" lon="0.162474">
        <ele>316.445</ele>
        <time>2018-04-08T08:55:59Z</time>
      </trkpt>
      <trkpt lat="40.422655" lon="0.163324">
        <ele>314.942</ele>
        <time>2018-04-08T08:56:12Z</time>
      </trkpt>
      <trkpt lat="40.422159" lon="0.164248">
        <ele>314.466</ele>
        <time>2018-04-08T08:56:26Z</time>
      </trkpt>
      <trkpt lat="40.421730" lon="0.165031">
        <ele>313.574</ele>
        <time>2018-04-08T08:56:38Z</time>
      </trkpt>
      <trkpt lat="40.421349" lon="0.165749">
        <ele>313.572</ele>
        <time>2018-04-08T08:56:49Z</time>
      </trkpt>
      <trkpt lat="40.420940" lon="0.166528">
        <ele>312.585</ele>
        <time>2018-04-08T08:57:01Z</time>
      </trkpt>
      <trkpt lat="40.420666" lon="0.167060">
        <ele>312.032</ele>
        <time>2018-04-08T08:57:10Z</time>
      </trkpt>
      <trkpt lat="40.420633" lon="0.167162">
        <ele>312.099</ele>
        <time>2018-04-08T08:57:14Z</time>
      </trkpt>
      <trkpt lat="40.420643" lon="0.167178">
        <ele>312.082</ele>
        <time>2018-04-08T08:57:15Z</time>
      </trkpt>
      <trkpt lat="40.420665" lon="0.167195">
        <ele>312.043</ele>
        <time>2018-04-08T08:57:16Z</time>
      </trkpt>
      <trkpt lat="40.420844" lon="0.167327">
        <ele>312.017</ele>
        <time>2018-04-08T08:57:21Z</time>
      </trkpt>
      <trkpt lat="40.421022" lon="0.167452">
        <ele>312.008</ele>
        <time>2018-04-08T08:57:25Z</time>
      </trkpt>
      <trkpt lat="40.421079" lon="0.167471">
        <ele>312.041</ele>
        <time>2018-04-08T08:57:26Z</time>
      </trkpt>
      <trkpt lat="40.421133" lon="0.167479">
        <ele>312.018</ele>
        <time>2018-04-08T08:57:27Z</time>
      </trkpt>
      <trkpt lat="40.421644" lon="0.167466">
        <ele>314.042</ele>
        <time>2018-04-08T08:57:36Z</time>
      </trkpt>
      <trkpt lat="40.422040" lon="0.167563">
        <ele>314.450</ele>
        <time>2018-04-08T08:57:43Z</time>
      </trkpt>
      <trkpt lat="40.422522" lon="0.167659">
        <ele>314.968</ele>
        <time>2018-04-08T08:57:52Z</time>
      </trkpt>
      <trkpt lat="40.422913" lon="0.167815">
        <ele>315.421</ele>
        <time>2018-04-08T08:58:00Z</time>
      </trkpt>
      <trkpt lat="40.423172" lon="0.167857">
        <ele>315.418</ele>
        <time>2018-04-08T08:58:07Z</time>
      </trkpt>
      <trkpt lat="40.423216" lon="0.167855">
        <ele>314.945</ele>
        <time>2018-04-08T08:58:09Z</time>
      </trkpt>
      <trkpt lat="40.423219" lon="0.167853">
        <ele>315.436</ele>
        <time>2018-04-08T08:58:14Z</time>
      </trkpt>
      <trkpt lat="40.423211" lon="0.167853">
        <ele>315.417</ele>
        <time>2018-04-08T08:58:32Z</time>
      </trkpt>
      <trkpt lat="40.423199" lon="0.167856">
        <ele>315.418</ele>
        <time>2018-04-08T08:58:55Z</time>
      </trkpt>
      <trkpt lat="40.423198" lon="0.167858">
        <ele>315.408</ele>
        <time>2018-04-08T08:59:12Z</time>
      </trkpt>
      <trkpt lat="40.423233" lon="0.167859">
        <ele>315.486</ele>
        <time>2018-04-08T08:59:22Z</time>
      </trkpt>
      <trkpt lat="40.423251" lon="0.167872">
        <ele>315.473</ele>
        <time>2018-04-08T08:59:23Z</time>
      </trkpt>
      <trkpt lat="40.423266" lon="0.167897">
        <ele>315.497</ele>
        <time>2018-04-08T08:59:24Z</time>
      </trkpt>
      <trkpt lat="40.423275" lon="0.167927">
        <ele>315.445</ele>
        <time>2018-04-08T08:59:25Z</time>
      </trkpt>
      <trkpt lat="40.423280" lon="0.167964">
        <ele>315.433</ele>
        <time>2018-04-08T08:59:26Z</time>
      </trkpt>
      <trkpt lat="40.423285" lon="0.167993">
        <ele>315.446</ele>
        <time>2018-04-08T08:59:27Z</time>
      </trkpt>
      <trkpt lat="40.423290" lon="0.168009">
        <ele>315.483</ele>
        <time>2018-04-08T08:59:28Z</time>
      </trkpt>
      <trkpt lat="40.423295" lon="0.168013">
        <ele>315.450</ele>
        <time>2018-04-08T08:59:34Z</time>
      </trkpt>
      <trkpt lat="40.423297" lon="0.168011">
        <ele>315.438</ele>
        <time>2018-04-08T08:59:53Z</time>
      </trkpt>
      <trkpt lat="40.423309" lon="0.168022">
        <ele>315.470</ele>
        <time>2018-04-08T09:00:02Z</time>
      </trkpt>
      <trkpt lat="40.423309" lon="0.168012">
        <ele>315.417</ele>
        <time>2018-04-08T09:00:22Z</time>
      </trkpt>
      <trkpt lat="40.423307" lon="0.168019">
        <ele>315.408</ele>
        <time>2018-04-08T09:00:33Z</time>
      </trkpt>
      <trkpt lat="40.423308" lon="0.168019">
        <ele>314.046</ele>
        <time>2018-04-08T09:00:38Z</time>
      </trkpt>
      <trkpt lat="40.423313" lon="0.168049">
        <ele>314.093</ele>
        <time>2018-04-08T09:00:47Z</time>
      </trkpt>
      <trkpt lat="40.423305" lon="0.168074">
        <ele>314.087</ele>
        <time>2018-04-08T09:00:48Z</time>
      </trkpt>
      <trkpt lat="40.423296" lon="0.168094">
        <ele>314.055</ele>
        <time>2018-04-08T09:00:49Z</time>
      </trkpt>
      <trkpt lat="40.423280" lon="0.168126">
        <ele>314.033</ele>
        <time>2018-04-08T09:00:50Z</time>
      </trkpt>
      <trkpt lat="40.423259" lon="0.168161">
        <ele>314.086</ele>
        <time>2018-04-08T09:00:51Z</time>
      </trkpt>
      <trkpt lat="40.423095" lon="0.168407">
        <ele>314.053</ele>
        <time>2018-04-08T09:00:58Z</time>
      </trkpt>
      <trkpt lat="40.423067" lon="0.168446">
        <ele>314.070</ele>
        <time>2018-04-08T09:00:59Z</time>
      </trkpt>
      <trkpt lat="40.422963" lon="0.168628">
        <ele>314.073</ele>
        <time>2018-04-08T09:01:03Z</time>
      </trkpt>
      <trkpt lat="40.422726" lon="0.168988">
        <ele>314.085</ele>
        <time>2018-04-08T09:01:11Z</time>
      </trkpt>
      <trkpt lat="40.422433" lon="0.169436">
        <ele>315.913</ele>
        <time>2018-04-08T09:01:20Z</time>
      </trkpt>
      <trkpt lat="40.422203" lon="0.169798">
        <ele>316.408</ele>
        <time>2018-04-08T09:01:27Z</time>
      </trkpt>
      <trkpt lat="40.421854" lon="0.170365">
        <ele>317.320</ele>
        <time>2018-04-08T09:01:38Z</time>
      </trkpt>
      <trkpt lat="40.421486" lon="0.170930">
        <ele>317.827</ele>
        <time>2018-04-08T09:01:50Z</time>
      </trkpt>
      <trkpt lat="40.421163" lon="0.171439">
        <ele>318.821</ele>
        <time>2018-04-08T09:02:01Z</time>
      </trkpt>
      <trkpt lat="40.420909" lon="0.171862">
        <ele>320.239</ele>
        <time>2018-04-08T09:02:10Z</time>
      </trkpt>
      <trkpt lat="40.420577" lon="0.172380">
        <ele>322.177</ele>
        <time>2018-04-08T09:02:21Z</time>
      </trkpt>
      <trkpt lat="40.420414" lon="0.172702">
        <ele>325.570</ele>
        <time>2018-04-08T09:02:28Z</time>
      </trkpt>
      <trkpt lat="40.420322" lon="0.172802">
        <ele>326.077</ele>
        <time>2018-04-08T09:02:34Z</time>
      </trkpt>
      <trkpt lat="40.420300" lon="0.172824">
        <ele>325.514</ele>
        <time>2018-04-08T09:02:40Z</time>
      </trkpt>
      <trkpt lat="40.420238" lon="0.173026">
        <ele>325.531</ele>
        <time>2018-04-08T09:02:45Z</time>
      </trkpt>
      <trkpt lat="40.420087" lon="0.173433">
        <ele>328.461</ele>
        <time>2018-04-08T09:02:53Z</time>
      </trkpt>
      <trkpt lat="40.419835" lon="0.173946">
        <ele>331.707</ele>
        <time>2018-04-08T09:03:04Z</time>
      </trkpt>
      <trkpt lat="40.419806" lon="0.173977">
        <ele>331.708</ele>
        <time>2018-04-08T09:03:05Z</time>
      </trkpt>
      <trkpt lat="40.419563" lon="0.174080">
        <ele>333.226</ele>
        <time>2018-04-08T09:03:12Z</time>
      </trkpt>
      <trkpt lat="40.419482" lon="0.174122">
        <ele>333.793</ele>
        <time>2018-04-08T09:03:14Z</time>
      </trkpt>
      <trkpt lat="40.419237" lon="0.174340">
        <ele>335.117</ele>
        <time>2018-04-08T09:03:21Z</time>
      </trkpt>
      <trkpt lat="40.419209" lon="0.174381">
        <ele>335.155</ele>
        <time>2018-04-08T09:03:22Z</time>
      </trkpt>
      <trkpt lat="40.419024" lon="0.174660">
        <ele>334.663</ele>
        <time>2018-04-08T09:03:29Z</time>
      </trkpt>
      <trkpt lat="40.418924" lon="0.174821">
        <ele>333.746</ele>
        <time>2018-04-08T09:03:34Z</time>
      </trkpt>
      <trkpt lat="40.418888" lon="0.174860">
        <ele>333.773</ele>
        <time>2018-04-08T09:03:35Z</time>
      </trkpt>
      <trkpt lat="40.418861" lon="0.174938">
        <ele>333.750</ele>
        <time>2018-04-08T09:03:36Z</time>
      </trkpt>
      <trkpt lat="40.418825" lon="0.175015">
        <ele>333.784</ele>
        <time>2018-04-08T09:03:37Z</time>
      </trkpt>
      <trkpt lat="40.418776" lon="0.175092">
        <ele>333.707</ele>
        <time>2018-04-08T09:03:38Z</time>
      </trkpt>
      <trkpt lat="40.418754" lon="0.175153">
        <ele>333.717</ele>
        <time>2018-04-08T09:03:39Z</time>
      </trkpt>
      <trkpt lat="40.418727" lon="0.175225">
        <ele>333.208</ele>
        <time>2018-04-08T09:03:40Z</time>
      </trkpt>
      <trkpt lat="40.418704" lon="0.175281">
        <ele>333.231</ele>
        <time>2018-04-08T09:03:41Z</time>
      </trkpt>
      <trkpt lat="40.418628" lon="0.175458">
        <ele>333.788</ele>
        <time>2018-04-08T09:03:42Z</time>
      </trkpt>
      <trkpt lat="40.418574" lon="0.175585">
        <ele>333.732</ele>
        <time>2018-04-08T09:03:48Z</time>
      </trkpt>
      <trkpt lat="40.418551" lon="0.175684">
        <ele>333.740</ele>
        <time>2018-04-08T09:03:49Z</time>
      </trkpt>
      <trkpt lat="40.418498" lon="0.175867">
        <ele>333.778</ele>
        <time>2018-04-08T09:03:52Z</time>
      </trkpt>
      <trkpt lat="40.418434" lon="0.176135">
        <ele>334.651</ele>
        <time>2018-04-08T09:03:58Z</time>
      </trkpt>
      <trkpt lat="40.418234" lon="0.176663">
        <ele>336.638</ele>
        <time>2018-04-08T09:04:08Z</time>
      </trkpt>
      <trkpt lat="40.418129" lon="0.176937">
        <ele>337.055</ele>
        <time>2018-04-08T09:04:13Z</time>
      </trkpt>
      <trkpt lat="40.418114" lon="0.176991">
        <ele>337.059</ele>
        <time>2018-04-08T09:04:14Z</time>
      </trkpt>
      <trkpt lat="40.418090" lon="0.177053">
        <ele>337.503</ele>
        <time>2018-04-08T09:04:15Z</time>
      </trkpt>
      <trkpt lat="40.418069" lon="0.177096">
        <ele>337.523</ele>
        <time>2018-04-08T09:04:16Z</time>
      </trkpt>
      <trkpt lat="40.418042" lon="0.177146">
        <ele>337.508</ele>
        <time>2018-04-08T09:04:17Z</time>
      </trkpt>
      <trkpt lat="40.417834" lon="0.177557">
        <ele>338.588</ele>
        <time>2018-04-08T09:04:25Z</time>
      </trkpt>
      <trkpt lat="40.417544" lon="0.178062">
        <ele>339.965</ele>
        <time>2018-04-08T09:04:36Z</time>
      </trkpt>
      <trkpt lat="40.417487" lon="0.178139">
        <ele>340.419</ele>
        <time>2018-04-08T09:04:39Z</time>
      </trkpt>
      <trkpt lat="40.417405" lon="0.178304">
        <ele>341.487</ele>
        <time>2018-04-08T09:06:01Z</time>
      </trkpt>
      <trkpt lat="40.417397" lon="0.178400">
        <ele>341.435</ele>
        <time>2018-04-08T09:06:19Z</time>
      </trkpt>
      <trkpt lat="40.417243" lon="0.178934">
        <ele>342.368</ele>
        <time>2018-04-08T09:07:26Z</time>
      </trkpt>
      <trkpt lat="40.417213" lon="0.179402">
        <ele>342.395</ele>
        <time>2018-04-08T09:07:34Z</time>
      </trkpt>
      <trkpt lat="40.417260" lon="0.179714">
        <ele>343.862</ele>
        <time>2018-04-08T09:07:41Z</time>
      </trkpt>
      <trkpt lat="40.417353" lon="0.180136">
        <ele>345.712</ele>
        <time>2018-04-08T09:07:50Z</time>
      </trkpt>
      <trkpt lat="40.417424" lon="0.180689">
        <ele>347.632</ele>
        <time>2018-04-08T09:08:01Z</time>
      </trkpt>
      <trkpt lat="40.417459" lon="0.181141">
        <ele>350.005</ele>
        <time>2018-04-08T09:08:10Z</time>
      </trkpt>
      <trkpt lat="40.417505" lon="0.181407">
        <ele>354.508</ele>
        <time>2018-11-11T10:12:40Z</time>
      </trkpt>
      <trkpt lat="40.417534" lon="0.181533">
        <ele>355.064</ele>
        <time>2018-11-11T10:13:00Z</time>
      </trkpt>
      <trkpt lat="40.417621" lon="0.181656">
        <ele>356.021</ele>
        <time>2018-11-11T10:13:20Z</time>
      </trkpt>
      <trkpt lat="40.417625" lon="0.181658">
        <ele>352.495</ele>
        <time>2018-04-08T09:08:59Z</time>
      </trkpt>
      <trkpt lat="40.417654" lon="0.181682">
        <ele>352.493</ele>
        <time>2018-04-08T09:09:00Z</time>
      </trkpt>
      <trkpt lat="40.417679" lon="0.181712">
        <ele>352.411</ele>
        <time>2018-04-08T09:09:01Z</time>
      </trkpt>
      <trkpt lat="40.417701" lon="0.181741">
        <ele>352.484</ele>
        <time>2018-04-08T09:09:02Z</time>
      </trkpt>
      <trkpt lat="40.417838" lon="0.181913">
        <ele>355.341</ele>
        <time>2018-04-08T09:09:08Z</time>
      </trkpt>
      <trkpt lat="40.417961" lon="0.182155">
        <ele>356.768</ele>
        <time>2018-04-08T09:09:15Z</time>
      </trkpt>
      <trkpt lat="40.418061" lon="0.182436">
        <ele>357.273</ele>
        <time>2018-04-08T09:09:22Z</time>
      </trkpt>
      <trkpt lat="40.418180" lon="0.182700">
        <ele>357.285</ele>
        <time>2018-04-08T09:09:30Z</time>
      </trkpt>
      <trkpt lat="40.418344" lon="0.182746">
        <ele>357.213</ele>
        <time>2018-04-08T09:09:35Z</time>
      </trkpt>
      <trkpt lat="40.418552" lon="0.182909">
        <ele>357.208</ele>
        <time>2018-04-08T09:09:41Z</time>
      </trkpt>
      <trkpt lat="40.418683" lon="0.183073">
        <ele>357.210</ele>
        <time>2018-04-08T09:09:45Z</time>
      </trkpt>
      <trkpt lat="40.418713" lon="0.183116">
        <ele>357.277</ele>
        <time>2018-04-08T09:09:46Z</time>
      </trkpt>
      <trkpt lat="40.418905" lon="0.183322">
        <ele>358.251</ele>
        <time>2018-04-08T09:09:52Z</time>
      </trkpt>
      <trkpt lat="40.418982" lon="0.183360">
        <ele>358.279</ele>
        <time>2018-04-08T09:09:54Z</time>
      </trkpt>
      <trkpt lat="40.419193" lon="0.183444">
        <ele>358.287</ele>
        <time>2018-04-08T09:09:59Z</time>
      </trkpt>
      <trkpt lat="40.419232" lon="0.183473">
        <ele>358.290</ele>
        <time>2018-04-08T09:10:00Z</time>
      </trkpt>
      <trkpt lat="40.419271" lon="0.183512">
        <ele>358.277</ele>
        <time>2018-04-08T09:10:01Z</time>
      </trkpt>
      <trkpt lat="40.419311" lon="0.183554">
        <ele>358.214</ele>
        <time>2018-04-08T09:10:02Z</time>
      </trkpt>
      <trkpt lat="40.419344" lon="0.183597">
        <ele>358.286</ele>
        <time>2018-04-08T09:10:03Z</time>
      </trkpt>
      <trkpt lat="40.419379" lon="0.183641">
        <ele>358.260</ele>
        <time>2018-04-08T09:10:04Z</time>
      </trkpt>
      <trkpt lat="40.419544" lon="0.183824">
        <ele>356.726</ele>
        <time>2018-04-08T09:10:08Z</time>
      </trkpt>
      <trkpt lat="40.419584" lon="0.183868">
        <ele>356.308</ele>
        <time>2018-04-08T09:10:09Z</time>
      </trkpt>
      <trkpt lat="40.419726" lon="0.184061">
        <ele>355.831</ele>
        <time>2018-04-08T09:10:13Z</time>
      </trkpt>
      <trkpt lat="40.419752" lon="0.184114">
        <ele>355.828</ele>
        <time>2018-04-08T09:10:14Z</time>
      </trkpt>
      <trkpt lat="40.419773" lon="0.184172">
        <ele>355.832</ele>
        <time>2018-04-08T09:10:15Z</time>
      </trkpt>
      <trkpt lat="40.419786" lon="0.184231">
        <ele>355.350</ele>
        <time>2018-04-08T09:10:16Z</time>
      </trkpt>
      <trkpt lat="40.419795" lon="0.184294">
        <ele>355.348</ele>
        <time>2018-04-08T09:10:17Z</time>
      </trkpt>
      <trkpt lat="40.419803" lon="0.184351">
        <ele>355.361</ele>
        <time>2018-04-08T09:10:18Z</time>
      </trkpt>
      <trkpt lat="40.419816" lon="0.184408">
        <ele>354.838</ele>
        <time>2018-04-08T09:10:19Z</time>
      </trkpt>
      <trkpt lat="40.419840" lon="0.184466">
        <ele>354.895</ele>
        <time>2018-04-08T09:10:20Z</time>
      </trkpt>
      <trkpt lat="40.419872" lon="0.184513">
        <ele>354.327</ele>
        <time>2018-04-08T09:10:21Z</time>
      </trkpt>
      <trkpt lat="40.420018" lon="0.184679">
        <ele>354.368</ele>
        <time>2018-04-08T09:10:25Z</time>
      </trkpt>
      <trkpt lat="40.420054" lon="0.184713">
        <ele>354.314</ele>
        <time>2018-04-08T09:10:26Z</time>
      </trkpt>
      <trkpt lat="40.420127" lon="0.184792">
        <ele>354.308</ele>
        <time>2018-04-08T09:10:28Z</time>
      </trkpt>
      <trkpt lat="40.420160" lon="0.184834">
        <ele>354.335</ele>
        <time>2018-04-08T09:10:29Z</time>
      </trkpt>
      <trkpt lat="40.420298" lon="0.185014">
        <ele>355.842</ele>
        <time>2018-04-08T09:10:33Z</time>
      </trkpt>
      <trkpt lat="40.420330" lon="0.185050">
        <ele>355.876</ele>
        <time>2018-04-08T09:10:34Z</time>
      </trkpt>
      <trkpt lat="40.420537" lon="0.185263">
        <ele>357.714</ele>
        <time>2018-04-08T09:10:40Z</time>
      </trkpt>
      <trkpt lat="40.420709" lon="0.185508">
        <ele>359.192</ele>
        <time>2018-04-08T09:10:46Z</time>
      </trkpt>
      <trkpt lat="40.420828" lon="0.185767">
        <ele>360.695</ele>
        <time>2018-04-08T09:10:52Z</time>
      </trkpt>
      <trkpt lat="40.420874" lon="0.186023">
        <ele>361.562</ele>
        <time>2018-04-08T09:10:58Z</time>
      </trkpt>
      <trkpt lat="40.420943" lon="0.186118">
        <ele>362.559</ele>
        <time>2018-04-08T09:11:01Z</time>
      </trkpt>
      <trkpt lat="40.421097" lon="0.186235">
        <ele>364.471</ele>
        <time>2018-04-08T09:11:07Z</time>
      </trkpt>
      <trkpt lat="40.421301" lon="0.186377">
        <ele>366.441</ele>
        <time>2018-04-08T09:11:14Z</time>
      </trkpt>
      <trkpt lat="40.421513" lon="0.186536">
        <ele>367.315</ele>
        <time>2018-04-08T09:11:21Z</time>
      </trkpt>
      <trkpt lat="40.421758" lon="0.186709">
        <ele>367.808</ele>
        <time>2018-04-08T09:11:29Z</time>
      </trkpt>
      <trkpt lat="40.421967" lon="0.187003">
        <ele>369.740</ele>
        <time>2018-04-08T09:11:38Z</time>
      </trkpt>
      <trkpt lat="40.422168" lon="0.187264">
        <ele>370.227</ele>
        <time>2018-04-08T09:11:46Z</time>
      </trkpt>
      <trkpt lat="40.422216" lon="0.187287">
        <ele>368.881</ele>
        <time>2018-04-08T09:11:47Z</time>
      </trkpt>
      <trkpt lat="40.422265" lon="0.187302">
        <ele>368.899</ele>
        <time>2018-04-08T09:11:48Z</time>
      </trkpt>
      <trkpt lat="40.422310" lon="0.187316">
        <ele>368.837</ele>
        <time>2018-04-08T09:11:49Z</time>
      </trkpt>
      <trkpt lat="40.422351" lon="0.187331">
        <ele>368.870</ele>
        <time>2018-04-08T09:11:50Z</time>
      </trkpt>
      <trkpt lat="40.422530" lon="0.187462">
        <ele>370.227</ele>
        <time>2018-04-08T09:11:56Z</time>
      </trkpt>
      <trkpt lat="40.422714" lon="0.187628">
        <ele>371.644</ele>
        <time>2018-04-08T09:12:03Z</time>
      </trkpt>
      <trkpt lat="40.422740" lon="0.187636">
        <ele>371.676</ele>
        <time>2018-04-08T09:12:04Z</time>
      </trkpt>
      <trkpt lat="40.422766" lon="0.187648">
        <ele>371.690</ele>
        <time>2018-04-08T09:12:05Z</time>
      </trkpt>
      <trkpt lat="40.422795" lon="0.187661">
        <ele>371.619</ele>
        <time>2018-04-08T09:12:06Z</time>
      </trkpt>
      <trkpt lat="40.422823" lon="0.187676">
        <ele>371.608</ele>
        <time>2018-04-08T09:12:07Z</time>
      </trkpt>
      <trkpt lat="40.422847" lon="0.187699">
        <ele>372.160</ele>
        <time>2018-04-08T09:12:08Z</time>
      </trkpt>
      <trkpt lat="40.422875" lon="0.187725">
        <ele>372.117</ele>
        <time>2018-04-08T09:12:09Z</time>
      </trkpt>
      <trkpt lat="40.423011" lon="0.187877">
        <ele>374.081</ele>
        <time>2018-04-08T09:12:14Z</time>
      </trkpt>
      <trkpt lat="40.423174" lon="0.188036">
        <ele>376.979</ele>
        <time>2018-04-08T09:12:20Z</time>
      </trkpt>
      <trkpt lat="40.423388" lon="0.188215">
        <ele>377.937</ele>
        <time>2018-04-08T09:12:28Z</time>
      </trkpt>
      <trkpt lat="40.423619" lon="0.188404">
        <ele>379.390</ele>
        <time>2018-04-08T09:12:36Z</time>
      </trkpt>
      <trkpt lat="40.423817" lon="0.188613">
        <ele>379.387</ele>
        <time>2018-04-08T09:12:43Z</time>
      </trkpt>
      <trkpt lat="40.423848" lon="0.188653">
        <ele>379.374</ele>
        <time>2018-04-08T09:12:44Z</time>
      </trkpt>
      <trkpt lat="40.423888" lon="0.188681">
        <ele>379.385</ele>
        <time>2018-04-08T09:12:45Z</time>
      </trkpt>
      <trkpt lat="40.423922" lon="0.188699">
        <ele>379.389</ele>
        <time>2018-04-08T09:12:46Z</time>
      </trkpt>
      <trkpt lat="40.423959" lon="0.188715">
        <ele>379.317</ele>
        <time>2018-04-08T09:12:47Z</time>
      </trkpt>
      <trkpt lat="40.423994" lon="0.188726">
        <ele>379.308</ele>
        <time>2018-04-08T09:12:48Z</time>
      </trkpt>
      <trkpt lat="40.424166" lon="0.188809">
        <ele>380.851</ele>
        <time>2018-04-08T09:12:54Z</time>
      </trkpt>
      <trkpt lat="40.424286" lon="0.189027">
        <ele>383.798</ele>
        <time>2018-04-08T09:13:01Z</time>
      </trkpt>
      <trkpt lat="40.424299" lon="0.189052">
        <ele>383.762</ele>
        <time>2018-04-08T09:13:02Z</time>
      </trkpt>
      <trkpt lat="40.424393" lon="0.189235">
        <ele>385.630</ele>
        <time>2018-04-08T09:13:09Z</time>
      </trkpt>
      <trkpt lat="40.424408" lon="0.189390">
        <ele>387.558</ele>
        <time>2018-04-08T09:13:13Z</time>
      </trkpt>
      <trkpt lat="40.424400" lon="0.189430">
        <ele>388.031</ele>
        <time>2018-04-08T09:13:14Z</time>
      </trkpt>
      <trkpt lat="40.424390" lon="0.189468">
        <ele>388.578</ele>
        <time>2018-04-08T09:13:15Z</time>
      </trkpt>
      <trkpt lat="40.424377" lon="0.189539">
        <ele>389.425</ele>
        <time>2018-04-08T09:13:17Z</time>
      </trkpt>
      <trkpt lat="40.424350" lon="0.189770">
        <ele>391.395</ele>
        <time>2018-04-08T09:13:24Z</time>
      </trkpt>
      <trkpt lat="40.424385" lon="0.190000">
        <ele>392.349</ele>
        <time>2018-04-08T09:13:31Z</time>
      </trkpt>
      <trkpt lat="40.424438" lon="0.190081">
        <ele>393.323</ele>
        <time>2018-04-08T09:13:35Z</time>
      </trkpt>
      <trkpt lat="40.424459" lon="0.190084">
        <ele>393.808</ele>
        <time>2018-04-08T09:13:36Z</time>
      </trkpt>
      <trkpt lat="40.424483" lon="0.190082">
        <ele>393.892</ele>
        <time>2018-04-08T09:13:37Z</time>
      </trkpt>
      <trkpt lat="40.424673" lon="0.189995">
        <ele>396.239</ele>
        <time>2018-04-08T09:13:45Z</time>
      </trkpt>
      <trkpt lat="40.424887" lon="0.189935">
        <ele>397.193</ele>
        <time>2018-04-08T09:13:53Z</time>
      </trkpt>
      <trkpt lat="40.425122" lon="0.189973">
        <ele>397.681</ele>
        <time>2018-04-08T09:14:01Z</time>
      </trkpt>
      <trkpt lat="40.425325" lon="0.190030">
        <ele>398.179</ele>
        <time>2018-04-08T09:14:08Z</time>
      </trkpt>
      <trkpt lat="40.425633" lon="0.190079">
        <ele>398.182</ele>
        <time>2018-04-08T09:14:17Z</time>
      </trkpt>
      <trkpt lat="40.425909" lon="0.190085">
        <ele>399.089</ele>
        <time>2018-04-08T09:14:25Z</time>
      </trkpt>
      <trkpt lat="40.426126" lon="0.190168">
        <ele>401.976</ele>
        <time>2018-04-08T09:14:33Z</time>
      </trkpt>
      <trkpt lat="40.426366" lon="0.190293">
        <ele>403.888</ele>
        <time>2018-04-08T09:14:42Z</time>
      </trkpt>
      <trkpt lat="40.426584" lon="0.190420">
        <ele>404.324</ele>
        <time>2018-04-08T09:14:50Z</time>
      </trkpt>
      <trkpt lat="40.426621" lon="0.190439">
        <ele>404.326</ele>
        <time>2018-04-08T09:14:51Z</time>
      </trkpt>
      <trkpt lat="40.426784" lon="0.190516">
        <ele>402.408</ele>
        <time>2018-04-08T09:14:54Z</time>
      </trkpt>
      <trkpt lat="40.427007" lon="0.190556">
        <ele>399.061</ele>
        <time>2018-04-08T09:14:57Z</time>
      </trkpt>
      <trkpt lat="40.427089" lon="0.190558">
        <ele>399.018</ele>
        <time>2018-04-08T09:14:58Z</time>
      </trkpt>
      <trkpt lat="40.427154" lon="0.190551">
        <ele>399.022</ele>
        <time>2018-04-08T09:14:59Z</time>
      </trkpt>
      <trkpt lat="40.427212" lon="0.190537">
        <ele>399.020</ele>
        <time>2018-04-08T09:15:00Z</time>
      </trkpt>
      <trkpt lat="40.427336" lon="0.190506">
        <ele>401.928</ele>
        <time>2018-04-08T09:15:03Z</time>
      </trkpt>
      <trkpt lat="40.427523" lon="0.190519">
        <ele>403.411</ele>
        <time>2018-04-08T09:15:09Z</time>
      </trkpt>
      <trkpt lat="40.427709" lon="0.190493">
        <ele>404.358</ele>
        <time>2018-04-08T09:15:15Z</time>
      </trkpt>
      <trkpt lat="40.428006" lon="0.190397">
        <ele>402.945</ele>
        <time>2018-04-08T09:15:22Z</time>
      </trkpt>
      <trkpt lat="40.428053" lon="0.190376">
        <ele>402.936</ele>
        <time>2018-04-08T09:15:23Z</time>
      </trkpt>
      <trkpt lat="40.428382" lon="0.190236">
        <ele>400.517</ele>
        <time>2018-04-08T09:15:29Z</time>
      </trkpt>
      <trkpt lat="40.428638" lon="0.190107">
        <ele>397.118</ele>
        <time>2018-04-08T09:15:33Z</time>
      </trkpt>
      <trkpt lat="40.428914" lon="0.189982">
        <ele>393.808</ele>
        <time>2018-04-08T09:15:37Z</time>
      </trkpt>
      <trkpt lat="40.428988" lon="0.189967">
        <ele>393.376</ele>
        <time>2018-04-08T09:15:38Z</time>
      </trkpt>
      <trkpt lat="40.429134" lon="0.189946">
        <ele>391.343</ele>
        <time>2018-04-08T09:15:40Z</time>
      </trkpt>
      <trkpt lat="40.429267" lon="0.189948">
        <ele>389.977</ele>
        <time>2018-04-08T09:15:42Z</time>
      </trkpt>
      <trkpt lat="40.429337" lon="0.189962">
        <ele>388.935</ele>
        <time>2018-04-08T09:15:43Z</time>
      </trkpt>
      <trkpt lat="40.429413" lon="0.189998">
        <ele>388.543</ele>
        <time>2018-04-08T09:15:44Z</time>
      </trkpt>
      <trkpt lat="40.429479" lon="0.190050">
        <ele>387.596</ele>
        <time>2018-04-08T09:15:45Z</time>
      </trkpt>
      <trkpt lat="40.429553" lon="0.190103">
        <ele>386.513</ele>
        <time>2018-04-08T09:15:46Z</time>
      </trkpt>
      <trkpt lat="40.429625" lon="0.190138">
        <ele>386.130</ele>
        <time>2018-04-08T09:15:47Z</time>
      </trkpt>
      <trkpt lat="40.429695" lon="0.190155">
        <ele>386.144</ele>
        <time>2018-04-08T09:15:48Z</time>
      </trkpt>
      <trkpt lat="40.429761" lon="0.190153">
        <ele>386.105</ele>
        <time>2018-04-08T09:15:49Z</time>
      </trkpt>
      <trkpt lat="40.429828" lon="0.190131">
        <ele>386.115</ele>
        <time>2018-04-08T09:15:50Z</time>
      </trkpt>
      <trkpt lat="40.429887" lon="0.190101">
        <ele>386.108</ele>
        <time>2018-04-08T09:15:51Z</time>
      </trkpt>
      <trkpt lat="40.429951" lon="0.190073">
        <ele>386.197</ele>
        <time>2018-04-08T09:15:52Z</time>
      </trkpt>
      <trkpt lat="40.430075" lon="0.190039">
        <ele>385.664</ele>
        <time>2018-04-08T09:15:54Z</time>
      </trkpt>
      <trkpt lat="40.430137" lon="0.190033">
        <ele>385.648</ele>
        <time>2018-04-08T09:15:55Z</time>
      </trkpt>
      <trkpt lat="40.430204" lon="0.190035">
        <ele>385.656</ele>
        <time>2018-04-08T09:15:56Z</time>
      </trkpt>
      <trkpt lat="40.430475" lon="0.190067">
        <ele>385.664</ele>
        <time>2018-04-08T09:16:01Z</time>
      </trkpt>
      <trkpt lat="40.430582" lon="0.190055">
        <ele>385.677</ele>
        <time>2018-04-08T09:16:03Z</time>
      </trkpt>
      <trkpt lat="40.430880" lon="0.189982">
        <ele>384.164</ele>
        <time>2018-04-08T09:16:08Z</time>
      </trkpt>
      <trkpt lat="40.430948" lon="0.189969">
        <ele>383.211</ele>
        <time>2018-04-08T09:16:09Z</time>
      </trkpt>
      <trkpt lat="40.431024" lon="0.189955">
        <ele>382.728</ele>
        <time>2018-04-08T09:16:10Z</time>
      </trkpt>
      <trkpt lat="40.431095" lon="0.189951">
        <ele>381.789</ele>
        <time>2018-04-08T09:16:11Z</time>
      </trkpt>
      <trkpt lat="40.431179" lon="0.189948">
        <ele>381.317</ele>
        <time>2018-04-08T09:16:12Z</time>
      </trkpt>
      <trkpt lat="40.431254" lon="0.189954">
        <ele>380.808</ele>
        <time>2018-04-08T09:16:13Z</time>
      </trkpt>
      <trkpt lat="40.431337" lon="0.189970">
        <ele>380.325</ele>
        <time>2018-04-08T09:16:14Z</time>
      </trkpt>
      <trkpt lat="40.431406" lon="0.189983">
        <ele>380.362</ele>
        <time>2018-04-08T09:16:15Z</time>
      </trkpt>
      <trkpt lat="40.431551" lon="0.189991">
        <ele>379.366</ele>
        <time>2018-04-08T09:16:17Z</time>
      </trkpt>
      <trkpt lat="40.431619" lon="0.189973">
        <ele>378.974</ele>
        <time>2018-04-08T09:16:18Z</time>
      </trkpt>
      <trkpt lat="40.431693" lon="0.189938">
        <ele>377.952</ele>
        <time>2018-04-08T09:16:19Z</time>
      </trkpt>
      <trkpt lat="40.431920" lon="0.189812">
        <ele>375.595</ele>
        <time>2018-04-08T09:16:22Z</time>
      </trkpt>
      <trkpt lat="40.432125" lon="0.189714">
        <ele>372.622</ele>
        <time>2018-04-08T09:16:25Z</time>
      </trkpt>
      <trkpt lat="40.432194" lon="0.189700">
        <ele>371.679</ele>
        <time>2018-04-08T09:16:26Z</time>
      </trkpt>
      <trkpt lat="40.432262" lon="0.189704">
        <ele>370.714</ele>
        <time>2018-04-08T09:16:27Z</time>
      </trkpt>
      <trkpt lat="40.432338" lon="0.189728">
        <ele>369.754</ele>
        <time>2018-04-08T09:16:28Z</time>
      </trkpt>
      <trkpt lat="40.432396" lon="0.189755">
        <ele>369.209</ele>
        <time>2018-04-08T09:16:29Z</time>
      </trkpt>
      <trkpt lat="40.432452" lon="0.189776">
        <ele>369.208</ele>
        <time>2018-04-08T09:16:30Z</time>
      </trkpt>
      <trkpt lat="40.432537" lon="0.189809">
        <ele>368.344</ele>
        <time>2018-04-08T09:16:32Z</time>
      </trkpt>
      <trkpt lat="40.432675" lon="0.189885">
        <ele>371.621</ele>
        <time>2018-04-08T09:16:36Z</time>
      </trkpt>
      <trkpt lat="40.432817" lon="0.190039">
        <ele>373.685</ele>
        <time>2018-04-08T09:16:41Z</time>
      </trkpt>
      <trkpt lat="40.433002" lon="0.190153">
        <ele>375.053</ele>
        <time>2018-04-08T09:16:47Z</time>
      </trkpt>
      <trkpt lat="40.433198" lon="0.190306">
        <ele>376.411</ele>
        <time>2018-04-08T09:16:54Z</time>
      </trkpt>
      <trkpt lat="40.433431" lon="0.190455">
        <ele>378.434</ele>
        <time>2018-04-08T09:17:02Z</time>
      </trkpt>
      <trkpt lat="40.433610" lon="0.190606">
        <ele>380.311</ele>
        <time>2018-04-08T09:17:10Z</time>
      </trkpt>
      <trkpt lat="40.433808" lon="0.190785">
        <ele>383.238</ele>
        <time>2018-04-08T09:17:19Z</time>
      </trkpt>
      <trkpt lat="40.433965" lon="0.190861">
        <ele>383.785</ele>
        <time>2018-04-08T09:17:25Z</time>
      </trkpt>
      <trkpt lat="40.434162" lon="0.190944">
        <ele>384.189</ele>
        <time>2018-04-08T09:17:32Z</time>
      </trkpt>
      <trkpt lat="40.434361" lon="0.191088">
        <ele>386.517</ele>
        <time>2018-04-08T09:17:40Z</time>
      </trkpt>
      <trkpt lat="40.434565" lon="0.191165">
        <ele>386.508</ele>
        <time>2018-04-08T09:17:46Z</time>
      </trkpt>
      <trkpt lat="40.434888" lon="0.191268">
        <ele>386.521</ele>
        <time>2018-04-08T09:17:54Z</time>
      </trkpt>
      <trkpt lat="40.435236" lon="0.191471">
        <ele>387.028</ele>
        <time>2018-04-08T09:18:04Z</time>
      </trkpt>
      <trkpt lat="40.435441" lon="0.191667">
        <ele>387.032</ele>
        <time>2018-04-08T09:18:10Z</time>
      </trkpt>
      <trkpt lat="40.435477" lon="0.191688">
        <ele>387.080</ele>
        <time>2018-04-08T09:18:11Z</time>
      </trkpt>
      <trkpt lat="40.435515" lon="0.191706">
        <ele>387.538</ele>
        <time>2018-04-08T09:18:12Z</time>
      </trkpt>
      <trkpt lat="40.435551" lon="0.191719">
        <ele>387.561</ele>
        <time>2018-04-08T09:18:13Z</time>
      </trkpt>
      <trkpt lat="40.435589" lon="0.191728">
        <ele>388.078</ele>
        <time>2018-04-08T09:18:14Z</time>
      </trkpt>
      <trkpt lat="40.435626" lon="0.191735">
        <ele>388.085</ele>
        <time>2018-04-08T09:18:15Z</time>
      </trkpt>
      <trkpt lat="40.435906" lon="0.191853">
        <ele>388.084</ele>
        <time>2018-04-08T09:18:22Z</time>
      </trkpt>
      <trkpt lat="40.435947" lon="0.191863">
        <ele>388.507</ele>
        <time>2018-04-08T09:18:23Z</time>
      </trkpt>
      <trkpt lat="40.435989" lon="0.191868">
        <ele>388.517</ele>
        <time>2018-04-08T09:18:24Z</time>
      </trkpt>
      <trkpt lat="40.436028" lon="0.191867">
        <ele>389.408</ele>
        <time>2018-04-08T09:18:25Z</time>
      </trkpt>
      <trkpt lat="40.436064" lon="0.191862">
        <ele>389.431</ele>
        <time>2018-04-08T09:18:26Z</time>
      </trkpt>
      <trkpt lat="40.436192" lon="0.191864">
        <ele>389.468</ele>
        <time>2018-04-08T09:18:29Z</time>
      </trkpt>
      <trkpt lat="40.436232" lon="0.191872">
        <ele>389.472</ele>
        <time>2018-04-08T09:18:30Z</time>
      </trkpt>
      <trkpt lat="40.436407" lon="0.191913">
        <ele>389.920</ele>
        <time>2018-04-08T09:18:34Z</time>
      </trkpt>
      <trkpt lat="40.436452" lon="0.191931">
        <ele>389.968</ele>
        <time>2018-04-08T09:18:35Z</time>
      </trkpt>
      <trkpt lat="40.436576" lon="0.191988">
        <ele>389.991</ele>
        <time>2018-04-08T09:18:38Z</time>
      </trkpt>
      <trkpt lat="40.436618" lon="0.192007">
        <ele>389.998</ele>
        <time>2018-04-08T09:18:39Z</time>
      </trkpt>
      <trkpt lat="40.436965" lon="0.192088">
        <ele>390.455</ele>
        <time>2018-04-08T09:18:47Z</time>
      </trkpt>
      <trkpt lat="40.437014" lon="0.192083">
        <ele>390.493</ele>
        <time>2018-04-08T09:18:48Z</time>
      </trkpt>
      <trkpt lat="40.437255" lon="0.192041">
        <ele>389.465</ele>
        <time>2018-04-08T09:18:53Z</time>
      </trkpt>
      <trkpt lat="40.437310" lon="0.192047">
        <ele>388.521</ele>
        <time>2018-04-08T09:18:54Z</time>
      </trkpt>
      <trkpt lat="40.437363" lon="0.192066">
        <ele>388.008</ele>
        <time>2018-04-08T09:18:55Z</time>
      </trkpt>
      <trkpt lat="40.437412" lon="0.192099">
        <ele>388.012</ele>
        <time>2018-04-08T09:18:56Z</time>
      </trkpt>
      <trkpt lat="40.437460" lon="0.192143">
        <ele>387.539</ele>
        <time>2018-04-08T09:18:57Z</time>
      </trkpt>
      <trkpt lat="40.437507" lon="0.192179">
        <ele>387.033</ele>
        <time>2018-04-08T09:18:58Z</time>
      </trkpt>
      <trkpt lat="40.437569" lon="0.192202">
        <ele>386.121</ele>
        <time>2018-04-08T09:18:59Z</time>
      </trkpt>
      <trkpt lat="40.437638" lon="0.192205">
        <ele>385.689</ele>
        <time>2018-04-08T09:19:00Z</time>
      </trkpt>
      <trkpt lat="40.437699" lon="0.192187">
        <ele>385.162</ele>
        <time>2018-04-08T09:19:01Z</time>
      </trkpt>
      <trkpt lat="40.437753" lon="0.192150">
        <ele>385.149</ele>
        <time>2018-04-08T09:19:02Z</time>
      </trkpt>
      <trkpt lat="40.437802" lon="0.192092">
        <ele>384.186</ele>
        <time>2018-04-08T09:19:03Z</time>
      </trkpt>
      <trkpt lat="40.437851" lon="0.192029">
        <ele>384.148</ele>
        <time>2018-04-08T09:19:04Z</time>
      </trkpt>
      <trkpt lat="40.437899" lon="0.191977">
        <ele>383.761</ele>
        <time>2018-04-08T09:19:05Z</time>
      </trkpt>
      <trkpt lat="40.437955" lon="0.191931">
        <ele>383.717</ele>
        <time>2018-04-08T09:19:06Z</time>
      </trkpt>
      <trkpt lat="40.438020" lon="0.191897">
        <ele>383.208</ele>
        <time>2018-04-08T09:19:07Z</time>
      </trkpt>
      <trkpt lat="40.438084" lon="0.191880">
        <ele>383.217</ele>
        <time>2018-04-08T09:19:08Z</time>
      </trkpt>
      <trkpt lat="40.438146" lon="0.191873">
        <ele>382.734</ele>
        <time>2018-04-08T09:19:09Z</time>
      </trkpt>
      <trkpt lat="40.438212" lon="0.191874">
        <ele>382.718</ele>
        <time>2018-04-08T09:19:10Z</time>
      </trkpt>
      <trkpt lat="40.438276" lon="0.191878">
        <ele>381.776</ele>
        <time>2018-04-08T09:19:11Z</time>
      </trkpt>
      <trkpt lat="40.438670" lon="0.191935">
        <ele>380.844</ele>
        <time>2018-04-08T09:19:18Z</time>
      </trkpt>
      <trkpt lat="40.439114" lon="0.192000">
        <ele>379.387</ele>
        <time>2018-04-08T09:19:25Z</time>
      </trkpt>
      <trkpt lat="40.439392" lon="0.192083">
        <ele>379.374</ele>
        <time>2018-04-08T09:19:31Z</time>
      </trkpt>
      <trkpt lat="40.439443" lon="0.192080">
        <ele>379.351</ele>
        <time>2018-04-08T09:19:32Z</time>
      </trkpt>
      <trkpt lat="40.439490" lon="0.192071">
        <ele>379.356</ele>
        <time>2018-04-08T09:19:33Z</time>
      </trkpt>
      <trkpt lat="40.439600" lon="0.192049">
        <ele>379.359</ele>
        <time>2018-04-08T09:19:35Z</time>
      </trkpt>
      <trkpt lat="40.439652" lon="0.192047">
        <ele>378.414</ele>
        <time>2018-04-08T09:19:36Z</time>
      </trkpt>
      <trkpt lat="40.439710" lon="0.192045">
        <ele>378.408</ele>
        <time>2018-04-08T09:19:37Z</time>
      </trkpt>
      <trkpt lat="40.439767" lon="0.192046">
        <ele>378.478</ele>
        <time>2018-04-08T09:19:38Z</time>
      </trkpt>
      <trkpt lat="40.439824" lon="0.192043">
        <ele>378.415</ele>
        <time>2018-04-08T09:19:39Z</time>
      </trkpt>
      <trkpt lat="40.439881" lon="0.192035">
        <ele>377.919</ele>
        <time>2018-04-08T09:19:40Z</time>
      </trkpt>
      <trkpt lat="40.439937" lon="0.192020">
        <ele>377.947</ele>
        <time>2018-04-08T09:19:41Z</time>
      </trkpt>
      <trkpt lat="40.439989" lon="0.191995">
        <ele>377.455</ele>
        <time>2018-04-08T09:19:42Z</time>
      </trkpt>
      <trkpt lat="40.440096" lon="0.191947">
        <ele>376.468</ele>
        <time>2018-04-08T09:19:44Z</time>
      </trkpt>
      <trkpt lat="40.440153" lon="0.191937">
        <ele>374.515</ele>
        <time>2018-04-08T09:19:45Z</time>
      </trkpt>
      <trkpt lat="40.440216" lon="0.191950">
        <ele>374.022</ele>
        <time>2018-04-08T09:19:46Z</time>
      </trkpt>
      <trkpt lat="40.440284" lon="0.191985">
        <ele>373.164</ele>
        <time>2018-04-08T09:19:47Z</time>
      </trkpt>
      <trkpt lat="40.440357" lon="0.192024">
        <ele>372.106</ele>
        <time>2018-04-08T09:19:48Z</time>
      </trkpt>
      <trkpt lat="40.440438" lon="0.192053">
        <ele>371.616</ele>
        <time>2018-04-08T09:19:49Z</time>
      </trkpt>
      <trkpt lat="40.440504" lon="0.192060">
        <ele>371.608</ele>
        <time>2018-04-08T09:19:50Z</time>
      </trkpt>
      <trkpt lat="40.440565" lon="0.192049">
        <ele>373.129</ele>
        <time>2018-04-08T09:19:51Z</time>
      </trkpt>
      <trkpt lat="40.440621" lon="0.192029">
        <ele>372.646</ele>
        <time>2018-04-08T09:19:52Z</time>
      </trkpt>
      <trkpt lat="40.440795" lon="0.192001">
        <ele>373.610</ele>
        <time>2018-04-08T09:19:55Z</time>
      </trkpt>
      <trkpt lat="40.441050" lon="0.192005">
        <ele>372.168</ele>
        <time>2018-04-08T09:19:59Z</time>
      </trkpt>
      <trkpt lat="40.441457" lon="0.191980">
        <ele>368.826</ele>
        <time>2018-04-08T09:20:06Z</time>
      </trkpt>
      <trkpt lat="40.441610" lon="0.191851">
        <ele>365.999</ele>
        <time>2018-04-08T09:20:11Z</time>
      </trkpt>
      <trkpt lat="40.441700" lon="0.191613">
        <ele>361.516</ele>
        <time>2018-04-08T09:20:14Z</time>
      </trkpt>
      <trkpt lat="40.441793" lon="0.191406">
        <ele>358.723</ele>
        <time>2018-04-08T09:20:16Z</time>
      </trkpt>
      <trkpt lat="40.441959" lon="0.191088">
        <ele>354.811</ele>
        <time>2018-04-08T09:20:19Z</time>
      </trkpt>
      <trkpt lat="40.442128" lon="0.190737">
        <ele>351.021</ele>
        <time>2018-04-08T09:20:22Z</time>
      </trkpt>
      <trkpt lat="40.442285" lon="0.190369">
        <ele>347.103</ele>
        <time>2018-04-08T09:20:25Z</time>
      </trkpt>
      <trkpt lat="40.442461" lon="0.190004">
        <ele>343.808</ele>
        <time>2018-04-08T09:20:28Z</time>
      </trkpt>
      <trkpt lat="40.442647" lon="0.189616">
        <ele>339.434</ele>
        <time>2018-04-08T09:20:31Z</time>
      </trkpt>
      <trkpt lat="40.442836" lon="0.189225">
        <ele>336.651</ele>
        <time>2018-04-08T09:20:34Z</time>
      </trkpt>
      <trkpt lat="40.443067" lon="0.188723">
        <ele>333.285</ele>
        <time>2018-04-08T09:20:38Z</time>
      </trkpt>
      <trkpt lat="40.443298" lon="0.188240">
        <ele>331.353</ele>
        <time>2018-04-08T09:20:42Z</time>
      </trkpt>
      <trkpt lat="40.443627" lon="0.187568">
        <ele>327.431</ele>
        <time>2018-04-08T09:20:48Z</time>
      </trkpt>
      <trkpt lat="40.443784" lon="0.187233">
        <ele>326.044</ele>
        <time>2018-04-08T09:20:51Z</time>
      </trkpt>
      <trkpt lat="40.444139" lon="0.186518">
        <ele>322.621</ele>
        <time>2018-04-08T09:20:58Z</time>
      </trkpt>
      <trkpt lat="40.444516" lon="0.185676">
        <ele>319.788</ele>
        <time>2018-04-08T09:21:07Z</time>
      </trkpt>
      <trkpt lat="40.444824" lon="0.185015">
        <ele>318.315</ele>
        <time>2018-04-08T09:21:15Z</time>
      </trkpt>
      <trkpt lat="40.444913" lon="0.184804">
        <ele>317.365</ele>
        <time>2018-04-08T09:21:18Z</time>
      </trkpt>
      <trkpt lat="40.444947" lon="0.184754">
        <ele>316.811</ele>
        <time>2018-04-08T09:21:19Z</time>
      </trkpt>
      <trkpt lat="40.444991" lon="0.184730">
        <ele>316.808</ele>
        <time>2018-04-08T09:21:20Z</time>
      </trkpt>
      <trkpt lat="40.445036" lon="0.184737">
        <ele>317.354</ele>
        <time>2018-04-08T09:21:21Z</time>
      </trkpt>
      <trkpt lat="40.445071" lon="0.184760">
        <ele>316.831</ele>
        <time>2018-04-08T09:21:22Z</time>
      </trkpt>
      <trkpt lat="40.445112" lon="0.184794">
        <ele>316.425</ele>
        <time>2018-04-08T09:21:23Z</time>
      </trkpt>
      <trkpt lat="40.445479" lon="0.185067">
        <ele>316.863</ele>
        <time>2018-04-08T09:21:30Z</time>
      </trkpt>
      <trkpt lat="40.445923" lon="0.185373">
        <ele>316.431</ele>
        <time>2018-04-08T09:21:38Z</time>
      </trkpt>
      <trkpt lat="40.446217" lon="0.185558">
        <ele>315.494</ele>
        <time>2018-04-08T09:21:43Z</time>
      </trkpt>
      <trkpt lat="40.446648" lon="0.185908">
        <ele>315.481</ele>
        <time>2018-04-08T09:21:51Z</time>
      </trkpt>
      <trkpt lat="40.447157" lon="0.186258">
        <ele>315.488</ele>
        <time>2018-04-08T09:22:00Z</time>
      </trkpt>
      <trkpt lat="40.447663" lon="0.186582">
        <ele>313.068</ele>
        <time>2018-04-08T09:22:09Z</time>
      </trkpt>
      <trkpt lat="40.448058" lon="0.186800">
        <ele>313.042</ele>
        <time>2018-04-08T09:22:16Z</time>
      </trkpt>
      <trkpt lat="40.448528" lon="0.187140">
        <ele>313.026</ele>
        <time>2018-04-08T09:22:25Z</time>
      </trkpt>
      <trkpt lat="40.448989" lon="0.187437">
        <ele>313.008</ele>
        <time>2018-04-08T09:22:34Z</time>
      </trkpt>
      <trkpt lat="40.449039" lon="0.187471">
        <ele>313.079</ele>
        <time>2018-04-08T09:22:35Z</time>
      </trkpt>
      <trkpt lat="40.449435" lon="0.187752">
        <ele>312.026</ele>
        <time>2018-04-08T09:22:43Z</time>
      </trkpt>
      <trkpt lat="40.449622" lon="0.187868">
        <ele>312.010</ele>
        <time>2018-04-08T09:22:47Z</time>
      </trkpt>
      <trkpt lat="40.449664" lon="0.187897">
        <ele>312.068</ele>
        <time>2018-04-08T09:22:48Z</time>
      </trkpt>
      <trkpt lat="40.449746" lon="0.187946">
        <ele>311.696</ele>
        <time>2018-04-08T09:22:50Z</time>
      </trkpt>
      <trkpt lat="40.449979" lon="0.188095">
        <ele>311.639</ele>
        <time>2018-04-08T09:22:56Z</time>
      </trkpt>
      <trkpt lat="40.450024" lon="0.188124">
        <ele>311.616</ele>
        <time>2018-04-08T09:22:57Z</time>
      </trkpt>
      <trkpt lat="40.450068" lon="0.188161">
        <ele>311.613</ele>
        <time>2018-04-08T09:22:58Z</time>
      </trkpt>
      <trkpt lat="40.450379" lon="0.188385">
        <ele>311.635</ele>
        <time>2018-04-08T09:23:05Z</time>
      </trkpt>
      <trkpt lat="40.450667" lon="0.188549">
        <ele>310.186</ele>
        <time>2018-04-08T09:23:12Z</time>
      </trkpt>
      <trkpt lat="40.450703" lon="0.188564">
        <ele>310.114</ele>
        <time>2018-04-08T09:23:13Z</time>
      </trkpt>
      <trkpt lat="40.450740" lon="0.188590">
        <ele>310.108</ele>
        <time>2018-04-08T09:23:14Z</time>
      </trkpt>
      <trkpt lat="40.450778" lon="0.188622">
        <ele>310.166</ele>
        <time>2018-04-08T09:23:15Z</time>
      </trkpt>
      <trkpt lat="40.450821" lon="0.188656">
        <ele>310.163</ele>
        <time>2018-04-08T09:23:16Z</time>
      </trkpt>
      <trkpt lat="40.450868" lon="0.188683">
        <ele>310.117</ele>
        <time>2018-04-08T09:23:17Z</time>
      </trkpt>
      <trkpt lat="40.451277" lon="0.188932">
        <ele>310.185</ele>
        <time>2018-04-08T09:23:25Z</time>
      </trkpt>
      <trkpt lat="40.451426" lon="0.189033">
        <ele>310.193</ele>
        <time>2018-04-08T09:23:28Z</time>
      </trkpt>
      <trkpt lat="40.451888" lon="0.189372">
        <ele>311.156</ele>
        <time>2018-04-08T09:23:37Z</time>
      </trkpt>
      <trkpt lat="40.452256" lon="0.189632">
        <ele>310.143</ele>
        <time>2018-04-08T09:23:44Z</time>
      </trkpt>
      <trkpt lat="40.452689" lon="0.189910">
        <ele>309.290</ele>
        <time>2018-04-08T09:23:52Z</time>
      </trkpt>
      <trkpt lat="40.452958" lon="0.190107">
        <ele>308.776</ele>
        <time>2018-04-08T09:23:57Z</time>
      </trkpt>
      <trkpt lat="40.453008" lon="0.190155">
        <ele>308.790</ele>
        <time>2018-04-08T09:23:58Z</time>
      </trkpt>
      <trkpt lat="40.453063" lon="0.190199">
        <ele>308.719</ele>
        <time>2018-04-08T09:23:59Z</time>
      </trkpt>
      <trkpt lat="40.453529" lon="0.190540">
        <ele>307.208</ele>
        <time>2018-04-08T09:24:08Z</time>
      </trkpt>
      <trkpt lat="40.453882" lon="0.190958">
        <ele>306.320</ele>
        <time>2018-04-08T09:24:16Z</time>
      </trkpt>
      <trkpt lat="40.454066" lon="0.191270">
        <ele>305.337</ele>
        <time>2018-04-08T09:24:21Z</time>
      </trkpt>
      <trkpt lat="40.454090" lon="0.191340">
        <ele>304.811</ele>
        <time>2018-04-08T09:24:22Z</time>
      </trkpt>
      <trkpt lat="40.454108" lon="0.191418">
        <ele>304.849</ele>
        <time>2018-04-08T09:24:23Z</time>
      </trkpt>
      <trkpt lat="40.454124" lon="0.191493">
        <ele>304.827</ele>
        <time>2018-04-08T09:24:24Z</time>
      </trkpt>
      <trkpt lat="40.454140" lon="0.191565">
        <ele>304.880</ele>
        <time>2018-04-08T09:24:25Z</time>
      </trkpt>
      <trkpt lat="40.454302" lon="0.191894">
        <ele>304.857</ele>
        <time>2018-04-08T09:24:30Z</time>
      </trkpt>
      <trkpt lat="40.454328" lon="0.191957">
        <ele>304.854</ele>
        <time>2018-04-08T09:24:31Z</time>
      </trkpt>
      <trkpt lat="40.454377" lon="0.192019">
        <ele>304.836</ele>
        <time>2018-04-08T09:24:32Z</time>
      </trkpt>
      <trkpt lat="40.454406" lon="0.192071">
        <ele>304.817</ele>
        <time>2018-04-08T09:24:33Z</time>
      </trkpt>
      <trkpt lat="40.454661" lon="0.192395">
        <ele>304.818</ele>
        <time>2018-04-08T09:25:44Z</time>
      </trkpt>
      <trkpt lat="40.454781" lon="0.192557">
        <ele>304.808</ele>
        <time>2018-04-08T09:25:47Z</time>
      </trkpt>
      <trkpt lat="40.455113" lon="0.192837">
        <ele>304.316</ele>
        <time>2018-04-08T09:25:54Z</time>
      </trkpt>
      <trkpt lat="40.455573" lon="0.193220">
        <ele>301.933</ele>
        <time>2018-04-08T09:26:03Z</time>
      </trkpt>
      <trkpt lat="40.455860" lon="0.193524">
        <ele>301.517</ele>
        <time>2018-04-08T09:26:09Z</time>
      </trkpt>
      <trkpt lat="40.456348" lon="0.193986">
        <ele>301.065</ele>
        <time>2018-04-08T09:26:19Z</time>
      </trkpt>
      <trkpt lat="40.456761" lon="0.194441">
        <ele>300.093</ele>
        <time>2018-04-08T09:26:28Z</time>
      </trkpt>
      <trkpt lat="40.457128" lon="0.194820">
        <ele>299.516</ele>
        <time>2018-04-08T09:26:36Z</time>
      </trkpt>
      <trkpt lat="40.457492" lon="0.195285">
        <ele>298.613</ele>
        <time>2018-04-08T09:26:45Z</time>
      </trkpt>
      <trkpt lat="40.457723" lon="0.195688">
        <ele>299.180</ele>
        <time>2018-04-08T09:26:53Z</time>
      </trkpt>
      <trkpt lat="40.457860" lon="0.195838">
        <ele>298.633</ele>
        <time>2018-04-08T09:26:58Z</time>
      </trkpt>
      <trkpt lat="40.457898" lon="0.195815">
        <ele>298.623</ele>
        <time>2018-04-08T09:26:59Z</time>
      </trkpt>
      <trkpt lat="40.457924" lon="0.195768">
        <ele>298.615</ele>
        <time>2018-04-08T09:27:00Z</time>
      </trkpt>
      <trkpt lat="40.457935" lon="0.195726">
        <ele>298.608</ele>
        <time>2018-04-08T09:27:01Z</time>
      </trkpt>
      <trkpt lat="40.457945" lon="0.195665">
        <ele>298.616</ele>
        <time>2018-04-08T09:27:02Z</time>
      </trkpt>
      <trkpt lat="40.457952" lon="0.195603">
        <ele>298.673</ele>
        <time>2018-04-08T09:27:03Z</time>
      </trkpt>
      <trkpt lat="40.457958" lon="0.195535">
        <ele>298.687</ele>
        <time>2018-04-08T09:27:04Z</time>
      </trkpt>
      <trkpt lat="40.458012" lon="0.194977">
        <ele>299.525</ele>
        <time>2018-04-08T09:27:12Z</time>
      </trkpt>
      <trkpt lat="40.458025" lon="0.194919">
        <ele>300.023</ele>
        <time>2018-04-08T09:27:13Z</time>
      </trkpt>
      <trkpt lat="40.458189" lon="0.194378">
        <ele>300.566</ele>
        <time>2018-04-08T09:27:22Z</time>
      </trkpt>
      <trkpt lat="40.458360" lon="0.193996">
        <ele>301.533</ele>
        <time>2018-04-08T09:27:30Z</time>
      </trkpt>
      <trkpt lat="40.458499" lon="0.193678">
        <ele>301.570</ele>
        <time>2018-04-08T09:27:38Z</time>
      </trkpt>
      <trkpt lat="40.458600" lon="0.193445">
        <ele>301.948</ele>
        <time>2018-04-08T09:27:44Z</time>
      </trkpt>
      <trkpt lat="40.458812" lon="0.192963">
        <ele>302.461</ele>
        <time>2018-04-08T09:27:53Z</time>
      </trkpt>
      <trkpt lat="40.459110" lon="0.192312">
        <ele>303.917</ele>
        <time>2018-04-08T09:28:04Z</time>
      </trkpt>
      <trkpt lat="40.459481" lon="0.191551">
        <ele>304.808</ele>
        <time>2018-04-08T09:28:17Z</time>
      </trkpt>
      <trkpt lat="40.459771" lon="0.190975">
        <ele>305.837</ele>
        <time>2018-04-08T09:28:27Z</time>
      </trkpt>
      <trkpt lat="40.460049" lon="0.190269">
        <ele>306.884</ele>
        <time>2018-04-08T09:28:39Z</time>
      </trkpt>
      <trkpt lat="40.460218" lon="0.189608">
        <ele>307.288</ele>
        <time>2018-04-08T09:28:50Z</time>
      </trkpt>
      <trkpt lat="40.460400" lon="0.189067">
        <ele>308.246</ele>
        <time>2018-04-08T09:28:59Z</time>
      </trkpt>
      <trkpt lat="40.460636" lon="0.188348">
        <ele>308.784</ele>
        <time>2018-04-08T09:29:11Z</time>
      </trkpt>
      <trkpt lat="40.460858" lon="0.187604">
        <ele>309.247</ele>
        <time>2018-04-08T09:29:23Z</time>
      </trkpt>
      <trkpt lat="40.461095" lon="0.186957">
        <ele>309.254</ele>
        <time>2018-04-08T09:29:34Z</time>
      </trkpt>
      <trkpt lat="40.461357" lon="0.186486">
        <ele>309.251</ele>
        <time>2018-04-08T09:29:43Z</time>
      </trkpt>
      <trkpt lat="40.461741" lon="0.185958">
        <ele>311.194</ele>
        <time>2018-04-08T09:29:54Z</time>
      </trkpt>
      <trkpt lat="40.462051" lon="0.185543">
        <ele>311.657</ele>
        <time>2018-04-08T09:30:03Z</time>
      </trkpt>
      <trkpt lat="40.462350" lon="0.185016">
        <ele>312.022</ele>
        <time>2018-04-08T09:30:13Z</time>
      </trkpt>
      <trkpt lat="40.462528" lon="0.184690">
        <ele>312.008</ele>
        <time>2018-04-08T09:30:19Z</time>
      </trkpt>
      <trkpt lat="40.462601" lon="0.184589">
        <ele>313.082</ele>
        <time>2018-04-08T09:30:21Z</time>
      </trkpt>
      <trkpt lat="40.462634" lon="0.184544">
        <ele>313.019</ele>
        <time>2018-04-08T09:30:22Z</time>
      </trkpt>
      <trkpt lat="40.462696" lon="0.184450">
        <ele>314.053</ele>
        <time>2018-04-08T09:30:24Z</time>
      </trkpt>
      <trkpt lat="40.462957" lon="0.184139">
        <ele>315.971</ele>
        <time>2018-04-08T09:30:32Z</time>
      </trkpt>
      <trkpt lat="40.463246" lon="0.183725">
        <ele>316.849</ele>
        <time>2018-04-08T09:30:41Z</time>
      </trkpt>
      <trkpt lat="40.463563" lon="0.183270">
        <ele>317.382</ele>
        <time>2018-04-08T09:30:51Z</time>
      </trkpt>
      <trkpt lat="40.463856" lon="0.182815">
        <ele>318.829</ele>
        <time>2018-04-08T09:31:01Z</time>
      </trkpt>
      <trkpt lat="40.463886" lon="0.182770">
        <ele>318.816</ele>
        <time>2018-04-08T09:31:02Z</time>
      </trkpt>
      <trkpt lat="40.463916" lon="0.182721">
        <ele>318.871</ele>
        <time>2018-04-08T09:31:03Z</time>
      </trkpt>
      <trkpt lat="40.464183" lon="0.182253">
        <ele>320.241</ele>
        <time>2018-04-08T09:31:13Z</time>
      </trkpt>
      <trkpt lat="40.464298" lon="0.182082">
        <ele>320.215</ele>
        <time>2018-04-08T09:31:17Z</time>
      </trkpt>
      <trkpt lat="40.464527" lon="0.181713">
        <ele>320.708</ele>
        <time>2018-04-08T09:31:25Z</time>
      </trkpt>
      <trkpt lat="40.464748" lon="0.181337">
        <ele>321.710</ele>
        <time>2018-04-08T09:31:34Z</time>
      </trkpt>
      <trkpt lat="40.464796" lon="0.181276">
        <ele>321.737</ele>
        <time>2018-04-08T09:31:39Z</time>
      </trkpt>
      <trkpt lat="40.464931" lon="0.181007">
        <ele>322.571</ele>
        <time>2018-11-11T12:05:40Z</time>
      </trkpt>
      <trkpt lat="40.465047" lon="0.180720">
        <ele>322.989</ele>
        <time>2018-11-11T12:06:00Z</time>
      </trkpt>
      <trkpt lat="40.465119" lon="0.180421">
        <ele>323.017</ele>
        <time>2018-11-11T12:06:20Z</time>
      </trkpt>
      <trkpt lat="40.465290" lon="0.179934">
        <ele>323.680</ele>
        <time>2018-11-11T12:06:40Z</time>
      </trkpt>
      <trkpt lat="40.465453" lon="0.180034">
        <ele>323.217</ele>
        <time>2018-11-11T12:07:00Z</time>
      </trkpt>
      <trkpt lat="40.465623" lon="0.180211">
        <ele>323.034</ele>
        <time>2018-11-11T12:07:20Z</time>
      </trkpt>
      <trkpt lat="40.465701" lon="0.180100">
        <ele>323.049</ele>
        <time>2018-11-11T12:07:40Z</time>
      </trkpt>
      <trkpt lat="40.465796" lon="0.179950">
        <ele>322.602</ele>
        <time>2018-11-11T12:08:00Z</time>
      </trkpt>
      <trkpt lat="40.466022" lon="0.179700">
        <ele>321.822</ele>
        <time>2018-11-11T12:08:20Z</time>
      </trkpt>
      <trkpt lat="40.465344" lon="0.179819">
        <ele>328.645</ele>
        <time>2018-01-16T20:59:23Z</time>
      </trkpt>
      <trkpt lat="40.464956" lon="0.180861">
        <ele>327.647</ele>
        <time>2018-01-16T20:59:43Z</time>
      </trkpt>
      <trkpt lat="40.464781" lon="0.181231">
        <ele>327.011</ele>
        <time>2018-01-16T21:00:03Z</time>
      </trkpt>
      <trkpt lat="40.464327" lon="0.181983">
        <ele>323.908</ele>
        <time>2018-01-16T21:00:23Z</time>
      </trkpt>
      <trkpt lat="40.463242" lon="0.183549">
        <ele>318.677</ele>
        <time>2018-01-16T21:00:43Z</time>
      </trkpt>
      <trkpt lat="40.462801" lon="0.184268">
        <ele>316.784</ele>
        <time>2018-01-16T21:01:03Z</time>
      </trkpt>
      <trkpt lat="40.462205" lon="0.185255">
        <ele>312.138</ele>
        <time>2018-01-16T21:01:23Z</time>
      </trkpt>
      <trkpt lat="40.461226" lon="0.186639">
        <ele>309.786</ele>
        <time>2018-01-16T21:01:43Z</time>
      </trkpt>
      <trkpt lat="40.460817" lon="0.187680">
        <ele>310.464</ele>
        <time>2018-01-16T21:02:03Z</time>
      </trkpt>
      <trkpt lat="40.460328" lon="0.189267">
        <ele>309.627</ele>
        <time>2018-01-16T21:02:23Z</time>
      </trkpt>
      <trkpt lat="40.460189" lon="0.189793">
        <ele>308.265</ele>
        <time>2018-01-16T21:02:43Z</time>
      </trkpt>
      <trkpt lat="40.460026" lon="0.190383">
        <ele>307.037</ele>
        <time>2018-01-16T21:03:03Z</time>
      </trkpt>
      <trkpt lat="40.459291" lon="0.191875">
        <ele>303.265</ele>
        <time>2018-01-16T21:03:23Z</time>
      </trkpt>
      <trkpt lat="40.458744" lon="0.193119">
        <ele>303.468</ele>
        <time>2018-01-16T21:03:43Z</time>
      </trkpt>
      <trkpt lat="40.458173" lon="0.194417">
        <ele>301.914</ele>
        <time>2018-01-16T21:04:03Z</time>
      </trkpt>
      <trkpt lat="40.458018" lon="0.194932">
        <ele>302.808</ele>
        <time>2018-01-16T21:04:23Z</time>
      </trkpt>
      <trkpt lat="40.457911" lon="0.195801">
        <ele>298.079</ele>
        <time>2018-01-16T21:04:43Z</time>
      </trkpt>
      <trkpt lat="40.457895" lon="0.196531">
        <ele>303.856</ele>
        <time>2018-01-16T21:05:03Z</time>
      </trkpt>
      <trkpt lat="40.457805" lon="0.197153">
        <ele>305.820</ele>
        <time>2018-01-16T21:05:23Z</time>
      </trkpt>
      <trkpt lat="40.457601" lon="0.197893">
        <ele>307.398</ele>
        <time>2018-01-16T21:05:43Z</time>
      </trkpt>
      <trkpt lat="40.457511" lon="0.198376">
        <ele>309.416</ele>
        <time>2018-01-16T21:06:03Z</time>
      </trkpt>
      <trkpt lat="40.457511" lon="0.198687">
        <ele>312.899</ele>
        <time>2018-01-16T21:06:23Z</time>
      </trkpt>
      <trkpt lat="40.457389" lon="0.199084">
        <ele>317.877</ele>
        <time>2018-01-16T21:06:43Z</time>
      </trkpt>
      <trkpt lat="40.457299" lon="0.199320">
        <ele>321.999</ele>
        <time>2018-01-16T21:07:03Z</time>
      </trkpt>
      <trkpt lat="40.457381" lon="0.199513">
        <ele>324.337</ele>
        <time>2018-01-16T21:07:23Z</time>
      </trkpt>
      <trkpt lat="40.457666" lon="0.199964">
        <ele>329.749</ele>
        <time>2018-01-16T21:07:43Z</time>
      </trkpt>
      <trkpt lat="40.457536" lon="0.199996">
        <ele>330.813</ele>
        <time>2018-01-16T21:08:03Z</time>
      </trkpt>
      <trkpt lat="40.457332" lon="0.199867">
        <ele>331.408</ele>
        <time>2018-01-16T21:08:23Z</time>
      </trkpt>
      <trkpt lat="40.457136" lon="0.199749">
        <ele>331.876</ele>
        <time>2018-01-16T21:08:43Z</time>
      </trkpt>
      <trkpt lat="40.457022" lon="0.199760">
        <ele>332.583</ele>
        <time>2018-01-16T21:09:03Z</time>
      </trkpt>
      <trkpt lat="40.457005" lon="0.199932">
        <ele>336.127</ele>
        <time>2018-01-16T21:09:23Z</time>
      </trkpt>
      <trkpt lat="40.457315" lon="0.200146">
        <ele>337.325</ele>
        <time>2018-01-16T21:09:43Z</time>
      </trkpt>
      <trkpt lat="40.457830" lon="0.200533">
        <ele>341.513</ele>
        <time>2018-01-16T21:10:03Z</time>
      </trkpt>
      <trkpt lat="40.458066" lon="0.200651">
        <ele>339.426</ele>
        <time>2018-01-16T21:10:23Z</time>
      </trkpt>
      <trkpt lat="40.458026" lon="0.200844">
        <ele>343.834</ele>
        <time>2018-01-16T21:10:43Z</time>
      </trkpt>
      <trkpt lat="40.457813" lon="0.200737">
        <ele>346.226</ele>
        <time>2018-01-16T21:11:03Z</time>
      </trkpt>
      <trkpt lat="40.457601" lon="0.200597">
        <ele>346.723</ele>
        <time>2018-01-16T21:11:23Z</time>
      </trkpt>
      <trkpt lat="40.457364" lon="0.200554">
        <ele>348.483</ele>
        <time>2018-01-16T21:11:43Z</time>
      </trkpt>
      <trkpt lat="40.457364" lon="0.200779">
        <ele>356.111</ele>
        <time>2018-01-16T21:12:03Z</time>
      </trkpt>
      <trkpt lat="40.457299" lon="0.200822">
        <ele>358.508</ele>
        <time>2018-01-16T21:12:23Z</time>
      </trkpt>
      <trkpt lat="40.456956" lon="0.200758">
        <ele>361.615</ele>
        <time>2018-01-16T21:12:43Z</time>
      </trkpt>
      <trkpt lat="40.456646" lon="0.200790">
        <ele>361.612</ele>
        <time>2018-01-16T21:13:03Z</time>
      </trkpt>
      <trkpt lat="40.456711" lon="0.200857">
        <ele>365.126</ele>
        <time>2018-01-16T21:13:23Z</time>
      </trkpt>
      <trkpt lat="40.456813" lon="0.200927">
        <ele>368.834</ele>
        <time>2018-01-16T21:13:43Z</time>
      </trkpt>
      <trkpt lat="40.456958" lon="0.201029">
        <ele>374.462</ele>
        <time>2018-01-16T21:14:03Z</time>
      </trkpt>
      <trkpt lat="40.457038" lon="0.201104">
        <ele>375.345</ele>
        <time>2018-01-16T21:14:23Z</time>
      </trkpt>
      <trkpt lat="40.456997" lon="0.201163">
        <ele>378.393</ele>
        <time>2018-01-16T21:14:43Z</time>
      </trkpt>
      <trkpt lat="40.456820" lon="0.201195">
        <ele>379.735</ele>
        <time>2018-01-16T21:15:03Z</time>
      </trkpt>
      <trkpt lat="40.456595" lon="0.201260">
        <ele>376.343</ele>
        <time>2018-01-16T21:15:23Z</time>
      </trkpt>
      <trkpt lat="40.456491" lon="0.201410">
        <ele>374.764</ele>
        <time>2018-01-16T21:15:43Z</time>
      </trkpt>
      <trkpt lat="40.456450" lon="0.201539">
        <ele>375.110</ele>
        <time>2018-01-16T21:16:03Z</time>
      </trkpt>
      <trkpt lat="40.456401" lon="0.201699">
        <ele>375.408</ele>
        <time>2018-01-16T21:16:23Z</time>
      </trkpt>
      <trkpt lat="40.456346" lon="0.201863">
        <ele>375.897</ele>
        <time>2018-01-16T21:16:43Z</time>
      </trkpt>
      <trkpt lat="40.456307" lon="0.202043">
        <ele>377.824</ele>
        <time>2018-01-16T21:17:03Z</time>
      </trkpt>
      <trkpt lat="40.456279" lon="0.202222">
        <ele>380.218</ele>
        <time>2018-01-16T21:17:23Z</time>
      </trkpt>
      <trkpt lat="40.456250" lon="0.202467">
        <ele>384.396</ele>
        <time>2018-01-16T21:17:43Z</time>
      </trkpt>
      <trkpt lat="40.456185" lon="0.202689">
        <ele>385.634</ele>
        <time>2018-01-16T21:18:03Z</time>
      </trkpt>
      <trkpt lat="40.455973" lon="0.203092">
        <ele>384.087</ele>
        <time>2018-01-16T21:18:23Z</time>
      </trkpt>
      <trkpt lat="40.455846" lon="0.203295">
        <ele>384.435</ele>
        <time>2018-01-16T21:18:43Z</time>
      </trkpt>
      <trkpt lat="40.455768" lon="0.203553">
        <ele>387.267</ele>
        <time>2018-01-16T21:19:03Z</time>
      </trkpt>
      <trkpt lat="40.455605" lon="0.203676">
        <ele>383.347</ele>
        <time>2018-01-16T21:19:23Z</time>
      </trkpt>
      <trkpt lat="40.455503" lon="0.203885">
        <ele>385.529</ele>
        <time>2018-01-16T21:19:43Z</time>
      </trkpt>
      <trkpt lat="40.455364" lon="0.204438">
        <ele>391.521</ele>
        <time>2018-01-16T21:20:03Z</time>
      </trkpt>
      <trkpt lat="40.455070" lon="0.204958">
        <ele>394.008</ele>
        <time>2018-01-16T21:20:23Z</time>
      </trkpt>
      <trkpt lat="40.454626" lon="0.205463">
        <ele>397.927</ele>
        <time>2018-01-16T21:20:43Z</time>
      </trkpt>
      <trkpt lat="40.454291" lon="0.206004">
        <ele>401.754</ele>
        <time>2018-01-16T21:21:03Z</time>
      </trkpt>
      <trkpt lat="40.453977" lon="0.206423">
        <ele>403.758</ele>
        <time>2018-01-16T21:21:23Z</time>
      </trkpt>
      <trkpt lat="40.453413" lon="0.207217">
        <ele>404.326</ele>
        <time>2018-01-16T21:21:43Z</time>
      </trkpt>
      <trkpt lat="40.452907" lon="0.207109">
        <ele>408.854</ele>
        <time>2018-01-16T21:22:03Z</time>
      </trkpt>
      <trkpt lat="40.452785" lon="0.207292">
        <ele>409.447</ele>
        <time>2018-01-16T21:22:23Z</time>
      </trkpt>
      <trkpt lat="40.452646" lon="0.207453">
        <ele>410.255</ele>
        <time>2018-01-16T21:22:43Z</time>
      </trkpt>
      <trkpt lat="40.452409" lon="0.207431">
        <ele>414.057</ele>
        <time>2018-01-16T21:23:03Z</time>
      </trkpt>
      <trkpt lat="40.452123" lon="0.207270">
        <ele>417.297</ele>
        <time>2018-01-16T21:23:23Z</time>
      </trkpt>
      <trkpt lat="40.451927" lon="0.207313">
        <ele>417.223</ele>
        <time>2018-01-16T21:23:43Z</time>
      </trkpt>
      <trkpt lat="40.451519" lon="0.207308">
        <ele>416.125</ele>
        <time>2018-01-16T21:24:03Z</time>
      </trkpt>
      <trkpt lat="40.451193" lon="0.207190">
        <ele>421.508</ele>
        <time>2018-01-16T21:24:23Z</time>
      </trkpt>
      <trkpt lat="40.450919" lon="0.207136">
        <ele>423.892</ele>
        <time>2018-01-16T21:24:43Z</time>
      </trkpt>
      <trkpt lat="40.450658" lon="0.207163">
        <ele>424.389</ele>
        <time>2018-01-16T21:25:03Z</time>
      </trkpt>
      <trkpt lat="40.450384" lon="0.207217">
        <ele>424.133</ele>
        <time>2018-01-16T21:25:23Z</time>
      </trkpt>
      <trkpt lat="40.450131" lon="0.207351">
        <ele>420.871</ele>
        <time>2018-01-16T21:25:43Z</time>
      </trkpt>
      <trkpt lat="40.449960" lon="0.207404">
        <ele>417.969</ele>
        <time>2018-01-16T21:26:03Z</time>
      </trkpt>
      <trkpt lat="40.449801" lon="0.207335">
        <ele>416.962</ele>
        <time>2018-01-16T21:26:23Z</time>
      </trkpt>
      <trkpt lat="40.449678" lon="0.207254">
        <ele>417.780</ele>
        <time>2018-01-16T21:26:43Z</time>
      </trkpt>
      <trkpt lat="40.449556" lon="0.207227">
        <ele>419.152</ele>
        <time>2018-01-16T21:27:03Z</time>
      </trkpt>
      <trkpt lat="40.449368" lon="0.207388">
        <ele>418.179</ele>
        <time>2018-01-16T21:27:23Z</time>
      </trkpt>
      <trkpt lat="40.449200" lon="0.207614">
        <ele>418.205</ele>
        <time>2018-01-16T21:27:43Z</time>
      </trkpt>
      <trkpt lat="40.449058" lon="0.207796">
        <ele>418.425</ele>
        <time>2018-01-16T21:28:03Z</time>
      </trkpt>
      <trkpt lat="40.448805" lon="0.208011">
        <ele>419.408</ele>
        <time>2018-01-16T21:28:23Z</time>
      </trkpt>
      <trkpt lat="40.448507" lon="0.208172">
        <ele>419.880</ele>
        <time>2018-01-16T21:28:43Z</time>
      </trkpt>
      <trkpt lat="40.448094" lon="0.208215">
        <ele>420.917</ele>
        <time>2018-01-16T21:29:03Z</time>
      </trkpt>
      <trkpt lat="40.447759" lon="0.208263">
        <ele>422.691</ele>
        <time>2018-01-16T21:29:23Z</time>
      </trkpt>
      <trkpt lat="40.447523" lon="0.208440">
        <ele>420.219</ele>
        <time>2018-01-16T21:29:43Z</time>
      </trkpt>
      <trkpt lat="40.447237" lon="0.208493">
        <ele>424.237</ele>
        <time>2018-01-16T21:30:03Z</time>
      </trkpt>
      <trkpt lat="40.447135" lon="0.208730">
        <ele>421.160</ele>
        <time>2018-01-16T21:30:23Z</time>
      </trkpt>
      <trkpt lat="40.446972" lon="0.208987">
        <ele>419.558</ele>
        <time>2018-01-16T21:30:43Z</time>
      </trkpt>
      <trkpt lat="40.446727" lon="0.209073">
        <ele>419.090</ele>
        <time>2018-01-16T21:31:03Z</time>
      </trkpt>
      <trkpt lat="40.446518" lon="0.209073">
        <ele>419.698</ele>
        <time>2018-01-16T21:31:23Z</time>
      </trkpt>
      <trkpt lat="40.446396" lon="0.208982">
        <ele>422.015</ele>
        <time>2018-01-16T21:31:43Z</time>
      </trkpt>
      <trkpt lat="40.446241" lon="0.208907">
        <ele>425.826</ele>
        <time>2018-01-16T21:32:03Z</time>
      </trkpt>
      <trkpt lat="40.446139" lon="0.208821">
        <ele>429.508</ele>
        <time>2018-01-16T21:32:23Z</time>
      </trkpt>
      <trkpt lat="40.446037" lon="0.208826">
        <ele>431.452</ele>
        <time>2018-01-16T21:32:43Z</time>
      </trkpt>
      <trkpt lat="40.446016" lon="0.208982">
        <ele>428.489</ele>
        <time>2018-01-16T21:33:03Z</time>
      </trkpt>
      <trkpt lat="40.446065" lon="0.209234">
        <ele>423.563</ele>
        <time>2018-01-16T21:33:23Z</time>
      </trkpt>
      <trkpt lat="40.446106" lon="0.209615">
        <ele>421.191</ele>
        <time>2018-01-16T21:33:43Z</time>
      </trkpt>
      <trkpt lat="40.446155" lon="0.209808">
        <ele>419.449</ele>
        <time>2018-01-16T21:34:03Z</time>
      </trkpt>
      <trkpt lat="40.446078" lon="0.209920">
        <ele>419.822</ele>
        <time>2018-01-16T21:34:23Z</time>
      </trkpt>
      <trkpt lat="40.445963" lon="0.209996">
        <ele>420.140</ele>
        <time>2018-01-16T21:34:43Z</time>
      </trkpt>
      <trkpt lat="40.445751" lon="0.209985">
        <ele>420.642</ele>
        <time>2018-01-16T21:35:03Z</time>
      </trkpt>
      <trkpt lat="40.445579" lon="0.209867">
        <ele>421.018</ele>
        <time>2018-01-16T21:35:23Z</time>
      </trkpt>
      <trkpt lat="40.445441" lon="0.209743">
        <ele>421.498</ele>
        <time>2018-01-16T21:35:43Z</time>
      </trkpt>
      <trkpt lat="40.445290" lon="0.209647">
        <ele>421.517</ele>
        <time>2018-01-16T21:36:03Z</time>
      </trkpt>
      <trkpt lat="40.445147" lon="0.209663">
        <ele>420.308</ele>
        <time>2018-01-16T21:36:23Z</time>
      </trkpt>
      <trkpt lat="40.445004" lon="0.209802">
        <ele>416.384</ele>
        <time>2018-01-16T21:36:43Z</time>
      </trkpt>
      <trkpt lat="40.444714" lon="0.210307">
        <ele>414.931</ele>
        <time>2018-01-16T21:37:03Z</time>
      </trkpt>
      <trkpt lat="40.444498" lon="0.210698">
        <ele>415.545</ele>
        <time>2018-01-16T21:37:23Z</time>
      </trkpt>
      <trkpt lat="40.444351" lon="0.210918">
        <ele>414.723</ele>
        <time>2018-01-16T21:37:43Z</time>
      </trkpt>
      <trkpt lat="40.444191" lon="0.211058">
        <ele>413.871</ele>
        <time>2018-01-16T21:38:03Z</time>
      </trkpt>
      <trkpt lat="40.444032" lon="0.211058">
        <ele>413.364</ele>
        <time>2018-01-16T21:38:23Z</time>
      </trkpt>
      <trkpt lat="40.443902" lon="0.210907">
        <ele>414.332</ele>
        <time>2018-01-16T21:38:43Z</time>
      </trkpt>
      <trkpt lat="40.443832" lon="0.210741">
        <ele>414.824</ele>
        <time>2018-01-16T21:39:03Z</time>
      </trkpt>
      <trkpt lat="40.443771" lon="0.210602">
        <ele>414.627</ele>
        <time>2018-01-16T21:39:23Z</time>
      </trkpt>
      <trkpt lat="40.443710" lon="0.210655">
        <ele>413.368</ele>
        <time>2018-01-16T21:39:43Z</time>
      </trkpt>
      <trkpt lat="40.443702" lon="0.210875">
        <ele>411.714</ele>
        <time>2018-01-16T21:40:03Z</time>
      </trkpt>
      <trkpt lat="40.443702" lon="0.211363">
        <ele>404.908</ele>
        <time>2018-01-16T21:40:23Z</time>
      </trkpt>
      <trkpt lat="40.443710" lon="0.211701">
        <ele>403.245</ele>
        <time>2018-01-16T21:40:43Z</time>
      </trkpt>
      <trkpt lat="40.443673" lon="0.211895">
        <ele>402.272</ele>
        <time>2018-01-16T21:41:03Z</time>
      </trkpt>
      <trkpt lat="40.443567" lon="0.211857">
        <ele>401.416</ele>
        <time>2018-01-16T21:41:23Z</time>
      </trkpt>
      <trkpt lat="40.443510" lon="0.211723">
        <ele>400.564</ele>
        <time>2018-01-16T21:41:43Z</time>
      </trkpt>
      <trkpt lat="40.443310" lon="0.211514">
        <ele>399.062</ele>
        <time>2018-01-16T21:42:03Z</time>
      </trkpt>
      <trkpt lat="40.443228" lon="0.211476">
        <ele>398.955</ele>
        <time>2018-01-16T21:42:23Z</time>
      </trkpt>
      <trkpt lat="40.443122" lon="0.211412">
        <ele>399.083</ele>
        <time>2018-01-16T21:42:43Z</time>
      </trkpt>
      <trkpt lat="40.442926" lon="0.211385">
        <ele>400.035</ele>
        <time>2018-01-16T21:43:03Z</time>
      </trkpt>
      <trkpt lat="40.442763" lon="0.211412">
        <ele>400.746</ele>
        <time>2018-01-16T21:43:23Z</time>
      </trkpt>
      <trkpt lat="40.442595" lon="0.211503">
        <ele>399.788</ele>
        <time>2018-01-16T21:43:43Z</time>
      </trkpt>
      <trkpt lat="40.442489" lon="0.211514">
        <ele>399.616</ele>
        <time>2018-01-16T21:44:03Z</time>
      </trkpt>
      <trkpt lat="40.442415" lon="0.211476">
        <ele>399.108</ele>
        <time>2018-01-16T21:44:23Z</time>
      </trkpt>
      <trkpt lat="40.442285" lon="0.211353">
        <ele>399.757</ele>
        <time>2018-01-16T21:44:43Z</time>
      </trkpt>
      <trkpt lat="40.442089" lon="0.211165">
        <ele>401.614</ele>
        <time>2018-01-16T21:45:03Z</time>
      </trkpt>
      <trkpt lat="40.441934" lon="0.211106">
        <ele>401.168</ele>
        <time>2018-01-16T21:45:23Z</time>
      </trkpt>
      <trkpt lat="40.441705" lon="0.211009">
        <ele>401.966</ele>
        <time>2018-01-16T21:45:43Z</time>
      </trkpt>
      <trkpt lat="40.441444" lon="0.210961">
        <ele>402.444</ele>
        <time>2018-01-16T21:46:03Z</time>
      </trkpt>
      <trkpt lat="40.441232" lon="0.210913">
        <ele>403.417</ele>
        <time>2018-01-16T21:46:23Z</time>
      </trkpt>
      <trkpt lat="40.441031" lon="0.210881">
        <ele>403.775</ele>
        <time>2018-01-16T21:46:43Z</time>
      </trkpt>
      <trkpt lat="40.440876" lon="0.210822">
        <ele>403.547</ele>
        <time>2018-01-16T21:47:03Z</time>
      </trkpt>
      <trkpt lat="40.440742" lon="0.210693">
        <ele>404.455</ele>
        <time>2018-01-16T21:47:23Z</time>
      </trkpt>
      <trkpt lat="40.440611" lon="0.210548">
        <ele>405.007</ele>
        <time>2018-01-16T21:47:43Z</time>
      </trkpt>
      <trkpt lat="40.440480" lon="0.210462">
        <ele>406.017</ele>
        <time>2018-01-16T21:48:03Z</time>
      </trkpt>
      <trkpt lat="40.440390" lon="0.210414">
        <ele>406.708</ele>
        <time>2018-01-16T21:48:23Z</time>
      </trkpt>
      <trkpt lat="40.440256" lon="0.210301">
        <ele>408.498</ele>
        <time>2018-01-16T21:48:43Z</time>
      </trkpt>
      <trkpt lat="40.440084" lon="0.210221">
        <ele>408.255</ele>
        <time>2018-01-16T21:49:03Z</time>
      </trkpt>
      <trkpt lat="40.439888" lon="0.210146">
        <ele>407.219</ele>
        <time>2018-01-16T21:49:23Z</time>
      </trkpt>
      <trkpt lat="40.439831" lon="0.210055">
        <ele>407.617</ele>
        <time>2018-01-16T21:49:43Z</time>
      </trkpt>
      <trkpt lat="40.439856" lon="0.209936">
        <ele>409.325</ele>
        <time>2018-01-16T21:50:03Z</time>
      </trkpt>
      <trkpt lat="40.439962" lon="0.209765">
        <ele>411.648</ele>
        <time>2018-01-16T21:50:23Z</time>
      </trkpt>
      <trkpt lat="40.439974" lon="0.209577">
        <ele>412.146</ele>
        <time>2018-01-16T21:50:43Z</time>
      </trkpt>
      <trkpt lat="40.439970" lon="0.209341">
        <ele>412.768</ele>
        <time>2018-01-16T21:51:03Z</time>
      </trkpt>
      <trkpt lat="40.439913" lon="0.208960">
        <ele>415.731</ele>
        <time>2018-01-16T21:51:23Z</time>
      </trkpt>
      <trkpt lat="40.439933" lon="0.208434">
        <ele>419.361</ele>
        <time>2018-01-16T21:51:43Z</time>
      </trkpt>
      <trkpt lat="40.440080" lon="0.207807">
        <ele>423.207</ele>
        <time>2018-01-16T21:52:03Z</time>
      </trkpt>
      <trkpt lat="40.440203" lon="0.207185">
        <ele>426.008</ele>
        <time>2018-01-16T21:52:23Z</time>
      </trkpt>
      <trkpt lat="40.440390" lon="0.206552">
        <ele>431.626</ele>
        <time>2018-01-16T21:52:43Z</time>
      </trkpt>
      <trkpt lat="40.440529" lon="0.206112">
        <ele>432.193</ele>
        <time>2018-01-16T21:53:03Z</time>
      </trkpt>
      <trkpt lat="40.440619" lon="0.205693">
        <ele>437.997</ele>
        <time>2018-01-16T21:53:23Z</time>
      </trkpt>
      <trkpt lat="40.440627" lon="0.205436">
        <ele>441.025</ele>
        <time>2018-01-16T21:53:43Z</time>
      </trkpt>
      <trkpt lat="40.440488" lon="0.205382">
        <ele>441.713</ele>
        <time>2018-01-16T21:54:03Z</time>
      </trkpt>
      <trkpt lat="40.440301" lon="0.205607">
        <ele>441.436</ele>
        <time>2018-01-16T21:54:23Z</time>
      </trkpt>
      <trkpt lat="40.440154" lon="0.205961">
        <ele>439.164</ele>
        <time>2018-01-16T21:54:43Z</time>
      </trkpt>
      <trkpt lat="40.439982" lon="0.206444">
        <ele>439.036</ele>
        <time>2018-01-16T21:55:03Z</time>
      </trkpt>
      <trkpt lat="40.439778" lon="0.206831">
        <ele>440.516</ele>
        <time>2018-01-16T21:55:23Z</time>
      </trkpt>
      <trkpt lat="40.439443" lon="0.207131">
        <ele>447.776</ele>
        <time>2018-01-16T21:55:43Z</time>
      </trkpt>
      <trkpt lat="40.439141" lon="0.207335">
        <ele>449.813</ele>
        <time>2018-01-16T21:56:03Z</time>
      </trkpt>
      <trkpt lat="40.438847" lon="0.207549">
        <ele>450.308</ele>
        <time>2018-01-16T21:56:23Z</time>
      </trkpt>
      <trkpt lat="40.438537" lon="0.207764">
        <ele>451.874</ele>
        <time>2018-01-16T21:56:43Z</time>
      </trkpt>
      <trkpt lat="40.438251" lon="0.207667">
        <ele>454.991</ele>
        <time>2018-01-16T21:57:03Z</time>
      </trkpt>
      <trkpt lat="40.437737" lon="0.207313">
        <ele>458.765</ele>
        <time>2018-01-16T21:57:23Z</time>
      </trkpt>
      <trkpt lat="40.437336" lon="0.206873">
        <ele>462.163</ele>
        <time>2018-01-16T21:57:43Z</time>
      </trkpt>
      <trkpt lat="40.437271" lon="0.206476">
        <ele>467.451</ele>
        <time>2018-01-16T21:58:03Z</time>
      </trkpt>
      <trkpt lat="40.437271" lon="0.206251">
        <ele>473.044</ele>
        <time>2018-01-16T21:58:23Z</time>
      </trkpt>
      <trkpt lat="40.437124" lon="0.205961">
        <ele>476.232</ele>
        <time>2018-01-16T21:58:43Z</time>
      </trkpt>
      <trkpt lat="40.436994" lon="0.205543">
        <ele>478.484</ele>
        <time>2018-01-16T21:59:03Z</time>
      </trkpt>
      <trkpt lat="40.436928" lon="0.205028">
        <ele>485.869</ele>
        <time>2018-01-16T21:59:23Z</time>
      </trkpt>
      <trkpt lat="40.436798" lon="0.204567">
        <ele>491.904</ele>
        <time>2018-01-16T21:59:43Z</time>
      </trkpt>
      <trkpt lat="40.436495" lon="0.204427">
        <ele>491.924</ele>
        <time>2018-01-16T22:00:03Z</time>
      </trkpt>
      <trkpt lat="40.435932" lon="0.204449">
        <ele>497.108</ele>
        <time>2018-01-16T22:00:23Z</time>
      </trkpt>
      <trkpt lat="40.435581" lon="0.204588">
        <ele>494.619</ele>
        <time>2018-01-16T22:00:43Z</time>
      </trkpt>
      <trkpt lat="40.435319" lon="0.204685">
        <ele>497.766</ele>
        <time>2018-01-16T22:01:03Z</time>
      </trkpt>
      <trkpt lat="40.435140" lon="0.204964">
        <ele>496.250</ele>
        <time>2018-01-16T22:01:23Z</time>
      </trkpt>
      <trkpt lat="40.435017" lon="0.205307">
        <ele>491.368</ele>
        <time>2018-01-16T22:01:43Z</time>
      </trkpt>
      <trkpt lat="40.434772" lon="0.205436">
        <ele>492.856</ele>
        <time>2018-01-16T22:02:03Z</time>
      </trkpt>
      <trkpt lat="40.434634" lon="0.205790">
        <ele>490.559</ele>
        <time>2018-01-16T22:02:23Z</time>
      </trkpt>
      <trkpt lat="40.434356" lon="0.206198">
        <ele>492.247</ele>
        <time>2018-01-16T22:02:43Z</time>
      </trkpt>
      <trkpt lat="40.434103" lon="0.206444">
        <ele>495.929</ele>
        <time>2018-01-16T22:03:03Z</time>
      </trkpt>
      <trkpt lat="40.433605" lon="0.206702">
        <ele>509.663</ele>
        <time>2018-01-16T22:03:23Z</time>
      </trkpt>
      <trkpt lat="40.433417" lon="0.207024">
        <ele>510.744</ele>
        <time>2018-01-16T22:03:43Z</time>
      </trkpt>
      <trkpt lat="40.433196" lon="0.207431">
        <ele>511.918</ele>
        <time>2018-01-16T22:04:03Z</time>
      </trkpt>
      <trkpt lat="40.433066" lon="0.207506">
        <ele>512.008</ele>
        <time>2018-01-16T22:04:23Z</time>
      </trkpt>
      <trkpt lat="40.432861" lon="0.207388">
        <ele>509.269</ele>
        <time>2018-01-16T22:04:43Z</time>
      </trkpt>
      <trkpt lat="40.432625" lon="0.207034">
        <ele>511.456</ele>
        <time>2018-01-16T22:05:03Z</time>
      </trkpt>
      <trkpt lat="40.432175" lon="0.206090">
        <ele>521.840</ele>
        <time>2018-01-16T22:05:23Z</time>
      </trkpt>
      <trkpt lat="40.431947" lon="0.205457">
        <ele>524.958</ele>
        <time>2018-01-16T22:05:43Z</time>
      </trkpt>
      <trkpt lat="40.431873" lon="0.204610">
        <ele>535.716</ele>
        <time>2018-01-16T22:06:03Z</time>
      </trkpt>
      <trkpt lat="40.431832" lon="0.204105">
        <ele>538.849</ele>
        <time>2018-01-16T22:06:23Z</time>
      </trkpt>
      <trkpt lat="40.432028" lon="0.203848">
        <ele>544.567</ele>
        <time>2018-01-16T22:06:43Z</time>
      </trkpt>
      <trkpt lat="40.431963" lon="0.203537">
        <ele>541.289</ele>
        <time>2018-01-16T22:07:03Z</time>
      </trkpt>
      <trkpt lat="40.431890" lon="0.203108">
        <ele>539.186</ele>
        <time>2018-01-16T22:07:23Z</time>
      </trkpt>
      <trkpt lat="40.431971" lon="0.202689">
        <ele>542.260</ele>
        <time>2018-01-16T22:07:43Z</time>
      </trkpt>
      <trkpt lat="40.432086" lon="0.202110">
        <ele>542.826</ele>
        <time>2018-01-16T22:08:03Z</time>
      </trkpt>
      <trkpt lat="40.432314" lon="0.201337">
        <ele>547.008</ele>
        <time>2018-01-16T22:08:23Z</time>
      </trkpt>
      <trkpt lat="40.432257" lon="0.201112">
        <ele>544.671</ele>
        <time>2018-01-16T22:08:43Z</time>
      </trkpt>
      <trkpt lat="40.432151" lon="0.200779">
        <ele>543.458</ele>
        <time>2018-01-16T22:09:03Z</time>
      </trkpt>
      <trkpt lat="40.432053" lon="0.200554">
        <ele>543.682</ele>
        <time>2018-01-16T22:09:23Z</time>
      </trkpt>
      <trkpt lat="40.431800" lon="0.200136">
        <ele>542.510</ele>
        <time>2018-01-16T22:09:43Z</time>
      </trkpt>
      <trkpt lat="40.431530" lon="0.199792">
        <ele>541.668</ele>
        <time>2018-01-16T22:10:03Z</time>
      </trkpt>
      <trkpt lat="40.431334" lon="0.199717">
        <ele>542.121</ele>
        <time>2018-01-16T22:10:23Z</time>
      </trkpt>
      <trkpt lat="40.431057" lon="0.199717">
        <ele>543.269</ele>
        <time>2018-01-16T22:10:43Z</time>
      </trkpt>
      <trkpt lat="40.430877" lon="0.199825">
        <ele>543.451</ele>
        <time>2018-01-16T22:11:03Z</time>
      </trkpt>
      <trkpt lat="40.430460" lon="0.200104">
        <ele>546.999</ele>
        <time>2018-01-16T22:11:23Z</time>
      </trkpt>
      <trkpt lat="40.429815" lon="0.200500">
        <ele>553.007</ele>
        <time>2018-01-16T22:11:43Z</time>
      </trkpt>
      <trkpt lat="40.429521" lon="0.200479">
        <ele>554.327</ele>
        <time>2018-01-16T22:12:03Z</time>
      </trkpt>
      <trkpt lat="40.429023" lon="0.200361">
        <ele>556.608</ele>
        <time>2018-01-16T22:12:23Z</time>
      </trkpt>
      <trkpt lat="40.428672" lon="0.200297">
        <ele>556.762</ele>
        <time>2018-01-16T22:12:43Z</time>
      </trkpt>
      <trkpt lat="40.428198" lon="0.200179">
        <ele>556.759</ele>
        <time>2018-01-16T22:13:03Z</time>
      </trkpt>
      <trkpt lat="40.427896" lon="0.199986">
        <ele>555.813</ele>
        <time>2018-01-16T22:13:23Z</time>
      </trkpt>
      <trkpt lat="40.427455" lon="0.199996">
        <ele>554.191</ele>
        <time>2018-01-16T22:13:43Z</time>
      </trkpt>
      <trkpt lat="40.427226" lon="0.200543">
        <ele>554.919</ele>
        <time>2018-01-16T22:14:03Z</time>
      </trkpt>
      <trkpt lat="40.427120" lon="0.200994">
        <ele>556.632</ele>
        <time>2018-01-16T22:14:23Z</time>
      </trkpt>
      <trkpt lat="40.427039" lon="0.201541">
        <ele>554.310</ele>
        <time>2018-01-16T22:14:43Z</time>
      </trkpt>
      <trkpt lat="40.427014" lon="0.201970">
        <ele>550.412</ele>
        <time>2018-01-16T22:15:03Z</time>
      </trkpt>
      <trkpt lat="40.427014" lon="0.202582">
        <ele>546.768</ele>
        <time>2018-01-16T22:15:23Z</time>
      </trkpt>
      <trkpt lat="40.427537" lon="0.202636">
        <ele>545.042</ele>
        <time>2018-01-16T22:15:43Z</time>
      </trkpt>
      <trkpt lat="40.427994" lon="0.202786">
        <ele>537.426</ele>
        <time>2018-01-16T22:16:03Z</time>
      </trkpt>
      <trkpt lat="40.428133" lon="0.203054">
        <ele>536.408</ele>
        <time>2018-01-16T22:16:23Z</time>
      </trkpt>
      <trkpt lat="40.428296" lon="0.203547">
        <ele>531.089</ele>
        <time>2018-01-16T22:16:43Z</time>
      </trkpt>
      <trkpt lat="40.428255" lon="0.203848">
        <ele>531.016</ele>
        <time>2018-01-16T22:17:03Z</time>
      </trkpt>
      <trkpt lat="40.428141" lon="0.204084">
        <ele>529.290</ele>
        <time>2018-01-16T22:17:23Z</time>
      </trkpt>
      <trkpt lat="40.427994" lon="0.204309">
        <ele>526.548</ele>
        <time>2018-01-16T22:17:43Z</time>
      </trkpt>
      <trkpt lat="40.427757" lon="0.204417">
        <ele>528.256</ele>
        <time>2018-01-16T22:18:03Z</time>
      </trkpt>
      <trkpt lat="40.427578" lon="0.204524">
        <ele>531.079</ele>
        <time>2018-01-16T22:18:23Z</time>
      </trkpt>
      <trkpt lat="40.427512" lon="0.204824">
        <ele>528.887</ele>
        <time>2018-01-16T22:18:43Z</time>
      </trkpt>
      <trkpt lat="40.427520" lon="0.205168">
        <ele>522.339</ele>
        <time>2018-01-16T22:19:03Z</time>
      </trkpt>
      <trkpt lat="40.427439" lon="0.205446">
        <ele>519.781</ele>
        <time>2018-01-16T22:19:23Z</time>
      </trkpt>
      <trkpt lat="40.427169" lon="0.205736">
        <ele>518.961</ele>
        <time>2018-01-16T22:19:43Z</time>
      </trkpt>
      <trkpt lat="40.426924" lon="0.205897">
        <ele>518.917</ele>
        <time>2018-01-16T22:20:03Z</time>
      </trkpt>
      <trkpt lat="40.426777" lon="0.206079">
        <ele>517.508</ele>
        <time>2018-01-16T22:20:23Z</time>
      </trkpt>
      <trkpt lat="40.426704" lon="0.206455">
        <ele>514.621</ele>
        <time>2018-01-16T22:20:43Z</time>
      </trkpt>
      <trkpt lat="40.426630" lon="0.206895">
        <ele>512.618</ele>
        <time>2018-01-16T22:21:03Z</time>
      </trkpt>
      <trkpt lat="40.426540" lon="0.207152">
        <ele>508.072</ele>
        <time>2018-01-16T22:21:23Z</time>
      </trkpt>
      <trkpt lat="40.426312" lon="0.207324">
        <ele>506.570</ele>
        <time>2018-01-16T22:21:43Z</time>
      </trkpt>
      <trkpt lat="40.425960" lon="0.207088">
        <ele>508.968</ele>
        <time>2018-01-16T22:22:03Z</time>
      </trkpt>
      <trkpt lat="40.425617" lon="0.206788">
        <ele>509.491</ele>
        <time>2018-01-16T22:22:23Z</time>
      </trkpt>
      <trkpt lat="40.425234" lon="0.206541">
        <ele>506.189</ele>
        <time>2018-01-16T22:22:43Z</time>
      </trkpt>
      <trkpt lat="40.425029" lon="0.206273">
        <ele>503.341</ele>
        <time>2018-01-16T22:23:03Z</time>
      </trkpt>
      <trkpt lat="40.424744" lon="0.206090">
        <ele>496.484</ele>
        <time>2018-01-16T22:23:23Z</time>
      </trkpt>
      <trkpt lat="40.424368" lon="0.206015">
        <ele>491.307</ele>
        <time>2018-01-16T22:23:43Z</time>
      </trkpt>
      <trkpt lat="40.424466" lon="0.205361">
        <ele>487.017</ele>
        <time>2018-01-16T22:24:03Z</time>
      </trkpt>
      <trkpt lat="40.424572" lon="0.204921">
        <ele>484.208</ele>
        <time>2018-01-16T22:24:23Z</time>
      </trkpt>
      <trkpt lat="40.424727" lon="0.204599">
        <ele>483.261</ele>
        <time>2018-01-16T22:24:43Z</time>
      </trkpt>
      <trkpt lat="40.424817" lon="0.204298">
        <ele>484.158</ele>
        <time>2018-01-16T22:25:03Z</time>
      </trkpt>
      <trkpt lat="40.424474" lon="0.203977">
        <ele>478.212</ele>
        <time>2018-01-16T22:25:23Z</time>
      </trkpt>
      <trkpt lat="40.424180" lon="0.203794">
        <ele>473.150</ele>
        <time>2018-01-16T22:25:43Z</time>
      </trkpt>
      <trkpt lat="40.424025" lon="0.203419">
        <ele>473.068</ele>
        <time>2018-01-16T22:26:03Z</time>
      </trkpt>
      <trkpt lat="40.423861" lon="0.202754">
        <ele>470.461</ele>
        <time>2018-01-16T22:26:23Z</time>
      </trkpt>
      <trkpt lat="40.423608" lon="0.202035">
        <ele>464.359</ele>
        <time>2018-01-16T22:26:43Z</time>
      </trkpt>
      <trkpt lat="40.423298" lon="0.201520">
        <ele>458.561</ele>
        <time>2018-01-16T22:27:03Z</time>
      </trkpt>
      <trkpt lat="40.422922" lon="0.201370">
        <ele>454.816</ele>
        <time>2018-01-16T22:27:23Z</time>
      </trkpt>
      <trkpt lat="40.422734" lon="0.201123">
        <ele>455.176</ele>
        <time>2018-01-16T22:27:43Z</time>
      </trkpt>
      <trkpt lat="40.422563" lon="0.200801">
        <ele>452.713</ele>
        <time>2018-01-16T22:28:03Z</time>
      </trkpt>
      <trkpt lat="40.422310" lon="0.200565">
        <ele>448.908</ele>
        <time>2018-01-16T22:28:23Z</time>
      </trkpt>
      <trkpt lat="40.421926" lon="0.200329">
        <ele>444.034</ele>
        <time>2018-01-16T22:28:43Z</time>
      </trkpt>
      <trkpt lat="40.421689" lon="0.200189">
        <ele>444.121</ele>
        <time>2018-01-16T22:29:03Z</time>
      </trkpt>
      <trkpt lat="40.421558" lon="0.199964">
        <ele>444.075</ele>
        <time>2018-01-16T22:29:23Z</time>
      </trkpt>
      <trkpt lat="40.421427" lon="0.199546">
        <ele>442.373</ele>
        <time>2018-01-16T22:29:43Z</time>
      </trkpt>
      <trkpt lat="40.421378" lon="0.199234">
        <ele>441.191</ele>
        <time>2018-01-16T22:30:03Z</time>
      </trkpt>
      <trkpt lat="40.421305" lon="0.198966">
        <ele>440.314</ele>
        <time>2018-01-16T22:30:23Z</time>
      </trkpt>
      <trkpt lat="40.420864" lon="0.198666">
        <ele>434.422</ele>
        <time>2018-01-16T22:30:43Z</time>
      </trkpt>
      <trkpt lat="40.420750" lon="0.198891">
        <ele>433.144</ele>
        <time>2018-01-16T22:31:03Z</time>
      </trkpt>
      <trkpt lat="40.420594" lon="0.198902">
        <ele>431.637</ele>
        <time>2018-01-16T22:31:23Z</time>
      </trkpt>
      <trkpt lat="40.420341" lon="0.198859">
        <ele>433.049</ele>
        <time>2018-01-16T22:31:43Z</time>
      </trkpt>
      <trkpt lat="40.420023" lon="0.198805">
        <ele>430.313</ele>
        <time>2018-01-16T22:32:03Z</time>
      </trkpt>
      <trkpt lat="40.419655" lon="0.198859">
        <ele>430.508</ele>
        <time>2018-01-16T22:32:23Z</time>
      </trkpt>
      <trkpt lat="40.419533" lon="0.198859">
        <ele>430.596</ele>
        <time>2018-01-16T22:32:43Z</time>
      </trkpt>
      <trkpt lat="40.419279" lon="0.198730">
        <ele>430.883</ele>
        <time>2018-01-16T22:33:03Z</time>
      </trkpt>
      <trkpt lat="40.419010" lon="0.198655">
        <ele>434.417</ele>
        <time>2018-01-16T22:33:23Z</time>
      </trkpt>
      <trkpt lat="40.418716" lon="0.198483">
        <ele>433.775</ele>
        <time>2018-01-16T22:33:43Z</time>
      </trkpt>
      <trkpt lat="40.418356" lon="0.198312">
        <ele>431.593</ele>
        <time>2018-01-16T22:34:03Z</time>
      </trkpt>
      <trkpt lat="40.418070" lon="0.198269">
        <ele>431.316</ele>
        <time>2018-01-16T22:34:23Z</time>
      </trkpt>
      <trkpt lat="40.417940" lon="0.198398">
        <ele>432.274</ele>
        <time>2018-01-16T22:34:43Z</time>
      </trkpt>
      <trkpt lat="40.417948" lon="0.198687">
        <ele>435.436</ele>
        <time>2018-01-16T22:35:03Z</time>
      </trkpt>
      <trkpt lat="40.417907" lon="0.199138">
        <ele>440.028</ele>
        <time>2018-01-16T22:35:23Z</time>
      </trkpt>
      <trkpt lat="40.417793" lon="0.199492">
        <ele>439.989</ele>
        <time>2018-01-16T22:35:43Z</time>
      </trkpt>
      <trkpt lat="40.417736" lon="0.199910">
        <ele>442.917</ele>
        <time>2018-01-16T22:36:03Z</time>
      </trkpt>
      <trkpt lat="40.417736" lon="0.200297">
        <ele>443.908</ele>
        <time>2018-01-16T22:36:23Z</time>
      </trkpt>
      <trkpt lat="40.417866" lon="0.200597">
        <ele>445.935</ele>
        <time>2018-01-16T22:36:43Z</time>
      </trkpt>
      <trkpt lat="40.418038" lon="0.200951">
        <ele>446.492</ele>
        <time>2018-01-16T22:37:03Z</time>
      </trkpt>
      <trkpt lat="40.418299" lon="0.201337">
        <ele>451.666</ele>
        <time>2018-01-16T22:37:23Z</time>
      </trkpt>
      <trkpt lat="40.418413" lon="0.201670">
        <ele>453.684</ele>
        <time>2018-01-16T22:37:43Z</time>
      </trkpt>
      <trkpt lat="40.418340" lon="0.201960">
        <ele>451.122</ele>
        <time>2018-01-16T22:38:03Z</time>
      </trkpt>
      <trkpt lat="40.418283" lon="0.202228">
        <ele>449.835</ele>
        <time>2018-01-16T22:38:23Z</time>
      </trkpt>
      <trkpt lat="40.418209" lon="0.202432">
        <ele>450.683</ele>
        <time>2018-01-16T22:38:43Z</time>
      </trkpt>
      <trkpt lat="40.418111" lon="0.202228">
        <ele>449.255</ele>
        <time>2018-01-16T22:39:03Z</time>
      </trkpt>
      <trkpt lat="40.417940" lon="0.202088">
        <ele>449.691</ele>
        <time>2018-01-16T22:39:23Z</time>
      </trkpt>
      <trkpt lat="40.417556" lon="0.201874">
        <ele>452.781</ele>
        <time>2018-01-16T22:39:43Z</time>
      </trkpt>
      <trkpt lat="40.417180" lon="0.201606">
        <ele>453.919</ele>
        <time>2018-01-16T22:40:03Z</time>
      </trkpt>
      <trkpt lat="40.416894" lon="0.201348">
        <ele>456.508</ele>
        <time>2018-01-16T22:40:23Z</time>
      </trkpt>
      <trkpt lat="40.416543" lon="0.200962">
        <ele>460.662</ele>
        <time>2018-01-16T22:40:43Z</time>
      </trkpt>
      <trkpt lat="40.416420" lon="0.200629">
        <ele>458.939</ele>
        <time>2018-01-16T22:41:03Z</time>
      </trkpt>
      <trkpt lat="40.416159" lon="0.200393">
        <ele>462.323</ele>
        <time>2018-01-16T22:41:23Z</time>
      </trkpt>
      <trkpt lat="40.416167" lon="0.200018">
        <ele>458.171</ele>
        <time>2018-01-16T22:41:43Z</time>
      </trkpt>
      <trkpt lat="40.416175" lon="0.199707">
        <ele>454.459</ele>
        <time>2018-01-16T22:42:03Z</time>
      </trkpt>
      <trkpt lat="40.415996" lon="0.199310">
        <ele>455.462</ele>
        <time>2018-01-16T22:42:23Z</time>
      </trkpt>
      <trkpt lat="40.415734" lon="0.198666">
        <ele>453.680</ele>
        <time>2018-01-16T22:42:43Z</time>
      </trkpt>
      <trkpt lat="40.415383" lon="0.198365">
        <ele>460.912</ele>
        <time>2018-01-16T22:43:03Z</time>
      </trkpt>
      <trkpt lat="40.415081" lon="0.198076">
        <ele>462.769</ele>
        <time>2018-01-16T22:43:23Z</time>
      </trkpt>
      <trkpt lat="40.414860" lon="0.197968">
        <ele>464.004</ele>
        <time>2018-01-16T22:43:43Z</time>
      </trkpt>
      <trkpt lat="40.414272" lon="0.198312">
        <ele>478.424</ele>
        <time>2018-01-16T22:44:03Z</time>
      </trkpt>
      <trkpt lat="40.413962" lon="0.197990">
        <ele>477.908</ele>
        <time>2018-01-16T22:44:23Z</time>
      </trkpt>
      <trkpt lat="40.413708" lon="0.197690">
        <ele>478.199</ele>
        <time>2018-01-16T22:44:43Z</time>
      </trkpt>
      <trkpt lat="40.413292" lon="0.197411">
        <ele>483.186</ele>
        <time>2018-01-16T22:45:03Z</time>
      </trkpt>
      <trkpt lat="40.413071" lon="0.197228">
        <ele>480.060</ele>
        <time>2018-01-16T22:45:23Z</time>
      </trkpt>
      <trkpt lat="40.412826" lon="0.196896">
        <ele>474.158</ele>
        <time>2018-01-16T22:45:43Z</time>
      </trkpt>
      <trkpt lat="40.412679" lon="0.196724">
        <ele>473.476</ele>
        <time>2018-01-16T22:46:03Z</time>
      </trkpt>
      <trkpt lat="40.412434" lon="0.196745">
        <ele>480.399</ele>
        <time>2018-01-16T22:46:23Z</time>
      </trkpt>
      <trkpt lat="40.412238" lon="0.196499">
        <ele>482.427</ele>
        <time>2018-01-16T22:46:43Z</time>
      </trkpt>
      <trkpt lat="40.412026" lon="0.196155">
        <ele>482.579</ele>
        <time>2018-01-16T22:47:03Z</time>
      </trkpt>
      <trkpt lat="40.411666" lon="0.195941">
        <ele>483.921</ele>
        <time>2018-01-16T22:47:23Z</time>
      </trkpt>
      <trkpt lat="40.411470" lon="0.195833">
        <ele>479.341</ele>
        <time>2018-01-16T22:47:43Z</time>
      </trkpt>
      <trkpt lat="40.411135" lon="0.196059">
        <ele>480.005</ele>
        <time>2018-01-16T22:48:03Z</time>
      </trkpt>
      <trkpt lat="40.410906" lon="0.196316">
        <ele>483.208</ele>
        <time>2018-01-16T22:48:23Z</time>
      </trkpt>
      <trkpt lat="40.410735" lon="0.196531">
        <ele>487.055</ele>
        <time>2018-01-16T22:48:43Z</time>
      </trkpt>
      <trkpt lat="40.410547" lon="0.196799">
        <ele>493.542</ele>
        <time>2018-01-16T22:49:03Z</time>
      </trkpt>
      <trkpt lat="40.410523" lon="0.196971">
        <ele>500.186</ele>
        <time>2018-01-16T22:49:23Z</time>
      </trkpt>
      <trkpt lat="40.410286" lon="0.197175">
        <ele>501.584</ele>
        <time>2018-01-16T22:49:43Z</time>
      </trkpt>
      <trkpt lat="40.410008" lon="0.197175">
        <ele>504.572</ele>
        <time>2018-01-16T22:50:03Z</time>
      </trkpt>
      <trkpt lat="40.409926" lon="0.196981">
        <ele>501.665</ele>
        <time>2018-01-16T22:50:23Z</time>
      </trkpt>
      <trkpt lat="40.409771" lon="0.196574">
        <ele>500.623</ele>
        <time>2018-01-16T22:50:43Z</time>
      </trkpt>
      <trkpt lat="40.409501" lon="0.196252">
        <ele>505.495</ele>
        <time>2018-01-16T22:51:03Z</time>
      </trkpt>
      <trkpt lat="40.409273" lon="0.195930">
        <ele>508.498</ele>
        <time>2018-01-16T22:51:23Z</time>
      </trkpt>
      <trkpt lat="40.409297" lon="0.195576">
        <ele>502.615</ele>
        <time>2018-01-16T22:51:43Z</time>
      </trkpt>
      <trkpt lat="40.409346" lon="0.195308">
        <ele>500.226</ele>
        <time>2018-01-16T22:52:03Z</time>
      </trkpt>
      <trkpt lat="40.409305" lon="0.194964">
        <ele>499.208</ele>
        <time>2018-01-16T22:52:23Z</time>
      </trkpt>
      <trkpt lat="40.409093" lon="0.194836">
        <ele>501.322</ele>
        <time>2018-01-16T22:52:43Z</time>
      </trkpt>
      <trkpt lat="40.408897" lon="0.194836">
        <ele>503.439</ele>
        <time>2018-01-16T22:53:03Z</time>
      </trkpt>
      <trkpt lat="40.408578" lon="0.195007">
        <ele>505.493</ele>
        <time>2018-01-16T22:53:23Z</time>
      </trkpt>
      <trkpt lat="40.408407" lon="0.195415">
        <ele>512.211</ele>
        <time>2018-01-16T22:53:43Z</time>
      </trkpt>
      <trkpt lat="40.407745" lon="0.196552">
        <ele>525.299</ele>
        <time>2018-01-16T22:54:03Z</time>
      </trkpt>
      <trkpt lat="40.407255" lon="0.197271">
        <ele>529.262</ele>
        <time>2018-01-16T22:54:23Z</time>
      </trkpt>
      <trkpt lat="40.407181" lon="0.197539">
        <ele>527.480</ele>
        <time>2018-01-16T22:54:43Z</time>
      </trkpt>
      <trkpt lat="40.407255" lon="0.197904">
        <ele>525.372</ele>
        <time>2018-01-16T22:55:03Z</time>
      </trkpt>
      <trkpt lat="40.407328" lon="0.198269">
        <ele>522.517</ele>
        <time>2018-01-16T22:55:23Z</time>
      </trkpt>
      <trkpt lat="40.407410" lon="0.198666">
        <ele>517.987</ele>
        <time>2018-01-16T22:55:43Z</time>
      </trkpt>
      <trkpt lat="40.407500" lon="0.199095">
        <ele>513.815</ele>
        <time>2018-01-16T22:56:03Z</time>
      </trkpt>
      <trkpt lat="40.407582" lon="0.199664">
        <ele>509.108</ele>
        <time>2018-01-16T22:56:23Z</time>
      </trkpt>
      <trkpt lat="40.407328" lon="0.199492">
        <ele>506.544</ele>
        <time>2018-01-16T22:56:43Z</time>
      </trkpt>
      <trkpt lat="40.407165" lon="0.199234">
        <ele>505.381</ele>
        <time>2018-01-16T22:57:03Z</time>
      </trkpt>
      <trkpt lat="40.407083" lon="0.198977">
        <ele>506.775</ele>
        <time>2018-01-16T22:57:23Z</time>
      </trkpt>
      <trkpt lat="40.406863" lon="0.198891">
        <ele>503.513</ele>
        <time>2018-01-16T22:57:43Z</time>
      </trkpt>
      <trkpt lat="40.406707" lon="0.198677">
        <ele>502.491</ele>
        <time>2018-01-16T22:58:03Z</time>
      </trkpt>
      <trkpt lat="40.406642" lon="0.198516">
        <ele>502.694</ele>
        <time>2018-01-16T22:58:23Z</time>
      </trkpt>
      <trkpt lat="40.406356" lon="0.198473">
        <ele>502.082</ele>
        <time>2018-01-16T22:58:43Z</time>
      </trkpt>
      <trkpt lat="40.406005" lon="0.198687">
        <ele>497.664</ele>
        <time>2018-01-16T22:59:03Z</time>
      </trkpt>
      <trkpt lat="40.404771" lon="0.199792">
        <ele>481.046</ele>
        <time>2018-01-16T22:59:23Z</time>
      </trkpt>
      <trkpt lat="40.403971" lon="0.201294">
        <ele>471.988</ele>
        <time>2018-01-16T22:59:43Z</time>
      </trkpt>
      <trkpt lat="40.403685" lon="0.202228">
        <ele>465.316</ele>
        <time>2018-01-16T23:00:03Z</time>
      </trkpt>
      <trkpt lat="40.403489" lon="0.202496">
        <ele>465.408</ele>
        <time>2018-01-16T23:00:23Z</time>
      </trkpt>
      <trkpt lat="40.402982" lon="0.202625">
        <ele>465.227</ele>
        <time>2018-01-16T23:00:43Z</time>
      </trkpt>
      <trkpt lat="40.402459" lon="0.202904">
        <ele>457.264</ele>
        <time>2018-01-16T23:01:03Z</time>
      </trkpt>
      <trkpt lat="40.401634" lon="0.203902">
        <ele>452.038</ele>
        <time>2018-01-16T23:01:23Z</time>
      </trkpt>
      <trkpt lat="40.401127" lon="0.204470">
        <ele>443.426</ele>
        <time>2018-01-16T23:01:43Z</time>
      </trkpt>
      <trkpt lat="40.400212" lon="0.205114">
        <ele>434.814</ele>
        <time>2018-01-16T23:02:03Z</time>
      </trkpt>
      <trkpt lat="40.399681" lon="0.205414">
        <ele>425.367</ele>
        <time>2018-01-16T23:02:23Z</time>
      </trkpt>
      <trkpt lat="40.399207" lon="0.205457">
        <ele>417.955</ele>
        <time>2018-01-16T23:02:43Z</time>
      </trkpt>
      <trkpt lat="40.399011" lon="0.205489">
        <ele>416.837</ele>
        <time>2018-01-16T23:03:03Z</time>
      </trkpt>
      <trkpt lat="40.398619" lon="0.205736">
        <ele>416.356</ele>
        <time>2018-01-16T23:03:23Z</time>
      </trkpt>
      <trkpt lat="40.398325" lon="0.205994">
        <ele>418.859</ele>
        <time>2018-01-16T23:03:43Z</time>
      </trkpt>
      <trkpt lat="40.398186" lon="0.205972">
        <ele>419.314</ele>
        <time>2018-01-16T23:04:03Z</time>
      </trkpt>
      <trkpt lat="40.398104" lon="0.205843">
        <ele>418.008</ele>
        <time>2018-01-16T23:04:23Z</time>
      </trkpt>
      <trkpt lat="40.397925" lon="0.205683">
        <ele>418.118</ele>
        <time>2018-01-16T23:04:43Z</time>
      </trkpt>
      <trkpt lat="40.397704" lon="0.205650">
        <ele>418.635</ele>
        <time>2018-01-16T23:05:03Z</time>
      </trkpt>
      <trkpt lat="40.397451" lon="0.205704">
        <ele>418.439</ele>
        <time>2018-01-16T23:05:23Z</time>
      </trkpt>
      <trkpt lat="40.397336" lon="0.206079">
        <ele>418.817</ele>
        <time>2018-01-16T23:05:43Z</time>
      </trkpt>
      <trkpt lat="40.397222" lon="0.206637">
        <ele>422.755</ele>
        <time>2018-01-16T23:06:03Z</time>
      </trkpt>
      <trkpt lat="40.396478" lon="0.207442">
        <ele>424.368</ele>
        <time>2018-01-16T23:06:23Z</time>
      </trkpt>
      <trkpt lat="40.396209" lon="0.207732">
        <ele>421.816</ele>
        <time>2018-01-16T23:06:43Z</time>
      </trkpt>
      <trkpt lat="40.395882" lon="0.207893">
        <ele>424.738</ele>
        <time>2018-01-16T23:07:03Z</time>
      </trkpt>
      <trkpt lat="40.395718" lon="0.207506">
        <ele>426.254</ele>
        <time>2018-01-16T23:07:23Z</time>
      </trkpt>
      <trkpt lat="40.395653" lon="0.207163">
        <ele>426.456</ele>
        <time>2018-01-16T23:07:43Z</time>
      </trkpt>
      <trkpt lat="40.395343" lon="0.206938">
        <ele>430.811</ele>
        <time>2018-01-16T23:08:03Z</time>
      </trkpt>
      <trkpt lat="40.395114" lon="0.206798">
        <ele>432.408</ele>
        <time>2018-01-16T23:08:23Z</time>
      </trkpt>
      <trkpt lat="40.394910" lon="0.206637">
        <ele>431.868</ele>
        <time>2018-01-16T23:08:43Z</time>
      </trkpt>
      <trkpt lat="40.394771" lon="0.206509">
        <ele>430.055</ele>
        <time>2018-01-16T23:09:03Z</time>
      </trkpt>
      <trkpt lat="40.394452" lon="0.206476">
        <ele>426.669</ele>
        <time>2018-01-16T23:09:23Z</time>
      </trkpt>
      <trkpt lat="40.394150" lon="0.206873">
        <ele>425.967</ele>
        <time>2018-01-16T23:09:43Z</time>
      </trkpt>
      <trkpt lat="40.393708" lon="0.207485">
        <ele>425.535</ele>
        <time>2018-01-16T23:10:03Z</time>
      </trkpt>
      <trkpt lat="40.393529" lon="0.207646">
        <ele>423.668</ele>
        <time>2018-01-16T23:10:23Z</time>
      </trkpt>
      <trkpt lat="40.393324" lon="0.207764">
        <ele>419.526</ele>
        <time>2018-01-16T23:10:43Z</time>
      </trkpt>
      <trkpt lat="40.393120" lon="0.208139">
        <ele>419.048</ele>
        <time>2018-01-16T23:11:03Z</time>
      </trkpt>
      <trkpt lat="40.392973" lon="0.208429">
        <ele>418.585</ele>
        <time>2018-01-16T23:11:23Z</time>
      </trkpt>
      <trkpt lat="40.392687" lon="0.208654">
        <ele>415.989</ele>
        <time>2018-01-16T23:11:43Z</time>
      </trkpt>
      <trkpt lat="40.392417" lon="0.208815">
        <ele>416.017</ele>
        <time>2018-01-16T23:12:03Z</time>
      </trkpt>
      <trkpt lat="40.392262" lon="0.208848">
        <ele>415.808</ele>
        <time>2018-01-16T23:12:23Z</time>
      </trkpt>
      <trkpt lat="40.392090" lon="0.208740">
        <ele>415.151</ele>
        <time>2018-01-16T23:12:43Z</time>
      </trkpt>
      <trkpt lat="40.391894" lon="0.208290">
        <ele>410.958</ele>
        <time>2018-01-16T23:13:03Z</time>
      </trkpt>
      <trkpt lat="40.391682" lon="0.207753">
        <ele>407.142</ele>
        <time>2018-01-16T23:13:23Z</time>
      </trkpt>
      <trkpt lat="40.391576" lon="0.207431">
        <ele>402.670</ele>
        <time>2018-01-16T23:13:43Z</time>
      </trkpt>
      <trkpt lat="40.391257" lon="0.207206">
        <ele>402.918</ele>
        <time>2018-01-16T23:14:03Z</time>
      </trkpt>
      <trkpt lat="40.391143" lon="0.206884">
        <ele>395.271</ele>
        <time>2018-01-16T23:14:23Z</time>
      </trkpt>
      <trkpt lat="40.391004" lon="0.206455">
        <ele>389.289</ele>
        <time>2018-01-16T23:14:43Z</time>
      </trkpt>
      <trkpt lat="40.390865" lon="0.206176">
        <ele>384.021</ele>
        <time>2018-01-16T23:15:03Z</time>
      </trkpt>
      <trkpt lat="40.390750" lon="0.206305">
        <ele>387.143</ele>
        <time>2018-01-16T23:15:23Z</time>
      </trkpt>
      <trkpt lat="40.390334" lon="0.206670">
        <ele>388.564</ele>
        <time>2018-01-16T23:15:43Z</time>
      </trkpt>
      <trkpt lat="40.389614" lon="0.207163">
        <ele>379.210</ele>
        <time>2018-01-16T23:16:03Z</time>
      </trkpt>
      <trkpt lat="40.388765" lon="0.207764">
        <ele>369.608</ele>
        <time>2018-01-16T23:16:23Z</time>
      </trkpt>
      <trkpt lat="40.388381" lon="0.208182">
        <ele>365.397</ele>
        <time>2018-01-16T23:16:43Z</time>
      </trkpt>
      <trkpt lat="40.388291" lon="0.208569">
        <ele>366.734</ele>
        <time>2018-01-16T23:17:03Z</time>
      </trkpt>
      <trkpt lat="40.388479" lon="0.208837">
        <ele>366.128</ele>
        <time>2018-01-16T23:17:23Z</time>
      </trkpt>
      <trkpt lat="40.388691" lon="0.209191">
        <ele>366.466</ele>
        <time>2018-01-16T23:17:43Z</time>
      </trkpt>
      <trkpt lat="40.388707" lon="0.209373">
        <ele>366.994</ele>
        <time>2018-01-16T23:18:03Z</time>
      </trkpt>
      <trkpt lat="40.388568" lon="0.209577">
        <ele>368.667</ele>
        <time>2018-01-16T23:18:23Z</time>
      </trkpt>
      <trkpt lat="40.388381" lon="0.209695">
        <ele>370.435</ele>
        <time>2018-01-16T23:18:43Z</time>
      </trkpt>
      <trkpt lat="40.388135" lon="0.209749">
        <ele>373.657</ele>
        <time>2018-01-16T23:19:03Z</time>
      </trkpt>
      <trkpt lat="40.387702" lon="0.209727">
        <ele>379.585</ele>
        <time>2018-01-16T23:19:23Z</time>
      </trkpt>
      <trkpt lat="40.387277" lon="0.209556">
        <ele>383.789</ele>
        <time>2018-01-16T23:19:43Z</time>
      </trkpt>
      <trkpt lat="40.386910" lon="0.209448">
        <ele>386.517</ele>
        <time>2018-01-16T23:20:03Z</time>
      </trkpt>
      <trkpt lat="40.386869" lon="0.209824">
        <ele>386.908</ele>
        <time>2018-01-16T23:20:23Z</time>
      </trkpt>
      <trkpt lat="40.387106" lon="0.210800">
        <ele>388.421</ele>
        <time>2018-01-16T23:20:43Z</time>
      </trkpt>
      <trkpt lat="40.387147" lon="0.211219">
        <ele>387.188</ele>
        <time>2018-01-16T23:21:03Z</time>
      </trkpt>
      <trkpt lat="40.386844" lon="0.211530">
        <ele>390.662</ele>
        <time>2018-01-16T23:21:23Z</time>
      </trkpt>
      <trkpt lat="40.386485" lon="0.211605">
        <ele>392.860</ele>
        <time>2018-01-16T23:21:43Z</time>
      </trkpt>
      <trkpt lat="40.386002" lon="0.211551">
        <ele>398.318</ele>
        <time>2018-01-16T23:22:03Z</time>
      </trkpt>
      <trkpt lat="40.385659" lon="0.211701">
        <ele>398.041</ele>
        <time>2018-01-16T23:22:23Z</time>
      </trkpt>
      <trkpt lat="40.385365" lon="0.211884">
        <ele>395.259</ele>
        <time>2018-01-16T23:22:43Z</time>
      </trkpt>
      <trkpt lat="40.384728" lon="0.212120">
        <ele>398.861</ele>
        <time>2018-01-16T23:23:03Z</time>
      </trkpt>
      <trkpt lat="40.384433" lon="0.212216">
        <ele>402.314</ele>
        <time>2018-01-16T23:23:23Z</time>
      </trkpt>
      <trkpt lat="40.384066" lon="0.212109">
        <ele>405.754</ele>
        <time>2018-01-16T23:23:43Z</time>
      </trkpt>
      <trkpt lat="40.383861" lon="0.211980">
        <ele>405.309</ele>
        <time>2018-01-16T23:24:03Z</time>
      </trkpt>
      <trkpt lat="40.383837" lon="0.211669">
        <ele>404.708</ele>
        <time>2018-01-16T23:24:23Z</time>
      </trkpt>
      <trkpt lat="40.384049" lon="0.211326">
        <ele>406.234</ele>
        <time>2018-01-16T23:24:43Z</time>
      </trkpt>
      <trkpt lat="40.384499" lon="0.210822">
        <ele>408.521</ele>
        <time>2018-01-16T23:25:03Z</time>
      </trkpt>
      <trkpt lat="40.384662" lon="0.210457">
        <ele>409.395</ele>
        <time>2018-01-16T23:25:23Z</time>
      </trkpt>
      <trkpt lat="40.384670" lon="0.209835">
        <ele>408.963</ele>
        <time>2018-01-16T23:25:43Z</time>
      </trkpt>
      <trkpt lat="40.384768" lon="0.208966">
        <ele>406.241</ele>
        <time>2018-01-16T23:26:03Z</time>
      </trkpt>
      <trkpt lat="40.384891" lon="0.208279">
        <ele>407.764</ele>
        <time>2018-01-16T23:26:23Z</time>
      </trkpt>
      <trkpt lat="40.384989" lon="0.207614">
        <ele>408.172</ele>
        <time>2018-01-16T23:26:43Z</time>
      </trkpt>
      <trkpt lat="40.385177" lon="0.206991">
        <ele>406.664</ele>
        <time>2018-01-16T23:27:03Z</time>
      </trkpt>
      <trkpt lat="40.385569" lon="0.206198">
        <ele>408.438</ele>
        <time>2018-01-16T23:27:23Z</time>
      </trkpt>
      <trkpt lat="40.385618" lon="0.205575">
        <ele>408.570</ele>
        <time>2018-01-16T23:27:43Z</time>
      </trkpt>
      <trkpt lat="40.385341" lon="0.204599">
        <ele>399.917</ele>
        <time>2018-01-16T23:28:03Z</time>
      </trkpt>
      <trkpt lat="40.385242" lon="0.203977">
        <ele>399.708</ele>
        <time>2018-01-16T23:28:23Z</time>
      </trkpt>
      <trkpt lat="40.385185" lon="0.203623">
        <ele>405.126</ele>
        <time>2018-01-16T23:28:43Z</time>
      </trkpt>
      <trkpt lat="40.385005" lon="0.203633">
        <ele>407.453</ele>
        <time>2018-01-16T23:29:03Z</time>
      </trkpt>
      <trkpt lat="40.384826" lon="0.204384">
        <ele>402.497</ele>
        <time>2018-01-16T23:29:23Z</time>
      </trkpt>
      <trkpt lat="40.384589" lon="0.205715">
        <ele>402.415</ele>
        <time>2018-01-16T23:29:43Z</time>
      </trkpt>
      <trkpt lat="40.383976" lon="0.206519">
        <ele>406.523</ele>
        <time>2018-01-16T23:30:03Z</time>
      </trkpt>
      <trkpt lat="40.383665" lon="0.207152">
        <ele>406.726</ele>
        <time>2018-01-16T23:30:23Z</time>
      </trkpt>
      <trkpt lat="40.383404" lon="0.207560">
        <ele>401.554</ele>
        <time>2018-01-16T23:30:43Z</time>
      </trkpt>
      <trkpt lat="40.383216" lon="0.207485">
        <ele>402.316</ele>
        <time>2018-01-16T23:31:03Z</time>
      </trkpt>
      <trkpt lat="40.383134" lon="0.207131">
        <ele>404.994</ele>
        <time>2018-01-16T23:31:23Z</time>
      </trkpt>
      <trkpt lat="40.383036" lon="0.206648">
        <ele>411.457</ele>
        <time>2018-01-16T23:31:43Z</time>
      </trkpt>
      <trkpt lat="40.382570" lon="0.206841">
        <ele>411.322</ele>
        <time>2018-01-16T23:32:03Z</time>
      </trkpt>
      <trkpt lat="40.382292" lon="0.207185">
        <ele>409.808</ele>
        <time>2018-01-16T23:32:23Z</time>
      </trkpt>
      <trkpt lat="40.382072" lon="0.207399">
        <ele>407.392</ele>
        <time>2018-01-16T23:32:43Z</time>
      </trkpt>
      <trkpt lat="40.381826" lon="0.207260">
        <ele>408.249</ele>
        <time>2018-01-16T23:33:03Z</time>
      </trkpt>
      <trkpt lat="40.381679" lon="0.207024">
        <ele>409.513</ele>
        <time>2018-01-16T23:33:23Z</time>
      </trkpt>
      <trkpt lat="40.381483" lon="0.207002">
        <ele>409.421</ele>
        <time>2018-01-16T23:33:43Z</time>
      </trkpt>
      <trkpt lat="40.381385" lon="0.207099">
        <ele>408.359</ele>
        <time>2018-01-16T23:34:03Z</time>
      </trkpt>
      <trkpt lat="40.381336" lon="0.207345">
        <ele>405.462</ele>
        <time>2018-01-16T23:34:23Z</time>
      </trkpt>
      <trkpt lat="40.381499" lon="0.207592">
        <ele>403.210</ele>
        <time>2018-01-16T23:34:43Z</time>
      </trkpt>
      <trkpt lat="40.381508" lon="0.208536">
        <ele>392.142</ele>
        <time>2018-01-16T23:35:03Z</time>
      </trkpt>
      <trkpt lat="40.381336" lon="0.208869">
        <ele>390.935</ele>
        <time>2018-01-16T23:35:23Z</time>
      </trkpt>
      <trkpt lat="40.381091" lon="0.209384">
        <ele>391.886</ele>
        <time>2018-01-16T23:35:43Z</time>
      </trkpt>
      <trkpt lat="40.380731" lon="0.210274">
        <ele>395.614</ele>
        <time>2018-01-16T23:36:03Z</time>
      </trkpt>
      <trkpt lat="40.380331" lon="0.211015">
        <ele>396.608</ele>
        <time>2018-01-16T23:36:23Z</time>
      </trkpt>
      <trkpt lat="40.379424" lon="0.211991">
        <ele>396.886</ele>
        <time>2018-01-16T23:36:43Z</time>
      </trkpt>
      <trkpt lat="40.378941" lon="0.212388">
        <ele>392.873</ele>
        <time>2018-01-16T23:37:03Z</time>
      </trkpt>
      <trkpt lat="40.378672" lon="0.212699">
        <ele>389.137</ele>
        <time>2018-01-16T23:37:23Z</time>
      </trkpt>
      <trkpt lat="40.378451" lon="0.213268">
        <ele>388.425</ele>
        <time>2018-01-16T23:37:43Z</time>
      </trkpt>
      <trkpt lat="40.378165" lon="0.213783">
        <ele>388.583</ele>
        <time>2018-01-16T23:38:03Z</time>
      </trkpt>
      <trkpt lat="40.377781" lon="0.214512">
        <ele>385.236</ele>
        <time>2018-01-16T23:38:23Z</time>
      </trkpt>
      <trkpt lat="40.377299" lon="0.214963">
        <ele>377.714</ele>
        <time>2018-01-16T23:38:43Z</time>
      </trkpt>
      <trkpt lat="40.377053" lon="0.215274">
        <ele>376.266</ele>
        <time>2018-01-16T23:39:03Z</time>
      </trkpt>
      <trkpt lat="40.376759" lon="0.215682">
        <ele>372.322</ele>
        <time>2018-01-16T23:39:23Z</time>
      </trkpt>
      <trkpt lat="40.376612" lon="0.216143">
        <ele>369.862</ele>
        <time>2018-01-16T23:39:43Z</time>
      </trkpt>
      <trkpt lat="40.376669" lon="0.216626">
        <ele>368.308</ele>
        <time>2018-01-16T23:40:03Z</time>
      </trkpt>
      <trkpt lat="40.376914" lon="0.217034">
        <ele>365.408</ele>
        <time>2018-01-16T23:40:23Z</time>
      </trkpt>
      <trkpt lat="40.377094" lon="0.217484">
        <ele>360.115</ele>
        <time>2018-01-16T23:40:43Z</time>
      </trkpt>
      <trkpt lat="40.377070" lon="0.217656">
        <ele>358.912</ele>
        <time>2018-01-16T23:41:03Z</time>
      </trkpt>
      <trkpt lat="40.376898" lon="0.217892">
        <ele>357.086</ele>
        <time>2018-01-16T23:41:23Z</time>
      </trkpt>
      <trkpt lat="40.376588" lon="0.218096">
        <ele>354.034</ele>
        <time>2018-01-16T23:41:43Z</time>
      </trkpt>
      <trkpt lat="40.376146" lon="0.218450">
        <ele>350.372</ele>
        <time>2018-01-16T23:42:03Z</time>
      </trkpt>
      <trkpt lat="40.375517" lon="0.218890">
        <ele>348.625</ele>
        <time>2018-01-16T23:42:23Z</time>
      </trkpt>
      <trkpt lat="40.375067" lon="0.219233">
        <ele>348.163</ele>
        <time>2018-01-16T23:42:43Z</time>
      </trkpt>
      <trkpt lat="40.374740" lon="0.219480">
        <ele>346.315</ele>
        <time>2018-01-16T23:43:03Z</time>
      </trkpt>
      <trkpt lat="40.374536" lon="0.219952">
        <ele>340.668</ele>
        <time>2018-01-16T23:43:23Z</time>
      </trkpt>
      <trkpt lat="40.374405" lon="0.220317">
        <ele>338.342</ele>
        <time>2018-01-16T23:43:43Z</time>
      </trkpt>
      <trkpt lat="40.374193" lon="0.220703">
        <ele>335.926</ele>
        <time>2018-01-16T23:44:03Z</time>
      </trkpt>
      <trkpt lat="40.374593" lon="0.220563">
        <ele>337.408</ele>
        <time>2018-01-16T23:44:23Z</time>
      </trkpt>
      <trkpt lat="40.375043" lon="0.220445">
        <ele>339.449</ele>
        <time>2018-01-16T23:44:43Z</time>
      </trkpt>
      <trkpt lat="40.375370" lon="0.220360">
        <ele>336.166</ele>
        <time>2018-01-16T23:45:03Z</time>
      </trkpt>
      <trkpt lat="40.375337" lon="0.220531">
        <ele>333.410</ele>
        <time>2018-01-16T23:45:23Z</time>
      </trkpt>
      <trkpt lat="40.375043" lon="0.220649">
        <ele>335.018</ele>
        <time>2018-01-16T23:45:43Z</time>
      </trkpt>
      <trkpt lat="40.374601" lon="0.220907">
        <ele>332.036</ele>
        <time>2018-01-16T23:46:03Z</time>
      </trkpt>
      <trkpt lat="40.374291" lon="0.221272">
        <ele>328.439</ele>
        <time>2018-01-16T23:46:23Z</time>
      </trkpt>
      <trkpt lat="40.374291" lon="0.221819">
        <ele>321.427</ele>
        <time>2018-01-16T23:46:43Z</time>
      </trkpt>
      <trkpt lat="40.374307" lon="0.222623">
        <ele>317.049</ele>
        <time>2018-01-16T23:47:03Z</time>
      </trkpt>
      <trkpt lat="40.374389" lon="0.223010">
        <ele>313.551</ele>
        <time>2018-01-16T23:47:23Z</time>
      </trkpt>
      <trkpt lat="40.374291" lon="0.223149">
        <ele>312.901</ele>
        <time>2018-01-16T23:47:43Z</time>
      </trkpt>
      <trkpt lat="40.374029" lon="0.223278">
        <ele>312.011</ele>
        <time>2018-01-16T23:48:03Z</time>
      </trkpt>
      <trkpt lat="40.373694" lon="0.223213">
        <ele>313.008</ele>
        <time>2018-01-16T23:48:23Z</time>
      </trkpt>
      <trkpt lat="40.373343" lon="0.223192">
        <ele>312.138</ele>
        <time>2018-01-16T23:48:43Z</time>
      </trkpt>
      <trkpt lat="40.373032" lon="0.223525">
        <ele>306.385</ele>
        <time>2018-01-16T23:49:03Z</time>
      </trkpt>
      <trkpt lat="40.372517" lon="0.223997">
        <ele>297.979</ele>
        <time>2018-01-16T23:49:23Z</time>
      </trkpt>
      <trkpt lat="40.372223" lon="0.224233">
        <ele>297.997</ele>
        <time>2018-01-16T23:49:43Z</time>
      </trkpt>
      <trkpt lat="40.371961" lon="0.224501">
        <ele>290.865</ele>
        <time>2018-01-16T23:50:03Z</time>
      </trkpt>
      <trkpt lat="40.371683" lon="0.224758">
        <ele>286.448</ele>
        <time>2018-01-16T23:50:23Z</time>
      </trkpt>
      <trkpt lat="40.371348" lon="0.224887">
        <ele>285.656</ele>
        <time>2018-01-16T23:50:43Z</time>
      </trkpt>
      <trkpt lat="40.371168" lon="0.224844">
        <ele>285.798</ele>
        <time>2018-01-16T23:51:03Z</time>
      </trkpt>
      <trkpt lat="40.371005" lon="0.224791">
        <ele>284.552</ele>
        <time>2018-01-16T23:51:23Z</time>
      </trkpt>
      <trkpt lat="40.370891" lon="0.224662">
        <ele>284.053</ele>
        <time>2018-01-16T23:51:43Z</time>
      </trkpt>
      <trkpt lat="40.370817" lon="0.224372">
        <ele>285.808</ele>
        <time>2018-01-16T23:52:03Z</time>
      </trkpt>
      <trkpt lat="40.370776" lon="0.224072">
        <ele>286.208</ele>
        <time>2018-01-16T23:52:23Z</time>
      </trkpt>
      <trkpt lat="40.370727" lon="0.223868">
        <ele>285.948</ele>
        <time>2018-01-16T23:52:43Z</time>
      </trkpt>
      <trkpt lat="40.370637" lon="0.223814">
        <ele>283.165</ele>
        <time>2018-01-16T23:53:03Z</time>
      </trkpt>
      <trkpt lat="40.370588" lon="0.223964">
        <ele>281.659</ele>
        <time>2018-01-16T23:53:23Z</time>
      </trkpt>
      <trkpt lat="40.370555" lon="0.224179">
        <ele>279.977</ele>
        <time>2018-01-16T23:53:43Z</time>
      </trkpt>
      <trkpt lat="40.370621" lon="0.224694">
        <ele>278.435</ele>
        <time>2018-01-16T23:54:03Z</time>
      </trkpt>
      <trkpt lat="40.370588" lon="0.225080">
        <ele>272.868</ele>
        <time>2018-01-16T23:54:23Z</time>
      </trkpt>
      <trkpt lat="40.370621" lon="0.225681">
        <ele>268.336</ele>
        <time>2018-01-16T23:54:43Z</time>
      </trkpt>
      <trkpt lat="40.370588" lon="0.226282">
        <ele>265.118</ele>
        <time>2018-01-16T23:55:03Z</time>
      </trkpt>
      <trkpt lat="40.370506" lon="0.226668">
        <ele>265.396</ele>
        <time>2018-01-16T23:55:23Z</time>
      </trkpt>
      <trkpt lat="40.370408" lon="0.226883">
        <ele>265.431</ele>
        <time>2018-01-16T23:55:43Z</time>
      </trkpt>
      <trkpt lat="40.370220" lon="0.227526">
        <ele>268.924</ele>
        <time>2018-01-16T23:56:03Z</time>
      </trkpt>
      <trkpt lat="40.370171" lon="0.227827">
        <ele>269.508</ele>
        <time>2018-01-16T23:56:23Z</time>
      </trkpt>
      <trkpt lat="40.370098" lon="0.228256">
        <ele>268.712</ele>
        <time>2018-01-16T23:56:43Z</time>
      </trkpt>
      <trkpt lat="40.370122" lon="0.228589">
        <ele>270.459</ele>
        <time>2018-01-16T23:57:03Z</time>
      </trkpt>
      <trkpt lat="40.369975" lon="0.228750">
        <ele>267.853</ele>
        <time>2018-01-16T23:57:23Z</time>
      </trkpt>
      <trkpt lat="40.369722" lon="0.229393">
        <ele>263.611</ele>
        <time>2018-01-16T23:57:43Z</time>
      </trkpt>
      <trkpt lat="40.369460" lon="0.230455">
        <ele>259.569</ele>
        <time>2018-01-16T23:58:03Z</time>
      </trkpt>
      <trkpt lat="40.369068" lon="0.231636">
        <ele>255.942</ele>
        <time>2018-01-16T23:58:23Z</time>
      </trkpt>
      <trkpt lat="40.368773" lon="0.232558">
        <ele>255.410</ele>
        <time>2018-01-16T23:58:43Z</time>
      </trkpt>
      <trkpt lat="40.368626" lon="0.233105">
        <ele>252.072</ele>
        <time>2018-01-16T23:59:03Z</time>
      </trkpt>
      <trkpt lat="40.368381" lon="0.233867">
        <ele>253.047</ele>
        <time>2018-01-16T23:59:23Z</time>
      </trkpt>
      <trkpt lat="40.368201" lon="0.234361">
        <ele>251.529</ele>
        <time>2018-01-16T23:59:43Z</time>
      </trkpt>
      <trkpt lat="40.368160" lon="0.234768">
        <ele>247.921</ele>
        <time>2018-01-17T00:00:03Z</time>
      </trkpt>
      <trkpt lat="40.368070" lon="0.235122">
        <ele>247.308</ele>
        <time>2018-01-17T00:00:23Z</time>
      </trkpt>
      <trkpt lat="40.368152" lon="0.235358">
        <ele>248.947</ele>
        <time>2018-01-17T00:00:43Z</time>
      </trkpt>
      <trkpt lat="40.368348" lon="0.235509">
        <ele>247.094</ele>
        <time>2018-01-17T00:01:03Z</time>
      </trkpt>
      <trkpt lat="40.368684" lon="0.235723">
        <ele>246.738</ele>
        <time>2018-01-17T00:01:23Z</time>
      </trkpt>
      <trkpt lat="40.368708" lon="0.236024">
        <ele>248.196</ele>
        <time>2018-01-17T00:01:43Z</time>
      </trkpt>
      <trkpt lat="40.368724" lon="0.236270">
        <ele>248.794</ele>
        <time>2018-01-17T00:02:03Z</time>
      </trkpt>
      <trkpt lat="40.368708" lon="0.236539">
        <ele>248.427</ele>
        <time>2018-01-17T00:02:23Z</time>
      </trkpt>
      <trkpt lat="40.368594" lon="0.236839">
        <ele>248.645</ele>
        <time>2018-01-17T00:02:43Z</time>
      </trkpt>
      <trkpt lat="40.368209" lon="0.237086">
        <ele>252.117</ele>
        <time>2018-01-17T00:03:03Z</time>
      </trkpt>
      <trkpt lat="40.368030" lon="0.237268">
        <ele>253.058</ele>
        <time>2018-01-17T00:03:23Z</time>
      </trkpt>
      <trkpt lat="40.367580" lon="0.237515">
        <ele>252.652</ele>
        <time>2018-01-17T00:03:43Z</time>
      </trkpt>
      <trkpt lat="40.367294" lon="0.237558">
        <ele>252.217</ele>
        <time>2018-01-17T00:04:03Z</time>
      </trkpt>
      <trkpt lat="40.367135" lon="0.237577">
        <ele>251.308</ele>
        <time>2018-01-17T00:04:23Z</time>
      </trkpt>
      <trkpt lat="40.366998" lon="0.237542">
        <ele>250.838</ele>
        <time>2018-01-17T00:04:43Z</time>
      </trkpt>
      <trkpt lat="40.366967" lon="0.237550">
        <ele>250.455</ele>
        <time>2018-01-17T00:05:03Z</time>
      </trkpt>
      <trkpt lat="40.366897" lon="0.237523">
        <ele>250.389</ele>
        <time>2018-01-17T00:05:23Z</time>
      </trkpt>
      <trkpt lat="40.366860" lon="0.237510">
        <ele>250.217</ele>
        <time>2018-01-17T00:05:43Z</time>
      </trkpt>
      <trkpt lat="40.366797" lon="0.237489">
        <ele>250.215</ele>
        <time>2018-01-17T00:06:03Z</time>
      </trkpt>
      <trkpt lat="40.366574" lon="0.237297">
        <ele>251.788</ele>
        <time>2018-11-10T21:27:01Z</time>
      </trkpt>
      <trkpt lat="40.366538" lon="0.237297">
        <ele>251.126</ele>
        <time>2018-11-10T21:27:21Z</time>
      </trkpt>
      <trkpt lat="40.366358" lon="0.237297">
        <ele>248.428</ele>
        <time>2018-11-10T21:27:41Z</time>
      </trkpt>
      <trkpt lat="40.366232" lon="0.237120">
        <ele>250.868</ele>
        <time>2018-11-10T21:28:01Z</time>
      </trkpt>
      <trkpt lat="40.366232" lon="0.237120">
        <ele>250.842</ele>
        <time>2018-11-10T21:28:21Z</time>
      </trkpt>
      <trkpt lat="40.366053" lon="0.237076">
        <ele>250.426</ele>
        <time>2018-11-10T21:28:41Z</time>
      </trkpt>
      <trkpt lat="40.365873" lon="0.237031">
        <ele>250.008</ele>
        <time>2018-11-10T21:29:01Z</time>
      </trkpt>
      <trkpt lat="40.365711" lon="0.236921">
        <ele>250.619</ele>
        <time>2018-11-10T21:29:21Z</time>
      </trkpt>
      <trkpt lat="40.365550" lon="0.236810">
        <ele>251.646</ele>
        <time>2018-11-10T21:29:41Z</time>
      </trkpt>
      <trkpt lat="40.365388" lon="0.236699">
        <ele>253.430</ele>
        <time>2018-11-10T21:30:01Z</time>
      </trkpt>
      <trkpt lat="40.365190" lon="0.236655">
        <ele>252.268</ele>
        <time>2018-11-10T21:30:21Z</time>
      </trkpt>
      <trkpt lat="40.365046" lon="0.236589">
        <ele>252.976</ele>
        <time>2018-11-10T21:30:41Z</time>
      </trkpt>
      <trkpt lat="40.364849" lon="0.236589">
        <ele>250.869</ele>
        <time>2018-11-10T21:31:01Z</time>
      </trkpt>
      <trkpt lat="40.364669" lon="0.236611">
        <ele>248.997</ele>
        <time>2018-11-10T21:31:21Z</time>
      </trkpt>
      <trkpt lat="40.364525" lon="0.236744">
        <ele>245.759</ele>
        <time>2018-11-10T21:31:41Z</time>
      </trkpt>
      <trkpt lat="40.364400" lon="0.236567">
        <ele>244.479</ele>
        <time>2018-11-10T21:32:01Z</time>
      </trkpt>
      <trkpt lat="40.364364" lon="0.236345">
        <ele>243.905</ele>
        <time>2018-11-10T21:32:21Z</time>
      </trkpt>
      <trkpt lat="40.364382" lon="0.236124">
        <ele>244.425</ele>
        <time>2018-11-10T21:32:41Z</time>
      </trkpt>
      <trkpt lat="40.364418" lon="0.235903">
        <ele>245.208</ele>
        <time>2018-11-10T21:33:01Z</time>
      </trkpt>
      <trkpt lat="40.364274" lon="0.235748">
        <ele>244.180</ele>
        <time>2018-11-10T21:33:21Z</time>
      </trkpt>
      <trkpt lat="40.364220" lon="0.235969">
        <ele>243.147</ele>
        <time>2018-11-10T21:33:41Z</time>
      </trkpt>
      <trkpt lat="40.364202" lon="0.236190">
        <ele>242.761</ele>
        <time>2018-11-10T21:34:01Z</time>
      </trkpt>
      <trkpt lat="40.364184" lon="0.236412">
        <ele>241.989</ele>
        <time>2018-11-10T21:34:21Z</time>
      </trkpt>
      <trkpt lat="40.364130" lon="0.236633">
        <ele>241.597</ele>
        <time>2018-11-10T21:34:41Z</time>
      </trkpt>
      <trkpt lat="40.364094" lon="0.236854">
        <ele>240.790</ele>
        <time>2018-11-10T21:35:01Z</time>
      </trkpt>
      <trkpt lat="40.364022" lon="0.237076">
        <ele>240.058</ele>
        <time>2018-11-10T21:35:21Z</time>
      </trkpt>
      <trkpt lat="40.363933" lon="0.237275">
        <ele>239.520</ele>
        <time>2018-11-10T21:35:41Z</time>
      </trkpt>
      <trkpt lat="40.363861" lon="0.237496">
        <ele>238.223</ele>
        <time>2018-11-10T21:36:01Z</time>
      </trkpt>
      <trkpt lat="40.363735" lon="0.237673">
        <ele>237.983</ele>
        <time>2018-11-10T21:36:21Z</time>
      </trkpt>
      <trkpt lat="40.363555" lon="0.237762">
        <ele>239.411</ele>
        <time>2018-11-10T21:36:41Z</time>
      </trkpt>
      <trkpt lat="40.363376" lon="0.237784">
        <ele>239.708</ele>
        <time>2018-11-10T21:37:01Z</time>
      </trkpt>
      <trkpt lat="40.363196" lon="0.237784">
        <ele>239.935</ele>
        <time>2018-11-10T21:37:21Z</time>
      </trkpt>
      <trkpt lat="40.362998" lon="0.237784">
        <ele>239.912</ele>
        <time>2018-11-10T21:37:41Z</time>
      </trkpt>
      <trkpt lat="40.362855" lon="0.237828">
        <ele>239.146</ele>
        <time>2018-11-10T21:38:01Z</time>
      </trkpt>
      <trkpt lat="40.362675" lon="0.237828">
        <ele>239.194</ele>
        <time>2018-11-10T21:38:21Z</time>
      </trkpt>
      <trkpt lat="40.362477" lon="0.237828">
        <ele>238.732</ele>
        <time>2018-11-10T21:38:41Z</time>
      </trkpt>
      <trkpt lat="40.362298" lon="0.237828">
        <ele>237.555</ele>
        <time>2018-11-10T21:39:01Z</time>
      </trkpt>
      <trkpt lat="40.362136" lon="0.237717">
        <ele>238.523</ele>
        <time>2018-11-10T21:39:21Z</time>
      </trkpt>
      <trkpt lat="40.361956" lon="0.237695">
        <ele>237.855</ele>
        <time>2018-11-10T21:39:41Z</time>
      </trkpt>
      <trkpt lat="40.361777" lon="0.237629">
        <ele>238.456</ele>
        <time>2018-11-10T21:40:01Z</time>
      </trkpt>
      <trkpt lat="40.361597" lon="0.237585">
        <ele>238.959</ele>
        <time>2018-11-10T21:40:21Z</time>
      </trkpt>
      <trkpt lat="40.361417" lon="0.237540">
        <ele>238.914</ele>
        <time>2018-11-10T21:40:41Z</time>
      </trkpt>
      <trkpt lat="40.361238" lon="0.237452">
        <ele>239.308</ele>
        <time>2018-11-10T21:41:01Z</time>
      </trkpt>
      <trkpt lat="40.361058" lon="0.237385">
        <ele>238.438</ele>
        <time>2018-11-10T21:41:21Z</time>
      </trkpt>
      <trkpt lat="40.360896" lon="0.237253">
        <ele>237.775</ele>
        <time>2018-11-10T21:41:41Z</time>
      </trkpt>
      <trkpt lat="40.360824" lon="0.237031">
        <ele>237.719</ele>
        <time>2018-11-10T21:42:01Z</time>
      </trkpt>
      <trkpt lat="40.360842" lon="0.236810">
        <ele>238.957</ele>
        <time>2018-11-10T21:42:21Z</time>
      </trkpt>
      <trkpt lat="40.360860" lon="0.236589">
        <ele>240.525</ele>
        <time>2018-11-10T21:42:41Z</time>
      </trkpt>
      <trkpt lat="40.360896" lon="0.236367">
        <ele>242.418</ele>
        <time>2018-11-10T21:43:01Z</time>
      </trkpt>
      <trkpt lat="40.360932" lon="0.236146">
        <ele>244.246</ele>
        <time>2018-11-10T21:43:21Z</time>
      </trkpt>
      <trkpt lat="40.360932" lon="0.235903">
        <ele>245.258</ele>
        <time>2018-11-10T21:43:41Z</time>
      </trkpt>
      <trkpt lat="40.360932" lon="0.235681">
        <ele>246.344</ele>
        <time>2018-11-10T21:44:01Z</time>
      </trkpt>
      <trkpt lat="40.360770" lon="0.235571">
        <ele>245.005</ele>
        <time>2018-11-10T21:44:21Z</time>
      </trkpt>
      <trkpt lat="40.360591" lon="0.235482">
        <ele>246.715</ele>
        <time>2018-11-10T21:44:41Z</time>
      </trkpt>
      <trkpt lat="40.360411" lon="0.235438">
        <ele>247.908</ele>
        <time>2018-11-10T21:45:01Z</time>
      </trkpt>
      <trkpt lat="40.360231" lon="0.235372">
        <ele>249.767</ele>
        <time>2018-11-10T21:45:21Z</time>
      </trkpt>
      <trkpt lat="40.360052" lon="0.235327">
        <ele>251.154</ele>
        <time>2018-11-10T21:45:41Z</time>
      </trkpt>
      <trkpt lat="40.359872" lon="0.235305">
        <ele>251.988</ele>
        <time>2018-11-10T21:46:01Z</time>
      </trkpt>
      <trkpt lat="40.359710" lon="0.235195">
        <ele>255.136</ele>
        <time>2018-11-10T21:46:21Z</time>
      </trkpt>
      <trkpt lat="40.359531" lon="0.235217">
        <ele>254.664</ele>
        <time>2018-11-10T21:46:41Z</time>
      </trkpt>
      <trkpt lat="40.359351" lon="0.235150">
        <ele>255.617</ele>
        <time>2018-11-10T21:47:01Z</time>
      </trkpt>
      <trkpt lat="40.359171" lon="0.235084">
        <ele>256.145</ele>
        <time>2018-11-10T21:47:21Z</time>
      </trkpt>
      <trkpt lat="40.358992" lon="0.235018">
        <ele>256.897</ele>
        <time>2018-11-10T21:47:41Z</time>
      </trkpt>
      <trkpt lat="40.358812" lon="0.234951">
        <ele>256.596</ele>
        <time>2018-11-10T21:48:01Z</time>
      </trkpt>
      <trkpt lat="40.358650" lon="0.234818">
        <ele>256.931</ele>
        <time>2018-11-10T21:48:21Z</time>
      </trkpt>
      <trkpt lat="40.358561" lon="0.234619">
        <ele>259.324</ele>
        <time>2018-11-10T21:48:41Z</time>
      </trkpt>
      <trkpt lat="40.358471" lon="0.234420">
        <ele>261.608</ele>
        <time>2018-11-10T21:49:01Z</time>
      </trkpt>
      <trkpt lat="40.358435" lon="0.234199">
        <ele>264.842</ele>
        <time>2018-11-10T21:49:21Z</time>
      </trkpt>
      <trkpt lat="40.358399" lon="0.233977">
        <ele>266.639</ele>
        <time>2018-11-10T21:49:41Z</time>
      </trkpt>
      <trkpt lat="40.358381" lon="0.233756">
        <ele>267.973</ele>
        <time>2018-11-10T21:50:01Z</time>
      </trkpt>
      <trkpt lat="40.358381" lon="0.233513">
        <ele>269.631</ele>
        <time>2018-11-10T21:50:21Z</time>
      </trkpt>
      <trkpt lat="40.358381" lon="0.233269">
        <ele>272.859</ele>
        <time>2018-11-10T21:50:41Z</time>
      </trkpt>
      <trkpt lat="40.358237" lon="0.233402">
        <ele>270.342</ele>
        <time>2018-11-10T21:51:01Z</time>
      </trkpt>
      <trkpt lat="40.358058" lon="0.233491">
        <ele>272.780</ele>
        <time>2018-11-10T21:51:21Z</time>
      </trkpt>
      <trkpt lat="40.357878" lon="0.233579">
        <ele>274.672</ele>
        <time>2018-11-10T21:51:41Z</time>
      </trkpt>
      <trkpt lat="40.357698" lon="0.233668">
        <ele>275.142</ele>
        <time>2018-11-10T21:52:01Z</time>
      </trkpt>
      <trkpt lat="40.357518" lon="0.233712">
        <ele>275.522</ele>
        <time>2018-11-10T21:52:21Z</time>
      </trkpt>
      <trkpt lat="40.357339" lon="0.233690">
        <ele>276.014</ele>
        <time>2018-11-10T21:52:41Z</time>
      </trkpt>
      <trkpt lat="40.357195" lon="0.233535">
        <ele>278.608</ele>
        <time>2018-11-10T21:53:01Z</time>
      </trkpt>
      <trkpt lat="40.357051" lon="0.233380">
        <ele>279.847</ele>
        <time>2018-11-10T21:53:21Z</time>
      </trkpt>
      <trkpt lat="40.356926" lon="0.233203">
        <ele>280.394</ele>
        <time>2018-11-10T21:53:41Z</time>
      </trkpt>
      <trkpt lat="40.356818" lon="0.233026">
        <ele>281.828</ele>
        <time>2018-11-10T21:54:01Z</time>
      </trkpt>
      <trkpt lat="40.356710" lon="0.232849">
        <ele>283.766</ele>
        <time>2018-11-10T21:54:21Z</time>
      </trkpt>
      <trkpt lat="40.356602" lon="0.232672">
        <ele>284.724</ele>
        <time>2018-11-10T21:54:41Z</time>
      </trkpt>
      <trkpt lat="40.356512" lon="0.232473">
        <ele>285.067</ele>
        <time>2018-11-10T21:55:01Z</time>
      </trkpt>
      <trkpt lat="40.356405" lon="0.232274">
        <ele>285.125</ele>
        <time>2018-11-10T21:55:21Z</time>
      </trkpt>
      <trkpt lat="40.356369" lon="0.232052">
        <ele>286.867</ele>
        <time>2018-11-10T21:55:41Z</time>
      </trkpt>
      <trkpt lat="40.356369" lon="0.231809">
        <ele>288.219</ele>
        <time>2018-11-10T21:56:01Z</time>
      </trkpt>
      <trkpt lat="40.356189" lon="0.231831">
        <ele>288.109</ele>
        <time>2018-11-10T21:56:21Z</time>
      </trkpt>
      <trkpt lat="40.356081" lon="0.232008">
        <ele>287.519</ele>
        <time>2018-11-10T21:56:41Z</time>
      </trkpt>
      <trkpt lat="40.355973" lon="0.232185">
        <ele>286.708</ele>
        <time>2018-11-10T21:57:01Z</time>
      </trkpt>
      <trkpt lat="40.355812" lon="0.232318">
        <ele>286.984</ele>
        <time>2018-11-10T21:57:21Z</time>
      </trkpt>
      <trkpt lat="40.355632" lon="0.232362">
        <ele>288.791</ele>
        <time>2018-11-10T21:57:41Z</time>
      </trkpt>
      <trkpt lat="40.355452" lon="0.232384">
        <ele>289.845</ele>
        <time>2018-11-10T21:58:01Z</time>
      </trkpt>
      <trkpt lat="40.355273" lon="0.232340">
        <ele>289.783</ele>
        <time>2018-11-10T21:58:21Z</time>
      </trkpt>
      <trkpt lat="40.355111" lon="0.232229">
        <ele>291.381</ele>
        <time>2018-11-10T21:58:41Z</time>
      </trkpt>
      <trkpt lat="40.354949" lon="0.232119">
        <ele>290.784</ele>
        <time>2018-11-10T21:59:01Z</time>
      </trkpt>
      <trkpt lat="40.354931" lon="0.231897">
        <ele>292.732</ele>
        <time>2018-11-10T21:59:21Z</time>
      </trkpt>
      <trkpt lat="40.354931" lon="0.231654">
        <ele>293.924</ele>
        <time>2018-11-10T21:59:41Z</time>
      </trkpt>
      <trkpt lat="40.355003" lon="0.231433">
        <ele>296.034</ele>
        <time>2018-11-10T22:00:01Z</time>
      </trkpt>
      <trkpt lat="40.355093" lon="0.231233">
        <ele>297.855</ele>
        <time>2018-11-10T22:00:21Z</time>
      </trkpt>
      <trkpt lat="40.355165" lon="0.231012">
        <ele>299.210</ele>
        <time>2018-11-10T22:00:41Z</time>
      </trkpt>
      <trkpt lat="40.355021" lon="0.230857">
        <ele>300.008</ele>
        <time>2018-11-10T22:01:01Z</time>
      </trkpt>
      <trkpt lat="40.354824" lon="0.230857">
        <ele>300.256</ele>
        <time>2018-11-10T22:01:21Z</time>
      </trkpt>
      <trkpt lat="40.354626" lon="0.230857">
        <ele>301.743</ele>
        <time>2018-11-10T22:01:41Z</time>
      </trkpt>
      <trkpt lat="40.354446" lon="0.230924">
        <ele>302.967</ele>
        <time>2018-11-10T22:02:01Z</time>
      </trkpt>
      <trkpt lat="40.354267" lon="0.231012">
        <ele>304.495</ele>
        <time>2018-11-10T22:02:21Z</time>
      </trkpt>
      <trkpt lat="40.354105" lon="0.231167">
        <ele>305.213</ele>
        <time>2018-11-10T22:02:41Z</time>
      </trkpt>
      <trkpt lat="40.353925" lon="0.231234">
        <ele>307.766</ele>
        <time>2018-11-10T22:03:01Z</time>
      </trkpt>
      <trkpt lat="40.353781" lon="0.231366">
        <ele>309.194</ele>
        <time>2018-11-10T22:03:21Z</time>
      </trkpt>
      <trkpt lat="40.353620" lon="0.231499">
        <ele>311.686</ele>
        <time>2018-11-10T22:03:41Z</time>
      </trkpt>
      <trkpt lat="40.353458" lon="0.231610">
        <ele>314.365</ele>
        <time>2018-11-10T22:04:01Z</time>
      </trkpt>
      <trkpt lat="40.353278" lon="0.231610">
        <ele>315.368</ele>
        <time>2018-11-10T22:04:21Z</time>
      </trkpt>
      <trkpt lat="40.353243" lon="0.231831">
        <ele>316.014</ele>
        <time>2018-11-10T22:04:41Z</time>
      </trkpt>
      <trkpt lat="40.353243" lon="0.232052">
        <ele>317.108</ele>
        <time>2018-11-10T22:05:01Z</time>
      </trkpt>
      <trkpt lat="40.353296" lon="0.232274">
        <ele>318.829</ele>
        <time>2018-11-10T22:05:21Z</time>
      </trkpt>
      <trkpt lat="40.353332" lon="0.232495">
        <ele>321.176</ele>
        <time>2018-11-10T22:05:41Z</time>
      </trkpt>
      <trkpt lat="40.353350" lon="0.232716">
        <ele>323.460</ele>
        <time>2018-11-10T22:06:01Z</time>
      </trkpt>
      <trkpt lat="40.353350" lon="0.232960">
        <ele>325.298</ele>
        <time>2018-11-10T22:06:21Z</time>
      </trkpt>
      <trkpt lat="40.353350" lon="0.233203">
        <ele>325.946</ele>
        <time>2018-11-10T22:06:41Z</time>
      </trkpt>
      <trkpt lat="40.353350" lon="0.233446">
        <ele>325.999</ele>
        <time>2018-11-10T22:07:01Z</time>
      </trkpt>
      <trkpt lat="40.353314" lon="0.233668">
        <ele>325.537</ele>
        <time>2018-11-10T22:07:21Z</time>
      </trkpt>
      <trkpt lat="40.353189" lon="0.233845">
        <ele>327.719</ele>
        <time>2018-11-10T22:07:41Z</time>
      </trkpt>
      <trkpt lat="40.353099" lon="0.234044">
        <ele>327.689</ele>
        <time>2018-11-10T22:08:01Z</time>
      </trkpt>
      <trkpt lat="40.353045" lon="0.234265">
        <ele>325.806</ele>
        <time>2018-11-10T22:08:21Z</time>
      </trkpt>
      <trkpt lat="40.352955" lon="0.234487">
        <ele>324.626</ele>
        <time>2018-11-10T22:08:41Z</time>
      </trkpt>
      <trkpt lat="40.352865" lon="0.234686">
        <ele>323.308</ele>
        <time>2018-11-10T22:09:01Z</time>
      </trkpt>
      <trkpt lat="40.352775" lon="0.234885">
        <ele>322.071</ele>
        <time>2018-11-10T22:09:21Z</time>
      </trkpt>
      <trkpt lat="40.352686" lon="0.235084">
        <ele>320.698</ele>
        <time>2018-11-10T22:09:41Z</time>
      </trkpt>
      <trkpt lat="40.352578" lon="0.235283">
        <ele>317.892</ele>
        <time>2018-11-10T22:10:01Z</time>
      </trkpt>
      <trkpt lat="40.352488" lon="0.235482">
        <ele>315.810</ele>
        <time>2018-11-10T22:10:21Z</time>
      </trkpt>
      <trkpt lat="40.352362" lon="0.235659">
        <ele>313.438</ele>
        <time>2018-11-10T22:10:41Z</time>
      </trkpt>
      <trkpt lat="40.352236" lon="0.235836">
        <ele>311.551</ele>
        <time>2018-11-10T22:11:01Z</time>
      </trkpt>
      <trkpt lat="40.352057" lon="0.235925">
        <ele>311.219</ele>
        <time>2018-11-10T22:11:21Z</time>
      </trkpt>
      <trkpt lat="40.351895" lon="0.236036">
        <ele>309.991</ele>
        <time>2018-11-10T22:11:41Z</time>
      </trkpt>
      <trkpt lat="40.351895" lon="0.236279">
        <ele>309.996</ele>
        <time>2018-11-10T22:12:01Z</time>
      </trkpt>
      <trkpt lat="40.351895" lon="0.236500">
        <ele>310.431</ele>
        <time>2018-11-10T22:12:21Z</time>
      </trkpt>
      <trkpt lat="40.351895" lon="0.236722">
        <ele>311.324</ele>
        <time>2018-11-10T22:12:41Z</time>
      </trkpt>
      <trkpt lat="40.351985" lon="0.236921">
        <ele>309.708</ele>
        <time>2018-11-10T22:13:01Z</time>
      </trkpt>
      <trkpt lat="40.352003" lon="0.237142">
        <ele>309.342</ele>
        <time>2018-11-10T22:13:21Z</time>
      </trkpt>
      <trkpt lat="40.352003" lon="0.237386">
        <ele>309.539</ele>
        <time>2018-11-10T22:13:41Z</time>
      </trkpt>
      <trkpt lat="40.352003" lon="0.237629">
        <ele>309.223</ele>
        <time>2018-11-10T22:14:01Z</time>
      </trkpt>
      <trkpt lat="40.352003" lon="0.237850">
        <ele>307.821</ele>
        <time>2018-11-10T22:14:21Z</time>
      </trkpt>
      <trkpt lat="40.352003" lon="0.238072">
        <ele>306.569</ele>
        <time>2018-11-10T22:14:41Z</time>
      </trkpt>
      <trkpt lat="40.351949" lon="0.238293">
        <ele>307.762</ele>
        <time>2018-11-10T22:15:01Z</time>
      </trkpt>
      <trkpt lat="40.351895" lon="0.238514">
        <ele>309.290</ele>
        <time>2018-11-10T22:15:21Z</time>
      </trkpt>
      <trkpt lat="40.351859" lon="0.238735">
        <ele>310.042</ele>
        <time>2018-11-10T22:15:41Z</time>
      </trkpt>
      <trkpt lat="40.351859" lon="0.238979">
        <ele>309.337</ele>
        <time>2018-11-10T22:16:01Z</time>
      </trkpt>
      <trkpt lat="40.351841" lon="0.239200">
        <ele>308.449</ele>
        <time>2018-11-10T22:16:21Z</time>
      </trkpt>
      <trkpt lat="40.351787" lon="0.239444">
        <ele>307.513</ele>
        <time>2018-11-10T22:16:41Z</time>
      </trkpt>
      <trkpt lat="40.351733" lon="0.239665">
        <ele>307.008</ele>
        <time>2018-11-10T22:17:01Z</time>
      </trkpt>
      <trkpt lat="40.351679" lon="0.239886">
        <ele>307.646</ele>
        <time>2018-11-10T22:17:21Z</time>
      </trkpt>
      <trkpt lat="40.351608" lon="0.240107">
        <ele>308.553</ele>
        <time>2018-11-10T22:17:41Z</time>
      </trkpt>
      <trkpt lat="40.351536" lon="0.240351">
        <ele>308.877</ele>
        <time>2018-11-10T22:18:01Z</time>
      </trkpt>
      <trkpt lat="40.351482" lon="0.240572">
        <ele>308.995</ele>
        <time>2018-11-10T22:18:21Z</time>
      </trkpt>
      <trkpt lat="40.351428" lon="0.240793">
        <ele>309.463</ele>
        <time>2018-11-10T22:18:41Z</time>
      </trkpt>
      <trkpt lat="40.351554" lon="0.240970">
        <ele>309.776</ele>
        <time>2018-11-10T22:19:01Z</time>
      </trkpt>
      <trkpt lat="40.351733" lon="0.241037">
        <ele>310.324</ele>
        <time>2018-11-10T22:19:21Z</time>
      </trkpt>
      <trkpt lat="40.351913" lon="0.241037">
        <ele>310.436</ele>
        <time>2018-11-10T22:19:41Z</time>
      </trkpt>
      <trkpt lat="40.352093" lon="0.241125">
        <ele>311.091</ele>
        <time>2018-11-10T22:20:01Z</time>
      </trkpt>
      <trkpt lat="40.352236" lon="0.241258">
        <ele>311.781</ele>
        <time>2018-11-10T22:20:21Z</time>
      </trkpt>
      <trkpt lat="40.352272" lon="0.241480">
        <ele>313.119</ele>
        <time>2018-11-10T22:20:41Z</time>
      </trkpt>
      <trkpt lat="40.352272" lon="0.241723">
        <ele>314.708</ele>
        <time>2018-11-10T22:21:01Z</time>
      </trkpt>
      <trkpt lat="40.352254" lon="0.241944">
        <ele>314.392</ele>
        <time>2018-11-10T22:21:21Z</time>
      </trkpt>
      <trkpt lat="40.352147" lon="0.242121">
        <ele>313.939</ele>
        <time>2018-11-10T22:21:41Z</time>
      </trkpt>
      <trkpt lat="40.352039" lon="0.242320">
        <ele>313.983</ele>
        <time>2018-11-10T22:22:01Z</time>
      </trkpt>
      <trkpt lat="40.352200" lon="0.242431">
        <ele>311.511</ele>
        <time>2018-11-10T22:22:21Z</time>
      </trkpt>
      <trkpt lat="40.352380" lon="0.242497">
        <ele>309.649</ele>
        <time>2018-11-10T22:22:41Z</time>
      </trkpt>
      <trkpt lat="40.352542" lon="0.242608">
        <ele>307.582</ele>
        <time>2018-11-10T22:23:01Z</time>
      </trkpt>
      <trkpt lat="40.352703" lon="0.242719">
        <ele>304.830</ele>
        <time>2018-11-10T22:23:21Z</time>
      </trkpt>
      <trkpt lat="40.352865" lon="0.242829">
        <ele>302.942</ele>
        <time>2018-11-10T22:23:41Z</time>
      </trkpt>
      <trkpt lat="40.353009" lon="0.242962">
        <ele>300.114</ele>
        <time>2018-11-10T22:24:01Z</time>
      </trkpt>
      <trkpt lat="40.353171" lon="0.243095">
        <ele>299.154</ele>
        <time>2018-11-10T22:24:21Z</time>
      </trkpt>
      <trkpt lat="40.353207" lon="0.243316">
        <ele>296.709</ele>
        <time>2018-11-10T22:24:41Z</time>
      </trkpt>
      <trkpt lat="40.353207" lon="0.243560">
        <ele>293.308</ele>
        <time>2018-11-10T22:25:01Z</time>
      </trkpt>
      <trkpt lat="40.353207" lon="0.243781">
        <ele>291.144</ele>
        <time>2018-11-10T22:25:21Z</time>
      </trkpt>
      <trkpt lat="40.353243" lon="0.244002">
        <ele>290.841</ele>
        <time>2018-11-10T22:25:41Z</time>
      </trkpt>
      <trkpt lat="40.353260" lon="0.244224">
        <ele>290.665</ele>
        <time>2018-11-10T22:26:01Z</time>
      </trkpt>
      <trkpt lat="40.353260" lon="0.244445">
        <ele>290.373</ele>
        <time>2018-11-10T22:26:21Z</time>
      </trkpt>
      <trkpt lat="40.353260" lon="0.244688">
        <ele>289.931</ele>
        <time>2018-11-10T22:26:41Z</time>
      </trkpt>
      <trkpt lat="40.353260" lon="0.244932">
        <ele>287.524</ele>
        <time>2018-11-10T22:27:01Z</time>
      </trkpt>
      <trkpt lat="40.353440" lon="0.244954">
        <ele>288.052</ele>
        <time>2018-11-10T22:27:21Z</time>
      </trkpt>
      <trkpt lat="40.353620" lon="0.244954">
        <ele>286.754</ele>
        <time>2018-11-10T22:27:41Z</time>
      </trkpt>
      <trkpt lat="40.353817" lon="0.244954">
        <ele>283.981</ele>
        <time>2018-11-10T22:28:01Z</time>
      </trkpt>
      <trkpt lat="40.353997" lon="0.244976">
        <ele>280.461</ele>
        <time>2018-11-10T22:28:21Z</time>
      </trkpt>
      <trkpt lat="40.354141" lon="0.244843">
        <ele>282.917</ele>
        <time>2018-11-10T22:28:41Z</time>
      </trkpt>
      <trkpt lat="40.354338" lon="0.244843">
        <ele>283.808</ele>
        <time>2018-11-10T22:29:01Z</time>
      </trkpt>
      <trkpt lat="40.354518" lon="0.244910">
        <ele>283.621</ele>
        <time>2018-11-10T22:29:21Z</time>
      </trkpt>
      <trkpt lat="40.354680" lon="0.245020">
        <ele>281.688</ele>
        <time>2018-11-10T22:29:41Z</time>
      </trkpt>
      <trkpt lat="40.354841" lon="0.245131">
        <ele>279.712</ele>
        <time>2018-11-10T22:30:01Z</time>
      </trkpt>
      <trkpt lat="40.355021" lon="0.245175">
        <ele>278.620</ele>
        <time>2018-11-10T22:30:21Z</time>
      </trkpt>
      <trkpt lat="40.355201" lon="0.245219">
        <ele>275.948</ele>
        <time>2018-11-10T22:30:41Z</time>
      </trkpt>
      <trkpt lat="40.355381" lon="0.245241">
        <ele>272.411</ele>
        <time>2018-11-10T22:31:01Z</time>
      </trkpt>
      <trkpt lat="40.355560" lon="0.245219">
        <ele>268.549</ele>
        <time>2018-11-10T22:31:21Z</time>
      </trkpt>
      <trkpt lat="40.355614" lon="0.244998">
        <ele>269.851</ele>
        <time>2018-11-10T22:31:41Z</time>
      </trkpt>
      <trkpt lat="40.355650" lon="0.244777">
        <ele>270.424</ele>
        <time>2018-11-10T22:32:01Z</time>
      </trkpt>
      <trkpt lat="40.355740" lon="0.244578">
        <ele>268.204</ele>
        <time>2018-11-10T22:32:21Z</time>
      </trkpt>
      <trkpt lat="40.355776" lon="0.244356">
        <ele>270.114</ele>
        <time>2018-11-10T22:32:41Z</time>
      </trkpt>
      <trkpt lat="40.355955" lon="0.244268">
        <ele>267.508</ele>
        <time>2018-11-10T22:33:01Z</time>
      </trkpt>
      <trkpt lat="40.356099" lon="0.244135">
        <ele>266.345</ele>
        <time>2018-11-10T22:33:21Z</time>
      </trkpt>
      <trkpt lat="40.356261" lon="0.244002">
        <ele>263.752</ele>
        <time>2018-11-10T22:33:41Z</time>
      </trkpt>
      <trkpt lat="40.356423" lon="0.243847">
        <ele>260.796</ele>
        <time>2018-11-10T22:34:01Z</time>
      </trkpt>
      <trkpt lat="40.356494" lon="0.243626">
        <ele>259.714</ele>
        <time>2018-11-10T22:34:21Z</time>
      </trkpt>
      <trkpt lat="40.356566" lon="0.243405">
        <ele>258.812</ele>
        <time>2018-11-10T22:34:41Z</time>
      </trkpt>
      <trkpt lat="40.356728" lon="0.243294">
        <ele>257.475</ele>
        <time>2018-11-10T22:35:01Z</time>
      </trkpt>
      <trkpt lat="40.356854" lon="0.243471">
        <ele>254.413</ele>
        <time>2018-11-10T22:35:21Z</time>
      </trkpt>
      <trkpt lat="40.356908" lon="0.243692">
        <ele>251.355</ele>
        <time>2018-11-10T22:35:41Z</time>
      </trkpt>
      <trkpt lat="40.356908" lon="0.243914">
        <ele>249.322</ele>
        <time>2018-11-10T22:36:01Z</time>
      </trkpt>
      <trkpt lat="40.356908" lon="0.244135">
        <ele>247.662</ele>
        <time>2018-11-10T22:36:21Z</time>
      </trkpt>
      <trkpt lat="40.356782" lon="0.244423">
        <ele>246.508</ele>
        <time>2018-11-10T22:36:41Z</time>
      </trkpt>
      <trkpt lat="40.356728" lon="0.244644">
        <ele>244.808</ele>
        <time>2018-11-10T22:37:01Z</time>
      </trkpt>
      <trkpt lat="40.356710" lon="0.244865">
        <ele>242.645</ele>
        <time>2018-11-10T22:37:21Z</time>
      </trkpt>
      <trkpt lat="40.356656" lon="0.245087">
        <ele>240.942</ele>
        <time>2018-11-10T22:37:41Z</time>
      </trkpt>
      <trkpt lat="40.356584" lon="0.245308">
        <ele>240.126</ele>
        <time>2018-11-10T22:38:01Z</time>
      </trkpt>
      <trkpt lat="40.356530" lon="0.245529">
        <ele>239.164</ele>
        <time>2018-11-10T22:38:21Z</time>
      </trkpt>
      <trkpt lat="40.356440" lon="0.245728">
        <ele>238.652</ele>
        <time>2018-11-10T22:38:41Z</time>
      </trkpt>
      <trkpt lat="40.356369" lon="0.245972">
        <ele>237.265</ele>
        <time>2018-11-10T22:39:01Z</time>
      </trkpt>
      <trkpt lat="40.356243" lon="0.246149">
        <ele>237.113</ele>
        <time>2018-11-10T22:39:21Z</time>
      </trkpt>
      <trkpt lat="40.356063" lon="0.246215">
        <ele>239.015</ele>
        <time>2018-11-10T22:39:41Z</time>
      </trkpt>
      <trkpt lat="40.355902" lon="0.246326">
        <ele>239.887</ele>
        <time>2018-11-10T22:40:01Z</time>
      </trkpt>
      <trkpt lat="40.355722" lon="0.246414">
        <ele>240.542</ele>
        <time>2018-11-10T22:40:21Z</time>
      </trkpt>
      <trkpt lat="40.355542" lon="0.246458">
        <ele>241.026</ele>
        <time>2018-11-10T22:40:41Z</time>
      </trkpt>
      <trkpt lat="40.355363" lon="0.246547">
        <ele>240.108</ele>
        <time>2018-11-10T22:41:01Z</time>
      </trkpt>
      <trkpt lat="40.355183" lon="0.246547">
        <ele>240.651</ele>
        <time>2018-11-10T22:41:21Z</time>
      </trkpt>
      <trkpt lat="40.355003" lon="0.246635">
        <ele>240.468</ele>
        <time>2018-11-10T22:41:41Z</time>
      </trkpt>
      <trkpt lat="40.355147" lon="0.246790">
        <ele>239.952</ele>
        <time>2018-11-10T22:42:01Z</time>
      </trkpt>
      <trkpt lat="40.355327" lon="0.246945">
        <ele>240.860</ele>
        <time>2018-11-10T22:42:21Z</time>
      </trkpt>
      <trkpt lat="40.355506" lon="0.247034">
        <ele>240.538</ele>
        <time>2018-11-10T22:42:41Z</time>
      </trkpt>
      <trkpt lat="40.355686" lon="0.247100">
        <ele>240.661</ele>
        <time>2018-11-10T22:43:01Z</time>
      </trkpt>
      <trkpt lat="40.355866" lon="0.247122">
        <ele>239.589</ele>
        <time>2018-11-10T22:43:21Z</time>
      </trkpt>
      <trkpt lat="40.356063" lon="0.247122">
        <ele>238.131</ele>
        <time>2018-11-10T22:43:41Z</time>
      </trkpt>
      <trkpt lat="40.356243" lon="0.247122">
        <ele>237.314</ele>
        <time>2018-11-10T22:44:01Z</time>
      </trkpt>
      <trkpt lat="40.356405" lon="0.247012">
        <ele>236.554</ele>
        <time>2018-11-10T22:44:21Z</time>
      </trkpt>
      <trkpt lat="40.356566" lon="0.246901">
        <ele>235.309</ele>
        <time>2018-11-10T22:44:41Z</time>
      </trkpt>
      <trkpt lat="40.356728" lon="0.246790">
        <ele>233.808</ele>
        <time>2018-11-10T22:45:01Z</time>
      </trkpt>
      <trkpt lat="40.356908" lon="0.246724">
        <ele>232.114</ele>
        <time>2018-11-10T22:45:21Z</time>
      </trkpt>
      <trkpt lat="40.357069" lon="0.246613">
        <ele>230.331</ele>
        <time>2018-11-10T22:45:41Z</time>
      </trkpt>
      <trkpt lat="40.357249" lon="0.246635">
        <ele>228.595</ele>
        <time>2018-11-10T22:46:01Z</time>
      </trkpt>
      <trkpt lat="40.357357" lon="0.246835">
        <ele>227.373</ele>
        <time>2018-11-10T22:46:21Z</time>
      </trkpt>
      <trkpt lat="40.357465" lon="0.247012">
        <ele>225.781</ele>
        <time>2018-11-10T22:46:41Z</time>
      </trkpt>
      <trkpt lat="40.357501" lon="0.247233">
        <ele>224.964</ele>
        <time>2018-11-10T22:47:01Z</time>
      </trkpt>
      <trkpt lat="40.357555" lon="0.247454">
        <ele>223.682</ele>
        <time>2018-11-10T22:47:21Z</time>
      </trkpt>
      <trkpt lat="40.357734" lon="0.247521">
        <ele>222.934</ele>
        <time>2018-11-10T22:47:41Z</time>
      </trkpt>
      <trkpt lat="40.357896" lon="0.247631">
        <ele>222.314</ele>
        <time>2018-11-10T22:48:01Z</time>
      </trkpt>
      <trkpt lat="40.358040" lon="0.247786">
        <ele>221.554</ele>
        <time>2018-11-10T22:48:21Z</time>
      </trkpt>
      <trkpt lat="40.358183" lon="0.247919">
        <ele>220.309</ele>
        <time>2018-11-10T22:48:41Z</time>
      </trkpt>
      <trkpt lat="40.358363" lon="0.247985">
        <ele>219.208</ele>
        <time>2018-11-10T22:49:01Z</time>
      </trkpt>
      <trkpt lat="40.358525" lon="0.248096">
        <ele>218.084</ele>
        <time>2018-11-10T22:49:21Z</time>
      </trkpt>
      <trkpt lat="40.358686" lon="0.248207">
        <ele>216.591</ele>
        <time>2018-11-10T22:49:41Z</time>
      </trkpt>
      <trkpt lat="40.358866" lon="0.248339">
        <ele>216.095</ele>
        <time>2018-11-10T22:50:01Z</time>
      </trkpt>
      <trkpt lat="40.359028" lon="0.248450">
        <ele>215.273</ele>
        <time>2018-11-10T22:50:21Z</time>
      </trkpt>
      <trkpt lat="40.359189" lon="0.248561">
        <ele>213.571</ele>
        <time>2018-11-10T22:50:41Z</time>
      </trkpt>
      <trkpt lat="40.359369" lon="0.248605">
        <ele>211.734</ele>
        <time>2018-11-10T22:51:01Z</time>
      </trkpt>
      <trkpt lat="40.359549" lon="0.248583">
        <ele>212.432</ele>
        <time>2018-11-10T22:51:21Z</time>
      </trkpt>
      <trkpt lat="40.359603" lon="0.248804">
        <ele>214.054</ele>
        <time>2018-11-10T22:51:41Z</time>
      </trkpt>
      <trkpt lat="40.359495" lon="0.249003">
        <ele>213.535</ele>
        <time>2018-11-10T22:52:01Z</time>
      </trkpt>
      <trkpt lat="40.359459" lon="0.249225">
        <ele>214.386</ele>
        <time>2018-11-10T22:52:21Z</time>
      </trkpt>
      <trkpt lat="40.359387" lon="0.249446">
        <ele>214.714</ele>
        <time>2018-11-10T22:52:41Z</time>
      </trkpt>
      <trkpt lat="40.359333" lon="0.249689">
        <ele>215.408</ele>
        <time>2018-11-10T22:53:01Z</time>
      </trkpt>
      <trkpt lat="40.359279" lon="0.249911">
        <ele>216.156</ele>
        <time>2018-11-10T22:53:21Z</time>
      </trkpt>
      <trkpt lat="40.359261" lon="0.250132">
        <ele>217.693</ele>
        <time>2018-11-10T22:53:41Z</time>
      </trkpt>
      <trkpt lat="40.359261" lon="0.250375">
        <ele>218.877</ele>
        <time>2018-11-10T22:54:01Z</time>
      </trkpt>
      <trkpt lat="40.359243" lon="0.250597">
        <ele>219.325</ele>
        <time>2018-11-10T22:54:21Z</time>
      </trkpt>
      <trkpt lat="40.359243" lon="0.250818">
        <ele>220.183</ele>
        <time>2018-11-10T22:54:41Z</time>
      </trkpt>
      <trkpt lat="40.359171" lon="0.251039">
        <ele>219.666</ele>
        <time>2018-11-10T22:55:01Z</time>
      </trkpt>
      <trkpt lat="40.359064" lon="0.251261">
        <ele>218.334</ele>
        <time>2018-11-10T22:55:21Z</time>
      </trkpt>
      <trkpt lat="40.359010" lon="0.251482">
        <ele>217.586</ele>
        <time>2018-11-10T22:55:41Z</time>
      </trkpt>
      <trkpt lat="40.359010" lon="0.251725">
        <ele>217.684</ele>
        <time>2018-11-10T22:56:01Z</time>
      </trkpt>
      <trkpt lat="40.359118" lon="0.251902">
        <ele>218.007</ele>
        <time>2018-11-10T22:56:21Z</time>
      </trkpt>
      <trkpt lat="40.359189" lon="0.252124">
        <ele>218.117</ele>
        <time>2018-11-10T22:56:41Z</time>
      </trkpt>
      <trkpt lat="40.359261" lon="0.252345">
        <ele>217.208</ele>
        <time>2018-11-10T22:57:01Z</time>
      </trkpt>
      <trkpt lat="40.359297" lon="0.252566">
        <ele>216.171</ele>
        <time>2018-11-10T22:57:21Z</time>
      </trkpt>
      <trkpt lat="40.359297" lon="0.252810">
        <ele>214.378</ele>
        <time>2018-11-10T22:57:41Z</time>
      </trkpt>
      <trkpt lat="40.359315" lon="0.253031">
        <ele>213.322</ele>
        <time>2018-11-10T22:58:01Z</time>
      </trkpt>
      <trkpt lat="40.359351" lon="0.253252">
        <ele>212.110</ele>
        <time>2018-11-10T22:58:21Z</time>
      </trkpt>
      <trkpt lat="40.359477" lon="0.253429">
        <ele>210.448</ele>
        <time>2018-11-10T22:58:41Z</time>
      </trkpt>
      <trkpt lat="40.359657" lon="0.253473">
        <ele>209.231</ele>
        <time>2018-11-10T22:59:01Z</time>
      </trkpt>
      <trkpt lat="40.359836" lon="0.253496">
        <ele>207.869</ele>
        <time>2018-11-10T22:59:21Z</time>
      </trkpt>
      <trkpt lat="40.360016" lon="0.253496">
        <ele>206.351</ele>
        <time>2018-11-10T22:59:41Z</time>
      </trkpt>
      <trkpt lat="40.360196" lon="0.253584">
        <ele>203.154</ele>
        <time>2018-11-10T23:00:01Z</time>
      </trkpt>
      <trkpt lat="40.360375" lon="0.253584">
        <ele>200.956</ele>
        <time>2018-11-10T23:00:21Z</time>
      </trkpt>
      <trkpt lat="40.360519" lon="0.253451">
        <ele>201.711</ele>
        <time>2018-11-10T23:00:41Z</time>
      </trkpt>
      <trkpt lat="40.360699" lon="0.253429">
        <ele>201.608</ele>
        <time>2018-11-10T23:01:01Z</time>
      </trkpt>
      <trkpt lat="40.360878" lon="0.253518">
        <ele>199.038</ele>
        <time>2018-11-10T23:01:21Z</time>
      </trkpt>
      <trkpt lat="40.361058" lon="0.253606">
        <ele>199.475</ele>
        <time>2018-11-10T23:01:41Z</time>
      </trkpt>
      <trkpt lat="40.361202" lon="0.253761">
        <ele>198.459</ele>
        <time>2018-11-10T23:02:01Z</time>
      </trkpt>
      <trkpt lat="40.361363" lon="0.253872">
        <ele>198.937</ele>
        <time>2018-11-10T23:02:21Z</time>
      </trkpt>
      <trkpt lat="40.361525" lon="0.253982">
        <ele>198.615</ele>
        <time>2018-11-10T23:02:41Z</time>
      </trkpt>
      <trkpt lat="40.361740" lon="0.254226">
        <ele>200.248</ele>
        <time>2018-11-10T23:03:01Z</time>
      </trkpt>
      <trkpt lat="40.361902" lon="0.254336">
        <ele>201.146</ele>
        <time>2018-11-10T23:03:21Z</time>
      </trkpt>
      <trkpt lat="40.362081" lon="0.254447">
        <ele>202.788</ele>
        <time>2018-11-10T23:03:41Z</time>
      </trkpt>
      <trkpt lat="40.362261" lon="0.254491">
        <ele>203.053</ele>
        <time>2018-11-10T23:04:01Z</time>
      </trkpt>
      <trkpt lat="40.362441" lon="0.254557">
        <ele>203.504</ele>
        <time>2018-11-10T23:04:21Z</time>
      </trkpt>
      <trkpt lat="40.362620" lon="0.254646">
        <ele>204.514</ele>
        <time>2018-11-10T23:04:41Z</time>
      </trkpt>
      <trkpt lat="40.362800" lon="0.254823">
        <ele>205.908</ele>
        <time>2018-11-10T23:05:01Z</time>
      </trkpt>
      <trkpt lat="40.363177" lon="0.255155">
        <ele>206.418</ele>
        <time>2018-11-10T23:05:21Z</time>
      </trkpt>
      <trkpt lat="40.363339" lon="0.255288">
        <ele>206.925</ele>
        <time>2018-11-10T23:05:41Z</time>
      </trkpt>
      <trkpt lat="40.363465" lon="0.255465">
        <ele>208.039</ele>
        <time>2018-11-10T23:06:01Z</time>
      </trkpt>
      <trkpt lat="40.363627" lon="0.255575">
        <ele>206.967</ele>
        <time>2018-11-10T23:06:21Z</time>
      </trkpt>
      <trkpt lat="40.363788" lon="0.255708">
        <ele>205.965</ele>
        <time>2018-11-10T23:06:41Z</time>
      </trkpt>
      <trkpt lat="40.363950" lon="0.255819">
        <ele>204.988</ele>
        <time>2018-11-10T23:07:01Z</time>
      </trkpt>
      <trkpt lat="40.364040" lon="0.255996">
        <ele>205.796</ele>
        <time>2018-11-10T23:07:21Z</time>
      </trkpt>
      <trkpt lat="40.364202" lon="0.256107">
        <ele>204.398</ele>
        <time>2018-11-10T23:07:41Z</time>
      </trkpt>
      <trkpt lat="40.364363" lon="0.256217">
        <ele>202.766</ele>
        <time>2018-11-10T23:08:01Z</time>
      </trkpt>
      <trkpt lat="40.364543" lon="0.256239">
        <ele>200.429</ele>
        <time>2018-11-10T23:08:21Z</time>
      </trkpt>
      <trkpt lat="40.364723" lon="0.256306">
        <ele>199.321</ele>
        <time>2018-11-10T23:08:41Z</time>
      </trkpt>
      <trkpt lat="40.364902" lon="0.256328">
        <ele>197.908</ele>
        <time>2018-11-10T23:09:01Z</time>
      </trkpt>
      <trkpt lat="40.365082" lon="0.256328">
        <ele>195.829</ele>
        <time>2018-11-10T23:09:21Z</time>
      </trkpt>
      <trkpt lat="40.365262" lon="0.256328">
        <ele>193.666</ele>
        <time>2018-11-10T23:09:41Z</time>
      </trkpt>
      <trkpt lat="40.365441" lon="0.256416">
        <ele>192.710</ele>
        <time>2018-11-10T23:10:01Z</time>
      </trkpt>
      <trkpt lat="40.365585" lon="0.256549">
        <ele>192.668</ele>
        <time>2018-11-10T23:10:21Z</time>
      </trkpt>
      <trkpt lat="40.365747" lon="0.256682">
        <ele>192.346</ele>
        <time>2018-11-10T23:10:41Z</time>
      </trkpt>
      <trkpt lat="40.365872" lon="0.256859">
        <ele>192.719</ele>
        <time>2018-11-10T23:11:01Z</time>
      </trkpt>
      <trkpt lat="40.366016" lon="0.257014">
        <ele>192.517</ele>
        <time>2018-11-10T23:11:21Z</time>
      </trkpt>
      <trkpt lat="40.366178" lon="0.257125">
        <ele>191.749</ele>
        <time>2018-11-10T23:11:41Z</time>
      </trkpt>
      <trkpt lat="40.366196" lon="0.257257">
        <ele>192.552</ele>
        <time>2018-11-10T23:12:01Z</time>
      </trkpt>
      <trkpt lat="40.366321" lon="0.257456">
        <ele>192.053</ele>
        <time>2018-11-10T23:12:21Z</time>
      </trkpt>
      <trkpt lat="40.366465" lon="0.257611">
        <ele>191.308</ele>
        <time>2018-11-10T23:12:41Z</time>
      </trkpt>
      <trkpt lat="40.366609" lon="0.257766">
        <ele>190.908</ele>
        <time>2018-11-10T23:13:01Z</time>
      </trkpt>
      <trkpt lat="40.366771" lon="0.257877">
        <ele>189.788</ele>
        <time>2018-11-10T23:13:21Z</time>
      </trkpt>
      <trkpt lat="40.366878" lon="0.258054">
        <ele>190.115</ele>
        <time>2018-11-10T23:13:41Z</time>
      </trkpt>
      <trkpt lat="40.366968" lon="0.258253">
        <ele>189.839</ele>
        <time>2018-11-10T23:14:01Z</time>
      </trkpt>
      <trkpt lat="40.367040" lon="0.258497">
        <ele>190.117</ele>
        <time>2018-11-10T23:14:21Z</time>
      </trkpt>
      <trkpt lat="40.367112" lon="0.258718">
        <ele>190.465</ele>
        <time>2018-11-10T23:14:41Z</time>
      </trkpt>
      <trkpt lat="40.367202" lon="0.258917">
        <ele>190.798</ele>
        <time>2018-11-10T23:15:01Z</time>
      </trkpt>
      <trkpt lat="40.367310" lon="0.259094">
        <ele>190.946</ele>
        <time>2018-11-10T23:15:21Z</time>
      </trkpt>
      <trkpt lat="40.367399" lon="0.259293">
        <ele>191.458</ele>
        <time>2018-11-10T23:15:41Z</time>
      </trkpt>
      <trkpt lat="40.367543" lon="0.259426">
        <ele>191.539</ele>
        <time>2018-11-10T23:16:01Z</time>
      </trkpt>
      <trkpt lat="40.367723" lon="0.259515">
        <ele>191.701</ele>
        <time>2018-11-10T23:16:21Z</time>
      </trkpt>
      <trkpt lat="40.367903" lon="0.259581">
        <ele>192.021</ele>
        <time>2018-11-10T23:16:41Z</time>
      </trkpt>
      <trkpt lat="40.367956" lon="0.259625">
        <ele>192.408</ele>
        <time>2018-11-10T23:17:01Z</time>
      </trkpt>
      <trkpt lat="40.368226" lon="0.259559">
        <ele>192.716</ele>
        <time>2018-11-10T23:17:21Z</time>
      </trkpt>
      <trkpt lat="40.368406" lon="0.259492">
        <ele>192.843</ele>
        <time>2018-11-10T23:17:41Z</time>
      </trkpt>
      <trkpt lat="40.368585" lon="0.259448">
        <ele>191.367</ele>
        <time>2018-11-10T23:18:01Z</time>
      </trkpt>
      <trkpt lat="40.368765" lon="0.259470">
        <ele>188.875</ele>
        <time>2018-11-10T23:18:21Z</time>
      </trkpt>
      <trkpt lat="40.368927" lon="0.259360">
        <ele>187.373</ele>
        <time>2018-11-10T23:18:41Z</time>
      </trkpt>
      <trkpt lat="40.369070" lon="0.259515">
        <ele>184.816</ele>
        <time>2018-11-10T23:19:01Z</time>
      </trkpt>
      <trkpt lat="40.369250" lon="0.259559">
        <ele>183.054</ele>
        <time>2018-11-10T23:19:21Z</time>
      </trkpt>
      <trkpt lat="40.369430" lon="0.259515">
        <ele>182.396</ele>
        <time>2018-11-10T23:19:41Z</time>
      </trkpt>
      <trkpt lat="40.369609" lon="0.259448">
        <ele>181.222</ele>
        <time>2018-11-10T23:20:01Z</time>
      </trkpt>
      <trkpt lat="40.369699" lon="0.259647">
        <ele>178.562</ele>
        <time>2018-11-10T23:20:21Z</time>
      </trkpt>
      <trkpt lat="40.369520" lon="0.259692">
        <ele>179.608</ele>
        <time>2018-11-10T23:20:41Z</time>
      </trkpt>
      <trkpt lat="40.369412" lon="0.259891">
        <ele>177.308</ele>
        <time>2018-11-10T23:21:01Z</time>
      </trkpt>
      <trkpt lat="40.369358" lon="0.260112">
        <ele>175.365</ele>
        <time>2018-11-10T23:21:21Z</time>
      </trkpt>
      <trkpt lat="40.369358" lon="0.260355">
        <ele>175.532</ele>
        <time>2018-11-10T23:21:41Z</time>
      </trkpt>
      <trkpt lat="40.369268" lon="0.260555">
        <ele>176.436</ele>
        <time>2018-11-10T23:22:01Z</time>
      </trkpt>
      <trkpt lat="40.369106" lon="0.260665">
        <ele>174.994</ele>
        <time>2018-11-10T23:22:21Z</time>
      </trkpt>
      <trkpt lat="40.368981" lon="0.260842">
        <ele>175.262</ele>
        <time>2018-11-10T23:22:41Z</time>
      </trkpt>
      <trkpt lat="40.368891" lon="0.261041">
        <ele>175.225</ele>
        <time>2018-11-10T23:23:01Z</time>
      </trkpt>
      <trkpt lat="40.368819" lon="0.261263">
        <ele>175.423</ele>
        <time>2018-11-10T23:23:21Z</time>
      </trkpt>
      <trkpt lat="40.368747" lon="0.261484">
        <ele>175.575</ele>
        <time>2018-11-10T23:23:41Z</time>
      </trkpt>
      <trkpt lat="40.368711" lon="0.261705">
        <ele>175.561</ele>
        <time>2018-11-10T23:24:01Z</time>
      </trkpt>
      <trkpt lat="40.368639" lon="0.261927">
        <ele>174.221</ele>
        <time>2018-11-10T23:24:21Z</time>
      </trkpt>
      <trkpt lat="40.368639" lon="0.262148">
        <ele>172.813</ele>
        <time>2018-11-10T23:24:41Z</time>
      </trkpt>
      <trkpt lat="40.368783" lon="0.262281">
        <ele>172.908</ele>
        <time>2018-11-10T23:25:01Z</time>
      </trkpt>
      <trkpt lat="40.368945" lon="0.262391">
        <ele>172.169</ele>
        <time>2018-11-10T23:25:21Z</time>
      </trkpt>
      <trkpt lat="40.369124" lon="0.262436">
        <ele>171.076</ele>
        <time>2018-11-10T23:25:41Z</time>
      </trkpt>
      <trkpt lat="40.369304" lon="0.262436">
        <ele>170.070</ele>
        <time>2018-11-10T23:26:01Z</time>
      </trkpt>
      <trkpt lat="40.369502" lon="0.262436">
        <ele>169.118</ele>
        <time>2018-11-10T23:26:21Z</time>
      </trkpt>
      <trkpt lat="40.369681" lon="0.262413">
        <ele>168.956</ele>
        <time>2018-11-10T23:26:41Z</time>
      </trkpt>
      <trkpt lat="40.369861" lon="0.262413">
        <ele>168.439</ele>
        <time>2018-11-10T23:27:01Z</time>
      </trkpt>
      <trkpt lat="40.370023" lon="0.262546">
        <ele>167.697</ele>
        <time>2018-11-10T23:27:21Z</time>
      </trkpt>
      <trkpt lat="40.370202" lon="0.262635">
        <ele>169.429</ele>
        <time>2018-11-10T23:27:41Z</time>
      </trkpt>
      <trkpt lat="40.370364" lon="0.262745">
        <ele>171.927</ele>
        <time>2018-11-10T23:28:01Z</time>
      </trkpt>
      <trkpt lat="40.370597" lon="0.262900">
        <ele>174.768</ele>
        <time>2018-11-10T23:28:21Z</time>
      </trkpt>
      <trkpt lat="40.370687" lon="0.263122">
        <ele>177.614</ele>
        <time>2018-11-10T23:28:41Z</time>
      </trkpt>
      <trkpt lat="40.370831" lon="0.263276">
        <ele>178.108</ele>
        <time>2018-11-10T23:29:01Z</time>
      </trkpt>
      <trkpt lat="40.370993" lon="0.263387">
        <ele>177.355</ele>
        <time>2018-11-10T23:29:21Z</time>
      </trkpt>
      <trkpt lat="40.371136" lon="0.263520">
        <ele>177.452</ele>
        <time>2018-11-10T23:29:41Z</time>
      </trkpt>
      <trkpt lat="40.371280" lon="0.263675">
        <ele>177.456</ele>
        <time>2018-11-10T23:30:01Z</time>
      </trkpt>
      <trkpt lat="40.371424" lon="0.263830">
        <ele>177.034</ele>
        <time>2018-11-10T23:30:21Z</time>
      </trkpt>
      <trkpt lat="40.371568" lon="0.263985">
        <ele>176.542</ele>
        <time>2018-11-10T23:30:41Z</time>
      </trkpt>
      <trkpt lat="40.371711" lon="0.264117">
        <ele>175.745</ele>
        <time>2018-11-10T23:31:01Z</time>
      </trkpt>
      <trkpt lat="40.371873" lon="0.264228">
        <ele>174.893</ele>
        <time>2018-11-10T23:31:21Z</time>
      </trkpt>
      <trkpt lat="40.372035" lon="0.264361">
        <ele>174.265</ele>
        <time>2018-11-10T23:31:41Z</time>
      </trkpt>
      <trkpt lat="40.371814" lon="0.264766">
        <ele>173.977</ele>
        <time>2018-01-17T00:46:03Z</time>
      </trkpt>
      <trkpt lat="40.371618" lon="0.265056">
        <ele>175.461</ele>
        <time>2018-01-17T00:46:23Z</time>
      </trkpt>
      <trkpt lat="40.371430" lon="0.265281">
        <ele>177.527</ele>
        <time>2018-01-17T00:46:43Z</time>
      </trkpt>
      <trkpt lat="40.371250" lon="0.265206">
        <ele>177.908</ele>
        <time>2018-01-17T00:47:03Z</time>
      </trkpt>
      <trkpt lat="40.371021" lon="0.265560">
        <ele>179.320</ele>
        <time>2018-01-17T00:47:23Z</time>
      </trkpt>
      <trkpt lat="40.370882" lon="0.265861">
        <ele>179.217</ele>
        <time>2018-01-17T00:47:43Z</time>
      </trkpt>
      <trkpt lat="40.370711" lon="0.266343">
        <ele>174.671</ele>
        <time>2018-01-17T00:48:03Z</time>
      </trkpt>
      <trkpt lat="40.370515" lon="0.266526">
        <ele>173.859</ele>
        <time>2018-01-17T00:48:23Z</time>
      </trkpt>
      <trkpt lat="40.370384" lon="0.266558">
        <ele>174.497</ele>
        <time>2018-01-17T00:48:43Z</time>
      </trkpt>
      <trkpt lat="40.370261" lon="0.266665">
        <ele>174.310</ele>
        <time>2018-01-17T00:49:03Z</time>
      </trkpt>
      <trkpt lat="40.370261" lon="0.266815">
        <ele>173.398</ele>
        <time>2018-01-17T00:49:23Z</time>
      </trkpt>
      <trkpt lat="40.370465" lon="0.267062">
        <ele>169.650</ele>
        <time>2018-01-17T00:49:43Z</time>
      </trkpt>
      <trkpt lat="40.370457" lon="0.267191">
        <ele>170.071</ele>
        <time>2018-01-17T00:50:03Z</time>
      </trkpt>
      <trkpt lat="40.370294" lon="0.267105">
        <ele>172.941</ele>
        <time>2018-01-17T00:50:23Z</time>
      </trkpt>
      <trkpt lat="40.370269" lon="0.267202">
        <ele>174.115</ele>
        <time>2018-01-17T00:50:43Z</time>
      </trkpt>
      <trkpt lat="40.370376" lon="0.267534">
        <ele>177.608</ele>
        <time>2018-01-17T00:51:03Z</time>
      </trkpt>
      <trkpt lat="40.370482" lon="0.267985">
        <ele>179.940</ele>
        <time>2018-01-17T00:51:23Z</time>
      </trkpt>
      <trkpt lat="40.370629" lon="0.268435">
        <ele>179.557</ele>
        <time>2018-01-17T00:51:43Z</time>
      </trkpt>
      <trkpt lat="40.370237" lon="0.269294">
        <ele>180.541</ele>
        <time>2018-01-17T00:52:03Z</time>
      </trkpt>
      <trkpt lat="40.370081" lon="0.269959">
        <ele>181.949</ele>
        <time>2018-01-17T00:52:23Z</time>
      </trkpt>
      <trkpt lat="40.369918" lon="0.270356">
        <ele>181.647</ele>
        <time>2018-01-17T00:52:43Z</time>
      </trkpt>
      <trkpt lat="40.369885" lon="0.270946">
        <ele>178.870</ele>
        <time>2018-01-17T00:53:03Z</time>
      </trkpt>
      <trkpt lat="40.369615" lon="0.271558">
        <ele>175.728</ele>
        <time>2018-01-17T00:53:23Z</time>
      </trkpt>
      <trkpt lat="40.369436" lon="0.271912">
        <ele>174.360</ele>
        <time>2018-01-17T00:53:43Z</time>
      </trkpt>
      <trkpt lat="40.369362" lon="0.272298">
        <ele>172.634</ele>
        <time>2018-01-17T00:54:03Z</time>
      </trkpt>
      <trkpt lat="40.369403" lon="0.272588">
        <ele>169.755</ele>
        <time>2018-01-17T00:54:23Z</time>
      </trkpt>
      <trkpt lat="40.369337" lon="0.272856">
        <ele>169.310</ele>
        <time>2018-01-17T00:54:43Z</time>
      </trkpt>
      <trkpt lat="40.369199" lon="0.273242">
        <ele>170.708</ele>
        <time>2018-01-17T00:55:03Z</time>
      </trkpt>
      <trkpt lat="40.369239" lon="0.273489">
        <ele>167.966</ele>
        <time>2018-01-17T00:55:23Z</time>
      </trkpt>
      <trkpt lat="40.369117" lon="0.274004">
        <ele>161.483</ele>
        <time>2018-01-17T00:55:43Z</time>
      </trkpt>
      <trkpt lat="40.369117" lon="0.274143">
        <ele>160.377</ele>
        <time>2018-01-17T00:56:03Z</time>
      </trkpt>
      <trkpt lat="40.368970" lon="0.274658">
        <ele>157.915</ele>
        <time>2018-01-17T00:56:23Z</time>
      </trkpt>
      <trkpt lat="40.367981" lon="0.275141">
        <ele>160.463</ele>
        <time>2018-01-17T00:56:43Z</time>
      </trkpt>
      <trkpt lat="40.367171" lon="0.275602">
        <ele>159.516</ele>
        <time>2018-01-17T00:57:03Z</time>
      </trkpt>
      <trkpt lat="40.366190" lon="0.276418">
        <ele>157.234</ele>
        <time>2018-01-17T00:57:23Z</time>
      </trkpt>
      <trkpt lat="40.364694" lon="0.278081">
        <ele>153.986</ele>
        <time>2018-01-17T00:57:43Z</time>
      </trkpt>
      <trkpt lat="40.363828" lon="0.279701">
        <ele>151.389</ele>
        <time>2018-01-17T00:58:03Z</time>
      </trkpt>
      <trkpt lat="40.362961" lon="0.280741">
        <ele>149.606</ele>
        <time>2018-01-17T00:58:23Z</time>
      </trkpt>
      <trkpt lat="40.361637" lon="0.282222">
        <ele>148.026</ele>
        <time>2018-01-17T00:58:43Z</time>
      </trkpt>
      <trkpt lat="40.361179" lon="0.282898">
        <ele>145.908</ele>
        <time>2018-01-17T00:59:03Z</time>
      </trkpt>
      <trkpt lat="40.360705" lon="0.284110">
        <ele>142.391</ele>
        <time>2018-01-17T00:59:23Z</time>
      </trkpt>
      <trkpt lat="40.360460" lon="0.284539">
        <ele>140.718</ele>
        <time>2018-01-17T00:59:43Z</time>
      </trkpt>
      <trkpt lat="40.360084" lon="0.284636">
        <ele>138.312</ele>
        <time>2018-01-17T01:00:03Z</time>
      </trkpt>
      <trkpt lat="40.360026" lon="0.284926">
        <ele>137.220</ele>
        <time>2018-01-17T01:00:23Z</time>
      </trkpt>
      <trkpt lat="40.360133" lon="0.285763">
        <ele>136.178</ele>
        <time>2018-01-17T01:00:43Z</time>
      </trkpt>
      <trkpt lat="40.360296" lon="0.288477">
        <ele>127.571</ele>
        <time>2018-01-17T01:01:03Z</time>
      </trkpt>
      <trkpt lat="40.360264" lon="0.290558">
        <ele>128.029</ele>
        <time>2018-01-17T01:01:23Z</time>
      </trkpt>
      <trkpt lat="40.360288" lon="0.293058">
        <ele>125.071</ele>
        <time>2018-01-17T01:01:43Z</time>
      </trkpt>
      <trkpt lat="40.360165" lon="0.294657">
        <ele>123.598</ele>
        <time>2018-01-17T01:02:03Z</time>
      </trkpt>
      <trkpt lat="40.360296" lon="0.295290">
        <ele>122.015</ele>
        <time>2018-01-17T01:02:23Z</time>
      </trkpt>
      <trkpt lat="40.360280" lon="0.295912">
        <ele>120.026</ele>
        <time>2018-01-17T01:02:43Z</time>
      </trkpt>
      <trkpt lat="40.360010" lon="0.296341">
        <ele>120.008</ele>
        <time>2018-01-17T01:03:03Z</time>
      </trkpt>
      <trkpt lat="40.359757" lon="0.296685">
        <ele>120.082</ele>
        <time>2018-01-17T01:03:23Z</time>
      </trkpt>
      <trkpt lat="40.359593" lon="0.297114">
        <ele>120.589</ele>
        <time>2018-01-17T01:03:43Z</time>
      </trkpt>
      <trkpt lat="40.359585" lon="0.297875">
        <ele>116.653</ele>
        <time>2018-01-17T01:04:03Z</time>
      </trkpt>
      <trkpt lat="40.359495" lon="0.298390">
        <ele>117.081</ele>
        <time>2018-01-17T01:04:23Z</time>
      </trkpt>
      <trkpt lat="40.359225" lon="0.299249">
        <ele>117.259</ele>
        <time>2018-01-17T01:04:43Z</time>
      </trkpt>
      <trkpt lat="40.358473" lon="0.301137">
        <ele>114.412</ele>
        <time>2018-01-17T01:05:03Z</time>
      </trkpt>
      <trkpt lat="40.357925" lon="0.301234">
        <ele>112.330</ele>
        <time>2018-01-17T01:05:23Z</time>
      </trkpt>
      <trkpt lat="40.357443" lon="0.301437">
        <ele>112.262</ele>
        <time>2018-01-17T01:05:43Z</time>
      </trkpt>
      <trkpt lat="40.357198" lon="0.302210">
        <ele>114.016</ele>
        <time>2018-01-17T01:06:03Z</time>
      </trkpt>
      <trkpt lat="40.356953" lon="0.302896">
        <ele>122.276</ele>
        <time>2018-01-17T01:06:23Z</time>
      </trkpt>
      <trkpt lat="40.356625" lon="0.303315">
        <ele>125.913</ele>
        <time>2018-01-17T01:06:43Z</time>
      </trkpt>
      <trkpt lat="40.356429" lon="0.303379">
        <ele>126.208</ele>
        <time>2018-01-17T01:07:03Z</time>
      </trkpt>
      <trkpt lat="40.356315" lon="0.303444">
        <ele>126.754</ele>
        <time>2018-01-17T01:07:23Z</time>
      </trkpt>
      <trkpt lat="40.355963" lon="0.303787">
        <ele>127.991</ele>
        <time>2018-01-17T01:07:43Z</time>
      </trkpt>
      <trkpt lat="40.355530" lon="0.304248">
        <ele>128.375</ele>
        <time>2018-01-17T01:08:03Z</time>
      </trkpt>
      <trkpt lat="40.355023" lon="0.303551">
        <ele>131.083</ele>
        <time>2018-01-17T01:08:23Z</time>
      </trkpt>
      <trkpt lat="40.354304" lon="0.302092">
        <ele>129.181</ele>
        <time>2018-01-17T01:08:43Z</time>
      </trkpt>
      <trkpt lat="40.352554" lon="0.303626">
        <ele>147.724</ele>
        <time>2018-01-17T01:09:03Z</time>
      </trkpt>
      <trkpt lat="40.351671" lon="0.304345">
        <ele>157.062</ele>
        <time>2018-01-17T01:09:23Z</time>
      </trkpt>
      <trkpt lat="40.350747" lon="0.305128">
        <ele>168.984</ele>
        <time>2018-01-17T01:09:43Z</time>
      </trkpt>
      <trkpt lat="40.350199" lon="0.305632">
        <ele>175.189</ele>
        <time>2018-01-17T01:10:03Z</time>
      </trkpt>
      <trkpt lat="40.349970" lon="0.305965">
        <ele>176.306</ele>
        <time>2018-01-17T01:10:23Z</time>
      </trkpt>
      <trkpt lat="40.349848" lon="0.306126">
        <ele>176.626</ele>
        <time>2018-01-17T01:10:43Z</time>
      </trkpt>
      <trkpt lat="40.349561" lon="0.306373">
        <ele>179.308</ele>
        <time>2018-01-17T01:11:03Z</time>
      </trkpt>
      <trkpt lat="40.349463" lon="0.306652">
        <ele>181.671</ele>
        <time>2018-01-17T01:11:23Z</time>
      </trkpt>
      <trkpt lat="40.349619" lon="0.307027">
        <ele>180.258</ele>
        <time>2018-01-17T01:11:43Z</time>
      </trkpt>
      <trkpt lat="40.349619" lon="0.307349">
        <ele>183.162</ele>
        <time>2018-01-17T01:12:03Z</time>
      </trkpt>
      <trkpt lat="40.349905" lon="0.307714">
        <ele>181.720</ele>
        <time>2018-01-17T01:12:23Z</time>
      </trkpt>
      <trkpt lat="40.349905" lon="0.308250">
        <ele>183.738</ele>
        <time>2018-01-17T01:12:43Z</time>
      </trkpt>
      <trkpt lat="40.349741" lon="0.308980">
        <ele>188.951</ele>
        <time>2018-01-17T01:13:03Z</time>
      </trkpt>
      <trkpt lat="40.349578" lon="0.309581">
        <ele>193.839</ele>
        <time>2018-01-17T01:13:23Z</time>
      </trkpt>
      <trkpt lat="40.349439" lon="0.310053">
        <ele>195.211</ele>
        <time>2018-01-17T01:13:43Z</time>
      </trkpt>
      <trkpt lat="40.348981" lon="0.310643">
        <ele>208.818</ele>
        <time>2018-01-17T01:14:03Z</time>
      </trkpt>
      <trkpt lat="40.348580" lon="0.311447">
        <ele>212.798</ele>
        <time>2018-01-17T01:14:23Z</time>
      </trkpt>
      <trkpt lat="40.348368" lon="0.312166">
        <ele>217.117</ele>
        <time>2018-01-17T01:14:43Z</time>
      </trkpt>
      <trkpt lat="40.347991" lon="0.313153">
        <ele>226.508</ele>
        <time>2018-01-17T01:15:03Z</time>
      </trkpt>
      <trkpt lat="40.347697" lon="0.313776">
        <ele>233.534</ele>
        <time>2018-01-17T01:15:23Z</time>
      </trkpt>
      <trkpt lat="40.347493" lon="0.314237">
        <ele>236.811</ele>
        <time>2018-01-17T01:15:43Z</time>
      </trkpt>
      <trkpt lat="40.347501" lon="0.314602">
        <ele>238.665</ele>
        <time>2018-01-17T01:16:03Z</time>
      </trkpt>
      <trkpt lat="40.347288" lon="0.314902">
        <ele>244.933</ele>
        <time>2018-01-17T01:16:23Z</time>
      </trkpt>
      <trkpt lat="40.347108" lon="0.315492">
        <ele>250.331</ele>
        <time>2018-01-17T01:16:43Z</time>
      </trkpt>
      <trkpt lat="40.346928" lon="0.315814">
        <ele>253.984</ele>
        <time>2018-01-17T01:17:03Z</time>
      </trkpt>
      <trkpt lat="40.346879" lon="0.316758">
        <ele>259.742</ele>
        <time>2018-01-17T01:17:23Z</time>
      </trkpt>
      <trkpt lat="40.346610" lon="0.317520">
        <ele>267.094</ele>
        <time>2018-01-17T01:17:43Z</time>
      </trkpt>
      <trkpt lat="40.346495" lon="0.318078">
        <ele>272.224</ele>
        <time>2018-01-17T01:18:03Z</time>
      </trkpt>
      <trkpt lat="40.346503" lon="0.318518">
        <ele>278.104</ele>
        <time>2018-01-17T01:18:23Z</time>
      </trkpt>
      <trkpt lat="40.346266" lon="0.318775">
        <ele>284.814</ele>
        <time>2018-01-17T01:18:43Z</time>
      </trkpt>
      <trkpt lat="40.345931" lon="0.319076">
        <ele>293.708</ele>
        <time>2018-01-17T01:19:03Z</time>
      </trkpt>
      <trkpt lat="40.345604" lon="0.319043">
        <ele>301.095</ele>
        <time>2018-01-17T01:19:23Z</time>
      </trkpt>
      <trkpt lat="40.345702" lon="0.319344">
        <ele>300.362</ele>
        <time>2018-01-17T01:19:43Z</time>
      </trkpt>
      <trkpt lat="40.345726" lon="0.319945">
        <ele>303.076</ele>
        <time>2018-01-17T01:20:03Z</time>
      </trkpt>
      <trkpt lat="40.345563" lon="0.320599">
        <ele>309.744</ele>
        <time>2018-01-17T01:20:23Z</time>
      </trkpt>
      <trkpt lat="40.345473" lon="0.320975">
        <ele>318.872</ele>
        <time>2018-01-17T01:20:43Z</time>
      </trkpt>
      <trkpt lat="40.345612" lon="0.321318">
        <ele>323.955</ele>
        <time>2018-01-17T01:21:03Z</time>
      </trkpt>
      <trkpt lat="40.345710" lon="0.321565">
        <ele>330.053</ele>
        <time>2018-01-17T01:21:23Z</time>
      </trkpt>
      <trkpt lat="40.345939" lon="0.321790">
        <ele>336.345</ele>
        <time>2018-01-17T01:21:43Z</time>
      </trkpt>
      <trkpt lat="40.346233" lon="0.321951">
        <ele>342.845</ele>
        <time>2018-01-17T01:22:03Z</time>
      </trkpt>
      <trkpt lat="40.346176" lon="0.322101">
        <ele>346.847</ele>
        <time>2018-01-17T01:22:23Z</time>
      </trkpt>
      <trkpt lat="40.345808" lon="0.322037">
        <ele>345.111</ele>
        <time>2018-01-17T01:22:43Z</time>
      </trkpt>
      <trkpt lat="40.345269" lon="0.321940">
        <ele>343.008</ele>
        <time>2018-01-17T01:23:03Z</time>
      </trkpt>
      <trkpt lat="40.344892" lon="0.321887">
        <ele>347.377</ele>
        <time>2018-01-17T01:23:23Z</time>
      </trkpt>
      <trkpt lat="40.344762" lon="0.322112">
        <ele>349.314</ele>
        <time>2018-01-17T01:23:43Z</time>
      </trkpt>
      <trkpt lat="40.344749" lon="0.322278">
        <ele>348.828</ele>
        <time>2018-01-17T01:24:03Z</time>
      </trkpt>
      <trkpt lat="40.344704" lon="0.322396">
        <ele>347.686</ele>
        <time>2018-01-17T01:24:23Z</time>
      </trkpt>
      <trkpt lat="40.344655" lon="0.322482">
        <ele>346.414</ele>
        <time>2018-01-17T01:24:43Z</time>
      </trkpt>
      <trkpt lat="40.344586" lon="0.322573">
        <ele>344.647</ele>
        <time>2018-01-17T01:25:03Z</time>
      </trkpt>
      <trkpt lat="40.344545" lon="0.322729">
        <ele>341.965</ele>
        <time>2018-01-17T01:25:23Z</time>
      </trkpt>
      <trkpt lat="40.344484" lon="0.322804">
        <ele>339.567</ele>
        <time>2018-01-17T01:25:43Z</time>
      </trkpt>
      <trkpt lat="40.344426" lon="0.322745">
        <ele>339.485</ele>
        <time>2018-01-17T01:26:03Z</time>
      </trkpt>
      <trkpt lat="40.344357" lon="0.322782">
        <ele>338.089</ele>
        <time>2018-01-17T01:26:23Z</time>
      </trkpt>
      <trkpt lat="40.344287" lon="0.322986">
        <ele>334.317</ele>
        <time>2018-01-17T01:26:43Z</time>
      </trkpt>
      <trkpt lat="40.344238" lon="0.323110">
        <ele>331.808</ele>
        <time>2018-01-17T01:27:03Z</time>
      </trkpt>
      <trkpt lat="40.344132" lon="0.323212">
        <ele>328.461</ele>
        <time>2018-01-17T01:27:23Z</time>
      </trkpt>
      <trkpt lat="40.344083" lon="0.323372">
        <ele>324.798</ele>
        <time>2018-01-17T01:27:43Z</time>
      </trkpt>
      <trkpt lat="40.344021" lon="0.323555">
        <ele>321.642</ele>
        <time>2018-01-17T01:28:03Z</time>
      </trkpt>
      <trkpt lat="40.343936" lon="0.323721">
        <ele>318.220</ele>
        <time>2018-01-17T01:28:23Z</time>
      </trkpt>
      <trkpt lat="40.343842" lon="0.323861">
        <ele>316.138</ele>
        <time>2018-01-17T01:28:43Z</time>
      </trkpt>
      <trkpt lat="40.343764" lon="0.324064">
        <ele>313.451</ele>
        <time>2018-01-17T01:29:03Z</time>
      </trkpt>
      <trkpt lat="40.343711" lon="0.324258">
        <ele>310.379</ele>
        <time>2018-01-17T01:29:23Z</time>
      </trkpt>
      <trkpt lat="40.343654" lon="0.324397">
        <ele>308.071</ele>
        <time>2018-01-17T01:29:43Z</time>
      </trkpt>
      <trkpt lat="40.343613" lon="0.324510">
        <ele>306.127</ele>
        <time>2018-01-17T01:30:03Z</time>
      </trkpt>
      <trkpt lat="40.343564" lon="0.324671">
        <ele>304.068</ele>
        <time>2018-01-17T01:30:23Z</time>
      </trkpt>
      <trkpt lat="40.343531" lon="0.324805">
        <ele>301.614</ele>
        <time>2018-01-17T01:30:43Z</time>
      </trkpt>
      <trkpt lat="40.343531" lon="0.324917">
        <ele>299.408</ele>
        <time>2018-01-17T01:31:03Z</time>
      </trkpt>
      <trkpt lat="40.343531" lon="0.324993">
        <ele>297.975</ele>
        <time>2018-01-17T01:31:23Z</time>
      </trkpt>
      <trkpt lat="40.343637" lon="0.325052">
        <ele>298.062</ele>
        <time>2018-01-17T01:31:43Z</time>
      </trkpt>
      <trkpt lat="40.343523" lon="0.325143">
        <ele>296.576</ele>
        <time>2018-01-17T01:32:03Z</time>
      </trkpt>
      <trkpt lat="40.343367" lon="0.325229">
        <ele>294.734</ele>
        <time>2018-01-17T01:32:23Z</time>
      </trkpt>
      <trkpt lat="40.343192" lon="0.325288">
        <ele>294.452</ele>
        <time>2018-01-17T01:32:43Z</time>
      </trkpt>
      <trkpt lat="40.343077" lon="0.325341">
        <ele>293.985</ele>
        <time>2018-01-17T01:33:03Z</time>
      </trkpt>
      <trkpt lat="40.342958" lon="0.325427">
        <ele>294.733</ele>
        <time>2018-01-17T01:33:23Z</time>
      </trkpt>
      <trkpt lat="40.342873" lon="0.325615">
        <ele>293.175</ele>
        <time>2018-01-17T01:33:43Z</time>
      </trkpt>
      <trkpt lat="40.342828" lon="0.325845">
        <ele>289.967</ele>
        <time>2018-01-17T01:34:03Z</time>
      </trkpt>
      <trkpt lat="40.342721" lon="0.326189">
        <ele>287.081</ele>
        <time>2018-01-17T01:34:23Z</time>
      </trkpt>
      <trkpt lat="40.342664" lon="0.326430">
        <ele>284.419</ele>
        <time>2018-01-17T01:34:43Z</time>
      </trkpt>
      <trkpt lat="40.342451" lon="0.326677">
        <ele>282.508</ele>
        <time>2018-01-17T01:35:03Z</time>
      </trkpt>
      <trkpt lat="40.342292" lon="0.326752">
        <ele>282.639</ele>
        <time>2018-01-17T01:35:23Z</time>
      </trkpt>
      <trkpt lat="40.342141" lon="0.326865">
        <ele>280.866</ele>
        <time>2018-01-17T01:35:43Z</time>
      </trkpt>
      <trkpt lat="40.341973" lon="0.327079">
        <ele>275.780</ele>
        <time>2018-01-17T01:36:03Z</time>
      </trkpt>
      <trkpt lat="40.341916" lon="0.327229">
        <ele>270.818</ele>
        <time>2018-01-17T01:36:23Z</time>
      </trkpt>
      <trkpt lat="40.341810" lon="0.327369">
        <ele>268.936</ele>
        <time>2018-01-17T01:36:43Z</time>
      </trkpt>
      <trkpt lat="40.341646" lon="0.327433">
        <ele>266.919</ele>
        <time>2018-01-17T01:37:03Z</time>
      </trkpt>
      <trkpt lat="40.341523" lon="0.327385">
        <ele>267.477</ele>
        <time>2018-01-17T01:37:23Z</time>
      </trkpt>
      <trkpt lat="40.341409" lon="0.327433">
        <ele>266.319</ele>
        <time>2018-01-17T01:37:43Z</time>
      </trkpt>
      <trkpt lat="40.341315" lon="0.327444">
        <ele>265.743</ele>
        <time>2018-01-17T01:38:03Z</time>
      </trkpt>
      <trkpt lat="40.341147" lon="0.327530">
        <ele>263.864</ele>
        <time>2018-01-17T01:38:23Z</time>
      </trkpt>
      <trkpt lat="40.341069" lon="0.327503">
        <ele>264.110</ele>
        <time>2018-01-17T01:38:43Z</time>
      </trkpt>
      <trkpt lat="40.340980" lon="0.327449">
        <ele>265.208</ele>
        <time>2018-01-17T01:39:03Z</time>
      </trkpt>
      <trkpt lat="40.340926" lon="0.327487">
        <ele>264.987</ele>
        <time>2018-01-17T01:39:23Z</time>
      </trkpt>
      <trkpt lat="40.340906" lon="0.327616">
        <ele>263.554</ele>
        <time>2018-01-17T01:39:43Z</time>
      </trkpt>
      <trkpt lat="40.340820" lon="0.327739">
        <ele>262.768</ele>
        <time>2018-01-17T01:40:03Z</time>
      </trkpt>
      <trkpt lat="40.340693" lon="0.327916">
        <ele>264.036</ele>
        <time>2018-01-17T01:40:23Z</time>
      </trkpt>
      <trkpt lat="40.340652" lon="0.327964">
        <ele>264.654</ele>
        <time>2018-01-17T01:40:43Z</time>
      </trkpt>
      <trkpt lat="40.340595" lon="0.328163">
        <ele>263.427</ele>
        <time>2018-01-17T01:41:03Z</time>
      </trkpt>
      <trkpt lat="40.340522" lon="0.328335">
        <ele>262.085</ele>
        <time>2018-01-17T01:41:23Z</time>
      </trkpt>
      <trkpt lat="40.340362" lon="0.328506">
        <ele>262.217</ele>
        <time>2018-01-17T01:41:43Z</time>
      </trkpt>
      <trkpt lat="40.340194" lon="0.328769">
        <ele>259.112</ele>
        <time>2018-01-17T01:42:03Z</time>
      </trkpt>
      <trkpt lat="40.340137" lon="0.329043">
        <ele>253.232</ele>
        <time>2018-01-17T01:42:23Z</time>
      </trkpt>
      <trkpt lat="40.340096" lon="0.329204">
        <ele>250.305</ele>
        <time>2018-01-17T01:42:43Z</time>
      </trkpt>
      <trkpt lat="40.339982" lon="0.329354">
        <ele>249.008</ele>
        <time>2018-01-17T01:43:03Z</time>
      </trkpt>
      <trkpt lat="40.339818" lon="0.329456">
        <ele>246.864</ele>
        <time>2018-01-17T01:43:23Z</time>
      </trkpt>
      <trkpt lat="40.339692" lon="0.329509">
        <ele>245.741</ele>
        <time>2018-01-17T01:43:43Z</time>
      </trkpt>
      <trkpt lat="40.339569" lon="0.329456">
        <ele>247.385</ele>
        <time>2018-01-17T01:44:03Z</time>
      </trkpt>
      <trkpt lat="40.339499" lon="0.329402">
        <ele>249.053</ele>
        <time>2018-01-17T01:44:23Z</time>
      </trkpt>
      <trkpt lat="40.339426" lon="0.329466">
        <ele>247.981</ele>
        <time>2018-01-17T01:44:43Z</time>
      </trkpt>
      <trkpt lat="40.339279" lon="0.329509">
        <ele>250.034</ele>
        <time>2018-01-17T01:45:03Z</time>
      </trkpt>
      <trkpt lat="40.339131" lon="0.329660">
        <ele>249.882</ele>
        <time>2018-01-17T01:45:23Z</time>
      </trkpt>
      <trkpt lat="40.339050" lon="0.329788">
        <ele>248.314</ele>
        <time>2018-01-17T01:45:43Z</time>
      </trkpt>
      <trkpt lat="40.338939" lon="0.330051">
        <ele>242.318</ele>
        <time>2018-01-17T01:46:03Z</time>
      </trkpt>
      <trkpt lat="40.338870" lon="0.330319">
        <ele>237.098</ele>
        <time>2018-01-17T01:46:23Z</time>
      </trkpt>
      <trkpt lat="40.338784" lon="0.330550">
        <ele>235.017</ele>
        <time>2018-01-17T01:46:43Z</time>
      </trkpt>
      <trkpt lat="40.338600" lon="0.330732">
        <ele>233.608</ele>
        <time>2018-01-17T01:47:03Z</time>
      </trkpt>
      <trkpt lat="40.338330" lon="0.330861">
        <ele>230.474</ele>
        <time>2018-01-17T01:47:23Z</time>
      </trkpt>
      <trkpt lat="40.338138" lon="0.330915">
        <ele>227.321</ele>
        <time>2018-01-17T01:47:43Z</time>
      </trkpt>
      <trkpt lat="40.337950" lon="0.330974">
        <ele>223.855</ele>
        <time>2018-01-17T01:48:03Z</time>
      </trkpt>
      <trkpt lat="40.337831" lon="0.330974">
        <ele>221.833</ele>
        <time>2018-01-17T01:48:23Z</time>
      </trkpt>
      <trkpt lat="40.337737" lon="0.330936">
        <ele>220.741</ele>
        <time>2018-01-17T01:48:43Z</time>
      </trkpt>
      <trkpt lat="40.337643" lon="0.330995">
        <ele>218.414</ele>
        <time>2018-01-17T01:49:03Z</time>
      </trkpt>
      <trkpt lat="40.337467" lon="0.330990">
        <ele>215.532</ele>
        <time>2018-01-17T01:49:23Z</time>
      </trkpt>
      <trkpt lat="40.337365" lon="0.331001">
        <ele>213.994</ele>
        <time>2018-01-17T01:49:43Z</time>
      </trkpt>
      <trkpt lat="40.337255" lon="0.330963">
        <ele>212.017</ele>
        <time>2018-01-17T01:50:03Z</time>
      </trkpt>
      <trkpt lat="40.337140" lon="0.331033">
        <ele>211.987</ele>
        <time>2018-01-17T01:50:23Z</time>
      </trkpt>
      <trkpt lat="40.337050" lon="0.330861">
        <ele>209.515</ele>
        <time>2018-01-17T01:50:43Z</time>
      </trkpt>
      <trkpt lat="40.337030" lon="0.330727">
        <ele>208.908</ele>
        <time>2018-01-17T01:51:03Z</time>
      </trkpt>
      <trkpt lat="40.337013" lon="0.330614">
        <ele>208.584</ele>
        <time>2018-01-17T01:51:23Z</time>
      </trkpt>
      <trkpt lat="40.336915" lon="0.330593">
        <ele>207.091</ele>
        <time>2018-01-17T01:51:43Z</time>
      </trkpt>
      <trkpt lat="40.336792" lon="0.330588">
        <ele>206.385</ele>
        <time>2018-01-17T01:52:03Z</time>
      </trkpt>
      <trkpt lat="40.336613" lon="0.330545">
        <ele>205.523</ele>
        <time>2018-01-17T01:52:23Z</time>
      </trkpt>
      <trkpt lat="40.336498" lon="0.330486">
        <ele>206.011</ele>
        <time>2018-01-17T01:52:43Z</time>
      </trkpt>
      <trkpt lat="40.336322" lon="0.330421">
        <ele>206.144</ele>
        <time>2018-01-17T01:53:03Z</time>
      </trkpt>
      <trkpt lat="40.336167" lon="0.330443">
        <ele>206.432</ele>
        <time>2018-01-17T01:53:23Z</time>
      </trkpt>
      <trkpt lat="40.336052" lon="0.330475">
        <ele>206.084</ele>
        <time>2018-01-17T01:53:43Z</time>
      </trkpt>
      <trkpt lat="40.335836" lon="0.330631">
        <ele>205.772</ele>
        <time>2018-01-17T01:54:03Z</time>
      </trkpt>
      <trkpt lat="40.335668" lon="0.330775">
        <ele>206.013</ele>
        <time>2018-01-17T01:54:23Z</time>
      </trkpt>
      <trkpt lat="40.335517" lon="0.330974">
        <ele>207.514</ele>
        <time>2018-01-17T01:54:43Z</time>
      </trkpt>
      <trkpt lat="40.335365" lon="0.331140">
        <ele>209.008</ele>
        <time>2018-01-17T01:55:03Z</time>
      </trkpt>
      <trkpt lat="40.335218" lon="0.331108">
        <ele>205.420</ele>
        <time>2018-01-17T01:55:23Z</time>
      </trkpt>
      <trkpt lat="40.335128" lon="0.331108">
        <ele>203.237</ele>
        <time>2018-01-17T01:55:43Z</time>
      </trkpt>
      <trkpt lat="40.334850" lon="0.331183">
        <ele>200.291</ele>
        <time>2018-01-17T01:56:03Z</time>
      </trkpt>
      <trkpt lat="40.334682" lon="0.331226">
        <ele>198.489</ele>
        <time>2018-01-17T01:56:23Z</time>
      </trkpt>
      <trkpt lat="40.334519" lon="0.331274">
        <ele>194.467</ele>
        <time>2018-01-17T01:56:43Z</time>
      </trkpt>
      <trkpt lat="40.334409" lon="0.331408">
        <ele>191.980</ele>
        <time>2018-01-17T01:57:03Z</time>
      </trkpt>
      <trkpt lat="40.334396" lon="0.331618">
        <ele>193.628</ele>
        <time>2018-01-17T01:57:23Z</time>
      </trkpt>
      <trkpt lat="40.334396" lon="0.331720">
        <ele>194.890</ele>
        <time>2018-01-17T01:57:43Z</time>
      </trkpt>
      <trkpt lat="40.334257" lon="0.331843">
        <ele>190.758</ele>
        <time>2018-01-17T01:58:03Z</time>
      </trkpt>
      <trkpt lat="40.334102" lon="0.332004">
        <ele>188.252</ele>
        <time>2018-01-17T01:58:23Z</time>
      </trkpt>
      <trkpt lat="40.333983" lon="0.332197">
        <ele>188.417</ele>
        <time>2018-01-17T01:58:43Z</time>
      </trkpt>
      <trkpt lat="40.333889" lon="0.332438">
        <ele>188.308</ele>
        <time>2018-01-17T01:59:03Z</time>
      </trkpt>
      <trkpt lat="40.333836" lon="0.332637">
        <ele>188.728</ele>
        <time>2018-01-17T01:59:23Z</time>
      </trkpt>
      <trkpt lat="40.333803" lon="0.332846">
        <ele>188.945</ele>
        <time>2018-01-17T01:59:43Z</time>
      </trkpt>
      <trkpt lat="40.333652" lon="0.332975">
        <ele>183.929</ele>
        <time>2018-01-17T02:00:03Z</time>
      </trkpt>
      <trkpt lat="40.333546" lon="0.333098">
        <ele>181.957</ele>
        <time>2018-01-17T02:00:23Z</time>
      </trkpt>
      <trkpt lat="40.333484" lon="0.333286">
        <ele>182.065</ele>
        <time>2018-01-17T02:00:43Z</time>
      </trkpt>
      <trkpt lat="40.333386" lon="0.333431">
        <ele>179.728</ele>
        <time>2018-01-17T02:01:03Z</time>
      </trkpt>
      <trkpt lat="40.333235" lon="0.333629">
        <ele>176.576</ele>
        <time>2018-01-17T02:01:23Z</time>
      </trkpt>
      <trkpt lat="40.333124" lon="0.333747">
        <ele>175.818</ele>
        <time>2018-01-17T02:01:43Z</time>
      </trkpt>
      <trkpt lat="40.332998" lon="0.333838">
        <ele>175.276</ele>
        <time>2018-01-17T02:02:03Z</time>
      </trkpt>
      <trkpt lat="40.332842" lon="0.333951">
        <ele>175.690</ele>
        <time>2018-01-17T02:02:23Z</time>
      </trkpt>
      <trkpt lat="40.332683" lon="0.334037">
        <ele>175.219</ele>
        <time>2018-01-17T02:02:43Z</time>
      </trkpt>
      <trkpt lat="40.332360" lon="0.334112">
        <ele>172.208</ele>
        <time>2018-01-17T02:03:03Z</time>
      </trkpt>
      <trkpt lat="40.332143" lon="0.334193">
        <ele>170.960</ele>
        <time>2018-01-17T02:03:23Z</time>
      </trkpt>
      <trkpt lat="40.331996" lon="0.334246">
        <ele>170.827</ele>
        <time>2018-01-17T02:03:43Z</time>
      </trkpt>
      <trkpt lat="40.331648" lon="0.334520">
        <ele>173.071</ele>
        <time>2018-01-17T02:04:03Z</time>
      </trkpt>
      <trkpt lat="40.331558" lon="0.334622">
        <ele>173.799</ele>
        <time>2018-01-17T02:04:23Z</time>
      </trkpt>
      <trkpt lat="40.331337" lon="0.334831">
        <ele>171.157</ele>
        <time>2018-01-17T02:04:43Z</time>
      </trkpt>
      <trkpt lat="40.331207" lon="0.335019">
        <ele>169.060</ele>
        <time>2018-01-17T02:05:03Z</time>
      </trkpt>
      <trkpt lat="40.331100" lon="0.335222">
        <ele>167.228</ele>
        <time>2018-01-17T02:05:23Z</time>
      </trkpt>
      <trkpt lat="40.331137" lon="0.335426">
        <ele>169.330</ele>
        <time>2018-01-17T02:05:43Z</time>
      </trkpt>
      <trkpt lat="40.331149" lon="0.335646">
        <ele>169.846</ele>
        <time>2018-01-17T02:06:03Z</time>
      </trkpt>
      <trkpt lat="40.331227" lon="0.335968">
        <ele>169.488</ele>
        <time>2018-01-17T02:06:23Z</time>
      </trkpt>
      <trkpt lat="40.331227" lon="0.336108">
        <ele>167.416</ele>
        <time>2018-01-17T02:06:43Z</time>
      </trkpt>
      <trkpt lat="40.331223" lon="0.336349">
        <ele>164.108</ele>
        <time>2018-01-17T02:07:03Z</time>
      </trkpt>
      <trkpt lat="40.331215" lon="0.336521">
        <ele>161.537</ele>
        <time>2018-01-17T02:07:23Z</time>
      </trkpt>
      <trkpt lat="40.331194" lon="0.336714">
        <ele>158.474</ele>
        <time>2018-01-17T02:07:43Z</time>
      </trkpt>
      <trkpt lat="40.331247" lon="0.336837">
        <ele>158.998</ele>
        <time>2018-01-17T02:08:03Z</time>
      </trkpt>
      <trkpt lat="40.331325" lon="0.336993">
        <ele>159.236</ele>
        <time>2018-01-17T02:08:23Z</time>
      </trkpt>
      <trkpt lat="40.331333" lon="0.337089">
        <ele>158.584</ele>
        <time>2018-01-17T02:08:43Z</time>
      </trkpt>
      <trkpt lat="40.331276" lon="0.337213">
        <ele>156.867</ele>
        <time>2018-01-17T02:09:03Z</time>
      </trkpt>
      <trkpt lat="40.331235" lon="0.337309">
        <ele>156.715</ele>
        <time>2018-01-17T02:09:23Z</time>
      </trkpt>
      <trkpt lat="40.331076" lon="0.337293">
        <ele>155.727</ele>
        <time>2018-01-17T02:09:43Z</time>
      </trkpt>
      <trkpt lat="40.330863" lon="0.337197">
        <ele>155.731</ele>
        <time>2018-01-17T02:10:03Z</time>
      </trkpt>
      <trkpt lat="40.330749" lon="0.337052">
        <ele>155.661</ele>
        <time>2018-01-17T02:10:23Z</time>
      </trkpt>
      <trkpt lat="40.330577" lon="0.336853">
        <ele>154.907</ele>
        <time>2018-01-17T02:10:43Z</time>
      </trkpt>
      <trkpt lat="40.330479" lon="0.336746">
        <ele>153.908</ele>
        <time>2018-01-17T02:11:03Z</time>
      </trkpt>
      <trkpt lat="40.330397" lon="0.336719">
        <ele>153.666</ele>
        <time>2018-01-17T02:11:23Z</time>
      </trkpt>
      <trkpt lat="40.330229" lon="0.336859">
        <ele>154.733</ele>
        <time>2018-01-17T02:11:43Z</time>
      </trkpt>
      <trkpt lat="40.329935" lon="0.336660">
        <ele>149.557</ele>
        <time>2018-01-17T02:12:03Z</time>
      </trkpt>
      <trkpt lat="40.329706" lon="0.336607">
        <ele>147.595</ele>
        <time>2018-01-17T02:12:23Z</time>
      </trkpt>
      <trkpt lat="40.329338" lon="0.336596">
        <ele>145.293</ele>
        <time>2018-01-17T02:12:43Z</time>
      </trkpt>
      <trkpt lat="40.328961" lon="0.336692">
        <ele>143.366</ele>
        <time>2018-01-17T02:13:03Z</time>
      </trkpt>
      <trkpt lat="40.328814" lon="0.336767">
        <ele>142.714</ele>
        <time>2018-01-17T02:13:23Z</time>
      </trkpt>
      <trkpt lat="40.328528" lon="0.337143">
        <ele>142.356</ele>
        <time>2018-01-17T02:13:43Z</time>
      </trkpt>
      <trkpt lat="40.328144" lon="0.338141">
        <ele>133.054</ele>
        <time>2018-01-17T02:14:03Z</time>
      </trkpt>
      <trkpt lat="40.327939" lon="0.338312">
        <ele>132.556</ele>
        <time>2018-01-17T02:14:23Z</time>
      </trkpt>
      <trkpt lat="40.327677" lon="0.338559">
        <ele>133.211</ele>
        <time>2018-01-17T02:14:43Z</time>
      </trkpt>
      <trkpt lat="40.327367" lon="0.338602">
        <ele>130.608</ele>
        <time>2018-01-17T02:15:03Z</time>
      </trkpt>
      <trkpt lat="40.327146" lon="0.338409">
        <ele>128.698</ele>
        <time>2018-01-17T02:15:23Z</time>
      </trkpt>
      <trkpt lat="40.326843" lon="0.338205">
        <ele>127.635</ele>
        <time>2018-01-17T02:15:43Z</time>
      </trkpt>
      <trkpt lat="40.326295" lon="0.337712">
        <ele>127.739</ele>
        <time>2018-01-17T02:16:03Z</time>
      </trkpt>
      <trkpt lat="40.325894" lon="0.337164">
        <ele>129.777</ele>
        <time>2018-01-17T02:16:23Z</time>
      </trkpt>
      <trkpt lat="40.325904" lon="0.337151">
        <ele>129.795</ele>
        <time>2017-09-27T17:09:38Z</time>
      </trkpt>
      <trkpt lat="40.325938" lon="0.337115">
        <ele>129.778</ele>
        <time>2017-09-27T17:09:37Z</time>
      </trkpt>
      <trkpt lat="40.325958" lon="0.337060">
        <ele>129.666</ele>
        <time>2017-09-27T17:09:36Z</time>
      </trkpt>
      <trkpt lat="40.325956" lon="0.336996">
        <ele>129.428</ele>
        <time>2017-09-27T17:09:35Z</time>
      </trkpt>
      <trkpt lat="40.325933" lon="0.336930">
        <ele>129.356</ele>
        <time>2017-09-27T17:09:34Z</time>
      </trkpt>
      <trkpt lat="40.325889" lon="0.336860">
        <ele>129.859</ele>
        <time>2017-09-27T17:09:33Z</time>
      </trkpt>
      <trkpt lat="40.325824" lon="0.336782">
        <ele>130.214</ele>
        <time>2017-09-27T17:09:32Z</time>
      </trkpt>
      <trkpt lat="40.325748" lon="0.336713">
        <ele>129.908</ele>
        <time>2017-09-27T17:09:31Z</time>
      </trkpt>
      <trkpt lat="40.325665" lon="0.336657">
        <ele>129.198</ele>
        <time>2017-09-27T17:09:30Z</time>
      </trkpt>
      <trkpt lat="40.325579" lon="0.336609">
        <ele>128.315</ele>
        <time>2017-09-27T17:09:29Z</time>
      </trkpt>
      <trkpt lat="40.325499" lon="0.336567">
        <ele>127.629</ele>
        <time>2017-09-27T17:09:28Z</time>
      </trkpt>
      <trkpt lat="40.325422" lon="0.336527">
        <ele>127.137</ele>
        <time>2017-09-27T17:09:27Z</time>
      </trkpt>
      <trkpt lat="40.325345" lon="0.336494">
        <ele>126.555</ele>
        <time>2017-09-27T17:09:26Z</time>
      </trkpt>
      <trkpt lat="40.325256" lon="0.336476">
        <ele>125.898</ele>
        <time>2017-09-27T17:09:25Z</time>
      </trkpt>
      <trkpt lat="40.325169" lon="0.336481">
        <ele>126.216</ele>
        <time>2017-09-27T17:09:24Z</time>
      </trkpt>
      <trkpt lat="40.325084" lon="0.336497">
        <ele>126.478</ele>
        <time>2017-09-27T17:09:23Z</time>
      </trkpt>
      <trkpt lat="40.324997" lon="0.336505">
        <ele>126.716</ele>
        <time>2017-09-27T17:09:22Z</time>
      </trkpt>
      <trkpt lat="40.324914" lon="0.336494">
        <ele>126.976</ele>
        <time>2017-09-27T17:09:21Z</time>
      </trkpt>
      <trkpt lat="40.324833" lon="0.336474">
        <ele>127.113</ele>
        <time>2017-09-27T17:09:20Z</time>
      </trkpt>
      <trkpt lat="40.324749" lon="0.336444">
        <ele>127.408</ele>
        <time>2017-09-27T17:09:19Z</time>
      </trkpt>
      <trkpt lat="40.324667" lon="0.336407">
        <ele>127.664</ele>
        <time>2017-09-27T17:09:18Z</time>
      </trkpt>
      <trkpt lat="40.324585" lon="0.336369">
        <ele>127.811</ele>
        <time>2017-09-27T17:09:17Z</time>
      </trkpt>
      <trkpt lat="40.324500" lon="0.336331">
        <ele>128.015</ele>
        <time>2017-09-27T17:09:16Z</time>
      </trkpt>
      <trkpt lat="40.324421" lon="0.336298">
        <ele>128.193</ele>
        <time>2017-09-27T17:09:15Z</time>
      </trkpt>
      <trkpt lat="40.324350" lon="0.336266">
        <ele>128.111</ele>
        <time>2017-09-27T17:09:14Z</time>
      </trkpt>
      <trkpt lat="40.324282" lon="0.336230">
        <ele>128.194</ele>
        <time>2017-09-27T17:09:13Z</time>
      </trkpt>
      <trkpt lat="40.324226" lon="0.336187">
        <ele>128.312</ele>
        <time>2017-09-27T17:09:12Z</time>
      </trkpt>
      <trkpt lat="40.324180" lon="0.336131">
        <ele>128.854</ele>
        <time>2017-09-27T17:09:11Z</time>
      </trkpt>
      <trkpt lat="40.324146" lon="0.336065">
        <ele>129.679</ele>
        <time>2017-09-27T17:09:10Z</time>
      </trkpt>
      <trkpt lat="40.324127" lon="0.336001">
        <ele>130.305</ele>
        <time>2017-09-27T17:09:09Z</time>
      </trkpt>
      <trkpt lat="40.324121" lon="0.335938">
        <ele>131.125</ele>
        <time>2017-09-27T17:09:08Z</time>
      </trkpt>
      <trkpt lat="40.324124" lon="0.335877">
        <ele>132.008</ele>
        <time>2017-09-27T17:09:07Z</time>
      </trkpt>
      <trkpt lat="40.324132" lon="0.335821">
        <ele>132.750</ele>
        <time>2017-09-27T17:09:06Z</time>
      </trkpt>
      <trkpt lat="40.324137" lon="0.335773">
        <ele>132.947</ele>
        <time>2017-09-27T17:09:05Z</time>
      </trkpt>
      <trkpt lat="40.324125" lon="0.335726">
        <ele>133.181</ele>
        <time>2017-09-27T17:09:04Z</time>
      </trkpt>
      <trkpt lat="40.324095" lon="0.335690">
        <ele>133.079</ele>
        <time>2017-09-27T17:09:03Z</time>
      </trkpt>
      <trkpt lat="40.324058" lon="0.335662">
        <ele>132.917</ele>
        <time>2017-09-27T17:09:02Z</time>
      </trkpt>
      <trkpt lat="40.324022" lon="0.335639">
        <ele>132.950</ele>
        <time>2017-09-27T17:09:01Z</time>
      </trkpt>
      <trkpt lat="40.323990" lon="0.335611">
        <ele>132.998</ele>
        <time>2017-09-27T17:09:00Z</time>
      </trkpt>
      <trkpt lat="40.323960" lon="0.335585">
        <ele>133.040</ele>
        <time>2017-09-27T17:08:59Z</time>
      </trkpt>
      <trkpt lat="40.323931" lon="0.335561">
        <ele>133.199</ele>
        <time>2017-09-27T17:08:58Z</time>
      </trkpt>
      <trkpt lat="40.323902" lon="0.335534">
        <ele>133.107</ele>
        <time>2017-09-27T17:08:57Z</time>
      </trkpt>
      <trkpt lat="40.323874" lon="0.335508">
        <ele>132.927</ele>
        <time>2017-09-27T17:08:56Z</time>
      </trkpt>
      <trkpt lat="40.323848" lon="0.335482">
        <ele>132.708</ele>
        <time>2017-09-27T17:08:55Z</time>
      </trkpt>
      <trkpt lat="40.323821" lon="0.335455">
        <ele>132.592</ele>
        <time>2017-09-27T17:08:54Z</time>
      </trkpt>
      <trkpt lat="40.323796" lon="0.335426">
        <ele>132.339</ele>
        <time>2017-09-27T17:08:53Z</time>
      </trkpt>
      <trkpt lat="40.323776" lon="0.335396">
        <ele>132.263</ele>
        <time>2017-09-27T17:08:52Z</time>
      </trkpt>
      <trkpt lat="40.323755" lon="0.335366">
        <ele>132.031</ele>
        <time>2017-09-27T17:08:51Z</time>
      </trkpt>
      <trkpt lat="40.323734" lon="0.335338">
        <ele>131.929</ele>
        <time>2017-09-27T17:08:50Z</time>
      </trkpt>
      <trkpt lat="40.323710" lon="0.335310">
        <ele>131.752</ele>
        <time>2017-09-27T17:08:49Z</time>
      </trkpt>
      <trkpt lat="40.323685" lon="0.335283">
        <ele>131.520</ele>
        <time>2017-09-27T17:08:48Z</time>
      </trkpt>
      <trkpt lat="40.323659" lon="0.335255">
        <ele>131.472</ele>
        <time>2017-09-27T17:08:47Z</time>
      </trkpt>
      <trkpt lat="40.323635" lon="0.335229">
        <ele>131.348</ele>
        <time>2017-09-27T17:08:46Z</time>
      </trkpt>
      <trkpt lat="40.323612" lon="0.335202">
        <ele>131.361</ele>
        <time>2017-09-27T17:08:45Z</time>
      </trkpt>
      <trkpt lat="40.323587" lon="0.335173">
        <ele>131.317</ele>
        <time>2017-09-27T17:08:44Z</time>
      </trkpt>
      <trkpt lat="40.323564" lon="0.335146">
        <ele>131.308</ele>
        <time>2017-09-27T17:08:43Z</time>
      </trkpt>
      <trkpt lat="40.323541" lon="0.335120">
        <ele>131.377</ele>
        <time>2017-09-27T17:08:42Z</time>
      </trkpt>
      <trkpt lat="40.323520" lon="0.335095">
        <ele>131.344</ele>
        <time>2017-09-27T17:08:41Z</time>
      </trkpt>
      <trkpt lat="40.323498" lon="0.335073">
        <ele>131.318</ele>
        <time>2017-09-27T17:08:40Z</time>
      </trkpt>
      <trkpt lat="40.323476" lon="0.335048">
        <ele>131.396</ele>
        <time>2017-09-27T17:08:39Z</time>
      </trkpt>
      <trkpt lat="40.323455" lon="0.335021">
        <ele>131.444</ele>
        <time>2017-09-27T17:08:38Z</time>
      </trkpt>
      <trkpt lat="40.323435" lon="0.334995">
        <ele>131.477</ele>
        <time>2017-09-27T17:08:37Z</time>
      </trkpt>
      <trkpt lat="40.323413" lon="0.334975">
        <ele>131.435</ele>
        <time>2017-09-27T17:08:36Z</time>
      </trkpt>
      <trkpt lat="40.323395" lon="0.334957">
        <ele>131.497</ele>
        <time>2017-09-27T17:08:35Z</time>
      </trkpt>
      <trkpt lat="40.323373" lon="0.334940">
        <ele>131.485</ele>
        <time>2017-09-27T17:08:34Z</time>
      </trkpt>
      <trkpt lat="40.323347" lon="0.334929">
        <ele>131.389</ele>
        <time>2017-09-27T17:08:33Z</time>
      </trkpt>
      <trkpt lat="40.323323" lon="0.334913">
        <ele>131.217</ele>
        <time>2017-09-27T17:08:32Z</time>
      </trkpt>
      <trkpt lat="40.323298" lon="0.334894">
        <ele>131.008</ele>
        <time>2017-09-27T17:08:31Z</time>
      </trkpt>
      <trkpt lat="40.323277" lon="0.334876">
        <ele>130.971</ele>
        <time>2017-09-27T17:08:30Z</time>
      </trkpt>
      <trkpt lat="40.323255" lon="0.334858">
        <ele>130.878</ele>
        <time>2017-09-27T17:08:29Z</time>
      </trkpt>
      <trkpt lat="40.323229" lon="0.334838">
        <ele>130.762</ele>
        <time>2017-09-27T17:08:28Z</time>
      </trkpt>
      <trkpt lat="40.323203" lon="0.334818">
        <ele>130.660</ele>
        <time>2017-09-27T17:08:27Z</time>
      </trkpt>
      <trkpt lat="40.323178" lon="0.334796">
        <ele>130.588</ele>
        <time>2017-09-27T17:08:26Z</time>
      </trkpt>
      <trkpt lat="40.323153" lon="0.334770">
        <ele>130.491</ele>
        <time>2017-09-27T17:08:25Z</time>
      </trkpt>
      <trkpt lat="40.323130" lon="0.334746">
        <ele>130.419</ele>
        <time>2017-09-27T17:08:24Z</time>
      </trkpt>
      <trkpt lat="40.323098" lon="0.334718">
        <ele>130.311</ele>
        <time>2017-09-27T17:08:23Z</time>
      </trkpt>
      <trkpt lat="40.323078" lon="0.334695">
        <ele>130.036</ele>
        <time>2017-09-27T17:08:22Z</time>
      </trkpt>
      <trkpt lat="40.323056" lon="0.334672">
        <ele>129.617</ele>
        <time>2017-09-27T17:08:21Z</time>
      </trkpt>
      <trkpt lat="40.323031" lon="0.334647">
        <ele>129.018</ele>
        <time>2017-09-27T17:08:20Z</time>
      </trkpt>
      <trkpt lat="40.323010" lon="0.334617">
        <ele>128.408</ele>
        <time>2017-09-27T17:08:19Z</time>
      </trkpt>
      <trkpt lat="40.322988" lon="0.334587">
        <ele>127.946</ele>
        <time>2017-09-27T17:08:18Z</time>
      </trkpt>
      <trkpt lat="40.322967" lon="0.334558">
        <ele>127.553</ele>
        <time>2017-09-27T17:08:17Z</time>
      </trkpt>
      <trkpt lat="40.322946" lon="0.334526">
        <ele>127.157</ele>
        <time>2017-09-27T17:08:16Z</time>
      </trkpt>
      <trkpt lat="40.322923" lon="0.334497">
        <ele>126.725</ele>
        <time>2017-09-27T17:08:15Z</time>
      </trkpt>
      <trkpt lat="40.322901" lon="0.334466">
        <ele>126.473</ele>
        <time>2017-09-27T17:08:14Z</time>
      </trkpt>
      <trkpt lat="40.322882" lon="0.334437">
        <ele>126.196</ele>
        <time>2017-09-27T17:08:13Z</time>
      </trkpt>
      <trkpt lat="40.322862" lon="0.334406">
        <ele>126.084</ele>
        <time>2017-09-27T17:08:12Z</time>
      </trkpt>
      <trkpt lat="40.322837" lon="0.334367">
        <ele>125.756</ele>
        <time>2017-09-27T17:08:11Z</time>
      </trkpt>
      <trkpt lat="40.322815" lon="0.334328">
        <ele>125.595</ele>
        <time>2017-09-27T17:08:10Z</time>
      </trkpt>
      <trkpt lat="40.322792" lon="0.334293">
        <ele>125.249</ele>
        <time>2017-09-27T17:08:09Z</time>
      </trkpt>
      <trkpt lat="40.322769" lon="0.334255">
        <ele>124.923</ele>
        <time>2017-09-27T17:08:08Z</time>
      </trkpt>
      <trkpt lat="40.322746" lon="0.334215">
        <ele>124.708</ele>
        <time>2017-09-27T17:08:07Z</time>
      </trkpt>
      <trkpt lat="40.322723" lon="0.334178">
        <ele>124.462</ele>
        <time>2017-09-27T17:08:06Z</time>
      </trkpt>
      <trkpt lat="40.322702" lon="0.334138">
        <ele>124.239</ele>
        <time>2017-09-27T17:08:05Z</time>
      </trkpt>
      <trkpt lat="40.322678" lon="0.334093">
        <ele>123.983</ele>
        <time>2017-09-27T17:08:04Z</time>
      </trkpt>
      <trkpt lat="40.322651" lon="0.334050">
        <ele>123.651</ele>
        <time>2017-09-27T17:08:03Z</time>
      </trkpt>
      <trkpt lat="40.322628" lon="0.334006">
        <ele>123.419</ele>
        <time>2017-09-27T17:08:02Z</time>
      </trkpt>
      <trkpt lat="40.322602" lon="0.333958">
        <ele>123.152</ele>
        <time>2017-09-27T17:08:01Z</time>
      </trkpt>
      <trkpt lat="40.322574" lon="0.333909">
        <ele>122.890</ele>
        <time>2017-09-27T17:08:00Z</time>
      </trkpt>
      <trkpt lat="40.322547" lon="0.333860">
        <ele>122.422</ele>
        <time>2017-09-27T17:07:59Z</time>
      </trkpt>
      <trkpt lat="40.322519" lon="0.333812">
        <ele>121.939</ele>
        <time>2017-09-27T17:07:58Z</time>
      </trkpt>
      <trkpt lat="40.322502" lon="0.333751">
        <ele>121.501</ele>
        <time>2017-09-27T17:07:57Z</time>
      </trkpt>
      <trkpt lat="40.322506" lon="0.333683">
        <ele>121.321</ele>
        <time>2017-09-27T17:07:56Z</time>
      </trkpt>
      <trkpt lat="40.322500" lon="0.333611">
        <ele>121.008</ele>
        <time>2017-09-27T17:07:55Z</time>
      </trkpt>
      <trkpt lat="40.322477" lon="0.333548">
        <ele>121.156</ele>
        <time>2017-09-27T17:07:54Z</time>
      </trkpt>
      <trkpt lat="40.322438" lon="0.333500">
        <ele>121.283</ele>
        <time>2017-09-27T17:07:53Z</time>
      </trkpt>
      <trkpt lat="40.322394" lon="0.333462">
        <ele>121.227</ele>
        <time>2017-09-27T17:07:52Z</time>
      </trkpt>
      <trkpt lat="40.322350" lon="0.333427">
        <ele>121.125</ele>
        <time>2017-09-27T17:07:51Z</time>
      </trkpt>
      <trkpt lat="40.322306" lon="0.333395">
        <ele>121.173</ele>
        <time>2017-09-27T17:07:50Z</time>
      </trkpt>
      <trkpt lat="40.322265" lon="0.333359">
        <ele>121.196</ele>
        <time>2017-09-27T17:07:49Z</time>
      </trkpt>
      <trkpt lat="40.322227" lon="0.333318">
        <ele>121.294</ele>
        <time>2017-09-27T17:07:48Z</time>
      </trkpt>
      <trkpt lat="40.322187" lon="0.333285">
        <ele>121.346</ele>
        <time>2017-09-27T17:07:47Z</time>
      </trkpt>
      <trkpt lat="40.322147" lon="0.333258">
        <ele>121.382</ele>
        <time>2017-09-27T17:07:46Z</time>
      </trkpt>
      <trkpt lat="40.321970" lon="0.333192">
        <ele>120.743</ele>
        <time>2017-09-27T17:07:44Z</time>
      </trkpt>
      <trkpt lat="40.321792" lon="0.333126">
        <ele>119.717</ele>
        <time>2017-09-27T17:07:39Z</time>
      </trkpt>
      <trkpt lat="40.321738" lon="0.333109">
        <ele>119.308</ele>
        <time>2017-09-27T17:07:38Z</time>
      </trkpt>
      <trkpt lat="40.321683" lon="0.333091">
        <ele>118.911</ele>
        <time>2017-09-27T17:07:37Z</time>
      </trkpt>
      <trkpt lat="40.321625" lon="0.333071">
        <ele>118.748</ele>
        <time>2017-09-27T17:07:36Z</time>
      </trkpt>
      <trkpt lat="40.321563" lon="0.333055">
        <ele>118.612</ele>
        <time>2017-09-27T17:07:35Z</time>
      </trkpt>
      <trkpt lat="40.321500" lon="0.333033">
        <ele>118.690</ele>
        <time>2017-09-27T17:07:34Z</time>
      </trkpt>
      <trkpt lat="40.321431" lon="0.333009">
        <ele>118.448</ele>
        <time>2017-09-27T17:07:33Z</time>
      </trkpt>
      <trkpt lat="40.321355" lon="0.332988">
        <ele>117.991</ele>
        <time>2017-09-27T17:07:32Z</time>
      </trkpt>
      <trkpt lat="40.321278" lon="0.332972">
        <ele>117.239</ele>
        <time>2017-09-27T17:07:31Z</time>
      </trkpt>
      <trkpt lat="40.321200" lon="0.332944">
        <ele>116.641</ele>
        <time>2017-09-27T17:07:30Z</time>
      </trkpt>
      <trkpt lat="40.321125" lon="0.332897">
        <ele>116.385</ele>
        <time>2017-09-27T17:07:29Z</time>
      </trkpt>
      <trkpt lat="40.321058" lon="0.332834">
        <ele>115.889</ele>
        <time>2017-09-27T17:07:28Z</time>
      </trkpt>
      <trkpt lat="40.320992" lon="0.332769">
        <ele>115.417</ele>
        <time>2017-09-27T17:07:27Z</time>
      </trkpt>
      <trkpt lat="40.320926" lon="0.332706">
        <ele>115.108</ele>
        <time>2017-09-27T17:07:26Z</time>
      </trkpt>
      <trkpt lat="40.320862" lon="0.332636">
        <ele>115.361</ele>
        <time>2017-09-27T17:07:25Z</time>
      </trkpt>
      <trkpt lat="40.320805" lon="0.332556">
        <ele>115.968</ele>
        <time>2017-09-27T17:07:24Z</time>
      </trkpt>
      <trkpt lat="40.320754" lon="0.332479">
        <ele>116.422</ele>
        <time>2017-09-27T17:07:23Z</time>
      </trkpt>
      <trkpt lat="40.320718" lon="0.332396">
        <ele>117.090</ele>
        <time>2017-09-27T17:07:22Z</time>
      </trkpt>
      <trkpt lat="40.320677" lon="0.332320">
        <ele>117.678</ele>
        <time>2017-09-27T17:07:21Z</time>
      </trkpt>
      <trkpt lat="40.320629" lon="0.332260">
        <ele>118.071</ele>
        <time>2017-09-27T17:07:20Z</time>
      </trkpt>
      <trkpt lat="40.320564" lon="0.332215">
        <ele>118.159</ele>
        <time>2017-09-27T17:07:19Z</time>
      </trkpt>
      <trkpt lat="40.320494" lon="0.332182">
        <ele>117.691</ele>
        <time>2017-09-27T17:07:18Z</time>
      </trkpt>
      <trkpt lat="40.320428" lon="0.332139">
        <ele>117.238</ele>
        <time>2017-09-27T17:07:17Z</time>
      </trkpt>
      <trkpt lat="40.320372" lon="0.332082">
        <ele>117.270</ele>
        <time>2017-09-27T17:07:16Z</time>
      </trkpt>
      <trkpt lat="40.320318" lon="0.332025">
        <ele>117.317</ele>
        <time>2017-09-27T17:07:15Z</time>
      </trkpt>
      <trkpt lat="40.320265" lon="0.331967">
        <ele>117.508</ele>
        <time>2017-09-27T17:07:14Z</time>
      </trkpt>
      <trkpt lat="40.320215" lon="0.331913">
        <ele>117.526</ele>
        <time>2017-09-27T17:07:13Z</time>
      </trkpt>
      <trkpt lat="40.320168" lon="0.331858">
        <ele>117.733</ele>
        <time>2017-09-27T17:07:12Z</time>
      </trkpt>
      <trkpt lat="40.320122" lon="0.331803">
        <ele>117.857</ele>
        <time>2017-09-27T17:07:11Z</time>
      </trkpt>
      <trkpt lat="40.320078" lon="0.331752">
        <ele>117.995</ele>
        <time>2017-09-27T17:07:10Z</time>
      </trkpt>
      <trkpt lat="40.320039" lon="0.331700">
        <ele>118.123</ele>
        <time>2017-09-27T17:07:09Z</time>
      </trkpt>
      <trkpt lat="40.319996" lon="0.331657">
        <ele>118.296</ele>
        <time>2017-09-27T17:07:08Z</time>
      </trkpt>
      <trkpt lat="40.319951" lon="0.331622">
        <ele>118.564</ele>
        <time>2017-09-27T17:07:07Z</time>
      </trkpt>
      <trkpt lat="40.319907" lon="0.331581">
        <ele>118.956</ele>
        <time>2017-09-27T17:07:06Z</time>
      </trkpt>
      <trkpt lat="40.319858" lon="0.331541">
        <ele>119.014</ele>
        <time>2017-09-27T17:07:05Z</time>
      </trkpt>
      <trkpt lat="40.319812" lon="0.331500">
        <ele>119.054</ele>
        <time>2017-09-27T17:07:04Z</time>
      </trkpt>
      <trkpt lat="40.319772" lon="0.331457">
        <ele>119.009</ele>
        <time>2017-09-27T17:07:03Z</time>
      </trkpt>
      <trkpt lat="40.319733" lon="0.331422">
        <ele>118.808</ele>
        <time>2017-09-27T17:07:02Z</time>
      </trkpt>
      <trkpt lat="40.319696" lon="0.331396">
        <ele>118.654</ele>
        <time>2017-09-27T17:07:01Z</time>
      </trkpt>
      <trkpt lat="40.319658" lon="0.331362">
        <ele>118.641</ele>
        <time>2017-09-27T17:07:00Z</time>
      </trkpt>
      <trkpt lat="40.319619" lon="0.331331">
        <ele>118.445</ele>
        <time>2017-09-27T17:06:59Z</time>
      </trkpt>
      <trkpt lat="40.319580" lon="0.331302">
        <ele>118.293</ele>
        <time>2017-09-27T17:06:58Z</time>
      </trkpt>
      <trkpt lat="40.319539" lon="0.331275">
        <ele>118.091</ele>
        <time>2017-09-27T17:06:57Z</time>
      </trkpt>
      <trkpt lat="40.319491" lon="0.331244">
        <ele>117.634</ele>
        <time>2017-09-27T17:06:56Z</time>
      </trkpt>
      <trkpt lat="40.319440" lon="0.331210">
        <ele>117.382</ele>
        <time>2017-09-27T17:06:55Z</time>
      </trkpt>
      <trkpt lat="40.319386" lon="0.331178">
        <ele>117.164</ele>
        <time>2017-09-27T17:06:54Z</time>
      </trkpt>
      <trkpt lat="40.319329" lon="0.331165">
        <ele>116.822</ele>
        <time>2017-09-27T17:06:53Z</time>
      </trkpt>
      <trkpt lat="40.319273" lon="0.331158">
        <ele>116.462</ele>
        <time>2017-09-27T17:06:52Z</time>
      </trkpt>
      <trkpt lat="40.319225" lon="0.331142">
        <ele>116.208</ele>
        <time>2017-09-27T17:06:51Z</time>
      </trkpt>
      <trkpt lat="40.319181" lon="0.331123">
        <ele>116.008</ele>
        <time>2017-09-27T17:06:50Z</time>
      </trkpt>
      <trkpt lat="40.319144" lon="0.331091">
        <ele>115.745</ele>
        <time>2017-09-27T17:06:49Z</time>
      </trkpt>
      <trkpt lat="40.319112" lon="0.331047">
        <ele>115.432</ele>
        <time>2017-09-27T17:06:48Z</time>
      </trkpt>
      <trkpt lat="40.319089" lon="0.330993">
        <ele>115.256</ele>
        <time>2017-09-27T17:06:47Z</time>
      </trkpt>
      <trkpt lat="40.319080" lon="0.330933">
        <ele>115.364</ele>
        <time>2017-09-27T17:06:46Z</time>
      </trkpt>
      <trkpt lat="40.319076" lon="0.330871">
        <ele>115.542</ele>
        <time>2017-09-27T17:06:45Z</time>
      </trkpt>
      <trkpt lat="40.319068" lon="0.330811">
        <ele>115.845</ele>
        <time>2017-09-27T17:06:44Z</time>
      </trkpt>
      <trkpt lat="40.319044" lon="0.330751">
        <ele>115.833</ele>
        <time>2017-09-27T17:06:43Z</time>
      </trkpt>
      <trkpt lat="40.319009" lon="0.330697">
        <ele>115.575</ele>
        <time>2017-09-27T17:06:42Z</time>
      </trkpt>
      <trkpt lat="40.318976" lon="0.330639">
        <ele>115.378</ele>
        <time>2017-09-27T17:06:41Z</time>
      </trkpt>
      <trkpt lat="40.318934" lon="0.330589">
        <ele>114.833</ele>
        <time>2017-09-27T17:06:40Z</time>
      </trkpt>
      <trkpt lat="40.318885" lon="0.330550">
        <ele>114.026</ele>
        <time>2017-09-27T17:06:39Z</time>
      </trkpt>
      <trkpt lat="40.318826" lon="0.330495">
        <ele>113.708</ele>
        <time>2017-09-27T17:06:37Z</time>
      </trkpt>
      <trkpt lat="40.318780" lon="0.330452">
        <ele>113.470</ele>
        <time>2017-09-27T17:06:36Z</time>
      </trkpt>
      <trkpt lat="40.318741" lon="0.330403">
        <ele>113.237</ele>
        <time>2017-09-27T17:06:35Z</time>
      </trkpt>
      <trkpt lat="40.318709" lon="0.330352">
        <ele>113.231</ele>
        <time>2017-09-27T17:06:34Z</time>
      </trkpt>
      <trkpt lat="40.318681" lon="0.330305">
        <ele>113.299</ele>
        <time>2017-09-27T17:06:33Z</time>
      </trkpt>
      <trkpt lat="40.318659" lon="0.330257">
        <ele>113.247</ele>
        <time>2017-09-27T17:06:32Z</time>
      </trkpt>
      <trkpt lat="40.318647" lon="0.330214">
        <ele>113.210</ele>
        <time>2017-09-27T17:06:31Z</time>
      </trkpt>
      <trkpt lat="40.318634" lon="0.330175">
        <ele>113.258</ele>
        <time>2017-09-27T17:06:30Z</time>
      </trkpt>
      <trkpt lat="40.318621" lon="0.330143">
        <ele>113.220</ele>
        <time>2017-09-27T17:06:29Z</time>
      </trkpt>
      <trkpt lat="40.318606" lon="0.330115">
        <ele>113.187</ele>
        <time>2017-09-27T17:06:28Z</time>
      </trkpt>
      <trkpt lat="40.318592" lon="0.330090">
        <ele>113.142</ele>
        <time>2017-09-27T17:06:27Z</time>
      </trkpt>
      <trkpt lat="40.318576" lon="0.330064">
        <ele>113.026</ele>
        <time>2017-09-27T17:06:26Z</time>
      </trkpt>
      <trkpt lat="40.318560" lon="0.330040">
        <ele>113.008</ele>
        <time>2017-09-27T17:06:25Z</time>
      </trkpt>
      <trkpt lat="40.318543" lon="0.330020">
        <ele>112.961</ele>
        <time>2017-09-27T17:06:24Z</time>
      </trkpt>
      <trkpt lat="40.318526" lon="0.329997">
        <ele>112.858</ele>
        <time>2017-09-27T17:06:23Z</time>
      </trkpt>
      <trkpt lat="40.318510" lon="0.329972">
        <ele>112.692</ele>
        <time>2017-09-27T17:06:22Z</time>
      </trkpt>
      <trkpt lat="40.318493" lon="0.329950">
        <ele>112.580</ele>
        <time>2017-09-27T17:06:21Z</time>
      </trkpt>
      <trkpt lat="40.318476" lon="0.329930">
        <ele>112.318</ele>
        <time>2017-09-27T17:06:20Z</time>
      </trkpt>
      <trkpt lat="40.318438" lon="0.329856">
        <ele>112.061</ele>
        <time>2017-09-27T17:06:19Z</time>
      </trkpt>
      <trkpt lat="40.318419" lon="0.329819">
        <ele>111.919</ele>
        <time>2017-09-27T17:06:18Z</time>
      </trkpt>
      <trkpt lat="40.318399" lon="0.329783">
        <ele>111.771</ele>
        <time>2017-09-27T17:06:15Z</time>
      </trkpt>
      <trkpt lat="40.318387" lon="0.329759">
        <ele>111.658</ele>
        <time>2017-09-27T17:06:14Z</time>
      </trkpt>
      <trkpt lat="40.318374" lon="0.329734">
        <ele>111.552</ele>
        <time>2017-09-27T17:06:13Z</time>
      </trkpt>
      <trkpt lat="40.318360" lon="0.329710">
        <ele>111.417</ele>
        <time>2017-09-27T17:06:12Z</time>
      </trkpt>
      <trkpt lat="40.318344" lon="0.329690">
        <ele>111.308</ele>
        <time>2017-09-27T17:06:11Z</time>
      </trkpt>
      <trkpt lat="40.318326" lon="0.329669">
        <ele>111.188</ele>
        <time>2017-09-27T17:06:10Z</time>
      </trkpt>
      <trkpt lat="40.318309" lon="0.329653">
        <ele>111.065</ele>
        <time>2017-09-27T17:06:09Z</time>
      </trkpt>
      <trkpt lat="40.318289" lon="0.329639">
        <ele>110.929</ele>
        <time>2017-09-27T17:06:08Z</time>
      </trkpt>
      <trkpt lat="40.318274" lon="0.329620">
        <ele>110.877</ele>
        <time>2017-09-27T17:06:07Z</time>
      </trkpt>
      <trkpt lat="40.318262" lon="0.329597">
        <ele>110.835</ele>
        <time>2017-09-27T17:06:06Z</time>
      </trkpt>
      <trkpt lat="40.318251" lon="0.329572">
        <ele>110.868</ele>
        <time>2017-09-27T17:06:05Z</time>
      </trkpt>
      <trkpt lat="40.318245" lon="0.329544">
        <ele>110.936</ele>
        <time>2017-09-27T17:06:04Z</time>
      </trkpt>
      <trkpt lat="40.318243" lon="0.329515">
        <ele>111.098</ele>
        <time>2017-09-27T17:06:03Z</time>
      </trkpt>
      <trkpt lat="40.318246" lon="0.329486">
        <ele>111.233</ele>
        <time>2017-09-27T17:06:02Z</time>
      </trkpt>
      <trkpt lat="40.318255" lon="0.329459">
        <ele>111.423</ele>
        <time>2017-09-27T17:06:01Z</time>
      </trkpt>
      <trkpt lat="40.318270" lon="0.329436">
        <ele>111.615</ele>
        <time>2017-09-27T17:06:00Z</time>
      </trkpt>
      <trkpt lat="40.318290" lon="0.329421">
        <ele>111.808</ele>
        <time>2017-09-27T17:05:59Z</time>
      </trkpt>
      <trkpt lat="40.318312" lon="0.329412">
        <ele>112.096</ele>
        <time>2017-09-27T17:05:58Z</time>
      </trkpt>
      <trkpt lat="40.318335" lon="0.329414">
        <ele>112.193</ele>
        <time>2017-09-27T17:05:57Z</time>
      </trkpt>
      <trkpt lat="40.318358" lon="0.329414">
        <ele>112.497</ele>
        <time>2017-09-27T17:05:56Z</time>
      </trkpt>
      <trkpt lat="40.318383" lon="0.329419">
        <ele>112.645</ele>
        <time>2017-09-27T17:05:55Z</time>
      </trkpt>
      <trkpt lat="40.318401" lon="0.329417">
        <ele>112.823</ele>
        <time>2017-09-27T17:05:54Z</time>
      </trkpt>
      <trkpt lat="40.318421" lon="0.329418">
        <ele>113.066</ele>
        <time>2017-09-27T17:05:53Z</time>
      </trkpt>
      <trkpt lat="40.318443" lon="0.329418">
        <ele>113.244</ele>
        <time>2017-09-27T17:05:52Z</time>
      </trkpt>
      <trkpt lat="40.318463" lon="0.329411">
        <ele>113.526</ele>
        <time>2017-09-27T17:05:51Z</time>
      </trkpt>
      <trkpt lat="40.318484" lon="0.329406">
        <ele>113.753</ele>
        <time>2017-09-27T17:05:50Z</time>
      </trkpt>
      <trkpt lat="40.318506" lon="0.329388">
        <ele>113.904</ele>
        <time>2017-09-27T17:05:49Z</time>
      </trkpt>
      <trkpt lat="40.318527" lon="0.329366">
        <ele>114.214</ele>
        <time>2017-09-27T17:05:48Z</time>
      </trkpt>
      <trkpt lat="40.318549" lon="0.329344">
        <ele>114.408</ele>
        <time>2017-09-27T17:05:47Z</time>
      </trkpt>
      <trkpt lat="40.318565" lon="0.329314">
        <ele>114.638</ele>
        <time>2017-09-27T17:05:46Z</time>
      </trkpt>
      <trkpt lat="40.318580" lon="0.329284">
        <ele>114.775</ele>
        <time>2017-09-27T17:05:45Z</time>
      </trkpt>
      <trkpt lat="40.318601" lon="0.329246">
        <ele>114.929</ele>
        <time>2017-09-27T17:05:44Z</time>
      </trkpt>
      <trkpt lat="40.318612" lon="0.329194">
        <ele>115.087</ele>
        <time>2017-09-27T17:05:43Z</time>
      </trkpt>
      <trkpt lat="40.318599" lon="0.329144">
        <ele>114.915</ele>
        <time>2017-09-27T17:05:42Z</time>
      </trkpt>
      <trkpt lat="40.318571" lon="0.329108">
        <ele>114.888</ele>
        <time>2017-09-27T17:05:41Z</time>
      </trkpt>
      <trkpt lat="40.318542" lon="0.329105">
        <ele>114.746</ele>
        <time>2017-09-27T17:05:40Z</time>
      </trkpt>
      <trkpt lat="40.318510" lon="0.329107">
        <ele>114.578</ele>
        <time>2017-09-27T17:05:39Z</time>
      </trkpt>
      <trkpt lat="40.318479" lon="0.329121">
        <ele>114.328</ele>
        <time>2017-09-27T17:05:38Z</time>
      </trkpt>
      <trkpt lat="40.318451" lon="0.329140">
        <ele>114.089</ele>
        <time>2017-09-27T17:05:37Z</time>
      </trkpt>
      <trkpt lat="40.318425" lon="0.329159">
        <ele>113.717</ele>
        <time>2017-09-27T17:05:36Z</time>
      </trkpt>
      <trkpt lat="40.318394" lon="0.329174">
        <ele>113.408</ele>
        <time>2017-09-27T17:05:35Z</time>
      </trkpt>
      <trkpt lat="40.318363" lon="0.329189">
        <ele>113.125</ele>
        <time>2017-09-27T17:05:34Z</time>
      </trkpt>
      <trkpt lat="40.318325" lon="0.329202">
        <ele>112.922</ele>
        <time>2017-09-27T17:05:33Z</time>
      </trkpt>
      <trkpt lat="40.318276" lon="0.329206">
        <ele>112.886</ele>
        <time>2017-09-27T17:05:32Z</time>
      </trkpt>
      <trkpt lat="40.318227" lon="0.329209">
        <ele>112.724</ele>
        <time>2017-09-27T17:05:31Z</time>
      </trkpt>
      <trkpt lat="40.318179" lon="0.329207">
        <ele>112.722</ele>
        <time>2017-09-27T17:05:30Z</time>
      </trkpt>
      <trkpt lat="40.318135" lon="0.329202">
        <ele>112.725</ele>
        <time>2017-09-27T17:05:29Z</time>
      </trkpt>
      <trkpt lat="40.318094" lon="0.329205">
        <ele>112.633</ele>
        <time>2017-09-27T17:05:28Z</time>
      </trkpt>
      <trkpt lat="40.318047" lon="0.329218">
        <ele>112.775</ele>
        <time>2017-09-27T17:05:27Z</time>
      </trkpt>
      <trkpt lat="40.318010" lon="0.329241">
        <ele>113.391</ele>
        <time>2017-09-27T17:05:26Z</time>
      </trkpt>
      <trkpt lat="40.317978" lon="0.329262">
        <ele>113.881</ele>
        <time>2017-09-27T17:05:25Z</time>
      </trkpt>
      <trkpt lat="40.317949" lon="0.329293">
        <ele>114.119</ele>
        <time>2017-09-27T17:05:24Z</time>
      </trkpt>
      <trkpt lat="40.317915" lon="0.329329">
        <ele>114.508</ele>
        <time>2017-09-27T17:05:23Z</time>
      </trkpt>
      <trkpt lat="40.317887" lon="0.329378">
        <ele>114.592</ele>
        <time>2017-09-27T17:05:22Z</time>
      </trkpt>
      <trkpt lat="40.317871" lon="0.329429">
        <ele>114.239</ele>
        <time>2017-09-27T17:05:21Z</time>
      </trkpt>
      <trkpt lat="40.317852" lon="0.329485">
        <ele>113.953</ele>
        <time>2017-09-27T17:05:20Z</time>
      </trkpt>
      <trkpt lat="40.317837" lon="0.329540">
        <ele>113.541</ele>
        <time>2017-09-27T17:05:19Z</time>
      </trkpt>
      <trkpt lat="40.317819" lon="0.329583">
        <ele>113.349</ele>
        <time>2017-09-27T17:05:18Z</time>
      </trkpt>
      <trkpt lat="40.317799" lon="0.329622">
        <ele>113.172</ele>
        <time>2017-09-27T17:05:17Z</time>
      </trkpt>
      <trkpt lat="40.317775" lon="0.329659">
        <ele>113.060</ele>
        <time>2017-09-27T17:05:16Z</time>
      </trkpt>
      <trkpt lat="40.317754" lon="0.329695">
        <ele>113.352</ele>
        <time>2017-09-27T17:05:15Z</time>
      </trkpt>
      <trkpt lat="40.317733" lon="0.329733">
        <ele>113.773</ele>
        <time>2017-09-27T17:05:14Z</time>
      </trkpt>
      <trkpt lat="40.317709" lon="0.329774">
        <ele>114.285</ele>
        <time>2017-09-27T17:05:13Z</time>
      </trkpt>
      <trkpt lat="40.317678" lon="0.329816">
        <ele>114.913</ele>
        <time>2017-09-27T17:05:12Z</time>
      </trkpt>
      <trkpt lat="40.317656" lon="0.329862">
        <ele>115.308</ele>
        <time>2017-09-27T17:05:11Z</time>
      </trkpt>
      <trkpt lat="40.317640" lon="0.329906">
        <ele>115.530</ele>
        <time>2017-09-27T17:05:10Z</time>
      </trkpt>
      <trkpt lat="40.317641" lon="0.329956">
        <ele>114.977</ele>
        <time>2017-09-27T17:05:09Z</time>
      </trkpt>
      <trkpt lat="40.317658" lon="0.330011">
        <ele>113.821</ele>
        <time>2017-09-27T17:05:08Z</time>
      </trkpt>
      <trkpt lat="40.317685" lon="0.330068">
        <ele>112.839</ele>
        <time>2017-09-27T17:05:07Z</time>
      </trkpt>
      <trkpt lat="40.317732" lon="0.330132">
        <ele>111.437</ele>
        <time>2017-09-27T17:05:06Z</time>
      </trkpt>
      <trkpt lat="40.317781" lon="0.330194">
        <ele>110.320</ele>
        <time>2017-09-27T17:05:05Z</time>
      </trkpt>
      <trkpt lat="40.317828" lon="0.330249">
        <ele>109.848</ele>
        <time>2017-09-27T17:05:04Z</time>
      </trkpt>
      <trkpt lat="40.317878" lon="0.330288">
        <ele>108.850</ele>
        <time>2017-09-27T17:05:03Z</time>
      </trkpt>
      <trkpt lat="40.317933" lon="0.330312">
        <ele>107.766</ele>
        <time>2017-09-27T17:05:02Z</time>
      </trkpt>
      <trkpt lat="40.317989" lon="0.330334">
        <ele>106.529</ele>
        <time>2017-09-27T17:05:01Z</time>
      </trkpt>
      <trkpt lat="40.318040" lon="0.330377">
        <ele>105.721</ele>
        <time>2017-09-27T17:05:00Z</time>
      </trkpt>
      <trkpt lat="40.318095" lon="0.330431">
        <ele>105.708</ele>
        <time>2017-09-27T17:04:59Z</time>
      </trkpt>
      <trkpt lat="40.318131" lon="0.330508">
        <ele>105.739</ele>
        <time>2017-09-27T17:04:58Z</time>
      </trkpt>
      <trkpt lat="40.318152" lon="0.330600">
        <ele>105.496</ele>
        <time>2017-09-27T17:04:57Z</time>
      </trkpt>
      <trkpt lat="40.318150" lon="0.330699">
        <ele>105.010</ele>
        <time>2017-09-27T17:04:56Z</time>
      </trkpt>
      <trkpt lat="40.318127" lon="0.330799">
        <ele>104.648</ele>
        <time>2017-09-27T17:04:55Z</time>
      </trkpt>
      <trkpt lat="40.318103" lon="0.330886">
        <ele>104.546</ele>
        <time>2017-09-27T17:04:54Z</time>
      </trkpt>
      <trkpt lat="40.318090" lon="0.330987">
        <ele>104.239</ele>
        <time>2017-09-27T17:04:53Z</time>
      </trkpt>
      <trkpt lat="40.318091" lon="0.331089">
        <ele>103.847</ele>
        <time>2017-09-27T17:04:52Z</time>
      </trkpt>
      <trkpt lat="40.318114" lon="0.331191">
        <ele>103.369</ele>
        <time>2017-09-27T17:04:51Z</time>
      </trkpt>
      <trkpt lat="40.318134" lon="0.331294">
        <ele>102.865</ele>
        <time>2017-09-27T17:04:50Z</time>
      </trkpt>
      <trkpt lat="40.318151" lon="0.331404">
        <ele>102.268</ele>
        <time>2017-09-27T17:04:49Z</time>
      </trkpt>
      <trkpt lat="40.318150" lon="0.331517">
        <ele>101.714</ele>
        <time>2017-09-27T17:04:48Z</time>
      </trkpt>
      <trkpt lat="40.318138" lon="0.331626">
        <ele>101.308</ele>
        <time>2017-09-27T17:04:47Z</time>
      </trkpt>
      <trkpt lat="40.318110" lon="0.331726">
        <ele>100.939</ele>
        <time>2017-09-27T17:04:46Z</time>
      </trkpt>
      <trkpt lat="40.318074" lon="0.331810">
        <ele>100.386</ele>
        <time>2017-09-27T17:04:45Z</time>
      </trkpt>
      <trkpt lat="40.318036" lon="0.331886">
        <ele>100.120</ele>
        <time>2017-09-27T17:04:44Z</time>
      </trkpt>
      <trkpt lat="40.317995" lon="0.331957">
        <ele>100.268</ele>
        <time>2017-09-27T17:04:43Z</time>
      </trkpt>
      <trkpt lat="40.317952" lon="0.332022">
        <ele>100.726</ele>
        <time>2017-09-27T17:04:42Z</time>
      </trkpt>
      <trkpt lat="40.317906" lon="0.332093">
        <ele>101.219</ele>
        <time>2017-09-27T17:04:41Z</time>
      </trkpt>
      <trkpt lat="40.317861" lon="0.332157">
        <ele>101.767</ele>
        <time>2017-09-27T17:04:40Z</time>
      </trkpt>
      <trkpt lat="40.317813" lon="0.332231">
        <ele>102.229</ele>
        <time>2017-09-27T17:04:39Z</time>
      </trkpt>
      <trkpt lat="40.317768" lon="0.332316">
        <ele>102.836</ele>
        <time>2017-09-27T17:04:38Z</time>
      </trkpt>
      <trkpt lat="40.317722" lon="0.332407">
        <ele>103.117</ele>
        <time>2017-09-27T17:04:37Z</time>
      </trkpt>
      <trkpt lat="40.317680" lon="0.332484">
        <ele>103.518</ele>
        <time>2017-09-27T17:04:36Z</time>
      </trkpt>
      <trkpt lat="40.317645" lon="0.332548">
        <ele>103.708</ele>
        <time>2017-09-27T17:04:35Z</time>
      </trkpt>
      <trkpt lat="40.317598" lon="0.332587">
        <ele>104.386</ele>
        <time>2017-09-27T17:04:34Z</time>
      </trkpt>
      <trkpt lat="40.317546" lon="0.332607">
        <ele>105.053</ele>
        <time>2017-09-27T17:04:33Z</time>
      </trkpt>
      <trkpt lat="40.317503" lon="0.332602">
        <ele>105.647</ele>
        <time>2017-09-27T17:04:32Z</time>
      </trkpt>
      <trkpt lat="40.317464" lon="0.332568">
        <ele>105.955</ele>
        <time>2017-09-27T17:04:31Z</time>
      </trkpt>
      <trkpt lat="40.317441" lon="0.332517">
        <ele>106.233</ele>
        <time>2017-09-27T17:04:30Z</time>
      </trkpt>
      <trkpt lat="40.317433" lon="0.332454">
        <ele>106.466</ele>
        <time>2017-09-27T17:04:29Z</time>
      </trkpt>
      <trkpt lat="40.317442" lon="0.332371">
        <ele>106.824</ele>
        <time>2017-09-27T17:04:28Z</time>
      </trkpt>
      <trkpt lat="40.317441" lon="0.332281">
        <ele>107.286</ele>
        <time>2017-09-27T17:04:27Z</time>
      </trkpt>
      <trkpt lat="40.317429" lon="0.332197">
        <ele>107.718</ele>
        <time>2017-09-27T17:04:26Z</time>
      </trkpt>
      <trkpt lat="40.317408" lon="0.332100">
        <ele>108.798</ele>
        <time>2017-09-27T17:04:25Z</time>
      </trkpt>
      <trkpt lat="40.317385" lon="0.332001">
        <ele>109.617</ele>
        <time>2017-09-27T17:04:24Z</time>
      </trkpt>
      <trkpt lat="40.317363" lon="0.331905">
        <ele>110.108</ele>
        <time>2017-09-27T17:04:23Z</time>
      </trkpt>
      <trkpt lat="40.317342" lon="0.331812">
        <ele>110.354</ele>
        <time>2017-09-27T17:04:22Z</time>
      </trkpt>
      <trkpt lat="40.317322" lon="0.331723">
        <ele>110.541</ele>
        <time>2017-09-27T17:04:21Z</time>
      </trkpt>
      <trkpt lat="40.317307" lon="0.331633">
        <ele>110.745</ele>
        <time>2017-09-27T17:04:20Z</time>
      </trkpt>
      <trkpt lat="40.317294" lon="0.331546">
        <ele>110.963</ele>
        <time>2017-09-27T17:04:19Z</time>
      </trkpt>
      <trkpt lat="40.317279" lon="0.331462">
        <ele>110.981</ele>
        <time>2017-09-27T17:04:18Z</time>
      </trkpt>
      <trkpt lat="40.317266" lon="0.331385">
        <ele>111.034</ele>
        <time>2017-09-27T17:04:17Z</time>
      </trkpt>
      <trkpt lat="40.317240" lon="0.331321">
        <ele>111.242</ele>
        <time>2017-09-27T17:04:16Z</time>
      </trkpt>
      <trkpt lat="40.317205" lon="0.331273">
        <ele>111.544</ele>
        <time>2017-09-27T17:04:15Z</time>
      </trkpt>
      <trkpt lat="40.317164" lon="0.331255">
        <ele>111.865</ele>
        <time>2017-09-27T17:04:14Z</time>
      </trkpt>
      <trkpt lat="40.317131" lon="0.331247">
        <ele>112.068</ele>
        <time>2017-09-27T17:04:13Z</time>
      </trkpt>
      <trkpt lat="40.317096" lon="0.331250">
        <ele>112.214</ele>
        <time>2017-09-27T17:04:12Z</time>
      </trkpt>
      <trkpt lat="40.317061" lon="0.331252">
        <ele>112.408</ele>
        <time>2017-09-27T17:04:11Z</time>
      </trkpt>
      <trkpt lat="40.317026" lon="0.331264">
        <ele>112.519</ele>
        <time>2017-09-27T17:04:10Z</time>
      </trkpt>
      <trkpt lat="40.316990" lon="0.331268">
        <ele>112.626</ele>
        <time>2017-09-27T17:04:09Z</time>
      </trkpt>
      <trkpt lat="40.316952" lon="0.331269">
        <ele>112.890</ele>
        <time>2017-09-27T17:04:08Z</time>
      </trkpt>
      <trkpt lat="40.316914" lon="0.331262">
        <ele>112.988</ele>
        <time>2017-09-27T17:04:07Z</time>
      </trkpt>
      <trkpt lat="40.316874" lon="0.331251">
        <ele>112.976</ele>
        <time>2017-09-27T17:04:06Z</time>
      </trkpt>
      <trkpt lat="40.316827" lon="0.331234">
        <ele>112.999</ele>
        <time>2017-09-27T17:04:05Z</time>
      </trkpt>
      <trkpt lat="40.316773" lon="0.331212">
        <ele>112.947</ele>
        <time>2017-09-27T17:04:04Z</time>
      </trkpt>
      <trkpt lat="40.316714" lon="0.331186">
        <ele>112.979</ele>
        <time>2017-09-27T17:04:03Z</time>
      </trkpt>
      <trkpt lat="40.316651" lon="0.331158">
        <ele>112.742</ele>
        <time>2017-09-27T17:04:02Z</time>
      </trkpt>
      <trkpt lat="40.316588" lon="0.331127">
        <ele>112.422</ele>
        <time>2017-09-27T17:04:01Z</time>
      </trkpt>
      <trkpt lat="40.316525" lon="0.331101">
        <ele>112.114</ele>
        <time>2017-09-27T17:04:00Z</time>
      </trkpt>
      <trkpt lat="40.316459" lon="0.331076">
        <ele>111.808</ele>
        <time>2017-09-27T17:03:59Z</time>
      </trkpt>
      <trkpt lat="40.316397" lon="0.331044">
        <ele>111.537</ele>
        <time>2017-09-27T17:03:58Z</time>
      </trkpt>
      <trkpt lat="40.316337" lon="0.331019">
        <ele>111.444</ele>
        <time>2017-09-27T17:03:57Z</time>
      </trkpt>
      <trkpt lat="40.316274" lon="0.330998">
        <ele>111.248</ele>
        <time>2017-09-27T17:03:56Z</time>
      </trkpt>
      <trkpt lat="40.316214" lon="0.330978">
        <ele>111.036</ele>
        <time>2017-09-27T17:03:55Z</time>
      </trkpt>
      <trkpt lat="40.316156" lon="0.330950">
        <ele>110.894</ele>
        <time>2017-09-27T17:03:54Z</time>
      </trkpt>
      <trkpt lat="40.316107" lon="0.330905">
        <ele>110.717</ele>
        <time>2017-09-27T17:03:53Z</time>
      </trkpt>
      <trkpt lat="40.316054" lon="0.330842">
        <ele>110.675</ele>
        <time>2017-09-27T17:03:52Z</time>
      </trkpt>
      <trkpt lat="40.316015" lon="0.330756">
        <ele>110.727</ele>
        <time>2017-09-27T17:03:51Z</time>
      </trkpt>
      <trkpt lat="40.315978" lon="0.330656">
        <ele>111.048</ele>
        <time>2017-09-27T17:03:50Z</time>
      </trkpt>
      <trkpt lat="40.315930" lon="0.330569">
        <ele>111.361</ele>
        <time>2017-09-27T17:03:49Z</time>
      </trkpt>
      <trkpt lat="40.315874" lon="0.330492">
        <ele>111.617</ele>
        <time>2017-09-27T17:03:48Z</time>
      </trkpt>
      <trkpt lat="40.315807" lon="0.330435">
        <ele>111.908</ele>
        <time>2017-09-27T17:03:47Z</time>
      </trkpt>
      <trkpt lat="40.315732" lon="0.330410">
        <ele>112.197</ele>
        <time>2017-09-27T17:03:46Z</time>
      </trkpt>
      <trkpt lat="40.315649" lon="0.330418">
        <ele>112.094</ele>
        <time>2017-09-27T17:03:45Z</time>
      </trkpt>
      <trkpt lat="40.315564" lon="0.330430">
        <ele>111.858</ele>
        <time>2017-09-27T17:03:44Z</time>
      </trkpt>
      <trkpt lat="40.315489" lon="0.330431">
        <ele>111.446</ele>
        <time>2017-09-27T17:03:43Z</time>
      </trkpt>
      <trkpt lat="40.315419" lon="0.330418">
        <ele>111.284</ele>
        <time>2017-09-27T17:03:42Z</time>
      </trkpt>
      <trkpt lat="40.315351" lon="0.330407">
        <ele>111.187</ele>
        <time>2017-09-27T17:03:41Z</time>
      </trkpt>
      <trkpt lat="40.315280" lon="0.330407">
        <ele>110.765</ele>
        <time>2017-09-27T17:03:40Z</time>
      </trkpt>
      <trkpt lat="40.315207" lon="0.330402">
        <ele>110.327</ele>
        <time>2017-09-27T17:03:39Z</time>
      </trkpt>
      <trkpt lat="40.315132" lon="0.330396">
        <ele>109.866</ele>
        <time>2017-09-27T17:03:38Z</time>
      </trkpt>
      <trkpt lat="40.315056" lon="0.330392">
        <ele>109.329</ele>
        <time>2017-09-27T17:03:37Z</time>
      </trkpt>
      <trkpt lat="40.314982" lon="0.330381">
        <ele>109.021</ele>
        <time>2017-09-27T17:03:36Z</time>
      </trkpt>
      <trkpt lat="40.314910" lon="0.330354">
        <ele>108.708</ele>
        <time>2017-09-27T17:03:35Z</time>
      </trkpt>
      <trkpt lat="40.314845" lon="0.330313">
        <ele>108.889</ele>
        <time>2017-09-27T17:03:34Z</time>
      </trkpt>
      <trkpt lat="40.314790" lon="0.330255">
        <ele>109.186</ele>
        <time>2017-09-27T17:03:33Z</time>
      </trkpt>
      <trkpt lat="40.314736" lon="0.330205">
        <ele>109.230</ele>
        <time>2017-09-27T17:03:32Z</time>
      </trkpt>
      <trkpt lat="40.314685" lon="0.330159">
        <ele>109.488</ele>
        <time>2017-09-27T17:03:31Z</time>
      </trkpt>
      <trkpt lat="40.314635" lon="0.330112">
        <ele>109.646</ele>
        <time>2017-09-27T17:03:30Z</time>
      </trkpt>
      <trkpt lat="40.314573" lon="0.330062">
        <ele>109.649</ele>
        <time>2017-09-27T17:03:29Z</time>
      </trkpt>
      <trkpt lat="40.314507" lon="0.330012">
        <ele>109.597</ele>
        <time>2017-09-27T17:03:28Z</time>
      </trkpt>
      <trkpt lat="40.314430" lon="0.329960">
        <ele>109.589</ele>
        <time>2017-09-27T17:03:27Z</time>
      </trkpt>
      <trkpt lat="40.314353" lon="0.329905">
        <ele>109.962</ele>
        <time>2017-09-27T17:03:26Z</time>
      </trkpt>
      <trkpt lat="40.314273" lon="0.329852">
        <ele>110.283</ele>
        <time>2017-09-27T17:03:25Z</time>
      </trkpt>
      <trkpt lat="40.314189" lon="0.329794">
        <ele>110.411</ele>
        <time>2017-09-27T17:03:24Z</time>
      </trkpt>
      <trkpt lat="40.314108" lon="0.329734">
        <ele>110.708</ele>
        <time>2017-09-27T17:03:23Z</time>
      </trkpt>
      <trkpt lat="40.314025" lon="0.329662">
        <ele>111.539</ele>
        <time>2017-09-27T17:03:22Z</time>
      </trkpt>
      <trkpt lat="40.313936" lon="0.329595">
        <ele>112.446</ele>
        <time>2017-09-27T17:03:21Z</time>
      </trkpt>
      <trkpt lat="40.313841" lon="0.329544">
        <ele>112.970</ele>
        <time>2017-09-27T17:03:20Z</time>
      </trkpt>
      <trkpt lat="40.313748" lon="0.329497">
        <ele>113.068</ele>
        <time>2017-09-27T17:03:19Z</time>
      </trkpt>
      <trkpt lat="40.313607" lon="0.329416">
        <ele>113.676</ele>
        <time>2017-09-27T17:03:18Z</time>
      </trkpt>
      <trkpt lat="40.313537" lon="0.329376">
        <ele>113.989</ele>
        <time>2017-09-27T17:03:17Z</time>
      </trkpt>
      <trkpt lat="40.313466" lon="0.329336">
        <ele>114.327</ele>
        <time>2017-09-27T17:03:16Z</time>
      </trkpt>
      <trkpt lat="40.313178" lon="0.329161">
        <ele>115.429</ele>
        <time>2017-09-27T17:03:12Z</time>
      </trkpt>
      <trkpt lat="40.313097" lon="0.329117">
        <ele>115.029</ele>
        <time>2017-09-27T17:03:11Z</time>
      </trkpt>
      <trkpt lat="40.313022" lon="0.329073">
        <ele>114.600</ele>
        <time>2017-09-27T17:03:10Z</time>
      </trkpt>
      <trkpt lat="40.312953" lon="0.329025">
        <ele>114.220</ele>
        <time>2017-09-27T17:03:09Z</time>
      </trkpt>
      <trkpt lat="40.312896" lon="0.328971">
        <ele>114.208</ele>
        <time>2017-09-27T17:03:08Z</time>
      </trkpt>
      <trkpt lat="40.312845" lon="0.328917">
        <ele>114.355</ele>
        <time>2017-09-27T17:03:07Z</time>
      </trkpt>
      <trkpt lat="40.312800" lon="0.328868">
        <ele>114.372</ele>
        <time>2017-09-27T17:03:06Z</time>
      </trkpt>
      <trkpt lat="40.312759" lon="0.328824">
        <ele>113.966</ele>
        <time>2017-09-27T17:03:05Z</time>
      </trkpt>
      <trkpt lat="40.312718" lon="0.328787">
        <ele>113.464</ele>
        <time>2017-09-27T17:03:04Z</time>
      </trkpt>
      <trkpt lat="40.312677" lon="0.328747">
        <ele>113.112</ele>
        <time>2017-09-27T17:03:03Z</time>
      </trkpt>
      <trkpt lat="40.312636" lon="0.328704">
        <ele>112.885</ele>
        <time>2017-09-27T17:03:02Z</time>
      </trkpt>
      <trkpt lat="40.312599" lon="0.328656">
        <ele>112.713</ele>
        <time>2017-09-27T17:03:01Z</time>
      </trkpt>
      <trkpt lat="40.312565" lon="0.328600">
        <ele>112.835</ele>
        <time>2017-09-27T17:03:00Z</time>
      </trkpt>
      <trkpt lat="40.312534" lon="0.328542">
        <ele>112.916</ele>
        <time>2017-09-27T17:02:59Z</time>
      </trkpt>
      <trkpt lat="40.312501" lon="0.328488">
        <ele>112.976</ele>
        <time>2017-09-27T17:02:58Z</time>
      </trkpt>
      <trkpt lat="40.312474" lon="0.328430">
        <ele>113.013</ele>
        <time>2017-09-27T17:02:57Z</time>
      </trkpt>
      <trkpt lat="40.312457" lon="0.328361">
        <ele>113.308</ele>
        <time>2017-09-27T17:02:56Z</time>
      </trkpt>
      <trkpt lat="40.312415" lon="0.328165">
        <ele>114.574</ele>
        <time>2017-09-27T17:02:55Z</time>
      </trkpt>
      <trkpt lat="40.312394" lon="0.328067">
        <ele>115.151</ele>
        <time>2017-09-27T17:02:54Z</time>
      </trkpt>
      <trkpt lat="40.312372" lon="0.327969">
        <ele>115.515</ele>
        <time>2017-09-27T17:02:51Z</time>
      </trkpt>
      <trkpt lat="40.312330" lon="0.327908">
        <ele>115.633</ele>
        <time>2017-09-27T17:02:50Z</time>
      </trkpt>
      <trkpt lat="40.312287" lon="0.327851">
        <ele>115.881</ele>
        <time>2017-09-27T17:02:49Z</time>
      </trkpt>
      <trkpt lat="40.312243" lon="0.327786">
        <ele>116.074</ele>
        <time>2017-09-27T17:02:48Z</time>
      </trkpt>
      <trkpt lat="40.312196" lon="0.327719">
        <ele>116.022</ele>
        <time>2017-09-27T17:02:47Z</time>
      </trkpt>
      <trkpt lat="40.312143" lon="0.327653">
        <ele>115.974</ele>
        <time>2017-09-27T17:02:46Z</time>
      </trkpt>
      <trkpt lat="40.312086" lon="0.327594">
        <ele>115.765</ele>
        <time>2017-09-27T17:02:45Z</time>
      </trkpt>
      <trkpt lat="40.312032" lon="0.327544">
        <ele>115.468</ele>
        <time>2017-09-27T17:02:44Z</time>
      </trkpt>
      <trkpt lat="40.311980" lon="0.327495">
        <ele>115.114</ele>
        <time>2017-09-27T17:02:43Z</time>
      </trkpt>
      <trkpt lat="40.311931" lon="0.327444">
        <ele>114.608</ele>
        <time>2017-09-27T17:02:42Z</time>
      </trkpt>
      <trkpt lat="40.311887" lon="0.327399">
        <ele>113.999</ele>
        <time>2017-09-27T17:02:41Z</time>
      </trkpt>
      <trkpt lat="40.311846" lon="0.327361">
        <ele>113.346</ele>
        <time>2017-09-27T17:02:40Z</time>
      </trkpt>
      <trkpt lat="40.311807" lon="0.327328">
        <ele>112.690</ele>
        <time>2017-09-27T17:02:39Z</time>
      </trkpt>
      <trkpt lat="40.311770" lon="0.327298">
        <ele>111.998</ele>
        <time>2017-09-27T17:02:38Z</time>
      </trkpt>
      <trkpt lat="40.311734" lon="0.327268">
        <ele>111.376</ele>
        <time>2017-09-27T17:02:37Z</time>
      </trkpt>
      <trkpt lat="40.311702" lon="0.327233">
        <ele>110.619</ele>
        <time>2017-09-27T17:02:36Z</time>
      </trkpt>
      <trkpt lat="40.311672" lon="0.327189">
        <ele>109.897</ele>
        <time>2017-09-27T17:02:35Z</time>
      </trkpt>
      <trkpt lat="40.311654" lon="0.327133">
        <ele>109.169</ele>
        <time>2017-09-27T17:02:34Z</time>
      </trkpt>
      <trkpt lat="40.311653" lon="0.327068">
        <ele>108.653</ele>
        <time>2017-09-27T17:02:33Z</time>
      </trkpt>
      <trkpt lat="40.311663" lon="0.327007">
        <ele>108.404</ele>
        <time>2017-09-27T17:02:32Z</time>
      </trkpt>
      <trkpt lat="40.311677" lon="0.326946">
        <ele>108.214</ele>
        <time>2017-09-27T17:02:31Z</time>
      </trkpt>
      <trkpt lat="40.311691" lon="0.326885">
        <ele>108.008</ele>
        <time>2017-09-27T17:02:30Z</time>
      </trkpt>
      <trkpt lat="40.311702" lon="0.326824">
        <ele>107.768</ele>
        <time>2017-09-27T17:02:29Z</time>
      </trkpt>
      <trkpt lat="40.311713" lon="0.326762">
        <ele>107.695</ele>
        <time>2017-09-27T17:02:28Z</time>
      </trkpt>
      <trkpt lat="40.311728" lon="0.326702">
        <ele>107.719</ele>
        <time>2017-09-27T17:02:27Z</time>
      </trkpt>
      <trkpt lat="40.311738" lon="0.326642">
        <ele>107.917</ele>
        <time>2017-09-27T17:02:26Z</time>
      </trkpt>
      <trkpt lat="40.311744" lon="0.326579">
        <ele>108.285</ele>
        <time>2017-09-27T17:02:25Z</time>
      </trkpt>
      <trkpt lat="40.311750" lon="0.326517">
        <ele>108.528</ele>
        <time>2017-09-27T17:02:24Z</time>
      </trkpt>
      <trkpt lat="40.311756" lon="0.326460">
        <ele>108.856</ele>
        <time>2017-09-27T17:02:23Z</time>
      </trkpt>
      <trkpt lat="40.311760" lon="0.326400">
        <ele>109.018</ele>
        <time>2017-09-27T17:02:22Z</time>
      </trkpt>
      <trkpt lat="40.311767" lon="0.326340">
        <ele>109.011</ele>
        <time>2017-09-27T17:02:21Z</time>
      </trkpt>
      <trkpt lat="40.311791" lon="0.326280">
        <ele>109.521</ele>
        <time>2017-09-27T17:02:20Z</time>
      </trkpt>
      <trkpt lat="40.311822" lon="0.326226">
        <ele>110.103</ele>
        <time>2017-09-27T17:02:19Z</time>
      </trkpt>
      <trkpt lat="40.311856" lon="0.326175">
        <ele>110.808</ele>
        <time>2017-09-27T17:02:18Z</time>
      </trkpt>
      <trkpt lat="40.311890" lon="0.326119">
        <ele>111.544</ele>
        <time>2017-09-27T17:02:17Z</time>
      </trkpt>
      <trkpt lat="40.311914" lon="0.326055">
        <ele>112.021</ele>
        <time>2017-09-27T17:02:16Z</time>
      </trkpt>
      <trkpt lat="40.311934" lon="0.325990">
        <ele>112.355</ele>
        <time>2017-09-27T17:02:15Z</time>
      </trkpt>
      <trkpt lat="40.311958" lon="0.325926">
        <ele>112.893</ele>
        <time>2017-09-27T17:02:14Z</time>
      </trkpt>
      <trkpt lat="40.311981" lon="0.325871">
        <ele>113.571</ele>
        <time>2017-09-27T17:02:13Z</time>
      </trkpt>
      <trkpt lat="40.312007" lon="0.325821">
        <ele>114.314</ele>
        <time>2017-09-27T17:02:12Z</time>
      </trkpt>
      <trkpt lat="40.312027" lon="0.325772">
        <ele>114.932</ele>
        <time>2017-09-27T17:02:11Z</time>
      </trkpt>
      <trkpt lat="40.312046" lon="0.325726">
        <ele>115.524</ele>
        <time>2017-09-27T17:02:10Z</time>
      </trkpt>
      <trkpt lat="40.312061" lon="0.325680">
        <ele>115.876</ele>
        <time>2017-09-27T17:02:09Z</time>
      </trkpt>
      <trkpt lat="40.312076" lon="0.325642">
        <ele>116.190</ele>
        <time>2017-09-27T17:02:08Z</time>
      </trkpt>
      <trkpt lat="40.312095" lon="0.325596">
        <ele>116.419</ele>
        <time>2017-09-27T17:02:07Z</time>
      </trkpt>
      <trkpt lat="40.312112" lon="0.325559">
        <ele>116.608</ele>
        <time>2017-09-27T17:02:06Z</time>
      </trkpt>
      <trkpt lat="40.312130" lon="0.325512">
        <ele>117.010</ele>
        <time>2017-09-27T17:02:05Z</time>
      </trkpt>
      <trkpt lat="40.312142" lon="0.325463">
        <ele>117.287</ele>
        <time>2017-09-27T17:02:04Z</time>
      </trkpt>
      <trkpt lat="40.312146" lon="0.325412">
        <ele>117.351</ele>
        <time>2017-09-27T17:02:03Z</time>
      </trkpt>
      <trkpt lat="40.312137" lon="0.325365">
        <ele>117.129</ele>
        <time>2017-09-27T17:02:02Z</time>
      </trkpt>
      <trkpt lat="40.312105" lon="0.325325">
        <ele>116.737</ele>
        <time>2017-09-27T17:02:01Z</time>
      </trkpt>
      <trkpt lat="40.312065" lon="0.325315">
        <ele>116.270</ele>
        <time>2017-09-27T17:02:00Z</time>
      </trkpt>
      <trkpt lat="40.312019" lon="0.325339">
        <ele>115.548</ele>
        <time>2017-09-27T17:01:59Z</time>
      </trkpt>
      <trkpt lat="40.311973" lon="0.325388">
        <ele>114.650</ele>
        <time>2017-09-27T17:01:58Z</time>
      </trkpt>
      <trkpt lat="40.311927" lon="0.325457">
        <ele>113.513</ele>
        <time>2017-09-27T17:01:57Z</time>
      </trkpt>
      <trkpt lat="40.311887" lon="0.325522">
        <ele>112.543</ele>
        <time>2017-09-27T17:01:56Z</time>
      </trkpt>
      <trkpt lat="40.311851" lon="0.325579">
        <ele>111.507</ele>
        <time>2017-09-27T17:01:55Z</time>
      </trkpt>
      <trkpt lat="40.311817" lon="0.325609">
        <ele>110.808</ele>
        <time>2017-09-27T17:01:54Z</time>
      </trkpt>
      <trkpt lat="40.311791" lon="0.325614">
        <ele>110.354</ele>
        <time>2017-09-27T17:01:53Z</time>
      </trkpt>
      <trkpt lat="40.311781" lon="0.325590">
        <ele>110.451</ele>
        <time>2017-09-27T17:01:52Z</time>
      </trkpt>
      <trkpt lat="40.311788" lon="0.325551">
        <ele>110.855</ele>
        <time>2017-09-27T17:01:51Z</time>
      </trkpt>
      <trkpt lat="40.311811" lon="0.325501">
        <ele>111.763</ele>
        <time>2017-09-27T17:01:50Z</time>
      </trkpt>
      <trkpt lat="40.311832" lon="0.325436">
        <ele>112.691</ele>
        <time>2017-09-27T17:01:49Z</time>
      </trkpt>
      <trkpt lat="40.311834" lon="0.325356">
        <ele>113.434</ele>
        <time>2017-09-27T17:01:48Z</time>
      </trkpt>
      <trkpt lat="40.311810" lon="0.325270">
        <ele>114.272</ele>
        <time>2017-09-27T17:01:47Z</time>
      </trkpt>
      <trkpt lat="40.311773" lon="0.325182">
        <ele>115.574</ele>
        <time>2017-09-27T17:01:46Z</time>
      </trkpt>
      <trkpt lat="40.311730" lon="0.325106">
        <ele>116.542</ele>
        <time>2017-09-27T17:01:45Z</time>
      </trkpt>
      <trkpt lat="40.311673" lon="0.325048">
        <ele>117.222</ele>
        <time>2017-09-27T17:01:44Z</time>
      </trkpt>
      <trkpt lat="40.311620" lon="0.325002">
        <ele>117.514</ele>
        <time>2017-09-27T17:01:43Z</time>
      </trkpt>
      <trkpt lat="40.311583" lon="0.324954">
        <ele>118.008</ele>
        <time>2017-09-27T17:01:42Z</time>
      </trkpt>
      <trkpt lat="40.311556" lon="0.324908">
        <ele>118.777</ele>
        <time>2017-09-27T17:01:41Z</time>
      </trkpt>
      <trkpt lat="40.311538" lon="0.324847">
        <ele>119.794</ele>
        <time>2017-09-27T17:01:40Z</time>
      </trkpt>
      <trkpt lat="40.311528" lon="0.324774">
        <ele>121.068</ele>
        <time>2017-09-27T17:01:39Z</time>
      </trkpt>
      <trkpt lat="40.311520" lon="0.324696">
        <ele>122.476</ele>
        <time>2017-09-27T17:01:38Z</time>
      </trkpt>
      <trkpt lat="40.311517" lon="0.324611">
        <ele>123.834</ele>
        <time>2017-09-27T17:01:37Z</time>
      </trkpt>
      <trkpt lat="40.311514" lon="0.324518">
        <ele>125.557</ele>
        <time>2017-09-27T17:01:36Z</time>
      </trkpt>
      <trkpt lat="40.311507" lon="0.324417">
        <ele>127.195</ele>
        <time>2017-09-27T17:01:35Z</time>
      </trkpt>
      <trkpt lat="40.311505" lon="0.324303">
        <ele>128.847</ele>
        <time>2017-09-27T17:01:34Z</time>
      </trkpt>
      <trkpt lat="40.311501" lon="0.324175">
        <ele>130.724</ele>
        <time>2017-09-27T17:01:33Z</time>
      </trkpt>
      <trkpt lat="40.311496" lon="0.324052">
        <ele>132.404</ele>
        <time>2017-09-27T17:01:32Z</time>
      </trkpt>
      <trkpt lat="40.311485" lon="0.323925">
        <ele>134.214</ele>
        <time>2017-09-27T17:01:31Z</time>
      </trkpt>
      <trkpt lat="40.311469" lon="0.323796">
        <ele>136.408</ele>
        <time>2017-09-27T17:01:30Z</time>
      </trkpt>
      <trkpt lat="40.311454" lon="0.323666">
        <ele>138.915</ele>
        <time>2017-09-27T17:01:29Z</time>
      </trkpt>
      <trkpt lat="40.311440" lon="0.323533">
        <ele>141.482</ele>
        <time>2017-09-27T17:01:28Z</time>
      </trkpt>
      <trkpt lat="40.311427" lon="0.323397">
        <ele>143.776</ele>
        <time>2017-09-27T17:01:27Z</time>
      </trkpt>
      <trkpt lat="40.311411" lon="0.323256">
        <ele>146.384</ele>
        <time>2017-09-27T17:01:26Z</time>
      </trkpt>
      <trkpt lat="40.311395" lon="0.323117">
        <ele>148.912</ele>
        <time>2017-09-27T17:01:25Z</time>
      </trkpt>
      <trkpt lat="40.311381" lon="0.322987">
        <ele>151.235</ele>
        <time>2017-09-27T17:01:24Z</time>
      </trkpt>
      <trkpt lat="40.311370" lon="0.322875">
        <ele>153.233</ele>
        <time>2017-09-27T17:01:23Z</time>
      </trkpt>
      <trkpt lat="40.311364" lon="0.322775">
        <ele>155.075</ele>
        <time>2017-09-27T17:01:22Z</time>
      </trkpt>
      <trkpt lat="40.311356" lon="0.322690">
        <ele>156.017</ele>
        <time>2017-09-27T17:01:21Z</time>
      </trkpt>
      <trkpt lat="40.311350" lon="0.322622">
        <ele>156.887</ele>
        <time>2017-09-27T17:01:20Z</time>
      </trkpt>
      <trkpt lat="40.311335" lon="0.322577">
        <ele>157.315</ele>
        <time>2017-09-27T17:01:19Z</time>
      </trkpt>
      <trkpt lat="40.311302" lon="0.322551">
        <ele>157.708</ele>
        <time>2017-09-27T17:01:18Z</time>
      </trkpt>
      <trkpt lat="40.311256" lon="0.322555">
        <ele>157.854</ele>
        <time>2017-09-27T17:01:17Z</time>
      </trkpt>
      <trkpt lat="40.311202" lon="0.322589">
        <ele>157.521</ele>
        <time>2017-09-27T17:01:16Z</time>
      </trkpt>
      <trkpt lat="40.311142" lon="0.322644">
        <ele>156.945</ele>
        <time>2017-09-27T17:01:15Z</time>
      </trkpt>
      <trkpt lat="40.311089" lon="0.322688">
        <ele>156.313</ele>
        <time>2017-09-27T17:01:14Z</time>
      </trkpt>
      <trkpt lat="40.311043" lon="0.322710">
        <ele>156.051</ele>
        <time>2017-09-27T17:01:13Z</time>
      </trkpt>
      <trkpt lat="40.311004" lon="0.322557">
        <ele>158.514</ele>
        <time>2017-09-27T17:01:12Z</time>
      </trkpt>
      <trkpt lat="40.310965" lon="0.322405">
        <ele>161.482</ele>
        <time>2017-09-27T17:01:07Z</time>
      </trkpt>
      <trkpt lat="40.310999" lon="0.322333">
        <ele>162.744</ele>
        <time>2017-09-27T17:01:06Z</time>
      </trkpt>
      <trkpt lat="40.311031" lon="0.322255">
        <ele>164.079</ele>
        <time>2017-09-27T17:01:05Z</time>
      </trkpt>
      <trkpt lat="40.311050" lon="0.322190">
        <ele>165.205</ele>
        <time>2017-09-27T17:01:04Z</time>
      </trkpt>
      <trkpt lat="40.311052" lon="0.322137">
        <ele>166.325</ele>
        <time>2017-09-27T17:01:03Z</time>
      </trkpt>
      <trkpt lat="40.311030" lon="0.322109">
        <ele>167.108</ele>
        <time>2017-09-27T17:01:02Z</time>
      </trkpt>
      <trkpt lat="40.310991" lon="0.322094">
        <ele>167.880</ele>
        <time>2017-09-27T17:01:01Z</time>
      </trkpt>
      <trkpt lat="40.310944" lon="0.322092">
        <ele>168.387</ele>
        <time>2017-09-27T17:01:00Z</time>
      </trkpt>
      <trkpt lat="40.310882" lon="0.322093">
        <ele>168.821</ele>
        <time>2017-09-27T17:00:59Z</time>
      </trkpt>
      <trkpt lat="40.310808" lon="0.322084">
        <ele>168.989</ele>
        <time>2017-09-27T17:00:58Z</time>
      </trkpt>
      <trkpt lat="40.310745" lon="0.322060">
        <ele>168.117</ele>
        <time>2017-09-27T17:00:57Z</time>
      </trkpt>
      <trkpt lat="40.310697" lon="0.322015">
        <ele>167.860</ele>
        <time>2017-09-27T17:00:56Z</time>
      </trkpt>
      <trkpt lat="40.310662" lon="0.321961">
        <ele>167.868</ele>
        <time>2017-09-27T17:00:55Z</time>
      </trkpt>
      <trkpt lat="40.310638" lon="0.321895">
        <ele>168.010</ele>
        <time>2017-09-27T17:00:54Z</time>
      </trkpt>
      <trkpt lat="40.310621" lon="0.321825">
        <ele>168.514</ele>
        <time>2017-09-27T17:00:53Z</time>
      </trkpt>
      <trkpt lat="40.310606" lon="0.321738">
        <ele>169.354</ele>
        <time>2017-09-27T17:00:52Z</time>
      </trkpt>
      <trkpt lat="40.310596" lon="0.321639">
        <ele>170.209</ele>
        <time>2017-09-27T17:00:51Z</time>
      </trkpt>
      <trkpt lat="40.310592" lon="0.321531">
        <ele>170.808</ele>
        <time>2017-09-27T17:00:50Z</time>
      </trkpt>
      <trkpt lat="40.310591" lon="0.321423">
        <ele>171.574</ele>
        <time>2017-09-27T17:00:49Z</time>
      </trkpt>
      <trkpt lat="40.310594" lon="0.321322">
        <ele>171.911</ele>
        <time>2017-09-27T17:00:48Z</time>
      </trkpt>
      <trkpt lat="40.310601" lon="0.321228">
        <ele>172.375</ele>
        <time>2017-09-27T17:00:47Z</time>
      </trkpt>
      <trkpt lat="40.310613" lon="0.321140">
        <ele>172.823</ele>
        <time>2017-09-27T17:00:46Z</time>
      </trkpt>
      <trkpt lat="40.310626" lon="0.321060">
        <ele>173.621</ele>
        <time>2017-09-27T17:00:45Z</time>
      </trkpt>
      <trkpt lat="40.310639" lon="0.320987">
        <ele>174.414</ele>
        <time>2017-09-27T17:00:44Z</time>
      </trkpt>
      <trkpt lat="40.310654" lon="0.320915">
        <ele>175.472</ele>
        <time>2017-09-27T17:00:43Z</time>
      </trkpt>
      <trkpt lat="40.310666" lon="0.320843">
        <ele>176.394</ele>
        <time>2017-09-27T17:00:42Z</time>
      </trkpt>
      <trkpt lat="40.310678" lon="0.320766">
        <ele>176.735</ele>
        <time>2017-09-27T17:00:41Z</time>
      </trkpt>
      <trkpt lat="40.310691" lon="0.320680">
        <ele>177.186</ele>
        <time>2017-09-27T17:00:40Z</time>
      </trkpt>
      <trkpt lat="40.310712" lon="0.320595">
        <ele>177.814</ele>
        <time>2017-09-27T17:00:39Z</time>
      </trkpt>
      <trkpt lat="40.310734" lon="0.320503">
        <ele>178.208</ele>
        <time>2017-09-27T17:00:38Z</time>
      </trkpt>
      <trkpt lat="40.310763" lon="0.320414">
        <ele>178.636</ele>
        <time>2017-09-27T17:00:37Z</time>
      </trkpt>
      <trkpt lat="40.310805" lon="0.320331">
        <ele>179.483</ele>
        <time>2017-09-27T17:00:36Z</time>
      </trkpt>
      <trkpt lat="40.310858" lon="0.320262">
        <ele>180.517</ele>
        <time>2017-09-27T17:00:35Z</time>
      </trkpt>
      <trkpt lat="40.310912" lon="0.320188">
        <ele>181.155</ele>
        <time>2017-09-27T17:00:34Z</time>
      </trkpt>
      <trkpt lat="40.310963" lon="0.320104">
        <ele>181.953</ele>
        <time>2017-09-27T17:00:33Z</time>
      </trkpt>
      <trkpt lat="40.311003" lon="0.320005">
        <ele>182.666</ele>
        <time>2017-09-27T17:00:32Z</time>
      </trkpt>
      <trkpt lat="40.311027" lon="0.319895">
        <ele>183.354</ele>
        <time>2017-09-27T17:00:31Z</time>
      </trkpt>
      <trkpt lat="40.311032" lon="0.319775">
        <ele>183.066</ele>
        <time>2017-09-27T17:00:30Z</time>
      </trkpt>
      <trkpt lat="40.311024" lon="0.319651">
        <ele>182.884</ele>
        <time>2017-09-27T17:00:29Z</time>
      </trkpt>
      <trkpt lat="40.311005" lon="0.319532">
        <ele>182.707</ele>
        <time>2017-09-27T17:00:28Z</time>
      </trkpt>
      <trkpt lat="40.310985" lon="0.319417">
        <ele>182.917</ele>
        <time>2017-09-27T17:00:27Z</time>
      </trkpt>
      <trkpt lat="40.310968" lon="0.319306">
        <ele>183.608</ele>
        <time>2017-09-27T17:00:26Z</time>
      </trkpt>
      <trkpt lat="40.310950" lon="0.319199">
        <ele>184.251</ele>
        <time>2017-09-27T17:00:25Z</time>
      </trkpt>
      <trkpt lat="40.310933" lon="0.319097">
        <ele>184.668</ele>
        <time>2017-09-27T17:00:24Z</time>
      </trkpt>
      <trkpt lat="40.310912" lon="0.319002">
        <ele>184.752</ele>
        <time>2017-09-27T17:00:23Z</time>
      </trkpt>
      <trkpt lat="40.310889" lon="0.318911">
        <ele>184.890</ele>
        <time>2017-09-27T17:00:22Z</time>
      </trkpt>
      <trkpt lat="40.310866" lon="0.318824">
        <ele>184.628</ele>
        <time>2017-09-27T17:00:21Z</time>
      </trkpt>
      <trkpt lat="40.310843" lon="0.318737">
        <ele>184.411</ele>
        <time>2017-09-27T17:00:20Z</time>
      </trkpt>
      <trkpt lat="40.310830" lon="0.318650">
        <ele>184.779</ele>
        <time>2017-09-27T17:00:19Z</time>
      </trkpt>
      <trkpt lat="40.310821" lon="0.318565">
        <ele>185.331</ele>
        <time>2017-09-27T17:00:18Z</time>
      </trkpt>
      <trkpt lat="40.310822" lon="0.318480">
        <ele>185.953</ele>
        <time>2017-09-27T17:00:17Z</time>
      </trkpt>
      <trkpt lat="40.310831" lon="0.318396">
        <ele>186.604</ele>
        <time>2017-09-27T17:00:16Z</time>
      </trkpt>
      <trkpt lat="40.310849" lon="0.318316">
        <ele>187.614</ele>
        <time>2017-09-27T17:00:15Z</time>
      </trkpt>
      <trkpt lat="40.310878" lon="0.318244">
        <ele>189.108</ele>
        <time>2017-09-27T17:00:14Z</time>
      </trkpt>
      <trkpt lat="40.310915" lon="0.318178">
        <ele>190.718</ele>
        <time>2017-09-27T17:00:13Z</time>
      </trkpt>
      <trkpt lat="40.310955" lon="0.318120">
        <ele>192.145</ele>
        <time>2017-09-27T17:00:12Z</time>
      </trkpt>
      <trkpt lat="40.310989" lon="0.318066">
        <ele>193.329</ele>
        <time>2017-09-27T17:00:11Z</time>
      </trkpt>
      <trkpt lat="40.311012" lon="0.318019">
        <ele>194.247</ele>
        <time>2017-09-27T17:00:10Z</time>
      </trkpt>
      <trkpt lat="40.311017" lon="0.317964">
        <ele>194.985</ele>
        <time>2017-09-27T17:00:09Z</time>
      </trkpt>
      <trkpt lat="40.310842" lon="0.318032">
        <ele>190.798</ele>
        <time>2017-09-27T17:00:08Z</time>
      </trkpt>
      <trkpt lat="40.310755" lon="0.318066">
        <ele>191.086</ele>
        <time>2017-09-27T17:00:07Z</time>
      </trkpt>
      <trkpt lat="40.310667" lon="0.318100">
        <ele>191.688</ele>
        <time>2017-09-27T17:00:02Z</time>
      </trkpt>
      <trkpt lat="40.310610" lon="0.318183">
        <ele>190.773</ele>
        <time>2017-09-27T17:00:01Z</time>
      </trkpt>
      <trkpt lat="40.310551" lon="0.318252">
        <ele>189.985</ele>
        <time>2017-09-27T17:00:00Z</time>
      </trkpt>
      <trkpt lat="40.310495" lon="0.318317">
        <ele>190.813</ele>
        <time>2017-09-27T16:59:59Z</time>
      </trkpt>
      <trkpt lat="40.310441" lon="0.318377">
        <ele>191.708</ele>
        <time>2017-09-27T16:59:58Z</time>
      </trkpt>
      <trkpt lat="40.310396" lon="0.318428">
        <ele>192.430</ele>
        <time>2017-09-27T16:59:57Z</time>
      </trkpt>
      <trkpt lat="40.310352" lon="0.318474">
        <ele>193.277</ele>
        <time>2017-09-27T16:59:56Z</time>
      </trkpt>
      <trkpt lat="40.310325" lon="0.318531">
        <ele>193.081</ele>
        <time>2017-09-27T16:59:55Z</time>
      </trkpt>
      <trkpt lat="40.310313" lon="0.318588">
        <ele>192.279</ele>
        <time>2017-09-27T16:59:54Z</time>
      </trkpt>
      <trkpt lat="40.310308" lon="0.318647">
        <ele>191.497</ele>
        <time>2017-09-27T16:59:53Z</time>
      </trkpt>
      <trkpt lat="40.310303" lon="0.318705">
        <ele>190.770</ele>
        <time>2017-09-27T16:59:52Z</time>
      </trkpt>
      <trkpt lat="40.310299" lon="0.318760">
        <ele>190.168</ele>
        <time>2017-09-27T16:59:51Z</time>
      </trkpt>
      <trkpt lat="40.310301" lon="0.318818">
        <ele>189.210</ele>
        <time>2017-09-27T16:59:50Z</time>
      </trkpt>
      <trkpt lat="40.310303" lon="0.318878">
        <ele>188.258</ele>
        <time>2017-09-27T16:59:49Z</time>
      </trkpt>
      <trkpt lat="40.310304" lon="0.318936">
        <ele>187.152</ele>
        <time>2017-09-27T16:59:48Z</time>
      </trkpt>
      <trkpt lat="40.310300" lon="0.318993">
        <ele>186.117</ele>
        <time>2017-09-27T16:59:47Z</time>
      </trkpt>
      <trkpt lat="40.310296" lon="0.319048">
        <ele>185.108</ele>
        <time>2017-09-27T16:59:46Z</time>
      </trkpt>
      <trkpt lat="40.310299" lon="0.319101">
        <ele>183.958</ele>
        <time>2017-09-27T16:59:45Z</time>
      </trkpt>
      <trkpt lat="40.310299" lon="0.319155">
        <ele>182.895</ele>
        <time>2017-09-27T16:59:44Z</time>
      </trkpt>
      <trkpt lat="40.310299" lon="0.319205">
        <ele>181.799</ele>
        <time>2017-09-27T16:59:43Z</time>
      </trkpt>
      <trkpt lat="40.310302" lon="0.319255">
        <ele>180.687</ele>
        <time>2017-09-27T16:59:42Z</time>
      </trkpt>
      <trkpt lat="40.310298" lon="0.319305">
        <ele>179.635</ele>
        <time>2017-09-27T16:59:41Z</time>
      </trkpt>
      <trkpt lat="40.310293" lon="0.319355">
        <ele>178.658</ele>
        <time>2017-09-27T16:59:40Z</time>
      </trkpt>
      <trkpt lat="40.310284" lon="0.319407">
        <ele>177.756</ele>
        <time>2017-09-27T16:59:39Z</time>
      </trkpt>
      <trkpt lat="40.310262" lon="0.319464">
        <ele>177.318</ele>
        <time>2017-09-27T16:59:38Z</time>
      </trkpt>
      <trkpt lat="40.310243" lon="0.319510">
        <ele>177.267</ele>
        <time>2017-09-27T16:59:37Z</time>
      </trkpt>
      <trkpt lat="40.310191" lon="0.319627">
        <ele>176.681</ele>
        <time>2017-09-27T16:59:35Z</time>
      </trkpt>
      <trkpt lat="40.310156" lon="0.319684">
        <ele>176.419</ele>
        <time>2017-09-27T16:59:34Z</time>
      </trkpt>
      <trkpt lat="40.310116" lon="0.319735">
        <ele>176.408</ele>
        <time>2017-09-27T16:59:33Z</time>
      </trkpt>
      <trkpt lat="40.310078" lon="0.319786">
        <ele>176.679</ele>
        <time>2017-09-27T16:59:32Z</time>
      </trkpt>
      <trkpt lat="40.310039" lon="0.319832">
        <ele>176.726</ele>
        <time>2017-09-27T16:59:31Z</time>
      </trkpt>
      <trkpt lat="40.309999" lon="0.319871">
        <ele>176.840</ele>
        <time>2017-09-27T16:59:30Z</time>
      </trkpt>
      <trkpt lat="40.309959" lon="0.319906">
        <ele>176.178</ele>
        <time>2017-09-27T16:59:29Z</time>
      </trkpt>
      <trkpt lat="40.309914" lon="0.319937">
        <ele>175.516</ele>
        <time>2017-09-27T16:59:28Z</time>
      </trkpt>
      <trkpt lat="40.309862" lon="0.319959">
        <ele>175.089</ele>
        <time>2017-09-27T16:59:27Z</time>
      </trkpt>
      <trkpt lat="40.309805" lon="0.319964">
        <ele>175.097</ele>
        <time>2017-09-27T16:59:26Z</time>
      </trkpt>
      <trkpt lat="40.309739" lon="0.319952">
        <ele>175.419</ele>
        <time>2017-09-27T16:59:25Z</time>
      </trkpt>
      <trkpt lat="40.309671" lon="0.319927">
        <ele>176.694</ele>
        <time>2017-09-27T16:59:24Z</time>
      </trkpt>
      <trkpt lat="40.309604" lon="0.319896">
        <ele>178.057</ele>
        <time>2017-09-27T16:59:23Z</time>
      </trkpt>
      <trkpt lat="40.309536" lon="0.319873">
        <ele>179.122</ele>
        <time>2017-09-27T16:59:22Z</time>
      </trkpt>
      <trkpt lat="40.309467" lon="0.319864">
        <ele>179.808</ele>
        <time>2017-09-27T16:59:21Z</time>
      </trkpt>
      <trkpt lat="40.309399" lon="0.319869">
        <ele>180.752</ele>
        <time>2017-09-27T16:59:20Z</time>
      </trkpt>
      <trkpt lat="40.309329" lon="0.319873">
        <ele>182.039</ele>
        <time>2017-09-27T16:59:19Z</time>
      </trkpt>
      <trkpt lat="40.309260" lon="0.319874">
        <ele>183.453</ele>
        <time>2017-09-27T16:59:18Z</time>
      </trkpt>
      <trkpt lat="40.309195" lon="0.319869">
        <ele>184.841</ele>
        <time>2017-09-27T16:59:17Z</time>
      </trkpt>
      <trkpt lat="40.309141" lon="0.319854">
        <ele>186.289</ele>
        <time>2017-09-27T16:59:16Z</time>
      </trkpt>
      <trkpt lat="40.309092" lon="0.319847">
        <ele>187.382</ele>
        <time>2017-09-27T16:59:15Z</time>
      </trkpt>
      <trkpt lat="40.309047" lon="0.319865">
        <ele>188.010</ele>
        <time>2017-09-27T16:59:14Z</time>
      </trkpt>
      <trkpt lat="40.309014" lon="0.319909">
        <ele>188.122</ele>
        <time>2017-09-27T16:59:13Z</time>
      </trkpt>
      <trkpt lat="40.309002" lon="0.319969">
        <ele>187.679</ele>
        <time>2017-09-27T16:59:12Z</time>
      </trkpt>
      <trkpt lat="40.309010" lon="0.320040">
        <ele>187.205</ele>
        <time>2017-09-27T16:59:11Z</time>
      </trkpt>
      <trkpt lat="40.309033" lon="0.320125">
        <ele>187.125</ele>
        <time>2017-09-27T16:59:10Z</time>
      </trkpt>
      <trkpt lat="40.309067" lon="0.320225">
        <ele>186.808</ele>
        <time>2017-09-27T16:59:09Z</time>
      </trkpt>
      <trkpt lat="40.309104" lon="0.320334">
        <ele>186.550</ele>
        <time>2017-09-27T16:59:08Z</time>
      </trkpt>
      <trkpt lat="40.309140" lon="0.320446">
        <ele>186.117</ele>
        <time>2017-09-27T16:59:07Z</time>
      </trkpt>
      <trkpt lat="40.309169" lon="0.320554">
        <ele>185.911</ele>
        <time>2017-09-27T16:59:06Z</time>
      </trkpt>
      <trkpt lat="40.309184" lon="0.320654">
        <ele>185.149</ele>
        <time>2017-09-27T16:59:05Z</time>
      </trkpt>
      <trkpt lat="40.309183" lon="0.320743">
        <ele>184.837</ele>
        <time>2017-09-27T16:59:04Z</time>
      </trkpt>
      <trkpt lat="40.309166" lon="0.320817">
        <ele>185.110</ele>
        <time>2017-09-27T16:59:03Z</time>
      </trkpt>
      <trkpt lat="40.309133" lon="0.320882">
        <ele>184.898</ele>
        <time>2017-09-27T16:59:02Z</time>
      </trkpt>
      <trkpt lat="40.309089" lon="0.320940">
        <ele>184.750</ele>
        <time>2017-09-27T16:59:01Z</time>
      </trkpt>
      <trkpt lat="40.309039" lon="0.320994">
        <ele>184.895</ele>
        <time>2017-09-27T16:59:00Z</time>
      </trkpt>
      <trkpt lat="40.308980" lon="0.321036">
        <ele>185.349</ele>
        <time>2017-09-27T16:58:59Z</time>
      </trkpt>
      <trkpt lat="40.308911" lon="0.321062">
        <ele>186.123</ele>
        <time>2017-09-27T16:58:58Z</time>
      </trkpt>
      <trkpt lat="40.308834" lon="0.321080">
        <ele>188.708</ele>
        <time>2017-09-27T16:58:57Z</time>
      </trkpt>
      <trkpt lat="40.308749" lon="0.321096">
        <ele>192.292</ele>
        <time>2017-09-27T16:58:56Z</time>
      </trkpt>
      <trkpt lat="40.308655" lon="0.321107">
        <ele>196.189</ele>
        <time>2017-09-27T16:58:55Z</time>
      </trkpt>
      <trkpt lat="40.308567" lon="0.321123">
        <ele>199.543</ele>
        <time>2017-09-27T16:58:54Z</time>
      </trkpt>
      <trkpt lat="40.308497" lon="0.321155">
        <ele>201.631</ele>
        <time>2017-09-27T16:58:53Z</time>
      </trkpt>
      <trkpt lat="40.308438" lon="0.321204">
        <ele>203.249</ele>
        <time>2017-09-27T16:58:52Z</time>
      </trkpt>
      <trkpt lat="40.308385" lon="0.321271">
        <ele>204.492</ele>
        <time>2017-09-27T16:58:51Z</time>
      </trkpt>
      <trkpt lat="40.308341" lon="0.321358">
        <ele>205.110</ele>
        <time>2017-09-27T16:58:50Z</time>
      </trkpt>
      <trkpt lat="40.308301" lon="0.321460">
        <ele>204.652</ele>
        <time>2017-09-27T16:58:49Z</time>
      </trkpt>
      <trkpt lat="40.308259" lon="0.321574">
        <ele>204.138</ele>
        <time>2017-09-27T16:58:48Z</time>
      </trkpt>
      <trkpt lat="40.308215" lon="0.321690">
        <ele>204.070</ele>
        <time>2017-09-27T16:58:47Z</time>
      </trkpt>
      <trkpt lat="40.308167" lon="0.321798">
        <ele>204.717</ele>
        <time>2017-09-27T16:58:46Z</time>
      </trkpt>
      <trkpt lat="40.308113" lon="0.321896">
        <ele>205.908</ele>
        <time>2017-09-27T16:58:45Z</time>
      </trkpt>
      <trkpt lat="40.308051" lon="0.321988">
        <ele>207.786</ele>
        <time>2017-09-27T16:58:44Z</time>
      </trkpt>
      <trkpt lat="40.307987" lon="0.322078">
        <ele>208.583</ele>
        <time>2017-09-27T16:58:43Z</time>
      </trkpt>
      <trkpt lat="40.307930" lon="0.322163">
        <ele>209.357</ele>
        <time>2017-09-27T16:58:42Z</time>
      </trkpt>
      <trkpt lat="40.307879" lon="0.322246">
        <ele>209.735</ele>
        <time>2017-09-27T16:58:41Z</time>
      </trkpt>
      <trkpt lat="40.307833" lon="0.322322">
        <ele>209.793</ele>
        <time>2017-09-27T16:58:40Z</time>
      </trkpt>
      <trkpt lat="40.307789" lon="0.322379">
        <ele>209.986</ele>
        <time>2017-09-27T16:58:39Z</time>
      </trkpt>
      <trkpt lat="40.307746" lon="0.322414">
        <ele>210.284</ele>
        <time>2017-09-27T16:58:38Z</time>
      </trkpt>
      <trkpt lat="40.307707" lon="0.322421">
        <ele>210.816</ele>
        <time>2017-09-27T16:58:37Z</time>
      </trkpt>
      <trkpt lat="40.307679" lon="0.322406">
        <ele>211.646</ele>
        <time>2017-09-27T16:58:36Z</time>
      </trkpt>
      <trkpt lat="40.307665" lon="0.322372">
        <ele>212.288</ele>
        <time>2017-09-27T16:58:35Z</time>
      </trkpt>
      <trkpt lat="40.307673" lon="0.322301">
        <ele>212.916</ele>
        <time>2017-09-27T16:58:34Z</time>
      </trkpt>
      <trkpt lat="40.307697" lon="0.322221">
        <ele>213.608</ele>
        <time>2017-09-27T16:58:33Z</time>
      </trkpt>
      <trkpt lat="40.307727" lon="0.322131">
        <ele>214.327</ele>
        <time>2017-09-27T16:58:32Z</time>
      </trkpt>
      <trkpt lat="40.307754" lon="0.322039">
        <ele>215.134</ele>
        <time>2017-09-27T16:58:31Z</time>
      </trkpt>
      <trkpt lat="40.307774" lon="0.321946">
        <ele>216.078</ele>
        <time>2017-09-27T16:58:30Z</time>
      </trkpt>
      <trkpt lat="40.307782" lon="0.321855">
        <ele>216.216</ele>
        <time>2017-09-27T16:58:29Z</time>
      </trkpt>
      <trkpt lat="40.307785" lon="0.321774">
        <ele>216.424</ele>
        <time>2017-09-27T16:58:28Z</time>
      </trkpt>
      <trkpt lat="40.307784" lon="0.321703">
        <ele>216.727</ele>
        <time>2017-09-27T16:58:27Z</time>
      </trkpt>
      <trkpt lat="40.307778" lon="0.321643">
        <ele>217.135</ele>
        <time>2017-09-27T16:58:26Z</time>
      </trkpt>
      <trkpt lat="40.307768" lon="0.321594">
        <ele>217.397</ele>
        <time>2017-09-27T16:58:25Z</time>
      </trkpt>
      <trkpt lat="40.307752" lon="0.321560">
        <ele>217.367</ele>
        <time>2017-09-27T16:58:24Z</time>
      </trkpt>
      <trkpt lat="40.307737" lon="0.321540">
        <ele>217.481</ele>
        <time>2017-09-27T16:58:23Z</time>
      </trkpt>
      <trkpt lat="40.307722" lon="0.321528">
        <ele>217.419</ele>
        <time>2017-09-27T16:58:22Z</time>
      </trkpt>
      <trkpt lat="40.307706" lon="0.321522">
        <ele>217.408</ele>
        <time>2017-09-27T16:58:21Z</time>
      </trkpt>
      <trkpt lat="40.307690" lon="0.321522">
        <ele>217.429</ele>
        <time>2017-09-27T16:58:20Z</time>
      </trkpt>
      <trkpt lat="40.307675" lon="0.321524">
        <ele>217.346</ele>
        <time>2017-09-27T16:58:19Z</time>
      </trkpt>
      <trkpt lat="40.307660" lon="0.321529">
        <ele>217.360</ele>
        <time>2017-09-27T16:58:18Z</time>
      </trkpt>
      <trkpt lat="40.307646" lon="0.321535">
        <ele>217.248</ele>
        <time>2017-09-27T16:58:17Z</time>
      </trkpt>
      <trkpt lat="40.307631" lon="0.321543">
        <ele>217.286</ele>
        <time>2017-09-27T16:58:16Z</time>
      </trkpt>
      <trkpt lat="40.307616" lon="0.321551">
        <ele>217.229</ele>
        <time>2017-09-27T16:58:15Z</time>
      </trkpt>
      <trkpt lat="40.307602" lon="0.321557">
        <ele>217.147</ele>
        <time>2017-09-27T16:58:14Z</time>
      </trkpt>
      <trkpt lat="40.307590" lon="0.321562">
        <ele>217.129</ele>
        <time>2017-09-27T16:58:13Z</time>
      </trkpt>
      <trkpt lat="40.307576" lon="0.321567">
        <ele>217.189</ele>
        <time>2017-09-27T16:58:12Z</time>
      </trkpt>
      <trkpt lat="40.307563" lon="0.321572">
        <ele>217.106</ele>
        <time>2017-09-27T16:58:11Z</time>
      </trkpt>
      <trkpt lat="40.307552" lon="0.321575">
        <ele>217.126</ele>
        <time>2017-09-27T16:58:10Z</time>
      </trkpt>
      <trkpt lat="40.307541" lon="0.321575">
        <ele>217.008</ele>
        <time>2017-09-27T16:58:09Z</time>
      </trkpt>
      <trkpt lat="40.307530" lon="0.321576">
        <ele>217.071</ele>
        <time>2017-09-27T16:58:08Z</time>
      </trkpt>
      <trkpt lat="40.307518" lon="0.321577">
        <ele>217.098</ele>
        <time>2017-09-27T16:58:07Z</time>
      </trkpt>
      <trkpt lat="40.307506" lon="0.321576">
        <ele>217.012</ele>
        <time>2017-09-27T16:58:06Z</time>
      </trkpt>
      <trkpt lat="40.307494" lon="0.321574">
        <ele>216.920</ele>
        <time>2017-09-27T16:58:05Z</time>
      </trkpt>
      <trkpt lat="40.307482" lon="0.321573">
        <ele>216.818</ele>
        <time>2017-09-27T16:58:04Z</time>
      </trkpt>
      <trkpt lat="40.307470" lon="0.321576">
        <ele>216.791</ele>
        <time>2017-09-27T16:58:03Z</time>
      </trkpt>
      <trkpt lat="40.307459" lon="0.321580">
        <ele>216.629</ele>
        <time>2017-09-27T16:58:02Z</time>
      </trkpt>
      <trkpt lat="40.307448" lon="0.321583">
        <ele>216.481</ele>
        <time>2017-09-27T16:58:01Z</time>
      </trkpt>
      <trkpt lat="40.307435" lon="0.321589">
        <ele>216.332</ele>
        <time>2017-09-27T16:58:00Z</time>
      </trkpt>
      <trkpt lat="40.307424" lon="0.321595">
        <ele>216.292</ele>
        <time>2017-09-27T16:57:59Z</time>
      </trkpt>
      <trkpt lat="40.307413" lon="0.321598">
        <ele>216.111</ele>
        <time>2017-09-27T16:57:58Z</time>
      </trkpt>
      <trkpt lat="40.307402" lon="0.321600">
        <ele>215.908</ele>
        <time>2017-09-27T16:57:57Z</time>
      </trkpt>
      <trkpt lat="40.307391" lon="0.321604">
        <ele>215.876</ele>
        <time>2017-09-27T16:57:56Z</time>
      </trkpt>
      <trkpt lat="40.307379" lon="0.321609">
        <ele>215.773</ele>
        <time>2017-09-27T16:57:55Z</time>
      </trkpt>
      <trkpt lat="40.307368" lon="0.321614">
        <ele>215.627</ele>
        <time>2017-09-27T16:57:54Z</time>
      </trkpt>
      <trkpt lat="40.307357" lon="0.321620">
        <ele>215.585</ele>
        <time>2017-09-27T16:57:53Z</time>
      </trkpt>
      <trkpt lat="40.307346" lon="0.321627">
        <ele>215.323</ele>
        <time>2017-09-27T16:57:52Z</time>
      </trkpt>
      <trkpt lat="40.307335" lon="0.321634">
        <ele>215.236</ele>
        <time>2017-09-27T16:57:51Z</time>
      </trkpt>
      <trkpt lat="40.307325" lon="0.321643">
        <ele>215.114</ele>
        <time>2017-09-27T16:57:50Z</time>
      </trkpt>
      <trkpt lat="40.307315" lon="0.321653">
        <ele>215.056</ele>
        <time>2017-09-27T16:57:49Z</time>
      </trkpt>
      <trkpt lat="40.307305" lon="0.321665">
        <ele>214.914</ele>
        <time>2017-09-27T16:57:48Z</time>
      </trkpt>
      <trkpt lat="40.307297" lon="0.321679">
        <ele>214.854</ele>
        <time>2017-09-27T16:57:47Z</time>
      </trkpt>
      <trkpt lat="40.307289" lon="0.321694">
        <ele>214.709</ele>
        <time>2017-09-27T16:57:46Z</time>
      </trkpt>
      <trkpt lat="40.307281" lon="0.321708">
        <ele>214.608</ele>
        <time>2017-09-27T16:57:45Z</time>
      </trkpt>
      <trkpt lat="40.307272" lon="0.321722">
        <ele>214.594</ele>
        <time>2017-09-27T16:57:44Z</time>
      </trkpt>
      <trkpt lat="40.307264" lon="0.321737">
        <ele>214.571</ele>
        <time>2017-09-27T16:57:43Z</time>
      </trkpt>
      <trkpt lat="40.307256" lon="0.321752">
        <ele>214.445</ele>
        <time>2017-09-27T16:57:42Z</time>
      </trkpt>
      <trkpt lat="40.307247" lon="0.321765">
        <ele>214.383</ele>
        <time>2017-09-27T16:57:41Z</time>
      </trkpt>
      <trkpt lat="40.307237" lon="0.321775">
        <ele>214.291</ele>
        <time>2017-09-27T16:57:40Z</time>
      </trkpt>
      <trkpt lat="40.307225" lon="0.321786">
        <ele>214.094</ele>
        <time>2017-09-27T16:57:39Z</time>
      </trkpt>
      <trkpt lat="40.307213" lon="0.321796">
        <ele>213.992</ele>
        <time>2017-09-27T16:57:38Z</time>
      </trkpt>
      <trkpt lat="40.307200" lon="0.321805">
        <ele>213.674</ele>
        <time>2017-09-27T16:57:37Z</time>
      </trkpt>
      <trkpt lat="40.307187" lon="0.321815">
        <ele>213.468</ele>
        <time>2017-09-27T16:57:36Z</time>
      </trkpt>
      <trkpt lat="40.307173" lon="0.321822">
        <ele>213.242</ele>
        <time>2017-09-27T16:57:35Z</time>
      </trkpt>
      <trkpt lat="40.307160" lon="0.321826">
        <ele>213.026</ele>
        <time>2017-09-27T16:57:34Z</time>
      </trkpt>
      <trkpt lat="40.307145" lon="0.321831">
        <ele>212.708</ele>
        <time>2017-09-27T16:57:33Z</time>
      </trkpt>
      <trkpt lat="40.307128" lon="0.321836">
        <ele>212.429</ele>
        <time>2017-09-27T16:57:32Z</time>
      </trkpt>
      <trkpt lat="40.307111" lon="0.321838">
        <ele>212.246</ele>
        <time>2017-09-27T16:57:31Z</time>
      </trkpt>
      <trkpt lat="40.307094" lon="0.321840">
        <ele>211.970</ele>
        <time>2017-09-27T16:57:30Z</time>
      </trkpt>
      <trkpt lat="40.307076" lon="0.321844">
        <ele>211.688</ele>
        <time>2017-09-27T16:57:29Z</time>
      </trkpt>
      <trkpt lat="40.307059" lon="0.321850">
        <ele>211.376</ele>
        <time>2017-09-27T16:57:28Z</time>
      </trkpt>
      <trkpt lat="40.307039" lon="0.321854">
        <ele>210.949</ele>
        <time>2017-09-27T16:57:27Z</time>
      </trkpt>
      <trkpt lat="40.307016" lon="0.321855">
        <ele>210.567</ele>
        <time>2017-09-27T16:57:26Z</time>
      </trkpt>
      <trkpt lat="40.306993" lon="0.321855">
        <ele>210.159</ele>
        <time>2017-09-27T16:57:25Z</time>
      </trkpt>
      <trkpt lat="40.306969" lon="0.321856">
        <ele>209.793</ele>
        <time>2017-09-27T16:57:24Z</time>
      </trkpt>
      <trkpt lat="40.306943" lon="0.321858">
        <ele>209.365</ele>
        <time>2017-09-27T16:57:23Z</time>
      </trkpt>
      <trkpt lat="40.306915" lon="0.321860">
        <ele>208.921</ele>
        <time>2017-09-27T16:57:22Z</time>
      </trkpt>
      <trkpt lat="40.306886" lon="0.321865">
        <ele>208.508</ele>
        <time>2017-09-27T16:57:21Z</time>
      </trkpt>
      <trkpt lat="40.306855" lon="0.321870">
        <ele>208.132</ele>
        <time>2017-09-27T16:57:20Z</time>
      </trkpt>
      <trkpt lat="40.306824" lon="0.321878">
        <ele>207.689</ele>
        <time>2017-09-27T16:57:19Z</time>
      </trkpt>
      <trkpt lat="40.306793" lon="0.321886">
        <ele>207.143</ele>
        <time>2017-09-27T16:57:18Z</time>
      </trkpt>
      <trkpt lat="40.306762" lon="0.321896">
        <ele>206.761</ele>
        <time>2017-09-27T16:57:17Z</time>
      </trkpt>
      <trkpt lat="40.306733" lon="0.321905">
        <ele>206.229</ele>
        <time>2017-09-27T16:57:16Z</time>
      </trkpt>
      <trkpt lat="40.306705" lon="0.321914">
        <ele>205.822</ele>
        <time>2017-09-27T16:57:15Z</time>
      </trkpt>
      <trkpt lat="40.306676" lon="0.321925">
        <ele>205.360</ele>
        <time>2017-09-27T16:57:14Z</time>
      </trkpt>
      <trkpt lat="40.306646" lon="0.321934">
        <ele>204.882</ele>
        <time>2017-09-27T16:57:13Z</time>
      </trkpt>
      <trkpt lat="40.306617" lon="0.321945">
        <ele>204.512</ele>
        <time>2017-09-27T16:57:12Z</time>
      </trkpt>
      <trkpt lat="40.306586" lon="0.321954">
        <ele>204.232</ele>
        <time>2017-09-27T16:57:11Z</time>
      </trkpt>
      <trkpt lat="40.306556" lon="0.321961">
        <ele>203.905</ele>
        <time>2017-09-27T16:57:10Z</time>
      </trkpt>
      <trkpt lat="40.306526" lon="0.321968">
        <ele>203.708</ele>
        <time>2017-09-27T16:57:09Z</time>
      </trkpt>
      <trkpt lat="40.306496" lon="0.321974">
        <ele>203.444</ele>
        <time>2017-09-27T16:57:08Z</time>
      </trkpt>
      <trkpt lat="40.306468" lon="0.321979">
        <ele>203.221</ele>
        <time>2017-09-27T16:57:07Z</time>
      </trkpt>
      <trkpt lat="40.306440" lon="0.321983">
        <ele>202.915</ele>
        <time>2017-09-27T16:57:06Z</time>
      </trkpt>
      <trkpt lat="40.306412" lon="0.321984">
        <ele>202.723</ele>
        <time>2017-09-27T16:57:05Z</time>
      </trkpt>
      <trkpt lat="40.306384" lon="0.321984">
        <ele>202.481</ele>
        <time>2017-09-27T16:57:04Z</time>
      </trkpt>
      <trkpt lat="40.306357" lon="0.321981">
        <ele>202.324</ele>
        <time>2017-09-27T16:57:03Z</time>
      </trkpt>
      <trkpt lat="40.306331" lon="0.321975">
        <ele>202.162</ele>
        <time>2017-09-27T16:57:02Z</time>
      </trkpt>
      <trkpt lat="40.306305" lon="0.321969">
        <ele>202.034</ele>
        <time>2017-09-27T16:57:01Z</time>
      </trkpt>
      <trkpt lat="40.306280" lon="0.321962">
        <ele>201.871</ele>
        <time>2017-09-27T16:57:00Z</time>
      </trkpt>
      <trkpt lat="40.306258" lon="0.321947">
        <ele>201.641</ele>
        <time>2017-09-27T16:56:59Z</time>
      </trkpt>
      <trkpt lat="40.306238" lon="0.321927">
        <ele>201.415</ele>
        <time>2017-09-27T16:56:58Z</time>
      </trkpt>
      <trkpt lat="40.306219" lon="0.321904">
        <ele>201.208</ele>
        <time>2017-09-27T16:56:57Z</time>
      </trkpt>
      <trkpt lat="40.306199" lon="0.321884">
        <ele>201.030</ele>
        <time>2017-09-27T16:56:56Z</time>
      </trkpt>
      <trkpt lat="40.306171" lon="0.321868">
        <ele>200.847</ele>
        <time>2017-09-27T16:56:55Z</time>
      </trkpt>
      <trkpt lat="40.306142" lon="0.321858">
        <ele>200.661</ele>
        <time>2017-09-27T16:56:54Z</time>
      </trkpt>
      <trkpt lat="40.306111" lon="0.321853">
        <ele>200.399</ele>
        <time>2017-09-27T16:56:53Z</time>
      </trkpt>
      <trkpt lat="40.306082" lon="0.321853">
        <ele>200.467</ele>
        <time>2017-09-27T16:56:52Z</time>
      </trkpt>
      <trkpt lat="40.306054" lon="0.321856">
        <ele>200.590</ele>
        <time>2017-09-27T16:56:51Z</time>
      </trkpt>
      <trkpt lat="40.306027" lon="0.321863">
        <ele>200.648</ele>
        <time>2017-09-27T16:56:50Z</time>
      </trkpt>
      <trkpt lat="40.306002" lon="0.321875">
        <ele>200.890</ele>
        <time>2017-09-27T16:56:49Z</time>
      </trkpt>
      <trkpt lat="40.305980" lon="0.321888">
        <ele>201.058</ele>
        <time>2017-09-27T16:56:48Z</time>
      </trkpt>
      <trkpt lat="40.305961" lon="0.321900">
        <ele>201.152</ele>
        <time>2017-09-27T16:56:47Z</time>
      </trkpt>
      <trkpt lat="40.305944" lon="0.321910">
        <ele>201.317</ele>
        <time>2017-09-27T16:56:46Z</time>
      </trkpt>
      <trkpt lat="40.305926" lon="0.321919">
        <ele>201.408</ele>
        <time>2017-09-27T16:56:45Z</time>
      </trkpt>
      <trkpt lat="40.305911" lon="0.321927">
        <ele>201.688</ele>
        <time>2017-09-27T16:56:44Z</time>
      </trkpt>
      <trkpt lat="40.305897" lon="0.321932">
        <ele>201.685</ele>
        <time>2017-09-27T16:56:43Z</time>
      </trkpt>
      <trkpt lat="40.305883" lon="0.321934">
        <ele>201.739</ele>
        <time>2017-09-27T16:56:42Z</time>
      </trkpt>
      <trkpt lat="40.305869" lon="0.321937">
        <ele>201.897</ele>
        <time>2017-09-27T16:56:41Z</time>
      </trkpt>
      <trkpt lat="40.305855" lon="0.321936">
        <ele>201.825</ele>
        <time>2017-09-27T16:56:40Z</time>
      </trkpt>
      <trkpt lat="40.305841" lon="0.321932">
        <ele>201.818</ele>
        <time>2017-09-27T16:56:39Z</time>
      </trkpt>
      <trkpt lat="40.305828" lon="0.321928">
        <ele>201.896</ele>
        <time>2017-09-27T16:56:38Z</time>
      </trkpt>
      <trkpt lat="40.305814" lon="0.321923">
        <ele>201.618</ele>
        <time>2017-09-27T16:56:37Z</time>
      </trkpt>
      <trkpt lat="40.305801" lon="0.321917">
        <ele>201.479</ele>
        <time>2017-09-27T16:56:36Z</time>
      </trkpt>
      <trkpt lat="40.305790" lon="0.321910">
        <ele>201.205</ele>
        <time>2017-09-27T16:56:35Z</time>
      </trkpt>
      <trkpt lat="40.305778" lon="0.321903">
        <ele>201.025</ele>
        <time>2017-09-27T16:56:34Z</time>
      </trkpt>
      <trkpt lat="40.305766" lon="0.321894">
        <ele>200.808</ele>
        <time>2017-09-27T16:56:33Z</time>
      </trkpt>
      <trkpt lat="40.305754" lon="0.321885">
        <ele>200.660</ele>
        <time>2017-09-27T16:56:32Z</time>
      </trkpt>
      <trkpt lat="40.305744" lon="0.321874">
        <ele>200.487</ele>
        <time>2017-09-27T16:56:31Z</time>
      </trkpt>
      <trkpt lat="40.305735" lon="0.321861">
        <ele>200.251</ele>
        <time>2017-09-27T16:56:30Z</time>
      </trkpt>
      <trkpt lat="40.305726" lon="0.321847">
        <ele>200.169</ele>
        <time>2017-09-27T16:56:29Z</time>
      </trkpt>
      <trkpt lat="40.305717" lon="0.321832">
        <ele>199.917</ele>
        <time>2017-09-27T16:56:28Z</time>
      </trkpt>
      <trkpt lat="40.305710" lon="0.321819">
        <ele>199.720</ele>
        <time>2017-09-27T16:56:27Z</time>
      </trkpt>
      <trkpt lat="40.305705" lon="0.321804">
        <ele>199.658</ele>
        <time>2017-09-27T16:56:26Z</time>
      </trkpt>
      <trkpt lat="40.305702" lon="0.321787">
        <ele>199.430</ele>
        <time>2017-09-27T16:56:25Z</time>
      </trkpt>
      <trkpt lat="40.305697" lon="0.321772">
        <ele>199.341</ele>
        <time>2017-09-27T16:56:24Z</time>
      </trkpt>
      <trkpt lat="40.305691" lon="0.321757">
        <ele>199.181</ele>
        <time>2017-09-27T16:56:23Z</time>
      </trkpt>
      <trkpt lat="40.305684" lon="0.321745">
        <ele>199.009</ele>
        <time>2017-09-27T16:56:22Z</time>
      </trkpt>
      <trkpt lat="40.305675" lon="0.321732">
        <ele>198.908</ele>
        <time>2017-09-27T16:56:21Z</time>
      </trkpt>
      <trkpt lat="40.305667" lon="0.321718">
        <ele>198.767</ele>
        <time>2017-09-27T16:56:20Z</time>
      </trkpt>
      <trkpt lat="40.305659" lon="0.321706">
        <ele>198.664</ele>
        <time>2017-09-27T16:56:19Z</time>
      </trkpt>
      <trkpt lat="40.305651" lon="0.321694">
        <ele>198.538</ele>
        <time>2017-09-27T16:56:18Z</time>
      </trkpt>
      <trkpt lat="40.305642" lon="0.321682">
        <ele>198.436</ele>
        <time>2017-09-27T16:56:17Z</time>
      </trkpt>
      <trkpt lat="40.305632" lon="0.321670">
        <ele>198.384</ele>
        <time>2017-09-27T16:56:16Z</time>
      </trkpt>
      <trkpt lat="40.305623" lon="0.321660">
        <ele>198.277</ele>
        <time>2017-09-27T16:56:15Z</time>
      </trkpt>
      <trkpt lat="40.305613" lon="0.321648">
        <ele>198.135</ele>
        <time>2017-09-27T16:56:14Z</time>
      </trkpt>
      <trkpt lat="40.305605" lon="0.321635">
        <ele>198.017</ele>
        <time>2017-09-27T16:56:13Z</time>
      </trkpt>
      <trkpt lat="40.305598" lon="0.321624">
        <ele>198.073</ele>
        <time>2017-09-27T16:56:12Z</time>
      </trkpt>
      <trkpt lat="40.305589" lon="0.321612">
        <ele>197.985</ele>
        <time>2017-09-27T16:56:11Z</time>
      </trkpt>
      <trkpt lat="40.305581" lon="0.321600">
        <ele>197.813</ele>
        <time>2017-09-27T16:56:10Z</time>
      </trkpt>
      <trkpt lat="40.305571" lon="0.321587">
        <ele>197.808</ele>
        <time>2017-09-27T16:56:09Z</time>
      </trkpt>
      <trkpt lat="40.305561" lon="0.321574">
        <ele>197.760</ele>
        <time>2017-09-27T16:56:08Z</time>
      </trkpt>
      <trkpt lat="40.305555" lon="0.321562">
        <ele>197.667</ele>
        <time>2017-09-27T16:56:07Z</time>
      </trkpt>
      <trkpt lat="40.305549" lon="0.321549">
        <ele>197.581</ele>
        <time>2017-09-27T16:56:06Z</time>
      </trkpt>
      <trkpt lat="40.305541" lon="0.321535">
        <ele>197.469</ele>
        <time>2017-09-27T16:56:05Z</time>
      </trkpt>
      <trkpt lat="40.305533" lon="0.321522">
        <ele>197.347</ele>
        <time>2017-09-27T16:56:04Z</time>
      </trkpt>
      <trkpt lat="40.305524" lon="0.321507">
        <ele>197.270</ele>
        <time>2017-09-27T16:56:03Z</time>
      </trkpt>
      <trkpt lat="40.305516" lon="0.321491">
        <ele>197.038</ele>
        <time>2017-09-27T16:56:02Z</time>
      </trkpt>
      <trkpt lat="40.305509" lon="0.321474">
        <ele>196.970</ele>
        <time>2017-09-27T16:56:01Z</time>
      </trkpt>
      <trkpt lat="40.305502" lon="0.321457">
        <ele>196.847</ele>
        <time>2017-09-27T16:56:00Z</time>
      </trkpt>
      <trkpt lat="40.305494" lon="0.321440">
        <ele>196.629</ele>
        <time>2017-09-27T16:55:59Z</time>
      </trkpt>
      <trkpt lat="40.305486" lon="0.321424">
        <ele>196.421</ele>
        <time>2017-09-27T16:55:58Z</time>
      </trkpt>
      <trkpt lat="40.305479" lon="0.321409">
        <ele>196.308</ele>
        <time>2017-09-27T16:55:57Z</time>
      </trkpt>
      <trkpt lat="40.305471" lon="0.321396">
        <ele>196.167</ele>
        <time>2017-09-27T16:55:56Z</time>
      </trkpt>
      <trkpt lat="40.305462" lon="0.321384">
        <ele>196.014</ele>
        <time>2017-09-27T16:55:55Z</time>
      </trkpt>
      <trkpt lat="40.305450" lon="0.321370">
        <ele>195.958</ele>
        <time>2017-09-27T16:55:54Z</time>
      </trkpt>
      <trkpt lat="40.305439" lon="0.321350">
        <ele>195.786</ele>
        <time>2017-09-27T16:55:53Z</time>
      </trkpt>
      <trkpt lat="40.305427" lon="0.321332">
        <ele>195.664</ele>
        <time>2017-09-27T16:55:52Z</time>
      </trkpt>
      <trkpt lat="40.305414" lon="0.321314">
        <ele>195.537</ele>
        <time>2017-09-27T16:55:51Z</time>
      </trkpt>
      <trkpt lat="40.305402" lon="0.321294">
        <ele>195.335</ele>
        <time>2017-09-27T16:55:50Z</time>
      </trkpt>
      <trkpt lat="40.305394" lon="0.321276">
        <ele>195.397</ele>
        <time>2017-09-27T16:55:49Z</time>
      </trkpt>
      <trkpt lat="40.305385" lon="0.321257">
        <ele>195.294</ele>
        <time>2017-09-27T16:55:48Z</time>
      </trkpt>
      <trkpt lat="40.305358" lon="0.321208">
        <ele>194.957</ele>
        <time>2017-09-27T16:55:46Z</time>
      </trkpt>
      <trkpt lat="40.305343" lon="0.321182">
        <ele>194.722</ele>
        <time>2017-09-27T16:55:45Z</time>
      </trkpt>
      <trkpt lat="40.305321" lon="0.321150">
        <ele>194.508</ele>
        <time>2017-09-27T16:55:44Z</time>
      </trkpt>
      <trkpt lat="40.305301" lon="0.321118">
        <ele>194.392</ele>
        <time>2017-09-27T16:55:43Z</time>
      </trkpt>
      <trkpt lat="40.305279" lon="0.321087">
        <ele>194.229</ele>
        <time>2017-09-27T16:55:42Z</time>
      </trkpt>
      <trkpt lat="40.305263" lon="0.321054">
        <ele>194.473</ele>
        <time>2017-09-27T16:55:41Z</time>
      </trkpt>
      <trkpt lat="40.305237" lon="0.321029">
        <ele>194.541</ele>
        <time>2017-09-27T16:55:40Z</time>
      </trkpt>
      <trkpt lat="40.305214" lon="0.321004">
        <ele>194.659</ele>
        <time>2017-09-27T16:55:39Z</time>
      </trkpt>
      <trkpt lat="40.305188" lon="0.320981">
        <ele>194.642</ele>
        <time>2017-09-27T16:55:38Z</time>
      </trkpt>
      <trkpt lat="40.305164" lon="0.320963">
        <ele>194.610</ele>
        <time>2017-09-27T16:55:37Z</time>
      </trkpt>
      <trkpt lat="40.305139" lon="0.320952">
        <ele>194.682</ele>
        <time>2017-09-27T16:55:36Z</time>
      </trkpt>
      <trkpt lat="40.305114" lon="0.320933">
        <ele>194.543</ele>
        <time>2017-09-27T16:55:35Z</time>
      </trkpt>
      <trkpt lat="40.305024" lon="0.320861">
        <ele>194.264</ele>
        <time>2017-09-27T16:55:34Z</time>
      </trkpt>
      <trkpt lat="40.305002" lon="0.320843">
        <ele>194.010</ele>
        <time>2017-09-27T16:55:33Z</time>
      </trkpt>
      <trkpt lat="40.304934" lon="0.320790">
        <ele>193.908</ele>
        <time>2017-09-27T16:55:27Z</time>
      </trkpt>
      <trkpt lat="40.304909" lon="0.320764">
        <ele>193.887</ele>
        <time>2017-09-27T16:55:26Z</time>
      </trkpt>
      <trkpt lat="40.304885" lon="0.320738">
        <ele>193.694</ele>
        <time>2017-09-27T16:55:25Z</time>
      </trkpt>
      <trkpt lat="40.304864" lon="0.320715">
        <ele>193.418</ele>
        <time>2017-09-27T16:55:24Z</time>
      </trkpt>
      <trkpt lat="40.304843" lon="0.320691">
        <ele>193.156</ele>
        <time>2017-09-27T16:55:23Z</time>
      </trkpt>
      <trkpt lat="40.304816" lon="0.320666">
        <ele>192.894</ele>
        <time>2017-09-27T16:55:22Z</time>
      </trkpt>
      <trkpt lat="40.304791" lon="0.320643">
        <ele>192.547</ele>
        <time>2017-09-27T16:55:21Z</time>
      </trkpt>
      <trkpt lat="40.304768" lon="0.320619">
        <ele>192.125</ele>
        <time>2017-09-27T16:55:20Z</time>
      </trkpt>
      <trkpt lat="40.304746" lon="0.320593">
        <ele>191.667</ele>
        <time>2017-09-27T16:55:19Z</time>
      </trkpt>
      <trkpt lat="40.304722" lon="0.320574">
        <ele>191.254</ele>
        <time>2017-09-27T16:55:18Z</time>
      </trkpt>
      <trkpt lat="40.304699" lon="0.320554">
        <ele>191.056</ele>
        <time>2017-09-27T16:55:17Z</time>
      </trkpt>
      <trkpt lat="40.304673" lon="0.320534">
        <ele>191.011</ele>
        <time>2017-09-27T16:55:16Z</time>
      </trkpt>
      <trkpt lat="40.304648" lon="0.320517">
        <ele>190.908</ele>
        <time>2017-09-27T16:55:15Z</time>
      </trkpt>
      <trkpt lat="40.304623" lon="0.320502">
        <ele>190.978</ele>
        <time>2017-09-27T16:55:14Z</time>
      </trkpt>
      <trkpt lat="40.304599" lon="0.320483">
        <ele>190.885</ele>
        <time>2017-09-27T16:55:13Z</time>
      </trkpt>
      <trkpt lat="40.304572" lon="0.320467">
        <ele>190.759</ele>
        <time>2017-09-27T16:55:12Z</time>
      </trkpt>
      <trkpt lat="40.304542" lon="0.320450">
        <ele>190.537</ele>
        <time>2017-09-27T16:55:11Z</time>
      </trkpt>
      <trkpt lat="40.304515" lon="0.320428">
        <ele>190.315</ele>
        <time>2017-09-27T16:55:10Z</time>
      </trkpt>
      <trkpt lat="40.304492" lon="0.320399">
        <ele>190.118</ele>
        <time>2017-09-27T16:55:09Z</time>
      </trkpt>
      <trkpt lat="40.304470" lon="0.320373">
        <ele>189.886</ele>
        <time>2017-09-27T16:55:08Z</time>
      </trkpt>
      <trkpt lat="40.304445" lon="0.320352">
        <ele>189.598</ele>
        <time>2017-09-27T16:55:07Z</time>
      </trkpt>
      <trkpt lat="40.304425" lon="0.320325">
        <ele>189.375</ele>
        <time>2017-09-27T16:55:06Z</time>
      </trkpt>
      <trkpt lat="40.304407" lon="0.320295">
        <ele>189.028</ele>
        <time>2017-09-27T16:55:05Z</time>
      </trkpt>
      <trkpt lat="40.304392" lon="0.320265">
        <ele>188.820</ele>
        <time>2017-09-27T16:55:04Z</time>
      </trkpt>
      <trkpt lat="40.304377" lon="0.320236">
        <ele>188.608</ele>
        <time>2017-09-27T16:55:03Z</time>
      </trkpt>
      <trkpt lat="40.304359" lon="0.320204">
        <ele>188.380</ele>
        <time>2017-09-27T16:55:02Z</time>
      </trkpt>
      <trkpt lat="40.304340" lon="0.320172">
        <ele>188.197</ele>
        <time>2017-09-27T16:55:01Z</time>
      </trkpt>
      <trkpt lat="40.304312" lon="0.320142">
        <ele>187.881</ele>
        <time>2017-09-27T16:55:00Z</time>
      </trkpt>
      <trkpt lat="40.304281" lon="0.320118">
        <ele>187.519</ele>
        <time>2017-09-27T16:54:59Z</time>
      </trkpt>
      <trkpt lat="40.304249" lon="0.320099">
        <ele>187.227</ele>
        <time>2017-09-27T16:54:58Z</time>
      </trkpt>
      <trkpt lat="40.304217" lon="0.320078">
        <ele>186.940</ele>
        <time>2017-09-27T16:54:57Z</time>
      </trkpt>
      <trkpt lat="40.304185" lon="0.320057">
        <ele>186.538</ele>
        <time>2017-09-27T16:54:56Z</time>
      </trkpt>
      <trkpt lat="40.304154" lon="0.320040">
        <ele>186.370</ele>
        <time>2017-09-27T16:54:55Z</time>
      </trkpt>
      <trkpt lat="40.304127" lon="0.320020">
        <ele>186.368</ele>
        <time>2017-09-27T16:54:54Z</time>
      </trkpt>
      <trkpt lat="40.304097" lon="0.320002">
        <ele>186.342</ele>
        <time>2017-09-27T16:54:53Z</time>
      </trkpt>
      <trkpt lat="40.304066" lon="0.319986">
        <ele>186.326</ele>
        <time>2017-09-27T16:54:52Z</time>
      </trkpt>
      <trkpt lat="40.304040" lon="0.319969">
        <ele>186.408</ele>
        <time>2017-09-27T16:54:51Z</time>
      </trkpt>
      <trkpt lat="40.304011" lon="0.319950">
        <ele>186.549</ele>
        <time>2017-09-27T16:54:50Z</time>
      </trkpt>
      <trkpt lat="40.303979" lon="0.319937">
        <ele>186.556</ele>
        <time>2017-09-27T16:54:49Z</time>
      </trkpt>
      <trkpt lat="40.303945" lon="0.319931">
        <ele>186.680</ele>
        <time>2017-09-27T16:54:48Z</time>
      </trkpt>
      <trkpt lat="40.303912" lon="0.319921">
        <ele>186.758</ele>
        <time>2017-09-27T16:54:47Z</time>
      </trkpt>
      <trkpt lat="40.303879" lon="0.319910">
        <ele>186.786</ele>
        <time>2017-09-27T16:54:46Z</time>
      </trkpt>
      <trkpt lat="40.303846" lon="0.319899">
        <ele>186.829</ele>
        <time>2017-09-27T16:54:45Z</time>
      </trkpt>
      <trkpt lat="40.303815" lon="0.319885">
        <ele>186.927</ele>
        <time>2017-09-27T16:54:44Z</time>
      </trkpt>
      <trkpt lat="40.303785" lon="0.319866">
        <ele>186.929</ele>
        <time>2017-09-27T16:54:43Z</time>
      </trkpt>
      <trkpt lat="40.303757" lon="0.319844">
        <ele>186.993</ele>
        <time>2017-09-27T16:54:42Z</time>
      </trkpt>
      <trkpt lat="40.303729" lon="0.319826">
        <ele>186.965</ele>
        <time>2017-09-27T16:54:41Z</time>
      </trkpt>
      <trkpt lat="40.303701" lon="0.319802">
        <ele>187.021</ele>
        <time>2017-09-27T16:54:40Z</time>
      </trkpt>
      <trkpt lat="40.303675" lon="0.319776">
        <ele>187.008</ele>
        <time>2017-09-27T16:54:39Z</time>
      </trkpt>
      <trkpt lat="40.303644" lon="0.319746">
        <ele>187.062</ele>
        <time>2017-09-27T16:54:38Z</time>
      </trkpt>
      <trkpt lat="40.303573" lon="0.319691">
        <ele>186.899</ele>
        <time>2017-09-27T16:54:36Z</time>
      </trkpt>
      <trkpt lat="40.303545" lon="0.319663">
        <ele>186.713</ele>
        <time>2017-09-27T16:54:35Z</time>
      </trkpt>
      <trkpt lat="40.303519" lon="0.319644">
        <ele>186.661</ele>
        <time>2017-09-27T16:54:34Z</time>
      </trkpt>
      <trkpt lat="40.303492" lon="0.319621">
        <ele>186.449</ele>
        <time>2017-09-27T16:54:33Z</time>
      </trkpt>
      <trkpt lat="40.303466" lon="0.319606">
        <ele>186.342</ele>
        <time>2017-09-27T16:54:32Z</time>
      </trkpt>
      <trkpt lat="40.303440" lon="0.319589">
        <ele>186.110</ele>
        <time>2017-09-27T16:54:31Z</time>
      </trkpt>
      <trkpt lat="40.303419" lon="0.319570">
        <ele>185.982</ele>
        <time>2017-09-27T16:54:30Z</time>
      </trkpt>
      <trkpt lat="40.303394" lon="0.319542">
        <ele>185.779</ele>
        <time>2017-09-27T16:54:29Z</time>
      </trkpt>
      <trkpt lat="40.303366" lon="0.319514">
        <ele>185.505</ele>
        <time>2017-09-27T16:54:28Z</time>
      </trkpt>
      <trkpt lat="40.303342" lon="0.319486">
        <ele>185.225</ele>
        <time>2017-09-27T16:54:27Z</time>
      </trkpt>
      <trkpt lat="40.303324" lon="0.319449">
        <ele>184.908</ele>
        <time>2017-09-27T16:54:26Z</time>
      </trkpt>
      <trkpt lat="40.303305" lon="0.319409">
        <ele>184.850</ele>
        <time>2017-09-27T16:54:25Z</time>
      </trkpt>
      <trkpt lat="40.303290" lon="0.319371">
        <ele>184.817</ele>
        <time>2017-09-27T16:54:24Z</time>
      </trkpt>
      <trkpt lat="40.303270" lon="0.319334">
        <ele>184.621</ele>
        <time>2017-09-27T16:54:23Z</time>
      </trkpt>
      <trkpt lat="40.303249" lon="0.319302">
        <ele>184.429</ele>
        <time>2017-09-27T16:54:22Z</time>
      </trkpt>
      <trkpt lat="40.303226" lon="0.319261">
        <ele>184.257</ele>
        <time>2017-09-27T16:54:21Z</time>
      </trkpt>
      <trkpt lat="40.303200" lon="0.319224">
        <ele>184.090</ele>
        <time>2017-09-27T16:54:20Z</time>
      </trkpt>
      <trkpt lat="40.303171" lon="0.319196">
        <ele>183.668</ele>
        <time>2017-09-27T16:54:19Z</time>
      </trkpt>
      <trkpt lat="40.303143" lon="0.319176">
        <ele>183.260</ele>
        <time>2017-09-27T16:54:18Z</time>
      </trkpt>
      <trkpt lat="40.303114" lon="0.319158">
        <ele>182.939</ele>
        <time>2017-09-27T16:54:17Z</time>
      </trkpt>
      <trkpt lat="40.303087" lon="0.319140">
        <ele>182.701</ele>
        <time>2017-09-27T16:54:16Z</time>
      </trkpt>
      <trkpt lat="40.303060" lon="0.319126">
        <ele>182.421</ele>
        <time>2017-09-27T16:54:15Z</time>
      </trkpt>
      <trkpt lat="40.303031" lon="0.319114">
        <ele>182.108</ele>
        <time>2017-09-27T16:54:14Z</time>
      </trkpt>
      <trkpt lat="40.302998" lon="0.319098">
        <ele>181.846</ele>
        <time>2017-09-27T16:54:13Z</time>
      </trkpt>
      <trkpt lat="40.302961" lon="0.319080">
        <ele>181.523</ele>
        <time>2017-09-27T16:54:12Z</time>
      </trkpt>
      <trkpt lat="40.302926" lon="0.319064">
        <ele>181.297</ele>
        <time>2017-09-27T16:54:11Z</time>
      </trkpt>
      <trkpt lat="40.302895" lon="0.319046">
        <ele>180.975</ele>
        <time>2017-09-27T16:54:10Z</time>
      </trkpt>
      <trkpt lat="40.302862" lon="0.319029">
        <ele>180.613</ele>
        <time>2017-09-27T16:54:09Z</time>
      </trkpt>
      <trkpt lat="40.302834" lon="0.319014">
        <ele>180.336</ele>
        <time>2017-09-27T16:54:08Z</time>
      </trkpt>
      <trkpt lat="40.302803" lon="0.319000">
        <ele>179.914</ele>
        <time>2017-09-27T16:54:07Z</time>
      </trkpt>
      <trkpt lat="40.302776" lon="0.318982">
        <ele>179.616</ele>
        <time>2017-09-27T16:54:06Z</time>
      </trkpt>
      <trkpt lat="40.302748" lon="0.318964">
        <ele>179.447</ele>
        <time>2017-09-27T16:54:05Z</time>
      </trkpt>
      <trkpt lat="40.302721" lon="0.318942">
        <ele>179.129</ele>
        <time>2017-09-27T16:54:04Z</time>
      </trkpt>
      <trkpt lat="40.302693" lon="0.318928">
        <ele>178.821</ele>
        <time>2017-09-27T16:54:03Z</time>
      </trkpt>
      <trkpt lat="40.302663" lon="0.318919">
        <ele>178.408</ele>
        <time>2017-09-27T16:54:02Z</time>
      </trkpt>
      <trkpt lat="40.302634" lon="0.318909">
        <ele>178.067</ele>
        <time>2017-09-27T16:54:01Z</time>
      </trkpt>
      <trkpt lat="40.302604" lon="0.318894">
        <ele>177.544</ele>
        <time>2017-09-27T16:54:00Z</time>
      </trkpt>
      <trkpt lat="40.302574" lon="0.318881">
        <ele>177.128</ele>
        <time>2017-09-27T16:53:59Z</time>
      </trkpt>
      <trkpt lat="40.302543" lon="0.318867">
        <ele>176.796</ele>
        <time>2017-09-27T16:53:58Z</time>
      </trkpt>
      <trkpt lat="40.302506" lon="0.318841">
        <ele>176.334</ele>
        <time>2017-09-27T16:53:57Z</time>
      </trkpt>
      <trkpt lat="40.302465" lon="0.318808">
        <ele>176.057</ele>
        <time>2017-09-27T16:53:56Z</time>
      </trkpt>
      <trkpt lat="40.302423" lon="0.318774">
        <ele>175.785</ele>
        <time>2017-09-27T16:53:55Z</time>
      </trkpt>
      <trkpt lat="40.302384" lon="0.318736">
        <ele>175.297</ele>
        <time>2017-09-27T16:53:54Z</time>
      </trkpt>
      <trkpt lat="40.302350" lon="0.318696">
        <ele>174.724</ele>
        <time>2017-09-27T16:53:53Z</time>
      </trkpt>
      <trkpt lat="40.302317" lon="0.318650">
        <ele>173.904</ele>
        <time>2017-09-27T16:53:52Z</time>
      </trkpt>
      <trkpt lat="40.302280" lon="0.318605">
        <ele>173.114</ele>
        <time>2017-09-27T16:53:51Z</time>
      </trkpt>
      <trkpt lat="40.302239" lon="0.318562">
        <ele>172.508</ele>
        <time>2017-09-27T16:53:50Z</time>
      </trkpt>
      <trkpt lat="40.302201" lon="0.318523">
        <ele>172.455</ele>
        <time>2017-09-27T16:53:49Z</time>
      </trkpt>
      <trkpt lat="40.302165" lon="0.318489">
        <ele>172.532</ele>
        <time>2017-09-27T16:53:48Z</time>
      </trkpt>
      <trkpt lat="40.302133" lon="0.318463">
        <ele>172.566</ele>
        <time>2017-09-27T16:53:47Z</time>
      </trkpt>
      <trkpt lat="40.302106" lon="0.318438">
        <ele>172.414</ele>
        <time>2017-09-27T16:53:46Z</time>
      </trkpt>
      <trkpt lat="40.302080" lon="0.318409">
        <ele>172.362</ele>
        <time>2017-09-27T16:53:45Z</time>
      </trkpt>
      <trkpt lat="40.302057" lon="0.318386">
        <ele>172.175</ele>
        <time>2017-09-27T16:53:44Z</time>
      </trkpt>
      <trkpt lat="40.302035" lon="0.318364">
        <ele>171.863</ele>
        <time>2017-09-27T16:53:43Z</time>
      </trkpt>
      <trkpt lat="40.302012" lon="0.318342">
        <ele>171.625</ele>
        <time>2017-09-27T16:53:42Z</time>
      </trkpt>
      <trkpt lat="40.301989" lon="0.318323">
        <ele>171.376</ele>
        <time>2017-09-27T16:53:41Z</time>
      </trkpt>
      <trkpt lat="40.301966" lon="0.318305">
        <ele>171.090</ele>
        <time>2017-09-27T16:53:40Z</time>
      </trkpt>
      <trkpt lat="40.301945" lon="0.318285">
        <ele>170.719</ele>
        <time>2017-09-27T16:53:39Z</time>
      </trkpt>
      <trkpt lat="40.301920" lon="0.318268">
        <ele>170.708</ele>
        <time>2017-09-27T16:53:38Z</time>
      </trkpt>
      <trkpt lat="40.301895" lon="0.318251">
        <ele>170.760</ele>
        <time>2017-09-27T16:53:37Z</time>
      </trkpt>
      <trkpt lat="40.301876" lon="0.318232">
        <ele>170.657</ele>
        <time>2017-09-27T16:53:36Z</time>
      </trkpt>
      <trkpt lat="40.301856" lon="0.318212">
        <ele>170.511</ele>
        <time>2017-09-27T16:53:35Z</time>
      </trkpt>
      <trkpt lat="40.301840" lon="0.318189">
        <ele>170.399</ele>
        <time>2017-09-27T16:53:34Z</time>
      </trkpt>
      <trkpt lat="40.301821" lon="0.318171">
        <ele>170.287</ele>
        <time>2017-09-27T16:53:33Z</time>
      </trkpt>
      <trkpt lat="40.301804" lon="0.318147">
        <ele>170.080</ele>
        <time>2017-09-27T16:53:32Z</time>
      </trkpt>
      <trkpt lat="40.301791" lon="0.318124">
        <ele>169.888</ele>
        <time>2017-09-27T16:53:31Z</time>
      </trkpt>
      <trkpt lat="40.301777" lon="0.318103">
        <ele>169.530</ele>
        <time>2017-09-27T16:53:30Z</time>
      </trkpt>
      <trkpt lat="40.301761" lon="0.318080">
        <ele>169.357</ele>
        <time>2017-09-27T16:53:29Z</time>
      </trkpt>
      <trkpt lat="40.301742" lon="0.318063">
        <ele>169.100</ele>
        <time>2017-09-27T16:53:28Z</time>
      </trkpt>
      <trkpt lat="40.301724" lon="0.318041">
        <ele>168.920</ele>
        <time>2017-09-27T16:53:27Z</time>
      </trkpt>
      <trkpt lat="40.301710" lon="0.318017">
        <ele>168.808</ele>
        <time>2017-09-27T16:53:26Z</time>
      </trkpt>
      <trkpt lat="40.301690" lon="0.317992">
        <ele>168.638</ele>
        <time>2017-09-27T16:53:25Z</time>
      </trkpt>
      <trkpt lat="40.301672" lon="0.317967">
        <ele>168.475</ele>
        <time>2017-09-27T16:53:24Z</time>
      </trkpt>
      <trkpt lat="40.301657" lon="0.317940">
        <ele>168.259</ele>
        <time>2017-09-27T16:53:23Z</time>
      </trkpt>
      <trkpt lat="40.301640" lon="0.317914">
        <ele>168.027</ele>
        <time>2017-09-27T16:53:22Z</time>
      </trkpt>
      <trkpt lat="40.301617" lon="0.317884">
        <ele>167.895</ele>
        <time>2017-09-27T16:53:21Z</time>
      </trkpt>
      <trkpt lat="40.301593" lon="0.317852">
        <ele>167.628</ele>
        <time>2017-09-27T16:53:20Z</time>
      </trkpt>
      <trkpt lat="40.301569" lon="0.317820">
        <ele>167.486</ele>
        <time>2017-09-27T16:53:19Z</time>
      </trkpt>
      <trkpt lat="40.301544" lon="0.317789">
        <ele>167.188</ele>
        <time>2017-09-27T16:53:18Z</time>
      </trkpt>
      <trkpt lat="40.301519" lon="0.317758">
        <ele>167.081</ele>
        <time>2017-09-27T16:53:17Z</time>
      </trkpt>
      <trkpt lat="40.301491" lon="0.317727">
        <ele>167.161</ele>
        <time>2017-09-27T16:53:16Z</time>
      </trkpt>
      <trkpt lat="40.301465" lon="0.317698">
        <ele>167.117</ele>
        <time>2017-09-27T16:53:15Z</time>
      </trkpt>
      <trkpt lat="40.301441" lon="0.317668">
        <ele>167.108</ele>
        <time>2017-09-27T16:53:14Z</time>
      </trkpt>
      <trkpt lat="40.301418" lon="0.317642">
        <ele>167.171</ele>
        <time>2017-09-27T16:53:13Z</time>
      </trkpt>
      <trkpt lat="40.301397" lon="0.317610">
        <ele>167.038</ele>
        <time>2017-09-27T16:53:12Z</time>
      </trkpt>
      <trkpt lat="40.301376" lon="0.317574">
        <ele>167.112</ele>
        <time>2017-09-27T16:53:11Z</time>
      </trkpt>
      <trkpt lat="40.301355" lon="0.317533">
        <ele>167.280</ele>
        <time>2017-09-27T16:53:10Z</time>
      </trkpt>
      <trkpt lat="40.301337" lon="0.317491">
        <ele>167.228</ele>
        <time>2017-09-27T16:53:09Z</time>
      </trkpt>
      <trkpt lat="40.301319" lon="0.317448">
        <ele>167.361</ele>
        <time>2017-09-27T16:53:08Z</time>
      </trkpt>
      <trkpt lat="40.301305" lon="0.317405">
        <ele>167.329</ele>
        <time>2017-09-27T16:53:07Z</time>
      </trkpt>
      <trkpt lat="40.301299" lon="0.317363">
        <ele>167.361</ele>
        <time>2017-09-27T16:53:06Z</time>
      </trkpt>
      <trkpt lat="40.301290" lon="0.317317">
        <ele>167.349</ele>
        <time>2017-09-27T16:53:05Z</time>
      </trkpt>
      <trkpt lat="40.301284" lon="0.317271">
        <ele>167.302</ele>
        <time>2017-09-27T16:53:04Z</time>
      </trkpt>
      <trkpt lat="40.301278" lon="0.317228">
        <ele>167.222</ele>
        <time>2017-09-27T16:53:03Z</time>
      </trkpt>
      <trkpt lat="40.301272" lon="0.317189">
        <ele>167.108</ele>
        <time>2017-09-27T16:53:02Z</time>
      </trkpt>
      <trkpt lat="40.301268" lon="0.317150">
        <ele>167.037</ele>
        <time>2017-09-27T16:53:01Z</time>
      </trkpt>
      <trkpt lat="40.301264" lon="0.317105">
        <ele>166.944</ele>
        <time>2017-09-27T16:53:00Z</time>
      </trkpt>
      <trkpt lat="40.301255" lon="0.317056">
        <ele>166.778</ele>
        <time>2017-09-27T16:52:59Z</time>
      </trkpt>
      <trkpt lat="40.301245" lon="0.317013">
        <ele>166.646</ele>
        <time>2017-09-27T16:52:58Z</time>
      </trkpt>
      <trkpt lat="40.301240" lon="0.316966">
        <ele>166.594</ele>
        <time>2017-09-27T16:52:57Z</time>
      </trkpt>
      <trkpt lat="40.301235" lon="0.316920">
        <ele>166.417</ele>
        <time>2017-09-27T16:52:56Z</time>
      </trkpt>
      <trkpt lat="40.301200" lon="0.316825">
        <ele>166.245</ele>
        <time>2017-09-27T16:52:53Z</time>
      </trkpt>
      <trkpt lat="40.301178" lon="0.316790">
        <ele>166.167</ele>
        <time>2017-09-27T16:52:52Z</time>
      </trkpt>
      <trkpt lat="40.301160" lon="0.316756">
        <ele>166.177</ele>
        <time>2017-09-27T16:52:51Z</time>
      </trkpt>
      <trkpt lat="40.301150" lon="0.316718">
        <ele>166.061</ele>
        <time>2017-09-27T16:52:50Z</time>
      </trkpt>
      <trkpt lat="40.301148" lon="0.316674">
        <ele>166.027</ele>
        <time>2017-09-27T16:52:49Z</time>
      </trkpt>
      <trkpt lat="40.301155" lon="0.316631">
        <ele>165.908</ele>
        <time>2017-09-27T16:52:48Z</time>
      </trkpt>
      <trkpt lat="40.301174" lon="0.316587">
        <ele>165.620</ele>
        <time>2017-09-27T16:52:47Z</time>
      </trkpt>
      <trkpt lat="40.301205" lon="0.316553">
        <ele>165.527</ele>
        <time>2017-09-27T16:52:46Z</time>
      </trkpt>
      <trkpt lat="40.301239" lon="0.316525">
        <ele>165.361</ele>
        <time>2017-09-27T16:52:45Z</time>
      </trkpt>
      <trkpt lat="40.301266" lon="0.316497">
        <ele>165.049</ele>
        <time>2017-09-27T16:52:44Z</time>
      </trkpt>
      <trkpt lat="40.301296" lon="0.316458">
        <ele>164.757</ele>
        <time>2017-09-27T16:52:43Z</time>
      </trkpt>
      <trkpt lat="40.301320" lon="0.316411">
        <ele>164.410</ele>
        <time>2017-09-27T16:52:42Z</time>
      </trkpt>
      <trkpt lat="40.301341" lon="0.316353">
        <ele>163.938</ele>
        <time>2017-09-27T16:52:41Z</time>
      </trkpt>
      <trkpt lat="40.301352" lon="0.316301">
        <ele>163.440</ele>
        <time>2017-09-27T16:52:40Z</time>
      </trkpt>
      <trkpt lat="40.301362" lon="0.316246">
        <ele>163.016</ele>
        <time>2017-09-27T16:52:39Z</time>
      </trkpt>
      <trkpt lat="40.301366" lon="0.316191">
        <ele>162.576</ele>
        <time>2017-09-27T16:52:38Z</time>
      </trkpt>
      <trkpt lat="40.301364" lon="0.316137">
        <ele>162.113</ele>
        <time>2017-09-27T16:52:37Z</time>
      </trkpt>
      <trkpt lat="40.301358" lon="0.316081">
        <ele>161.708</ele>
        <time>2017-09-27T16:52:36Z</time>
      </trkpt>
      <trkpt lat="40.301349" lon="0.316031">
        <ele>161.214</ele>
        <time>2017-09-27T16:52:35Z</time>
      </trkpt>
      <trkpt lat="40.301344" lon="0.315983">
        <ele>160.891</ele>
        <time>2017-09-27T16:52:34Z</time>
      </trkpt>
      <trkpt lat="40.301341" lon="0.315937">
        <ele>160.595</ele>
        <time>2017-09-27T16:52:33Z</time>
      </trkpt>
      <trkpt lat="40.301336" lon="0.315897">
        <ele>160.143</ele>
        <time>2017-09-27T16:52:32Z</time>
      </trkpt>
      <trkpt lat="40.301331" lon="0.315853">
        <ele>159.731</ele>
        <time>2017-09-27T16:52:31Z</time>
      </trkpt>
      <trkpt lat="40.301330" lon="0.315805">
        <ele>159.484</ele>
        <time>2017-09-27T16:52:30Z</time>
      </trkpt>
      <trkpt lat="40.301330" lon="0.315748">
        <ele>159.122</ele>
        <time>2017-09-27T16:52:29Z</time>
      </trkpt>
      <trkpt lat="40.301333" lon="0.315689">
        <ele>158.964</ele>
        <time>2017-09-27T16:52:28Z</time>
      </trkpt>
      <trkpt lat="40.301343" lon="0.315621">
        <ele>158.796</ele>
        <time>2017-09-27T16:52:27Z</time>
      </trkpt>
      <trkpt lat="40.301338" lon="0.315562">
        <ele>158.331</ele>
        <time>2017-09-27T16:52:26Z</time>
      </trkpt>
      <trkpt lat="40.301333" lon="0.315500">
        <ele>158.224</ele>
        <time>2017-09-27T16:52:25Z</time>
      </trkpt>
      <trkpt lat="40.301325" lon="0.315442">
        <ele>158.108</ele>
        <time>2017-09-27T16:52:24Z</time>
      </trkpt>
      <trkpt lat="40.301313" lon="0.315391">
        <ele>157.982</ele>
        <time>2017-09-27T16:52:23Z</time>
      </trkpt>
      <trkpt lat="40.301300" lon="0.315348">
        <ele>157.579</ele>
        <time>2017-09-27T16:52:22Z</time>
      </trkpt>
      <trkpt lat="40.301285" lon="0.315306">
        <ele>157.113</ele>
        <time>2017-09-27T16:52:21Z</time>
      </trkpt>
      <trkpt lat="40.301273" lon="0.315258">
        <ele>156.651</ele>
        <time>2017-09-27T16:52:20Z</time>
      </trkpt>
      <trkpt lat="40.301262" lon="0.315203">
        <ele>155.989</ele>
        <time>2017-09-27T16:52:19Z</time>
      </trkpt>
      <trkpt lat="40.301250" lon="0.315143">
        <ele>155.342</ele>
        <time>2017-09-27T16:52:18Z</time>
      </trkpt>
      <trkpt lat="40.301234" lon="0.315080">
        <ele>154.580</ele>
        <time>2017-09-27T16:52:17Z</time>
      </trkpt>
      <trkpt lat="40.301215" lon="0.315017">
        <ele>153.792</ele>
        <time>2017-09-27T16:52:16Z</time>
      </trkpt>
      <trkpt lat="40.301192" lon="0.314954">
        <ele>152.964</ele>
        <time>2017-09-27T16:52:15Z</time>
      </trkpt>
      <trkpt lat="40.301169" lon="0.314891">
        <ele>152.106</ele>
        <time>2017-09-27T16:52:14Z</time>
      </trkpt>
      <trkpt lat="40.301138" lon="0.314847">
        <ele>151.216</ele>
        <time>2017-09-27T16:52:13Z</time>
      </trkpt>
      <trkpt lat="40.301106" lon="0.314805">
        <ele>150.208</ele>
        <time>2017-09-27T16:52:12Z</time>
      </trkpt>
      <trkpt lat="40.301071" lon="0.314766">
        <ele>149.629</ele>
        <time>2017-09-27T16:52:11Z</time>
      </trkpt>
      <trkpt lat="40.301037" lon="0.314734">
        <ele>149.066</ele>
        <time>2017-09-27T16:52:10Z</time>
      </trkpt>
      <trkpt lat="40.301005" lon="0.314706">
        <ele>148.610</ele>
        <time>2017-09-27T16:52:09Z</time>
      </trkpt>
      <trkpt lat="40.300971" lon="0.314678">
        <ele>148.468</ele>
        <time>2017-09-27T16:52:08Z</time>
      </trkpt>
      <trkpt lat="40.300953" lon="0.314665">
        <ele>148.376</ele>
        <time>2017-09-27T16:52:07Z</time>
      </trkpt>
      <trkpt lat="40.300935" lon="0.314654">
        <ele>148.159</ele>
        <time>2017-09-27T16:52:06Z</time>
      </trkpt>
      <trkpt lat="40.300916" lon="0.314651">
        <ele>147.947</ele>
        <time>2017-09-27T16:52:05Z</time>
      </trkpt>
      <trkpt lat="40.300899" lon="0.314647">
        <ele>147.719</ele>
        <time>2017-09-27T16:52:04Z</time>
      </trkpt>
      <trkpt lat="40.300878" lon="0.314644">
        <ele>147.418</ele>
        <time>2017-09-27T16:52:03Z</time>
      </trkpt>
      <trkpt lat="40.300861" lon="0.314649">
        <ele>147.298</ele>
        <time>2017-09-27T16:52:02Z</time>
      </trkpt>
      <trkpt lat="40.300843" lon="0.314658">
        <ele>146.817</ele>
        <time>2017-09-27T16:52:01Z</time>
      </trkpt>
      <trkpt lat="40.300831" lon="0.314667">
        <ele>146.608</ele>
        <time>2017-09-27T16:52:00Z</time>
      </trkpt>
      <trkpt lat="40.300817" lon="0.314679">
        <ele>146.494</ele>
        <time>2017-09-27T16:51:59Z</time>
      </trkpt>
      <trkpt lat="40.300807" lon="0.314688">
        <ele>146.271</ele>
        <time>2017-09-27T16:51:58Z</time>
      </trkpt>
      <trkpt lat="40.300795" lon="0.314697">
        <ele>146.075</ele>
        <time>2017-09-27T16:51:57Z</time>
      </trkpt>
      <trkpt lat="40.300783" lon="0.314710">
        <ele>145.853</ele>
        <time>2017-09-27T16:51:56Z</time>
      </trkpt>
      <trkpt lat="40.300773" lon="0.314724">
        <ele>145.611</ele>
        <time>2017-09-27T16:51:55Z</time>
      </trkpt>
      <trkpt lat="40.300763" lon="0.314741">
        <ele>145.584</ele>
        <time>2017-09-27T16:51:54Z</time>
      </trkpt>
      <trkpt lat="40.300756" lon="0.314755">
        <ele>145.462</ele>
        <time>2017-09-27T16:51:53Z</time>
      </trkpt>
      <trkpt lat="40.300749" lon="0.314772">
        <ele>145.464</ele>
        <time>2017-09-27T16:51:52Z</time>
      </trkpt>
      <trkpt lat="40.300740" lon="0.314785">
        <ele>145.379</ele>
        <time>2017-09-27T16:51:51Z</time>
      </trkpt>
      <trkpt lat="40.300731" lon="0.314801">
        <ele>145.305</ele>
        <time>2017-09-27T16:51:50Z</time>
      </trkpt>
      <trkpt lat="40.300721" lon="0.314819">
        <ele>145.225</ele>
        <time>2017-09-27T16:51:49Z</time>
      </trkpt>
      <trkpt lat="40.300709" lon="0.314842">
        <ele>145.108</ele>
        <time>2017-09-27T16:51:48Z</time>
      </trkpt>
      <trkpt lat="40.300703" lon="0.314858">
        <ele>145.120</ele>
        <time>2017-09-27T16:51:47Z</time>
      </trkpt>
      <trkpt lat="40.300698" lon="0.314876">
        <ele>145.087</ele>
        <time>2017-09-27T16:51:46Z</time>
      </trkpt>
      <trkpt lat="40.300690" lon="0.314891">
        <ele>145.021</ele>
        <time>2017-09-27T16:51:45Z</time>
      </trkpt>
      <trkpt lat="40.300683" lon="0.314908">
        <ele>144.929</ele>
        <time>2017-09-27T16:51:44Z</time>
      </trkpt>
      <trkpt lat="40.300673" lon="0.314922">
        <ele>144.817</ele>
        <time>2017-09-27T16:51:43Z</time>
      </trkpt>
      <trkpt lat="40.300665" lon="0.314935">
        <ele>144.850</ele>
        <time>2017-09-27T16:51:42Z</time>
      </trkpt>
      <trkpt lat="40.300656" lon="0.314951">
        <ele>144.768</ele>
        <time>2017-09-27T16:51:41Z</time>
      </trkpt>
      <trkpt lat="40.300646" lon="0.314964">
        <ele>144.730</ele>
        <time>2017-09-27T16:51:40Z</time>
      </trkpt>
      <trkpt lat="40.300636" lon="0.314978">
        <ele>144.625</ele>
        <time>2017-09-27T16:51:39Z</time>
      </trkpt>
      <trkpt lat="40.300627" lon="0.314991">
        <ele>144.526</ele>
        <time>2017-09-27T16:51:38Z</time>
      </trkpt>
      <trkpt lat="40.300618" lon="0.315004">
        <ele>144.508</ele>
        <time>2017-09-27T16:51:37Z</time>
      </trkpt>
      <trkpt lat="40.300608" lon="0.315021">
        <ele>144.708</ele>
        <time>2017-09-27T16:51:36Z</time>
      </trkpt>
      <trkpt lat="40.300596" lon="0.315031">
        <ele>144.745</ele>
        <time>2017-09-27T16:51:35Z</time>
      </trkpt>
      <trkpt lat="40.300582" lon="0.315037">
        <ele>144.712</ele>
        <time>2017-09-27T16:51:34Z</time>
      </trkpt>
      <trkpt lat="40.300567" lon="0.315040">
        <ele>144.746</ele>
        <time>2017-09-27T16:51:33Z</time>
      </trkpt>
      <trkpt lat="40.300551" lon="0.315039">
        <ele>144.514</ele>
        <time>2017-09-27T16:51:32Z</time>
      </trkpt>
      <trkpt lat="40.300534" lon="0.315040">
        <ele>144.592</ele>
        <time>2017-09-27T16:51:31Z</time>
      </trkpt>
      <trkpt lat="40.300514" lon="0.315036">
        <ele>144.425</ele>
        <time>2017-09-27T16:51:30Z</time>
      </trkpt>
      <trkpt lat="40.300500" lon="0.315028">
        <ele>144.223</ele>
        <time>2017-09-27T16:51:29Z</time>
      </trkpt>
      <trkpt lat="40.300486" lon="0.315022">
        <ele>144.175</ele>
        <time>2017-09-27T16:51:28Z</time>
      </trkpt>
      <trkpt lat="40.300475" lon="0.315012">
        <ele>143.994</ele>
        <time>2017-09-27T16:51:27Z</time>
      </trkpt>
      <trkpt lat="40.300466" lon="0.314998">
        <ele>143.757</ele>
        <time>2017-09-27T16:51:26Z</time>
      </trkpt>
      <trkpt lat="40.300454" lon="0.314988">
        <ele>143.722</ele>
        <time>2017-09-27T16:51:25Z</time>
      </trkpt>
      <trkpt lat="40.300443" lon="0.314975">
        <ele>143.708</ele>
        <time>2017-09-27T16:51:24Z</time>
      </trkpt>
      <trkpt lat="40.300434" lon="0.314960">
        <ele>143.732</ele>
        <time>2017-09-27T16:51:23Z</time>
      </trkpt>
      <trkpt lat="40.300423" lon="0.314949">
        <ele>143.779</ele>
        <time>2017-09-27T16:51:22Z</time>
      </trkpt>
      <trkpt lat="40.300411" lon="0.314938">
        <ele>143.713</ele>
        <time>2017-09-27T16:51:21Z</time>
      </trkpt>
      <trkpt lat="40.300399" lon="0.314929">
        <ele>143.711</ele>
        <time>2017-09-27T16:51:20Z</time>
      </trkpt>
      <trkpt lat="40.300384" lon="0.314921">
        <ele>143.749</ele>
        <time>2017-09-27T16:51:19Z</time>
      </trkpt>
      <trkpt lat="40.300370" lon="0.314916">
        <ele>143.742</ele>
        <time>2017-09-27T16:51:18Z</time>
      </trkpt>
      <trkpt lat="40.300356" lon="0.314912">
        <ele>143.710</ele>
        <time>2017-09-27T16:51:17Z</time>
      </trkpt>
      <trkpt lat="40.300341" lon="0.314911">
        <ele>143.732</ele>
        <time>2017-09-27T16:51:16Z</time>
      </trkpt>
      <trkpt lat="40.300328" lon="0.314908">
        <ele>143.774</ele>
        <time>2017-09-27T16:51:15Z</time>
      </trkpt>
      <trkpt lat="40.300314" lon="0.314906">
        <ele>143.756</ele>
        <time>2017-09-27T16:51:14Z</time>
      </trkpt>
      <trkpt lat="40.300300" lon="0.314902">
        <ele>143.721</ele>
        <time>2017-09-27T16:51:13Z</time>
      </trkpt>
      <trkpt lat="40.300286" lon="0.314899">
        <ele>143.708</ele>
        <time>2017-09-27T16:51:12Z</time>
      </trkpt>
      <trkpt lat="40.300271" lon="0.314898">
        <ele>143.830</ele>
        <time>2017-09-27T16:51:11Z</time>
      </trkpt>
      <trkpt lat="40.300256" lon="0.314900">
        <ele>143.947</ele>
        <time>2017-09-27T16:51:10Z</time>
      </trkpt>
      <trkpt lat="40.300242" lon="0.314899">
        <ele>144.131</ele>
        <time>2017-09-27T16:51:09Z</time>
      </trkpt>
      <trkpt lat="40.300227" lon="0.314898">
        <ele>144.219</ele>
        <time>2017-09-27T16:51:08Z</time>
      </trkpt>
      <trkpt lat="40.300212" lon="0.314898">
        <ele>144.477</ele>
        <time>2017-09-27T16:51:07Z</time>
      </trkpt>
      <trkpt lat="40.300198" lon="0.314897">
        <ele>144.540</ele>
        <time>2017-09-27T16:51:06Z</time>
      </trkpt>
      <trkpt lat="40.300183" lon="0.314898">
        <ele>144.798</ele>
        <time>2017-09-27T16:51:05Z</time>
      </trkpt>
      <trkpt lat="40.300170" lon="0.314901">
        <ele>144.830</ele>
        <time>2017-09-27T16:51:04Z</time>
      </trkpt>
      <trkpt lat="40.300159" lon="0.314906">
        <ele>144.889</ele>
        <time>2017-09-27T16:51:03Z</time>
      </trkpt>
      <trkpt lat="40.300147" lon="0.314906">
        <ele>144.906</ele>
        <time>2017-09-27T16:51:02Z</time>
      </trkpt>
      <trkpt lat="40.300133" lon="0.314910">
        <ele>145.026</ele>
        <time>2017-09-27T16:51:01Z</time>
      </trkpt>
      <trkpt lat="40.300117" lon="0.314909">
        <ele>145.208</ele>
        <time>2017-09-27T16:51:00Z</time>
      </trkpt>
      <trkpt lat="40.300103" lon="0.314907">
        <ele>145.341</ele>
        <time>2017-09-27T16:50:59Z</time>
      </trkpt>
      <trkpt lat="40.300087" lon="0.314907">
        <ele>145.548</ele>
        <time>2017-09-27T16:50:58Z</time>
      </trkpt>
      <trkpt lat="40.300073" lon="0.314907">
        <ele>145.652</ele>
        <time>2017-09-27T16:50:57Z</time>
      </trkpt>
      <trkpt lat="40.300058" lon="0.314914">
        <ele>145.770</ele>
        <time>2017-09-27T16:50:56Z</time>
      </trkpt>
      <trkpt lat="40.300043" lon="0.314919">
        <ele>145.898</ele>
        <time>2017-09-27T16:50:55Z</time>
      </trkpt>
      <trkpt lat="40.300027" lon="0.314926">
        <ele>145.811</ele>
        <time>2017-09-27T16:50:54Z</time>
      </trkpt>
      <trkpt lat="40.300013" lon="0.314929">
        <ele>145.949</ele>
        <time>2017-09-27T16:50:53Z</time>
      </trkpt>
      <trkpt lat="40.299999" lon="0.314930">
        <ele>146.091</ele>
        <time>2017-09-27T16:50:52Z</time>
      </trkpt>
      <trkpt lat="40.299984" lon="0.314939">
        <ele>145.871</ele>
        <time>2017-09-27T16:50:51Z</time>
      </trkpt>
      <trkpt lat="40.299972" lon="0.314961">
        <ele>145.441</ele>
        <time>2017-09-27T16:50:50Z</time>
      </trkpt>
      <trkpt lat="40.299958" lon="0.314980">
        <ele>145.115</ele>
        <time>2017-09-27T16:50:49Z</time>
      </trkpt>
      <trkpt lat="40.299940" lon="0.315015">
        <ele>145.008</ele>
        <time>2017-09-27T16:50:47Z</time>
      </trkpt>
      <trkpt lat="40.299922" lon="0.315039">
        <ele>145.290</ele>
        <time>2017-09-27T16:50:46Z</time>
      </trkpt>
      <trkpt lat="40.299903" lon="0.315056">
        <ele>145.397</ele>
        <time>2017-09-27T16:50:45Z</time>
      </trkpt>
      <trkpt lat="40.299879" lon="0.315063">
        <ele>145.381</ele>
        <time>2017-09-27T16:50:44Z</time>
      </trkpt>
      <trkpt lat="40.299853" lon="0.315072">
        <ele>145.249</ele>
        <time>2017-09-27T16:50:43Z</time>
      </trkpt>
      <trkpt lat="40.299824" lon="0.315076">
        <ele>145.177</ele>
        <time>2017-09-27T16:50:42Z</time>
      </trkpt>
      <trkpt lat="40.299796" lon="0.315065">
        <ele>144.940</ele>
        <time>2017-09-27T16:50:41Z</time>
      </trkpt>
      <trkpt lat="40.299777" lon="0.315059">
        <ele>144.738</ele>
        <time>2017-09-27T16:50:40Z</time>
      </trkpt>
      <trkpt lat="40.299752" lon="0.315050">
        <ele>144.520</ele>
        <time>2017-09-27T16:50:39Z</time>
      </trkpt>
      <trkpt lat="40.299724" lon="0.315043">
        <ele>144.341</ele>
        <time>2017-09-27T16:50:38Z</time>
      </trkpt>
      <trkpt lat="40.299694" lon="0.315037">
        <ele>143.981</ele>
        <time>2017-09-27T16:50:37Z</time>
      </trkpt>
      <trkpt lat="40.299665" lon="0.315032">
        <ele>143.409</ele>
        <time>2017-09-27T16:50:36Z</time>
      </trkpt>
      <trkpt lat="40.299633" lon="0.315021">
        <ele>142.908</ele>
        <time>2017-09-27T16:50:35Z</time>
      </trkpt>
      <trkpt lat="40.299600" lon="0.315004">
        <ele>142.327</ele>
        <time>2017-09-27T16:50:34Z</time>
      </trkpt>
      <trkpt lat="40.299574" lon="0.314981">
        <ele>142.194</ele>
        <time>2017-09-27T16:50:33Z</time>
      </trkpt>
      <trkpt lat="40.299550" lon="0.314956">
        <ele>142.058</ele>
        <time>2017-09-27T16:50:32Z</time>
      </trkpt>
      <trkpt lat="40.299522" lon="0.314934">
        <ele>141.916</ele>
        <time>2017-09-27T16:50:31Z</time>
      </trkpt>
      <trkpt lat="40.299491" lon="0.314914">
        <ele>141.894</ele>
        <time>2017-09-27T16:50:30Z</time>
      </trkpt>
      <trkpt lat="40.299461" lon="0.314899">
        <ele>141.637</ele>
        <time>2017-09-27T16:50:29Z</time>
      </trkpt>
      <trkpt lat="40.299431" lon="0.314888">
        <ele>141.515</ele>
        <time>2017-09-27T16:50:28Z</time>
      </trkpt>
      <trkpt lat="40.299392" lon="0.314883">
        <ele>141.437</ele>
        <time>2017-09-27T16:50:27Z</time>
      </trkpt>
      <trkpt lat="40.299345" lon="0.314885">
        <ele>141.238</ele>
        <time>2017-09-27T16:50:26Z</time>
      </trkpt>
      <trkpt lat="40.299303" lon="0.314884">
        <ele>140.970</ele>
        <time>2017-09-27T16:50:25Z</time>
      </trkpt>
      <trkpt lat="40.299266" lon="0.314875">
        <ele>140.917</ele>
        <time>2017-09-27T16:50:24Z</time>
      </trkpt>
      <trkpt lat="40.299236" lon="0.314864">
        <ele>140.808</ele>
        <time>2017-09-27T16:50:23Z</time>
      </trkpt>
      <trkpt lat="40.299205" lon="0.314859">
        <ele>140.726</ele>
        <time>2017-09-27T16:50:22Z</time>
      </trkpt>
      <trkpt lat="40.299169" lon="0.314860">
        <ele>140.523</ele>
        <time>2017-09-27T16:50:21Z</time>
      </trkpt>
      <trkpt lat="40.299138" lon="0.314860">
        <ele>140.267</ele>
        <time>2017-09-27T16:50:20Z</time>
      </trkpt>
      <trkpt lat="40.299106" lon="0.314880">
        <ele>139.635</ele>
        <time>2017-09-27T16:50:19Z</time>
      </trkpt>
      <trkpt lat="40.299068" lon="0.314895">
        <ele>139.133</ele>
        <time>2017-09-27T16:50:18Z</time>
      </trkpt>
      <trkpt lat="40.299034" lon="0.314910">
        <ele>138.586</ele>
        <time>2017-09-27T16:50:17Z</time>
      </trkpt>
      <trkpt lat="40.299000" lon="0.314922">
        <ele>138.074</ele>
        <time>2017-09-27T16:50:16Z</time>
      </trkpt>
      <trkpt lat="40.298965" lon="0.314931">
        <ele>137.666</ele>
        <time>2017-09-27T16:50:15Z</time>
      </trkpt>
      <trkpt lat="40.298931" lon="0.314949">
        <ele>137.078</ele>
        <time>2017-09-27T16:50:14Z</time>
      </trkpt>
      <trkpt lat="40.298897" lon="0.314964">
        <ele>136.533</ele>
        <time>2017-09-27T16:50:13Z</time>
      </trkpt>
      <trkpt lat="40.298867" lon="0.314984">
        <ele>135.926</ele>
        <time>2017-09-27T16:50:12Z</time>
      </trkpt>
      <trkpt lat="40.298843" lon="0.315009">
        <ele>135.508</ele>
        <time>2017-09-27T16:50:11Z</time>
      </trkpt>
      <trkpt lat="40.298816" lon="0.315027">
        <ele>135.490</ele>
        <time>2017-09-27T16:50:10Z</time>
      </trkpt>
      <trkpt lat="40.298783" lon="0.315034">
        <ele>135.157</ele>
        <time>2017-09-27T16:50:09Z</time>
      </trkpt>
      <trkpt lat="40.298747" lon="0.315026">
        <ele>134.771</ele>
        <time>2017-09-27T16:50:08Z</time>
      </trkpt>
      <trkpt lat="40.298703" lon="0.315017">
        <ele>134.169</ele>
        <time>2017-09-27T16:50:07Z</time>
      </trkpt>
      <trkpt lat="40.298663" lon="0.315014">
        <ele>133.767</ele>
        <time>2017-09-27T16:50:06Z</time>
      </trkpt>
      <trkpt lat="40.298629" lon="0.315009">
        <ele>133.340</ele>
        <time>2017-09-27T16:50:05Z</time>
      </trkpt>
      <trkpt lat="40.298593" lon="0.315015">
        <ele>133.238</ele>
        <time>2017-09-27T16:50:04Z</time>
      </trkpt>
      <trkpt lat="40.298557" lon="0.315027">
        <ele>133.530</ele>
        <time>2017-09-27T16:50:03Z</time>
      </trkpt>
      <trkpt lat="40.298529" lon="0.315047">
        <ele>133.971</ele>
        <time>2017-09-27T16:50:02Z</time>
      </trkpt>
      <trkpt lat="40.298496" lon="0.315067">
        <ele>134.341</ele>
        <time>2017-09-27T16:50:01Z</time>
      </trkpt>
      <trkpt lat="40.298461" lon="0.315092">
        <ele>134.915</ele>
        <time>2017-09-27T16:50:00Z</time>
      </trkpt>
      <trkpt lat="40.298424" lon="0.315117">
        <ele>135.508</ele>
        <time>2017-09-27T16:49:59Z</time>
      </trkpt>
      <trkpt lat="40.298390" lon="0.315137">
        <ele>136.110</ele>
        <time>2017-09-27T16:49:58Z</time>
      </trkpt>
      <trkpt lat="40.298352" lon="0.315139">
        <ele>136.417</ele>
        <time>2017-09-27T16:49:57Z</time>
      </trkpt>
      <trkpt lat="40.298316" lon="0.315138">
        <ele>136.831</ele>
        <time>2017-09-27T16:49:56Z</time>
      </trkpt>
      <trkpt lat="40.298288" lon="0.315123">
        <ele>136.969</ele>
        <time>2017-09-27T16:49:55Z</time>
      </trkpt>
      <trkpt lat="40.298252" lon="0.315109">
        <ele>137.277</ele>
        <time>2017-09-27T16:49:54Z</time>
      </trkpt>
      <trkpt lat="40.298214" lon="0.315078">
        <ele>137.240</ele>
        <time>2017-09-27T16:49:53Z</time>
      </trkpt>
      <trkpt lat="40.298174" lon="0.315036">
        <ele>137.068</ele>
        <time>2017-09-27T16:49:52Z</time>
      </trkpt>
      <trkpt lat="40.298141" lon="0.314984">
        <ele>136.660</ele>
        <time>2017-09-27T16:49:51Z</time>
      </trkpt>
      <trkpt lat="40.298098" lon="0.314933">
        <ele>136.694</ele>
        <time>2017-09-27T16:49:50Z</time>
      </trkpt>
      <trkpt lat="40.298061" lon="0.314880">
        <ele>136.257</ele>
        <time>2017-09-27T16:49:49Z</time>
      </trkpt>
      <trkpt lat="40.298026" lon="0.314829">
        <ele>135.722</ele>
        <time>2017-09-27T16:49:48Z</time>
      </trkpt>
      <trkpt lat="40.297985" lon="0.314779">
        <ele>135.008</ele>
        <time>2017-09-27T16:49:47Z</time>
      </trkpt>
      <trkpt lat="40.297944" lon="0.314731">
        <ele>134.212</ele>
        <time>2017-09-27T16:49:46Z</time>
      </trkpt>
      <trkpt lat="40.297896" lon="0.314686">
        <ele>133.649</ele>
        <time>2017-09-27T16:49:45Z</time>
      </trkpt>
      <trkpt lat="40.297852" lon="0.314651">
        <ele>133.153</ele>
        <time>2017-09-27T16:49:44Z</time>
      </trkpt>
      <trkpt lat="40.297816" lon="0.314612">
        <ele>132.371</ele>
        <time>2017-09-27T16:49:43Z</time>
      </trkpt>
      <trkpt lat="40.297786" lon="0.314583">
        <ele>131.629</ele>
        <time>2017-09-27T16:49:42Z</time>
      </trkpt>
      <trkpt lat="40.297755" lon="0.314563">
        <ele>131.112</ele>
        <time>2017-09-27T16:49:41Z</time>
      </trkpt>
      <trkpt lat="40.297723" lon="0.314542">
        <ele>130.840</ele>
        <time>2017-09-27T16:49:40Z</time>
      </trkpt>
      <trkpt lat="40.297695" lon="0.314526">
        <ele>130.512</ele>
        <time>2017-09-27T16:49:39Z</time>
      </trkpt>
      <trkpt lat="40.297664" lon="0.314509">
        <ele>130.264</ele>
        <time>2017-09-27T16:49:38Z</time>
      </trkpt>
      <trkpt lat="40.297635" lon="0.314492">
        <ele>129.906</ele>
        <time>2017-09-27T16:49:37Z</time>
      </trkpt>
      <trkpt lat="40.297606" lon="0.314475">
        <ele>129.616</ele>
        <time>2017-09-27T16:49:36Z</time>
      </trkpt>
      <trkpt lat="40.297577" lon="0.314457">
        <ele>129.208</ele>
        <time>2017-09-27T16:49:35Z</time>
      </trkpt>
      <trkpt lat="40.297553" lon="0.314437">
        <ele>129.029</ele>
        <time>2017-09-27T16:49:34Z</time>
      </trkpt>
      <trkpt lat="40.297536" lon="0.314421">
        <ele>128.976</ele>
        <time>2017-09-27T16:49:33Z</time>
      </trkpt>
      <trkpt lat="40.297514" lon="0.314408">
        <ele>128.840</ele>
        <time>2017-09-27T16:49:32Z</time>
      </trkpt>
      <trkpt lat="40.297496" lon="0.314386">
        <ele>128.678</ele>
        <time>2017-09-27T16:49:31Z</time>
      </trkpt>
      <trkpt lat="40.297478" lon="0.314365">
        <ele>128.526</ele>
        <time>2017-09-27T16:49:30Z</time>
      </trkpt>
      <trkpt lat="40.297462" lon="0.314344">
        <ele>128.479</ele>
        <time>2017-09-27T16:49:29Z</time>
      </trkpt>
      <trkpt lat="40.297452" lon="0.314325">
        <ele>128.347</ele>
        <time>2017-09-27T16:49:28Z</time>
      </trkpt>
      <trkpt lat="40.297438" lon="0.314305">
        <ele>128.249</ele>
        <time>2017-09-27T16:49:27Z</time>
      </trkpt>
      <trkpt lat="40.297422" lon="0.314289">
        <ele>128.296</ele>
        <time>2017-09-27T16:49:26Z</time>
      </trkpt>
      <trkpt lat="40.297403" lon="0.314271">
        <ele>128.131</ele>
        <time>2017-09-27T16:49:25Z</time>
      </trkpt>
      <trkpt lat="40.297382" lon="0.314264">
        <ele>128.124</ele>
        <time>2017-09-27T16:49:24Z</time>
      </trkpt>
      <trkpt lat="40.297364" lon="0.314247">
        <ele>128.108</ele>
        <time>2017-09-27T16:49:23Z</time>
      </trkpt>
      <trkpt lat="40.297354" lon="0.314232">
        <ele>128.062</ele>
        <time>2017-09-27T16:49:22Z</time>
      </trkpt>
      <trkpt lat="40.297338" lon="0.314216">
        <ele>127.959</ele>
        <time>2017-09-27T16:49:21Z</time>
      </trkpt>
      <trkpt lat="40.297317" lon="0.314204">
        <ele>127.993</ele>
        <time>2017-09-27T16:49:20Z</time>
      </trkpt>
      <trkpt lat="40.297301" lon="0.314196">
        <ele>127.991</ele>
        <time>2017-09-27T16:49:19Z</time>
      </trkpt>
      <trkpt lat="40.297280" lon="0.314185">
        <ele>127.979</ele>
        <time>2017-09-27T16:49:18Z</time>
      </trkpt>
      <trkpt lat="40.297266" lon="0.314181">
        <ele>127.972</ele>
        <time>2017-09-27T16:49:17Z</time>
      </trkpt>
      <trkpt lat="40.297249" lon="0.314182">
        <ele>128.080</ele>
        <time>2017-09-27T16:49:16Z</time>
      </trkpt>
      <trkpt lat="40.297227" lon="0.314183">
        <ele>128.132</ele>
        <time>2017-09-27T16:49:15Z</time>
      </trkpt>
      <trkpt lat="40.297207" lon="0.314185">
        <ele>128.016</ele>
        <time>2017-09-27T16:49:14Z</time>
      </trkpt>
      <trkpt lat="40.297183" lon="0.314198">
        <ele>128.076</ele>
        <time>2017-09-27T16:49:13Z</time>
      </trkpt>
      <trkpt lat="40.297157" lon="0.314202">
        <ele>127.813</ele>
        <time>2017-09-27T16:49:12Z</time>
      </trkpt>
      <trkpt lat="40.297131" lon="0.314207">
        <ele>127.708</ele>
        <time>2017-09-27T16:49:11Z</time>
      </trkpt>
      <trkpt lat="40.297104" lon="0.314217">
        <ele>127.694</ele>
        <time>2017-09-27T16:49:10Z</time>
      </trkpt>
      <trkpt lat="40.297082" lon="0.314224">
        <ele>127.591</ele>
        <time>2017-09-27T16:49:09Z</time>
      </trkpt>
      <trkpt lat="40.297055" lon="0.314236">
        <ele>127.455</ele>
        <time>2017-09-27T16:49:08Z</time>
      </trkpt>
      <trkpt lat="40.297027" lon="0.314240">
        <ele>127.343</ele>
        <time>2017-09-27T16:49:07Z</time>
      </trkpt>
      <trkpt lat="40.297004" lon="0.314252">
        <ele>127.321</ele>
        <time>2017-09-27T16:49:06Z</time>
      </trkpt>
      <trkpt lat="40.296974" lon="0.314264">
        <ele>127.244</ele>
        <time>2017-09-27T16:49:05Z</time>
      </trkpt>
      <trkpt lat="40.296951" lon="0.314274">
        <ele>127.222</ele>
        <time>2017-09-27T16:49:04Z</time>
      </trkpt>
      <trkpt lat="40.296932" lon="0.314286">
        <ele>127.234</ele>
        <time>2017-09-27T16:49:03Z</time>
      </trkpt>
      <trkpt lat="40.296906" lon="0.314300">
        <ele>127.298</ele>
        <time>2017-09-27T16:49:02Z</time>
      </trkpt>
      <trkpt lat="40.296877" lon="0.314306">
        <ele>127.115</ele>
        <time>2017-09-27T16:49:01Z</time>
      </trkpt>
      <trkpt lat="40.296848" lon="0.314315">
        <ele>127.126</ele>
        <time>2017-09-27T16:49:00Z</time>
      </trkpt>
      <trkpt lat="40.296818" lon="0.314323">
        <ele>127.008</ele>
        <time>2017-09-27T16:48:59Z</time>
      </trkpt>
      <trkpt lat="40.296782" lon="0.314334">
        <ele>127.082</ele>
        <time>2017-09-27T16:48:58Z</time>
      </trkpt>
      <trkpt lat="40.296742" lon="0.314340">
        <ele>126.929</ele>
        <time>2017-09-27T16:48:57Z</time>
      </trkpt>
      <trkpt lat="40.296704" lon="0.314346">
        <ele>126.863</ele>
        <time>2017-09-27T16:48:56Z</time>
      </trkpt>
      <trkpt lat="40.296669" lon="0.314352">
        <ele>126.711</ele>
        <time>2017-09-27T16:48:55Z</time>
      </trkpt>
      <trkpt lat="40.296634" lon="0.314355">
        <ele>126.499</ele>
        <time>2017-09-27T16:48:54Z</time>
      </trkpt>
      <trkpt lat="40.296595" lon="0.314349">
        <ele>126.092</ele>
        <time>2017-09-27T16:48:53Z</time>
      </trkpt>
      <trkpt lat="40.296562" lon="0.314326">
        <ele>125.580</ele>
        <time>2017-09-27T16:48:52Z</time>
      </trkpt>
      <trkpt lat="40.296533" lon="0.314285">
        <ele>124.892</ele>
        <time>2017-09-27T16:48:51Z</time>
      </trkpt>
      <trkpt lat="40.296508" lon="0.314235">
        <ele>124.165</ele>
        <time>2017-09-27T16:48:50Z</time>
      </trkpt>
      <trkpt lat="40.296488" lon="0.314184">
        <ele>123.568</ele>
        <time>2017-09-27T16:48:49Z</time>
      </trkpt>
      <trkpt lat="40.296443" lon="0.314060">
        <ele>122.714</ele>
        <time>2017-09-27T16:48:48Z</time>
      </trkpt>
      <trkpt lat="40.296397" lon="0.313936">
        <ele>121.408</ele>
        <time>2017-09-27T16:48:47Z</time>
      </trkpt>
      <trkpt lat="40.296373" lon="0.313872">
        <ele>121.119</ele>
        <time>2017-09-27T16:48:46Z</time>
      </trkpt>
      <trkpt lat="40.296361" lon="0.313840">
        <ele>121.326</ele>
        <time>2017-09-27T16:48:45Z</time>
      </trkpt>
      <trkpt lat="40.296325" lon="0.313744">
        <ele>122.040</ele>
        <time>2017-09-27T16:48:40Z</time>
      </trkpt>
      <trkpt lat="40.296292" lon="0.313712">
        <ele>122.048</ele>
        <time>2017-09-27T16:48:39Z</time>
      </trkpt>
      <trkpt lat="40.296258" lon="0.313691">
        <ele>121.946</ele>
        <time>2017-09-27T16:48:38Z</time>
      </trkpt>
      <trkpt lat="40.296217" lon="0.313683">
        <ele>121.579</ele>
        <time>2017-09-27T16:48:37Z</time>
      </trkpt>
      <trkpt lat="40.296173" lon="0.313692">
        <ele>121.037</ele>
        <time>2017-09-27T16:48:36Z</time>
      </trkpt>
      <trkpt lat="40.296130" lon="0.313713">
        <ele>120.479</ele>
        <time>2017-09-27T16:48:35Z</time>
      </trkpt>
      <trkpt lat="40.296092" lon="0.313746">
        <ele>120.049</ele>
        <time>2017-09-27T16:48:34Z</time>
      </trkpt>
      <trkpt lat="40.296057" lon="0.313789">
        <ele>119.602</ele>
        <time>2017-09-27T16:48:33Z</time>
      </trkpt>
      <trkpt lat="40.296024" lon="0.313834">
        <ele>119.122</ele>
        <time>2017-09-27T16:48:32Z</time>
      </trkpt>
      <trkpt lat="40.295990" lon="0.313884">
        <ele>118.608</ele>
        <time>2017-09-27T16:48:31Z</time>
      </trkpt>
      <trkpt lat="40.295958" lon="0.313936">
        <ele>118.247</ele>
        <time>2017-09-27T16:48:30Z</time>
      </trkpt>
      <trkpt lat="40.295926" lon="0.313986">
        <ele>117.664</ele>
        <time>2017-09-27T16:48:29Z</time>
      </trkpt>
      <trkpt lat="40.295895" lon="0.314036">
        <ele>117.018</ele>
        <time>2017-09-27T16:48:28Z</time>
      </trkpt>
      <trkpt lat="40.295869" lon="0.314090">
        <ele>116.286</ele>
        <time>2017-09-27T16:48:27Z</time>
      </trkpt>
      <trkpt lat="40.295846" lon="0.314147">
        <ele>115.414</ele>
        <time>2017-09-27T16:48:26Z</time>
      </trkpt>
      <trkpt lat="40.295822" lon="0.314207">
        <ele>115.187</ele>
        <time>2017-09-27T16:48:25Z</time>
      </trkpt>
      <trkpt lat="40.295796" lon="0.314267">
        <ele>115.245</ele>
        <time>2017-09-27T16:48:24Z</time>
      </trkpt>
      <trkpt lat="40.295769" lon="0.314324">
        <ele>115.277</ele>
        <time>2017-09-27T16:48:23Z</time>
      </trkpt>
      <trkpt lat="40.295740" lon="0.314380">
        <ele>115.224</ele>
        <time>2017-09-27T16:48:22Z</time>
      </trkpt>
      <trkpt lat="40.295707" lon="0.314433">
        <ele>115.104</ele>
        <time>2017-09-27T16:48:21Z</time>
      </trkpt>
      <trkpt lat="40.295670" lon="0.314487">
        <ele>115.314</ele>
        <time>2017-09-27T16:48:20Z</time>
      </trkpt>
      <trkpt lat="40.295634" lon="0.314545">
        <ele>115.808</ele>
        <time>2017-09-27T16:48:19Z</time>
      </trkpt>
      <trkpt lat="40.295594" lon="0.314604">
        <ele>116.155</ele>
        <time>2017-09-27T16:48:18Z</time>
      </trkpt>
      <trkpt lat="40.295550" lon="0.314661">
        <ele>116.372</ele>
        <time>2017-09-27T16:48:17Z</time>
      </trkpt>
      <trkpt lat="40.295506" lon="0.314717">
        <ele>116.816</ele>
        <time>2017-09-27T16:48:16Z</time>
      </trkpt>
      <trkpt lat="40.295468" lon="0.314775">
        <ele>118.314</ele>
        <time>2017-09-27T16:48:15Z</time>
      </trkpt>
      <trkpt lat="40.295434" lon="0.314829">
        <ele>119.942</ele>
        <time>2017-09-27T16:48:14Z</time>
      </trkpt>
      <trkpt lat="40.295394" lon="0.314865">
        <ele>120.765</ele>
        <time>2017-09-27T16:48:13Z</time>
      </trkpt>
      <trkpt lat="40.295339" lon="0.314879">
        <ele>120.953</ele>
        <time>2017-09-27T16:48:12Z</time>
      </trkpt>
      <trkpt lat="40.295277" lon="0.314860">
        <ele>120.085</ele>
        <time>2017-09-27T16:48:11Z</time>
      </trkpt>
      <trkpt lat="40.295225" lon="0.314811">
        <ele>119.176</ele>
        <time>2017-09-27T16:48:10Z</time>
      </trkpt>
      <trkpt lat="40.295188" lon="0.314741">
        <ele>117.390</ele>
        <time>2017-09-27T16:48:09Z</time>
      </trkpt>
      <trkpt lat="40.295162" lon="0.314658">
        <ele>115.319</ele>
        <time>2017-09-27T16:48:08Z</time>
      </trkpt>
      <trkpt lat="40.295133" lon="0.314577">
        <ele>113.308</ele>
        <time>2017-09-27T16:48:07Z</time>
      </trkpt>
      <trkpt lat="40.295089" lon="0.314509">
        <ele>111.460</ele>
        <time>2017-09-27T16:48:06Z</time>
      </trkpt>
      <trkpt lat="40.295034" lon="0.314457">
        <ele>109.667</ele>
        <time>2017-09-27T16:48:05Z</time>
      </trkpt>
      <trkpt lat="40.294973" lon="0.314420">
        <ele>108.981</ele>
        <time>2017-09-27T16:48:04Z</time>
      </trkpt>
      <trkpt lat="40.294907" lon="0.314394">
        <ele>108.899</ele>
        <time>2017-09-27T16:48:03Z</time>
      </trkpt>
      <trkpt lat="40.294841" lon="0.314380">
        <ele>108.847</ele>
        <time>2017-09-27T16:48:02Z</time>
      </trkpt>
      <trkpt lat="40.294779" lon="0.314381">
        <ele>109.050</ele>
        <time>2017-09-27T16:48:01Z</time>
      </trkpt>
      <trkpt lat="40.294723" lon="0.314387">
        <ele>109.288</ele>
        <time>2017-09-27T16:48:00Z</time>
      </trkpt>
      <trkpt lat="40.294669" lon="0.314392">
        <ele>109.590</ele>
        <time>2017-09-27T16:47:59Z</time>
      </trkpt>
      <trkpt lat="40.294618" lon="0.314398">
        <ele>109.928</ele>
        <time>2017-09-27T16:47:58Z</time>
      </trkpt>
      <trkpt lat="40.294568" lon="0.314401">
        <ele>110.289</ele>
        <time>2017-09-27T16:47:57Z</time>
      </trkpt>
      <trkpt lat="40.294519" lon="0.314403">
        <ele>110.517</ele>
        <time>2017-09-27T16:47:56Z</time>
      </trkpt>
      <trkpt lat="40.294471" lon="0.314400">
        <ele>110.708</ele>
        <time>2017-09-27T16:47:55Z</time>
      </trkpt>
      <trkpt lat="40.294424" lon="0.314397">
        <ele>110.965</ele>
        <time>2017-09-27T16:47:54Z</time>
      </trkpt>
      <trkpt lat="40.294379" lon="0.314391">
        <ele>110.952</ele>
        <time>2017-09-27T16:47:53Z</time>
      </trkpt>
      <trkpt lat="40.294337" lon="0.314385">
        <ele>111.076</ele>
        <time>2017-09-27T16:47:52Z</time>
      </trkpt>
      <trkpt lat="40.294299" lon="0.314379">
        <ele>111.014</ele>
        <time>2017-09-27T16:47:51Z</time>
      </trkpt>
      <trkpt lat="40.294264" lon="0.314373">
        <ele>111.022</ele>
        <time>2017-09-27T16:47:50Z</time>
      </trkpt>
      <trkpt lat="40.294229" lon="0.314362">
        <ele>110.975</ele>
        <time>2017-09-27T16:47:49Z</time>
      </trkpt>
      <trkpt lat="40.294190" lon="0.314348">
        <ele>110.893</ele>
        <time>2017-09-27T16:47:48Z</time>
      </trkpt>
      <trkpt lat="40.294148" lon="0.314335">
        <ele>110.755</ele>
        <time>2017-09-27T16:47:47Z</time>
      </trkpt>
      <trkpt lat="40.294104" lon="0.314327">
        <ele>110.686</ele>
        <time>2017-09-27T16:47:46Z</time>
      </trkpt>
      <trkpt lat="40.294060" lon="0.314322">
        <ele>110.560</ele>
        <time>2017-09-27T16:47:45Z</time>
      </trkpt>
      <trkpt lat="40.294017" lon="0.314317">
        <ele>110.526</ele>
        <time>2017-09-27T16:47:44Z</time>
      </trkpt>
      <trkpt lat="40.293975" lon="0.314315">
        <ele>110.508</ele>
        <time>2017-09-27T16:47:43Z</time>
      </trkpt>
      <trkpt lat="40.293936" lon="0.314314">
        <ele>110.671</ele>
        <time>2017-09-27T16:47:42Z</time>
      </trkpt>
      <trkpt lat="40.293900" lon="0.314314">
        <ele>110.688</ele>
        <time>2017-09-27T16:47:41Z</time>
      </trkpt>
      <trkpt lat="40.293866" lon="0.314317">
        <ele>110.582</ele>
        <time>2017-09-27T16:47:40Z</time>
      </trkpt>
      <trkpt lat="40.293831" lon="0.314319">
        <ele>110.270</ele>
        <time>2017-09-27T16:47:39Z</time>
      </trkpt>
      <trkpt lat="40.293795" lon="0.314320">
        <ele>109.968</ele>
        <time>2017-09-27T16:47:38Z</time>
      </trkpt>
      <trkpt lat="40.293759" lon="0.314323">
        <ele>109.621</ele>
        <time>2017-09-27T16:47:37Z</time>
      </trkpt>
      <trkpt lat="40.293726" lon="0.314325">
        <ele>109.369</ele>
        <time>2017-09-27T16:47:36Z</time>
      </trkpt>
      <trkpt lat="40.293693" lon="0.314328">
        <ele>109.181</ele>
        <time>2017-09-27T16:47:35Z</time>
      </trkpt>
      <trkpt lat="40.293661" lon="0.314330">
        <ele>108.855</ele>
        <time>2017-09-27T16:47:34Z</time>
      </trkpt>
      <trkpt lat="40.293629" lon="0.314332">
        <ele>108.507</ele>
        <time>2017-09-27T16:47:33Z</time>
      </trkpt>
      <trkpt lat="40.293599" lon="0.314334">
        <ele>108.317</ele>
        <time>2017-09-27T16:47:32Z</time>
      </trkpt>
      <trkpt lat="40.293569" lon="0.314336">
        <ele>108.008</ele>
        <time>2017-09-27T16:47:31Z</time>
      </trkpt>
      <trkpt lat="40.293538" lon="0.314335">
        <ele>107.798</ele>
        <time>2017-09-27T16:47:30Z</time>
      </trkpt>
      <trkpt lat="40.293509" lon="0.314331">
        <ele>107.415</ele>
        <time>2017-09-27T16:47:29Z</time>
      </trkpt>
      <trkpt lat="40.293480" lon="0.314324">
        <ele>107.169</ele>
        <time>2017-09-27T16:47:28Z</time>
      </trkpt>
      <trkpt lat="40.293451" lon="0.314318">
        <ele>106.757</ele>
        <time>2017-09-27T16:47:27Z</time>
      </trkpt>
      <trkpt lat="40.293423" lon="0.314309">
        <ele>106.355</ele>
        <time>2017-09-27T16:47:26Z</time>
      </trkpt>
      <trkpt lat="40.293396" lon="0.314297">
        <ele>106.078</ele>
        <time>2017-09-27T16:47:25Z</time>
      </trkpt>
      <trkpt lat="40.293368" lon="0.314286">
        <ele>105.656</ele>
        <time>2017-09-27T16:47:24Z</time>
      </trkpt>
      <trkpt lat="40.293339" lon="0.314274">
        <ele>105.268</ele>
        <time>2017-09-27T16:47:23Z</time>
      </trkpt>
      <trkpt lat="40.293307" lon="0.314267">
        <ele>105.174</ele>
        <time>2017-09-27T16:47:22Z</time>
      </trkpt>
      <trkpt lat="40.293196" lon="0.314261">
        <ele>105.356</ele>
        <time>2017-09-27T16:47:19Z</time>
      </trkpt>
      <trkpt lat="40.293166" lon="0.314261">
        <ele>105.421</ele>
        <time>2017-09-27T16:47:18Z</time>
      </trkpt>
      <trkpt lat="40.293137" lon="0.314261">
        <ele>105.508</ele>
        <time>2017-09-27T16:47:17Z</time>
      </trkpt>
      <trkpt lat="40.293108" lon="0.314257">
        <ele>105.560</ele>
        <time>2017-09-27T16:47:16Z</time>
      </trkpt>
      <trkpt lat="40.293078" lon="0.314252">
        <ele>105.677</ele>
        <time>2017-09-27T16:47:15Z</time>
      </trkpt>
      <trkpt lat="40.293050" lon="0.314245">
        <ele>105.551</ele>
        <time>2017-09-27T16:47:14Z</time>
      </trkpt>
      <trkpt lat="40.293025" lon="0.314239">
        <ele>105.389</ele>
        <time>2017-09-27T16:47:13Z</time>
      </trkpt>
      <trkpt lat="40.292998" lon="0.314233">
        <ele>105.067</ele>
        <time>2017-09-27T16:47:12Z</time>
      </trkpt>
      <trkpt lat="40.292971" lon="0.314220">
        <ele>104.740</ele>
        <time>2017-09-27T16:47:11Z</time>
      </trkpt>
      <trkpt lat="40.292942" lon="0.314208">
        <ele>104.458</ele>
        <time>2017-09-27T16:47:10Z</time>
      </trkpt>
      <trkpt lat="40.292912" lon="0.314199">
        <ele>104.180</ele>
        <time>2017-09-27T16:47:09Z</time>
      </trkpt>
      <trkpt lat="40.292881" lon="0.314197">
        <ele>103.965</ele>
        <time>2017-09-27T16:47:08Z</time>
      </trkpt>
      <trkpt lat="40.292852" lon="0.314200">
        <ele>103.768</ele>
        <time>2017-09-27T16:47:07Z</time>
      </trkpt>
      <trkpt lat="40.292826" lon="0.314211">
        <ele>103.514</ele>
        <time>2017-09-27T16:47:06Z</time>
      </trkpt>
      <trkpt lat="40.292797" lon="0.314221">
        <ele>103.308</ele>
        <time>2017-09-27T16:47:05Z</time>
      </trkpt>
      <trkpt lat="40.292770" lon="0.314235">
        <ele>103.279</ele>
        <time>2017-09-27T16:47:04Z</time>
      </trkpt>
      <trkpt lat="40.292743" lon="0.314249">
        <ele>103.086</ele>
        <time>2017-09-27T16:47:03Z</time>
      </trkpt>
      <trkpt lat="40.292717" lon="0.314268">
        <ele>102.870</ele>
        <time>2017-09-27T16:47:02Z</time>
      </trkpt>
      <trkpt lat="40.292692" lon="0.314285">
        <ele>102.658</ele>
        <time>2017-09-27T16:47:01Z</time>
      </trkpt>
      <trkpt lat="40.292668" lon="0.314306">
        <ele>102.556</ele>
        <time>2017-09-27T16:47:00Z</time>
      </trkpt>
      <trkpt lat="40.292645" lon="0.314326">
        <ele>102.489</ele>
        <time>2017-09-27T16:46:59Z</time>
      </trkpt>
      <trkpt lat="40.292625" lon="0.314351">
        <ele>102.447</ele>
        <time>2017-09-27T16:46:58Z</time>
      </trkpt>
      <trkpt lat="40.292607" lon="0.314377">
        <ele>102.419</ele>
        <time>2017-09-27T16:46:57Z</time>
      </trkpt>
      <trkpt lat="40.292589" lon="0.314398">
        <ele>102.467</ele>
        <time>2017-09-27T16:46:56Z</time>
      </trkpt>
      <trkpt lat="40.292572" lon="0.314420">
        <ele>102.481</ele>
        <time>2017-09-27T16:46:55Z</time>
      </trkpt>
      <trkpt lat="40.292561" lon="0.314439">
        <ele>102.419</ele>
        <time>2017-09-27T16:46:54Z</time>
      </trkpt>
      <trkpt lat="40.292545" lon="0.314464">
        <ele>102.308</ele>
        <time>2017-09-27T16:46:53Z</time>
      </trkpt>
      <trkpt lat="40.292523" lon="0.314487">
        <ele>102.299</ele>
        <time>2017-09-27T16:46:52Z</time>
      </trkpt>
      <trkpt lat="40.292501" lon="0.314505">
        <ele>102.076</ele>
        <time>2017-09-27T16:46:51Z</time>
      </trkpt>
      <trkpt lat="40.292478" lon="0.314521">
        <ele>101.650</ele>
        <time>2017-09-27T16:46:50Z</time>
      </trkpt>
      <trkpt lat="40.292453" lon="0.314534">
        <ele>101.128</ele>
        <time>2017-09-27T16:46:49Z</time>
      </trkpt>
      <trkpt lat="40.292426" lon="0.314544">
        <ele>100.676</ele>
        <time>2017-09-27T16:46:48Z</time>
      </trkpt>
      <trkpt lat="40.292401" lon="0.314551">
        <ele>100.179</ele>
        <time>2017-09-27T16:46:47Z</time>
      </trkpt>
      <trkpt lat="40.292378" lon="0.314558">
        <ele>99.747</ele>
        <time>2017-09-27T16:46:46Z</time>
      </trkpt>
      <trkpt lat="40.292349" lon="0.314572">
        <ele>99.299</ele>
        <time>2017-09-27T16:46:45Z</time>
      </trkpt>
      <trkpt lat="40.292323" lon="0.314586">
        <ele>98.883</ele>
        <time>2017-09-27T16:46:44Z</time>
      </trkpt>
      <trkpt lat="40.292298" lon="0.314597">
        <ele>98.425</ele>
        <time>2017-09-27T16:46:43Z</time>
      </trkpt>
      <trkpt lat="40.292273" lon="0.314609">
        <ele>98.117</ele>
        <time>2017-09-27T16:46:42Z</time>
      </trkpt>
      <trkpt lat="40.292242" lon="0.314625">
        <ele>97.608</ele>
        <time>2017-09-27T16:46:41Z</time>
      </trkpt>
      <trkpt lat="40.292218" lon="0.314640">
        <ele>97.491</ele>
        <time>2017-09-27T16:46:40Z</time>
      </trkpt>
      <trkpt lat="40.292195" lon="0.314651">
        <ele>97.258</ele>
        <time>2017-09-27T16:46:39Z</time>
      </trkpt>
      <trkpt lat="40.292170" lon="0.314663">
        <ele>97.052</ele>
        <time>2017-09-27T16:46:38Z</time>
      </trkpt>
      <trkpt lat="40.292145" lon="0.314676">
        <ele>96.930</ele>
        <time>2017-09-27T16:46:37Z</time>
      </trkpt>
      <trkpt lat="40.292122" lon="0.314691">
        <ele>96.728</ele>
        <time>2017-09-27T16:46:36Z</time>
      </trkpt>
      <trkpt lat="40.292100" lon="0.314707">
        <ele>96.631</ele>
        <time>2017-09-27T16:46:35Z</time>
      </trkpt>
      <trkpt lat="40.292080" lon="0.314725">
        <ele>96.569</ele>
        <time>2017-09-27T16:46:34Z</time>
      </trkpt>
      <trkpt lat="40.292061" lon="0.314747">
        <ele>96.441</ele>
        <time>2017-09-27T16:46:33Z</time>
      </trkpt>
      <trkpt lat="40.292041" lon="0.314769">
        <ele>96.382</ele>
        <time>2017-09-27T16:46:32Z</time>
      </trkpt>
      <trkpt lat="40.292023" lon="0.314786">
        <ele>96.243</ele>
        <time>2017-09-27T16:46:31Z</time>
      </trkpt>
      <trkpt lat="40.292001" lon="0.314804">
        <ele>96.117</ele>
        <time>2017-09-27T16:46:30Z</time>
      </trkpt>
      <trkpt lat="40.291979" lon="0.314819">
        <ele>96.008</ele>
        <time>2017-09-27T16:46:29Z</time>
      </trkpt>
      <trkpt lat="40.291957" lon="0.314830">
        <ele>95.911</ele>
        <time>2017-09-27T16:46:28Z</time>
      </trkpt>
      <trkpt lat="40.291931" lon="0.314842">
        <ele>95.838</ele>
        <time>2017-09-27T16:46:27Z</time>
      </trkpt>
      <trkpt lat="40.291905" lon="0.314847">
        <ele>95.622</ele>
        <time>2017-09-27T16:46:26Z</time>
      </trkpt>
      <trkpt lat="40.291879" lon="0.314854">
        <ele>95.560</ele>
        <time>2017-09-27T16:46:25Z</time>
      </trkpt>
      <trkpt lat="40.291855" lon="0.314862">
        <ele>95.498</ele>
        <time>2017-09-27T16:46:24Z</time>
      </trkpt>
      <trkpt lat="40.291831" lon="0.314875">
        <ele>95.231</ele>
        <time>2017-09-27T16:46:23Z</time>
      </trkpt>
      <trkpt lat="40.291807" lon="0.314893">
        <ele>95.139</ele>
        <time>2017-09-27T16:46:22Z</time>
      </trkpt>
      <trkpt lat="40.291786" lon="0.314913">
        <ele>95.031</ele>
        <time>2017-09-27T16:46:21Z</time>
      </trkpt>
      <trkpt lat="40.291766" lon="0.314936">
        <ele>94.967</ele>
        <time>2017-09-27T16:46:20Z</time>
      </trkpt>
      <trkpt lat="40.291746" lon="0.314959">
        <ele>94.881</ele>
        <time>2017-09-27T16:46:19Z</time>
      </trkpt>
      <trkpt lat="40.291728" lon="0.314984">
        <ele>94.619</ele>
        <time>2017-09-27T16:46:18Z</time>
      </trkpt>
      <trkpt lat="40.291707" lon="0.315012">
        <ele>94.408</ele>
        <time>2017-09-27T16:46:17Z</time>
      </trkpt>
      <trkpt lat="40.291686" lon="0.315043">
        <ele>94.249</ele>
        <time>2017-09-27T16:46:16Z</time>
      </trkpt>
      <trkpt lat="40.291668" lon="0.315075">
        <ele>94.036</ele>
        <time>2017-09-27T16:46:15Z</time>
      </trkpt>
      <trkpt lat="40.291650" lon="0.315105">
        <ele>93.810</ele>
        <time>2017-09-27T16:46:14Z</time>
      </trkpt>
      <trkpt lat="40.291633" lon="0.315135">
        <ele>93.768</ele>
        <time>2017-09-27T16:46:13Z</time>
      </trkpt>
      <trkpt lat="40.291617" lon="0.315162">
        <ele>93.616</ele>
        <time>2017-09-27T16:46:12Z</time>
      </trkpt>
      <trkpt lat="40.291596" lon="0.315190">
        <ele>93.459</ele>
        <time>2017-09-27T16:46:11Z</time>
      </trkpt>
      <trkpt lat="40.291575" lon="0.315218">
        <ele>93.317</ele>
        <time>2017-09-27T16:46:10Z</time>
      </trkpt>
      <trkpt lat="40.291557" lon="0.315246">
        <ele>93.219</ele>
        <time>2017-09-27T16:46:09Z</time>
      </trkpt>
      <trkpt lat="40.291541" lon="0.315275">
        <ele>93.156</ele>
        <time>2017-09-27T16:46:08Z</time>
      </trkpt>
      <trkpt lat="40.291522" lon="0.315300">
        <ele>92.959</ele>
        <time>2017-09-27T16:46:07Z</time>
      </trkpt>
      <trkpt lat="40.291502" lon="0.315328">
        <ele>92.614</ele>
        <time>2017-09-27T16:46:06Z</time>
      </trkpt>
      <trkpt lat="40.291484" lon="0.315356">
        <ele>92.408</ele>
        <time>2017-09-27T16:46:05Z</time>
      </trkpt>
      <trkpt lat="40.291469" lon="0.315385">
        <ele>92.298</ele>
        <time>2017-09-27T16:46:04Z</time>
      </trkpt>
      <trkpt lat="40.291452" lon="0.315411">
        <ele>92.075</ele>
        <time>2017-09-27T16:46:03Z</time>
      </trkpt>
      <trkpt lat="40.291434" lon="0.315435">
        <ele>91.859</ele>
        <time>2017-09-27T16:46:02Z</time>
      </trkpt>
      <trkpt lat="40.291415" lon="0.315462">
        <ele>91.557</ele>
        <time>2017-09-27T16:46:01Z</time>
      </trkpt>
      <trkpt lat="40.291398" lon="0.315487">
        <ele>91.315</ele>
        <time>2017-09-27T16:46:00Z</time>
      </trkpt>
      <trkpt lat="40.291381" lon="0.315510">
        <ele>91.118</ele>
        <time>2017-09-27T16:45:59Z</time>
      </trkpt>
      <trkpt lat="40.291363" lon="0.315532">
        <ele>90.936</ele>
        <time>2017-09-27T16:45:58Z</time>
      </trkpt>
      <trkpt lat="40.291342" lon="0.315552">
        <ele>90.728</ele>
        <time>2017-09-27T16:45:57Z</time>
      </trkpt>
      <trkpt lat="40.291319" lon="0.315570">
        <ele>90.464</ele>
        <time>2017-09-27T16:45:56Z</time>
      </trkpt>
      <trkpt lat="40.291297" lon="0.315590">
        <ele>90.006</ele>
        <time>2017-09-27T16:45:55Z</time>
      </trkpt>
      <trkpt lat="40.291278" lon="0.315614">
        <ele>89.716</ele>
        <time>2017-09-27T16:45:54Z</time>
      </trkpt>
      <trkpt lat="40.291259" lon="0.315634">
        <ele>89.508</ele>
        <time>2017-09-27T16:45:53Z</time>
      </trkpt>
      <trkpt lat="40.291240" lon="0.315656">
        <ele>89.269</ele>
        <time>2017-09-27T16:45:52Z</time>
      </trkpt>
      <trkpt lat="40.291221" lon="0.315681">
        <ele>89.056</ele>
        <time>2017-09-27T16:45:51Z</time>
      </trkpt>
      <trkpt lat="40.291203" lon="0.315708">
        <ele>88.840</ele>
        <time>2017-09-27T16:45:50Z</time>
      </trkpt>
      <trkpt lat="40.291185" lon="0.315736">
        <ele>88.578</ele>
        <time>2017-09-27T16:45:49Z</time>
      </trkpt>
      <trkpt lat="40.291172" lon="0.315765">
        <ele>88.456</ele>
        <time>2017-09-27T16:45:48Z</time>
      </trkpt>
      <trkpt lat="40.291162" lon="0.315798">
        <ele>88.219</ele>
        <time>2017-09-27T16:45:47Z</time>
      </trkpt>
      <trkpt lat="40.291153" lon="0.315831">
        <ele>88.027</ele>
        <time>2017-09-27T16:45:46Z</time>
      </trkpt>
      <trkpt lat="40.291148" lon="0.315862">
        <ele>87.899</ele>
        <time>2017-09-27T16:45:45Z</time>
      </trkpt>
      <trkpt lat="40.291145" lon="0.315895">
        <ele>87.692</ele>
        <time>2017-09-27T16:45:44Z</time>
      </trkpt>
      <trkpt lat="40.291140" lon="0.315926">
        <ele>87.373</ele>
        <time>2017-09-27T16:45:43Z</time>
      </trkpt>
      <trkpt lat="40.291128" lon="0.315957">
        <ele>87.120</ele>
        <time>2017-09-27T16:45:42Z</time>
      </trkpt>
      <trkpt lat="40.291117" lon="0.315991">
        <ele>86.908</ele>
        <time>2017-09-27T16:45:41Z</time>
      </trkpt>
      <trkpt lat="40.291102" lon="0.316028">
        <ele>86.632</ele>
        <time>2017-09-27T16:45:40Z</time>
      </trkpt>
      <trkpt lat="40.291082" lon="0.316058">
        <ele>86.579</ele>
        <time>2017-09-27T16:45:39Z</time>
      </trkpt>
      <trkpt lat="40.291057" lon="0.316081">
        <ele>86.443</ele>
        <time>2017-09-27T16:45:38Z</time>
      </trkpt>
      <trkpt lat="40.291026" lon="0.316092">
        <ele>86.411</ele>
        <time>2017-09-27T16:45:37Z</time>
      </trkpt>
      <trkpt lat="40.290996" lon="0.316104">
        <ele>86.539</ele>
        <time>2017-09-27T16:45:36Z</time>
      </trkpt>
      <trkpt lat="40.290965" lon="0.316115">
        <ele>86.552</ele>
        <time>2017-09-27T16:45:35Z</time>
      </trkpt>
      <trkpt lat="40.290933" lon="0.316121">
        <ele>86.620</ele>
        <time>2017-09-27T16:45:34Z</time>
      </trkpt>
      <trkpt lat="40.290899" lon="0.316131">
        <ele>86.652</ele>
        <time>2017-09-27T16:45:33Z</time>
      </trkpt>
      <trkpt lat="40.290869" lon="0.316141">
        <ele>86.759</ele>
        <time>2017-09-27T16:45:32Z</time>
      </trkpt>
      <trkpt lat="40.290840" lon="0.316156">
        <ele>86.703</ele>
        <time>2017-09-27T16:45:31Z</time>
      </trkpt>
      <trkpt lat="40.290811" lon="0.316169">
        <ele>86.423</ele>
        <time>2017-09-27T16:45:30Z</time>
      </trkpt>
      <trkpt lat="40.290783" lon="0.316184">
        <ele>86.208</ele>
        <time>2017-09-27T16:45:29Z</time>
      </trkpt>
      <trkpt lat="40.290755" lon="0.316200">
        <ele>85.928</ele>
        <time>2017-09-27T16:45:28Z</time>
      </trkpt>
      <trkpt lat="40.290727" lon="0.316215">
        <ele>85.675</ele>
        <time>2017-09-27T16:45:27Z</time>
      </trkpt>
      <trkpt lat="40.290702" lon="0.316231">
        <ele>85.469</ele>
        <time>2017-09-27T16:45:26Z</time>
      </trkpt>
      <trkpt lat="40.290675" lon="0.316246">
        <ele>85.247</ele>
        <time>2017-09-27T16:45:25Z</time>
      </trkpt>
      <trkpt lat="40.290649" lon="0.316264">
        <ele>84.935</ele>
        <time>2017-09-27T16:45:24Z</time>
      </trkpt>
      <trkpt lat="40.290626" lon="0.316284">
        <ele>84.758</ele>
        <time>2017-09-27T16:45:23Z</time>
      </trkpt>
      <trkpt lat="40.290602" lon="0.316303">
        <ele>84.516</ele>
        <time>2017-09-27T16:45:22Z</time>
      </trkpt>
      <trkpt lat="40.290503" lon="0.316407">
        <ele>83.598</ele>
        <time>2017-09-27T16:45:17Z</time>
      </trkpt>
      <trkpt lat="40.290483" lon="0.316429">
        <ele>83.272</ele>
        <time>2017-09-27T16:45:16Z</time>
      </trkpt>
      <trkpt lat="40.290461" lon="0.316450">
        <ele>82.913</ele>
        <time>2017-09-27T16:45:15Z</time>
      </trkpt>
      <trkpt lat="40.290443" lon="0.316477">
        <ele>82.614</ele>
        <time>2017-09-27T16:45:14Z</time>
      </trkpt>
      <trkpt lat="40.290423" lon="0.316504">
        <ele>82.208</ele>
        <time>2017-09-27T16:45:13Z</time>
      </trkpt>
      <trkpt lat="40.290398" lon="0.316526">
        <ele>81.980</ele>
        <time>2017-09-27T16:45:12Z</time>
      </trkpt>
      <trkpt lat="40.290375" lon="0.316550">
        <ele>81.557</ele>
        <time>2017-09-27T16:45:11Z</time>
      </trkpt>
      <trkpt lat="40.290353" lon="0.316576">
        <ele>81.271</ele>
        <time>2017-09-27T16:45:10Z</time>
      </trkpt>
      <trkpt lat="40.290325" lon="0.316587">
        <ele>80.949</ele>
        <time>2017-09-27T16:45:09Z</time>
      </trkpt>
      <trkpt lat="40.290300" lon="0.316604">
        <ele>80.697</ele>
        <time>2017-09-27T16:45:08Z</time>
      </trkpt>
      <trkpt lat="40.290275" lon="0.316618">
        <ele>80.360</ele>
        <time>2017-09-27T16:45:07Z</time>
      </trkpt>
      <trkpt lat="40.290252" lon="0.316639">
        <ele>80.098</ele>
        <time>2017-09-27T16:45:06Z</time>
      </trkpt>
      <trkpt lat="40.290229" lon="0.316663">
        <ele>79.730</ele>
        <time>2017-09-27T16:45:05Z</time>
      </trkpt>
      <trkpt lat="40.290209" lon="0.316690">
        <ele>79.336</ele>
        <time>2017-09-27T16:45:04Z</time>
      </trkpt>
      <trkpt lat="40.290195" lon="0.316722">
        <ele>79.017</ele>
        <time>2017-09-27T16:45:03Z</time>
      </trkpt>
      <trkpt lat="40.290184" lon="0.316758">
        <ele>78.718</ele>
        <time>2017-09-27T16:45:02Z</time>
      </trkpt>
      <trkpt lat="40.290172" lon="0.316795">
        <ele>78.308</ele>
        <time>2017-09-27T16:45:01Z</time>
      </trkpt>
      <trkpt lat="40.290160" lon="0.316829">
        <ele>78.056</ele>
        <time>2017-09-27T16:45:00Z</time>
      </trkpt>
      <trkpt lat="40.290146" lon="0.316866">
        <ele>77.673</ele>
        <time>2017-09-27T16:44:59Z</time>
      </trkpt>
      <trkpt lat="40.290128" lon="0.316898">
        <ele>77.327</ele>
        <time>2017-09-27T16:44:58Z</time>
      </trkpt>
      <trkpt lat="40.290110" lon="0.316933">
        <ele>76.995</ele>
        <time>2017-09-27T16:44:57Z</time>
      </trkpt>
      <trkpt lat="40.290093" lon="0.316967">
        <ele>76.533</ele>
        <time>2017-09-27T16:44:56Z</time>
      </trkpt>
      <trkpt lat="40.290070" lon="0.316999">
        <ele>76.076</ele>
        <time>2017-09-27T16:44:55Z</time>
      </trkpt>
      <trkpt lat="40.290044" lon="0.317024">
        <ele>75.524</ele>
        <time>2017-09-27T16:44:54Z</time>
      </trkpt>
      <trkpt lat="40.290016" lon="0.317048">
        <ele>75.026</ele>
        <time>2017-09-27T16:44:53Z</time>
      </trkpt>
      <trkpt lat="40.289990" lon="0.317060">
        <ele>74.774</ele>
        <time>2017-09-27T16:44:52Z</time>
      </trkpt>
      <trkpt lat="40.289957" lon="0.317071">
        <ele>74.556</ele>
        <time>2017-09-27T16:44:51Z</time>
      </trkpt>
      <trkpt lat="40.289927" lon="0.317082">
        <ele>74.421</ele>
        <time>2017-09-27T16:44:50Z</time>
      </trkpt>
      <trkpt lat="40.289897" lon="0.317096">
        <ele>74.208</ele>
        <time>2017-09-27T16:44:49Z</time>
      </trkpt>
      <trkpt lat="40.289867" lon="0.317108">
        <ele>74.070</ele>
        <time>2017-09-27T16:44:48Z</time>
      </trkpt>
      <trkpt lat="40.289839" lon="0.317124">
        <ele>73.987</ele>
        <time>2017-09-27T16:44:47Z</time>
      </trkpt>
      <trkpt lat="40.289814" lon="0.317147">
        <ele>73.641</ele>
        <time>2017-09-27T16:44:46Z</time>
      </trkpt>
      <trkpt lat="40.289791" lon="0.317173">
        <ele>73.479</ele>
        <time>2017-09-27T16:44:45Z</time>
      </trkpt>
      <trkpt lat="40.289768" lon="0.317204">
        <ele>73.167</ele>
        <time>2017-09-27T16:44:44Z</time>
      </trkpt>
      <trkpt lat="40.289749" lon="0.317237">
        <ele>72.910</ele>
        <time>2017-09-27T16:44:43Z</time>
      </trkpt>
      <trkpt lat="40.289731" lon="0.317269">
        <ele>72.828</ele>
        <time>2017-09-27T16:44:42Z</time>
      </trkpt>
      <trkpt lat="40.289708" lon="0.317298">
        <ele>72.830</ele>
        <time>2017-09-27T16:44:41Z</time>
      </trkpt>
      <trkpt lat="40.289695" lon="0.317333">
        <ele>72.721</ele>
        <time>2017-09-27T16:44:40Z</time>
      </trkpt>
      <trkpt lat="40.289682" lon="0.317371">
        <ele>72.641</ele>
        <time>2017-09-27T16:44:39Z</time>
      </trkpt>
      <trkpt lat="40.289673" lon="0.317408">
        <ele>72.505</ele>
        <time>2017-09-27T16:44:38Z</time>
      </trkpt>
      <trkpt lat="40.289668" lon="0.317445">
        <ele>72.408</ele>
        <time>2017-09-27T16:44:37Z</time>
      </trkpt>
      <trkpt lat="40.289654" lon="0.317483">
        <ele>72.335</ele>
        <time>2017-09-27T16:44:36Z</time>
      </trkpt>
      <trkpt lat="40.289637" lon="0.317518">
        <ele>72.222</ele>
        <time>2017-09-27T16:44:35Z</time>
      </trkpt>
      <trkpt lat="40.289628" lon="0.317559">
        <ele>72.156</ele>
        <time>2017-09-27T16:44:34Z</time>
      </trkpt>
      <trkpt lat="40.289613" lon="0.317602">
        <ele>72.074</ele>
        <time>2017-09-27T16:44:33Z</time>
      </trkpt>
      <trkpt lat="40.289594" lon="0.317643">
        <ele>71.932</ele>
        <time>2017-09-27T16:44:32Z</time>
      </trkpt>
      <trkpt lat="40.289575" lon="0.317681">
        <ele>71.945</ele>
        <time>2017-09-27T16:44:31Z</time>
      </trkpt>
      <trkpt lat="40.289554" lon="0.317716">
        <ele>71.823</ele>
        <time>2017-09-27T16:44:30Z</time>
      </trkpt>
      <trkpt lat="40.289530" lon="0.317741">
        <ele>71.825</ele>
        <time>2017-09-27T16:44:29Z</time>
      </trkpt>
      <trkpt lat="40.289505" lon="0.317772">
        <ele>71.832</ele>
        <time>2017-09-27T16:44:28Z</time>
      </trkpt>
      <trkpt lat="40.289474" lon="0.317797">
        <ele>71.892</ele>
        <time>2017-09-27T16:44:27Z</time>
      </trkpt>
      <trkpt lat="40.289444" lon="0.317824">
        <ele>71.711</ele>
        <time>2017-09-27T16:44:26Z</time>
      </trkpt>
      <trkpt lat="40.289419" lon="0.317857">
        <ele>71.408</ele>
        <time>2017-09-27T16:44:25Z</time>
      </trkpt>
      <trkpt lat="40.289390" lon="0.317886">
        <ele>71.266</ele>
        <time>2017-09-27T16:44:24Z</time>
      </trkpt>
      <trkpt lat="40.289363" lon="0.317913">
        <ele>71.053</ele>
        <time>2017-09-27T16:44:23Z</time>
      </trkpt>
      <trkpt lat="40.289333" lon="0.317941">
        <ele>70.837</ele>
        <time>2017-09-27T16:44:22Z</time>
      </trkpt>
      <trkpt lat="40.289303" lon="0.317968">
        <ele>70.665</ele>
        <time>2017-09-27T16:44:21Z</time>
      </trkpt>
      <trkpt lat="40.289272" lon="0.317994">
        <ele>70.433</ele>
        <time>2017-09-27T16:44:20Z</time>
      </trkpt>
      <trkpt lat="40.289241" lon="0.318023">
        <ele>70.216</ele>
        <time>2017-09-27T16:44:19Z</time>
      </trkpt>
      <trkpt lat="40.289209" lon="0.318047">
        <ele>70.154</ele>
        <time>2017-09-27T16:44:18Z</time>
      </trkpt>
      <trkpt lat="40.289178" lon="0.318068">
        <ele>69.946</ele>
        <time>2017-09-27T16:44:17Z</time>
      </trkpt>
      <trkpt lat="40.289151" lon="0.318089">
        <ele>69.846</ele>
        <time>2017-09-27T16:44:16Z</time>
      </trkpt>
      <trkpt lat="40.289120" lon="0.318108">
        <ele>69.788</ele>
        <time>2017-09-27T16:44:15Z</time>
      </trkpt>
      <trkpt lat="40.289089" lon="0.318132">
        <ele>69.516</ele>
        <time>2017-09-27T16:44:14Z</time>
      </trkpt>
      <trkpt lat="40.289055" lon="0.318143">
        <ele>69.508</ele>
        <time>2017-09-27T16:44:13Z</time>
      </trkpt>
      <trkpt lat="40.289013" lon="0.318157">
        <ele>69.517</ele>
        <time>2017-09-27T16:44:12Z</time>
      </trkpt>
      <trkpt lat="40.288962" lon="0.318162">
        <ele>69.534</ele>
        <time>2017-09-27T16:44:11Z</time>
      </trkpt>
      <trkpt lat="40.288906" lon="0.318163">
        <ele>69.678</ele>
        <time>2017-09-27T16:44:10Z</time>
      </trkpt>
      <trkpt lat="40.288849" lon="0.318167">
        <ele>69.656</ele>
        <time>2017-09-27T16:44:09Z</time>
      </trkpt>
      <trkpt lat="40.288806" lon="0.318176">
        <ele>69.634</ele>
        <time>2017-09-27T16:44:08Z</time>
      </trkpt>
      <trkpt lat="40.288767" lon="0.318179">
        <ele>69.657</ele>
        <time>2017-09-27T16:44:07Z</time>
      </trkpt>
      <trkpt lat="40.288729" lon="0.318182">
        <ele>69.575</ele>
        <time>2017-09-27T16:44:06Z</time>
      </trkpt>
      <trkpt lat="40.288696" lon="0.318184">
        <ele>69.517</ele>
        <time>2017-09-27T16:44:05Z</time>
      </trkpt>
      <trkpt lat="40.288661" lon="0.318191">
        <ele>69.579</ele>
        <time>2017-09-27T16:44:04Z</time>
      </trkpt>
      <trkpt lat="40.288626" lon="0.318193">
        <ele>69.505</ele>
        <time>2017-09-27T16:44:03Z</time>
      </trkpt>
      <trkpt lat="40.288590" lon="0.318195">
        <ele>69.525</ele>
        <time>2017-09-27T16:44:02Z</time>
      </trkpt>
      <trkpt lat="40.288556" lon="0.318194">
        <ele>69.408</ele>
        <time>2017-09-27T16:44:01Z</time>
      </trkpt>
      <trkpt lat="40.288525" lon="0.318197">
        <ele>69.350</ele>
        <time>2017-09-27T16:44:00Z</time>
      </trkpt>
      <trkpt lat="40.288493" lon="0.318195">
        <ele>69.357</ele>
        <time>2017-09-27T16:43:59Z</time>
      </trkpt>
      <trkpt lat="40.288464" lon="0.318199">
        <ele>69.231</ele>
        <time>2017-09-27T16:43:58Z</time>
      </trkpt>
      <trkpt lat="40.288433" lon="0.318213">
        <ele>69.179</ele>
        <time>2017-09-27T16:43:57Z</time>
      </trkpt>
      <trkpt lat="40.288405" lon="0.318230">
        <ele>68.927</ele>
        <time>2017-09-27T16:43:56Z</time>
      </trkpt>
      <trkpt lat="40.288380" lon="0.318252">
        <ele>68.720</ele>
        <time>2017-09-27T16:43:55Z</time>
      </trkpt>
      <trkpt lat="40.288354" lon="0.318272">
        <ele>68.598</ele>
        <time>2017-09-27T16:43:54Z</time>
      </trkpt>
      <trkpt lat="40.288331" lon="0.318298">
        <ele>68.230</ele>
        <time>2017-09-27T16:43:53Z</time>
      </trkpt>
      <trkpt lat="40.288306" lon="0.318322">
        <ele>68.058</ele>
        <time>2017-09-27T16:43:52Z</time>
      </trkpt>
      <trkpt lat="40.288282" lon="0.318348">
        <ele>67.752</ele>
        <time>2017-09-27T16:43:51Z</time>
      </trkpt>
      <trkpt lat="40.288259" lon="0.318375">
        <ele>67.517</ele>
        <time>2017-09-27T16:43:50Z</time>
      </trkpt>
      <trkpt lat="40.288240" lon="0.318405">
        <ele>67.208</ele>
        <time>2017-09-27T16:43:49Z</time>
      </trkpt>
      <trkpt lat="40.288221" lon="0.318437">
        <ele>67.098</ele>
        <time>2017-09-27T16:43:48Z</time>
      </trkpt>
      <trkpt lat="40.288201" lon="0.318469">
        <ele>66.825</ele>
        <time>2017-09-27T16:43:47Z</time>
      </trkpt>
      <trkpt lat="40.288182" lon="0.318502">
        <ele>66.629</ele>
        <time>2017-09-27T16:43:46Z</time>
      </trkpt>
      <trkpt lat="40.288163" lon="0.318537">
        <ele>66.487</ele>
        <time>2017-09-27T16:43:45Z</time>
      </trkpt>
      <trkpt lat="40.288144" lon="0.318575">
        <ele>66.235</ele>
        <time>2017-09-27T16:43:44Z</time>
      </trkpt>
      <trkpt lat="40.288126" lon="0.318614">
        <ele>66.028</ele>
        <time>2017-09-27T16:43:43Z</time>
      </trkpt>
      <trkpt lat="40.288111" lon="0.318658">
        <ele>65.746</ele>
        <time>2017-09-27T16:43:42Z</time>
      </trkpt>
      <trkpt lat="40.288096" lon="0.318701">
        <ele>65.458</ele>
        <time>2017-09-27T16:43:41Z</time>
      </trkpt>
      <trkpt lat="40.288003" lon="0.318823">
        <ele>64.428</ele>
        <time>2017-09-27T16:43:37Z</time>
      </trkpt>
      <trkpt lat="40.287978" lon="0.318852">
        <ele>64.289</ele>
        <time>2017-09-27T16:43:36Z</time>
      </trkpt>
      <trkpt lat="40.287951" lon="0.318881">
        <ele>64.017</ele>
        <time>2017-09-27T16:43:35Z</time>
      </trkpt>
      <trkpt lat="40.287925" lon="0.318912">
        <ele>63.908</ele>
        <time>2017-09-27T16:43:34Z</time>
      </trkpt>
      <trkpt lat="40.287901" lon="0.318944">
        <ele>63.765</ele>
        <time>2017-09-27T16:43:33Z</time>
      </trkpt>
      <trkpt lat="40.287877" lon="0.318976">
        <ele>63.612</ele>
        <time>2017-09-27T16:43:32Z</time>
      </trkpt>
      <trkpt lat="40.287852" lon="0.319008">
        <ele>63.566</ele>
        <time>2017-09-27T16:43:31Z</time>
      </trkpt>
      <trkpt lat="40.287827" lon="0.319041">
        <ele>63.464</ele>
        <time>2017-09-27T16:43:30Z</time>
      </trkpt>
      <trkpt lat="40.287802" lon="0.319073">
        <ele>63.342</ele>
        <time>2017-09-27T16:43:29Z</time>
      </trkpt>
      <trkpt lat="40.287778" lon="0.319105">
        <ele>63.275</ele>
        <time>2017-09-27T16:43:28Z</time>
      </trkpt>
      <trkpt lat="40.287755" lon="0.319136">
        <ele>62.953</ele>
        <time>2017-09-27T16:43:27Z</time>
      </trkpt>
      <trkpt lat="40.287731" lon="0.319165">
        <ele>62.745</ele>
        <time>2017-09-27T16:43:26Z</time>
      </trkpt>
      <trkpt lat="40.287709" lon="0.319196">
        <ele>62.354</ele>
        <time>2017-09-27T16:43:25Z</time>
      </trkpt>
      <trkpt lat="40.287686" lon="0.319227">
        <ele>62.056</ele>
        <time>2017-09-27T16:43:24Z</time>
      </trkpt>
      <trkpt lat="40.287664" lon="0.319258">
        <ele>61.811</ele>
        <time>2017-09-27T16:43:23Z</time>
      </trkpt>
      <trkpt lat="40.287640" lon="0.319288">
        <ele>61.608</ele>
        <time>2017-09-27T16:43:22Z</time>
      </trkpt>
      <trkpt lat="40.287616" lon="0.319317">
        <ele>61.478</ele>
        <time>2017-09-27T16:43:21Z</time>
      </trkpt>
      <trkpt lat="40.287590" lon="0.319346">
        <ele>61.285</ele>
        <time>2017-09-27T16:43:20Z</time>
      </trkpt>
      <trkpt lat="40.287562" lon="0.319374">
        <ele>61.119</ele>
        <time>2017-09-27T16:43:19Z</time>
      </trkpt>
      <trkpt lat="40.287532" lon="0.319400">
        <ele>61.087</ele>
        <time>2017-09-27T16:43:18Z</time>
      </trkpt>
      <trkpt lat="40.287500" lon="0.319426">
        <ele>61.065</ele>
        <time>2017-09-27T16:43:17Z</time>
      </trkpt>
      <trkpt lat="40.287466" lon="0.319450">
        <ele>60.688</ele>
        <time>2017-09-27T16:43:16Z</time>
      </trkpt>
      <trkpt lat="40.287432" lon="0.319471">
        <ele>60.276</ele>
        <time>2017-09-27T16:43:15Z</time>
      </trkpt>
      <trkpt lat="40.287398" lon="0.319490">
        <ele>59.978</ele>
        <time>2017-09-27T16:43:14Z</time>
      </trkpt>
      <trkpt lat="40.287365" lon="0.319506">
        <ele>59.519</ele>
        <time>2017-09-27T16:43:13Z</time>
      </trkpt>
      <trkpt lat="40.287333" lon="0.319518">
        <ele>59.209</ele>
        <time>2017-09-27T16:43:12Z</time>
      </trkpt>
      <trkpt lat="40.287302" lon="0.319529">
        <ele>59.019</ele>
        <time>2017-09-27T16:43:11Z</time>
      </trkpt>
      <trkpt lat="40.287272" lon="0.319545">
        <ele>58.808</ele>
        <time>2017-09-27T16:43:10Z</time>
      </trkpt>
      <trkpt lat="40.287246" lon="0.319566">
        <ele>58.614</ele>
        <time>2017-09-27T16:43:09Z</time>
      </trkpt>
      <trkpt lat="40.287217" lon="0.319585">
        <ele>58.521</ele>
        <time>2017-09-27T16:43:08Z</time>
      </trkpt>
      <trkpt lat="40.287189" lon="0.319603">
        <ele>58.345</ele>
        <time>2017-09-27T16:43:07Z</time>
      </trkpt>
      <trkpt lat="40.287158" lon="0.319621">
        <ele>58.263</ele>
        <time>2017-09-27T16:43:06Z</time>
      </trkpt>
      <trkpt lat="40.287128" lon="0.319640">
        <ele>58.071</ele>
        <time>2017-09-27T16:43:05Z</time>
      </trkpt>
      <trkpt lat="40.287099" lon="0.319662">
        <ele>57.994</ele>
        <time>2017-09-27T16:43:04Z</time>
      </trkpt>
      <trkpt lat="40.287071" lon="0.319684">
        <ele>57.882</ele>
        <time>2017-09-27T16:43:03Z</time>
      </trkpt>
      <trkpt lat="40.287043" lon="0.319705">
        <ele>57.694</ele>
        <time>2017-09-27T16:43:02Z</time>
      </trkpt>
      <trkpt lat="40.287013" lon="0.319726">
        <ele>57.581</ele>
        <time>2017-09-27T16:43:01Z</time>
      </trkpt>
      <trkpt lat="40.286982" lon="0.319746">
        <ele>57.361</ele>
        <time>2017-09-27T16:43:00Z</time>
      </trkpt>
      <trkpt lat="40.286951" lon="0.319765">
        <ele>57.217</ele>
        <time>2017-09-27T16:42:59Z</time>
      </trkpt>
      <trkpt lat="40.286920" lon="0.319783">
        <ele>57.108</ele>
        <time>2017-09-27T16:42:58Z</time>
      </trkpt>
      <trkpt lat="40.286888" lon="0.319798">
        <ele>57.041</ele>
        <time>2017-09-27T16:42:57Z</time>
      </trkpt>
      <trkpt lat="40.286854" lon="0.319809">
        <ele>56.918</ele>
        <time>2017-09-27T16:42:56Z</time>
      </trkpt>
      <trkpt lat="40.286821" lon="0.319821">
        <ele>56.842</ele>
        <time>2017-09-27T16:42:55Z</time>
      </trkpt>
      <trkpt lat="40.286788" lon="0.319834">
        <ele>56.630</ele>
        <time>2017-09-27T16:42:54Z</time>
      </trkpt>
      <trkpt lat="40.286756" lon="0.319850">
        <ele>56.528</ele>
        <time>2017-09-27T16:42:53Z</time>
      </trkpt>
      <trkpt lat="40.286726" lon="0.319869">
        <ele>56.321</ele>
        <time>2017-09-27T16:42:52Z</time>
      </trkpt>
      <trkpt lat="40.286698" lon="0.319893">
        <ele>56.229</ele>
        <time>2017-09-27T16:42:51Z</time>
      </trkpt>
      <trkpt lat="40.286672" lon="0.319921">
        <ele>56.041</ele>
        <time>2017-09-27T16:42:50Z</time>
      </trkpt>
      <trkpt lat="40.286647" lon="0.319953">
        <ele>55.936</ele>
        <time>2017-09-27T16:42:49Z</time>
      </trkpt>
      <trkpt lat="40.286625" lon="0.319988">
        <ele>55.717</ele>
        <time>2017-09-27T16:42:48Z</time>
      </trkpt>
      <trkpt lat="40.286605" lon="0.320023">
        <ele>55.618</ele>
        <time>2017-09-27T16:42:47Z</time>
      </trkpt>
      <trkpt lat="40.286588" lon="0.320061">
        <ele>55.408</ele>
        <time>2017-09-27T16:42:46Z</time>
      </trkpt>
      <trkpt lat="40.286573" lon="0.320102">
        <ele>55.366</ele>
        <time>2017-09-27T16:42:45Z</time>
      </trkpt>
      <trkpt lat="40.286561" lon="0.320144">
        <ele>55.283</ele>
        <time>2017-09-27T16:42:44Z</time>
      </trkpt>
      <trkpt lat="40.286549" lon="0.320186">
        <ele>55.227</ele>
        <time>2017-09-27T16:42:43Z</time>
      </trkpt>
      <trkpt lat="40.286540" lon="0.320231">
        <ele>55.165</ele>
        <time>2017-09-27T16:42:42Z</time>
      </trkpt>
      <trkpt lat="40.286530" lon="0.320278">
        <ele>55.043</ele>
        <time>2017-09-27T16:42:41Z</time>
      </trkpt>
      <trkpt lat="40.286523" lon="0.320325">
        <ele>54.866</ele>
        <time>2017-09-27T16:42:40Z</time>
      </trkpt>
      <trkpt lat="40.286514" lon="0.320371">
        <ele>54.684</ele>
        <time>2017-09-27T16:42:39Z</time>
      </trkpt>
      <trkpt lat="40.286506" lon="0.320419">
        <ele>54.356</ele>
        <time>2017-09-27T16:42:38Z</time>
      </trkpt>
      <trkpt lat="40.286494" lon="0.320467">
        <ele>54.147</ele>
        <time>2017-09-27T16:42:37Z</time>
      </trkpt>
      <trkpt lat="40.286481" lon="0.320514">
        <ele>53.829</ele>
        <time>2017-09-27T16:42:36Z</time>
      </trkpt>
      <trkpt lat="40.286468" lon="0.320559">
        <ele>53.621</ele>
        <time>2017-09-27T16:42:35Z</time>
      </trkpt>
      <trkpt lat="40.286454" lon="0.320605">
        <ele>53.308</ele>
        <time>2017-09-27T16:42:34Z</time>
      </trkpt>
      <trkpt lat="40.286442" lon="0.320651">
        <ele>53.137</ele>
        <time>2017-09-27T16:42:33Z</time>
      </trkpt>
      <trkpt lat="40.286426" lon="0.320692">
        <ele>52.874</ele>
        <time>2017-09-27T16:42:32Z</time>
      </trkpt>
      <trkpt lat="40.286406" lon="0.320726">
        <ele>52.558</ele>
        <time>2017-09-27T16:42:31Z</time>
      </trkpt>
      <trkpt lat="40.286382" lon="0.320759">
        <ele>52.266</ele>
        <time>2017-09-27T16:42:30Z</time>
      </trkpt>
      <trkpt lat="40.286354" lon="0.320790">
        <ele>51.994</ele>
        <time>2017-09-27T16:42:29Z</time>
      </trkpt>
      <trkpt lat="40.286326" lon="0.320818">
        <ele>51.657</ele>
        <time>2017-09-27T16:42:28Z</time>
      </trkpt>
      <trkpt lat="40.286298" lon="0.320848">
        <ele>51.365</ele>
        <time>2017-09-27T16:42:27Z</time>
      </trkpt>
      <trkpt lat="40.286271" lon="0.320879">
        <ele>51.037</ele>
        <time>2017-09-27T16:42:26Z</time>
      </trkpt>
      <trkpt lat="40.286245" lon="0.320913">
        <ele>50.773</ele>
        <time>2017-09-27T16:42:25Z</time>
      </trkpt>
      <trkpt lat="40.286219" lon="0.320948">
        <ele>50.485</ele>
        <time>2017-09-27T16:42:24Z</time>
      </trkpt>
      <trkpt lat="40.286193" lon="0.320983">
        <ele>50.113</ele>
        <time>2017-09-27T16:42:23Z</time>
      </trkpt>
      <trkpt lat="40.286168" lon="0.321021">
        <ele>49.708</ele>
        <time>2017-09-27T16:42:22Z</time>
      </trkpt>
      <trkpt lat="40.286145" lon="0.321060">
        <ele>49.460</ele>
        <time>2017-09-27T16:42:21Z</time>
      </trkpt>
      <trkpt lat="40.286124" lon="0.321098">
        <ele>49.177</ele>
        <time>2017-09-27T16:42:20Z</time>
      </trkpt>
      <trkpt lat="40.286104" lon="0.321138">
        <ele>48.911</ele>
        <time>2017-09-27T16:42:19Z</time>
      </trkpt>
      <trkpt lat="40.286084" lon="0.321183">
        <ele>48.679</ele>
        <time>2017-09-27T16:42:18Z</time>
      </trkpt>
      <trkpt lat="40.286065" lon="0.321226">
        <ele>48.347</ele>
        <time>2017-09-27T16:42:17Z</time>
      </trkpt>
      <trkpt lat="40.286046" lon="0.321269">
        <ele>48.130</ele>
        <time>2017-09-27T16:42:16Z</time>
      </trkpt>
      <trkpt lat="40.286029" lon="0.321316">
        <ele>47.928</ele>
        <time>2017-09-27T16:42:15Z</time>
      </trkpt>
      <trkpt lat="40.286008" lon="0.321371">
        <ele>47.750</ele>
        <time>2017-09-27T16:42:14Z</time>
      </trkpt>
      <trkpt lat="40.285990" lon="0.321415">
        <ele>47.577</ele>
        <time>2017-09-27T16:42:13Z</time>
      </trkpt>
      <trkpt lat="40.285975" lon="0.321460">
        <ele>47.361</ele>
        <time>2017-09-27T16:42:12Z</time>
      </trkpt>
      <trkpt lat="40.285963" lon="0.321508">
        <ele>47.027</ele>
        <time>2017-09-27T16:42:11Z</time>
      </trkpt>
      <trkpt lat="40.285957" lon="0.321558">
        <ele>46.808</ele>
        <time>2017-09-27T16:42:10Z</time>
      </trkpt>
      <trkpt lat="40.285954" lon="0.321608">
        <ele>46.620</ele>
        <time>2017-09-27T16:42:09Z</time>
      </trkpt>
      <trkpt lat="40.285955" lon="0.321658">
        <ele>46.567</ele>
        <time>2017-09-27T16:42:08Z</time>
      </trkpt>
      <trkpt lat="40.285955" lon="0.321712">
        <ele>46.341</ele>
        <time>2017-09-27T16:42:07Z</time>
      </trkpt>
      <trkpt lat="40.285951" lon="0.321763">
        <ele>46.129</ele>
        <time>2017-09-27T16:42:06Z</time>
      </trkpt>
      <trkpt lat="40.285944" lon="0.321815">
        <ele>45.947</ele>
        <time>2017-09-27T16:42:05Z</time>
      </trkpt>
      <trkpt lat="40.285940" lon="0.321866">
        <ele>45.730</ele>
        <time>2017-09-27T16:42:04Z</time>
      </trkpt>
      <trkpt lat="40.285945" lon="0.321920">
        <ele>45.518</ele>
        <time>2017-09-27T16:42:03Z</time>
      </trkpt>
      <trkpt lat="40.285954" lon="0.321972">
        <ele>45.330</ele>
        <time>2017-09-27T16:42:02Z</time>
      </trkpt>
      <trkpt lat="40.285968" lon="0.322025">
        <ele>45.153</ele>
        <time>2017-09-27T16:42:01Z</time>
      </trkpt>
      <trkpt lat="40.285985" lon="0.322077">
        <ele>44.804</ele>
        <time>2017-09-27T16:42:00Z</time>
      </trkpt>
      <trkpt lat="40.286007" lon="0.322126">
        <ele>44.614</ele>
        <time>2017-09-27T16:41:59Z</time>
      </trkpt>
      <trkpt lat="40.286028" lon="0.322179">
        <ele>44.308</ele>
        <time>2017-09-27T16:41:58Z</time>
      </trkpt>
      <trkpt lat="40.286053" lon="0.322231">
        <ele>44.018</ele>
        <time>2017-09-27T16:41:57Z</time>
      </trkpt>
      <trkpt lat="40.286083" lon="0.322281">
        <ele>43.865</ele>
        <time>2017-09-27T16:41:56Z</time>
      </trkpt>
      <trkpt lat="40.286104" lon="0.322338">
        <ele>43.619</ele>
        <time>2017-09-27T16:41:55Z</time>
      </trkpt>
      <trkpt lat="40.286123" lon="0.322392">
        <ele>43.457</ele>
        <time>2017-09-27T16:41:54Z</time>
      </trkpt>
      <trkpt lat="40.286143" lon="0.322446">
        <ele>43.385</ele>
        <time>2017-09-27T16:41:53Z</time>
      </trkpt>
      <trkpt lat="40.286152" lon="0.322497">
        <ele>43.238</ele>
        <time>2017-09-27T16:41:52Z</time>
      </trkpt>
      <trkpt lat="40.286146" lon="0.322550">
        <ele>42.956</ele>
        <time>2017-09-27T16:41:51Z</time>
      </trkpt>
      <trkpt lat="40.286122" lon="0.322597">
        <ele>42.758</ele>
        <time>2017-09-27T16:41:50Z</time>
      </trkpt>
      <trkpt lat="40.286087" lon="0.322638">
        <ele>42.439</ele>
        <time>2017-09-27T16:41:49Z</time>
      </trkpt>
      <trkpt lat="40.286048" lon="0.322656">
        <ele>42.201</ele>
        <time>2017-09-27T16:41:48Z</time>
      </trkpt>
      <trkpt lat="40.286008" lon="0.322668">
        <ele>42.021</ele>
        <time>2017-09-27T16:41:47Z</time>
      </trkpt>
      <trkpt lat="40.285964" lon="0.322682">
        <ele>41.808</ele>
        <time>2017-09-27T16:41:46Z</time>
      </trkpt>
      <trkpt lat="40.285920" lon="0.322695">
        <ele>41.646</ele>
        <time>2017-09-27T16:41:45Z</time>
      </trkpt>
      <trkpt lat="40.285883" lon="0.322716">
        <ele>41.473</ele>
        <time>2017-09-27T16:41:44Z</time>
      </trkpt>
      <trkpt lat="40.285849" lon="0.322749">
        <ele>41.217</ele>
        <time>2017-09-27T16:41:43Z</time>
      </trkpt>
      <trkpt lat="40.285823" lon="0.322787">
        <ele>41.055</ele>
        <time>2017-09-27T16:41:42Z</time>
      </trkpt>
      <trkpt lat="40.285805" lon="0.322835">
        <ele>40.873</ele>
        <time>2017-09-27T16:41:41Z</time>
      </trkpt>
      <trkpt lat="40.285785" lon="0.322885">
        <ele>40.556</ele>
        <time>2017-09-27T16:41:40Z</time>
      </trkpt>
      <trkpt lat="40.285764" lon="0.322939">
        <ele>40.324</ele>
        <time>2017-09-27T16:41:39Z</time>
      </trkpt>
      <trkpt lat="40.285742" lon="0.322992">
        <ele>40.086</ele>
        <time>2017-09-27T16:41:38Z</time>
      </trkpt>
      <trkpt lat="40.285579" lon="0.323119">
        <ele>39.182</ele>
        <time>2017-09-27T16:41:34Z</time>
      </trkpt>
      <trkpt lat="40.285535" lon="0.323146">
        <ele>39.043</ele>
        <time>2017-09-27T16:41:33Z</time>
      </trkpt>
      <trkpt lat="40.285492" lon="0.323170">
        <ele>38.917</ele>
        <time>2017-09-27T16:41:32Z</time>
      </trkpt>
      <trkpt lat="40.285443" lon="0.323186">
        <ele>38.808</ele>
        <time>2017-09-27T16:41:31Z</time>
      </trkpt>
      <trkpt lat="40.285396" lon="0.323198">
        <ele>38.731</ele>
        <time>2017-09-27T16:41:30Z</time>
      </trkpt>
      <trkpt lat="40.285348" lon="0.323209">
        <ele>38.628</ele>
        <time>2017-09-27T16:41:29Z</time>
      </trkpt>
      <trkpt lat="40.285302" lon="0.323217">
        <ele>38.592</ele>
        <time>2017-09-27T16:41:28Z</time>
      </trkpt>
      <trkpt lat="40.285255" lon="0.323226">
        <ele>38.380</ele>
        <time>2017-09-27T16:41:27Z</time>
      </trkpt>
      <trkpt lat="40.285212" lon="0.323238">
        <ele>38.058</ele>
        <time>2017-09-27T16:41:26Z</time>
      </trkpt>
      <trkpt lat="40.285171" lon="0.323254">
        <ele>37.621</ele>
        <time>2017-09-27T16:41:25Z</time>
      </trkpt>
      <trkpt lat="40.285130" lon="0.323274">
        <ele>37.339</ele>
        <time>2017-09-27T16:41:24Z</time>
      </trkpt>
      <trkpt lat="40.285088" lon="0.323295">
        <ele>36.991</ele>
        <time>2017-09-27T16:41:23Z</time>
      </trkpt>
      <trkpt lat="40.285048" lon="0.323317">
        <ele>36.577</ele>
        <time>2017-09-27T16:41:22Z</time>
      </trkpt>
      <trkpt lat="40.285010" lon="0.323339">
        <ele>36.161</ele>
        <time>2017-09-27T16:41:21Z</time>
      </trkpt>
      <trkpt lat="40.284971" lon="0.323360">
        <ele>35.727</ele>
        <time>2017-09-27T16:41:20Z</time>
      </trkpt>
      <trkpt lat="40.284932" lon="0.323382">
        <ele>35.308</ele>
        <time>2017-09-27T16:41:19Z</time>
      </trkpt>
      <trkpt lat="40.284891" lon="0.323407">
        <ele>35.060</ele>
        <time>2017-09-27T16:41:18Z</time>
      </trkpt>
      <trkpt lat="40.284852" lon="0.323430">
        <ele>34.637</ele>
        <time>2017-09-27T16:41:17Z</time>
      </trkpt>
      <trkpt lat="40.284814" lon="0.323456">
        <ele>34.221</ele>
        <time>2017-09-27T16:41:16Z</time>
      </trkpt>
      <trkpt lat="40.284778" lon="0.323488">
        <ele>33.859</ele>
        <time>2017-09-27T16:41:15Z</time>
      </trkpt>
      <trkpt lat="40.284743" lon="0.323522">
        <ele>33.547</ele>
        <time>2017-09-27T16:41:14Z</time>
      </trkpt>
      <trkpt lat="40.284711" lon="0.323561">
        <ele>33.190</ele>
        <time>2017-09-27T16:41:13Z</time>
      </trkpt>
      <trkpt lat="40.284684" lon="0.323606">
        <ele>32.778</ele>
        <time>2017-09-27T16:41:12Z</time>
      </trkpt>
      <trkpt lat="40.284664" lon="0.323654">
        <ele>32.670</ele>
        <time>2017-09-27T16:41:11Z</time>
      </trkpt>
      <trkpt lat="40.284654" lon="0.323706">
        <ele>32.555</ele>
        <time>2017-09-27T16:41:10Z</time>
      </trkpt>
      <trkpt lat="40.284655" lon="0.323761">
        <ele>32.507</ele>
        <time>2017-09-27T16:41:09Z</time>
      </trkpt>
      <trkpt lat="40.284662" lon="0.323818">
        <ele>32.617</ele>
        <time>2017-09-27T16:41:08Z</time>
      </trkpt>
      <trkpt lat="40.284668" lon="0.323867">
        <ele>32.608</ele>
        <time>2017-09-27T16:41:07Z</time>
      </trkpt>
      <trkpt lat="40.284670" lon="0.323916">
        <ele>32.638</ele>
        <time>2017-09-27T16:41:06Z</time>
      </trkpt>
      <trkpt lat="40.284665" lon="0.323968">
        <ele>32.615</ele>
        <time>2017-09-27T16:41:05Z</time>
      </trkpt>
      <trkpt lat="40.284653" lon="0.324022">
        <ele>32.559</ele>
        <time>2017-09-27T16:41:04Z</time>
      </trkpt>
      <trkpt lat="40.284638" lon="0.324070">
        <ele>32.457</ele>
        <time>2017-09-27T16:41:03Z</time>
      </trkpt>
      <trkpt lat="40.284616" lon="0.324115">
        <ele>32.235</ele>
        <time>2017-09-27T16:41:02Z</time>
      </trkpt>
      <trkpt lat="40.284590" lon="0.324156">
        <ele>32.018</ele>
        <time>2017-09-27T16:41:01Z</time>
      </trkpt>
      <trkpt lat="40.284561" lon="0.324192">
        <ele>31.966</ele>
        <time>2017-09-27T16:41:00Z</time>
      </trkpt>
      <trkpt lat="40.284528" lon="0.324220">
        <ele>31.728</ele>
        <time>2017-09-27T16:40:59Z</time>
      </trkpt>
      <trkpt lat="40.284493" lon="0.324245">
        <ele>31.616</ele>
        <time>2017-09-27T16:40:58Z</time>
      </trkpt>
      <trkpt lat="40.284460" lon="0.324275">
        <ele>31.576</ele>
        <time>2017-09-27T16:40:57Z</time>
      </trkpt>
      <trkpt lat="40.284431" lon="0.324310">
        <ele>31.513</ele>
        <time>2017-09-27T16:40:56Z</time>
      </trkpt>
      <trkpt lat="40.284405" lon="0.324351">
        <ele>31.508</ele>
        <time>2017-09-27T16:40:55Z</time>
      </trkpt>
      <trkpt lat="40.284387" lon="0.324399">
        <ele>31.664</ele>
        <time>2017-09-27T16:40:54Z</time>
      </trkpt>
      <trkpt lat="40.284374" lon="0.324450">
        <ele>31.731</ele>
        <time>2017-09-27T16:40:53Z</time>
      </trkpt>
      <trkpt lat="40.284365" lon="0.324502">
        <ele>31.575</ele>
        <time>2017-09-27T16:40:52Z</time>
      </trkpt>
      <trkpt lat="40.284360" lon="0.324554">
        <ele>31.393</ele>
        <time>2017-09-27T16:40:51Z</time>
      </trkpt>
      <trkpt lat="40.284356" lon="0.324604">
        <ele>31.131</ele>
        <time>2017-09-27T16:40:50Z</time>
      </trkpt>
      <trkpt lat="40.284355" lon="0.324652">
        <ele>30.954</ele>
        <time>2017-09-27T16:40:49Z</time>
      </trkpt>
      <trkpt lat="40.284355" lon="0.324702">
        <ele>30.882</ele>
        <time>2017-09-27T16:40:48Z</time>
      </trkpt>
      <trkpt lat="40.284351" lon="0.324752">
        <ele>30.684</ele>
        <time>2017-09-27T16:40:47Z</time>
      </trkpt>
      <trkpt lat="40.284342" lon="0.324803">
        <ele>30.524</ele>
        <time>2017-09-27T16:40:46Z</time>
      </trkpt>
      <trkpt lat="40.284329" lon="0.324858">
        <ele>30.404</ele>
        <time>2017-09-27T16:40:45Z</time>
      </trkpt>
      <trkpt lat="40.284314" lon="0.324907">
        <ele>30.214</ele>
        <time>2017-09-27T16:40:44Z</time>
      </trkpt>
      <trkpt lat="40.284299" lon="0.324952">
        <ele>30.008</ele>
        <time>2017-09-27T16:40:43Z</time>
      </trkpt>
      <trkpt lat="40.284287" lon="0.324996">
        <ele>29.945</ele>
        <time>2017-09-27T16:40:42Z</time>
      </trkpt>
      <trkpt lat="40.284284" lon="0.325040">
        <ele>29.872</ele>
        <time>2017-09-27T16:40:41Z</time>
      </trkpt>
      <trkpt lat="40.284292" lon="0.325088">
        <ele>29.926</ele>
        <time>2017-09-27T16:40:40Z</time>
      </trkpt>
      <trkpt lat="40.284307" lon="0.325147">
        <ele>30.084</ele>
        <time>2017-09-27T16:40:39Z</time>
      </trkpt>
      <trkpt lat="40.284322" lon="0.325211">
        <ele>30.112</ele>
        <time>2017-09-27T16:40:38Z</time>
      </trkpt>
      <trkpt lat="40.284333" lon="0.325281">
        <ele>30.295</ele>
        <time>2017-09-27T16:40:37Z</time>
      </trkpt>
      <trkpt lat="40.284334" lon="0.325357">
        <ele>29.993</ele>
        <time>2017-09-27T16:40:36Z</time>
      </trkpt>
      <trkpt lat="40.284334" lon="0.325428">
        <ele>29.765</ele>
        <time>2017-09-27T16:40:35Z</time>
      </trkpt>
      <trkpt lat="40.284344" lon="0.325496">
        <ele>29.568</ele>
        <time>2017-09-27T16:40:34Z</time>
      </trkpt>
      <trkpt lat="40.284364" lon="0.325565">
        <ele>29.442</ele>
        <time>2017-09-27T16:40:33Z</time>
      </trkpt>
      <trkpt lat="40.284408" lon="0.325612">
        <ele>29.726</ele>
        <time>2017-09-27T16:40:32Z</time>
      </trkpt>
      <trkpt lat="40.284453" lon="0.325654">
        <ele>30.008</ele>
        <time>2017-09-27T16:40:31Z</time>
      </trkpt>
      <trkpt lat="40.284502" lon="0.325684">
        <ele>30.179</ele>
        <time>2017-09-27T16:40:30Z</time>
      </trkpt>
      <trkpt lat="40.284554" lon="0.325711">
        <ele>30.226</ele>
        <time>2017-09-27T16:40:29Z</time>
      </trkpt>
      <trkpt lat="40.284599" lon="0.325742">
        <ele>30.280</ele>
        <time>2017-09-27T16:40:28Z</time>
      </trkpt>
      <trkpt lat="40.284638" lon="0.325783">
        <ele>30.128</ele>
        <time>2017-09-27T16:40:27Z</time>
      </trkpt>
      <trkpt lat="40.284675" lon="0.325832">
        <ele>30.026</ele>
        <time>2017-09-27T16:40:26Z</time>
      </trkpt>
      <trkpt lat="40.284710" lon="0.325882">
        <ele>29.849</ele>
        <time>2017-09-27T16:40:25Z</time>
      </trkpt>
      <trkpt lat="40.284748" lon="0.325930">
        <ele>29.767</ele>
        <time>2017-09-27T16:40:24Z</time>
      </trkpt>
      <trkpt lat="40.284794" lon="0.325968">
        <ele>29.649</ele>
        <time>2017-09-27T16:40:23Z</time>
      </trkpt>
      <trkpt lat="40.284843" lon="0.325988">
        <ele>29.754</ele>
        <time>2017-09-27T16:40:22Z</time>
      </trkpt>
      <trkpt lat="40.284892" lon="0.326001">
        <ele>29.856</ele>
        <time>2017-09-27T16:40:21Z</time>
      </trkpt>
      <trkpt lat="40.284941" lon="0.326010">
        <ele>29.911</ele>
        <time>2017-09-27T16:40:20Z</time>
      </trkpt>
      <trkpt lat="40.284992" lon="0.326016">
        <ele>30.008</ele>
        <time>2017-09-27T16:40:19Z</time>
      </trkpt>
      <trkpt lat="40.285037" lon="0.326027">
        <ele>30.088</ele>
        <time>2017-09-27T16:40:18Z</time>
      </trkpt>
      <trkpt lat="40.285079" lon="0.326049">
        <ele>30.035</ele>
        <time>2017-09-27T16:40:17Z</time>
      </trkpt>
      <trkpt lat="40.285117" lon="0.326085">
        <ele>30.079</ele>
        <time>2017-09-27T16:40:16Z</time>
      </trkpt>
      <trkpt lat="40.285151" lon="0.326126">
        <ele>29.967</ele>
        <time>2017-09-27T16:40:15Z</time>
      </trkpt>
      <trkpt lat="40.285189" lon="0.326165">
        <ele>29.895</ele>
        <time>2017-09-27T16:40:14Z</time>
      </trkpt>
      <trkpt lat="40.285232" lon="0.326200">
        <ele>29.778</ele>
        <time>2017-09-27T16:40:13Z</time>
      </trkpt>
      <trkpt lat="40.285274" lon="0.326230">
        <ele>29.666</ele>
        <time>2017-09-27T16:40:12Z</time>
      </trkpt>
      <trkpt lat="40.285315" lon="0.326263">
        <ele>29.358</ele>
        <time>2017-09-27T16:40:11Z</time>
      </trkpt>
      <trkpt lat="40.285351" lon="0.326304">
        <ele>29.047</ele>
        <time>2017-09-27T16:40:10Z</time>
      </trkpt>
      <trkpt lat="40.285379" lon="0.326342">
        <ele>28.829</ele>
        <time>2017-09-27T16:40:09Z</time>
      </trkpt>
      <trkpt lat="40.285400" lon="0.326381">
        <ele>28.621</ele>
        <time>2017-09-27T16:40:08Z</time>
      </trkpt>
      <trkpt lat="40.285416" lon="0.326430">
        <ele>28.308</ele>
        <time>2017-09-27T16:40:07Z</time>
      </trkpt>
      <trkpt lat="40.285431" lon="0.326477">
        <ele>28.077</ele>
        <time>2017-09-27T16:40:06Z</time>
      </trkpt>
      <trkpt lat="40.285453" lon="0.326521">
        <ele>27.774</ele>
        <time>2017-09-27T16:40:05Z</time>
      </trkpt>
      <trkpt lat="40.285483" lon="0.326562">
        <ele>27.548</ele>
        <time>2017-09-27T16:40:04Z</time>
      </trkpt>
      <trkpt lat="40.285512" lon="0.326602">
        <ele>27.376</ele>
        <time>2017-09-27T16:40:03Z</time>
      </trkpt>
      <trkpt lat="40.285541" lon="0.326640">
        <ele>27.174</ele>
        <time>2017-09-27T16:40:02Z</time>
      </trkpt>
      <trkpt lat="40.285569" lon="0.326681">
        <ele>26.947</ele>
        <time>2017-09-27T16:40:01Z</time>
      </trkpt>
      <trkpt lat="40.285597" lon="0.326726">
        <ele>26.835</ele>
        <time>2017-09-27T16:40:00Z</time>
      </trkpt>
      <trkpt lat="40.285621" lon="0.326769">
        <ele>26.667</ele>
        <time>2017-09-27T16:39:59Z</time>
      </trkpt>
      <trkpt lat="40.285642" lon="0.326814">
        <ele>26.557</ele>
        <time>2017-09-27T16:39:58Z</time>
      </trkpt>
      <trkpt lat="40.285662" lon="0.326861">
        <ele>26.300</ele>
        <time>2017-09-27T16:39:57Z</time>
      </trkpt>
      <trkpt lat="40.285681" lon="0.326908">
        <ele>26.120</ele>
        <time>2017-09-27T16:39:56Z</time>
      </trkpt>
      <trkpt lat="40.285699" lon="0.326956">
        <ele>25.908</ele>
        <time>2017-09-27T16:39:55Z</time>
      </trkpt>
      <trkpt lat="40.285714" lon="0.327004">
        <ele>25.668</ele>
        <time>2017-09-27T16:39:54Z</time>
      </trkpt>
      <trkpt lat="40.285728" lon="0.327056">
        <ele>25.215</ele>
        <time>2017-09-27T16:39:53Z</time>
      </trkpt>
      <trkpt lat="40.285739" lon="0.327107">
        <ele>24.899</ele>
        <time>2017-09-27T16:39:52Z</time>
      </trkpt>
      <trkpt lat="40.285749" lon="0.327156">
        <ele>24.527</ele>
        <time>2017-09-27T16:39:51Z</time>
      </trkpt>
      <trkpt lat="40.285759" lon="0.327203">
        <ele>24.185</ele>
        <time>2017-09-27T16:39:50Z</time>
      </trkpt>
      <trkpt lat="40.285770" lon="0.327252">
        <ele>23.848</ele>
        <time>2017-09-27T16:39:49Z</time>
      </trkpt>
      <trkpt lat="40.285782" lon="0.327301">
        <ele>23.576</ele>
        <time>2017-09-27T16:39:48Z</time>
      </trkpt>
      <trkpt lat="40.285797" lon="0.327351">
        <ele>23.198</ele>
        <time>2017-09-27T16:39:47Z</time>
      </trkpt>
      <trkpt lat="40.285815" lon="0.327397">
        <ele>22.813</ele>
        <time>2017-09-27T16:39:46Z</time>
      </trkpt>
      <trkpt lat="40.285835" lon="0.327446">
        <ele>22.443</ele>
        <time>2017-09-27T16:39:45Z</time>
      </trkpt>
      <trkpt lat="40.285852" lon="0.327490">
        <ele>22.107</ele>
        <time>2017-09-27T16:39:44Z</time>
      </trkpt>
      <trkpt lat="40.285864" lon="0.327532">
        <ele>21.908</ele>
        <time>2017-09-27T16:39:43Z</time>
      </trkpt>
      <trkpt lat="40.285868" lon="0.327580">
        <ele>21.764</ele>
        <time>2017-09-27T16:39:42Z</time>
      </trkpt>
      <trkpt lat="40.285868" lon="0.327628">
        <ele>21.551</ele>
        <time>2017-09-27T16:39:41Z</time>
      </trkpt>
      <trkpt lat="40.285868" lon="0.327679">
        <ele>21.325</ele>
        <time>2017-09-27T16:39:40Z</time>
      </trkpt>
      <trkpt lat="40.285866" lon="0.327732">
        <ele>21.113</ele>
        <time>2017-09-27T16:39:39Z</time>
      </trkpt>
      <trkpt lat="40.285862" lon="0.327789">
        <ele>20.981</ele>
        <time>2017-09-27T16:39:38Z</time>
      </trkpt>
      <trkpt lat="40.285860" lon="0.327843">
        <ele>20.784</ele>
        <time>2017-09-27T16:39:37Z</time>
      </trkpt>
      <trkpt lat="40.285860" lon="0.327897">
        <ele>20.562</ele>
        <time>2017-09-27T16:39:36Z</time>
      </trkpt>
      <trkpt lat="40.285858" lon="0.327953">
        <ele>20.384</ele>
        <time>2017-09-27T16:39:35Z</time>
      </trkpt>
      <trkpt lat="40.285856" lon="0.328012">
        <ele>20.165</ele>
        <time>2017-09-27T16:39:34Z</time>
      </trkpt>
      <trkpt lat="40.285855" lon="0.328068">
        <ele>19.968</ele>
        <time>2017-09-27T16:39:33Z</time>
      </trkpt>
      <trkpt lat="40.285856" lon="0.328128">
        <ele>19.714</ele>
        <time>2017-09-27T16:39:32Z</time>
      </trkpt>
      <trkpt lat="40.285861" lon="0.328184">
        <ele>19.508</ele>
        <time>2017-09-27T16:39:31Z</time>
      </trkpt>
      <trkpt lat="40.285875" lon="0.328242">
        <ele>19.369</ele>
        <time>2017-09-27T16:39:30Z</time>
      </trkpt>
      <trkpt lat="40.285898" lon="0.328299">
        <ele>19.186</ele>
        <time>2017-09-27T16:39:29Z</time>
      </trkpt>
      <trkpt lat="40.285932" lon="0.328354">
        <ele>19.030</ele>
        <time>2017-09-27T16:39:28Z</time>
      </trkpt>
      <trkpt lat="40.285968" lon="0.328401">
        <ele>19.058</ele>
        <time>2017-09-27T16:39:27Z</time>
      </trkpt>
      <trkpt lat="40.286003" lon="0.328448">
        <ele>19.026</ele>
        <time>2017-09-27T16:39:26Z</time>
      </trkpt>
      <trkpt lat="40.286035" lon="0.328497">
        <ele>19.099</ele>
        <time>2017-09-27T16:39:25Z</time>
      </trkpt>
      <trkpt lat="40.286062" lon="0.328543">
        <ele>19.047</ele>
        <time>2017-09-27T16:39:24Z</time>
      </trkpt>
      <trkpt lat="40.286087" lon="0.328592">
        <ele>19.049</ele>
        <time>2017-09-27T16:39:23Z</time>
      </trkpt>
      <trkpt lat="40.286109" lon="0.328652">
        <ele>18.758</ele>
        <time>2017-09-27T16:39:22Z</time>
      </trkpt>
      <trkpt lat="40.286125" lon="0.328712">
        <ele>18.252</ele>
        <time>2017-09-27T16:39:21Z</time>
      </trkpt>
      <trkpt lat="40.286135" lon="0.328773">
        <ele>17.817</ele>
        <time>2017-09-27T16:39:20Z</time>
      </trkpt>
      <trkpt lat="40.286140" lon="0.328832">
        <ele>17.408</ele>
        <time>2017-09-27T16:39:19Z</time>
      </trkpt>
      <trkpt lat="40.286142" lon="0.328892">
        <ele>17.018</ele>
        <time>2017-09-27T16:39:18Z</time>
      </trkpt>
      <trkpt lat="40.286145" lon="0.328950">
        <ele>16.665</ele>
        <time>2017-09-27T16:39:17Z</time>
      </trkpt>
      <trkpt lat="40.286147" lon="0.329016">
        <ele>16.179</ele>
        <time>2017-09-27T16:39:16Z</time>
      </trkpt>
      <trkpt lat="40.286165" lon="0.329073">
        <ele>15.867</ele>
        <time>2017-09-27T16:39:15Z</time>
      </trkpt>
      <trkpt lat="40.286188" lon="0.329129">
        <ele>15.545</ele>
        <time>2017-09-27T16:39:14Z</time>
      </trkpt>
      <trkpt lat="40.286218" lon="0.329175">
        <ele>15.318</ele>
        <time>2017-09-27T16:39:13Z</time>
      </trkpt>
      <trkpt lat="40.286253" lon="0.329220">
        <ele>15.256</ele>
        <time>2017-09-27T16:39:12Z</time>
      </trkpt>
      <trkpt lat="40.286287" lon="0.329263">
        <ele>15.188</ele>
        <time>2017-09-27T16:39:11Z</time>
      </trkpt>
      <trkpt lat="40.286319" lon="0.329311">
        <ele>14.884</ele>
        <time>2017-09-27T16:39:10Z</time>
      </trkpt>
      <trkpt lat="40.286347" lon="0.329366">
        <ele>14.507</ele>
        <time>2017-09-27T16:39:09Z</time>
      </trkpt>
      <trkpt lat="40.286366" lon="0.329428">
        <ele>14.117</ele>
        <time>2017-09-27T16:39:08Z</time>
      </trkpt>
      <trkpt lat="40.286380" lon="0.329488">
        <ele>14.008</ele>
        <time>2017-09-27T16:39:07Z</time>
      </trkpt>
      <trkpt lat="40.286388" lon="0.329547">
        <ele>14.051</ele>
        <time>2017-09-27T16:39:06Z</time>
      </trkpt>
      <trkpt lat="40.286397" lon="0.329616">
        <ele>14.028</ele>
        <time>2017-09-27T16:39:05Z</time>
      </trkpt>
      <trkpt lat="40.286415" lon="0.329674">
        <ele>14.042</ele>
        <time>2017-09-27T16:39:04Z</time>
      </trkpt>
      <trkpt lat="40.286434" lon="0.329735">
        <ele>14.010</ele>
        <time>2017-09-27T16:39:03Z</time>
      </trkpt>
      <trkpt lat="40.286457" lon="0.329801">
        <ele>13.828</ele>
        <time>2017-09-27T16:39:02Z</time>
      </trkpt>
      <trkpt lat="40.286475" lon="0.329863">
        <ele>13.691</ele>
        <time>2017-09-27T16:39:01Z</time>
      </trkpt>
      <trkpt lat="40.286495" lon="0.329926">
        <ele>13.519</ele>
        <time>2017-09-27T16:39:00Z</time>
      </trkpt>
      <trkpt lat="40.286514" lon="0.329991">
        <ele>13.581</ele>
        <time>2017-09-27T16:38:59Z</time>
      </trkpt>
      <trkpt lat="40.286535" lon="0.330060">
        <ele>13.367</ele>
        <time>2017-09-27T16:38:58Z</time>
      </trkpt>
      <trkpt lat="40.286555" lon="0.330125">
        <ele>13.181</ele>
        <time>2017-09-27T16:38:57Z</time>
      </trkpt>
      <trkpt lat="40.286576" lon="0.330188">
        <ele>13.019</ele>
        <time>2017-09-27T16:38:56Z</time>
      </trkpt>
      <trkpt lat="40.286598" lon="0.330251">
        <ele>12.808</ele>
        <time>2017-09-27T16:38:55Z</time>
      </trkpt>
      <trkpt lat="40.286619" lon="0.330308">
        <ele>12.749</ele>
        <time>2017-09-27T16:38:54Z</time>
      </trkpt>
      <trkpt lat="40.286640" lon="0.330364">
        <ele>12.666</ele>
        <time>2017-09-27T16:38:53Z</time>
      </trkpt>
      <trkpt lat="40.286660" lon="0.330424">
        <ele>12.430</ele>
        <time>2017-09-27T16:38:52Z</time>
      </trkpt>
      <trkpt lat="40.286694" lon="0.330465">
        <ele>12.148</ele>
        <time>2017-09-27T16:38:51Z</time>
      </trkpt>
      <trkpt lat="40.286729" lon="0.330506">
        <ele>11.756</ele>
        <time>2017-09-27T16:38:50Z</time>
      </trkpt>
      <trkpt lat="40.286768" lon="0.330550">
        <ele>11.319</ele>
        <time>2017-09-27T16:38:49Z</time>
      </trkpt>
      <trkpt lat="40.286804" lon="0.330588">
        <ele>11.067</ele>
        <time>2017-09-27T16:38:48Z</time>
      </trkpt>
      <trkpt lat="40.286838" lon="0.330632">
        <ele>10.719</ele>
        <time>2017-09-27T16:38:47Z</time>
      </trkpt>
      <trkpt lat="40.286868" lon="0.330689">
        <ele>10.467</ele>
        <time>2017-09-27T16:38:46Z</time>
      </trkpt>
      <trkpt lat="40.286881" lon="0.330743">
        <ele>10.381</ele>
        <time>2017-09-27T16:38:45Z</time>
      </trkpt>
      <trkpt lat="40.286895" lon="0.330800">
        <ele>10.219</ele>
        <time>2017-09-27T16:38:44Z</time>
      </trkpt>
      <trkpt lat="40.286911" lon="0.330856">
        <ele>10.008</ele>
        <time>2017-09-27T16:38:43Z</time>
      </trkpt>
      <trkpt lat="40.286934" lon="0.330911">
        <ele>9.899</ele>
        <time>2017-09-27T16:38:42Z</time>
      </trkpt>
      <trkpt lat="40.286964" lon="0.330955">
        <ele>9.586</ele>
        <time>2017-09-27T16:38:41Z</time>
      </trkpt>
      <trkpt lat="40.287000" lon="0.330999">
        <ele>9.240</ele>
        <time>2017-09-27T16:38:40Z</time>
      </trkpt>
      <trkpt lat="40.287031" lon="0.331044">
        <ele>8.928</ele>
        <time>2017-09-27T16:38:39Z</time>
      </trkpt>
      <trkpt lat="40.287059" lon="0.331087">
        <ele>8.776</ele>
        <time>2017-09-27T16:38:38Z</time>
      </trkpt>
      <trkpt lat="40.287089" lon="0.331132">
        <ele>8.439</ele>
        <time>2017-09-27T16:38:37Z</time>
      </trkpt>
      <trkpt lat="40.287119" lon="0.331186">
        <ele>8.357</ele>
        <time>2017-09-27T16:38:36Z</time>
      </trkpt>
      <trkpt lat="40.287172" lon="0.331273">
        <ele>8.179</ele>
        <time>2017-09-27T16:38:35Z</time>
      </trkpt>
      <trkpt lat="40.287203" lon="0.331322">
        <ele>8.081</ele>
        <time>2017-09-27T16:38:34Z</time>
      </trkpt>
      <trkpt lat="40.287236" lon="0.331367">
        <ele>8.061</ele>
        <time>2017-09-27T16:38:33Z</time>
      </trkpt>
      <trkpt lat="40.287268" lon="0.331414">
        <ele>8.017</ele>
        <time>2017-09-27T16:38:32Z</time>
      </trkpt>
      <trkpt lat="40.287298" lon="0.331463">
        <ele>8.008</ele>
        <time>2017-09-27T16:38:31Z</time>
      </trkpt>
      <trkpt lat="40.287322" lon="0.331518">
        <ele>8.031</ele>
        <time>2017-09-27T16:38:30Z</time>
      </trkpt>
      <trkpt lat="40.287338" lon="0.331578">
        <ele>8.038</ele>
        <time>2017-09-27T16:38:29Z</time>
      </trkpt>
      <trkpt lat="40.287350" lon="0.331637">
        <ele>8.042</ele>
        <time>2017-09-27T16:38:28Z</time>
      </trkpt>
      <trkpt lat="40.287356" lon="0.331700">
        <ele>7.970</ele>
        <time>2017-09-27T16:38:27Z</time>
      </trkpt>
      <trkpt lat="40.287357" lon="0.331763">
        <ele>7.898</ele>
        <time>2017-09-27T16:38:26Z</time>
      </trkpt>
      <trkpt lat="40.287356" lon="0.331825">
        <ele>7.761</ele>
        <time>2017-09-27T16:38:25Z</time>
      </trkpt>
      <trkpt lat="40.287356" lon="0.331888">
        <ele>7.689</ele>
        <time>2017-09-27T16:38:24Z</time>
      </trkpt>
      <trkpt lat="40.287354" lon="0.331949">
        <ele>7.531</ele>
        <time>2017-09-27T16:38:23Z</time>
      </trkpt>
      <trkpt lat="40.287354" lon="0.332010">
        <ele>7.433</ele>
        <time>2017-09-27T16:38:22Z</time>
      </trkpt>
      <trkpt lat="40.287356" lon="0.332072">
        <ele>7.323</ele>
        <time>2017-09-27T16:38:21Z</time>
      </trkpt>
      <trkpt lat="40.287365" lon="0.332135">
        <ele>7.215</ele>
        <time>2017-09-27T16:38:20Z</time>
      </trkpt>
      <trkpt lat="40.287380" lon="0.332199">
        <ele>7.008</ele>
        <time>2017-09-27T16:38:19Z</time>
      </trkpt>
      <trkpt lat="40.287404" lon="0.332258">
        <ele>7.056</ele>
        <time>2017-09-27T16:38:18Z</time>
      </trkpt>
      <trkpt lat="40.287434" lon="0.332308">
        <ele>6.943</ele>
        <time>2017-09-27T16:38:17Z</time>
      </trkpt>
      <trkpt lat="40.287466" lon="0.332358">
        <ele>6.967</ele>
        <time>2017-09-27T16:38:16Z</time>
      </trkpt>
      <trkpt lat="40.287496" lon="0.332407">
        <ele>7.045</ele>
        <time>2017-09-27T16:38:15Z</time>
      </trkpt>
      <trkpt lat="40.287527" lon="0.332455">
        <ele>6.913</ele>
        <time>2017-09-27T16:38:14Z</time>
      </trkpt>
      <trkpt lat="40.287557" lon="0.332505">
        <ele>6.846</ele>
        <time>2017-09-27T16:38:13Z</time>
      </trkpt>
      <trkpt lat="40.287582" lon="0.332558">
        <ele>6.554</ele>
        <time>2017-09-27T16:38:12Z</time>
      </trkpt>
      <trkpt lat="40.287602" lon="0.332618">
        <ele>6.236</ele>
        <time>2017-09-27T16:38:11Z</time>
      </trkpt>
      <trkpt lat="40.287616" lon="0.332682">
        <ele>5.942</ele>
        <time>2017-09-27T16:38:10Z</time>
      </trkpt>
      <trkpt lat="40.287626" lon="0.332746">
        <ele>5.722</ele>
        <time>2017-09-27T16:38:09Z</time>
      </trkpt>
      <trkpt lat="40.287645" lon="0.332813">
        <ele>5.314</ele>
        <time>2017-09-27T16:38:08Z</time>
      </trkpt>
      <trkpt lat="40.287673" lon="0.332881">
        <ele>4.908</ele>
        <time>2017-09-27T16:38:07Z</time>
      </trkpt>
      <trkpt lat="40.287712" lon="0.332943">
        <ele>4.527</ele>
        <time>2017-09-27T16:38:06Z</time>
      </trkpt>
      <trkpt lat="40.287759" lon="0.333000">
        <ele>4.244</ele>
        <time>2017-09-27T16:38:05Z</time>
      </trkpt>
      <trkpt lat="40.287811" lon="0.333056">
        <ele>4.098</ele>
        <time>2017-09-27T16:38:04Z</time>
      </trkpt>
      <trkpt lat="40.287867" lon="0.333106">
        <ele>3.616</ele>
        <time>2017-09-27T16:38:03Z</time>
      </trkpt>
      <trkpt lat="40.287928" lon="0.333149">
        <ele>3.164</ele>
        <time>2017-09-27T16:38:02Z</time>
      </trkpt>
      <trkpt lat="40.287990" lon="0.333189">
        <ele>2.757</ele>
        <time>2017-09-27T16:38:01Z</time>
      </trkpt>
      <trkpt lat="40.288053" lon="0.333224">
        <ele>2.265</ele>
        <time>2017-09-27T16:38:00Z</time>
      </trkpt>
      <trkpt lat="40.288121" lon="0.333252">
        <ele>2.037</ele>
        <time>2017-09-27T16:37:59Z</time>
      </trkpt>
      <trkpt lat="40.288192" lon="0.333264">
        <ele>2.153</ele>
        <time>2017-09-27T16:37:58Z</time>
      </trkpt>
      <trkpt lat="40.288265" lon="0.333266">
        <ele>2.304</ele>
        <time>2017-09-27T16:37:57Z</time>
      </trkpt>
      <trkpt lat="40.288336" lon="0.333258">
        <ele>2.514</ele>
        <time>2017-09-27T16:37:56Z</time>
      </trkpt>
      <trkpt lat="40.288406" lon="0.333240">
        <ele>2.408</ele>
        <time>2017-09-27T16:37:55Z</time>
      </trkpt>
      <trkpt lat="40.288475" lon="0.333221">
        <ele>2.318</ele>
        <time>2017-09-27T16:37:54Z</time>
      </trkpt>
      <trkpt lat="40.288545" lon="0.333215">
        <ele>2.115</ele>
        <time>2017-09-27T16:37:53Z</time>
      </trkpt>
      <trkpt lat="40.288613" lon="0.333224">
        <ele>1.839</ele>
        <time>2017-09-27T16:37:52Z</time>
      </trkpt>
      <trkpt lat="40.288679" lon="0.333232">
        <ele>1.517</ele>
        <time>2017-09-27T16:37:51Z</time>
      </trkpt>
      <trkpt lat="40.288746" lon="0.333243">
        <ele>1.285</ele>
        <time>2017-09-27T16:37:50Z</time>
      </trkpt>
      <trkpt lat="40.288814" lon="0.333256">
        <ele>0.878</ele>
        <time>2017-09-27T16:37:49Z</time>
      </trkpt>
      <trkpt lat="40.288883" lon="0.333271">
        <ele>0.536</ele>
        <time>2017-09-27T16:37:48Z</time>
      </trkpt>
      <trkpt lat="40.288951" lon="0.333290">
        <ele>0.548</ele>
        <time>2017-09-27T16:37:47Z</time>
      </trkpt>
      <trkpt lat="40.289018" lon="0.333316">
        <ele>0.597</ele>
        <time>2017-09-27T16:37:46Z</time>
      </trkpt>
      <trkpt lat="40.289088" lon="0.333341">
        <ele>0.723</ele>
        <time>2017-09-27T16:37:45Z</time>
      </trkpt>
      <trkpt lat="40.289159" lon="0.333362">
        <ele>1.025</ele>
        <time>2017-09-27T16:37:44Z</time>
      </trkpt>
      <trkpt lat="40.289231" lon="0.333384">
        <ele>1.508</ele>
        <time>2017-09-27T16:37:43Z</time>
      </trkpt>
      <trkpt lat="40.289301" lon="0.333409">
        <ele>2.082</ele>
        <time>2017-09-27T16:37:42Z</time>
      </trkpt>
      <trkpt lat="40.289372" lon="0.333431">
        <ele>2.529</ele>
        <time>2017-09-27T16:37:41Z</time>
      </trkpt>
      <trkpt lat="40.289442" lon="0.333461">
        <ele>3.023</ele>
        <time>2017-09-27T16:37:40Z</time>
      </trkpt>
      <trkpt lat="40.289511" lon="0.333498">
        <ele>3.211</ele>
        <time>2017-09-27T16:37:39Z</time>
      </trkpt>
      <trkpt lat="40.289579" lon="0.333538">
        <ele>3.339</ele>
        <time>2017-09-27T16:37:38Z</time>
      </trkpt>
      <trkpt lat="40.289645" lon="0.333577">
        <ele>3.272</ele>
        <time>2017-09-27T16:37:37Z</time>
      </trkpt>
      <trkpt lat="40.289741" lon="0.333635">
        <ele>3.170</ele>
        <time>2017-09-27T16:37:35Z</time>
      </trkpt>
      <trkpt lat="40.289850" lon="0.333705">
        <ele>3.372</ele>
        <time>2017-09-27T16:37:33Z</time>
      </trkpt>
      <trkpt lat="40.289907" lon="0.333742">
        <ele>3.459</ele>
        <time>2017-09-27T16:37:32Z</time>
      </trkpt>
      <trkpt lat="40.289973" lon="0.333787">
        <ele>3.303</ele>
        <time>2017-09-27T16:37:31Z</time>
      </trkpt>
      <trkpt lat="40.290032" lon="0.333836">
        <ele>3.323</ele>
        <time>2017-09-27T16:37:30Z</time>
      </trkpt>
      <trkpt lat="40.290088" lon="0.333878">
        <ele>3.308</ele>
        <time>2017-09-27T16:37:29Z</time>
      </trkpt>
      <trkpt lat="40.290154" lon="0.333928">
        <ele>3.448</ele>
        <time>2017-09-27T16:37:28Z</time>
      </trkpt>
      <trkpt lat="40.290215" lon="0.333976">
        <ele>3.555</ele>
        <time>2017-09-27T16:37:27Z</time>
      </trkpt>
      <trkpt lat="40.290274" lon="0.334017">
        <ele>3.519</ele>
        <time>2017-09-27T16:37:26Z</time>
      </trkpt>
      <trkpt lat="40.290344" lon="0.334065">
        <ele>3.817</ele>
        <time>2017-09-27T16:37:25Z</time>
      </trkpt>
      <trkpt lat="40.290410" lon="0.334111">
        <ele>4.125</ele>
        <time>2017-09-27T16:37:24Z</time>
      </trkpt>
      <trkpt lat="40.290472" lon="0.334151">
        <ele>4.428</ele>
        <time>2017-09-27T16:37:23Z</time>
      </trkpt>
      <trkpt lat="40.290543" lon="0.334199">
        <ele>4.736</ele>
        <time>2017-09-27T16:37:22Z</time>
      </trkpt>
      <trkpt lat="40.290611" lon="0.334241">
        <ele>4.378</ele>
        <time>2017-09-27T16:37:21Z</time>
      </trkpt>
      <trkpt lat="40.290669" lon="0.334279">
        <ele>3.891</ele>
        <time>2017-09-27T16:37:20Z</time>
      </trkpt>
      <trkpt lat="40.290737" lon="0.334324">
        <ele>3.281</ele>
        <time>2017-09-27T16:37:19Z</time>
      </trkpt>
      <trkpt lat="40.290798" lon="0.334362">
        <ele>2.719</ele>
        <time>2017-09-27T16:37:18Z</time>
      </trkpt>
      <trkpt lat="40.290853" lon="0.334399">
        <ele>2.408</ele>
        <time>2017-09-27T16:37:17Z</time>
      </trkpt>
      <trkpt lat="40.290916" lon="0.334444">
        <ele>2.342</ele>
        <time>2017-09-27T16:37:16Z</time>
      </trkpt>
      <trkpt lat="40.290973" lon="0.334487">
        <ele>2.259</ele>
        <time>2017-09-27T16:37:15Z</time>
      </trkpt>
      <trkpt lat="40.291026" lon="0.334524">
        <ele>2.013</ele>
        <time>2017-09-27T16:37:14Z</time>
      </trkpt>
      <trkpt lat="40.291090" lon="0.334565">
        <ele>1.741</ele>
        <time>2017-09-27T16:37:13Z</time>
      </trkpt>
      <trkpt lat="40.291146" lon="0.334604">
        <ele>1.569</ele>
        <time>2017-09-27T16:37:12Z</time>
      </trkpt>
      <trkpt lat="40.291199" lon="0.334638">
        <ele>1.582</ele>
        <time>2017-09-27T16:37:11Z</time>
      </trkpt>
      <trkpt lat="40.291263" lon="0.334675">
        <ele>1.660</ele>
        <time>2017-09-27T16:37:10Z</time>
      </trkpt>
      <trkpt lat="40.291319" lon="0.334713">
        <ele>1.642</ele>
        <time>2017-09-27T16:37:09Z</time>
      </trkpt>
      <trkpt lat="40.291376" lon="0.334747">
        <ele>1.737</ele>
        <time>2017-09-27T16:37:08Z</time>
      </trkpt>
      <trkpt lat="40.291433" lon="0.334788">
        <ele>1.349</ele>
        <time>2017-09-27T16:37:07Z</time>
      </trkpt>
      <trkpt lat="40.291496" lon="0.334826">
        <ele>1.013</ele>
        <time>2017-09-27T16:37:06Z</time>
      </trkpt>
      <trkpt lat="40.291557" lon="0.334865">
        <ele>0.808</ele>
        <time>2017-09-27T16:37:05Z</time>
      </trkpt>
      <trkpt lat="40.291617" lon="0.334909">
        <ele>0.596</ele>
        <time>2017-09-27T16:37:04Z</time>
      </trkpt>
      <trkpt lat="40.291679" lon="0.334947">
        <ele>0.613</ele>
        <time>2017-09-27T16:37:03Z</time>
      </trkpt>
      <trkpt lat="40.291736" lon="0.334986">
        <ele>1.157</ele>
        <time>2017-09-27T16:37:02Z</time>
      </trkpt>
      <trkpt lat="40.291804" lon="0.335028">
        <ele>1.995</ele>
        <time>2017-09-27T16:37:01Z</time>
      </trkpt>
      <trkpt lat="40.291865" lon="0.335065">
        <ele>2.523</ele>
        <time>2017-09-27T16:37:00Z</time>
      </trkpt>
      <trkpt lat="40.291927" lon="0.335109">
        <ele>3.066</ele>
        <time>2017-09-27T16:36:59Z</time>
      </trkpt>
      <trkpt lat="40.291991" lon="0.335153">
        <ele>3.534</ele>
        <time>2017-09-27T16:36:58Z</time>
      </trkpt>
      <trkpt lat="40.292052" lon="0.335210">
        <ele>3.916</ele>
        <time>2017-09-27T16:36:57Z</time>
      </trkpt>
      <trkpt lat="40.292106" lon="0.335279">
        <ele>4.382</ele>
        <time>2017-09-27T16:36:56Z</time>
      </trkpt>
      <trkpt lat="40.292149" lon="0.335354">
        <ele>4.543</ele>
        <time>2017-09-27T16:36:55Z</time>
      </trkpt>
      <trkpt lat="40.292195" lon="0.335426">
        <ele>4.617</ele>
        <time>2017-09-27T16:36:54Z</time>
      </trkpt>
      <trkpt lat="40.292241" lon="0.335495">
        <ele>4.608</ele>
        <time>2017-09-27T16:36:53Z</time>
      </trkpt>
      <trkpt lat="40.292285" lon="0.335564">
        <ele>4.641</ele>
        <time>2017-09-27T16:36:52Z</time>
      </trkpt>
      <trkpt lat="40.292337" lon="0.335625">
        <ele>4.778</ele>
        <time>2017-09-27T16:36:51Z</time>
      </trkpt>
      <trkpt lat="40.292388" lon="0.335689">
        <ele>4.842</ele>
        <time>2017-09-27T16:36:50Z</time>
      </trkpt>
      <trkpt lat="40.292437" lon="0.335755">
        <ele>4.910</ele>
        <time>2017-09-27T16:36:49Z</time>
      </trkpt>
      <trkpt lat="40.292492" lon="0.335815">
        <ele>5.078</ele>
        <time>2017-09-27T16:36:48Z</time>
      </trkpt>
      <trkpt lat="40.292542" lon="0.335886">
        <ele>5.271</ele>
        <time>2017-09-27T16:36:47Z</time>
      </trkpt>
      <trkpt lat="40.292594" lon="0.335952">
        <ele>5.599</ele>
        <time>2017-09-27T16:36:46Z</time>
      </trkpt>
      <trkpt lat="40.292645" lon="0.336013">
        <ele>5.891</ele>
        <time>2017-09-27T16:36:45Z</time>
      </trkpt>
      <trkpt lat="40.292700" lon="0.336066">
        <ele>6.227</ele>
        <time>2017-09-27T16:36:44Z</time>
      </trkpt>
      <trkpt lat="40.292753" lon="0.336120">
        <ele>6.668</ele>
        <time>2017-09-27T16:36:43Z</time>
      </trkpt>
      <trkpt lat="40.292801" lon="0.336182">
        <ele>6.614</ele>
        <time>2017-09-27T16:36:42Z</time>
      </trkpt>
      <trkpt lat="40.292849" lon="0.336239">
        <ele>6.508</ele>
        <time>2017-09-27T16:36:41Z</time>
      </trkpt>
      <trkpt lat="40.292892" lon="0.336304">
        <ele>6.185</ele>
        <time>2017-09-27T16:36:40Z</time>
      </trkpt>
      <trkpt lat="40.292937" lon="0.336367">
        <ele>5.842</ele>
        <time>2017-09-27T16:36:39Z</time>
      </trkpt>
      <trkpt lat="40.292983" lon="0.336425">
        <ele>5.516</ele>
        <time>2017-09-27T16:36:38Z</time>
      </trkpt>
      <trkpt lat="40.293033" lon="0.336483">
        <ele>5.374</ele>
        <time>2017-09-27T16:36:37Z</time>
      </trkpt>
      <trkpt lat="40.293120" lon="0.336576">
        <ele>5.362</ele>
        <time>2017-09-27T16:36:36Z</time>
      </trkpt>
      <trkpt lat="40.293163" lon="0.336623">
        <ele>5.485</ele>
        <time>2017-09-27T16:36:35Z</time>
      </trkpt>
      <trkpt lat="40.293206" lon="0.336670">
        <ele>5.623</ele>
        <time>2017-09-27T16:36:34Z</time>
      </trkpt>
      <trkpt lat="40.293386" lon="0.336919">
        <ele>5.875</ele>
        <time>2017-09-27T16:36:30Z</time>
      </trkpt>
      <trkpt lat="40.293433" lon="0.336982">
        <ele>5.877</ele>
        <time>2017-09-27T16:36:29Z</time>
      </trkpt>
      <trkpt lat="40.293479" lon="0.337043">
        <ele>5.861</ele>
        <time>2017-09-27T16:36:28Z</time>
      </trkpt>
      <trkpt lat="40.293517" lon="0.337112">
        <ele>5.627</ele>
        <time>2017-09-27T16:36:27Z</time>
      </trkpt>
      <trkpt lat="40.293550" lon="0.337181">
        <ele>5.208</ele>
        <time>2017-09-27T16:36:26Z</time>
      </trkpt>
      <trkpt lat="40.293583" lon="0.337248">
        <ele>4.870</ele>
        <time>2017-09-27T16:36:25Z</time>
      </trkpt>
      <trkpt lat="40.293617" lon="0.337316">
        <ele>4.787</ele>
        <time>2017-09-27T16:36:24Z</time>
      </trkpt>
      <trkpt lat="40.293648" lon="0.337381">
        <ele>4.861</ele>
        <time>2017-09-27T16:36:23Z</time>
      </trkpt>
      <trkpt lat="40.293677" lon="0.337451">
        <ele>4.739</ele>
        <time>2017-09-27T16:36:22Z</time>
      </trkpt>
      <trkpt lat="40.293712" lon="0.337517">
        <ele>4.657</ele>
        <time>2017-09-27T16:36:21Z</time>
      </trkpt>
      <trkpt lat="40.293746" lon="0.337586">
        <ele>4.450</ele>
        <time>2017-09-27T16:36:20Z</time>
      </trkpt>
      <trkpt lat="40.293781" lon="0.337654">
        <ele>4.188</ele>
        <time>2017-09-27T16:36:19Z</time>
      </trkpt>
      <trkpt lat="40.293813" lon="0.337723">
        <ele>3.830</ele>
        <time>2017-09-27T16:36:18Z</time>
      </trkpt>
      <trkpt lat="40.293852" lon="0.337788">
        <ele>3.798</ele>
        <time>2017-09-27T16:36:17Z</time>
      </trkpt>
      <trkpt lat="40.293888" lon="0.337853">
        <ele>4.015</ele>
        <time>2017-09-27T16:36:16Z</time>
      </trkpt>
      <trkpt lat="40.293930" lon="0.337914">
        <ele>4.226</ele>
        <time>2017-09-27T16:36:15Z</time>
      </trkpt>
      <trkpt lat="40.293970" lon="0.337973">
        <ele>4.408</ele>
        <time>2017-09-27T16:36:14Z</time>
      </trkpt>
      <trkpt lat="40.294014" lon="0.338032">
        <ele>4.512</ele>
        <time>2017-09-27T16:36:13Z</time>
      </trkpt>
      <trkpt lat="40.294058" lon="0.338097">
        <ele>4.519</ele>
        <time>2017-09-27T16:36:12Z</time>
      </trkpt>
      <trkpt lat="40.294095" lon="0.338174">
        <ele>4.363</ele>
        <time>2017-09-27T16:36:11Z</time>
      </trkpt>
      <trkpt lat="40.294125" lon="0.338260">
        <ele>4.171</ele>
        <time>2017-09-27T16:36:10Z</time>
      </trkpt>
      <trkpt lat="40.294140" lon="0.338355">
        <ele>3.839</ele>
        <time>2017-09-27T16:36:09Z</time>
      </trkpt>
      <trkpt lat="40.294158" lon="0.338474">
        <ele>3.562</ele>
        <time>2017-09-27T16:36:08Z</time>
      </trkpt>
      <trkpt lat="40.294178" lon="0.338567">
        <ele>3.210</ele>
        <time>2017-09-27T16:36:07Z</time>
      </trkpt>
      <trkpt lat="40.294207" lon="0.338655">
        <ele>3.242</ele>
        <time>2017-09-27T16:36:06Z</time>
      </trkpt>
      <trkpt lat="40.294241" lon="0.338741">
        <ele>3.364</ele>
        <time>2017-09-27T16:36:05Z</time>
      </trkpt>
      <trkpt lat="40.294274" lon="0.338826">
        <ele>3.206</ele>
        <time>2017-09-27T16:36:04Z</time>
      </trkpt>
      <trkpt lat="40.294306" lon="0.338909">
        <ele>3.016</ele>
        <time>2017-09-27T16:36:03Z</time>
      </trkpt>
      <trkpt lat="40.294335" lon="0.338990">
        <ele>2.808</ele>
        <time>2017-09-27T16:36:02Z</time>
      </trkpt>
      <trkpt lat="40.294362" lon="0.339072">
        <ele>2.569</ele>
        <time>2017-09-27T16:36:01Z</time>
      </trkpt>
      <trkpt lat="40.294390" lon="0.339153">
        <ele>2.236</ele>
        <time>2017-09-27T16:36:00Z</time>
      </trkpt>
      <trkpt lat="40.294418" lon="0.339233">
        <ele>1.910</ele>
        <time>2017-09-27T16:35:59Z</time>
      </trkpt>
      <trkpt lat="40.294447" lon="0.339314">
        <ele>1.518</ele>
        <time>2017-09-27T16:35:58Z</time>
      </trkpt>
      <trkpt lat="40.294477" lon="0.339395">
        <ele>1.456</ele>
        <time>2017-09-27T16:35:57Z</time>
      </trkpt>
      <trkpt lat="40.294507" lon="0.339477">
        <ele>1.459</ele>
        <time>2017-09-27T16:35:56Z</time>
      </trkpt>
      <trkpt lat="40.294533" lon="0.339560">
        <ele>1.667</ele>
        <time>2017-09-27T16:35:55Z</time>
      </trkpt>
      <trkpt lat="40.294560" lon="0.339642">
        <ele>1.819</ele>
        <time>2017-09-27T16:35:54Z</time>
      </trkpt>
      <trkpt lat="40.294590" lon="0.339723">
        <ele>2.028</ele>
        <time>2017-09-27T16:35:53Z</time>
      </trkpt>
      <trkpt lat="40.294618" lon="0.339805">
        <ele>2.289</ele>
        <time>2017-09-27T16:35:52Z</time>
      </trkpt>
      <trkpt lat="40.294647" lon="0.339885">
        <ele>2.517</ele>
        <time>2017-09-27T16:35:51Z</time>
      </trkpt>
      <trkpt lat="40.294676" lon="0.339962">
        <ele>2.708</ele>
        <time>2017-09-27T16:35:50Z</time>
      </trkpt>
      <trkpt lat="40.294701" lon="0.340042">
        <ele>2.965</ele>
        <time>2017-09-27T16:35:49Z</time>
      </trkpt>
      <trkpt lat="40.294727" lon="0.340120">
        <ele>3.142</ele>
        <time>2017-09-27T16:35:48Z</time>
      </trkpt>
      <trkpt lat="40.294756" lon="0.340199">
        <ele>3.376</ele>
        <time>2017-09-27T16:35:47Z</time>
      </trkpt>
      <trkpt lat="40.294782" lon="0.340278">
        <ele>3.444</ele>
        <time>2017-09-27T16:35:46Z</time>
      </trkpt>
      <trkpt lat="40.294807" lon="0.340358">
        <ele>3.182</ele>
        <time>2017-09-27T16:35:45Z</time>
      </trkpt>
      <trkpt lat="40.294834" lon="0.340438">
        <ele>2.885</ele>
        <time>2017-09-27T16:35:44Z</time>
      </trkpt>
      <trkpt lat="40.294861" lon="0.340516">
        <ele>2.353</ele>
        <time>2017-09-27T16:35:43Z</time>
      </trkpt>
      <trkpt lat="40.294887" lon="0.340597">
        <ele>1.925</ele>
        <time>2017-09-27T16:35:42Z</time>
      </trkpt>
      <trkpt lat="40.294912" lon="0.340680">
        <ele>1.757</ele>
        <time>2017-09-27T16:35:41Z</time>
      </trkpt>
      <trkpt lat="40.294936" lon="0.340765">
        <ele>1.400</ele>
        <time>2017-09-27T16:35:40Z</time>
      </trkpt>
      <trkpt lat="40.294961" lon="0.340849">
        <ele>1.120</ele>
        <time>2017-09-27T16:35:39Z</time>
      </trkpt>
      <trkpt lat="40.294992" lon="0.340929">
        <ele>1.008</ele>
        <time>2017-09-27T16:35:38Z</time>
      </trkpt>
      <trkpt lat="40.295023" lon="0.341008">
        <ele>1.188</ele>
        <time>2017-09-27T16:35:37Z</time>
      </trkpt>
      <trkpt lat="40.295050" lon="0.341089">
        <ele>1.395</ele>
        <time>2017-09-27T16:35:36Z</time>
      </trkpt>
      <trkpt lat="40.295078" lon="0.341168">
        <ele>1.639</ele>
        <time>2017-09-27T16:35:35Z</time>
      </trkpt>
      <trkpt lat="40.295105" lon="0.341250">
        <ele>1.817</ele>
        <time>2017-09-27T16:35:34Z</time>
      </trkpt>
      <trkpt lat="40.295130" lon="0.341331">
        <ele>1.995</ele>
        <time>2017-09-27T16:35:33Z</time>
      </trkpt>
      <trkpt lat="40.295156" lon="0.341411">
        <ele>2.038</ele>
        <time>2017-09-27T16:35:32Z</time>
      </trkpt>
      <trkpt lat="40.295179" lon="0.341493">
        <ele>1.936</ele>
        <time>2017-09-27T16:35:31Z</time>
      </trkpt>
      <trkpt lat="40.295215" lon="0.341656">
        <ele>1.618</ele>
        <time>2017-09-27T16:35:29Z</time>
      </trkpt>
      <trkpt lat="40.295228" lon="0.341739">
        <ele>1.439</ele>
        <time>2017-09-27T16:35:28Z</time>
      </trkpt>
      <trkpt lat="40.295238" lon="0.341822">
        <ele>1.201</ele>
        <time>2017-09-27T16:35:27Z</time>
      </trkpt>
      <trkpt lat="40.295248" lon="0.341904">
        <ele>1.021</ele>
        <time>2017-09-27T16:35:26Z</time>
      </trkpt>
      <trkpt lat="40.295256" lon="0.341988">
        <ele>0.808</ele>
        <time>2017-09-27T16:35:25Z</time>
      </trkpt>
      <trkpt lat="40.295264" lon="0.342072">
        <ele>0.556</ele>
        <time>2017-09-27T16:35:24Z</time>
      </trkpt>
      <trkpt lat="40.295272" lon="0.342159">
        <ele>0.273</ele>
        <time>2017-09-27T16:35:23Z</time>
      </trkpt>
      <trkpt lat="40.295281" lon="0.342247">
        <ele>0.177</ele>
        <time>2017-09-27T16:35:22Z</time>
      </trkpt>
      <trkpt lat="40.295292" lon="0.342334">
        <ele>0.545</ele>
        <time>2017-09-27T16:35:21Z</time>
      </trkpt>
      <trkpt lat="40.295306" lon="0.342422">
        <ele>0.863</ele>
        <time>2017-09-27T16:35:20Z</time>
      </trkpt>
      <trkpt lat="40.295324" lon="0.342509">
        <ele>1.226</ele>
        <time>2017-09-27T16:35:19Z</time>
      </trkpt>
      <trkpt lat="40.295338" lon="0.342599">
        <ele>1.244</ele>
        <time>2017-09-27T16:35:18Z</time>
      </trkpt>
      <trkpt lat="40.295340" lon="0.342692">
        <ele>1.296</ele>
        <time>2017-09-27T16:35:17Z</time>
      </trkpt>
      <trkpt lat="40.295338" lon="0.342786">
        <ele>1.216</ele>
        <time>2017-09-27T16:35:16Z</time>
      </trkpt>
      <trkpt lat="40.295334" lon="0.342881">
        <ele>1.376</ele>
        <time>2017-09-27T16:35:15Z</time>
      </trkpt>
      <trkpt lat="40.295345" lon="0.342977">
        <ele>1.413</ele>
        <time>2017-09-27T16:35:14Z</time>
      </trkpt>
      <trkpt lat="40.295368" lon="0.343067">
        <ele>1.608</ele>
        <time>2017-09-27T16:35:13Z</time>
      </trkpt>
      <trkpt lat="40.295399" lon="0.343154">
        <ele>1.754</ele>
        <time>2017-09-27T16:35:12Z</time>
      </trkpt>
      <trkpt lat="40.295430" lon="0.343239">
        <ele>1.761</ele>
        <time>2017-09-27T16:35:11Z</time>
      </trkpt>
      <trkpt lat="40.295465" lon="0.343320">
        <ele>1.785</ele>
        <time>2017-09-27T16:35:10Z</time>
      </trkpt>
      <trkpt lat="40.295497" lon="0.343401">
        <ele>2.083</ele>
        <time>2017-09-27T16:35:09Z</time>
      </trkpt>
      <trkpt lat="40.295530" lon="0.343481">
        <ele>2.411</ele>
        <time>2017-09-27T16:35:08Z</time>
      </trkpt>
      <trkpt lat="40.295560" lon="0.343561">
        <ele>2.884</ele>
        <time>2017-09-27T16:35:07Z</time>
      </trkpt>
      <trkpt lat="40.295585" lon="0.343645">
        <ele>2.932</ele>
        <time>2017-09-27T16:35:06Z</time>
      </trkpt>
      <trkpt lat="40.295609" lon="0.343727">
        <ele>2.764</ele>
        <time>2017-09-27T16:35:05Z</time>
      </trkpt>
      <trkpt lat="40.295632" lon="0.343813">
        <ele>2.577</ele>
        <time>2017-09-27T16:35:04Z</time>
      </trkpt>
      <trkpt lat="40.295658" lon="0.343897">
        <ele>2.361</ele>
        <time>2017-09-27T16:35:03Z</time>
      </trkpt>
      <trkpt lat="40.295686" lon="0.343977">
        <ele>2.227</ele>
        <time>2017-09-27T16:35:02Z</time>
      </trkpt>
      <trkpt lat="40.295714" lon="0.344057">
        <ele>2.008</ele>
        <time>2017-09-27T16:35:01Z</time>
      </trkpt>
      <trkpt lat="40.295749" lon="0.344131">
        <ele>1.840</ele>
        <time>2017-09-27T16:35:00Z</time>
      </trkpt>
      <trkpt lat="40.295788" lon="0.344203">
        <ele>1.787</ele>
        <time>2017-09-27T16:34:59Z</time>
      </trkpt>
      <trkpt lat="40.295829" lon="0.344274">
        <ele>1.661</ele>
        <time>2017-09-27T16:34:58Z</time>
      </trkpt>
      <trkpt lat="40.295880" lon="0.344337">
        <ele>1.719</ele>
        <time>2017-09-27T16:34:57Z</time>
      </trkpt>
      <trkpt lat="40.295932" lon="0.344400">
        <ele>1.947</ele>
        <time>2017-09-27T16:34:56Z</time>
      </trkpt>
      <trkpt lat="40.295972" lon="0.344478">
        <ele>1.920</ele>
        <time>2017-09-27T16:34:55Z</time>
      </trkpt>
      <trkpt lat="40.296002" lon="0.344564">
        <ele>2.018</ele>
        <time>2017-09-27T16:34:54Z</time>
      </trkpt>
      <trkpt lat="40.296033" lon="0.344650">
        <ele>1.980</ele>
        <time>2017-09-27T16:34:53Z</time>
      </trkpt>
      <trkpt lat="40.296080" lon="0.344719">
        <ele>1.952</ele>
        <time>2017-09-27T16:34:52Z</time>
      </trkpt>
      <trkpt lat="40.296137" lon="0.344774">
        <ele>2.153</ele>
        <time>2017-09-27T16:34:51Z</time>
      </trkpt>
      <trkpt lat="40.296197" lon="0.344818">
        <ele>2.308</ele>
        <time>2017-09-27T16:34:50Z</time>
      </trkpt>
      <trkpt lat="40.296256" lon="0.344868">
        <ele>2.508</ele>
        <time>2017-09-27T16:34:49Z</time>
      </trkpt>
      <trkpt lat="40.296307" lon="0.344935">
        <ele>2.758</ele>
        <time>2017-09-27T16:34:48Z</time>
      </trkpt>
      <trkpt lat="40.296349" lon="0.345014">
        <ele>2.865</ele>
        <time>2017-09-27T16:34:47Z</time>
      </trkpt>
      <trkpt lat="40.296388" lon="0.345095">
        <ele>2.759</ele>
        <time>2017-09-27T16:34:46Z</time>
      </trkpt>
      <trkpt lat="40.296424" lon="0.345175">
        <ele>2.577</ele>
        <time>2017-09-27T16:34:45Z</time>
      </trkpt>
      <trkpt lat="40.296461" lon="0.345254">
        <ele>2.395</ele>
        <time>2017-09-27T16:34:44Z</time>
      </trkpt>
      <trkpt lat="40.296496" lon="0.345330">
        <ele>2.148</ele>
        <time>2017-09-27T16:34:43Z</time>
      </trkpt>
      <trkpt lat="40.296530" lon="0.345403">
        <ele>1.896</ele>
        <time>2017-09-27T16:34:42Z</time>
      </trkpt>
      <trkpt lat="40.296573" lon="0.345476">
        <ele>1.518</ele>
        <time>2017-09-27T16:34:41Z</time>
      </trkpt>
      <trkpt lat="40.296621" lon="0.345556">
        <ele>1.063</ele>
        <time>2017-09-27T16:34:40Z</time>
      </trkpt>
      <trkpt lat="40.296670" lon="0.345647">
        <ele>0.744</ele>
        <time>2017-09-27T16:34:39Z</time>
      </trkpt>
      <trkpt lat="40.296713" lon="0.345747">
        <ele>0.418</ele>
        <time>2017-09-27T16:34:38Z</time>
      </trkpt>
      <trkpt lat="40.296748" lon="0.345856">
        <ele>0.408</ele>
        <time>2017-09-27T16:34:37Z</time>
      </trkpt>
      <trkpt lat="40.296768" lon="0.345972">
        <ele>0.729</ele>
        <time>2017-09-27T16:34:36Z</time>
      </trkpt>
      <trkpt lat="40.296789" lon="0.346087">
        <ele>1.096</ele>
        <time>2017-09-27T16:34:35Z</time>
      </trkpt>
      <trkpt lat="40.296832" lon="0.346183">
        <ele>1.250</ele>
        <time>2017-09-27T16:34:34Z</time>
      </trkpt>
      <trkpt lat="40.296892" lon="0.346254">
        <ele>1.488</ele>
        <time>2017-09-27T16:34:33Z</time>
      </trkpt>
      <trkpt lat="40.297012" lon="0.346279">
        <ele>2.196</ele>
        <time>2017-09-27T16:34:32Z</time>
      </trkpt>
      <trkpt lat="40.297072" lon="0.346292">
        <ele>2.639</ele>
        <time>2017-09-27T16:34:31Z</time>
      </trkpt>
      <trkpt lat="40.297132" lon="0.346305">
        <ele>3.097</ele>
        <time>2017-09-27T16:34:30Z</time>
      </trkpt>
      <trkpt lat="40.297362" lon="0.346584">
        <ele>4.549</ele>
        <time>2017-09-27T16:34:26Z</time>
      </trkpt>
      <trkpt lat="40.297413" lon="0.346664">
        <ele>4.725</ele>
        <time>2017-09-27T16:34:25Z</time>
      </trkpt>
      <trkpt lat="40.297465" lon="0.346745">
        <ele>4.626</ele>
        <time>2017-09-27T16:34:24Z</time>
      </trkpt>
      <trkpt lat="40.297521" lon="0.346818">
        <ele>4.508</ele>
        <time>2017-09-27T16:34:23Z</time>
      </trkpt>
      <trkpt lat="40.297584" lon="0.346874">
        <ele>4.508</ele>
        <time>2017-09-27T16:34:22Z</time>
      </trkpt>
      <trkpt lat="40.297649" lon="0.346919">
        <ele>4.665</ele>
        <time>2017-09-27T16:34:21Z</time>
      </trkpt>
      <trkpt lat="40.297715" lon="0.346958">
        <ele>4.722</ele>
        <time>2017-09-27T16:34:20Z</time>
      </trkpt>
      <trkpt lat="40.297780" lon="0.347005">
        <ele>4.826</ele>
        <time>2017-09-27T16:34:19Z</time>
      </trkpt>
      <trkpt lat="40.297843" lon="0.347056">
        <ele>4.944</ele>
        <time>2017-09-27T16:34:18Z</time>
      </trkpt>
      <trkpt lat="40.297905" lon="0.347107">
        <ele>5.122</ele>
        <time>2017-09-27T16:34:17Z</time>
      </trkpt>
      <trkpt lat="40.297969" lon="0.347158">
        <ele>5.485</ele>
        <time>2017-09-27T16:34:16Z</time>
      </trkpt>
      <trkpt lat="40.298034" lon="0.347205">
        <ele>5.833</ele>
        <time>2017-09-27T16:34:15Z</time>
      </trkpt>
      <trkpt lat="40.298104" lon="0.347240">
        <ele>6.125</ele>
        <time>2017-09-27T16:34:14Z</time>
      </trkpt>
      <trkpt lat="40.298175" lon="0.347274">
        <ele>6.118</ele>
        <time>2017-09-27T16:34:13Z</time>
      </trkpt>
      <trkpt lat="40.298245" lon="0.347320">
        <ele>6.298</ele>
        <time>2017-09-27T16:34:12Z</time>
      </trkpt>
      <trkpt lat="40.298311" lon="0.347375">
        <ele>6.317</ele>
        <time>2017-09-27T16:34:11Z</time>
      </trkpt>
      <trkpt lat="40.298373" lon="0.347434">
        <ele>6.508</ele>
        <time>2017-09-27T16:34:10Z</time>
      </trkpt>
      <trkpt lat="40.298436" lon="0.347488">
        <ele>6.824</ele>
        <time>2017-09-27T16:34:09Z</time>
      </trkpt>
      <trkpt lat="40.298503" lon="0.347531">
        <ele>7.061</ele>
        <time>2017-09-27T16:34:08Z</time>
      </trkpt>
      <trkpt lat="40.298571" lon="0.347564">
        <ele>7.255</ele>
        <time>2017-09-27T16:34:07Z</time>
      </trkpt>
      <trkpt lat="40.298637" lon="0.347602">
        <ele>7.413</ele>
        <time>2017-09-27T16:34:06Z</time>
      </trkpt>
      <trkpt lat="40.298698" lon="0.347652">
        <ele>7.281</ele>
        <time>2017-09-27T16:34:05Z</time>
      </trkpt>
      <trkpt lat="40.298751" lon="0.347716">
        <ele>6.974</ele>
        <time>2017-09-27T16:34:04Z</time>
      </trkpt>
      <trkpt lat="40.298803" lon="0.347782">
        <ele>6.712</ele>
        <time>2017-09-27T16:34:03Z</time>
      </trkpt>
      <trkpt lat="40.298859" lon="0.347842">
        <ele>6.664</ele>
        <time>2017-09-27T16:34:02Z</time>
      </trkpt>
      <trkpt lat="40.298918" lon="0.347899">
        <ele>6.883</ele>
        <time>2017-09-27T16:34:01Z</time>
      </trkpt>
      <trkpt lat="40.298981" lon="0.347954">
        <ele>7.025</ele>
        <time>2017-09-27T16:34:00Z</time>
      </trkpt>
      <trkpt lat="40.299044" lon="0.348007">
        <ele>7.317</ele>
        <time>2017-09-27T16:33:59Z</time>
      </trkpt>
      <trkpt lat="40.299111" lon="0.348054">
        <ele>7.608</ele>
        <time>2017-09-27T16:33:58Z</time>
      </trkpt>
      <trkpt lat="40.299176" lon="0.348099">
        <ele>7.911</ele>
        <time>2017-09-27T16:33:57Z</time>
      </trkpt>
      <trkpt lat="40.299241" lon="0.348142">
        <ele>8.068</ele>
        <time>2017-09-27T16:33:56Z</time>
      </trkpt>
      <trkpt lat="40.299299" lon="0.348195">
        <ele>8.012</ele>
        <time>2017-09-27T16:33:55Z</time>
      </trkpt>
      <trkpt lat="40.299349" lon="0.348264">
        <ele>7.930</ele>
        <time>2017-09-27T16:33:54Z</time>
      </trkpt>
      <trkpt lat="40.299394" lon="0.348335">
        <ele>7.818</ele>
        <time>2017-09-27T16:33:53Z</time>
      </trkpt>
      <trkpt lat="40.299448" lon="0.348395">
        <ele>7.881</ele>
        <time>2017-09-27T16:33:52Z</time>
      </trkpt>
      <trkpt lat="40.299504" lon="0.348453">
        <ele>7.849</ele>
        <time>2017-09-27T16:33:51Z</time>
      </trkpt>
      <trkpt lat="40.299563" lon="0.348505">
        <ele>7.861</ele>
        <time>2017-09-27T16:33:50Z</time>
      </trkpt>
      <trkpt lat="40.299623" lon="0.348555">
        <ele>7.866</ele>
        <time>2017-09-27T16:33:49Z</time>
      </trkpt>
      <trkpt lat="40.299686" lon="0.348602">
        <ele>7.929</ele>
        <time>2017-09-27T16:33:48Z</time>
      </trkpt>
      <trkpt lat="40.299747" lon="0.348652">
        <ele>8.021</ele>
        <time>2017-09-27T16:33:47Z</time>
      </trkpt>
      <trkpt lat="40.299806" lon="0.348707">
        <ele>8.308</ele>
        <time>2017-09-27T16:33:46Z</time>
      </trkpt>
      <trkpt lat="40.299862" lon="0.348769">
        <ele>8.459</ele>
        <time>2017-09-27T16:33:45Z</time>
      </trkpt>
      <trkpt lat="40.299916" lon="0.348833">
        <ele>8.686</ele>
        <time>2017-09-27T16:33:44Z</time>
      </trkpt>
      <trkpt lat="40.299969" lon="0.348898">
        <ele>8.730</ele>
        <time>2017-09-27T16:33:43Z</time>
      </trkpt>
      <trkpt lat="40.300022" lon="0.348954">
        <ele>8.618</ele>
        <time>2017-09-27T16:33:42Z</time>
      </trkpt>
      <trkpt lat="40.300082" lon="0.348996">
        <ele>8.666</ele>
        <time>2017-09-27T16:33:41Z</time>
      </trkpt>
      <trkpt lat="40.300143" lon="0.349025">
        <ele>8.839</ele>
        <time>2017-09-27T16:33:40Z</time>
      </trkpt>
      <trkpt lat="40.300205" lon="0.349047">
        <ele>9.017</ele>
        <time>2017-09-27T16:33:39Z</time>
      </trkpt>
      <trkpt lat="40.300267" lon="0.349069">
        <ele>9.369</ele>
        <time>2017-09-27T16:33:38Z</time>
      </trkpt>
      <trkpt lat="40.300330" lon="0.349092">
        <ele>9.261</ele>
        <time>2017-09-27T16:33:37Z</time>
      </trkpt>
      <trkpt lat="40.300392" lon="0.349118">
        <ele>9.121</ele>
        <time>2017-09-27T16:33:36Z</time>
      </trkpt>
      <trkpt lat="40.300452" lon="0.349146">
        <ele>9.013</ele>
        <time>2017-09-27T16:33:35Z</time>
      </trkpt>
      <trkpt lat="40.300515" lon="0.349174">
        <ele>9.008</ele>
        <time>2017-09-27T16:33:34Z</time>
      </trkpt>
      <trkpt lat="40.300574" lon="0.349207">
        <ele>8.859</ele>
        <time>2017-09-27T16:33:33Z</time>
      </trkpt>
      <trkpt lat="40.300635" lon="0.349239">
        <ele>8.566</ele>
        <time>2017-09-27T16:33:32Z</time>
      </trkpt>
      <trkpt lat="40.300694" lon="0.349273">
        <ele>8.350</ele>
        <time>2017-09-27T16:33:31Z</time>
      </trkpt>
      <trkpt lat="40.300753" lon="0.349303">
        <ele>8.118</ele>
        <time>2017-09-27T16:33:30Z</time>
      </trkpt>
      <trkpt lat="40.300812" lon="0.349326">
        <ele>8.066</ele>
        <time>2017-09-27T16:33:29Z</time>
      </trkpt>
      <trkpt lat="40.300875" lon="0.349344">
        <ele>8.129</ele>
        <time>2017-09-27T16:33:28Z</time>
      </trkpt>
      <trkpt lat="40.300973" lon="0.349361">
        <ele>8.267</ele>
        <time>2017-09-27T16:33:26Z</time>
      </trkpt>
      <trkpt lat="40.301044" lon="0.349362">
        <ele>8.259</ele>
        <time>2017-09-27T16:33:25Z</time>
      </trkpt>
      <trkpt lat="40.301114" lon="0.349360">
        <ele>8.384</ele>
        <time>2017-09-27T16:33:24Z</time>
      </trkpt>
      <trkpt lat="40.301185" lon="0.349368">
        <ele>8.207</ele>
        <time>2017-09-27T16:33:23Z</time>
      </trkpt>
      <trkpt lat="40.301256" lon="0.349372">
        <ele>8.117</ele>
        <time>2017-09-27T16:33:22Z</time>
      </trkpt>
      <trkpt lat="40.301328" lon="0.349377">
        <ele>8.108</ele>
        <time>2017-09-27T16:33:21Z</time>
      </trkpt>
      <trkpt lat="40.301400" lon="0.349381">
        <ele>7.961</ele>
        <time>2017-09-27T16:33:20Z</time>
      </trkpt>
      <trkpt lat="40.301469" lon="0.349391">
        <ele>7.558</ele>
        <time>2017-09-27T16:33:19Z</time>
      </trkpt>
      <trkpt lat="40.301536" lon="0.349405">
        <ele>7.192</ele>
        <time>2017-09-27T16:33:18Z</time>
      </trkpt>
      <trkpt lat="40.301602" lon="0.349431">
        <ele>6.580</ele>
        <time>2017-09-27T16:33:17Z</time>
      </trkpt>
      <trkpt lat="40.301667" lon="0.349458">
        <ele>6.018</ele>
        <time>2017-09-27T16:33:16Z</time>
      </trkpt>
      <trkpt lat="40.301734" lon="0.349484">
        <ele>6.341</ele>
        <time>2017-09-27T16:33:15Z</time>
      </trkpt>
      <trkpt lat="40.301798" lon="0.349512">
        <ele>6.629</ele>
        <time>2017-09-27T16:33:14Z</time>
      </trkpt>
      <trkpt lat="40.301866" lon="0.349537">
        <ele>6.971</ele>
        <time>2017-09-27T16:33:13Z</time>
      </trkpt>
      <trkpt lat="40.301934" lon="0.349563">
        <ele>7.115</ele>
        <time>2017-09-27T16:33:12Z</time>
      </trkpt>
      <trkpt lat="40.302000" lon="0.349594">
        <ele>7.465</ele>
        <time>2017-09-27T16:33:11Z</time>
      </trkpt>
      <trkpt lat="40.302065" lon="0.349627">
        <ele>7.811</ele>
        <time>2017-09-27T16:33:10Z</time>
      </trkpt>
      <trkpt lat="40.302239" lon="0.349712">
        <ele>9.008</ele>
        <time>2017-09-27T16:33:09Z</time>
      </trkpt>
      <trkpt lat="40.302326" lon="0.349755">
        <ele>8.934</ele>
        <time>2017-09-27T16:33:08Z</time>
      </trkpt>
      <trkpt lat="40.302413" lon="0.349798">
        <ele>8.891</ele>
        <time>2017-09-27T16:33:05Z</time>
      </trkpt>
      <trkpt lat="40.302470" lon="0.349843">
        <ele>8.915</ele>
        <time>2017-09-27T16:33:04Z</time>
      </trkpt>
      <trkpt lat="40.302525" lon="0.349887">
        <ele>9.043</ele>
        <time>2017-09-27T16:33:03Z</time>
      </trkpt>
      <trkpt lat="40.302584" lon="0.349921">
        <ele>9.051</ele>
        <time>2017-09-27T16:33:02Z</time>
      </trkpt>
      <trkpt lat="40.302647" lon="0.349944">
        <ele>9.064</ele>
        <time>2017-09-27T16:33:01Z</time>
      </trkpt>
      <trkpt lat="40.302711" lon="0.349961">
        <ele>9.072</ele>
        <time>2017-09-27T16:33:00Z</time>
      </trkpt>
      <trkpt lat="40.302778" lon="0.349976">
        <ele>9.084</ele>
        <time>2017-09-27T16:32:59Z</time>
      </trkpt>
      <trkpt lat="40.302848" lon="0.349988">
        <ele>9.044</ele>
        <time>2017-09-27T16:32:58Z</time>
      </trkpt>
      <trkpt lat="40.302915" lon="0.350010">
        <ele>9.005</ele>
        <time>2017-09-27T16:32:57Z</time>
      </trkpt>
      <trkpt lat="40.302977" lon="0.350047">
        <ele>8.815</ele>
        <time>2017-09-27T16:32:56Z</time>
      </trkpt>
      <trkpt lat="40.303036" lon="0.350090">
        <ele>8.708</ele>
        <time>2017-09-27T16:32:55Z</time>
      </trkpt>
      <trkpt lat="40.303094" lon="0.350134">
        <ele>8.597</ele>
        <time>2017-09-27T16:32:54Z</time>
      </trkpt>
      <trkpt lat="40.303149" lon="0.350175">
        <ele>8.474</ele>
        <time>2017-09-27T16:32:53Z</time>
      </trkpt>
      <trkpt lat="40.303204" lon="0.350210">
        <ele>8.278</ele>
        <time>2017-09-27T16:32:52Z</time>
      </trkpt>
      <trkpt lat="40.303263" lon="0.350234">
        <ele>8.286</ele>
        <time>2017-09-27T16:32:51Z</time>
      </trkpt>
      <trkpt lat="40.303323" lon="0.350257">
        <ele>8.114</ele>
        <time>2017-09-27T16:32:50Z</time>
      </trkpt>
      <trkpt lat="40.303385" lon="0.350275">
        <ele>8.057</ele>
        <time>2017-09-27T16:32:49Z</time>
      </trkpt>
      <trkpt lat="40.303446" lon="0.350293">
        <ele>7.995</ele>
        <time>2017-09-27T16:32:48Z</time>
      </trkpt>
      <trkpt lat="40.303506" lon="0.350313">
        <ele>7.937</ele>
        <time>2017-09-27T16:32:47Z</time>
      </trkpt>
      <trkpt lat="40.303568" lon="0.350327">
        <ele>7.838</ele>
        <time>2017-09-27T16:32:46Z</time>
      </trkpt>
      <trkpt lat="40.303631" lon="0.350337">
        <ele>7.870</ele>
        <time>2017-09-27T16:32:45Z</time>
      </trkpt>
      <trkpt lat="40.303693" lon="0.350342">
        <ele>7.817</ele>
        <time>2017-09-27T16:32:44Z</time>
      </trkpt>
      <trkpt lat="40.303754" lon="0.350349">
        <ele>7.708</ele>
        <time>2017-09-27T16:32:43Z</time>
      </trkpt>
      <trkpt lat="40.303814" lon="0.350353">
        <ele>7.776</ele>
        <time>2017-09-27T16:32:42Z</time>
      </trkpt>
      <trkpt lat="40.303873" lon="0.350356">
        <ele>7.753</ele>
        <time>2017-09-27T16:32:41Z</time>
      </trkpt>
      <trkpt lat="40.303933" lon="0.350358">
        <ele>7.757</ele>
        <time>2017-09-27T16:32:40Z</time>
      </trkpt>
      <trkpt lat="40.303993" lon="0.350360">
        <ele>7.775</ele>
        <time>2017-09-27T16:32:39Z</time>
      </trkpt>
      <trkpt lat="40.304056" lon="0.350363">
        <ele>7.783</ele>
        <time>2017-09-27T16:32:38Z</time>
      </trkpt>
      <trkpt lat="40.304119" lon="0.350367">
        <ele>7.796</ele>
        <time>2017-09-27T16:32:37Z</time>
      </trkpt>
      <trkpt lat="40.304183" lon="0.350371">
        <ele>7.754</ele>
        <time>2017-09-27T16:32:36Z</time>
      </trkpt>
      <trkpt lat="40.304247" lon="0.350376">
        <ele>7.626</ele>
        <time>2017-09-27T16:32:35Z</time>
      </trkpt>
      <trkpt lat="40.304312" lon="0.350384">
        <ele>7.654</ele>
        <time>2017-09-27T16:32:34Z</time>
      </trkpt>
      <trkpt lat="40.304376" lon="0.350389">
        <ele>7.656</ele>
        <time>2017-09-27T16:32:33Z</time>
      </trkpt>
      <trkpt lat="40.304441" lon="0.350394">
        <ele>7.611</ele>
        <time>2017-09-27T16:32:32Z</time>
      </trkpt>
      <trkpt lat="40.304505" lon="0.350405">
        <ele>7.508</ele>
        <time>2017-09-27T16:32:31Z</time>
      </trkpt>
      <trkpt lat="40.304569" lon="0.350418">
        <ele>7.588</ele>
        <time>2017-09-27T16:32:30Z</time>
      </trkpt>
      <trkpt lat="40.304635" lon="0.350428">
        <ele>7.575</ele>
        <time>2017-09-27T16:32:29Z</time>
      </trkpt>
      <trkpt lat="40.304700" lon="0.350443">
        <ele>7.469</ele>
        <time>2017-09-27T16:32:28Z</time>
      </trkpt>
      <trkpt lat="40.304766" lon="0.350460">
        <ele>7.337</ele>
        <time>2017-09-27T16:32:27Z</time>
      </trkpt>
      <trkpt lat="40.304899" lon="0.350472">
        <ele>7.345</ele>
        <time>2017-09-27T16:32:25Z</time>
      </trkpt>
      <trkpt lat="40.304963" lon="0.350463">
        <ele>7.348</ele>
        <time>2017-09-27T16:32:24Z</time>
      </trkpt>
      <trkpt lat="40.305027" lon="0.350453">
        <ele>7.446</ele>
        <time>2017-09-27T16:32:23Z</time>
      </trkpt>
      <trkpt lat="40.305091" lon="0.350431">
        <ele>7.448</ele>
        <time>2017-09-27T16:32:22Z</time>
      </trkpt>
      <trkpt lat="40.305155" lon="0.350417">
        <ele>7.582</ele>
        <time>2017-09-27T16:32:21Z</time>
      </trkpt>
      <trkpt lat="40.305222" lon="0.350423">
        <ele>7.543</ele>
        <time>2017-09-27T16:32:20Z</time>
      </trkpt>
      <trkpt lat="40.305289" lon="0.350441">
        <ele>7.417</ele>
        <time>2017-09-27T16:32:19Z</time>
      </trkpt>
      <trkpt lat="40.305355" lon="0.350466">
        <ele>7.008</ele>
        <time>2017-09-27T16:32:18Z</time>
      </trkpt>
      <trkpt lat="40.305421" lon="0.350501">
        <ele>6.721</ele>
        <time>2017-09-27T16:32:17Z</time>
      </trkpt>
      <trkpt lat="40.305487" lon="0.350536">
        <ele>6.328</ele>
        <time>2017-09-27T16:32:16Z</time>
      </trkpt>
      <trkpt lat="40.305550" lon="0.350576">
        <ele>5.912</ele>
        <time>2017-09-27T16:32:15Z</time>
      </trkpt>
      <trkpt lat="40.305610" lon="0.350621">
        <ele>5.840</ele>
        <time>2017-09-27T16:32:14Z</time>
      </trkpt>
      <trkpt lat="40.305669" lon="0.350663">
        <ele>5.678</ele>
        <time>2017-09-27T16:32:13Z</time>
      </trkpt>
      <trkpt lat="40.305728" lon="0.350700">
        <ele>5.511</ele>
        <time>2017-09-27T16:32:12Z</time>
      </trkpt>
      <trkpt lat="40.305787" lon="0.350737">
        <ele>5.319</ele>
        <time>2017-09-27T16:32:11Z</time>
      </trkpt>
      <trkpt lat="40.305847" lon="0.350768">
        <ele>5.331</ele>
        <time>2017-09-27T16:32:10Z</time>
      </trkpt>
      <trkpt lat="40.305910" lon="0.350792">
        <ele>5.451</ele>
        <time>2017-09-27T16:32:09Z</time>
      </trkpt>
      <trkpt lat="40.305975" lon="0.350812">
        <ele>5.601</ele>
        <time>2017-09-27T16:32:08Z</time>
      </trkpt>
      <trkpt lat="40.306041" lon="0.350827">
        <ele>5.811</ele>
        <time>2017-09-27T16:32:07Z</time>
      </trkpt>
      <trkpt lat="40.306106" lon="0.350842">
        <ele>6.008</ele>
        <time>2017-09-27T16:32:06Z</time>
      </trkpt>
      <trkpt lat="40.306172" lon="0.350857">
        <ele>6.218</ele>
        <time>2017-09-27T16:32:05Z</time>
      </trkpt>
      <trkpt lat="40.306237" lon="0.350871">
        <ele>6.445</ele>
        <time>2017-09-27T16:32:04Z</time>
      </trkpt>
      <trkpt lat="40.306302" lon="0.350882">
        <ele>6.699</ele>
        <time>2017-09-27T16:32:03Z</time>
      </trkpt>
      <trkpt lat="40.306365" lon="0.350886">
        <ele>6.727</ele>
        <time>2017-09-27T16:32:02Z</time>
      </trkpt>
      <trkpt lat="40.306429" lon="0.350887">
        <ele>6.755</ele>
        <time>2017-09-27T16:32:01Z</time>
      </trkpt>
      <trkpt lat="40.306493" lon="0.350887">
        <ele>6.488</ele>
        <time>2017-09-27T16:32:00Z</time>
      </trkpt>
      <trkpt lat="40.306557" lon="0.350886">
        <ele>6.286</ele>
        <time>2017-09-27T16:31:59Z</time>
      </trkpt>
      <trkpt lat="40.306619" lon="0.350887">
        <ele>6.048</ele>
        <time>2017-09-27T16:31:58Z</time>
      </trkpt>
      <trkpt lat="40.306683" lon="0.350890">
        <ele>5.891</ele>
        <time>2017-09-27T16:31:57Z</time>
      </trkpt>
      <trkpt lat="40.306748" lon="0.350897">
        <ele>5.881</ele>
        <time>2017-09-27T16:31:56Z</time>
      </trkpt>
      <trkpt lat="40.306815" lon="0.350908">
        <ele>5.919</ele>
        <time>2017-09-27T16:31:55Z</time>
      </trkpt>
      <trkpt lat="40.306881" lon="0.350924">
        <ele>5.908</ele>
        <time>2017-09-27T16:31:54Z</time>
      </trkpt>
      <trkpt lat="40.306946" lon="0.350939">
        <ele>6.052</ele>
        <time>2017-09-27T16:31:53Z</time>
      </trkpt>
      <trkpt lat="40.307010" lon="0.350956">
        <ele>5.939</ele>
        <time>2017-09-27T16:31:52Z</time>
      </trkpt>
      <trkpt lat="40.307075" lon="0.350969">
        <ele>5.893</ele>
        <time>2017-09-27T16:31:51Z</time>
      </trkpt>
      <trkpt lat="40.307139" lon="0.350986">
        <ele>5.661</ele>
        <time>2017-09-27T16:31:50Z</time>
      </trkpt>
      <trkpt lat="40.307202" lon="0.351001">
        <ele>5.429</ele>
        <time>2017-09-27T16:31:49Z</time>
      </trkpt>
      <trkpt lat="40.307268" lon="0.351011">
        <ele>5.372</ele>
        <time>2017-09-27T16:31:48Z</time>
      </trkpt>
      <trkpt lat="40.307334" lon="0.351020">
        <ele>5.220</ele>
        <time>2017-09-27T16:31:47Z</time>
      </trkpt>
      <trkpt lat="40.307397" lon="0.351024">
        <ele>5.172</ele>
        <time>2017-09-27T16:31:46Z</time>
      </trkpt>
      <trkpt lat="40.307461" lon="0.351028">
        <ele>5.078</ele>
        <time>2017-09-27T16:31:45Z</time>
      </trkpt>
      <trkpt lat="40.307527" lon="0.351032">
        <ele>4.933</ele>
        <time>2017-09-27T16:31:44Z</time>
      </trkpt>
      <trkpt lat="40.307593" lon="0.351025">
        <ele>4.826</ele>
        <time>2017-09-27T16:31:43Z</time>
      </trkpt>
      <trkpt lat="40.307659" lon="0.350998">
        <ele>4.708</ele>
        <time>2017-09-27T16:31:42Z</time>
      </trkpt>
      <trkpt lat="40.307725" lon="0.350956">
        <ele>4.610</ele>
        <time>2017-09-27T16:31:41Z</time>
      </trkpt>
      <trkpt lat="40.307792" lon="0.350919">
        <ele>4.877</ele>
        <time>2017-09-27T16:31:40Z</time>
      </trkpt>
      <trkpt lat="40.307856" lon="0.350897">
        <ele>5.191</ele>
        <time>2017-09-27T16:31:39Z</time>
      </trkpt>
      <trkpt lat="40.307920" lon="0.350912">
        <ele>5.439</ele>
        <time>2017-09-27T16:31:38Z</time>
      </trkpt>
      <trkpt lat="40.307978" lon="0.350959">
        <ele>5.697</ele>
        <time>2017-09-27T16:31:37Z</time>
      </trkpt>
      <trkpt lat="40.308020" lon="0.351028">
        <ele>5.810</ele>
        <time>2017-09-27T16:31:36Z</time>
      </trkpt>
      <trkpt lat="40.308046" lon="0.351108">
        <ele>5.938</ele>
        <time>2017-09-27T16:31:35Z</time>
      </trkpt>
      <trkpt lat="40.308063" lon="0.351190">
        <ele>6.040</ele>
        <time>2017-09-27T16:31:34Z</time>
      </trkpt>
      <trkpt lat="40.308076" lon="0.351275">
        <ele>6.151</ele>
        <time>2017-09-27T16:31:33Z</time>
      </trkpt>
      <trkpt lat="40.308092" lon="0.351360">
        <ele>6.201</ele>
        <time>2017-09-27T16:31:32Z</time>
      </trkpt>
      <trkpt lat="40.308122" lon="0.351439">
        <ele>6.511</ele>
        <time>2017-09-27T16:31:31Z</time>
      </trkpt>
      <trkpt lat="40.308164" lon="0.351503">
        <ele>6.808</ele>
        <time>2017-09-27T16:31:30Z</time>
      </trkpt>
      <trkpt lat="40.308212" lon="0.351561">
        <ele>7.138</ele>
        <time>2017-09-27T16:31:29Z</time>
      </trkpt>
      <trkpt lat="40.308263" lon="0.351620">
        <ele>7.525</ele>
        <time>2017-09-27T16:31:28Z</time>
      </trkpt>
      <trkpt lat="40.308321" lon="0.351673">
        <ele>7.939</ele>
        <time>2017-09-27T16:31:27Z</time>
      </trkpt>
      <trkpt lat="40.308383" lon="0.351716">
        <ele>7.867</ele>
        <time>2017-09-27T16:31:26Z</time>
      </trkpt>
      <trkpt lat="40.308450" lon="0.351735">
        <ele>7.725</ele>
        <time>2017-09-27T16:31:25Z</time>
      </trkpt>
      <trkpt lat="40.308516" lon="0.351733">
        <ele>7.698</ele>
        <time>2017-09-27T16:31:24Z</time>
      </trkpt>
      <trkpt lat="40.308583" lon="0.351723">
        <ele>7.696</ele>
        <time>2017-09-27T16:31:23Z</time>
      </trkpt>
      <trkpt lat="40.308650" lon="0.351712">
        <ele>7.748</ele>
        <time>2017-09-27T16:31:22Z</time>
      </trkpt>
      <trkpt lat="40.308721" lon="0.351701">
        <ele>7.875</ele>
        <time>2017-09-27T16:31:21Z</time>
      </trkpt>
      <trkpt lat="40.308795" lon="0.351691">
        <ele>7.828</ele>
        <time>2017-09-27T16:31:20Z</time>
      </trkpt>
      <trkpt lat="40.308869" lon="0.351689">
        <ele>7.820</ele>
        <time>2017-09-27T16:31:19Z</time>
      </trkpt>
      <trkpt lat="40.308942" lon="0.351695">
        <ele>7.808</ele>
        <time>2017-09-27T16:31:18Z</time>
      </trkpt>
      <trkpt lat="40.309013" lon="0.351715">
        <ele>7.740</ele>
        <time>2017-09-27T16:31:17Z</time>
      </trkpt>
      <trkpt lat="40.309084" lon="0.351743">
        <ele>7.497</ele>
        <time>2017-09-27T16:31:16Z</time>
      </trkpt>
      <trkpt lat="40.309151" lon="0.351777">
        <ele>7.271</ele>
        <time>2017-09-27T16:31:15Z</time>
      </trkpt>
      <trkpt lat="40.309215" lon="0.351816">
        <ele>6.889</ele>
        <time>2017-09-27T16:31:14Z</time>
      </trkpt>
      <trkpt lat="40.309275" lon="0.351866">
        <ele>6.537</ele>
        <time>2017-09-27T16:31:13Z</time>
      </trkpt>
      <trkpt lat="40.309331" lon="0.351925">
        <ele>6.180</ele>
        <time>2017-09-27T16:31:12Z</time>
      </trkpt>
      <trkpt lat="40.309383" lon="0.351990">
        <ele>5.758</ele>
        <time>2017-09-27T16:31:11Z</time>
      </trkpt>
      <trkpt lat="40.309435" lon="0.352059">
        <ele>5.220</ele>
        <time>2017-09-27T16:31:10Z</time>
      </trkpt>
      <trkpt lat="40.309486" lon="0.352131">
        <ele>4.773</ele>
        <time>2017-09-27T16:31:09Z</time>
      </trkpt>
      <trkpt lat="40.309542" lon="0.352197">
        <ele>4.285</ele>
        <time>2017-09-27T16:31:08Z</time>
      </trkpt>
      <trkpt lat="40.309597" lon="0.352257">
        <ele>3.913</ele>
        <time>2017-09-27T16:31:07Z</time>
      </trkpt>
      <trkpt lat="40.309652" lon="0.352314">
        <ele>3.708</ele>
        <time>2017-09-27T16:31:06Z</time>
      </trkpt>
      <trkpt lat="40.309710" lon="0.352364">
        <ele>3.550</ele>
        <time>2017-09-27T16:31:05Z</time>
      </trkpt>
      <trkpt lat="40.309753" lon="0.352402">
        <ele>3.477</ele>
        <time>2017-09-27T16:31:04Z</time>
      </trkpt>
      <trkpt lat="40.309839" lon="0.352481">
        <ele>3.141</ele>
        <time>2017-09-27T16:31:03Z</time>
      </trkpt>
      <trkpt lat="40.309897" lon="0.352533">
        <ele>3.039</ele>
        <time>2017-09-27T16:31:02Z</time>
      </trkpt>
      <trkpt lat="40.309954" lon="0.352585">
        <ele>2.997</ele>
        <time>2017-09-27T16:31:01Z</time>
      </trkpt>
      <trkpt lat="40.310013" lon="0.352633">
        <ele>3.040</ele>
        <time>2017-09-27T16:31:00Z</time>
      </trkpt>
      <trkpt lat="40.310073" lon="0.352679">
        <ele>3.358</ele>
        <time>2017-09-27T16:30:59Z</time>
      </trkpt>
      <trkpt lat="40.310135" lon="0.352724">
        <ele>3.510</ele>
        <time>2017-09-27T16:30:58Z</time>
      </trkpt>
      <trkpt lat="40.310197" lon="0.352769">
        <ele>3.783</ele>
        <time>2017-09-27T16:30:57Z</time>
      </trkpt>
      <trkpt lat="40.310261" lon="0.352813">
        <ele>3.825</ele>
        <time>2017-09-27T16:30:56Z</time>
      </trkpt>
      <trkpt lat="40.310327" lon="0.352854">
        <ele>3.917</ele>
        <time>2017-09-27T16:30:55Z</time>
      </trkpt>
      <trkpt lat="40.310395" lon="0.352886">
        <ele>3.908</ele>
        <time>2017-09-27T16:30:54Z</time>
      </trkpt>
      <trkpt lat="40.310465" lon="0.352909">
        <ele>3.961</ele>
        <time>2017-09-27T16:30:53Z</time>
      </trkpt>
      <trkpt lat="40.310535" lon="0.352931">
        <ele>3.988</ele>
        <time>2017-09-27T16:30:52Z</time>
      </trkpt>
      <trkpt lat="40.310605" lon="0.352962">
        <ele>3.992</ele>
        <time>2017-09-27T16:30:51Z</time>
      </trkpt>
      <trkpt lat="40.310676" lon="0.352994">
        <ele>3.930</ele>
        <time>2017-09-27T16:30:50Z</time>
      </trkpt>
      <trkpt lat="40.310746" lon="0.353031">
        <ele>3.948</ele>
        <time>2017-09-27T16:30:49Z</time>
      </trkpt>
      <trkpt lat="40.310815" lon="0.353065">
        <ele>3.911</ele>
        <time>2017-09-27T16:30:48Z</time>
      </trkpt>
      <trkpt lat="40.310883" lon="0.353097">
        <ele>4.459</ele>
        <time>2017-09-27T16:30:47Z</time>
      </trkpt>
      <trkpt lat="40.310950" lon="0.353128">
        <ele>5.091</ele>
        <time>2017-09-27T16:30:46Z</time>
      </trkpt>
      <trkpt lat="40.311017" lon="0.353161">
        <ele>5.668</ele>
        <time>2017-09-27T16:30:45Z</time>
      </trkpt>
      <trkpt lat="40.311083" lon="0.353198">
        <ele>6.242</ele>
        <time>2017-09-27T16:30:44Z</time>
      </trkpt>
      <trkpt lat="40.311149" lon="0.353232">
        <ele>6.426</ele>
        <time>2017-09-27T16:30:43Z</time>
      </trkpt>
      <trkpt lat="40.311214" lon="0.353264">
        <ele>6.208</ele>
        <time>2017-09-27T16:30:42Z</time>
      </trkpt>
      <trkpt lat="40.311277" lon="0.353303">
        <ele>6.119</ele>
        <time>2017-09-27T16:30:41Z</time>
      </trkpt>
      <trkpt lat="40.311343" lon="0.353347">
        <ele>5.826</ele>
        <time>2017-09-27T16:30:40Z</time>
      </trkpt>
      <trkpt lat="40.311410" lon="0.353391">
        <ele>5.170</ele>
        <time>2017-09-27T16:30:39Z</time>
      </trkpt>
      <trkpt lat="40.311480" lon="0.353432">
        <ele>4.438</ele>
        <time>2017-09-27T16:30:38Z</time>
      </trkpt>
      <trkpt lat="40.311551" lon="0.353463">
        <ele>3.866</ele>
        <time>2017-09-27T16:30:37Z</time>
      </trkpt>
      <trkpt lat="40.311622" lon="0.353478">
        <ele>3.539</ele>
        <time>2017-09-27T16:30:36Z</time>
      </trkpt>
      <trkpt lat="40.311694" lon="0.353481">
        <ele>3.447</ele>
        <time>2017-09-27T16:30:35Z</time>
      </trkpt>
      <trkpt lat="40.311766" lon="0.353479">
        <ele>3.399</ele>
        <time>2017-09-27T16:30:34Z</time>
      </trkpt>
      <trkpt lat="40.311836" lon="0.353480">
        <ele>3.199</ele>
        <time>2017-09-27T16:30:33Z</time>
      </trkpt>
      <trkpt lat="40.311905" lon="0.353491">
        <ele>2.907</ele>
        <time>2017-09-27T16:30:32Z</time>
      </trkpt>
      <trkpt lat="40.311971" lon="0.353510">
        <ele>2.827</ele>
        <time>2017-09-27T16:30:31Z</time>
      </trkpt>
      <trkpt lat="40.312036" lon="0.353534">
        <ele>2.608</ele>
        <time>2017-09-27T16:30:30Z</time>
      </trkpt>
      <trkpt lat="40.312103" lon="0.353562">
        <ele>2.512</ele>
        <time>2017-09-27T16:30:29Z</time>
      </trkpt>
      <trkpt lat="40.312170" lon="0.353590">
        <ele>2.269</ele>
        <time>2017-09-27T16:30:28Z</time>
      </trkpt>
      <trkpt lat="40.312238" lon="0.353619">
        <ele>2.123</ele>
        <time>2017-09-27T16:30:27Z</time>
      </trkpt>
      <trkpt lat="40.312307" lon="0.353655">
        <ele>2.551</ele>
        <time>2017-09-27T16:30:26Z</time>
      </trkpt>
      <trkpt lat="40.312377" lon="0.353698">
        <ele>2.899</ele>
        <time>2017-09-27T16:30:25Z</time>
      </trkpt>
      <trkpt lat="40.312445" lon="0.353750">
        <ele>2.812</ele>
        <time>2017-09-27T16:30:24Z</time>
      </trkpt>
      <trkpt lat="40.312558" lon="0.353859">
        <ele>2.650</ele>
        <time>2017-09-27T16:30:22Z</time>
      </trkpt>
      <trkpt lat="40.312616" lon="0.353931">
        <ele>2.852</ele>
        <time>2017-09-27T16:30:21Z</time>
      </trkpt>
      <trkpt lat="40.312663" lon="0.354013">
        <ele>2.963</ele>
        <time>2017-09-27T16:30:20Z</time>
      </trkpt>
      <trkpt lat="40.312708" lon="0.354095">
        <ele>2.944</ele>
        <time>2017-09-27T16:30:19Z</time>
      </trkpt>
      <trkpt lat="40.312749" lon="0.354176">
        <ele>2.918</ele>
        <time>2017-09-27T16:30:18Z</time>
      </trkpt>
      <trkpt lat="40.312791" lon="0.354257">
        <ele>2.808</ele>
        <time>2017-09-27T16:30:17Z</time>
      </trkpt>
      <trkpt lat="40.312833" lon="0.354338">
        <ele>3.119</ele>
        <time>2017-09-27T16:30:16Z</time>
      </trkpt>
      <trkpt lat="40.312878" lon="0.354421">
        <ele>3.226</ele>
        <time>2017-09-27T16:30:15Z</time>
      </trkpt>
      <trkpt lat="40.312925" lon="0.354504">
        <ele>3.590</ele>
        <time>2017-09-27T16:30:14Z</time>
      </trkpt>
      <trkpt lat="40.312971" lon="0.354592">
        <ele>3.568</ele>
        <time>2017-09-27T16:30:13Z</time>
      </trkpt>
      <trkpt lat="40.313017" lon="0.354681">
        <ele>3.276</ele>
        <time>2017-09-27T16:30:12Z</time>
      </trkpt>
      <trkpt lat="40.313059" lon="0.354774">
        <ele>3.069</ele>
        <time>2017-09-27T16:30:11Z</time>
      </trkpt>
      <trkpt lat="40.313098" lon="0.354867">
        <ele>3.157</ele>
        <time>2017-09-27T16:30:10Z</time>
      </trkpt>
      <trkpt lat="40.313135" lon="0.354959">
        <ele>3.149</ele>
        <time>2017-09-27T16:30:09Z</time>
      </trkpt>
      <trkpt lat="40.313175" lon="0.355043">
        <ele>3.075</ele>
        <time>2017-09-27T16:30:08Z</time>
      </trkpt>
      <trkpt lat="40.313221" lon="0.355121">
        <ele>3.028</ele>
        <time>2017-09-27T16:30:07Z</time>
      </trkpt>
      <trkpt lat="40.313276" lon="0.355195">
        <ele>3.020</ele>
        <time>2017-09-27T16:30:06Z</time>
      </trkpt>
      <trkpt lat="40.313492" lon="0.355472">
        <ele>3.608</ele>
        <time>2017-09-27T16:30:02Z</time>
      </trkpt>
      <trkpt lat="40.313553" lon="0.355546">
        <ele>3.880</ele>
        <time>2017-09-27T16:30:01Z</time>
      </trkpt>
      <trkpt lat="40.313613" lon="0.355621">
        <ele>4.087</ele>
        <time>2017-09-27T16:30:00Z</time>
      </trkpt>
      <trkpt lat="40.313673" lon="0.355696">
        <ele>4.071</ele>
        <time>2017-09-27T16:29:59Z</time>
      </trkpt>
      <trkpt lat="40.313731" lon="0.355769">
        <ele>3.849</ele>
        <time>2017-09-27T16:29:58Z</time>
      </trkpt>
      <trkpt lat="40.313792" lon="0.355835">
        <ele>3.477</ele>
        <time>2017-09-27T16:29:57Z</time>
      </trkpt>
      <trkpt lat="40.313862" lon="0.355887">
        <ele>3.390</ele>
        <time>2017-09-27T16:29:56Z</time>
      </trkpt>
      <trkpt lat="40.313937" lon="0.355937">
        <ele>3.758</ele>
        <time>2017-09-27T16:29:55Z</time>
      </trkpt>
      <trkpt lat="40.314014" lon="0.355984">
        <ele>4.460</ele>
        <time>2017-09-27T16:29:54Z</time>
      </trkpt>
      <trkpt lat="40.314094" lon="0.356024">
        <ele>5.239</ele>
        <time>2017-09-27T16:29:53Z</time>
      </trkpt>
      <trkpt lat="40.314173" lon="0.356075">
        <ele>5.901</ele>
        <time>2017-09-27T16:29:52Z</time>
      </trkpt>
      <trkpt lat="40.314247" lon="0.356139">
        <ele>6.821</ele>
        <time>2017-09-27T16:29:51Z</time>
      </trkpt>
      <trkpt lat="40.314313" lon="0.356215">
        <ele>7.208</ele>
        <time>2017-09-27T16:29:50Z</time>
      </trkpt>
      <trkpt lat="40.314376" lon="0.356293">
        <ele>7.626</ele>
        <time>2017-09-27T16:29:49Z</time>
      </trkpt>
      <trkpt lat="40.314438" lon="0.356373">
        <ele>8.063</ele>
        <time>2017-09-27T16:29:48Z</time>
      </trkpt>
      <trkpt lat="40.314499" lon="0.356453">
        <ele>7.767</ele>
        <time>2017-09-27T16:29:47Z</time>
      </trkpt>
      <trkpt lat="40.314563" lon="0.356527">
        <ele>7.415</ele>
        <time>2017-09-27T16:29:46Z</time>
      </trkpt>
      <trkpt lat="40.314622" lon="0.356602">
        <ele>7.053</ele>
        <time>2017-09-27T16:29:45Z</time>
      </trkpt>
      <trkpt lat="40.314678" lon="0.356679">
        <ele>6.686</ele>
        <time>2017-09-27T16:29:44Z</time>
      </trkpt>
      <trkpt lat="40.314738" lon="0.356750">
        <ele>6.264</ele>
        <time>2017-09-27T16:29:43Z</time>
      </trkpt>
      <trkpt lat="40.314798" lon="0.356825">
        <ele>6.076</ele>
        <time>2017-09-27T16:29:42Z</time>
      </trkpt>
      <trkpt lat="40.314859" lon="0.356899">
        <ele>5.947</ele>
        <time>2017-09-27T16:29:41Z</time>
      </trkpt>
      <trkpt lat="40.314919" lon="0.356970">
        <ele>5.929</ele>
        <time>2017-09-27T16:29:40Z</time>
      </trkpt>
      <trkpt lat="40.314985" lon="0.357034">
        <ele>5.921</ele>
        <time>2017-09-27T16:29:39Z</time>
      </trkpt>
      <trkpt lat="40.315054" lon="0.357084">
        <ele>5.708</ele>
        <time>2017-09-27T16:29:38Z</time>
      </trkpt>
      <trkpt lat="40.315128" lon="0.357128">
        <ele>5.687</ele>
        <time>2017-09-27T16:29:37Z</time>
      </trkpt>
      <trkpt lat="40.315205" lon="0.357179">
        <ele>5.794</ele>
        <time>2017-09-27T16:29:36Z</time>
      </trkpt>
      <trkpt lat="40.315281" lon="0.357242">
        <ele>5.968</ele>
        <time>2017-09-27T16:29:35Z</time>
      </trkpt>
      <trkpt lat="40.315353" lon="0.357314">
        <ele>6.026</ele>
        <time>2017-09-27T16:29:34Z</time>
      </trkpt>
      <trkpt lat="40.315442" lon="0.357417">
        <ele>6.334</ele>
        <time>2017-09-27T16:29:33Z</time>
      </trkpt>
      <trkpt lat="40.315512" lon="0.357513">
        <ele>6.727</ele>
        <time>2017-09-27T16:29:32Z</time>
      </trkpt>
      <trkpt lat="40.315582" lon="0.357612">
        <ele>7.265</ele>
        <time>2017-09-27T16:29:31Z</time>
      </trkpt>
      <trkpt lat="40.315653" lon="0.357710">
        <ele>8.027</ele>
        <time>2017-09-27T16:29:30Z</time>
      </trkpt>
      <trkpt lat="40.315725" lon="0.357806">
        <ele>8.741</ele>
        <time>2017-09-27T16:29:29Z</time>
      </trkpt>
      <trkpt lat="40.315796" lon="0.357897">
        <ele>8.981</ele>
        <time>2017-09-27T16:29:28Z</time>
      </trkpt>
      <trkpt lat="40.315870" lon="0.357974">
        <ele>8.709</ele>
        <time>2017-09-27T16:29:27Z</time>
      </trkpt>
      <trkpt lat="40.315947" lon="0.358035">
        <ele>8.508</ele>
        <time>2017-09-27T16:29:26Z</time>
      </trkpt>
      <trkpt lat="40.316022" lon="0.358085">
        <ele>8.537</ele>
        <time>2017-09-27T16:29:25Z</time>
      </trkpt>
      <trkpt lat="40.316091" lon="0.358128">
        <ele>8.454</ele>
        <time>2017-09-27T16:29:24Z</time>
      </trkpt>
      <trkpt lat="40.316162" lon="0.358169">
        <ele>8.388</ele>
        <time>2017-09-27T16:29:23Z</time>
      </trkpt>
      <trkpt lat="40.316235" lon="0.358186">
        <ele>8.356</ele>
        <time>2017-09-27T16:29:22Z</time>
      </trkpt>
      <trkpt lat="40.316305" lon="0.358179">
        <ele>8.534</ele>
        <time>2017-09-27T16:29:21Z</time>
      </trkpt>
      <trkpt lat="40.316369" lon="0.358151">
        <ele>8.967</ele>
        <time>2017-09-27T16:29:20Z</time>
      </trkpt>
      <trkpt lat="40.316460" lon="0.358061">
        <ele>10.295</ele>
        <time>2017-09-27T16:29:18Z</time>
      </trkpt>
      <trkpt lat="40.316502" lon="0.358010">
        <ele>10.757</ele>
        <time>2017-09-27T16:29:17Z</time>
      </trkpt>
      <trkpt lat="40.316542" lon="0.357963">
        <ele>11.343</ele>
        <time>2017-09-27T16:29:16Z</time>
      </trkpt>
      <trkpt lat="40.316579" lon="0.357923">
        <ele>11.864</ele>
        <time>2017-09-27T16:29:15Z</time>
      </trkpt>
      <trkpt lat="40.316622" lon="0.357899">
        <ele>12.310</ele>
        <time>2017-09-27T16:29:14Z</time>
      </trkpt>
      <trkpt lat="40.316664" lon="0.357892">
        <ele>12.708</ele>
        <time>2017-09-27T16:29:13Z</time>
      </trkpt>
      <trkpt lat="40.316701" lon="0.357910">
        <ele>12.997</ele>
        <time>2017-09-27T16:29:12Z</time>
      </trkpt>
      <trkpt lat="40.316728" lon="0.357954">
        <ele>12.734</ele>
        <time>2017-09-27T16:29:11Z</time>
      </trkpt>
      <trkpt lat="40.316727" lon="0.358019">
        <ele>12.018</ele>
        <time>2017-09-27T16:29:10Z</time>
      </trkpt>
      <trkpt lat="40.316703" lon="0.358089">
        <ele>11.286</ele>
        <time>2017-09-27T16:29:09Z</time>
      </trkpt>
      <trkpt lat="40.316664" lon="0.358154">
        <ele>10.354</ele>
        <time>2017-09-27T16:29:08Z</time>
      </trkpt>
      <trkpt lat="40.316646" lon="0.358230">
        <ele>9.697</ele>
        <time>2017-09-27T16:29:07Z</time>
      </trkpt>
      <trkpt lat="40.316651" lon="0.358308">
        <ele>9.115</ele>
        <time>2017-09-27T16:29:06Z</time>
      </trkpt>
      <trkpt lat="40.316679" lon="0.358388">
        <ele>8.857</ele>
        <time>2017-09-27T16:29:05Z</time>
      </trkpt>
      <trkpt lat="40.316728" lon="0.358464">
        <ele>8.993</ele>
        <time>2017-09-27T16:29:04Z</time>
      </trkpt>
      <trkpt lat="40.316796" lon="0.358537">
        <ele>9.465</ele>
        <time>2017-09-27T16:29:03Z</time>
      </trkpt>
      <trkpt lat="40.316866" lon="0.358609">
        <ele>9.921</ele>
        <time>2017-09-27T16:29:02Z</time>
      </trkpt>
      <trkpt lat="40.316930" lon="0.358693">
        <ele>9.908</ele>
        <time>2017-09-27T16:29:01Z</time>
      </trkpt>
      <trkpt lat="40.316988" lon="0.358788">
        <ele>9.872</ele>
        <time>2017-09-27T16:29:00Z</time>
      </trkpt>
      <trkpt lat="40.317043" lon="0.358888">
        <ele>9.459</ele>
        <time>2017-09-27T16:28:59Z</time>
      </trkpt>
      <trkpt lat="40.317096" lon="0.358984">
        <ele>9.183</ele>
        <time>2017-09-27T16:28:58Z</time>
      </trkpt>
      <trkpt lat="40.317148" lon="0.359074">
        <ele>8.691</ele>
        <time>2017-09-27T16:28:57Z</time>
      </trkpt>
      <trkpt lat="40.317210" lon="0.359150">
        <ele>8.199</ele>
        <time>2017-09-27T16:28:56Z</time>
      </trkpt>
      <trkpt lat="40.317276" lon="0.359220">
        <ele>8.732</ele>
        <time>2017-09-27T16:28:55Z</time>
      </trkpt>
      <trkpt lat="40.317346" lon="0.359284">
        <ele>9.230</ele>
        <time>2017-09-27T16:28:54Z</time>
      </trkpt>
      <trkpt lat="40.317420" lon="0.359341">
        <ele>9.612</ele>
        <time>2017-09-27T16:28:53Z</time>
      </trkpt>
      <trkpt lat="40.317499" lon="0.359386">
        <ele>9.828</ele>
        <time>2017-09-27T16:28:52Z</time>
      </trkpt>
      <trkpt lat="40.317581" lon="0.359417">
        <ele>10.689</ele>
        <time>2017-09-27T16:28:51Z</time>
      </trkpt>
      <trkpt lat="40.317666" lon="0.359432">
        <ele>11.617</ele>
        <time>2017-09-27T16:28:50Z</time>
      </trkpt>
      <trkpt lat="40.317752" lon="0.359431">
        <ele>12.808</ele>
        <time>2017-09-27T16:28:49Z</time>
      </trkpt>
      <trkpt lat="40.317839" lon="0.359428">
        <ele>13.795</ele>
        <time>2017-09-27T16:28:48Z</time>
      </trkpt>
      <trkpt lat="40.317927" lon="0.359426">
        <ele>14.372</ele>
        <time>2017-09-27T16:28:47Z</time>
      </trkpt>
      <trkpt lat="40.318012" lon="0.359438">
        <ele>14.896</ele>
        <time>2017-09-27T16:28:46Z</time>
      </trkpt>
      <trkpt lat="40.318094" lon="0.359478">
        <ele>14.764</ele>
        <time>2017-09-27T16:28:45Z</time>
      </trkpt>
      <trkpt lat="40.318170" lon="0.359532">
        <ele>14.332</ele>
        <time>2017-09-27T16:28:44Z</time>
      </trkpt>
      <trkpt lat="40.318249" lon="0.359577">
        <ele>14.195</ele>
        <time>2017-09-27T16:28:43Z</time>
      </trkpt>
      <trkpt lat="40.318332" lon="0.359619">
        <ele>14.193</ele>
        <time>2017-09-27T16:28:42Z</time>
      </trkpt>
      <trkpt lat="40.318415" lon="0.359660">
        <ele>14.025</ele>
        <time>2017-09-27T16:28:41Z</time>
      </trkpt>
      <trkpt lat="40.318494" lon="0.359708">
        <ele>13.817</ele>
        <time>2017-09-27T16:28:40Z</time>
      </trkpt>
      <trkpt lat="40.318571" lon="0.359742">
        <ele>13.687</ele>
        <time>2017-09-27T16:28:39Z</time>
      </trkpt>
      <trkpt lat="40.318643" lon="0.359772">
        <ele>13.815</ele>
        <time>2017-09-27T16:28:38Z</time>
      </trkpt>
      <trkpt lat="40.318709" lon="0.359806">
        <ele>14.308</ele>
        <time>2017-09-27T16:28:37Z</time>
      </trkpt>
      <trkpt lat="40.318773" lon="0.359865">
        <ele>14.544</ele>
        <time>2017-09-27T16:28:36Z</time>
      </trkpt>
      <trkpt lat="40.318825" lon="0.359938">
        <ele>14.631</ele>
        <time>2017-09-27T16:28:35Z</time>
      </trkpt>
      <trkpt lat="40.318879" lon="0.360020">
        <ele>14.645</ele>
        <time>2017-09-27T16:28:34Z</time>
      </trkpt>
      <trkpt lat="40.318926" lon="0.360111">
        <ele>14.653</ele>
        <time>2017-09-27T16:28:33Z</time>
      </trkpt>
      <trkpt lat="40.318966" lon="0.360209">
        <ele>14.541</ele>
        <time>2017-09-27T16:28:32Z</time>
      </trkpt>
      <trkpt lat="40.319006" lon="0.360310">
        <ele>14.964</ele>
        <time>2017-09-27T16:28:31Z</time>
      </trkpt>
      <trkpt lat="40.319052" lon="0.360405">
        <ele>15.612</ele>
        <time>2017-09-27T16:28:30Z</time>
      </trkpt>
      <trkpt lat="40.319104" lon="0.360493">
        <ele>16.294</ele>
        <time>2017-09-27T16:28:29Z</time>
      </trkpt>
      <trkpt lat="40.319159" lon="0.360572">
        <ele>16.861</ele>
        <time>2017-09-27T16:28:28Z</time>
      </trkpt>
      <trkpt lat="40.319217" lon="0.360641">
        <ele>17.421</ele>
        <time>2017-09-27T16:28:27Z</time>
      </trkpt>
      <trkpt lat="40.319270" lon="0.360716">
        <ele>17.713</ele>
        <time>2017-09-27T16:28:26Z</time>
      </trkpt>
      <trkpt lat="40.319325" lon="0.360788">
        <ele>18.008</ele>
        <time>2017-09-27T16:28:25Z</time>
      </trkpt>
      <trkpt lat="40.319383" lon="0.360850">
        <ele>18.129</ele>
        <time>2017-09-27T16:28:24Z</time>
      </trkpt>
      <trkpt lat="40.319491" lon="0.360938">
        <ele>17.796</ele>
        <time>2017-09-27T16:28:22Z</time>
      </trkpt>
      <trkpt lat="40.319553" lon="0.360991">
        <ele>17.180</ele>
        <time>2017-09-27T16:28:21Z</time>
      </trkpt>
      <trkpt lat="40.319608" lon="0.361046">
        <ele>16.558</ele>
        <time>2017-09-27T16:28:20Z</time>
      </trkpt>
      <trkpt lat="40.319646" lon="0.361112">
        <ele>15.736</ele>
        <time>2017-09-27T16:28:19Z</time>
      </trkpt>
      <trkpt lat="40.319680" lon="0.361188">
        <ele>14.569</ele>
        <time>2017-09-27T16:28:18Z</time>
      </trkpt>
      <trkpt lat="40.319701" lon="0.361285">
        <ele>12.857</ele>
        <time>2017-09-27T16:28:17Z</time>
      </trkpt>
      <trkpt lat="40.319705" lon="0.361364">
        <ele>11.469</ele>
        <time>2017-09-27T16:28:16Z</time>
      </trkpt>
      <trkpt lat="40.319702" lon="0.361444">
        <ele>10.586</ele>
        <time>2017-09-27T16:28:15Z</time>
      </trkpt>
      <trkpt lat="40.319709" lon="0.361528">
        <ele>9.960</ele>
        <time>2017-09-27T16:28:14Z</time>
      </trkpt>
      <trkpt lat="40.319739" lon="0.361604">
        <ele>9.626</ele>
        <time>2017-09-27T16:28:13Z</time>
      </trkpt>
      <trkpt lat="40.319796" lon="0.361668">
        <ele>9.508</ele>
        <time>2017-09-27T16:28:12Z</time>
      </trkpt>
      <trkpt lat="40.319874" lon="0.361696">
        <ele>9.831</ele>
        <time>2017-09-27T16:28:11Z</time>
      </trkpt>
      <trkpt lat="40.319958" lon="0.361696">
        <ele>10.588</ele>
        <time>2017-09-27T16:28:10Z</time>
      </trkpt>
      <trkpt lat="40.320047" lon="0.361668">
        <ele>11.552</ele>
        <time>2017-09-27T16:28:09Z</time>
      </trkpt>
      <trkpt lat="40.320140" lon="0.361633">
        <ele>13.090</ele>
        <time>2017-09-27T16:28:08Z</time>
      </trkpt>
      <trkpt lat="40.320244" lon="0.361632">
        <ele>14.118</ele>
        <time>2017-09-27T16:28:07Z</time>
      </trkpt>
      <trkpt lat="40.320350" lon="0.361668">
        <ele>14.861</ele>
        <time>2017-09-27T16:28:06Z</time>
      </trkpt>
      <trkpt lat="40.320456" lon="0.361704">
        <ele>15.919</ele>
        <time>2017-09-27T16:28:05Z</time>
      </trkpt>
      <trkpt lat="40.320560" lon="0.361720">
        <ele>17.111</ele>
        <time>2017-09-27T16:28:04Z</time>
      </trkpt>
      <trkpt lat="40.320662" lon="0.361708">
        <ele>18.283</ele>
        <time>2017-09-27T16:28:03Z</time>
      </trkpt>
      <trkpt lat="40.320762" lon="0.361695">
        <ele>19.325</ele>
        <time>2017-09-27T16:28:02Z</time>
      </trkpt>
      <trkpt lat="40.320928" lon="0.361698">
        <ele>21.517</ele>
        <time>2017-09-27T16:28:00Z</time>
      </trkpt>
      <trkpt lat="40.321015" lon="0.361711">
        <ele>22.908</ele>
        <time>2017-09-27T16:27:59Z</time>
      </trkpt>
      <trkpt lat="40.321102" lon="0.361725">
        <ele>24.321</ele>
        <time>2017-09-27T16:27:58Z</time>
      </trkpt>
      <trkpt lat="40.321178" lon="0.361731">
        <ele>25.688</ele>
        <time>2017-09-27T16:27:57Z</time>
      </trkpt>
      <trkpt lat="40.321245" lon="0.361755">
        <ele>26.962</ele>
        <time>2017-09-27T16:27:56Z</time>
      </trkpt>
      <trkpt lat="40.321299" lon="0.361775">
        <ele>27.940</ele>
        <time>2017-09-27T16:27:55Z</time>
      </trkpt>
      <trkpt lat="40.321338" lon="0.361810">
        <ele>28.748</ele>
        <time>2017-09-27T16:27:54Z</time>
      </trkpt>
      <trkpt lat="40.321339" lon="0.361866">
        <ele>28.961</ele>
        <time>2017-09-27T16:27:53Z</time>
      </trkpt>
      <trkpt lat="40.321301" lon="0.361912">
        <ele>28.629</ele>
        <time>2017-09-27T16:27:52Z</time>
      </trkpt>
      <trkpt lat="40.321234" lon="0.361930">
        <ele>27.751</ele>
        <time>2017-09-27T16:27:51Z</time>
      </trkpt>
      <trkpt lat="40.321159" lon="0.361942">
        <ele>26.766</ele>
        <time>2017-09-27T16:27:50Z</time>
      </trkpt>
      <trkpt lat="40.321067" lon="0.361976">
        <ele>25.829</ele>
        <time>2017-09-27T16:27:49Z</time>
      </trkpt>
      <trkpt lat="40.320979" lon="0.362012">
        <ele>24.821</ele>
        <time>2017-09-27T16:27:48Z</time>
      </trkpt>
      <trkpt lat="40.320893" lon="0.362055">
        <ele>24.108</ele>
        <time>2017-09-27T16:27:47Z</time>
      </trkpt>
      <trkpt lat="40.320816" lon="0.362104">
        <ele>23.629</ele>
        <time>2017-09-27T16:27:46Z</time>
      </trkpt>
      <trkpt lat="40.320736" lon="0.362146">
        <ele>23.016</ele>
        <time>2017-09-27T16:27:45Z</time>
      </trkpt>
      <trkpt lat="40.320657" lon="0.362191">
        <ele>22.360</ele>
        <time>2017-09-27T16:27:44Z</time>
      </trkpt>
      <trkpt lat="40.320582" lon="0.362250">
        <ele>21.898</ele>
        <time>2017-09-27T16:27:43Z</time>
      </trkpt>
      <trkpt lat="40.320525" lon="0.362320">
        <ele>21.266</ele>
        <time>2017-09-27T16:27:42Z</time>
      </trkpt>
      <trkpt lat="40.320481" lon="0.362383">
        <ele>20.779</ele>
        <time>2017-09-27T16:27:41Z</time>
      </trkpt>
      <trkpt lat="40.320448" lon="0.362450">
        <ele>20.427</ele>
        <time>2017-09-27T16:27:40Z</time>
      </trkpt>
      <trkpt lat="40.320428" lon="0.362522">
        <ele>20.429</ele>
        <time>2017-09-27T16:27:39Z</time>
      </trkpt>
      <trkpt lat="40.320440" lon="0.362578">
        <ele>21.123</ele>
        <time>2017-09-27T16:27:38Z</time>
      </trkpt>
      <trkpt lat="40.320471" lon="0.362589">
        <ele>22.183</ele>
        <time>2017-09-27T16:27:37Z</time>
      </trkpt>
      <trkpt lat="40.320506" lon="0.362558">
        <ele>23.011</ele>
        <time>2017-09-27T16:27:36Z</time>
      </trkpt>
      <trkpt lat="40.320541" lon="0.362497">
        <ele>23.508</ele>
        <time>2017-09-27T16:27:35Z</time>
      </trkpt>
      <trkpt lat="40.320587" lon="0.362430">
        <ele>23.955</ele>
        <time>2017-09-27T16:27:34Z</time>
      </trkpt>
      <trkpt lat="40.320653" lon="0.362371">
        <ele>24.512</ele>
        <time>2017-09-27T16:27:33Z</time>
      </trkpt>
      <trkpt lat="40.320732" lon="0.362338">
        <ele>25.796</ele>
        <time>2017-09-27T16:27:32Z</time>
      </trkpt>
      <trkpt lat="40.320874" lon="0.362314">
        <ele>28.074</ele>
        <time>2017-09-27T16:27:31Z</time>
      </trkpt>
      <trkpt lat="40.320975" lon="0.362304">
        <ele>29.432</ele>
        <time>2017-09-27T16:27:30Z</time>
      </trkpt>
      <trkpt lat="40.321076" lon="0.362299">
        <ele>31.045</ele>
        <time>2017-09-27T16:27:29Z</time>
      </trkpt>
      <trkpt lat="40.321177" lon="0.362299">
        <ele>32.113</ele>
        <time>2017-09-27T16:27:28Z</time>
      </trkpt>
      <trkpt lat="40.321280" lon="0.362307">
        <ele>33.065</ele>
        <time>2017-09-27T16:27:27Z</time>
      </trkpt>
      <trkpt lat="40.321384" lon="0.362317">
        <ele>34.053</ele>
        <time>2017-09-27T16:27:26Z</time>
      </trkpt>
      <trkpt lat="40.321489" lon="0.362329">
        <ele>36.004</ele>
        <time>2017-09-27T16:27:25Z</time>
      </trkpt>
      <trkpt lat="40.321590" lon="0.362339">
        <ele>38.114</ele>
        <time>2017-09-27T16:27:24Z</time>
      </trkpt>
      <trkpt lat="40.321687" lon="0.362342">
        <ele>39.908</ele>
        <time>2017-09-27T16:27:23Z</time>
      </trkpt>
      <trkpt lat="40.321780" lon="0.362334">
        <ele>41.318</ele>
        <time>2017-09-27T16:27:22Z</time>
      </trkpt>
      <trkpt lat="40.321867" lon="0.362316">
        <ele>42.435</ele>
        <time>2017-09-27T16:27:21Z</time>
      </trkpt>
      <trkpt lat="40.321947" lon="0.362296">
        <ele>43.479</ele>
        <time>2017-09-27T16:27:20Z</time>
      </trkpt>
      <trkpt lat="40.322017" lon="0.362286">
        <ele>43.957</ele>
        <time>2017-09-27T16:27:19Z</time>
      </trkpt>
      <trkpt lat="40.322069" lon="0.362291">
        <ele>44.665</ele>
        <time>2017-09-27T16:27:18Z</time>
      </trkpt>
      <trkpt lat="40.322097" lon="0.362318">
        <ele>45.438</ele>
        <time>2017-09-27T16:27:17Z</time>
      </trkpt>
      <trkpt lat="40.322100" lon="0.362356">
        <ele>46.126</ele>
        <time>2017-09-27T16:27:16Z</time>
      </trkpt>
      <trkpt lat="40.322071" lon="0.362396">
        <ele>46.548</ele>
        <time>2017-09-27T16:27:15Z</time>
      </trkpt>
      <trkpt lat="40.322014" lon="0.362424">
        <ele>46.452</ele>
        <time>2017-09-27T16:27:14Z</time>
      </trkpt>
      <trkpt lat="40.321932" lon="0.362447">
        <ele>45.953</ele>
        <time>2017-09-27T16:27:13Z</time>
      </trkpt>
      <trkpt lat="40.321840" lon="0.362482">
        <ele>45.108</ele>
        <time>2017-09-27T16:27:12Z</time>
      </trkpt>
      <trkpt lat="40.321744" lon="0.362521">
        <ele>44.408</ele>
        <time>2017-09-27T16:27:11Z</time>
      </trkpt>
      <trkpt lat="40.321648" lon="0.362561">
        <ele>43.288</ele>
        <time>2017-09-27T16:27:10Z</time>
      </trkpt>
      <trkpt lat="40.321556" lon="0.362604">
        <ele>41.085</ele>
        <time>2017-09-27T16:27:09Z</time>
      </trkpt>
      <trkpt lat="40.321467" lon="0.362650">
        <ele>38.829</ele>
        <time>2017-09-27T16:27:08Z</time>
      </trkpt>
      <trkpt lat="40.321384" lon="0.362691">
        <ele>36.677</ele>
        <time>2017-09-27T16:27:07Z</time>
      </trkpt>
      <trkpt lat="40.321304" lon="0.362726">
        <ele>35.925</ele>
        <time>2017-09-27T16:27:06Z</time>
      </trkpt>
      <trkpt lat="40.321234" lon="0.362770">
        <ele>35.328</ele>
        <time>2017-09-27T16:27:05Z</time>
      </trkpt>
      <trkpt lat="40.321183" lon="0.362835">
        <ele>34.126</ele>
        <time>2017-09-27T16:27:04Z</time>
      </trkpt>
      <trkpt lat="40.321161" lon="0.362913">
        <ele>32.998</ele>
        <time>2017-09-27T16:27:03Z</time>
      </trkpt>
      <trkpt lat="40.321175" lon="0.362986">
        <ele>32.252</ele>
        <time>2017-09-27T16:27:02Z</time>
      </trkpt>
      <trkpt lat="40.321220" lon="0.363025">
        <ele>32.753</ele>
        <time>2017-09-27T16:27:01Z</time>
      </trkpt>
      <trkpt lat="40.321330" lon="0.363006">
        <ele>35.008</ele>
        <time>2017-09-27T16:26:59Z</time>
      </trkpt>
      <trkpt lat="40.321406" lon="0.362973">
        <ele>36.908</ele>
        <time>2017-09-27T16:26:58Z</time>
      </trkpt>
      <trkpt lat="40.321495" lon="0.362947">
        <ele>40.128</ele>
        <time>2017-09-27T16:26:57Z</time>
      </trkpt>
      <trkpt lat="40.321594" lon="0.362928">
        <ele>43.585</ele>
        <time>2017-09-27T16:26:56Z</time>
      </trkpt>
      <trkpt lat="40.321702" lon="0.362910">
        <ele>46.999</ele>
        <time>2017-09-27T16:26:55Z</time>
      </trkpt>
      <trkpt lat="40.321816" lon="0.362896">
        <ele>49.717</ele>
        <time>2017-09-27T16:26:54Z</time>
      </trkpt>
      <trkpt lat="40.321928" lon="0.362888">
        <ele>52.425</ele>
        <time>2017-09-27T16:26:53Z</time>
      </trkpt>
      <trkpt lat="40.322037" lon="0.362884">
        <ele>54.018</ele>
        <time>2017-09-27T16:26:52Z</time>
      </trkpt>
      <trkpt lat="40.322143" lon="0.362887">
        <ele>55.416</ele>
        <time>2017-09-27T16:26:51Z</time>
      </trkpt>
      <trkpt lat="40.322243" lon="0.362894">
        <ele>56.558</ele>
        <time>2017-09-27T16:26:50Z</time>
      </trkpt>
      <trkpt lat="40.322341" lon="0.362907">
        <ele>56.945</ele>
        <time>2017-09-27T16:26:49Z</time>
      </trkpt>
      <trkpt lat="40.322436" lon="0.362917">
        <ele>57.347</ele>
        <time>2017-09-27T16:26:48Z</time>
      </trkpt>
      <trkpt lat="40.322529" lon="0.362927">
        <ele>57.911</ele>
        <time>2017-09-27T16:26:47Z</time>
      </trkpt>
      <trkpt lat="40.322619" lon="0.362933">
        <ele>59.108</ele>
        <time>2017-09-27T16:26:46Z</time>
      </trkpt>
      <trkpt lat="40.322702" lon="0.362935">
        <ele>60.237</ele>
        <time>2017-09-27T16:26:45Z</time>
      </trkpt>
      <trkpt lat="40.322776" lon="0.362944">
        <ele>61.244</ele>
        <time>2017-09-27T16:26:44Z</time>
      </trkpt>
      <trkpt lat="40.322839" lon="0.362960">
        <ele>62.558</ele>
        <time>2017-09-27T16:26:43Z</time>
      </trkpt>
      <trkpt lat="40.322890" lon="0.362981">
        <ele>63.556</ele>
        <time>2017-09-27T16:26:42Z</time>
      </trkpt>
      <trkpt lat="40.322936" lon="0.363016">
        <ele>64.394</ele>
        <time>2017-09-27T16:26:41Z</time>
      </trkpt>
      <trkpt lat="40.322970" lon="0.363071">
        <ele>64.667</ele>
        <time>2017-09-27T16:26:40Z</time>
      </trkpt>
      <trkpt lat="40.323003" lon="0.363130">
        <ele>64.295</ele>
        <time>2017-09-27T16:26:39Z</time>
      </trkpt>
      <trkpt lat="40.323047" lon="0.363181">
        <ele>64.187</ele>
        <time>2017-09-27T16:26:38Z</time>
      </trkpt>
      <trkpt lat="40.323103" lon="0.363210">
        <ele>64.378</ele>
        <time>2017-09-27T16:26:37Z</time>
      </trkpt>
      <trkpt lat="40.323161" lon="0.363231">
        <ele>64.733</ele>
        <time>2017-09-27T16:26:36Z</time>
      </trkpt>
      <trkpt lat="40.323223" lon="0.363253">
        <ele>64.926</ele>
        <time>2017-09-27T16:26:35Z</time>
      </trkpt>
      <trkpt lat="40.323288" lon="0.363275">
        <ele>65.008</ele>
        <time>2017-09-27T16:26:34Z</time>
      </trkpt>
      <trkpt lat="40.323354" lon="0.363293">
        <ele>65.360</ele>
        <time>2017-09-27T16:26:33Z</time>
      </trkpt>
      <trkpt lat="40.323424" lon="0.363301">
        <ele>65.917</ele>
        <time>2017-09-27T16:26:32Z</time>
      </trkpt>
      <trkpt lat="40.323496" lon="0.363297">
        <ele>66.881</ele>
        <time>2017-09-27T16:26:31Z</time>
      </trkpt>
      <trkpt lat="40.323571" lon="0.363282">
        <ele>68.249</ele>
        <time>2017-09-27T16:26:30Z</time>
      </trkpt>
      <trkpt lat="40.323646" lon="0.363260">
        <ele>69.727</ele>
        <time>2017-09-27T16:26:29Z</time>
      </trkpt>
      <trkpt lat="40.323719" lon="0.363230">
        <ele>71.420</ele>
        <time>2017-09-27T16:26:28Z</time>
      </trkpt>
      <trkpt lat="40.323796" lon="0.363210">
        <ele>72.768</ele>
        <time>2017-09-27T16:26:27Z</time>
      </trkpt>
      <trkpt lat="40.323873" lon="0.363215">
        <ele>73.340</ele>
        <time>2017-09-27T16:26:26Z</time>
      </trkpt>
      <trkpt lat="40.323950" lon="0.363235">
        <ele>73.154</ele>
        <time>2017-09-27T16:26:25Z</time>
      </trkpt>
      <trkpt lat="40.324026" lon="0.363269">
        <ele>72.256</ele>
        <time>2017-09-27T16:26:24Z</time>
      </trkpt>
      <trkpt lat="40.324098" lon="0.363311">
        <ele>70.811</ele>
        <time>2017-09-27T16:26:23Z</time>
      </trkpt>
      <trkpt lat="40.324171" lon="0.363358">
        <ele>69.008</ele>
        <time>2017-09-27T16:26:22Z</time>
      </trkpt>
      <trkpt lat="40.324246" lon="0.363399">
        <ele>68.038</ele>
        <time>2017-09-27T16:26:21Z</time>
      </trkpt>
      <trkpt lat="40.324316" lon="0.363445">
        <ele>66.895</ele>
        <time>2017-09-27T16:26:20Z</time>
      </trkpt>
      <trkpt lat="40.324390" lon="0.363485">
        <ele>65.989</ele>
        <time>2017-09-27T16:26:19Z</time>
      </trkpt>
      <trkpt lat="40.324476" lon="0.363508">
        <ele>65.747</ele>
        <time>2017-09-27T16:26:18Z</time>
      </trkpt>
      <trkpt lat="40.324566" lon="0.363514">
        <ele>66.085</ele>
        <time>2017-09-27T16:26:17Z</time>
      </trkpt>
      <trkpt lat="40.324655" lon="0.363503">
        <ele>67.128</ele>
        <time>2017-09-27T16:26:16Z</time>
      </trkpt>
      <trkpt lat="40.324741" lon="0.363483">
        <ele>68.296</ele>
        <time>2017-09-27T16:26:15Z</time>
      </trkpt>
      <trkpt lat="40.324827" lon="0.363453">
        <ele>69.448</ele>
        <time>2017-09-27T16:26:14Z</time>
      </trkpt>
      <trkpt lat="40.324911" lon="0.363417">
        <ele>70.766</ele>
        <time>2017-09-27T16:26:13Z</time>
      </trkpt>
      <trkpt lat="40.324989" lon="0.363372">
        <ele>72.029</ele>
        <time>2017-09-27T16:26:12Z</time>
      </trkpt>
      <trkpt lat="40.325054" lon="0.363315">
        <ele>74.521</ele>
        <time>2017-09-27T16:26:11Z</time>
      </trkpt>
      <trkpt lat="40.325111" lon="0.363262">
        <ele>77.208</ele>
        <time>2017-09-27T16:26:10Z</time>
      </trkpt>
      <trkpt lat="40.325170" lon="0.363234">
        <ele>78.679</ele>
        <time>2017-09-27T16:26:09Z</time>
      </trkpt>
      <trkpt lat="40.325232" lon="0.363243">
        <ele>78.956</ele>
        <time>2017-09-27T16:26:08Z</time>
      </trkpt>
      <trkpt lat="40.325285" lon="0.363288">
        <ele>78.480</ele>
        <time>2017-09-27T16:26:07Z</time>
      </trkpt>
      <trkpt lat="40.325336" lon="0.363345">
        <ele>78.658</ele>
        <time>2017-09-27T16:26:06Z</time>
      </trkpt>
      <trkpt lat="40.325389" lon="0.363404">
        <ele>79.216</ele>
        <time>2017-09-27T16:26:05Z</time>
      </trkpt>
      <trkpt lat="40.325439" lon="0.363453">
        <ele>79.999</ele>
        <time>2017-09-27T16:26:04Z</time>
      </trkpt>
      <trkpt lat="40.325477" lon="0.363514">
        <ele>80.067</ele>
        <time>2017-09-27T16:26:03Z</time>
      </trkpt>
      <trkpt lat="40.325495" lon="0.363584">
        <ele>79.389</ele>
        <time>2017-09-27T16:26:02Z</time>
      </trkpt>
      <trkpt lat="40.325493" lon="0.363659">
        <ele>77.875</ele>
        <time>2017-09-27T16:26:01Z</time>
      </trkpt>
      <trkpt lat="40.325480" lon="0.363730">
        <ele>76.028</ele>
        <time>2017-09-27T16:26:00Z</time>
      </trkpt>
      <trkpt lat="40.325466" lon="0.363800">
        <ele>74.220</ele>
        <time>2017-09-27T16:25:59Z</time>
      </trkpt>
      <trkpt lat="40.325459" lon="0.363891">
        <ele>72.208</ele>
        <time>2017-09-27T16:25:58Z</time>
      </trkpt>
      <trkpt lat="40.325457" lon="0.363965">
        <ele>71.460</ele>
        <time>2017-09-27T16:25:57Z</time>
      </trkpt>
      <trkpt lat="40.325463" lon="0.364041">
        <ele>70.967</ele>
        <time>2017-09-27T16:25:56Z</time>
      </trkpt>
      <trkpt lat="40.325482" lon="0.364115">
        <ele>70.961</ele>
        <time>2017-09-27T16:25:55Z</time>
      </trkpt>
      <trkpt lat="40.325507" lon="0.364186">
        <ele>71.139</ele>
        <time>2017-09-27T16:25:54Z</time>
      </trkpt>
      <trkpt lat="40.325537" lon="0.364254">
        <ele>71.767</ele>
        <time>2017-09-27T16:25:53Z</time>
      </trkpt>
      <trkpt lat="40.325568" lon="0.364318">
        <ele>72.640</ele>
        <time>2017-09-27T16:25:52Z</time>
      </trkpt>
      <trkpt lat="40.325600" lon="0.364380">
        <ele>73.978</ele>
        <time>2017-09-27T16:25:51Z</time>
      </trkpt>
      <trkpt lat="40.325632" lon="0.364439">
        <ele>75.260</ele>
        <time>2017-09-27T16:25:50Z</time>
      </trkpt>
      <trkpt lat="40.325665" lon="0.364497">
        <ele>75.254</ele>
        <time>2017-09-27T16:25:49Z</time>
      </trkpt>
      <trkpt lat="40.325695" lon="0.364553">
        <ele>74.856</ele>
        <time>2017-09-27T16:25:48Z</time>
      </trkpt>
      <trkpt lat="40.325729" lon="0.364605">
        <ele>74.711</ele>
        <time>2017-09-27T16:25:47Z</time>
      </trkpt>
      <trkpt lat="40.325764" lon="0.364655">
        <ele>74.508</ele>
        <time>2017-09-27T16:25:46Z</time>
      </trkpt>
      <trkpt lat="40.325799" lon="0.364704">
        <ele>74.218</ele>
        <time>2017-09-27T16:25:45Z</time>
      </trkpt>
      <trkpt lat="40.325834" lon="0.364752">
        <ele>74.245</ele>
        <time>2017-09-27T16:25:44Z</time>
      </trkpt>
      <trkpt lat="40.325871" lon="0.364800">
        <ele>75.319</ele>
        <time>2017-09-27T16:25:43Z</time>
      </trkpt>
      <trkpt lat="40.325907" lon="0.364846">
        <ele>76.247</ele>
        <time>2017-09-27T16:25:42Z</time>
      </trkpt>
      <trkpt lat="40.325945" lon="0.364894">
        <ele>76.825</ele>
        <time>2017-09-27T16:25:41Z</time>
      </trkpt>
      <trkpt lat="40.325980" lon="0.364942">
        <ele>76.878</ele>
        <time>2017-09-27T16:25:40Z</time>
      </trkpt>
      <trkpt lat="40.326011" lon="0.364993">
        <ele>76.356</ele>
        <time>2017-09-27T16:25:39Z</time>
      </trkpt>
      <trkpt lat="40.326045" lon="0.365039">
        <ele>76.198</ele>
        <time>2017-09-27T16:25:38Z</time>
      </trkpt>
      <trkpt lat="40.326080" lon="0.365081">
        <ele>76.084</ele>
        <time>2017-09-27T16:25:37Z</time>
      </trkpt>
      <trkpt lat="40.326111" lon="0.365122">
        <ele>75.707</ele>
        <time>2017-09-27T16:25:36Z</time>
      </trkpt>
      <trkpt lat="40.326139" lon="0.365162">
        <ele>75.217</ele>
        <time>2017-09-27T16:25:35Z</time>
      </trkpt>
      <trkpt lat="40.326163" lon="0.365204">
        <ele>74.408</ele>
        <time>2017-09-27T16:25:34Z</time>
      </trkpt>
      <trkpt lat="40.326185" lon="0.365242">
        <ele>73.611</ele>
        <time>2017-09-27T16:25:33Z</time>
      </trkpt>
      <trkpt lat="40.326203" lon="0.365278">
        <ele>72.688</ele>
        <time>2017-09-27T16:25:32Z</time>
      </trkpt>
      <trkpt lat="40.326221" lon="0.365317">
        <ele>72.262</ele>
        <time>2017-09-27T16:25:31Z</time>
      </trkpt>
      <trkpt lat="40.326269" lon="0.365385">
        <ele>71.940</ele>
        <time>2017-09-27T16:25:29Z</time>
      </trkpt>
      <trkpt lat="40.326295" lon="0.365428">
        <ele>71.448</ele>
        <time>2017-09-27T16:25:28Z</time>
      </trkpt>
      <trkpt lat="40.326324" lon="0.365469">
        <ele>71.081</ele>
        <time>2017-09-27T16:25:27Z</time>
      </trkpt>
      <trkpt lat="40.326356" lon="0.365507">
        <ele>70.729</ele>
        <time>2017-09-27T16:25:26Z</time>
      </trkpt>
      <trkpt lat="40.326388" lon="0.365545">
        <ele>70.441</ele>
        <time>2017-09-27T16:25:25Z</time>
      </trkpt>
      <trkpt lat="40.326422" lon="0.365575">
        <ele>70.789</ele>
        <time>2017-09-27T16:25:24Z</time>
      </trkpt>
      <trkpt lat="40.326457" lon="0.365602">
        <ele>71.306</ele>
        <time>2017-09-27T16:25:23Z</time>
      </trkpt>
      <trkpt lat="40.326493" lon="0.365627">
        <ele>72.026</ele>
        <time>2017-09-27T16:25:22Z</time>
      </trkpt>
      <trkpt lat="40.326531" lon="0.365648">
        <ele>72.808</ele>
        <time>2017-09-27T16:25:21Z</time>
      </trkpt>
      <trkpt lat="40.326571" lon="0.365669">
        <ele>73.761</ele>
        <time>2017-09-27T16:25:20Z</time>
      </trkpt>
      <trkpt lat="40.326611" lon="0.365694">
        <ele>74.478</ele>
        <time>2017-09-27T16:25:19Z</time>
      </trkpt>
      <trkpt lat="40.326653" lon="0.365720">
        <ele>75.262</ele>
        <time>2017-09-27T16:25:18Z</time>
      </trkpt>
      <trkpt lat="40.326695" lon="0.365743">
        <ele>75.870</ele>
        <time>2017-09-27T16:25:17Z</time>
      </trkpt>
      <trkpt lat="40.326737" lon="0.365765">
        <ele>76.498</ele>
        <time>2017-09-27T16:25:16Z</time>
      </trkpt>
      <trkpt lat="40.326780" lon="0.365791">
        <ele>77.061</ele>
        <time>2017-09-27T16:25:15Z</time>
      </trkpt>
      <trkpt lat="40.326823" lon="0.365814">
        <ele>77.739</ele>
        <time>2017-09-27T16:25:14Z</time>
      </trkpt>
      <trkpt lat="40.326866" lon="0.365832">
        <ele>78.541</ele>
        <time>2017-09-27T16:25:13Z</time>
      </trkpt>
      <trkpt lat="40.326907" lon="0.365855">
        <ele>79.063</ele>
        <time>2017-09-27T16:25:12Z</time>
      </trkpt>
      <trkpt lat="40.326944" lon="0.365881">
        <ele>79.344</ele>
        <time>2017-09-27T16:25:11Z</time>
      </trkpt>
      <trkpt lat="40.326969" lon="0.365921">
        <ele>78.618</ele>
        <time>2017-09-27T16:25:10Z</time>
      </trkpt>
      <trkpt lat="40.326992" lon="0.365963">
        <ele>77.808</ele>
        <time>2017-09-27T16:25:09Z</time>
      </trkpt>
      <trkpt lat="40.327013" lon="0.366005">
        <ele>76.949</ele>
        <time>2017-09-27T16:25:08Z</time>
      </trkpt>
      <trkpt lat="40.327029" lon="0.366045">
        <ele>76.076</ele>
        <time>2017-09-27T16:25:07Z</time>
      </trkpt>
      <trkpt lat="40.327045" lon="0.366081">
        <ele>75.370</ele>
        <time>2017-09-27T16:25:06Z</time>
      </trkpt>
      <trkpt lat="40.327052" lon="0.366124">
        <ele>74.138</ele>
        <time>2017-09-27T16:25:05Z</time>
      </trkpt>
      <trkpt lat="40.327059" lon="0.366163">
        <ele>73.066</ele>
        <time>2017-09-27T16:25:04Z</time>
      </trkpt>
      <trkpt lat="40.327065" lon="0.366199">
        <ele>72.079</ele>
        <time>2017-09-27T16:25:03Z</time>
      </trkpt>
      <trkpt lat="40.327068" lon="0.366233">
        <ele>71.047</ele>
        <time>2017-09-27T16:25:02Z</time>
      </trkpt>
      <trkpt lat="40.327071" lon="0.366271">
        <ele>69.919</ele>
        <time>2017-09-27T16:25:01Z</time>
      </trkpt>
      <trkpt lat="40.327080" lon="0.366308">
        <ele>69.049</ele>
        <time>2017-09-27T16:25:00Z</time>
      </trkpt>
      <trkpt lat="40.327090" lon="0.366345">
        <ele>68.202</ele>
        <time>2017-09-27T16:24:59Z</time>
      </trkpt>
      <trkpt lat="40.327103" lon="0.366381">
        <ele>67.522</ele>
        <time>2017-09-27T16:24:58Z</time>
      </trkpt>
      <trkpt lat="40.327114" lon="0.366421">
        <ele>67.108</ele>
        <time>2017-09-27T16:24:57Z</time>
      </trkpt>
      <trkpt lat="40.327125" lon="0.366462">
        <ele>66.757</ele>
        <time>2017-09-27T16:24:56Z</time>
      </trkpt>
      <trkpt lat="40.327133" lon="0.366503">
        <ele>66.184</ele>
        <time>2017-09-27T16:24:55Z</time>
      </trkpt>
      <trkpt lat="40.327145" lon="0.366542">
        <ele>65.858</ele>
        <time>2017-09-27T16:24:54Z</time>
      </trkpt>
      <trkpt lat="40.327154" lon="0.366581">
        <ele>65.386</ele>
        <time>2017-09-27T16:24:53Z</time>
      </trkpt>
      <trkpt lat="40.327162" lon="0.366620">
        <ele>64.844</ele>
        <time>2017-09-27T16:24:52Z</time>
      </trkpt>
      <trkpt lat="40.327164" lon="0.366663">
        <ele>64.037</ele>
        <time>2017-09-27T16:24:51Z</time>
      </trkpt>
      <trkpt lat="40.327162" lon="0.366710">
        <ele>63.045</ele>
        <time>2017-09-27T16:24:50Z</time>
      </trkpt>
      <trkpt lat="40.327161" lon="0.366754">
        <ele>62.277</ele>
        <time>2017-09-27T16:24:49Z</time>
      </trkpt>
      <trkpt lat="40.327162" lon="0.366801">
        <ele>61.369</ele>
        <time>2017-09-27T16:24:48Z</time>
      </trkpt>
      <trkpt lat="40.327163" lon="0.366848">
        <ele>60.504</ele>
        <time>2017-09-27T16:24:47Z</time>
      </trkpt>
      <trkpt lat="40.327167" lon="0.366894">
        <ele>59.824</ele>
        <time>2017-09-27T16:24:46Z</time>
      </trkpt>
      <trkpt lat="40.327178" lon="0.366935">
        <ele>59.408</ele>
        <time>2017-09-27T16:24:45Z</time>
      </trkpt>
      <trkpt lat="40.327191" lon="0.366975">
        <ele>58.589</ele>
        <time>2017-09-27T16:24:44Z</time>
      </trkpt>
      <trkpt lat="40.327205" lon="0.367013">
        <ele>57.476</ele>
        <time>2017-09-27T16:24:43Z</time>
      </trkpt>
      <trkpt lat="40.327222" lon="0.367046">
        <ele>56.640</ele>
        <time>2017-09-27T16:24:42Z</time>
      </trkpt>
      <trkpt lat="40.327240" lon="0.367081">
        <ele>55.718</ele>
        <time>2017-09-27T16:24:41Z</time>
      </trkpt>
      <trkpt lat="40.327257" lon="0.367115">
        <ele>54.976</ele>
        <time>2017-09-27T16:24:40Z</time>
      </trkpt>
      <trkpt lat="40.327275" lon="0.367152">
        <ele>54.049</ele>
        <time>2017-09-27T16:24:39Z</time>
      </trkpt>
      <trkpt lat="40.327292" lon="0.367185">
        <ele>53.367</ele>
        <time>2017-09-27T16:24:38Z</time>
      </trkpt>
      <trkpt lat="40.327310" lon="0.367209">
        <ele>53.069</ele>
        <time>2017-09-27T16:24:37Z</time>
      </trkpt>
      <trkpt lat="40.327328" lon="0.367234">
        <ele>52.829</ele>
        <time>2017-09-27T16:24:36Z</time>
      </trkpt>
      <trkpt lat="40.327351" lon="0.367260">
        <ele>52.700</ele>
        <time>2017-09-27T16:24:35Z</time>
      </trkpt>
      <trkpt lat="40.327374" lon="0.367285">
        <ele>52.820</ele>
        <time>2017-09-27T16:24:34Z</time>
      </trkpt>
      <trkpt lat="40.327398" lon="0.367311">
        <ele>52.808</ele>
        <time>2017-09-27T16:24:33Z</time>
      </trkpt>
      <trkpt lat="40.327418" lon="0.367341">
        <ele>52.585</ele>
        <time>2017-09-27T16:24:32Z</time>
      </trkpt>
      <trkpt lat="40.327441" lon="0.367372">
        <ele>52.332</ele>
        <time>2017-09-27T16:24:31Z</time>
      </trkpt>
      <trkpt lat="40.327464" lon="0.367399">
        <ele>52.216</ele>
        <time>2017-09-27T16:24:30Z</time>
      </trkpt>
      <trkpt lat="40.327488" lon="0.367421">
        <ele>52.414</ele>
        <time>2017-09-27T16:24:29Z</time>
      </trkpt>
      <trkpt lat="40.327514" lon="0.367445">
        <ele>52.432</ele>
        <time>2017-09-27T16:24:28Z</time>
      </trkpt>
      <trkpt lat="40.327539" lon="0.367468">
        <ele>52.265</ele>
        <time>2017-09-27T16:24:27Z</time>
      </trkpt>
      <trkpt lat="40.327564" lon="0.367494">
        <ele>52.063</ele>
        <time>2017-09-27T16:24:26Z</time>
      </trkpt>
      <trkpt lat="40.327591" lon="0.367516">
        <ele>51.975</ele>
        <time>2017-09-27T16:24:25Z</time>
      </trkpt>
      <trkpt lat="40.327617" lon="0.367535">
        <ele>51.958</ele>
        <time>2017-09-27T16:24:24Z</time>
      </trkpt>
      <trkpt lat="40.327646" lon="0.367553">
        <ele>51.952</ele>
        <time>2017-09-27T16:24:23Z</time>
      </trkpt>
      <trkpt lat="40.327675" lon="0.367573">
        <ele>51.917</ele>
        <time>2017-09-27T16:24:22Z</time>
      </trkpt>
      <trkpt lat="40.327706" lon="0.367591">
        <ele>52.008</ele>
        <time>2017-09-27T16:24:21Z</time>
      </trkpt>
      <trkpt lat="40.327736" lon="0.367603">
        <ele>52.368</ele>
        <time>2017-09-27T16:24:20Z</time>
      </trkpt>
      <trkpt lat="40.327765" lon="0.367619">
        <ele>52.585</ele>
        <time>2017-09-27T16:24:19Z</time>
      </trkpt>
      <trkpt lat="40.327795" lon="0.367632">
        <ele>52.639</ele>
        <time>2017-09-27T16:24:18Z</time>
      </trkpt>
      <trkpt lat="40.327830" lon="0.367646">
        <ele>52.537</ele>
        <time>2017-09-27T16:24:17Z</time>
      </trkpt>
      <trkpt lat="40.327865" lon="0.367661">
        <ele>52.595</ele>
        <time>2017-09-27T16:24:16Z</time>
      </trkpt>
      <trkpt lat="40.327899" lon="0.367677">
        <ele>52.428</ele>
        <time>2017-09-27T16:24:15Z</time>
      </trkpt>
      <trkpt lat="40.327938" lon="0.367695">
        <ele>52.386</ele>
        <time>2017-09-27T16:24:14Z</time>
      </trkpt>
      <trkpt lat="40.327980" lon="0.367717">
        <ele>52.138</ele>
        <time>2017-09-27T16:24:13Z</time>
      </trkpt>
      <trkpt lat="40.328023" lon="0.367734">
        <ele>52.259</ele>
        <time>2017-09-27T16:24:12Z</time>
      </trkpt>
      <trkpt lat="40.328069" lon="0.367746">
        <ele>52.603</ele>
        <time>2017-09-27T16:24:11Z</time>
      </trkpt>
      <trkpt lat="40.328113" lon="0.367760">
        <ele>53.323</ele>
        <time>2017-09-27T16:24:10Z</time>
      </trkpt>
      <trkpt lat="40.328160" lon="0.367776">
        <ele>54.108</ele>
        <time>2017-09-27T16:24:09Z</time>
      </trkpt>
      <trkpt lat="40.328212" lon="0.367782">
        <ele>55.428</ele>
        <time>2017-09-27T16:24:08Z</time>
      </trkpt>
      <trkpt lat="40.328266" lon="0.367786">
        <ele>56.995</ele>
        <time>2017-09-27T16:24:07Z</time>
      </trkpt>
      <trkpt lat="40.328318" lon="0.367808">
        <ele>57.979</ele>
        <time>2017-09-27T16:24:06Z</time>
      </trkpt>
      <trkpt lat="40.328363" lon="0.367853">
        <ele>58.267</ele>
        <time>2017-09-27T16:24:05Z</time>
      </trkpt>
      <trkpt lat="40.328397" lon="0.367917">
        <ele>57.835</ele>
        <time>2017-09-27T16:24:04Z</time>
      </trkpt>
      <trkpt lat="40.328412" lon="0.367995">
        <ele>56.618</ele>
        <time>2017-09-27T16:24:03Z</time>
      </trkpt>
      <trkpt lat="40.328416" lon="0.368079">
        <ele>55.016</ele>
        <time>2017-09-27T16:24:02Z</time>
      </trkpt>
      <trkpt lat="40.328425" lon="0.368160">
        <ele>53.998</ele>
        <time>2017-09-27T16:24:01Z</time>
      </trkpt>
      <trkpt lat="40.328435" lon="0.368246">
        <ele>52.744</ele>
        <time>2017-09-27T16:24:00Z</time>
      </trkpt>
      <trkpt lat="40.328450" lon="0.368330">
        <ele>51.605</ele>
        <time>2017-09-27T16:23:59Z</time>
      </trkpt>
      <trkpt lat="40.328471" lon="0.368410">
        <ele>49.515</ele>
        <time>2017-09-27T16:23:58Z</time>
      </trkpt>
      <trkpt lat="40.328502" lon="0.368478">
        <ele>48.108</ele>
        <time>2017-09-27T16:23:57Z</time>
      </trkpt>
      <trkpt lat="40.328541" lon="0.368532">
        <ele>47.437</ele>
        <time>2017-09-27T16:23:56Z</time>
      </trkpt>
      <trkpt lat="40.328578" lon="0.368576">
        <ele>47.174</ele>
        <time>2017-09-27T16:23:55Z</time>
      </trkpt>
      <trkpt lat="40.328614" lon="0.368616">
        <ele>46.988</ele>
        <time>2017-09-27T16:23:54Z</time>
      </trkpt>
      <trkpt lat="40.328652" lon="0.368643">
        <ele>47.176</ele>
        <time>2017-09-27T16:23:53Z</time>
      </trkpt>
      <trkpt lat="40.328693" lon="0.368661">
        <ele>47.934</ele>
        <time>2017-09-27T16:23:52Z</time>
      </trkpt>
      <trkpt lat="40.328735" lon="0.368673">
        <ele>49.067</ele>
        <time>2017-09-27T16:23:51Z</time>
      </trkpt>
      <trkpt lat="40.328778" lon="0.368685">
        <ele>50.155</ele>
        <time>2017-09-27T16:23:50Z</time>
      </trkpt>
      <trkpt lat="40.328820" lon="0.368693">
        <ele>51.437</ele>
        <time>2017-09-27T16:23:49Z</time>
      </trkpt>
      <trkpt lat="40.328863" lon="0.368699">
        <ele>52.832</ele>
        <time>2017-09-27T16:23:48Z</time>
      </trkpt>
      <trkpt lat="40.328906" lon="0.368704">
        <ele>54.192</ele>
        <time>2017-09-27T16:23:47Z</time>
      </trkpt>
      <trkpt lat="40.328950" lon="0.368710">
        <ele>54.911</ele>
        <time>2017-09-27T16:23:46Z</time>
      </trkpt>
      <trkpt lat="40.328993" lon="0.368714">
        <ele>55.808</ele>
        <time>2017-09-27T16:23:45Z</time>
      </trkpt>
      <trkpt lat="40.329037" lon="0.368716">
        <ele>56.826</ele>
        <time>2017-09-27T16:23:44Z</time>
      </trkpt>
      <trkpt lat="40.329078" lon="0.368718">
        <ele>57.823</ele>
        <time>2017-09-27T16:23:43Z</time>
      </trkpt>
      <trkpt lat="40.329117" lon="0.368724">
        <ele>58.587</ele>
        <time>2017-09-27T16:23:42Z</time>
      </trkpt>
      <trkpt lat="40.329154" lon="0.368730">
        <ele>59.335</ele>
        <time>2017-09-27T16:23:41Z</time>
      </trkpt>
      <trkpt lat="40.329193" lon="0.368739">
        <ele>59.913</ele>
        <time>2017-09-27T16:23:40Z</time>
      </trkpt>
      <trkpt lat="40.329233" lon="0.368754">
        <ele>60.366</ele>
        <time>2017-09-27T16:23:39Z</time>
      </trkpt>
      <trkpt lat="40.329266" lon="0.368780">
        <ele>60.394</ele>
        <time>2017-09-27T16:23:38Z</time>
      </trkpt>
      <trkpt lat="40.329292" lon="0.368820">
        <ele>59.796</ele>
        <time>2017-09-27T16:23:37Z</time>
      </trkpt>
      <trkpt lat="40.329312" lon="0.368865">
        <ele>58.876</ele>
        <time>2017-09-27T16:23:36Z</time>
      </trkpt>
      <trkpt lat="40.329330" lon="0.368909">
        <ele>57.990</ele>
        <time>2017-09-27T16:23:35Z</time>
      </trkpt>
      <trkpt lat="40.329341" lon="0.368956">
        <ele>56.619</ele>
        <time>2017-09-27T16:23:34Z</time>
      </trkpt>
      <trkpt lat="40.329351" lon="0.369008">
        <ele>55.108</ele>
        <time>2017-09-27T16:23:33Z</time>
      </trkpt>
      <trkpt lat="40.329366" lon="0.369058">
        <ele>53.840</ele>
        <time>2017-09-27T16:23:32Z</time>
      </trkpt>
      <trkpt lat="40.329384" lon="0.369110">
        <ele>52.547</ele>
        <time>2017-09-27T16:23:31Z</time>
      </trkpt>
      <trkpt lat="40.329398" lon="0.369160">
        <ele>51.261</ele>
        <time>2017-09-27T16:23:30Z</time>
      </trkpt>
      <trkpt lat="40.329417" lon="0.369209">
        <ele>50.519</ele>
        <time>2017-09-27T16:23:29Z</time>
      </trkpt>
      <trkpt lat="40.329434" lon="0.369247">
        <ele>50.047</ele>
        <time>2017-09-27T16:23:28Z</time>
      </trkpt>
      <trkpt lat="40.329451" lon="0.369281">
        <ele>49.750</ele>
        <time>2017-09-27T16:23:27Z</time>
      </trkpt>
      <trkpt lat="40.329466" lon="0.369314">
        <ele>49.398</ele>
        <time>2017-09-27T16:23:26Z</time>
      </trkpt>
      <trkpt lat="40.329477" lon="0.369345">
        <ele>48.860</ele>
        <time>2017-09-27T16:23:25Z</time>
      </trkpt>
      <trkpt lat="40.329489" lon="0.369376">
        <ele>48.497</ele>
        <time>2017-09-27T16:23:24Z</time>
      </trkpt>
      <trkpt lat="40.329502" lon="0.369407">
        <ele>47.923</ele>
        <time>2017-09-27T16:23:23Z</time>
      </trkpt>
      <trkpt lat="40.329516" lon="0.369437">
        <ele>47.525</ele>
        <time>2017-09-27T16:23:22Z</time>
      </trkpt>
      <trkpt lat="40.329530" lon="0.369466">
        <ele>47.108</ele>
        <time>2017-09-27T16:23:21Z</time>
      </trkpt>
      <trkpt lat="40.329542" lon="0.369496">
        <ele>46.632</ele>
        <time>2017-09-27T16:23:20Z</time>
      </trkpt>
      <trkpt lat="40.329559" lon="0.369523">
        <ele>46.469</ele>
        <time>2017-09-27T16:23:19Z</time>
      </trkpt>
      <trkpt lat="40.329577" lon="0.369549">
        <ele>46.113</ele>
        <time>2017-09-27T16:23:18Z</time>
      </trkpt>
      <trkpt lat="40.329594" lon="0.369573">
        <ele>45.921</ele>
        <time>2017-09-27T16:23:17Z</time>
      </trkpt>
      <trkpt lat="40.329613" lon="0.369597">
        <ele>45.769</ele>
        <time>2017-09-27T16:23:16Z</time>
      </trkpt>
      <trkpt lat="40.329630" lon="0.369617">
        <ele>45.662</ele>
        <time>2017-09-27T16:23:15Z</time>
      </trkpt>
      <trkpt lat="40.329645" lon="0.369636">
        <ele>45.560</ele>
        <time>2017-09-27T16:23:14Z</time>
      </trkpt>
      <trkpt lat="40.329658" lon="0.369658">
        <ele>45.212</ele>
        <time>2017-09-27T16:23:13Z</time>
      </trkpt>
      <trkpt lat="40.329673" lon="0.369679">
        <ele>45.054</ele>
        <time>2017-09-27T16:23:12Z</time>
      </trkpt>
      <trkpt lat="40.329688" lon="0.369701">
        <ele>44.856</ele>
        <time>2017-09-27T16:23:11Z</time>
      </trkpt>
      <trkpt lat="40.329706" lon="0.369720">
        <ele>44.811</ele>
        <time>2017-09-27T16:23:10Z</time>
      </trkpt>
      <trkpt lat="40.329722" lon="0.369739">
        <ele>44.608</ele>
        <time>2017-09-27T16:23:09Z</time>
      </trkpt>
      <trkpt lat="40.329738" lon="0.369759">
        <ele>44.368</ele>
        <time>2017-09-27T16:23:08Z</time>
      </trkpt>
      <trkpt lat="40.329752" lon="0.369779">
        <ele>44.065</ele>
        <time>2017-09-27T16:23:07Z</time>
      </trkpt>
      <trkpt lat="40.329767" lon="0.369796">
        <ele>43.889</ele>
        <time>2017-09-27T16:23:06Z</time>
      </trkpt>
      <trkpt lat="40.329784" lon="0.369813">
        <ele>43.637</ele>
        <time>2017-09-27T16:23:05Z</time>
      </trkpt>
      <trkpt lat="40.329800" lon="0.369830">
        <ele>43.465</ele>
        <time>2017-09-27T16:23:04Z</time>
      </trkpt>
      <trkpt lat="40.329817" lon="0.369847">
        <ele>43.238</ele>
        <time>2017-09-27T16:23:03Z</time>
      </trkpt>
      <trkpt lat="40.329834" lon="0.369863">
        <ele>43.186</ele>
        <time>2017-09-27T16:23:02Z</time>
      </trkpt>
      <trkpt lat="40.329853" lon="0.369877">
        <ele>43.078</ele>
        <time>2017-09-27T16:23:01Z</time>
      </trkpt>
      <trkpt lat="40.329872" lon="0.369894">
        <ele>42.885</ele>
        <time>2017-09-27T16:23:00Z</time>
      </trkpt>
      <trkpt lat="40.329890" lon="0.369911">
        <ele>42.789</ele>
        <time>2017-09-27T16:22:59Z</time>
      </trkpt>
      <trkpt lat="40.329912" lon="0.369926">
        <ele>42.617</ele>
        <time>2017-09-27T16:22:58Z</time>
      </trkpt>
      <trkpt lat="40.329932" lon="0.369945">
        <ele>42.408</ele>
        <time>2017-09-27T16:22:57Z</time>
      </trkpt>
      <trkpt lat="40.329949" lon="0.369967">
        <ele>42.141</ele>
        <time>2017-09-27T16:22:56Z</time>
      </trkpt>
      <trkpt lat="40.329965" lon="0.369990">
        <ele>41.788</ele>
        <time>2017-09-27T16:22:55Z</time>
      </trkpt>
      <trkpt lat="40.329978" lon="0.370014">
        <ele>41.472</ele>
        <time>2017-09-27T16:22:54Z</time>
      </trkpt>
      <trkpt lat="40.329993" lon="0.370037">
        <ele>41.150</ele>
        <time>2017-09-27T16:22:53Z</time>
      </trkpt>
      <trkpt lat="40.330005" lon="0.370059">
        <ele>40.838</ele>
        <time>2017-09-27T16:22:52Z</time>
      </trkpt>
      <trkpt lat="40.330014" lon="0.370079">
        <ele>40.551</ele>
        <time>2017-09-27T16:22:51Z</time>
      </trkpt>
      <trkpt lat="40.330029" lon="0.370097">
        <ele>40.329</ele>
        <time>2017-09-27T16:22:50Z</time>
      </trkpt>
      <trkpt lat="40.330045" lon="0.370116">
        <ele>40.161</ele>
        <time>2017-09-27T16:22:49Z</time>
      </trkpt>
      <trkpt lat="40.330061" lon="0.370134">
        <ele>40.051</ele>
        <time>2017-09-27T16:22:48Z</time>
      </trkpt>
      <trkpt lat="40.330078" lon="0.370152">
        <ele>39.801</ele>
        <time>2017-09-27T16:22:47Z</time>
      </trkpt>
      <trkpt lat="40.330096" lon="0.370168">
        <ele>39.811</ele>
        <time>2017-09-27T16:22:46Z</time>
      </trkpt>
      <trkpt lat="40.330111" lon="0.370185">
        <ele>39.608</ele>
        <time>2017-09-27T16:22:45Z</time>
      </trkpt>
      <trkpt lat="40.330124" lon="0.370203">
        <ele>39.498</ele>
        <time>2017-09-27T16:22:44Z</time>
      </trkpt>
      <trkpt lat="40.330139" lon="0.370219">
        <ele>39.365</ele>
        <time>2017-09-27T16:22:43Z</time>
      </trkpt>
      <trkpt lat="40.330155" lon="0.370235">
        <ele>39.279</ele>
        <time>2017-09-27T16:22:42Z</time>
      </trkpt>
      <trkpt lat="40.330170" lon="0.370250">
        <ele>39.047</ele>
        <time>2017-09-27T16:22:41Z</time>
      </trkpt>
      <trkpt lat="40.330182" lon="0.370268">
        <ele>38.895</ele>
        <time>2017-09-27T16:22:40Z</time>
      </trkpt>
      <trkpt lat="40.330195" lon="0.370284">
        <ele>38.728</ele>
        <time>2017-09-27T16:22:39Z</time>
      </trkpt>
      <trkpt lat="40.330209" lon="0.370304">
        <ele>38.416</ele>
        <time>2017-09-27T16:22:38Z</time>
      </trkpt>
      <trkpt lat="40.330223" lon="0.370320">
        <ele>38.268</ele>
        <time>2017-09-27T16:22:37Z</time>
      </trkpt>
      <trkpt lat="40.330235" lon="0.370341">
        <ele>37.961</ele>
        <time>2017-09-27T16:22:36Z</time>
      </trkpt>
      <trkpt lat="40.330247" lon="0.370361">
        <ele>37.521</ele>
        <time>2017-09-27T16:22:35Z</time>
      </trkpt>
      <trkpt lat="40.330262" lon="0.370380">
        <ele>37.213</ele>
        <time>2017-09-27T16:22:34Z</time>
      </trkpt>
      <trkpt lat="40.330274" lon="0.370398">
        <ele>36.908</ele>
        <time>2017-09-27T16:22:33Z</time>
      </trkpt>
      <trkpt lat="40.330284" lon="0.370415">
        <ele>36.689</ele>
        <time>2017-09-27T16:22:32Z</time>
      </trkpt>
      <trkpt lat="40.330297" lon="0.370431">
        <ele>36.326</ele>
        <time>2017-09-27T16:22:31Z</time>
      </trkpt>
      <trkpt lat="40.330310" lon="0.370444">
        <ele>36.090</ele>
        <time>2017-09-27T16:22:30Z</time>
      </trkpt>
      <trkpt lat="40.330324" lon="0.370458">
        <ele>35.838</ele>
        <time>2017-09-27T16:22:29Z</time>
      </trkpt>
      <trkpt lat="40.330334" lon="0.370475">
        <ele>35.456</ele>
        <time>2017-09-27T16:22:28Z</time>
      </trkpt>
      <trkpt lat="40.330341" lon="0.370497">
        <ele>34.969</ele>
        <time>2017-09-27T16:22:27Z</time>
      </trkpt>
      <trkpt lat="40.330347" lon="0.370519">
        <ele>34.457</ele>
        <time>2017-09-27T16:22:26Z</time>
      </trkpt>
      <trkpt lat="40.330355" lon="0.370538">
        <ele>34.059</ele>
        <time>2017-09-27T16:22:25Z</time>
      </trkpt>
      <trkpt lat="40.330362" lon="0.370559">
        <ele>33.672</ele>
        <time>2017-09-27T16:22:24Z</time>
      </trkpt>
      <trkpt lat="40.330371" lon="0.370582">
        <ele>33.313</ele>
        <time>2017-09-27T16:22:23Z</time>
      </trkpt>
      <trkpt lat="40.330381" lon="0.370600">
        <ele>33.114</ele>
        <time>2017-09-27T16:22:22Z</time>
      </trkpt>
      <trkpt lat="40.330390" lon="0.370621">
        <ele>32.908</ele>
        <time>2017-09-27T16:22:21Z</time>
      </trkpt>
      <trkpt lat="40.330396" lon="0.370643">
        <ele>32.690</ele>
        <time>2017-09-27T16:22:20Z</time>
      </trkpt>
      <trkpt lat="40.330404" lon="0.370665">
        <ele>32.327</ele>
        <time>2017-09-27T16:22:19Z</time>
      </trkpt>
      <trkpt lat="40.330410" lon="0.370686">
        <ele>32.191</ele>
        <time>2017-09-27T16:22:18Z</time>
      </trkpt>
      <trkpt lat="40.330417" lon="0.370707">
        <ele>31.889</ele>
        <time>2017-09-27T16:22:17Z</time>
      </trkpt>
      <trkpt lat="40.330423" lon="0.370729">
        <ele>31.577</ele>
        <time>2017-09-27T16:22:16Z</time>
      </trkpt>
      <trkpt lat="40.330427" lon="0.370752">
        <ele>31.250</ele>
        <time>2017-09-27T16:22:15Z</time>
      </trkpt>
      <trkpt lat="40.330430" lon="0.370776">
        <ele>30.988</ele>
        <time>2017-09-27T16:22:14Z</time>
      </trkpt>
      <trkpt lat="40.330432" lon="0.370800">
        <ele>30.680</ele>
        <time>2017-09-27T16:22:13Z</time>
      </trkpt>
      <trkpt lat="40.330435" lon="0.370830">
        <ele>30.238</ele>
        <time>2017-09-27T16:22:12Z</time>
      </trkpt>
      <trkpt lat="40.330443" lon="0.370858">
        <ele>29.970</ele>
        <time>2017-09-27T16:22:11Z</time>
      </trkpt>
      <trkpt lat="40.330452" lon="0.370885">
        <ele>29.617</ele>
        <time>2017-09-27T16:22:10Z</time>
      </trkpt>
      <trkpt lat="40.330463" lon="0.370909">
        <ele>29.408</ele>
        <time>2017-09-27T16:22:09Z</time>
      </trkpt>
      <trkpt lat="40.330473" lon="0.370936">
        <ele>29.236</ele>
        <time>2017-09-27T16:22:08Z</time>
      </trkpt>
      <trkpt lat="40.330483" lon="0.370962">
        <ele>29.073</ele>
        <time>2017-09-27T16:22:07Z</time>
      </trkpt>
      <trkpt lat="40.330493" lon="0.370991">
        <ele>28.757</ele>
        <time>2017-09-27T16:22:06Z</time>
      </trkpt>
      <trkpt lat="40.330503" lon="0.371018">
        <ele>28.585</ele>
        <time>2017-09-27T16:22:05Z</time>
      </trkpt>
      <trkpt lat="40.330516" lon="0.371042">
        <ele>28.413</ele>
        <time>2017-09-27T16:22:04Z</time>
      </trkpt>
      <trkpt lat="40.330528" lon="0.371066">
        <ele>28.296</ele>
        <time>2017-09-27T16:22:03Z</time>
      </trkpt>
      <trkpt lat="40.330539" lon="0.371090">
        <ele>28.124</ele>
        <time>2017-09-27T16:22:02Z</time>
      </trkpt>
      <trkpt lat="40.330548" lon="0.371116">
        <ele>27.816</ele>
        <time>2017-09-27T16:22:01Z</time>
      </trkpt>
      <trkpt lat="40.330557" lon="0.371142">
        <ele>27.677</ele>
        <time>2017-09-27T16:22:00Z</time>
      </trkpt>
      <trkpt lat="40.330567" lon="0.371170">
        <ele>27.361</ele>
        <time>2017-09-27T16:21:59Z</time>
      </trkpt>
      <trkpt lat="40.330580" lon="0.371196">
        <ele>27.027</ele>
        <time>2017-09-27T16:21:58Z</time>
      </trkpt>
      <trkpt lat="40.330593" lon="0.371222">
        <ele>26.808</ele>
        <time>2017-09-27T16:21:57Z</time>
      </trkpt>
      <trkpt lat="40.330604" lon="0.371250">
        <ele>26.470</ele>
        <time>2017-09-27T16:21:56Z</time>
      </trkpt>
      <trkpt lat="40.330614" lon="0.371277">
        <ele>26.127</ele>
        <time>2017-09-27T16:21:55Z</time>
      </trkpt>
      <trkpt lat="40.330627" lon="0.371303">
        <ele>25.861</ele>
        <time>2017-09-27T16:21:54Z</time>
      </trkpt>
      <trkpt lat="40.330638" lon="0.371330">
        <ele>25.579</ele>
        <time>2017-09-27T16:21:53Z</time>
      </trkpt>
      <trkpt lat="40.330649" lon="0.371360">
        <ele>25.177</ele>
        <time>2017-09-27T16:21:52Z</time>
      </trkpt>
      <trkpt lat="40.330659" lon="0.371387">
        <ele>24.870</ele>
        <time>2017-09-27T16:21:51Z</time>
      </trkpt>
      <trkpt lat="40.330671" lon="0.371415">
        <ele>24.538</ele>
        <time>2017-09-27T16:21:50Z</time>
      </trkpt>
      <trkpt lat="40.330682" lon="0.371442">
        <ele>24.180</ele>
        <time>2017-09-27T16:21:49Z</time>
      </trkpt>
      <trkpt lat="40.330688" lon="0.371470">
        <ele>23.813</ele>
        <time>2017-09-27T16:21:48Z</time>
      </trkpt>
      <trkpt lat="40.330689" lon="0.371498">
        <ele>23.443</ele>
        <time>2017-09-27T16:21:47Z</time>
      </trkpt>
      <trkpt lat="40.330701" lon="0.371520">
        <ele>23.207</ele>
        <time>2017-09-27T16:21:46Z</time>
      </trkpt>
      <trkpt lat="40.330713" lon="0.371543">
        <ele>22.908</ele>
        <time>2017-09-27T16:21:45Z</time>
      </trkpt>
      <trkpt lat="40.330727" lon="0.371564">
        <ele>22.714</ele>
        <time>2017-09-27T16:21:44Z</time>
      </trkpt>
      <trkpt lat="40.330739" lon="0.371593">
        <ele>22.431</ele>
        <time>2017-09-27T16:21:43Z</time>
      </trkpt>
      <trkpt lat="40.330745" lon="0.371621">
        <ele>22.065</ele>
        <time>2017-09-27T16:21:42Z</time>
      </trkpt>
      <trkpt lat="40.330755" lon="0.371650">
        <ele>21.733</ele>
        <time>2017-09-27T16:21:41Z</time>
      </trkpt>
      <trkpt lat="40.330768" lon="0.371676">
        <ele>21.391</ele>
        <time>2017-09-27T16:21:40Z</time>
      </trkpt>
      <trkpt lat="40.330779" lon="0.371704">
        <ele>20.934</ele>
        <time>2017-09-27T16:21:39Z</time>
      </trkpt>
      <trkpt lat="40.330789" lon="0.371735">
        <ele>20.322</ele>
        <time>2017-09-27T16:21:38Z</time>
      </trkpt>
      <trkpt lat="40.330799" lon="0.371769">
        <ele>19.614</ele>
        <time>2017-09-27T16:21:37Z</time>
      </trkpt>
      <trkpt lat="40.330810" lon="0.371801">
        <ele>19.053</ele>
        <time>2017-09-27T16:21:36Z</time>
      </trkpt>
      <trkpt lat="40.330819" lon="0.371836">
        <ele>18.304</ele>
        <time>2017-09-27T16:21:35Z</time>
      </trkpt>
      <trkpt lat="40.330828" lon="0.371871">
        <ele>17.614</ele>
        <time>2017-09-27T16:21:34Z</time>
      </trkpt>
      <trkpt lat="40.330839" lon="0.371906">
        <ele>16.808</ele>
        <time>2017-09-27T16:21:33Z</time>
      </trkpt>
      <trkpt lat="40.330855" lon="0.371941">
        <ele>15.958</ele>
        <time>2017-09-27T16:21:32Z</time>
      </trkpt>
      <trkpt lat="40.330875" lon="0.371979">
        <ele>15.035</ele>
        <time>2017-09-27T16:21:31Z</time>
      </trkpt>
      <trkpt lat="40.330895" lon="0.372017">
        <ele>14.149</ele>
        <time>2017-09-27T16:21:30Z</time>
      </trkpt>
      <trkpt lat="40.330919" lon="0.372054">
        <ele>13.347</ele>
        <time>2017-09-27T16:21:29Z</time>
      </trkpt>
      <trkpt lat="40.330945" lon="0.372090">
        <ele>12.555</ele>
        <time>2017-09-27T16:21:28Z</time>
      </trkpt>
      <trkpt lat="40.330972" lon="0.372128">
        <ele>11.798</ele>
        <time>2017-09-27T16:21:27Z</time>
      </trkpt>
      <trkpt lat="40.331002" lon="0.372163">
        <ele>11.046</ele>
        <time>2017-09-27T16:21:26Z</time>
      </trkpt>
      <trkpt lat="40.331032" lon="0.372194">
        <ele>10.528</ele>
        <time>2017-09-27T16:21:25Z</time>
      </trkpt>
      <trkpt lat="40.331064" lon="0.372222">
        <ele>10.054</ele>
        <time>2017-09-27T16:21:24Z</time>
      </trkpt>
      <trkpt lat="40.331102" lon="0.372237">
        <ele>9.956</ele>
        <time>2017-09-27T16:21:23Z</time>
      </trkpt>
      <trkpt lat="40.331144" lon="0.372247">
        <ele>9.811</ele>
        <time>2017-09-27T16:21:22Z</time>
      </trkpt>
      <trkpt lat="40.331195" lon="0.372254">
        <ele>9.808</ele>
        <time>2017-09-27T16:21:21Z</time>
      </trkpt>
      <trkpt lat="40.331256" lon="0.372266">
        <ele>9.888</ele>
        <time>2017-09-27T16:21:20Z</time>
      </trkpt>
      <trkpt lat="40.331325" lon="0.372289">
        <ele>9.735</ele>
        <time>2017-09-27T16:21:19Z</time>
      </trkpt>
      <trkpt lat="40.331400" lon="0.372324">
        <ele>9.749</ele>
        <time>2017-09-27T16:21:18Z</time>
      </trkpt>
      <trkpt lat="40.331470" lon="0.372368">
        <ele>10.137</ele>
        <time>2017-09-27T16:21:17Z</time>
      </trkpt>
      <trkpt lat="40.331528" lon="0.372447">
        <ele>10.535</ele>
        <time>2017-09-27T16:21:16Z</time>
      </trkpt>
      <trkpt lat="40.331569" lon="0.372550">
        <ele>10.878</ele>
        <time>2017-09-27T16:21:15Z</time>
      </trkpt>
      <trkpt lat="40.331601" lon="0.372661">
        <ele>10.846</ele>
        <time>2017-09-27T16:21:14Z</time>
      </trkpt>
      <trkpt lat="40.331634" lon="0.372769">
        <ele>10.878</ele>
        <time>2017-09-27T16:21:13Z</time>
      </trkpt>
      <trkpt lat="40.331669" lon="0.372870">
        <ele>10.778</ele>
        <time>2017-09-27T16:21:12Z</time>
      </trkpt>
      <trkpt lat="40.331707" lon="0.372959">
        <ele>10.533</ele>
        <time>2017-09-27T16:21:11Z</time>
      </trkpt>
      <trkpt lat="40.331739" lon="0.373048">
        <ele>10.326</ele>
        <time>2017-09-27T16:21:10Z</time>
      </trkpt>
      <trkpt lat="40.331759" lon="0.373133">
        <ele>9.608</ele>
        <time>2017-09-27T16:21:09Z</time>
      </trkpt>
      <trkpt lat="40.331783" lon="0.373213">
        <ele>9.050</ele>
        <time>2017-09-27T16:21:08Z</time>
      </trkpt>
      <trkpt lat="40.331815" lon="0.373288">
        <ele>8.557</ele>
        <time>2017-09-27T16:21:07Z</time>
      </trkpt>
      <trkpt lat="40.331859" lon="0.373349">
        <ele>8.361</ele>
        <time>2017-09-27T16:21:06Z</time>
      </trkpt>
      <trkpt lat="40.331914" lon="0.373389">
        <ele>8.439</ele>
        <time>2017-09-27T16:21:05Z</time>
      </trkpt>
      <trkpt lat="40.331984" lon="0.373417">
        <ele>8.617</ele>
        <time>2017-09-27T16:21:04Z</time>
      </trkpt>
      <trkpt lat="40.332061" lon="0.373440">
        <ele>8.890</ele>
        <time>2017-09-27T16:21:03Z</time>
      </trkpt>
      <trkpt lat="40.332135" lon="0.373466">
        <ele>9.118</ele>
        <time>2017-09-27T16:21:02Z</time>
      </trkpt>
      <trkpt lat="40.332209" lon="0.373501">
        <ele>9.360</ele>
        <time>2017-09-27T16:21:01Z</time>
      </trkpt>
      <trkpt lat="40.332283" lon="0.373541">
        <ele>9.262</ele>
        <time>2017-09-27T16:21:00Z</time>
      </trkpt>
      <trkpt lat="40.332356" lon="0.373592">
        <ele>9.083</ele>
        <time>2017-09-27T16:20:59Z</time>
      </trkpt>
      <trkpt lat="40.332432" lon="0.373639">
        <ele>9.011</ele>
        <time>2017-09-27T16:20:58Z</time>
      </trkpt>
      <trkpt lat="40.332512" lon="0.373678">
        <ele>9.008</ele>
        <time>2017-09-27T16:20:57Z</time>
      </trkpt>
      <trkpt lat="40.332595" lon="0.373702">
        <ele>9.019</ele>
        <time>2017-09-27T16:20:56Z</time>
      </trkpt>
      <trkpt lat="40.332681" lon="0.373723">
        <ele>9.046</ele>
        <time>2017-09-27T16:20:55Z</time>
      </trkpt>
      <trkpt lat="40.332768" lon="0.373739">
        <ele>9.020</ele>
        <time>2017-09-27T16:20:54Z</time>
      </trkpt>
      <trkpt lat="40.332858" lon="0.373760">
        <ele>9.428</ele>
        <time>2017-09-27T16:20:53Z</time>
      </trkpt>
      <trkpt lat="40.332947" lon="0.373793">
        <ele>9.856</ele>
        <time>2017-09-27T16:20:52Z</time>
      </trkpt>
      <trkpt lat="40.333035" lon="0.373837">
        <ele>10.159</ele>
        <time>2017-09-27T16:20:51Z</time>
      </trkpt>
      <trkpt lat="40.333129" lon="0.373872">
        <ele>10.327</ele>
        <time>2017-09-27T16:20:50Z</time>
      </trkpt>
      <trkpt lat="40.333224" lon="0.373893">
        <ele>10.699</ele>
        <time>2017-09-27T16:20:49Z</time>
      </trkpt>
      <trkpt lat="40.333318" lon="0.373891">
        <ele>10.981</ele>
        <time>2017-09-27T16:20:48Z</time>
      </trkpt>
      <trkpt lat="40.333406" lon="0.373864">
        <ele>12.061</ele>
        <time>2017-09-27T16:20:47Z</time>
      </trkpt>
      <trkpt lat="40.333483" lon="0.373829">
        <ele>13.017</ele>
        <time>2017-09-27T16:20:46Z</time>
      </trkpt>
      <trkpt lat="40.333555" lon="0.373800">
        <ele>14.008</ele>
        <time>2017-09-27T16:20:45Z</time>
      </trkpt>
      <trkpt lat="40.333626" lon="0.373785">
        <ele>14.981</ele>
        <time>2017-09-27T16:20:44Z</time>
      </trkpt>
      <trkpt lat="40.333694" lon="0.373801">
        <ele>15.468</ele>
        <time>2017-09-27T16:20:43Z</time>
      </trkpt>
      <trkpt lat="40.333757" lon="0.373850">
        <ele>15.812</ele>
        <time>2017-09-27T16:20:42Z</time>
      </trkpt>
      <trkpt lat="40.333808" lon="0.373921">
        <ele>16.060</ele>
        <time>2017-09-27T16:20:41Z</time>
      </trkpt>
      <trkpt lat="40.333841" lon="0.374005">
        <ele>16.028</ele>
        <time>2017-09-27T16:20:40Z</time>
      </trkpt>
      <trkpt lat="40.333878" lon="0.374078">
        <ele>16.221</ele>
        <time>2017-09-27T16:20:39Z</time>
      </trkpt>
      <trkpt lat="40.333932" lon="0.374118">
        <ele>16.289</ele>
        <time>2017-09-27T16:20:38Z</time>
      </trkpt>
      <trkpt lat="40.333991" lon="0.374131">
        <ele>16.281</ele>
        <time>2017-09-27T16:20:37Z</time>
      </trkpt>
      <trkpt lat="40.334050" lon="0.374112">
        <ele>16.356</ele>
        <time>2017-09-27T16:20:36Z</time>
      </trkpt>
      <trkpt lat="40.334108" lon="0.374067">
        <ele>16.659</ele>
        <time>2017-09-27T16:20:35Z</time>
      </trkpt>
      <trkpt lat="40.334162" lon="0.373991">
        <ele>17.314</ele>
        <time>2017-09-27T16:20:34Z</time>
      </trkpt>
      <trkpt lat="40.334211" lon="0.373909">
        <ele>18.008</ele>
        <time>2017-09-27T16:20:33Z</time>
      </trkpt>
      <trkpt lat="40.334275" lon="0.373851">
        <ele>18.528</ele>
        <time>2017-09-27T16:20:32Z</time>
      </trkpt>
      <trkpt lat="40.334345" lon="0.373816">
        <ele>18.985</ele>
        <time>2017-09-27T16:20:31Z</time>
      </trkpt>
      <trkpt lat="40.334417" lon="0.373811">
        <ele>19.299</ele>
        <time>2017-09-27T16:20:30Z</time>
      </trkpt>
      <trkpt lat="40.334478" lon="0.373839">
        <ele>19.347</ele>
        <time>2017-09-27T16:20:29Z</time>
      </trkpt>
      <trkpt lat="40.334536" lon="0.373895">
        <ele>19.375</ele>
        <time>2017-09-27T16:20:28Z</time>
      </trkpt>
      <trkpt lat="40.334592" lon="0.373957">
        <ele>19.058</ele>
        <time>2017-09-27T16:20:27Z</time>
      </trkpt>
      <trkpt lat="40.334661" lon="0.374004">
        <ele>19.076</ele>
        <time>2017-09-27T16:20:26Z</time>
      </trkpt>
      <trkpt lat="40.334739" lon="0.374039">
        <ele>19.068</ele>
        <time>2017-09-27T16:20:25Z</time>
      </trkpt>
      <trkpt lat="40.334824" lon="0.374053">
        <ele>19.278</ele>
        <time>2017-09-27T16:20:24Z</time>
      </trkpt>
      <trkpt lat="40.334917" lon="0.374047">
        <ele>19.633</ele>
        <time>2017-09-27T16:20:23Z</time>
      </trkpt>
      <trkpt lat="40.335013" lon="0.374022">
        <ele>20.126</ele>
        <time>2017-09-27T16:20:22Z</time>
      </trkpt>
      <trkpt lat="40.335104" lon="0.373978">
        <ele>20.508</ele>
        <time>2017-09-27T16:20:21Z</time>
      </trkpt>
      <trkpt lat="40.335193" lon="0.373942">
        <ele>20.830</ele>
        <time>2017-09-27T16:20:20Z</time>
      </trkpt>
      <trkpt lat="40.335279" lon="0.373916">
        <ele>20.957</ele>
        <time>2017-09-27T16:20:19Z</time>
      </trkpt>
      <trkpt lat="40.335366" lon="0.373898">
        <ele>21.361</ele>
        <time>2017-09-27T16:20:18Z</time>
      </trkpt>
      <trkpt lat="40.335450" lon="0.373883">
        <ele>21.729</ele>
        <time>2017-09-27T16:20:17Z</time>
      </trkpt>
      <trkpt lat="40.335534" lon="0.373867">
        <ele>22.287</ele>
        <time>2017-09-27T16:20:16Z</time>
      </trkpt>
      <trkpt lat="40.335617" lon="0.373851">
        <ele>22.660</ele>
        <time>2017-09-27T16:20:15Z</time>
      </trkpt>
      <trkpt lat="40.335702" lon="0.373836">
        <ele>23.048</ele>
        <time>2017-09-27T16:20:14Z</time>
      </trkpt>
      <trkpt lat="40.335686" lon="0.373865">
        <ele>23.990</ele>
        <time>2018-01-17T03:35:03Z</time>
      </trkpt>
      <trkpt lat="40.335611" lon="0.374029">
        <ele>21.671</ele>
        <time>2018-01-17T03:35:23Z</time>
      </trkpt>
      <trkpt lat="40.335316" lon="0.374597">
        <ele>17.141</ele>
        <time>2018-01-17T03:35:43Z</time>
      </trkpt>
      <trkpt lat="40.334956" lon="0.375155">
        <ele>12.815</ele>
        <time>2018-01-17T03:36:03Z</time>
      </trkpt>
      <trkpt lat="40.334498" lon="0.375659">
        <ele>9.708</ele>
        <time>2018-01-17T03:36:23Z</time>
      </trkpt>
      <trkpt lat="40.334114" lon="0.376207">
        <ele>5.630</ele>
        <time>2018-01-17T03:36:43Z</time>
      </trkpt>
      <trkpt lat="40.334147" lon="0.376539">
        <ele>6.477</ele>
        <time>2018-01-17T03:37:03Z</time>
      </trkpt>
      <trkpt lat="40.334351" lon="0.376979">
        <ele>6.581</ele>
        <time>2018-01-17T03:37:23Z</time>
      </trkpt>
      <trkpt lat="40.334621" lon="0.377483">
        <ele>4.759</ele>
        <time>2018-01-17T03:37:43Z</time>
      </trkpt>
      <trkpt lat="40.334834" lon="0.377752">
        <ele>3.627</ele>
        <time>2018-01-17T03:38:03Z</time>
      </trkpt>
      <trkpt lat="40.335112" lon="0.378020">
        <ele>3.990</ele>
        <time>2018-01-17T03:38:23Z</time>
      </trkpt>
      <trkpt lat="40.335288" lon="0.378261">
        <ele>3.668</ele>
        <time>2018-01-17T03:38:43Z</time>
      </trkpt>
      <trkpt lat="40.335447" lon="0.378647">
        <ele>3.120</ele>
        <time>2018-01-17T03:39:03Z</time>
      </trkpt>
      <trkpt lat="40.335545" lon="0.378985">
        <ele>2.911</ele>
        <time>2018-01-17T03:39:23Z</time>
      </trkpt>
      <trkpt lat="40.335598" lon="0.379323">
        <ele>3.021</ele>
        <time>2018-01-17T03:39:43Z</time>
      </trkpt>
      <trkpt lat="40.335742" lon="0.379672">
        <ele>2.703</ele>
        <time>2018-01-17T03:40:03Z</time>
      </trkpt>
      <trkpt lat="40.335836" lon="0.379962">
        <ele>2.108</ele>
        <time>2018-01-17T03:40:23Z</time>
      </trkpt>
      <trkpt lat="40.335966" lon="0.380107">
        <ele>2.394</ele>
        <time>2018-01-17T03:40:43Z</time>
      </trkpt>
      <trkpt lat="40.336240" lon="0.380048">
        <ele>4.161</ele>
        <time>2018-01-17T03:41:03Z</time>
      </trkpt>
      <trkpt lat="40.336490" lon="0.380021">
        <ele>6.215</ele>
        <time>2018-01-17T03:41:23Z</time>
      </trkpt>
      <trkpt lat="40.336596" lon="0.380187">
        <ele>5.473</ele>
        <time>2018-01-17T03:41:43Z</time>
      </trkpt>
      <trkpt lat="40.336739" lon="0.380402">
        <ele>5.181</ele>
        <time>2018-01-17T03:42:03Z</time>
      </trkpt>
      <trkpt lat="40.336797" lon="0.380627">
        <ele>4.924</ele>
        <time>2018-01-17T03:42:23Z</time>
      </trkpt>
      <trkpt lat="40.336792" lon="0.380884">
        <ele>4.862</ele>
        <time>2018-01-17T03:42:43Z</time>
      </trkpt>
      <trkpt lat="40.336817" lon="0.381072">
        <ele>5.294</ele>
        <time>2018-01-17T03:43:03Z</time>
      </trkpt>
      <trkpt lat="40.336891" lon="0.381340">
        <ele>6.248</ele>
        <time>2018-01-17T03:43:23Z</time>
      </trkpt>
      <trkpt lat="40.337038" lon="0.381646">
        <ele>6.161</ele>
        <time>2018-01-17T03:43:43Z</time>
      </trkpt>
      <trkpt lat="40.337189" lon="0.381877">
        <ele>4.517</ele>
        <time>2018-01-17T03:44:03Z</time>
      </trkpt>
      <trkpt lat="40.337418" lon="0.382027">
        <ele>3.708</ele>
        <time>2018-01-17T03:44:23Z</time>
      </trkpt>
      <trkpt lat="40.337492" lon="0.382129">
        <ele>3.347</ele>
        <time>2018-01-17T03:44:43Z</time>
      </trkpt>
      <trkpt lat="40.337520" lon="0.382376">
        <ele>2.684</ele>
        <time>2018-01-17T03:45:03Z</time>
      </trkpt>
      <trkpt lat="40.337672" lon="0.382612">
        <ele>3.058</ele>
        <time>2018-01-17T03:45:23Z</time>
      </trkpt>
      <trkpt lat="40.337958" lon="0.382864">
        <ele>3.936</ele>
        <time>2018-01-17T03:45:43Z</time>
      </trkpt>
      <trkpt lat="40.338150" lon="0.383132">
        <ele>3.184</ele>
        <time>2018-01-17T03:46:03Z</time>
      </trkpt>
      <trkpt lat="40.338412" lon="0.383331">
        <ele>3.377</ele>
        <time>2018-01-17T03:46:23Z</time>
      </trkpt>
      <trkpt lat="40.338547" lon="0.383508">
        <ele>3.325</ele>
        <time>2018-01-17T03:46:43Z</time>
      </trkpt>
      <trkpt lat="40.338763" lon="0.383373">
        <ele>3.427</ele>
        <time>2018-01-17T03:47:03Z</time>
      </trkpt>
      <trkpt lat="40.338984" lon="0.383314">
        <ele>3.118</ele>
        <time>2018-01-17T03:47:23Z</time>
      </trkpt>
      <trkpt lat="40.339176" lon="0.383175">
        <ele>3.698</ele>
        <time>2018-01-17T03:47:43Z</time>
      </trkpt>
      <trkpt lat="40.339409" lon="0.383095">
        <ele>5.617</ele>
        <time>2018-01-17T03:48:03Z</time>
      </trkpt>
      <trkpt lat="40.339773" lon="0.383352">
        <ele>7.108</ele>
        <time>2018-01-17T03:48:23Z</time>
      </trkpt>
      <trkpt lat="40.340333" lon="0.383985">
        <ele>8.444</ele>
        <time>2018-01-17T03:48:43Z</time>
      </trkpt>
      <trkpt lat="40.340693" lon="0.384580">
        <ele>9.791</ele>
        <time>2018-01-17T03:49:03Z</time>
      </trkpt>
      <trkpt lat="40.340571" lon="0.384779">
        <ele>9.185</ele>
        <time>2018-01-17T03:49:23Z</time>
      </trkpt>
      <trkpt lat="40.340648" lon="0.384935">
        <ele>9.723</ele>
        <time>2018-01-17T03:49:43Z</time>
      </trkpt>
      <trkpt lat="40.341123" lon="0.385412">
        <ele>9.161</ele>
        <time>2018-01-17T03:50:03Z</time>
      </trkpt>
      <trkpt lat="40.341335" lon="0.385745">
        <ele>8.134</ele>
        <time>2018-01-17T03:50:23Z</time>
      </trkpt>
      <trkpt lat="40.341335" lon="0.385889">
        <ele>7.632</ele>
        <time>2018-01-17T03:50:43Z</time>
      </trkpt>
      <trkpt lat="40.341262" lon="0.386104">
        <ele>6.154</ele>
        <time>2018-01-17T03:51:03Z</time>
      </trkpt>
      <trkpt lat="40.341458" lon="0.386431">
        <ele>5.885</ele>
        <time>2018-01-17T03:51:23Z</time>
      </trkpt>
      <trkpt lat="40.342026" lon="0.386962">
        <ele>4.289</ele>
        <time>2018-01-17T03:51:43Z</time>
      </trkpt>
      <trkpt lat="40.342456" lon="0.387343">
        <ele>5.017</ele>
        <time>2018-01-17T03:52:03Z</time>
      </trkpt>
      <trkpt lat="40.343155" lon="0.387772">
        <ele>6.708</ele>
        <time>2018-01-17T03:52:23Z</time>
      </trkpt>
      <trkpt lat="40.343555" lon="0.387917">
        <ele>4.931</ele>
        <time>2018-01-17T03:52:43Z</time>
      </trkpt>
      <trkpt lat="40.344017" lon="0.387864">
        <ele>4.758</ele>
        <time>2018-01-17T03:53:03Z</time>
      </trkpt>
      <trkpt lat="40.344291" lon="0.387670">
        <ele>6.062</ele>
        <time>2018-01-17T03:53:23Z</time>
      </trkpt>
      <trkpt lat="40.344504" lon="0.387526">
        <ele>8.050</ele>
        <time>2018-01-17T03:53:43Z</time>
      </trkpt>
      <trkpt lat="40.344659" lon="0.387676">
        <ele>7.458</ele>
        <time>2018-01-17T03:54:03Z</time>
      </trkpt>
      <trkpt lat="40.344704" lon="0.387890">
        <ele>5.791</ele>
        <time>2018-01-17T03:54:23Z</time>
      </trkpt>
      <trkpt lat="40.344712" lon="0.388148">
        <ele>3.359</ele>
        <time>2018-01-17T03:54:43Z</time>
      </trkpt>
      <trkpt lat="40.344770" lon="0.388362">
        <ele>2.711</ele>
        <time>2018-01-17T03:55:03Z</time>
      </trkpt>
      <trkpt lat="40.345236" lon="0.388604">
        <ele>3.214</ele>
        <time>2018-01-17T03:55:23Z</time>
      </trkpt>
      <trkpt lat="40.345870" lon="0.388786">
        <ele>1.854</ele>
        <time>2018-01-17T03:55:43Z</time>
      </trkpt>
      <trkpt lat="40.346266" lon="0.388797">
        <ele>2.709</ele>
        <time>2018-01-17T03:56:03Z</time>
      </trkpt>
      <trkpt lat="40.346785" lon="0.389087">
        <ele>4.008</ele>
        <time>2018-01-17T03:56:23Z</time>
      </trkpt>
      <trkpt lat="40.347161" lon="0.389087">
        <ele>5.194</ele>
        <time>2018-01-17T03:56:43Z</time>
      </trkpt>
      <trkpt lat="40.347411" lon="0.389006">
        <ele>6.761</ele>
        <time>2018-01-17T03:57:03Z</time>
      </trkpt>
      <trkpt lat="40.347685" lon="0.389076">
        <ele>8.495</ele>
        <time>2018-01-17T03:57:23Z</time>
      </trkpt>
      <trkpt lat="40.347861" lon="0.389484">
        <ele>8.783</ele>
        <time>2018-01-17T03:57:43Z</time>
      </trkpt>
      <trkpt lat="40.348126" lon="0.390127">
        <ele>11.791</ele>
        <time>2018-01-17T03:58:03Z</time>
      </trkpt>
      <trkpt lat="40.348392" lon="0.390476">
        <ele>15.444</ele>
        <time>2018-01-17T03:58:23Z</time>
      </trkpt>
      <trkpt lat="40.348838" lon="0.390835">
        <ele>20.482</ele>
        <time>2018-01-17T03:58:43Z</time>
      </trkpt>
      <trkpt lat="40.349091" lon="0.391082">
        <ele>16.784</ele>
        <time>2018-01-17T03:59:03Z</time>
      </trkpt>
      <trkpt lat="40.349390" lon="0.391345">
        <ele>14.412</ele>
        <time>2018-01-17T03:59:23Z</time>
      </trkpt>
      <trkpt lat="40.349704" lon="0.391458">
        <ele>15.332</ele>
        <time>2018-01-17T03:59:43Z</time>
      </trkpt>
      <trkpt lat="40.349766" lon="0.391710">
        <ele>10.705</ele>
        <time>2018-01-17T04:00:03Z</time>
      </trkpt>
      <trkpt lat="40.349892" lon="0.391860">
        <ele>9.008</ele>
        <time>2018-01-17T04:00:23Z</time>
      </trkpt>
      <trkpt lat="40.350808" lon="0.391812">
        <ele>4.424</ele>
        <time>2018-01-17T04:00:43Z</time>
      </trkpt>
      <trkpt lat="40.351352" lon="0.391721">
        <ele>3.691</ele>
        <time>2018-01-17T04:01:03Z</time>
      </trkpt>
      <trkpt lat="40.351740" lon="0.391951">
        <ele>3.585</ele>
        <time>2018-01-17T04:01:23Z</time>
      </trkpt>
      <trkpt lat="40.352186" lon="0.392439">
        <ele>7.053</ele>
        <time>2018-01-17T04:01:43Z</time>
      </trkpt>
      <trkpt lat="40.352558" lon="0.393083">
        <ele>4.111</ele>
        <time>2018-01-17T04:02:03Z</time>
      </trkpt>
      <trkpt lat="40.352885" lon="0.393823">
        <ele>4.444</ele>
        <time>2018-01-17T04:02:23Z</time>
      </trkpt>
      <trkpt lat="40.353277" lon="0.394741">
        <ele>8.312</ele>
        <time>2018-01-17T04:02:43Z</time>
      </trkpt>
      <trkpt lat="40.353478" lon="0.395358">
        <ele>11.674</ele>
        <time>2018-01-17T04:03:03Z</time>
      </trkpt>
      <trkpt lat="40.353535" lon="0.395916">
        <ele>13.826</ele>
        <time>2018-01-17T04:03:23Z</time>
      </trkpt>
      <trkpt lat="40.353510" lon="0.396382">
        <ele>12.147</ele>
        <time>2018-01-17T04:03:43Z</time>
      </trkpt>
      <trkpt lat="40.353580" lon="0.396731">
        <ele>12.611</ele>
        <time>2018-01-17T04:04:03Z</time>
      </trkpt>
      <trkpt lat="40.353964" lon="0.397257">
        <ele>17.208</ele>
        <time>2018-01-17T04:04:23Z</time>
      </trkpt>
      <trkpt lat="40.354218" lon="0.397444">
        <ele>21.555</ele>
        <time>2018-01-17T04:04:43Z</time>
      </trkpt>
      <trkpt lat="40.354447" lon="0.397562">
        <ele>26.222</ele>
        <time>2018-01-17T04:05:03Z</time>
      </trkpt>
      <trkpt lat="40.354528" lon="0.397916">
        <ele>22.356</ele>
        <time>2018-01-17T04:05:23Z</time>
      </trkpt>
      <trkpt lat="40.354573" lon="0.398115">
        <ele>19.884</ele>
        <time>2018-01-17T04:05:43Z</time>
      </trkpt>
      <trkpt lat="40.355072" lon="0.398329">
        <ele>30.732</ele>
        <time>2018-01-17T04:06:03Z</time>
      </trkpt>
      <trkpt lat="40.355424" lon="0.398448">
        <ele>27.145</ele>
        <time>2018-01-17T04:06:23Z</time>
      </trkpt>
      <trkpt lat="40.355743" lon="0.398415">
        <ele>23.953</ele>
        <time>2018-01-17T04:06:43Z</time>
      </trkpt>
      <trkpt lat="40.355926" lon="0.398469">
        <ele>17.495</ele>
        <time>2018-01-17T04:07:03Z</time>
      </trkpt>
      <trkpt lat="40.356029" lon="0.398566">
        <ele>12.912</ele>
        <time>2018-01-17T04:07:23Z</time>
      </trkpt>
      <trkpt lat="40.356225" lon="0.398383">
        <ele>14.232</ele>
        <time>2018-01-17T04:07:43Z</time>
      </trkpt>
      <trkpt lat="40.356752" lon="0.397863">
        <ele>14.105</ele>
        <time>2018-01-17T04:08:03Z</time>
      </trkpt>
      <trkpt lat="40.357570" lon="0.398641">
        <ele>5.808</ele>
        <time>2018-01-17T04:08:23Z</time>
      </trkpt>
      <trkpt lat="40.358387" lon="0.399483">
        <ele>2.814</ele>
        <time>2018-01-17T04:08:43Z</time>
      </trkpt>
      <trkpt lat="40.358551" lon="0.399848">
        <ele>3.731</ele>
        <time>2018-01-17T04:09:03Z</time>
      </trkpt>
      <trkpt lat="40.358637" lon="0.400035">
        <ele>5.325</ele>
        <time>2018-01-17T04:09:23Z</time>
      </trkpt>
      <trkpt lat="40.358714" lon="0.400743">
        <ele>9.253</ele>
        <time>2018-01-17T04:09:43Z</time>
      </trkpt>
      <trkpt lat="40.358772" lon="0.401393">
        <ele>7.661</ele>
        <time>2018-01-17T04:10:03Z</time>
      </trkpt>
      <trkpt lat="40.358772" lon="0.401731">
        <ele>8.544</ele>
        <time>2018-01-17T04:10:23Z</time>
      </trkpt>
      <trkpt lat="40.358718" lon="0.402192">
        <ele>6.332</ele>
        <time>2018-01-17T04:10:43Z</time>
      </trkpt>
      <trkpt lat="40.358706" lon="0.402524">
        <ele>3.514</ele>
        <time>2018-01-17T04:11:03Z</time>
      </trkpt>
      <trkpt lat="40.358559" lon="0.403098">
        <ele>2.094</ele>
        <time>2018-01-17T04:11:23Z</time>
      </trkpt>
      <trkpt lat="40.358306" lon="0.403705">
        <ele>1.057</ele>
        <time>2018-01-17T04:11:43Z</time>
      </trkpt>
      <trkpt lat="40.358089" lon="0.404182">
        <ele>2.122</ele>
        <time>2018-01-17T04:12:03Z</time>
      </trkpt>
      <trkpt lat="40.357880" lon="0.404525">
        <ele>1.908</ele>
        <time>2018-01-17T04:12:23Z</time>
      </trkpt>
      <trkpt lat="40.358289" lon="0.405201">
        <ele>4.212</ele>
        <time>2018-01-17T04:12:43Z</time>
      </trkpt>
      <trkpt lat="40.358052" lon="0.405427">
        <ele>4.699</ele>
        <time>2018-01-17T04:13:03Z</time>
      </trkpt>
      <trkpt lat="40.357844" lon="0.405598">
        <ele>5.223</ele>
        <time>2018-01-17T04:13:23Z</time>
      </trkpt>
      <trkpt lat="40.357541" lon="0.405813">
        <ele>5.391</ele>
        <time>2018-01-17T04:13:43Z</time>
      </trkpt>
      <trkpt lat="40.357398" lon="0.406044">
        <ele>8.599</ele>
        <time>2018-01-17T04:14:03Z</time>
      </trkpt>
      <trkpt lat="40.357280" lon="0.406280">
        <ele>12.442</ele>
        <time>2018-01-17T04:14:23Z</time>
      </trkpt>
      <trkpt lat="40.357160" lon="0.406469">
        <ele>13.790</ele>
        <time>2018-01-17T04:14:43Z</time>
      </trkpt>
      <trkpt lat="40.357093" lon="0.406652">
        <ele>14.162</ele>
        <time>2018-01-17T04:15:03Z</time>
      </trkpt>
      <trkpt lat="40.357019" lon="0.406850">
        <ele>14.048</ele>
        <time>2018-01-17T04:15:23Z</time>
      </trkpt>
      <trkpt lat="40.356932" lon="0.407103">
        <ele>13.361</ele>
        <time>2018-01-17T04:15:43Z</time>
      </trkpt>
      <trkpt lat="40.356928" lon="0.407256">
        <ele>13.917</ele>
        <time>2018-01-17T04:16:03Z</time>
      </trkpt>
      <trkpt lat="40.356941" lon="0.407304">
        <ele>14.508</ele>
        <time>2018-01-17T04:16:23Z</time>
      </trkpt>
      <trkpt lat="40.357007" lon="0.407484">
        <ele>16.877</ele>
        <time>2018-01-17T04:16:43Z</time>
      </trkpt>
      <trkpt lat="40.357040" lon="0.407586">
        <ele>17.954</ele>
        <time>2018-01-17T04:17:03Z</time>
      </trkpt>
      <trkpt lat="40.357073" lon="0.407680">
        <ele>18.868</ele>
        <time>2018-01-17T04:17:23Z</time>
      </trkpt>
      <trkpt lat="40.357142" lon="0.407794">
        <ele>19.866</ele>
        <time>2018-01-17T04:17:43Z</time>
      </trkpt>
      <trkpt lat="40.357212" lon="0.407926">
        <ele>20.594</ele>
        <time>2018-01-17T04:18:03Z</time>
      </trkpt>
      <trkpt lat="40.357268" lon="0.408026">
        <ele>22.267</ele>
        <time>2018-01-17T04:18:23Z</time>
      </trkpt>
      <trkpt lat="40.357360" lon="0.407972">
        <ele>24.575</ele>
        <time>2018-01-17T04:18:43Z</time>
      </trkpt>
      <trkpt lat="40.357433" lon="0.408070">
        <ele>25.917</ele>
        <time>2018-01-17T04:19:03Z</time>
      </trkpt>
      <trkpt lat="40.357503" lon="0.408188">
        <ele>26.697</ele>
        <time>2018-01-17T04:19:23Z</time>
      </trkpt>
      <trkpt lat="40.357592" lon="0.408323">
        <ele>27.423</ele>
        <time>2018-01-17T04:19:43Z</time>
      </trkpt>
      <trkpt lat="40.357703" lon="0.408329">
        <ele>30.225</ele>
        <time>2018-01-17T04:20:03Z</time>
      </trkpt>
      <trkpt lat="40.357804" lon="0.408345">
        <ele>30.708</ele>
        <time>2018-01-17T04:20:23Z</time>
      </trkpt>
      <trkpt lat="40.357851" lon="0.408368">
        <ele>28.752</ele>
        <time>2018-01-17T04:20:43Z</time>
      </trkpt>
      <trkpt lat="40.357986" lon="0.408236">
        <ele>33.849</ele>
        <time>2018-01-17T04:21:03Z</time>
      </trkpt>
      <trkpt lat="40.358103" lon="0.408078">
        <ele>37.773</ele>
        <time>2018-01-17T04:21:23Z</time>
      </trkpt>
      <trkpt lat="40.358189" lon="0.407975">
        <ele>39.051</ele>
        <time>2018-01-17T04:21:43Z</time>
      </trkpt>
      <trkpt lat="40.358280" lon="0.408098">
        <ele>37.669</ele>
        <time>2018-01-17T04:22:03Z</time>
      </trkpt>
      <trkpt lat="40.358381" lon="0.407980">
        <ele>39.712</ele>
        <time>2018-01-17T04:22:23Z</time>
      </trkpt>
      <trkpt lat="40.358501" lon="0.407810">
        <ele>41.660</ele>
        <time>2018-01-17T04:22:43Z</time>
      </trkpt>
      <trkpt lat="40.358625" lon="0.407665">
        <ele>42.232</ele>
        <time>2018-01-17T04:23:03Z</time>
      </trkpt>
      <trkpt lat="40.358726" lon="0.407536">
        <ele>41.578</ele>
        <time>2018-01-17T04:23:23Z</time>
      </trkpt>
      <trkpt lat="40.358775" lon="0.407420">
        <ele>40.733</ele>
        <time>2018-01-17T04:23:43Z</time>
      </trkpt>
      <trkpt lat="40.358881" lon="0.407377">
        <ele>39.226</ele>
        <time>2018-01-17T04:24:03Z</time>
      </trkpt>
      <trkpt lat="40.359014" lon="0.407350">
        <ele>38.308</ele>
        <time>2018-01-17T04:24:23Z</time>
      </trkpt>
      <trkpt lat="40.359112" lon="0.407306">
        <ele>37.610</ele>
        <time>2018-01-17T04:24:43Z</time>
      </trkpt>
      <trkpt lat="40.359212" lon="0.407320">
        <ele>37.257</ele>
        <time>2018-01-17T04:25:03Z</time>
      </trkpt>
      <trkpt lat="40.359280" lon="0.407382">
        <ele>37.221</ele>
        <time>2018-01-17T04:25:23Z</time>
      </trkpt>
      <trkpt lat="40.359355" lon="0.407479">
        <ele>37.249</ele>
        <time>2018-01-17T04:25:43Z</time>
      </trkpt>
      <trkpt lat="40.359475" lon="0.407559">
        <ele>25.977</ele>
        <time>2018-01-17T04:26:03Z</time>
      </trkpt>
      <trkpt lat="40.359584" lon="0.407617">
        <ele>10.770</ele>
        <time>2018-01-17T04:26:23Z</time>
      </trkpt>
      <trkpt lat="40.359691" lon="0.407613">
        <ele>2.588</ele>
        <time>2018-01-17T04:26:43Z</time>
      </trkpt>
      <trkpt lat="40.359691" lon="0.407491">
        <ele>4.220</ele>
        <time>2018-01-17T04:27:03Z</time>
      </trkpt>
      <trkpt lat="40.359672" lon="0.407391">
        <ele>6.677</ele>
        <time>2018-01-17T04:27:23Z</time>
      </trkpt>
      <trkpt lat="40.359638" lon="0.407301">
        <ele>11.061</ele>
        <time>2018-01-17T04:27:43Z</time>
      </trkpt>
      <trkpt lat="40.359547" lon="0.407181">
        <ele>21.827</ele>
        <time>2018-01-17T04:28:03Z</time>
      </trkpt>
      <trkpt lat="40.359406" lon="0.407115">
        <ele>32.308</ele>
        <time>2018-01-17T04:28:23Z</time>
      </trkpt>
      <trkpt lat="40.359320" lon="0.407126">
        <ele>33.140</ele>
        <time>2018-01-17T04:28:43Z</time>
      </trkpt>
      <trkpt lat="40.359221" lon="0.407024">
        <ele>30.247</ele>
        <time>2018-01-17T04:29:03Z</time>
      </trkpt>
      <trkpt lat="40.359057" lon="0.406939">
        <ele>29.811</ele>
        <time>2018-01-17T04:29:23Z</time>
      </trkpt>
      <trkpt lat="40.358890" lon="0.406917">
        <ele>31.919</ele>
        <time>2018-01-17T04:29:43Z</time>
      </trkpt>
      <trkpt lat="40.358704" lon="0.406874">
        <ele>32.917</ele>
        <time>2018-01-17T04:30:03Z</time>
      </trkpt>
      <trkpt lat="40.358590" lon="0.406900">
        <ele>35.010</ele>
        <time>2018-01-17T04:30:23Z</time>
      </trkpt>
      <trkpt lat="40.358676" lon="0.406765">
        <ele>30.218</ele>
        <time>2018-01-17T04:30:43Z</time>
      </trkpt>
      <trkpt lat="40.358837" lon="0.406774">
        <ele>27.390</ele>
        <time>2018-01-17T04:31:03Z</time>
      </trkpt>
      <trkpt lat="40.358980" lon="0.406808">
        <ele>26.187</ele>
        <time>2018-01-17T04:31:23Z</time>
      </trkpt>
      <trkpt lat="40.359083" lon="0.406812">
        <ele>24.642</ele>
        <time>2018-01-17T04:31:43Z</time>
      </trkpt>
      <trkpt lat="40.359119" lon="0.406719">
        <ele>20.626</ele>
        <time>2018-01-17T04:32:03Z</time>
      </trkpt>
      <trkpt lat="40.359032" lon="0.406626">
        <ele>19.108</ele>
        <time>2018-01-17T04:32:23Z</time>
      </trkpt>
      <trkpt lat="40.358912" lon="0.406530">
        <ele>18.851</ele>
        <time>2018-01-17T04:32:43Z</time>
      </trkpt>
      <trkpt lat="40.358805" lon="0.406466">
        <ele>18.958</ele>
        <time>2018-01-17T04:33:03Z</time>
      </trkpt>
      <trkpt lat="40.358685" lon="0.406351">
        <ele>17.442</ele>
        <time>2018-01-17T04:33:23Z</time>
      </trkpt>
      <trkpt lat="40.358580" lon="0.406261">
        <ele>16.120</ele>
        <time>2018-01-17T04:33:43Z</time>
      </trkpt>
      <trkpt lat="40.358609" lon="0.406195">
        <ele>14.188</ele>
        <time>2018-01-17T04:34:03Z</time>
      </trkpt>
      <trkpt lat="40.358742" lon="0.406163">
        <ele>13.061</ele>
        <time>2018-01-17T04:34:23Z</time>
      </trkpt>
      <trkpt lat="40.358863" lon="0.406121">
        <ele>12.249</ele>
        <time>2018-01-17T04:34:43Z</time>
      </trkpt>
      <trkpt lat="40.358934" lon="0.406011">
        <ele>11.591</ele>
        <time>2018-01-17T04:35:03Z</time>
      </trkpt>
      <trkpt lat="40.359046" lon="0.405867">
        <ele>11.139</ele>
        <time>2018-01-17T04:35:23Z</time>
      </trkpt>
      <trkpt lat="40.359089" lon="0.405762">
        <ele>10.701</ele>
        <time>2018-01-17T04:35:43Z</time>
      </trkpt>
      <trkpt lat="40.359122" lon="0.405704">
        <ele>10.521</ele>
        <time>2018-01-17T04:36:03Z</time>
      </trkpt>
      <trkpt lat="40.359199" lon="0.405452">
        <ele>8.508</ele>
        <time>2018-01-17T04:36:23Z</time>
      </trkpt>
      <trkpt lat="40.359311" lon="0.405158">
        <ele>3.996</ele>
        <time>2018-01-17T04:36:43Z</time>
      </trkpt>
      <trkpt lat="40.359416" lon="0.404838">
        <ele>3.853</ele>
        <time>2018-01-17T04:37:03Z</time>
      </trkpt>
      <trkpt lat="40.359510" lon="0.404586">
        <ele>5.767</ele>
        <time>2018-01-17T04:37:23Z</time>
      </trkpt>
      <trkpt lat="40.359642" lon="0.404201">
        <ele>6.385</ele>
        <time>2018-01-17T04:37:43Z</time>
      </trkpt>
      <trkpt lat="40.359785" lon="0.403796">
        <ele>5.963</ele>
        <time>2018-01-17T04:38:03Z</time>
      </trkpt>
      <trkpt lat="40.360020" lon="0.403337">
        <ele>6.846</ele>
        <time>2018-01-17T04:38:23Z</time>
      </trkpt>
      <trkpt lat="40.360266" lon="0.403021">
        <ele>6.294</ele>
        <time>2018-01-17T04:38:43Z</time>
      </trkpt>
      <trkpt lat="40.360609" lon="0.402734">
        <ele>5.026</ele>
        <time>2018-01-17T04:39:03Z</time>
      </trkpt>
      <trkpt lat="40.361026" lon="0.402390">
        <ele>5.082</ele>
        <time>2018-01-17T04:39:23Z</time>
      </trkpt>
      <trkpt lat="40.361414" lon="0.402286">
        <ele>3.943</ele>
        <time>2018-01-17T04:39:43Z</time>
      </trkpt>
      <trkpt lat="40.361529" lon="0.402141">
        <ele>3.817</ele>
        <time>2018-01-17T04:40:03Z</time>
      </trkpt>
      <trkpt lat="40.360300" lon="0.403045">
        <ele>5.873</ele>
        <time>2018-01-12T12:58:47Z</time>
      </trkpt>
      <trkpt lat="40.360954" lon="0.402444">
        <ele>4.985</ele>
        <time>2018-01-12T12:59:07Z</time>
      </trkpt>
      <trkpt lat="40.361486" lon="0.402224">
        <ele>3.613</ele>
        <time>2018-01-12T12:59:27Z</time>
      </trkpt>
      <trkpt lat="40.362773" lon="0.402535">
        <ele>3.208</ele>
        <time>2018-01-12T12:59:47Z</time>
      </trkpt>
      <trkpt lat="40.364085" lon="0.402879">
        <ele>7.920</ele>
        <time>2018-01-12T13:00:07Z</time>
      </trkpt>
      <trkpt lat="40.364743" lon="0.403050">
        <ele>4.957</ele>
        <time>2018-01-12T13:00:27Z</time>
      </trkpt>
      <trkpt lat="40.365692" lon="0.403313">
        <ele>10.551</ele>
        <time>2018-01-12T13:00:47Z</time>
      </trkpt>
      <trkpt lat="40.366509" lon="0.403554">
        <ele>6.849</ele>
        <time>2018-01-12T13:01:07Z</time>
      </trkpt>
      <trkpt lat="40.367915" lon="0.403833">
        <ele>7.237</ele>
        <time>2018-01-12T13:01:27Z</time>
      </trkpt>
      <trkpt lat="40.369501" lon="0.404284">
        <ele>4.010</ele>
        <time>2018-01-12T13:01:47Z</time>
      </trkpt>
      <trkpt lat="40.370727" lon="0.404670">
        <ele>1.579</ele>
        <time>2018-01-12T13:02:07Z</time>
      </trkpt>
      <trkpt lat="40.372345" lon="0.405357">
        <ele>2.440</ele>
        <time>2018-01-12T13:02:27Z</time>
      </trkpt>
      <trkpt lat="40.374111" lon="0.406108">
        <ele>2.445</ele>
        <time>2018-01-12T13:02:47Z</time>
      </trkpt>
      <trkpt lat="40.375680" lon="0.406644">
        <ele>6.947</ele>
        <time>2018-01-12T13:03:07Z</time>
      </trkpt>
      <trkpt lat="40.377021" lon="0.407116">
        <ele>4.511</ele>
        <time>2018-01-12T13:03:27Z</time>
      </trkpt>
      <trkpt lat="40.377936" lon="0.407352">
        <ele>8.408</ele>
        <time>2018-01-12T13:03:47Z</time>
      </trkpt>
      <trkpt lat="40.378492" lon="0.406537">
        <ele>4.137</ele>
        <time>2018-01-12T13:04:07Z</time>
      </trkpt>
      <trkpt lat="40.380143" lon="0.407031">
        <ele>2.334</ele>
        <time>2018-01-12T13:04:27Z</time>
      </trkpt>
      <trkpt lat="40.381532" lon="0.407696">
        <ele>5.248</ele>
        <time>2018-01-12T13:04:47Z</time>
      </trkpt>
      <trkpt lat="40.382480" lon="0.408061">
        <ele>4.126</ele>
        <time>2018-01-12T13:05:07Z</time>
      </trkpt>
      <trkpt lat="40.383804" lon="0.408769">
        <ele>8.054</ele>
        <time>2018-01-12T13:05:27Z</time>
      </trkpt>
      <trkpt lat="40.384654" lon="0.409434">
        <ele>4.767</ele>
        <time>2018-01-12T13:05:47Z</time>
      </trkpt>
      <trkpt lat="40.385798" lon="0.409949">
        <ele>8.836</ele>
        <time>2018-01-12T13:06:07Z</time>
      </trkpt>
      <trkpt lat="40.386131" lon="0.410061">
        <ele>9.647</ele>
        <time>2018-01-12T13:06:27Z</time>
      </trkpt>
      <trkpt lat="40.386350" lon="0.409646">
        <ele>10.943</ele>
        <time>2018-01-12T13:06:47Z</time>
      </trkpt>
      <trkpt lat="40.386828" lon="0.408769">
        <ele>2.864</ele>
        <time>2018-01-12T13:07:07Z</time>
      </trkpt>
      <trkpt lat="40.387498" lon="0.407470">
        <ele>1.010</ele>
        <time>2018-01-12T13:07:27Z</time>
      </trkpt>
      <trkpt lat="40.388119" lon="0.406269">
        <ele>0.008</ele>
        <time>2018-01-12T13:07:47Z</time>
      </trkpt>
      <trkpt lat="40.388667" lon="0.405335">
        <ele>1.057</ele>
        <time>2018-01-12T13:08:07Z</time>
      </trkpt>
      <trkpt lat="40.389394" lon="0.404187">
        <ele>5.074</ele>
        <time>2018-01-12T13:08:27Z</time>
      </trkpt>
      <trkpt lat="40.390571" lon="0.405507">
        <ele>2.668</ele>
        <time>2018-01-12T13:08:47Z</time>
      </trkpt>
      <trkpt lat="40.391355" lon="0.406151">
        <ele>5.016</ele>
        <time>2018-01-12T13:09:07Z</time>
      </trkpt>
      <trkpt lat="40.392344" lon="0.407116">
        <ele>3.014</ele>
        <time>2018-01-12T13:09:27Z</time>
      </trkpt>
      <trkpt lat="40.393447" lon="0.408125">
        <ele>4.477</ele>
        <time>2018-01-12T13:09:47Z</time>
      </trkpt>
      <trkpt lat="40.393324" lon="0.408490">
        <ele>4.036</ele>
        <time>2018-01-12T13:10:07Z</time>
      </trkpt>
      <trkpt lat="40.393569" lon="0.408683">
        <ele>4.847</ele>
        <time>2018-01-12T13:10:27Z</time>
      </trkpt>
      <trkpt lat="40.393823" lon="0.408490">
        <ele>5.847</ele>
        <time>2018-01-12T13:10:47Z</time>
      </trkpt>
      <trkpt lat="40.393733" lon="0.408082">
        <ele>5.429</ele>
        <time>2018-01-12T13:11:07Z</time>
      </trkpt>
      <trkpt lat="40.393692" lon="0.407696">
        <ele>4.321</ele>
        <time>2018-01-12T13:11:27Z</time>
      </trkpt>
      <trkpt lat="40.394027" lon="0.407149">
        <ele>5.408</ele>
        <time>2018-01-12T13:11:47Z</time>
      </trkpt>
      <trkpt lat="40.394534" lon="0.406612">
        <ele>6.077</ele>
        <time>2018-01-12T13:12:07Z</time>
      </trkpt>
      <trkpt lat="40.395367" lon="0.406054">
        <ele>5.534</ele>
        <time>2018-01-12T13:12:27Z</time>
      </trkpt>
      <trkpt lat="40.396250" lon="0.405303">
        <ele>8.588</ele>
        <time>2018-01-12T13:12:47Z</time>
      </trkpt>
      <trkpt lat="40.396699" lon="0.404906">
        <ele>8.966</ele>
        <time>2018-01-12T13:13:07Z</time>
      </trkpt>
      <trkpt lat="40.397287" lon="0.404477">
        <ele>8.934</ele>
        <time>2018-01-12T13:13:27Z</time>
      </trkpt>
      <trkpt lat="40.398047" lon="0.402954">
        <ele>10.697</ele>
        <time>2018-01-12T13:13:47Z</time>
      </trkpt>
      <trkpt lat="40.398570" lon="0.401967">
        <ele>13.036</ele>
        <time>2018-01-12T13:14:07Z</time>
      </trkpt>
      <trkpt lat="40.399199" lon="0.400786">
        <ele>10.237</ele>
        <time>2018-01-12T13:14:27Z</time>
      </trkpt>
      <trkpt lat="40.399624" lon="0.400207">
        <ele>13.079</ele>
        <time>2018-01-12T13:14:47Z</time>
      </trkpt>
      <trkpt lat="40.400490" lon="0.399295">
        <ele>14.505</ele>
        <time>2018-01-12T13:15:07Z</time>
      </trkpt>
      <trkpt lat="40.401119" lon="0.398705">
        <ele>13.325</ele>
        <time>2018-01-12T13:15:27Z</time>
      </trkpt>
      <trkpt lat="40.402132" lon="0.398147">
        <ele>13.908</ele>
        <time>2018-01-12T13:15:47Z</time>
      </trkpt>
      <trkpt lat="40.402745" lon="0.397815">
        <ele>15.090</ele>
        <time>2018-01-12T13:16:07Z</time>
      </trkpt>
      <trkpt lat="40.404371" lon="0.396280">
        <ele>17.097</ele>
        <time>2018-01-12T13:16:27Z</time>
      </trkpt>
      <trkpt lat="40.405147" lon="0.395411">
        <ele>17.551</ele>
        <time>2018-01-12T13:16:47Z</time>
      </trkpt>
      <trkpt lat="40.406283" lon="0.394306">
        <ele>17.259</ele>
        <time>2018-01-12T13:17:07Z</time>
      </trkpt>
      <trkpt lat="40.406838" lon="0.393909">
        <ele>18.577</ele>
        <time>2018-01-12T13:17:27Z</time>
      </trkpt>
      <trkpt lat="40.407018" lon="0.394156">
        <ele>17.530</ele>
        <time>2018-01-12T13:17:47Z</time>
      </trkpt>
      <trkpt lat="40.407238" lon="0.394521">
        <ele>16.259</ele>
        <time>2018-01-12T13:18:07Z</time>
      </trkpt>
      <trkpt lat="40.407704" lon="0.394360">
        <ele>13.980</ele>
        <time>2018-01-12T13:18:27Z</time>
      </trkpt>
      <trkpt lat="40.407941" lon="0.394145">
        <ele>13.641</ele>
        <time>2018-01-12T13:18:47Z</time>
      </trkpt>
      <trkpt lat="40.408194" lon="0.393791">
        <ele>15.581</ele>
        <time>2018-01-12T13:19:07Z</time>
      </trkpt>
      <trkpt lat="40.409028" lon="0.394435">
        <ele>17.009</ele>
        <time>2018-01-12T13:19:27Z</time>
      </trkpt>
      <trkpt lat="40.409689" lon="0.392600">
        <ele>19.408</ele>
        <time>2018-01-12T13:19:47Z</time>
      </trkpt>
      <trkpt lat="40.410572" lon="0.390433">
        <ele>19.657</ele>
        <time>2018-01-12T13:20:07Z</time>
      </trkpt>
      <trkpt lat="40.410972" lon="0.389553">
        <ele>20.384</ele>
        <time>2018-01-12T13:20:27Z</time>
      </trkpt>
      <trkpt lat="40.411005" lon="0.388899">
        <ele>20.498</ele>
        <time>2018-01-12T13:20:47Z</time>
      </trkpt>
      <trkpt lat="40.411054" lon="0.388298">
        <ele>20.446</ele>
        <time>2018-01-12T13:21:07Z</time>
      </trkpt>
      <trkpt lat="40.411339" lon="0.387740">
        <ele>23.864</ele>
        <time>2018-01-12T13:21:27Z</time>
      </trkpt>
      <trkpt lat="40.411601" lon="0.387483">
        <ele>24.087</ele>
        <time>2018-01-12T13:21:47Z</time>
      </trkpt>
      <trkpt lat="40.412116" lon="0.386614">
        <ele>22.456</ele>
        <time>2018-01-12T13:22:07Z</time>
      </trkpt>
      <trkpt lat="40.412883" lon="0.384554">
        <ele>23.277</ele>
        <time>2018-01-12T13:22:27Z</time>
      </trkpt>
      <trkpt lat="40.413423" lon="0.383009">
        <ele>21.613</ele>
        <time>2018-01-12T13:22:47Z</time>
      </trkpt>
      <trkpt lat="40.414321" lon="0.380638">
        <ele>24.743</ele>
        <time>2018-01-12T13:23:07Z</time>
      </trkpt>
      <trkpt lat="40.415040" lon="0.378857">
        <ele>27.007</ele>
        <time>2018-01-12T13:23:27Z</time>
      </trkpt>
      <trkpt lat="40.415473" lon="0.377966">
        <ele>25.608</ele>
        <time>2018-01-12T13:23:47Z</time>
      </trkpt>
      <trkpt lat="40.415604" lon="0.377204">
        <ele>28.274</ele>
        <time>2018-01-12T13:24:07Z</time>
      </trkpt>
      <trkpt lat="40.415718" lon="0.376346">
        <ele>32.751</ele>
        <time>2018-01-12T13:24:27Z</time>
      </trkpt>
      <trkpt lat="40.415881" lon="0.375370">
        <ele>37.565</ele>
        <time>2018-01-12T13:24:47Z</time>
      </trkpt>
      <trkpt lat="40.414378" lon="0.374125">
        <ele>34.143</ele>
        <time>2018-01-12T13:25:07Z</time>
      </trkpt>
      <trkpt lat="40.413692" lon="0.373986">
        <ele>32.021</ele>
        <time>2018-01-12T13:25:27Z</time>
      </trkpt>
      <trkpt lat="40.413292" lon="0.373803">
        <ele>31.134</ele>
        <time>2018-01-12T13:25:47Z</time>
      </trkpt>
      <trkpt lat="40.412524" lon="0.373256">
        <ele>33.343</ele>
        <time>2018-01-12T13:26:07Z</time>
      </trkpt>
      <trkpt lat="40.412075" lon="0.372827">
        <ele>34.854</ele>
        <time>2018-01-12T13:26:27Z</time>
      </trkpt>
      <trkpt lat="40.411299" lon="0.372226">
        <ele>36.763</ele>
        <time>2018-01-12T13:26:47Z</time>
      </trkpt>
      <trkpt lat="40.410702" lon="0.371765">
        <ele>38.244</ele>
        <time>2018-01-12T13:27:07Z</time>
      </trkpt>
      <trkpt lat="40.410335" lon="0.371658">
        <ele>37.318</ele>
        <time>2018-01-12T13:27:27Z</time>
      </trkpt>
      <trkpt lat="40.409918" lon="0.371561">
        <ele>39.708</ele>
        <time>2018-01-12T13:27:47Z</time>
      </trkpt>
      <trkpt lat="40.409330" lon="0.371357">
        <ele>39.249</ele>
        <time>2018-01-12T13:28:07Z</time>
      </trkpt>
      <trkpt lat="40.409003" lon="0.371207">
        <ele>37.996</ele>
        <time>2018-01-12T13:28:27Z</time>
      </trkpt>
      <trkpt lat="40.408823" lon="0.370198">
        <ele>39.260</ele>
        <time>2018-01-12T13:28:47Z</time>
      </trkpt>
      <trkpt lat="40.408725" lon="0.369576">
        <ele>39.928</ele>
        <time>2018-01-12T13:29:07Z</time>
      </trkpt>
      <trkpt lat="40.408725" lon="0.368375">
        <ele>44.636</ele>
        <time>2018-01-12T13:29:27Z</time>
      </trkpt>
      <trkpt lat="40.408782" lon="0.367044">
        <ele>48.029</ele>
        <time>2018-01-12T13:29:47Z</time>
      </trkpt>
      <trkpt lat="40.408864" lon="0.365456">
        <ele>56.048</ele>
        <time>2018-01-12T13:30:07Z</time>
      </trkpt>
      <trkpt lat="40.409395" lon="0.363568">
        <ele>57.359</ele>
        <time>2018-01-12T13:30:27Z</time>
      </trkpt>
      <trkpt lat="40.409910" lon="0.361980">
        <ele>60.273</ele>
        <time>2018-01-12T13:30:47Z</time>
      </trkpt>
      <trkpt lat="40.410343" lon="0.360703">
        <ele>66.385</ele>
        <time>2018-01-12T13:31:07Z</time>
      </trkpt>
      <trkpt lat="40.411078" lon="0.358740">
        <ele>71.913</ele>
        <time>2018-01-12T13:31:27Z</time>
      </trkpt>
      <trkpt lat="40.411715" lon="0.357088">
        <ele>77.908</ele>
        <time>2018-01-12T13:31:47Z</time>
      </trkpt>
      <trkpt lat="40.412410" lon="0.355393">
        <ele>85.010</ele>
        <time>2018-01-12T13:32:07Z</time>
      </trkpt>
      <trkpt lat="40.412932" lon="0.354030">
        <ele>90.067</ele>
        <time>2018-01-12T13:32:27Z</time>
      </trkpt>
      <trkpt lat="40.413284" lon="0.353204">
        <ele>94.561</ele>
        <time>2018-01-12T13:32:47Z</time>
      </trkpt>
      <trkpt lat="40.413659" lon="0.352185">
        <ele>97.779</ele>
        <time>2018-01-12T13:33:07Z</time>
      </trkpt>
      <trkpt lat="40.413823" lon="0.351809">
        <ele>97.697</ele>
        <time>2018-01-12T13:33:27Z</time>
      </trkpt>
      <trkpt lat="40.414194" lon="0.351616">
        <ele>99.450</ele>
        <time>2018-01-12T13:33:47Z</time>
      </trkpt>
      <trkpt lat="40.414819" lon="0.351321">
        <ele>101.569</ele>
        <time>2018-01-12T13:34:07Z</time>
      </trkpt>
      <trkpt lat="40.415408" lon="0.351037">
        <ele>103.320</ele>
        <time>2018-01-12T13:34:27Z</time>
      </trkpt>
      <trkpt lat="40.415885" lon="0.350677">
        <ele>108.274</ele>
        <time>2018-01-12T13:34:47Z</time>
      </trkpt>
      <trkpt lat="40.416335" lon="0.350270">
        <ele>112.156</ele>
        <time>2018-01-12T13:35:07Z</time>
      </trkpt>
      <trkpt lat="40.416866" lon="0.349696">
        <ele>110.521</ele>
        <time>2018-01-12T13:35:27Z</time>
      </trkpt>
      <trkpt lat="40.417384" lon="0.349208">
        <ele>105.708</ele>
        <time>2018-01-12T13:35:47Z</time>
      </trkpt>
      <trkpt lat="40.417838" lon="0.348821">
        <ele>107.880</ele>
        <time>2018-01-12T13:36:07Z</time>
      </trkpt>
      <trkpt lat="40.418773" lon="0.347872">
        <ele>115.297</ele>
        <time>2018-01-12T13:36:27Z</time>
      </trkpt>
      <trkpt lat="40.419631" lon="0.347228">
        <ele>119.791</ele>
        <time>2018-01-12T13:36:47Z</time>
      </trkpt>
      <trkpt lat="40.420480" lon="0.346627">
        <ele>129.249</ele>
        <time>2018-01-12T13:37:07Z</time>
      </trkpt>
      <trkpt lat="40.420848" lon="0.346364">
        <ele>133.257</ele>
        <time>2018-01-12T13:37:27Z</time>
      </trkpt>
      <trkpt lat="40.421244" lon="0.346091">
        <ele>135.090</ele>
        <time>2018-01-12T13:37:47Z</time>
      </trkpt>
      <trkpt lat="40.421497" lon="0.345957">
        <ele>135.629</ele>
        <time>2018-01-12T13:38:07Z</time>
      </trkpt>
      <trkpt lat="40.421538" lon="0.345597">
        <ele>135.960</ele>
        <time>2018-01-12T13:38:27Z</time>
      </trkpt>
      <trkpt lat="40.421799" lon="0.345393">
        <ele>136.238</ele>
        <time>2018-01-12T13:38:47Z</time>
      </trkpt>
      <trkpt lat="40.422146" lon="0.345372">
        <ele>134.970</ele>
        <time>2018-01-12T13:39:07Z</time>
      </trkpt>
      <trkpt lat="40.422922" lon="0.344718">
        <ele>133.517</ele>
        <time>2018-01-12T13:39:27Z</time>
      </trkpt>
      <trkpt lat="40.423535" lon="0.344278">
        <ele>129.708</ele>
        <time>2018-01-12T13:39:47Z</time>
      </trkpt>
      <trkpt lat="40.424115" lon="0.343795">
        <ele>127.676</ele>
        <time>2018-01-12T13:40:07Z</time>
      </trkpt>
      <trkpt lat="40.424613" lon="0.343484">
        <ele>128.633</ele>
        <time>2018-01-12T13:40:27Z</time>
      </trkpt>
      <trkpt lat="40.425111" lon="0.343033">
        <ele>124.777</ele>
        <time>2018-01-12T13:40:47Z</time>
      </trkpt>
      <trkpt lat="40.425773" lon="0.342786">
        <ele>125.075</ele>
        <time>2018-01-12T13:41:07Z</time>
      </trkpt>
      <trkpt lat="40.426197" lon="0.342802">
        <ele>126.293</ele>
        <time>2018-01-12T13:41:27Z</time>
      </trkpt>
      <trkpt lat="40.426528" lon="0.342786">
        <ele>127.516</ele>
        <time>2018-01-12T13:41:47Z</time>
      </trkpt>
      <trkpt lat="40.426875" lon="0.342759">
        <ele>128.135</ele>
        <time>2018-01-12T13:42:07Z</time>
      </trkpt>
      <trkpt lat="40.427079" lon="0.342746">
        <ele>127.316</ele>
        <time>2018-01-12T13:42:27Z</time>
      </trkpt>
      <trkpt lat="40.427212" lon="0.342671">
        <ele>127.285</ele>
        <time>2018-01-12T13:42:47Z</time>
      </trkpt>
      <trkpt lat="40.427333" lon="0.342564">
        <ele>128.089</ele>
        <time>2018-01-12T13:43:07Z</time>
      </trkpt>
      <trkpt lat="40.427498" lon="0.342403">
        <ele>128.717</ele>
        <time>2018-01-12T13:43:27Z</time>
      </trkpt>
      <trkpt lat="40.427590" lon="0.342290">
        <ele>128.608</ele>
        <time>2018-01-12T13:43:47Z</time>
      </trkpt>
      <trkpt lat="40.427688" lon="0.342194">
        <ele>128.071</ele>
        <time>2018-01-12T13:44:07Z</time>
      </trkpt>
      <trkpt lat="40.427802" lon="0.342049">
        <ele>126.748</ele>
        <time>2018-01-12T13:44:27Z</time>
      </trkpt>
      <trkpt lat="40.427892" lon="0.341815">
        <ele>124.892</ele>
        <time>2018-01-12T13:44:47Z</time>
      </trkpt>
      <trkpt lat="40.427953" lon="0.341601">
        <ele>123.720</ele>
        <time>2018-01-12T13:45:07Z</time>
      </trkpt>
      <trkpt lat="40.428076" lon="0.341424">
        <ele>123.048</ele>
        <time>2018-01-12T13:45:27Z</time>
      </trkpt>
      <trkpt lat="40.428229" lon="0.341223">
        <ele>123.471</ele>
        <time>2018-01-12T13:45:47Z</time>
      </trkpt>
      <trkpt lat="40.428445" lon="0.340954">
        <ele>124.040</ele>
        <time>2018-01-12T13:46:07Z</time>
      </trkpt>
      <trkpt lat="40.428666" lon="0.340729">
        <ele>124.241</ele>
        <time>2018-01-12T13:46:27Z</time>
      </trkpt>
      <trkpt lat="40.428903" lon="0.340504">
        <ele>124.139</ele>
        <time>2018-01-12T13:46:47Z</time>
      </trkpt>
      <trkpt lat="40.429391" lon="0.339911">
        <ele>126.301</ele>
        <time>2018-01-12T13:47:07Z</time>
      </trkpt>
      <trkpt lat="40.429742" lon="0.339611">
        <ele>125.321</ele>
        <time>2018-01-12T13:47:27Z</time>
      </trkpt>
      <trkpt lat="40.430060" lon="0.339310">
        <ele>126.208</ele>
        <time>2018-01-12T13:47:47Z</time>
      </trkpt>
      <trkpt lat="40.430861" lon="0.338999">
        <ele>126.146</ele>
        <time>2018-01-12T13:48:07Z</time>
      </trkpt>
      <trkpt lat="40.431322" lon="0.338897">
        <ele>126.023</ele>
        <time>2018-01-12T13:48:27Z</time>
      </trkpt>
      <trkpt lat="40.431698" lon="0.338892">
        <ele>124.057</ele>
        <time>2018-01-12T13:48:47Z</time>
      </trkpt>
      <trkpt lat="40.432073" lon="0.338795">
        <ele>124.585</ele>
        <time>2018-01-12T13:49:07Z</time>
      </trkpt>
      <trkpt lat="40.432253" lon="0.338624">
        <ele>125.133</ele>
        <time>2018-01-12T13:49:27Z</time>
      </trkpt>
      <trkpt lat="40.432433" lon="0.338500">
        <ele>126.286</ele>
        <time>2018-01-12T13:49:47Z</time>
      </trkpt>
      <trkpt lat="40.432870" lon="0.338404">
        <ele>125.775</ele>
        <time>2018-01-12T13:50:07Z</time>
      </trkpt>
      <trkpt lat="40.433335" lon="0.338377">
        <ele>124.846</ele>
        <time>2018-01-12T13:50:27Z</time>
      </trkpt>
      <trkpt lat="40.433662" lon="0.338393">
        <ele>125.164</ele>
        <time>2018-01-12T13:50:47Z</time>
      </trkpt>
      <trkpt lat="40.433931" lon="0.338506">
        <ele>125.206</ele>
        <time>2018-01-12T13:51:07Z</time>
      </trkpt>
      <trkpt lat="40.434213" lon="0.338752">
        <ele>122.916</ele>
        <time>2018-01-12T13:51:27Z</time>
      </trkpt>
      <trkpt lat="40.434662" lon="0.339128">
        <ele>120.208</ele>
        <time>2018-01-12T13:51:47Z</time>
      </trkpt>
      <trkpt lat="40.434940" lon="0.339476">
        <ele>119.189</ele>
        <time>2018-01-12T13:52:07Z</time>
      </trkpt>
      <trkpt lat="40.435107" lon="0.339653">
        <ele>119.576</ele>
        <time>2018-01-12T13:52:27Z</time>
      </trkpt>
      <trkpt lat="40.435279" lon="0.339836">
        <ele>119.070</ele>
        <time>2018-01-12T13:52:47Z</time>
      </trkpt>
      <trkpt lat="40.436308" lon="0.340104">
        <ele>118.918</ele>
        <time>2018-01-12T13:53:07Z</time>
      </trkpt>
      <trkpt lat="40.436806" lon="0.340308">
        <ele>118.986</ele>
        <time>2018-01-12T13:53:27Z</time>
      </trkpt>
      <trkpt lat="40.437459" lon="0.340544">
        <ele>117.399</ele>
        <time>2018-01-12T13:53:47Z</time>
      </trkpt>
      <trkpt lat="40.438022" lon="0.340887">
        <ele>117.928</ele>
        <time>2018-01-12T13:54:07Z</time>
      </trkpt>
      <trkpt lat="40.438578" lon="0.340962">
        <ele>119.089</ele>
        <time>2018-01-12T13:54:27Z</time>
      </trkpt>
      <trkpt lat="40.439705" lon="0.341016">
        <ele>117.121</ele>
        <time>2018-01-12T13:54:47Z</time>
      </trkpt>
      <trkpt lat="40.439574" lon="0.340598">
        <ele>118.141</ele>
        <time>2018-01-12T13:55:07Z</time>
      </trkpt>
      <trkpt lat="40.439541" lon="0.340179">
        <ele>118.705</ele>
        <time>2018-01-12T13:55:27Z</time>
      </trkpt>
      <trkpt lat="40.439639" lon="0.339707">
        <ele>117.308</ele>
        <time>2018-01-12T13:55:47Z</time>
      </trkpt>
      <trkpt lat="40.439353" lon="0.339031">
        <ele>117.365</ele>
        <time>2018-01-12T13:56:07Z</time>
      </trkpt>
      <trkpt lat="40.438994" lon="0.337701">
        <ele>119.862</ele>
        <time>2018-01-12T13:56:27Z</time>
      </trkpt>
      <trkpt lat="40.438831" lon="0.337036">
        <ele>119.736</ele>
        <time>2018-01-12T13:56:47Z</time>
      </trkpt>
      <trkpt lat="40.438717" lon="0.336703">
        <ele>120.954</ele>
        <time>2018-01-12T13:57:07Z</time>
      </trkpt>
      <trkpt lat="40.438259" lon="0.336757">
        <ele>122.062</ele>
        <time>2018-01-12T13:57:27Z</time>
      </trkpt>
      <trkpt lat="40.438063" lon="0.336553">
        <ele>123.065</ele>
        <time>2018-01-12T13:57:47Z</time>
      </trkpt>
      <trkpt lat="40.437761" lon="0.336006">
        <ele>125.184</ele>
        <time>2018-01-12T13:58:07Z</time>
      </trkpt>
      <trkpt lat="40.437483" lon="0.335308">
        <ele>127.885</ele>
        <time>2018-01-12T13:58:27Z</time>
      </trkpt>
      <trkpt lat="40.437157" lon="0.335298">
        <ele>126.759</ele>
        <time>2018-01-12T13:58:47Z</time>
      </trkpt>
      <trkpt lat="40.436961" lon="0.335019">
        <ele>127.903</ele>
        <time>2018-01-12T13:59:07Z</time>
      </trkpt>
      <trkpt lat="40.436691" lon="0.332605">
        <ele>134.123</ele>
        <time>2018-01-12T13:59:27Z</time>
      </trkpt>
      <trkpt lat="40.436422" lon="0.330845">
        <ele>135.608</ele>
        <time>2018-01-12T13:59:47Z</time>
      </trkpt>
      <trkpt lat="40.436700" lon="0.330577">
        <ele>132.948</ele>
        <time>2018-01-12T14:00:07Z</time>
      </trkpt>
      <trkpt lat="40.436830" lon="0.330405">
        <ele>133.035</ele>
        <time>2018-01-12T14:00:27Z</time>
      </trkpt>
      <trkpt lat="40.437214" lon="0.329611">
        <ele>133.419</ele>
        <time>2018-01-12T14:00:47Z</time>
      </trkpt>
      <trkpt lat="40.437818" lon="0.328689">
        <ele>135.637</ele>
        <time>2018-01-12T14:01:07Z</time>
      </trkpt>
      <trkpt lat="40.438504" lon="0.327916">
        <ele>143.435</ele>
        <time>2018-01-12T14:01:27Z</time>
      </trkpt>
      <trkpt lat="40.439255" lon="0.326843">
        <ele>148.098</ele>
        <time>2018-01-12T14:01:47Z</time>
      </trkpt>
      <trkpt lat="40.439582" lon="0.326071">
        <ele>148.727</ele>
        <time>2018-01-12T14:02:07Z</time>
      </trkpt>
      <trkpt lat="40.439729" lon="0.325255">
        <ele>153.268</ele>
        <time>2018-01-12T14:02:27Z</time>
      </trkpt>
      <trkpt lat="40.440105" lon="0.323968">
        <ele>154.178</ele>
        <time>2018-01-12T14:02:47Z</time>
      </trkpt>
      <trkpt lat="40.440219" lon="0.323389">
        <ele>156.133</ele>
        <time>2018-01-12T14:03:07Z</time>
      </trkpt>
      <trkpt lat="40.440203" lon="0.322895">
        <ele>156.226</ele>
        <time>2018-01-12T14:03:27Z</time>
      </trkpt>
      <trkpt lat="40.440791" lon="0.322316">
        <ele>159.008</ele>
        <time>2018-01-12T14:03:47Z</time>
      </trkpt>
      <trkpt lat="40.440889" lon="0.321221">
        <ele>161.210</ele>
        <time>2018-01-12T14:04:07Z</time>
      </trkpt>
      <trkpt lat="40.441003" lon="0.320170">
        <ele>163.847</ele>
        <time>2018-01-12T14:04:27Z</time>
      </trkpt>
      <trkpt lat="40.441264" lon="0.319076">
        <ele>163.411</ele>
        <time>2018-01-12T14:04:47Z</time>
      </trkpt>
      <trkpt lat="40.441378" lon="0.318046">
        <ele>155.229</ele>
        <time>2018-01-12T14:05:07Z</time>
      </trkpt>
      <trkpt lat="40.441346" lon="0.316651">
        <ele>155.147</ele>
        <time>2018-01-12T14:05:27Z</time>
      </trkpt>
      <trkpt lat="40.441558" lon="0.315707">
        <ele>156.560</ele>
        <time>2018-01-12T14:05:47Z</time>
      </trkpt>
      <trkpt lat="40.441836" lon="0.314934">
        <ele>160.449</ele>
        <time>2018-01-12T14:06:07Z</time>
      </trkpt>
      <trkpt lat="40.441950" lon="0.314355">
        <ele>161.170</ele>
        <time>2018-01-12T14:06:27Z</time>
      </trkpt>
      <trkpt lat="40.442081" lon="0.313582">
        <ele>163.499</ele>
        <time>2018-01-12T14:06:47Z</time>
      </trkpt>
      <trkpt lat="40.442473" lon="0.312788">
        <ele>167.607</ele>
        <time>2018-01-12T14:07:07Z</time>
      </trkpt>
      <trkpt lat="40.442489" lon="0.312504">
        <ele>166.827</ele>
        <time>2018-01-12T14:07:27Z</time>
      </trkpt>
      <trkpt lat="40.442648" lon="0.312123">
        <ele>167.608</ele>
        <time>2018-01-12T14:07:47Z</time>
      </trkpt>
      <trkpt lat="40.442914" lon="0.311700">
        <ele>169.572</ele>
        <time>2018-01-12T14:08:07Z</time>
      </trkpt>
      <trkpt lat="40.443093" lon="0.311415">
        <ele>170.459</ele>
        <time>2018-01-12T14:08:27Z</time>
      </trkpt>
      <trkpt lat="40.443359" lon="0.311185">
        <ele>172.433</ele>
        <time>2018-01-12T14:08:47Z</time>
      </trkpt>
      <trkpt lat="40.443338" lon="0.310959">
        <ele>172.111</ele>
        <time>2018-01-12T14:09:07Z</time>
      </trkpt>
      <trkpt lat="40.443297" lon="0.310514">
        <ele>173.559</ele>
        <time>2018-01-12T14:09:27Z</time>
      </trkpt>
      <trkpt lat="40.443359" lon="0.310176">
        <ele>174.432</ele>
        <time>2018-01-12T14:09:47Z</time>
      </trkpt>
      <trkpt lat="40.443457" lon="0.309774">
        <ele>176.681</ele>
        <time>2018-01-12T14:10:07Z</time>
      </trkpt>
      <trkpt lat="40.443550" lon="0.309227">
        <ele>178.162</ele>
        <time>2018-01-12T14:10:27Z</time>
      </trkpt>
      <trkpt lat="40.443657" lon="0.308583">
        <ele>178.776</ele>
        <time>2018-01-12T14:10:47Z</time>
      </trkpt>
      <trkpt lat="40.443734" lon="0.308159">
        <ele>178.790</ele>
        <time>2018-01-12T14:11:07Z</time>
      </trkpt>
      <trkpt lat="40.443951" lon="0.307907">
        <ele>181.919</ele>
        <time>2018-01-12T14:11:27Z</time>
      </trkpt>
      <trkpt lat="40.444077" lon="0.307665">
        <ele>185.308</ele>
        <time>2018-01-12T14:11:47Z</time>
      </trkpt>
      <trkpt lat="40.444232" lon="0.307134">
        <ele>187.140</ele>
        <time>2018-01-12T14:12:07Z</time>
      </trkpt>
      <trkpt lat="40.444412" lon="0.306796">
        <ele>189.147</ele>
        <time>2018-01-12T14:12:27Z</time>
      </trkpt>
      <trkpt lat="40.444489" lon="0.306635">
        <ele>189.721</ele>
        <time>2018-01-12T14:12:47Z</time>
      </trkpt>
      <trkpt lat="40.444596" lon="0.306383">
        <ele>190.739</ele>
        <time>2018-01-12T14:13:07Z</time>
      </trkpt>
      <trkpt lat="40.444596" lon="0.306190">
        <ele>190.337</ele>
        <time>2018-01-12T14:13:27Z</time>
      </trkpt>
      <trkpt lat="40.444596" lon="0.305890">
        <ele>189.050</ele>
        <time>2018-01-12T14:13:47Z</time>
      </trkpt>
      <trkpt lat="40.444555" lon="0.305622">
        <ele>187.949</ele>
        <time>2018-01-12T14:14:07Z</time>
      </trkpt>
      <trkpt lat="40.444457" lon="0.305504">
        <ele>187.440</ele>
        <time>2018-01-12T14:14:27Z</time>
      </trkpt>
      <trkpt lat="40.444334" lon="0.305375">
        <ele>188.786</ele>
        <time>2018-01-12T14:14:47Z</time>
      </trkpt>
      <trkpt lat="40.444122" lon="0.305375">
        <ele>189.860</ele>
        <time>2018-01-12T14:15:07Z</time>
      </trkpt>
      <trkpt lat="40.443934" lon="0.305622">
        <ele>190.026</ele>
        <time>2018-01-12T14:15:27Z</time>
      </trkpt>
      <trkpt lat="40.443844" lon="0.305911">
        <ele>188.908</ele>
        <time>2018-01-12T14:15:47Z</time>
      </trkpt>
      <trkpt lat="40.443673" lon="0.306255">
        <ele>187.431</ele>
        <time>2018-01-12T14:16:07Z</time>
      </trkpt>
      <trkpt lat="40.443542" lon="0.306555">
        <ele>186.858</ele>
        <time>2018-01-12T14:16:27Z</time>
      </trkpt>
      <trkpt lat="40.443371" lon="0.306877">
        <ele>187.742</ele>
        <time>2018-01-12T14:16:47Z</time>
      </trkpt>
      <trkpt lat="40.443199" lon="0.306952">
        <ele>187.970</ele>
        <time>2018-01-12T14:17:07Z</time>
      </trkpt>
      <trkpt lat="40.443126" lon="0.306877">
        <ele>188.248</ele>
        <time>2018-01-12T14:17:27Z</time>
      </trkpt>
      <trkpt lat="40.443093" lon="0.306641">
        <ele>189.221</ele>
        <time>2018-01-12T14:17:47Z</time>
      </trkpt>
      <trkpt lat="40.443093" lon="0.305879">
        <ele>195.590</ele>
        <time>2018-01-12T14:18:07Z</time>
      </trkpt>
      <trkpt lat="40.443159" lon="0.305268">
        <ele>199.321</ele>
        <time>2018-01-12T14:18:27Z</time>
      </trkpt>
      <trkpt lat="40.443134" lon="0.304720">
        <ele>200.377</ele>
        <time>2018-01-12T14:18:47Z</time>
      </trkpt>
      <trkpt lat="40.443134" lon="0.304431">
        <ele>203.461</ele>
        <time>2018-01-12T14:19:07Z</time>
      </trkpt>
      <trkpt lat="40.443240" lon="0.304205">
        <ele>206.227</ele>
        <time>2018-01-12T14:19:27Z</time>
      </trkpt>
      <trkpt lat="40.443069" lon="0.304012">
        <ele>207.708</ele>
        <time>2018-01-12T14:19:47Z</time>
      </trkpt>
      <trkpt lat="40.442897" lon="0.303819">
        <ele>209.080</ele>
        <time>2018-01-12T14:20:07Z</time>
      </trkpt>
      <trkpt lat="40.442742" lon="0.303572">
        <ele>210.547</ele>
        <time>2018-01-12T14:20:27Z</time>
      </trkpt>
      <trkpt lat="40.442677" lon="0.303369">
        <ele>212.571</ele>
        <time>2018-01-12T14:20:47Z</time>
      </trkpt>
      <trkpt lat="40.443150" lon="0.303476">
        <ele>213.349</ele>
        <time>2018-01-12T14:21:07Z</time>
      </trkpt>
      <trkpt lat="40.443403" lon="0.303218">
        <ele>217.747</ele>
        <time>2018-01-12T14:21:27Z</time>
      </trkpt>
      <trkpt lat="40.443461" lon="0.303068">
        <ele>220.360</ele>
        <time>2018-01-12T14:21:47Z</time>
      </trkpt>
      <trkpt lat="40.443828" lon="0.302811">
        <ele>223.789</ele>
        <time>2018-01-12T14:22:07Z</time>
      </trkpt>
      <trkpt lat="40.444236" lon="0.302746">
        <ele>226.470</ele>
        <time>2018-01-12T14:22:27Z</time>
      </trkpt>
      <trkpt lat="40.444579" lon="0.302854">
        <ele>227.522</ele>
        <time>2018-01-12T14:22:47Z</time>
      </trkpt>
      <trkpt lat="40.444857" lon="0.303015">
        <ele>225.262</ele>
        <time>2018-01-12T14:23:07Z</time>
      </trkpt>
      <trkpt lat="40.445281" lon="0.302875">
        <ele>228.608</ele>
        <time>2018-01-12T14:23:27Z</time>
      </trkpt>
      <trkpt lat="40.445657" lon="0.302628">
        <ele>225.208</ele>
        <time>2018-01-12T14:23:47Z</time>
      </trkpt>
      <trkpt lat="40.445575" lon="0.302349">
        <ele>227.225</ele>
        <time>2018-01-12T14:24:07Z</time>
      </trkpt>
      <trkpt lat="40.445584" lon="0.302070">
        <ele>228.032</ele>
        <time>2018-01-12T14:24:27Z</time>
      </trkpt>
      <trkpt lat="40.445755" lon="0.301727">
        <ele>228.416</ele>
        <time>2018-01-12T14:24:47Z</time>
      </trkpt>
      <trkpt lat="40.446245" lon="0.301555">
        <ele>228.864</ele>
        <time>2018-01-12T14:25:07Z</time>
      </trkpt>
      <trkpt lat="40.446531" lon="0.301298">
        <ele>227.452</ele>
        <time>2018-01-12T14:25:27Z</time>
      </trkpt>
      <trkpt lat="40.446776" lon="0.300933">
        <ele>227.865</ele>
        <time>2018-01-12T14:25:47Z</time>
      </trkpt>
      <trkpt lat="40.447070" lon="0.300558">
        <ele>232.394</ele>
        <time>2018-01-12T14:26:07Z</time>
      </trkpt>
      <trkpt lat="40.447363" lon="0.301030">
        <ele>230.435</ele>
        <time>2018-01-12T14:26:27Z</time>
      </trkpt>
      <trkpt lat="40.447715" lon="0.301577">
        <ele>231.057</ele>
        <time>2018-01-12T14:26:47Z</time>
      </trkpt>
      <trkpt lat="40.447796" lon="0.301384">
        <ele>232.100</ele>
        <time>2018-01-12T14:27:07Z</time>
      </trkpt>
      <trkpt lat="40.447715" lon="0.301051">
        <ele>233.020</ele>
        <time>2018-01-12T14:27:27Z</time>
      </trkpt>
      <trkpt lat="40.447674" lon="0.300804">
        <ele>234.408</ele>
        <time>2018-01-12T14:27:47Z</time>
      </trkpt>
      <trkpt lat="40.447674" lon="0.300590">
        <ele>235.848</ele>
        <time>2018-01-12T14:28:07Z</time>
      </trkpt>
      <trkpt lat="40.448098" lon="0.299817">
        <ele>236.885</ele>
        <time>2018-01-12T14:28:27Z</time>
      </trkpt>
      <trkpt lat="40.448572" lon="0.299184">
        <ele>239.049</ele>
        <time>2018-01-12T14:28:47Z</time>
      </trkpt>
      <trkpt lat="40.449233" lon="0.298616">
        <ele>237.067</ele>
        <time>2018-01-12T14:29:07Z</time>
      </trkpt>
      <trkpt lat="40.449862" lon="0.298219">
        <ele>231.045</ele>
        <time>2018-01-12T14:29:27Z</time>
      </trkpt>
      <trkpt lat="40.450343" lon="0.298026">
        <ele>225.638</ele>
        <time>2018-01-12T14:29:47Z</time>
      </trkpt>
      <trkpt lat="40.450793" lon="0.297650">
        <ele>223.847</ele>
        <time>2018-01-12T14:30:07Z</time>
      </trkpt>
      <trkpt lat="40.451291" lon="0.297382">
        <ele>223.328</ele>
        <time>2018-01-12T14:30:27Z</time>
      </trkpt>
      <trkpt lat="40.452213" lon="0.297854">
        <ele>220.015</ele>
        <time>2018-01-12T14:30:47Z</time>
      </trkpt>
      <trkpt lat="40.452213" lon="0.297511">
        <ele>219.165</ele>
        <time>2018-01-12T14:31:07Z</time>
      </trkpt>
      <trkpt lat="40.452270" lon="0.297049">
        <ele>216.911</ele>
        <time>2018-01-12T14:31:27Z</time>
      </trkpt>
      <trkpt lat="40.452344" lon="0.296491">
        <ele>214.508</ele>
        <time>2018-01-12T14:31:47Z</time>
      </trkpt>
      <trkpt lat="40.452507" lon="0.296105">
        <ele>210.864</ele>
        <time>2018-01-12T14:32:07Z</time>
      </trkpt>
      <trkpt lat="40.452646" lon="0.295590">
        <ele>207.021</ele>
        <time>2018-01-12T14:32:27Z</time>
      </trkpt>
      <trkpt lat="40.452613" lon="0.295022">
        <ele>206.045</ele>
        <time>2018-01-12T14:32:47Z</time>
      </trkpt>
      <trkpt lat="40.452531" lon="0.294818">
        <ele>206.873</ele>
        <time>2018-01-12T14:33:07Z</time>
      </trkpt>
      <trkpt lat="40.452499" lon="0.294228">
        <ele>204.521</ele>
        <time>2018-01-12T14:33:27Z</time>
      </trkpt>
      <trkpt lat="40.452646" lon="0.293584">
        <ele>198.954</ele>
        <time>2018-01-12T14:33:47Z</time>
      </trkpt>
      <trkpt lat="40.452638" lon="0.293133">
        <ele>198.393</ele>
        <time>2018-01-12T14:34:07Z</time>
      </trkpt>
      <trkpt lat="40.452638" lon="0.292683">
        <ele>196.314</ele>
        <time>2018-01-12T14:34:27Z</time>
      </trkpt>
      <trkpt lat="40.452727" lon="0.292157">
        <ele>195.965</ele>
        <time>2018-01-12T14:34:47Z</time>
      </trkpt>
      <trkpt lat="40.452948" lon="0.291620">
        <ele>191.968</ele>
        <time>2018-01-12T14:35:07Z</time>
      </trkpt>
      <trkpt lat="40.453046" lon="0.290977">
        <ele>186.114</ele>
        <time>2018-01-12T14:35:27Z</time>
      </trkpt>
      <trkpt lat="40.453307" lon="0.290065">
        <ele>174.808</ele>
        <time>2018-01-12T14:35:47Z</time>
      </trkpt>
      <trkpt lat="40.453960" lon="0.289829">
        <ele>174.539</ele>
        <time>2018-01-12T14:36:07Z</time>
      </trkpt>
      <trkpt lat="40.454572" lon="0.289582">
        <ele>173.366</ele>
        <time>2018-01-12T14:36:27Z</time>
      </trkpt>
      <trkpt lat="40.455315" lon="0.289453">
        <ele>172.230</ele>
        <time>2018-01-12T14:36:47Z</time>
      </trkpt>
      <trkpt lat="40.456328" lon="0.289367">
        <ele>172.588</ele>
        <time>2018-01-12T14:37:07Z</time>
      </trkpt>
      <trkpt lat="40.456246" lon="0.288219">
        <ele>172.186</ele>
        <time>2018-01-12T14:37:27Z</time>
      </trkpt>
      <trkpt lat="40.456066" lon="0.287951">
        <ele>173.849</ele>
        <time>2018-01-12T14:37:47Z</time>
      </trkpt>
      <trkpt lat="40.455862" lon="0.287812">
        <ele>175.558</ele>
        <time>2018-01-12T14:38:07Z</time>
      </trkpt>
      <trkpt lat="40.455470" lon="0.287672">
        <ele>183.359</ele>
        <time>2018-01-12T14:38:27Z</time>
      </trkpt>
      <trkpt lat="40.455226" lon="0.287651">
        <ele>185.584</ele>
        <time>2018-01-12T14:38:47Z</time>
      </trkpt>
      <trkpt lat="40.454728" lon="0.287586">
        <ele>190.307</ele>
        <time>2018-01-12T14:39:07Z</time>
      </trkpt>
      <trkpt lat="40.454621" lon="0.287490">
        <ele>192.117</ele>
        <time>2018-01-12T14:39:27Z</time>
      </trkpt>
      <trkpt lat="40.454540" lon="0.287265">
        <ele>194.408</ele>
        <time>2018-01-12T14:39:47Z</time>
      </trkpt>
      <trkpt lat="40.454638" lon="0.286717">
        <ele>198.311</ele>
        <time>2018-01-12T14:40:07Z</time>
      </trkpt>
      <trkpt lat="40.454621" lon="0.286363">
        <ele>201.938</ele>
        <time>2018-01-12T14:40:27Z</time>
      </trkpt>
      <trkpt lat="40.454711" lon="0.285945">
        <ele>205.282</ele>
        <time>2018-01-12T14:40:47Z</time>
      </trkpt>
      <trkpt lat="40.454785" lon="0.285505">
        <ele>207.980</ele>
        <time>2018-01-12T14:41:07Z</time>
      </trkpt>
      <trkpt lat="40.454654" lon="0.284818">
        <ele>210.138</ele>
        <time>2018-01-12T14:41:27Z</time>
      </trkpt>
      <trkpt lat="40.454646" lon="0.284379">
        <ele>213.491</ele>
        <time>2018-01-12T14:41:47Z</time>
      </trkpt>
      <trkpt lat="40.454809" lon="0.284024">
        <ele>217.380</ele>
        <time>2018-01-12T14:42:07Z</time>
      </trkpt>
      <trkpt lat="40.454940" lon="0.283692">
        <ele>219.951</ele>
        <time>2018-01-12T14:42:27Z</time>
      </trkpt>
      <trkpt lat="40.454907" lon="0.283316">
        <ele>225.428</ele>
        <time>2018-01-12T14:42:47Z</time>
      </trkpt>
      <trkpt lat="40.454891" lon="0.283091">
        <ele>230.689</ele>
        <time>2018-01-12T14:43:07Z</time>
      </trkpt>
      <trkpt lat="40.455079" lon="0.282812">
        <ele>232.417</ele>
        <time>2018-01-12T14:43:27Z</time>
      </trkpt>
      <trkpt lat="40.455136" lon="0.282415">
        <ele>236.408</ele>
        <time>2018-01-12T14:43:47Z</time>
      </trkpt>
      <trkpt lat="40.455066" lon="0.281873">
        <ele>244.085</ele>
        <time>2018-01-12T14:44:07Z</time>
      </trkpt>
      <trkpt lat="40.454924" lon="0.281364">
        <ele>249.212</ele>
        <time>2018-01-12T14:44:27Z</time>
      </trkpt>
      <trkpt lat="40.454736" lon="0.281557">
        <ele>251.276</ele>
        <time>2018-01-12T14:44:47Z</time>
      </trkpt>
      <trkpt lat="40.454519" lon="0.280334">
        <ele>263.044</ele>
        <time>2018-01-12T14:45:07Z</time>
      </trkpt>
      <trkpt lat="40.454581" lon="0.280082">
        <ele>264.482</ele>
        <time>2018-01-12T14:45:27Z</time>
      </trkpt>
      <trkpt lat="40.454687" lon="0.279679">
        <ele>265.885</ele>
        <time>2018-01-12T14:45:47Z</time>
      </trkpt>
      <trkpt lat="40.454907" lon="0.278896">
        <ele>270.964</ele>
        <time>2018-01-12T14:46:07Z</time>
      </trkpt>
      <trkpt lat="40.454948" lon="0.278354">
        <ele>276.555</ele>
        <time>2018-01-12T14:46:27Z</time>
      </trkpt>
      <trkpt lat="40.454968" lon="0.277619">
        <ele>280.938</ele>
        <time>2018-01-12T14:46:47Z</time>
      </trkpt>
      <trkpt lat="40.455262" lon="0.276423">
        <ele>274.370</ele>
        <time>2018-01-12T14:47:07Z</time>
      </trkpt>
      <trkpt lat="40.455470" lon="0.275887">
        <ele>273.217</ele>
        <time>2018-01-12T14:47:27Z</time>
      </trkpt>
      <trkpt lat="40.455858" lon="0.275125">
        <ele>275.208</ele>
        <time>2018-01-12T14:47:47Z</time>
      </trkpt>
      <trkpt lat="40.456556" lon="0.273601">
        <ele>283.856</ele>
        <time>2018-01-12T14:48:07Z</time>
      </trkpt>
      <trkpt lat="40.456903" lon="0.273886">
        <ele>284.723</ele>
        <time>2018-01-12T14:48:27Z</time>
      </trkpt>
      <trkpt lat="40.457164" lon="0.274111">
        <ele>288.647</ele>
        <time>2018-01-12T14:48:47Z</time>
      </trkpt>
      <trkpt lat="40.457364" lon="0.274374">
        <ele>287.165</ele>
        <time>2018-01-12T14:49:07Z</time>
      </trkpt>
      <trkpt lat="40.457720" lon="0.274921">
        <ele>285.533</ele>
        <time>2018-01-12T14:49:27Z</time>
      </trkpt>
      <trkpt lat="40.457887" lon="0.275195">
        <ele>284.776</ele>
        <time>2018-01-12T14:49:47Z</time>
      </trkpt>
      <trkpt lat="40.458071" lon="0.275522">
        <ele>283.525</ele>
        <time>2018-01-12T14:50:07Z</time>
      </trkpt>
      <trkpt lat="40.458121" lon="0.275537">
        <ele>284.716</ele>
        <time>2018-11-10T20:12:35Z</time>
      </trkpt>
      <trkpt lat="40.458194" lon="0.275564">
        <ele>283.912</ele>
        <time>2018-11-10T20:12:55Z</time>
      </trkpt>
      <trkpt lat="40.458246" lon="0.275474">
        <ele>284.932</ele>
        <time>2018-01-12T14:50:27Z</time>
      </trkpt>
      <trkpt lat="40.458301" lon="0.275281">
        <ele>288.005</ele>
        <time>2018-01-12T14:50:47Z</time>
      </trkpt>
      <trkpt lat="40.458317" lon="0.275115">
        <ele>290.408</ele>
        <time>2018-01-12T14:51:07Z</time>
      </trkpt>
      <trkpt lat="40.458320" lon="0.274916">
        <ele>293.824</ele>
        <time>2018-01-12T14:51:27Z</time>
      </trkpt>
      <trkpt lat="40.458393" lon="0.274642">
        <ele>298.791</ele>
        <time>2018-01-12T14:51:47Z</time>
      </trkpt>
      <trkpt lat="40.458793" lon="0.273880">
        <ele>306.045</ele>
        <time>2018-01-12T14:52:07Z</time>
      </trkpt>
      <trkpt lat="40.458870" lon="0.273666">
        <ele>305.813</ele>
        <time>2018-01-12T14:52:27Z</time>
      </trkpt>
      <trkpt lat="40.459016" lon="0.273241">
        <ele>312.691</ele>
        <time>2018-01-12T14:52:47Z</time>
      </trkpt>
      <trkpt lat="40.459155" lon="0.272778">
        <ele>316.074</ele>
        <time>2018-01-12T14:53:07Z</time>
      </trkpt>
      <trkpt lat="40.459231" lon="0.272752">
        <ele>318.383</ele>
        <time>2018-11-10T20:16:15Z</time>
      </trkpt>
      <trkpt lat="40.459296" lon="0.272767">
        <ele>317.284</ele>
        <time>2018-11-10T20:16:35Z</time>
      </trkpt>
      <trkpt lat="40.459730" lon="0.272940">
        <ele>313.832</ele>
        <time>2018-01-12T14:53:47Z</time>
      </trkpt>
      <trkpt lat="40.460115" lon="0.272507">
        <ele>319.392</ele>
        <time>2018-01-12T14:54:07Z</time>
      </trkpt>
      <trkpt lat="40.460298" lon="0.272241">
        <ele>318.911</ele>
        <time>2018-01-12T14:54:27Z</time>
      </trkpt>
      <trkpt lat="40.460289" lon="0.272031">
        <ele>323.208</ele>
        <time>2018-01-12T14:54:47Z</time>
      </trkpt>
      <trkpt lat="40.460360" lon="0.271721">
        <ele>329.126</ele>
        <time>2018-01-12T14:55:07Z</time>
      </trkpt>
      <trkpt lat="40.460477" lon="0.271540">
        <ele>325.843</ele>
        <time>2018-11-10T20:18:35Z</time>
      </trkpt>
      <trkpt lat="40.460773" lon="0.271348">
        <ele>328.697</ele>
        <time>2018-01-12T14:55:27Z</time>
      </trkpt>
      <trkpt lat="40.460924" lon="0.271086">
        <ele>329.615</ele>
        <time>2018-01-12T14:55:47Z</time>
      </trkpt>
      <trkpt lat="40.460969" lon="0.270796">
        <ele>331.253</ele>
        <time>2018-01-12T14:56:07Z</time>
      </trkpt>
      <trkpt lat="40.460891" lon="0.270447">
        <ele>332.626</ele>
        <time>2018-01-12T14:56:27Z</time>
      </trkpt>
      <trkpt lat="40.460760" lon="0.270045">
        <ele>328.195</ele>
        <time>2018-01-12T14:56:47Z</time>
      </trkpt>
      <trkpt lat="40.460515" lon="0.269938">
        <ele>329.876</ele>
        <time>2018-01-12T14:57:07Z</time>
      </trkpt>
      <trkpt lat="40.460175" lon="0.269679">
        <ele>336.555</ele>
        <time>2018-01-12T14:57:27Z</time>
      </trkpt>
      <trkpt lat="40.459977" lon="0.269449">
        <ele>338.707</ele>
        <time>2018-01-12T14:57:47Z</time>
      </trkpt>
      <trkpt lat="40.459900" lon="0.269281">
        <ele>336.617</ele>
        <time>2018-11-10T20:21:35Z</time>
      </trkpt>
      <trkpt lat="40.459906" lon="0.269095">
        <ele>336.708</ele>
        <time>2018-11-10T20:21:55Z</time>
      </trkpt>
      <trkpt lat="40.459911" lon="0.269026">
        <ele>338.668</ele>
        <time>2018-01-12T14:58:07Z</time>
      </trkpt>
      <trkpt lat="40.460066" lon="0.268798">
        <ele>337.345</ele>
        <time>2018-01-12T14:58:27Z</time>
      </trkpt>
      <trkpt lat="40.460454" lon="0.268602">
        <ele>336.399</ele>
        <time>2018-01-12T14:58:47Z</time>
      </trkpt>
      <trkpt lat="40.460630" lon="0.268435">
        <ele>338.287</ele>
        <time>2018-01-12T14:59:07Z</time>
      </trkpt>
      <trkpt lat="40.460646" lon="0.268237">
        <ele>342.125</ele>
        <time>2018-01-12T14:59:27Z</time>
      </trkpt>
      <trkpt lat="40.460585" lon="0.268119">
        <ele>345.318</ele>
        <time>2018-01-12T14:59:47Z</time>
      </trkpt>
      <trkpt lat="40.460103" lon="0.268371">
        <ele>345.477</ele>
        <time>2018-01-12T15:00:07Z</time>
      </trkpt>
      <trkpt lat="40.459944" lon="0.268398">
        <ele>346.828</ele>
        <time>2018-01-12T15:00:27Z</time>
      </trkpt>
      <trkpt lat="40.459209" lon="0.268790">
        <ele>349.742</ele>
        <time>2018-01-12T15:00:47Z</time>
      </trkpt>
      <trkpt lat="40.459022" lon="0.268489">
        <ele>350.022</ele>
        <time>2018-01-12T15:01:07Z</time>
      </trkpt>
      <trkpt lat="40.458120" lon="0.267003">
        <ele>353.014</ele>
        <time>2018-01-12T15:01:27Z</time>
      </trkpt>
      <trkpt lat="40.458597" lon="0.266258">
        <ele>354.208</ele>
        <time>2018-01-12T15:01:47Z</time>
      </trkpt>
      <trkpt lat="40.459018" lon="0.265866">
        <ele>355.567</ele>
        <time>2018-01-12T15:02:07Z</time>
      </trkpt>
      <trkpt lat="40.459483" lon="0.265421">
        <ele>350.444</ele>
        <time>2018-01-12T15:02:27Z</time>
      </trkpt>
      <trkpt lat="40.459699" lon="0.265308">
        <ele>350.498</ele>
        <time>2018-01-12T15:02:47Z</time>
      </trkpt>
      <trkpt lat="40.460140" lon="0.265625">
        <ele>357.066</ele>
        <time>2018-01-12T15:03:07Z</time>
      </trkpt>
      <trkpt lat="40.460487" lon="0.265442">
        <ele>355.384</ele>
        <time>2018-01-12T15:03:27Z</time>
      </trkpt>
      <trkpt lat="40.460944" lon="0.265324">
        <ele>356.887</ele>
        <time>2018-01-12T15:03:47Z</time>
      </trkpt>
      <trkpt lat="40.461311" lon="0.265206">
        <ele>356.446</ele>
        <time>2018-01-12T15:04:07Z</time>
      </trkpt>
      <trkpt lat="40.461756" lon="0.265388">
        <ele>360.597</ele>
        <time>2018-01-12T15:04:27Z</time>
      </trkpt>
      <trkpt lat="40.462193" lon="0.265169">
        <ele>362.374</ele>
        <time>2018-01-12T15:04:47Z</time>
      </trkpt>
      <trkpt lat="40.462630" lon="0.264884">
        <ele>359.856</ele>
        <time>2018-01-12T15:05:07Z</time>
      </trkpt>
      <trkpt lat="40.463087" lon="0.264707">
        <ele>355.521</ele>
        <time>2018-01-12T15:05:27Z</time>
      </trkpt>
      <trkpt lat="40.463710" lon="0.264704">
        <ele>367.108</ele>
        <time>2018-01-12T15:05:47Z</time>
      </trkpt>
      <trkpt lat="40.463879" lon="0.264466">
        <ele>364.910</ele>
        <time>2018-01-12T15:06:07Z</time>
      </trkpt>
      <trkpt lat="40.463891" lon="0.263838">
        <ele>354.767</ele>
        <time>2018-01-12T15:06:27Z</time>
      </trkpt>
      <trkpt lat="40.463986" lon="0.263552">
        <ele>356.351</ele>
        <time>2018-01-12T15:06:47Z</time>
      </trkpt>
      <trkpt lat="40.464393" lon="0.263441">
        <ele>364.229</ele>
        <time>2018-01-12T15:07:07Z</time>
      </trkpt>
      <trkpt lat="40.464666" lon="0.263162">
        <ele>363.357</ele>
        <time>2018-01-12T15:07:27Z</time>
      </trkpt>
      <trkpt lat="40.464850" lon="0.262894">
        <ele>362.890</ele>
        <time>2018-01-12T15:07:47Z</time>
      </trkpt>
      <trkpt lat="40.465127" lon="0.262604">
        <ele>364.739</ele>
        <time>2018-01-12T15:08:07Z</time>
      </trkpt>
      <trkpt lat="40.465323" lon="0.262856">
        <ele>366.780</ele>
        <time>2018-01-12T15:08:27Z</time>
      </trkpt>
      <trkpt lat="40.465613" lon="0.263146">
        <ele>365.225</ele>
        <time>2018-01-12T15:08:47Z</time>
      </trkpt>
      <trkpt lat="40.465960" lon="0.263667">
        <ele>363.026</ele>
        <time>2018-01-12T15:09:07Z</time>
      </trkpt>
      <trkpt lat="40.466103" lon="0.263978">
        <ele>363.708</ele>
        <time>2018-01-12T15:09:27Z</time>
      </trkpt>
      <trkpt lat="40.466302" lon="0.264275">
        <ele>365.208</ele>
        <time>2018-01-12T15:09:47Z</time>
      </trkpt>
      <trkpt lat="40.466478" lon="0.264434">
        <ele>366.945</ele>
        <time>2018-01-12T15:10:07Z</time>
      </trkpt>
      <trkpt lat="40.466652" lon="0.264357">
        <ele>369.332</ele>
        <time>2018-01-12T15:10:27Z</time>
      </trkpt>
      <trkpt lat="40.466853" lon="0.264124">
        <ele>368.936</ele>
        <time>2018-11-10T20:34:55Z</time>
      </trkpt>
      <trkpt lat="40.467088" lon="0.263920">
        <ele>371.684</ele>
        <time>2018-11-10T20:35:15Z</time>
      </trkpt>
      <trkpt lat="40.467197" lon="0.263870">
        <ele>370.722</ele>
        <time>2018-01-12T15:10:47Z</time>
      </trkpt>
      <trkpt lat="40.467682" lon="0.263742">
        <ele>373.345</ele>
        <time>2018-01-12T15:11:07Z</time>
      </trkpt>
      <trkpt lat="40.468250" lon="0.263849">
        <ele>376.794</ele>
        <time>2018-01-12T15:11:27Z</time>
      </trkpt>
      <trkpt lat="40.468686" lon="0.263763">
        <ele>378.475</ele>
        <time>2018-01-12T15:11:47Z</time>
      </trkpt>
      <trkpt lat="40.469094" lon="0.263634">
        <ele>380.865</ele>
        <time>2018-01-12T15:12:07Z</time>
      </trkpt>
      <trkpt lat="40.469655" lon="0.263239">
        <ele>384.368</ele>
        <time>2018-01-12T15:12:27Z</time>
      </trkpt>
      <trkpt lat="40.470033" lon="0.262738">
        <ele>385.814</ele>
        <time>2018-01-12T15:12:47Z</time>
      </trkpt>
      <trkpt lat="40.470212" lon="0.263082">
        <ele>389.508</ele>
        <time>2018-01-12T15:13:07Z</time>
      </trkpt>
      <trkpt lat="40.470490" lon="0.263414">
        <ele>394.339</ele>
        <time>2018-01-12T15:13:27Z</time>
      </trkpt>
      <trkpt lat="40.470694" lon="0.263715">
        <ele>399.876</ele>
        <time>2018-01-12T15:13:47Z</time>
      </trkpt>
      <trkpt lat="40.471000" lon="0.263999">
        <ele>410.630</ele>
        <time>2018-01-12T15:14:07Z</time>
      </trkpt>
      <trkpt lat="40.471135" lon="0.264069">
        <ele>415.158</ele>
        <time>2018-01-12T15:14:27Z</time>
      </trkpt>
      <trkpt lat="40.471531" lon="0.263849">
        <ele>420.816</ele>
        <time>2018-01-12T15:14:47Z</time>
      </trkpt>
      <trkpt lat="40.471824" lon="0.263634">
        <ele>421.369</ele>
        <time>2018-01-12T15:15:07Z</time>
      </trkpt>
      <trkpt lat="40.472126" lon="0.263457">
        <ele>421.468</ele>
        <time>2018-01-12T15:15:27Z</time>
      </trkpt>
      <trkpt lat="40.472375" lon="0.263243">
        <ele>421.419</ele>
        <time>2018-01-12T15:15:47Z</time>
      </trkpt>
      <trkpt lat="40.472608" lon="0.263039">
        <ele>420.722</ele>
        <time>2018-01-12T15:16:07Z</time>
      </trkpt>
      <trkpt lat="40.472800" lon="0.263162">
        <ele>422.862</ele>
        <time>2018-01-12T15:16:27Z</time>
      </trkpt>
      <trkpt lat="40.472824" lon="0.263345">
        <ele>426.008</ele>
        <time>2018-01-12T15:16:47Z</time>
      </trkpt>
      <trkpt lat="40.472718" lon="0.263581">
        <ele>429.408</ele>
        <time>2018-01-12T15:17:07Z</time>
      </trkpt>
      <trkpt lat="40.472563" lon="0.263591">
        <ele>428.975</ele>
        <time>2018-01-12T15:17:27Z</time>
      </trkpt>
      <trkpt lat="40.472306" lon="0.263683">
        <ele>428.812</ele>
        <time>2018-01-12T15:17:47Z</time>
      </trkpt>
      <trkpt lat="40.471931" lon="0.264047">
        <ele>432.146</ele>
        <time>2018-01-12T15:18:07Z</time>
      </trkpt>
      <trkpt lat="40.471551" lon="0.264809">
        <ele>434.884</ele>
        <time>2018-01-12T15:18:27Z</time>
      </trkpt>
      <trkpt lat="40.471490" lon="0.265496">
        <ele>437.132</ele>
        <time>2018-01-12T15:18:47Z</time>
      </trkpt>
      <trkpt lat="40.471600" lon="0.266038">
        <ele>438.175</ele>
        <time>2018-01-12T15:19:07Z</time>
      </trkpt>
      <trkpt lat="40.471694" lon="0.266719">
        <ele>440.144</ele>
        <time>2018-01-12T15:19:27Z</time>
      </trkpt>
      <trkpt lat="40.471759" lon="0.267073">
        <ele>441.655</ele>
        <time>2018-01-12T15:19:47Z</time>
      </trkpt>
      <trkpt lat="40.471824" lon="0.267550">
        <ele>440.798</ele>
        <time>2018-01-12T15:20:07Z</time>
      </trkpt>
      <trkpt lat="40.471877" lon="0.267765">
        <ele>441.115</ele>
        <time>2018-01-12T15:20:27Z</time>
      </trkpt>
      <trkpt lat="40.472045" lon="0.267561">
        <ele>442.826</ele>
        <time>2018-01-12T15:20:47Z</time>
      </trkpt>
      <trkpt lat="40.472147" lon="0.267202">
        <ele>448.508</ele>
        <time>2018-01-12T15:21:07Z</time>
      </trkpt>
      <trkpt lat="40.472294" lon="0.266542">
        <ele>456.762</ele>
        <time>2018-01-12T15:21:27Z</time>
      </trkpt>
      <trkpt lat="40.472416" lon="0.266204">
        <ele>461.289</ele>
        <time>2018-01-12T15:21:47Z</time>
      </trkpt>
      <trkpt lat="40.472694" lon="0.265732">
        <ele>463.533</ele>
        <time>2018-01-12T15:22:07Z</time>
      </trkpt>
      <trkpt lat="40.472885" lon="0.265421">
        <ele>464.651</ele>
        <time>2018-01-12T15:22:27Z</time>
      </trkpt>
      <trkpt lat="40.473057" lon="0.265201">
        <ele>464.869</ele>
        <time>2018-01-12T15:22:47Z</time>
      </trkpt>
      <trkpt lat="40.473265" lon="0.265024">
        <ele>466.742</ele>
        <time>2018-01-12T15:23:07Z</time>
      </trkpt>
      <trkpt lat="40.473445" lon="0.264938">
        <ele>467.721</ele>
        <time>2018-01-12T15:23:27Z</time>
      </trkpt>
      <trkpt lat="40.473771" lon="0.265254">
        <ele>466.192</ele>
        <time>2018-01-12T15:23:47Z</time>
      </trkpt>
      <trkpt lat="40.474048" lon="0.265619">
        <ele>465.166</ele>
        <time>2018-01-12T15:24:07Z</time>
      </trkpt>
      <trkpt lat="40.474240" lon="0.266005">
        <ele>461.829</ele>
        <time>2018-01-12T15:24:27Z</time>
      </trkpt>
      <trkpt lat="40.474375" lon="0.266236">
        <ele>460.721</ele>
        <time>2018-01-12T15:24:47Z</time>
      </trkpt>
      <trkpt lat="40.474526" lon="0.266338">
        <ele>460.708</ele>
        <time>2018-01-12T15:25:07Z</time>
      </trkpt>
      <trkpt lat="40.474742" lon="0.266413">
        <ele>459.859</ele>
        <time>2018-01-12T15:25:27Z</time>
      </trkpt>
      <trkpt lat="40.474856" lon="0.266274">
        <ele>461.736</ele>
        <time>2018-01-12T15:25:47Z</time>
      </trkpt>
      <trkpt lat="40.475003" lon="0.265877">
        <ele>462.010</ele>
        <time>2018-01-12T15:26:07Z</time>
      </trkpt>
      <trkpt lat="40.475240" lon="0.265485">
        <ele>462.928</ele>
        <time>2018-01-12T15:26:27Z</time>
      </trkpt>
      <trkpt lat="40.475424" lon="0.265190">
        <ele>465.986</ele>
        <time>2018-01-12T15:26:47Z</time>
      </trkpt>
      <trkpt lat="40.475648" lon="0.264943">
        <ele>467.439</ele>
        <time>2018-01-12T15:27:07Z</time>
      </trkpt>
      <trkpt lat="40.475946" lon="0.264766">
        <ele>465.788</ele>
        <time>2018-01-12T15:27:27Z</time>
      </trkpt>
      <trkpt lat="40.476272" lon="0.264868">
        <ele>463.639</ele>
        <time>2018-01-12T15:27:47Z</time>
      </trkpt>
      <trkpt lat="40.476440" lon="0.265002">
        <ele>463.547</ele>
        <time>2018-01-12T15:28:07Z</time>
      </trkpt>
      <trkpt lat="40.476644" lon="0.265388">
        <ele>458.829</ele>
        <time>2018-01-12T15:28:27Z</time>
      </trkpt>
      <trkpt lat="40.476734" lon="0.265566">
        <ele>456.121</ele>
        <time>2018-01-12T15:28:47Z</time>
      </trkpt>
      <trkpt lat="40.476970" lon="0.265705">
        <ele>454.208</ele>
        <time>2018-01-12T15:29:07Z</time>
      </trkpt>
      <trkpt lat="40.477631" lon="0.265871">
        <ele>448.367</ele>
        <time>2018-01-12T15:29:27Z</time>
      </trkpt>
      <trkpt lat="40.477913" lon="0.266102">
        <ele>445.524</ele>
        <time>2018-01-12T15:29:47Z</time>
      </trkpt>
      <trkpt lat="40.478109" lon="0.266483">
        <ele>447.128</ele>
        <time>2018-01-12T15:30:07Z</time>
      </trkpt>
      <trkpt lat="40.478333" lon="0.266853">
        <ele>452.046</ele>
        <time>2018-01-12T15:30:27Z</time>
      </trkpt>
      <trkpt lat="40.478484" lon="0.267068">
        <ele>455.974</ele>
        <time>2018-01-12T15:30:47Z</time>
      </trkpt>
      <trkpt lat="40.478606" lon="0.267379">
        <ele>461.637</ele>
        <time>2018-01-12T15:31:07Z</time>
      </trkpt>
      <trkpt lat="40.478839" lon="0.267749">
        <ele>469.996</ele>
        <time>2018-01-12T15:31:27Z</time>
      </trkpt>
      <trkpt lat="40.479112" lon="0.268001">
        <ele>477.467</ele>
        <time>2018-01-12T15:31:47Z</time>
      </trkpt>
      <trkpt lat="40.479255" lon="0.268258">
        <ele>481.688</ele>
        <time>2018-01-12T15:32:07Z</time>
      </trkpt>
      <trkpt lat="40.479520" lon="0.268602">
        <ele>488.724</ele>
        <time>2018-01-12T15:32:27Z</time>
      </trkpt>
      <trkpt lat="40.479729" lon="0.268843">
        <ele>492.826</ele>
        <time>2018-01-12T15:32:47Z</time>
      </trkpt>
      <trkpt lat="40.480059" lon="0.269009">
        <ele>497.508</ele>
        <time>2018-01-12T15:33:07Z</time>
      </trkpt>
      <trkpt lat="40.480320" lon="0.269256">
        <ele>497.711</ele>
        <time>2018-01-12T15:33:27Z</time>
      </trkpt>
      <trkpt lat="40.480434" lon="0.268977">
        <ele>500.858</ele>
        <time>2018-01-12T15:33:47Z</time>
      </trkpt>
      <trkpt lat="40.480643" lon="0.268489">
        <ele>507.222</ele>
        <time>2018-01-12T15:34:07Z</time>
      </trkpt>
      <trkpt lat="40.480806" lon="0.268532">
        <ele>508.370</ele>
        <time>2018-01-12T15:34:27Z</time>
      </trkpt>
      <trkpt lat="40.480802" lon="0.268645">
        <ele>507.328</ele>
        <time>2018-01-12T15:34:47Z</time>
      </trkpt>
      <trkpt lat="40.480867" lon="0.268832">
        <ele>504.681</ele>
        <time>2018-01-12T15:35:07Z</time>
      </trkpt>
      <trkpt lat="40.481267" lon="0.268993">
        <ele>498.390</ele>
        <time>2018-01-12T15:35:27Z</time>
      </trkpt>
      <trkpt lat="40.481667" lon="0.269165">
        <ele>492.051</ele>
        <time>2018-01-12T15:35:47Z</time>
      </trkpt>
      <trkpt lat="40.481744" lon="0.269364">
        <ele>488.321</ele>
        <time>2018-01-12T15:36:07Z</time>
      </trkpt>
      <trkpt lat="40.481789" lon="0.269487">
        <ele>486.141</ele>
        <time>2018-01-12T15:36:27Z</time>
      </trkpt>
      <trkpt lat="40.482038" lon="0.269535">
        <ele>484.505</ele>
        <time>2018-01-12T15:36:47Z</time>
      </trkpt>
      <trkpt lat="40.482311" lon="0.269476">
        <ele>483.508</ele>
        <time>2018-01-12T15:37:07Z</time>
      </trkpt>
      <trkpt lat="40.482495" lon="0.269675">
        <ele>479.515</ele>
        <time>2018-01-12T15:37:27Z</time>
      </trkpt>
      <trkpt lat="40.482695" lon="0.269809">
        <ele>478.292</ele>
        <time>2018-01-12T15:37:47Z</time>
      </trkpt>
      <trkpt lat="40.482972" lon="0.269803">
        <ele>476.776</ele>
        <time>2018-01-12T15:38:07Z</time>
      </trkpt>
      <trkpt lat="40.483197" lon="0.269707">
        <ele>475.614</ele>
        <time>2018-01-12T15:38:27Z</time>
      </trkpt>
      <trkpt lat="40.483466" lon="0.269782">
        <ele>472.762</ele>
        <time>2018-01-12T15:38:47Z</time>
      </trkpt>
      <trkpt lat="40.483850" lon="0.269787">
        <ele>470.925</ele>
        <time>2018-01-12T15:39:07Z</time>
      </trkpt>
      <trkpt lat="40.484127" lon="0.270056">
        <ele>469.844</ele>
        <time>2018-01-12T15:39:27Z</time>
      </trkpt>
      <trkpt lat="40.484266" lon="0.270281">
        <ele>467.995</ele>
        <time>2018-01-12T15:39:47Z</time>
      </trkpt>
      <trkpt lat="40.484405" lon="0.270426">
        <ele>465.397</ele>
        <time>2018-01-12T15:40:07Z</time>
      </trkpt>
      <trkpt lat="40.484613" lon="0.270259">
        <ele>463.523</ele>
        <time>2018-01-12T15:40:27Z</time>
      </trkpt>
      <trkpt lat="40.484915" lon="0.269986">
        <ele>458.225</ele>
        <time>2018-01-12T15:40:47Z</time>
      </trkpt>
      <trkpt lat="40.485196" lon="0.269637">
        <ele>452.708</ele>
        <time>2018-01-12T15:41:07Z</time>
      </trkpt>
      <trkpt lat="40.485441" lon="0.269219">
        <ele>447.222</ele>
        <time>2018-01-12T15:41:27Z</time>
      </trkpt>
      <trkpt lat="40.485620" lon="0.269036">
        <ele>446.189</ele>
        <time>2018-01-12T15:41:47Z</time>
      </trkpt>
      <trkpt lat="40.485824" lon="0.268752">
        <ele>448.463</ele>
        <time>2018-01-12T15:42:07Z</time>
      </trkpt>
      <trkpt lat="40.485963" lon="0.268537">
        <ele>450.761</ele>
        <time>2018-01-12T15:42:27Z</time>
      </trkpt>
      <trkpt lat="40.486151" lon="0.268301">
        <ele>451.829</ele>
        <time>2018-01-12T15:42:47Z</time>
      </trkpt>
      <trkpt lat="40.486387" lon="0.268355">
        <ele>451.852</ele>
        <time>2018-01-12T15:43:07Z</time>
      </trkpt>
      <trkpt lat="40.486432" lon="0.268543">
        <ele>450.041</ele>
        <time>2018-01-12T15:43:27Z</time>
      </trkpt>
      <trkpt lat="40.486657" lon="0.268693">
        <ele>446.552</ele>
        <time>2018-01-12T15:43:47Z</time>
      </trkpt>
      <trkpt lat="40.486836" lon="0.268881">
        <ele>443.881</ele>
        <time>2018-01-12T15:44:07Z</time>
      </trkpt>
      <trkpt lat="40.487032" lon="0.269117">
        <ele>441.861</ele>
        <time>2018-01-12T15:44:27Z</time>
      </trkpt>
      <trkpt lat="40.487163" lon="0.269417">
        <ele>439.017</ele>
        <time>2018-01-12T15:44:47Z</time>
      </trkpt>
      <trkpt lat="40.487265" lon="0.269610">
        <ele>438.208</ele>
        <time>2018-01-12T15:45:07Z</time>
      </trkpt>
      <trkpt lat="40.487485" lon="0.269744">
        <ele>437.061</ele>
        <time>2018-01-12T15:45:27Z</time>
      </trkpt>
      <trkpt lat="40.487705" lon="0.269959">
        <ele>435.398</ele>
        <time>2018-01-12T15:45:47Z</time>
      </trkpt>
      <trkpt lat="40.487856" lon="0.270184">
        <ele>433.492</ele>
        <time>2018-01-12T15:46:07Z</time>
      </trkpt>
      <trkpt lat="40.488007" lon="0.270377">
        <ele>431.250</ele>
        <time>2018-01-12T15:46:27Z</time>
      </trkpt>
      <trkpt lat="40.488387" lon="0.270420">
        <ele>429.328</ele>
        <time>2018-01-12T15:46:47Z</time>
      </trkpt>
      <trkpt lat="40.488554" lon="0.270672">
        <ele>429.991</ele>
        <time>2018-01-12T15:47:07Z</time>
      </trkpt>
      <trkpt lat="40.488733" lon="0.270908">
        <ele>430.350</ele>
        <time>2018-01-12T15:47:27Z</time>
      </trkpt>
      <trkpt lat="40.488986" lon="0.271118">
        <ele>431.061</ele>
        <time>2018-01-12T15:47:47Z</time>
      </trkpt>
      <trkpt lat="40.489092" lon="0.271273">
        <ele>430.495</ele>
        <time>2018-01-12T15:48:07Z</time>
      </trkpt>
      <trkpt lat="40.489207" lon="0.271509">
        <ele>427.849</ele>
        <time>2018-01-12T15:48:27Z</time>
      </trkpt>
      <trkpt lat="40.489407" lon="0.271568">
        <ele>427.023</ele>
        <time>2018-01-12T15:48:47Z</time>
      </trkpt>
      <trkpt lat="40.489541" lon="0.271676">
        <ele>425.908</ele>
        <time>2018-01-12T15:49:07Z</time>
      </trkpt>
      <trkpt lat="40.489668" lon="0.271767">
        <ele>424.822</ele>
        <time>2018-01-12T15:49:27Z</time>
      </trkpt>
      <trkpt lat="40.489994" lon="0.271595">
        <ele>424.879</ele>
        <time>2018-01-12T15:49:47Z</time>
      </trkpt>
      <trkpt lat="40.490316" lon="0.271595">
        <ele>421.543</ele>
        <time>2018-01-12T15:50:07Z</time>
      </trkpt>
      <trkpt lat="40.490565" lon="0.271558">
        <ele>420.231</ele>
        <time>2018-01-12T15:50:27Z</time>
      </trkpt>
      <trkpt lat="40.491148" lon="0.271325">
        <ele>418.959</ele>
        <time>2018-11-10T21:15:35Z</time>
      </trkpt>
      <trkpt lat="40.491148" lon="0.271081">
        <ele>417.192</ele>
        <time>2018-11-10T21:15:55Z</time>
      </trkpt>
      <trkpt lat="40.491148" lon="0.270838">
        <ele>414.931</ele>
        <time>2018-11-10T21:16:15Z</time>
      </trkpt>
      <trkpt lat="40.491165" lon="0.270617">
        <ele>413.472</ele>
        <time>2018-11-10T21:16:35Z</time>
      </trkpt>
      <trkpt lat="40.491345" lon="0.270595">
        <ele>410.998</ele>
        <time>2018-11-10T21:16:55Z</time>
      </trkpt>
      <trkpt lat="40.491525" lon="0.270572">
        <ele>408.715</ele>
        <time>2018-11-10T21:17:15Z</time>
      </trkpt>
      <trkpt lat="40.491615" lon="0.270550">
        <ele>408.026</ele>
        <time>2018-11-10T21:17:35Z</time>
      </trkpt>
      <trkpt lat="40.491884" lon="0.270550">
        <ele>410.008</ele>
        <time>2018-11-10T21:17:55Z</time>
      </trkpt>
      <trkpt lat="40.491902" lon="0.270329">
        <ele>409.212</ele>
        <time>2018-11-10T21:18:15Z</time>
      </trkpt>
      <trkpt lat="40.491902" lon="0.270108">
        <ele>407.099</ele>
        <time>2018-11-10T21:18:35Z</time>
      </trkpt>
      <trkpt lat="40.491848" lon="0.269886">
        <ele>404.713</ele>
        <time>2018-11-10T21:18:55Z</time>
      </trkpt>
      <trkpt lat="40.491758" lon="0.269687">
        <ele>403.741</ele>
        <time>2018-11-10T21:19:15Z</time>
      </trkpt>
      <trkpt lat="40.491669" lon="0.269466">
        <ele>402.779</ele>
        <time>2018-11-10T21:19:35Z</time>
      </trkpt>
      <trkpt lat="40.491597" lon="0.269245">
        <ele>401.742</ele>
        <time>2018-11-10T21:19:55Z</time>
      </trkpt>
      <trkpt lat="40.491489" lon="0.269046">
        <ele>399.821</ele>
        <time>2018-11-10T21:20:15Z</time>
      </trkpt>
      <trkpt lat="40.491381" lon="0.268846">
        <ele>397.852</ele>
        <time>2018-11-10T21:20:35Z</time>
      </trkpt>
      <trkpt lat="40.491291" lon="0.268647">
        <ele>396.696</ele>
        <time>2018-11-10T21:20:55Z</time>
      </trkpt>
      <trkpt lat="40.491219" lon="0.268426">
        <ele>395.831</ele>
        <time>2018-11-10T21:21:15Z</time>
      </trkpt>
      <trkpt lat="40.491148" lon="0.268205">
        <ele>394.224</ele>
        <time>2018-11-10T21:21:35Z</time>
      </trkpt>
      <trkpt lat="40.491058" lon="0.268005">
        <ele>391.208</ele>
        <time>2018-11-10T21:21:55Z</time>
      </trkpt>
      <trkpt lat="40.490950" lon="0.267806">
        <ele>388.212</ele>
        <time>2018-11-10T21:22:15Z</time>
      </trkpt>
      <trkpt lat="40.490842" lon="0.267629">
        <ele>385.999</ele>
        <time>2018-11-10T21:22:35Z</time>
      </trkpt>
      <trkpt lat="40.490752" lon="0.267386">
        <ele>382.993</ele>
        <time>2018-11-10T21:22:55Z</time>
      </trkpt>
      <trkpt lat="40.490734" lon="0.267164">
        <ele>380.891</ele>
        <time>2018-11-10T21:23:15Z</time>
      </trkpt>
      <trkpt lat="40.490734" lon="0.266921">
        <ele>379.359</ele>
        <time>2018-11-10T21:23:35Z</time>
      </trkpt>
      <trkpt lat="40.490734" lon="0.266678">
        <ele>377.052</ele>
        <time>2018-11-10T21:23:55Z</time>
      </trkpt>
      <trkpt lat="40.490734" lon="0.266434">
        <ele>374.331</ele>
        <time>2018-11-10T21:24:15Z</time>
      </trkpt>
      <trkpt lat="40.490734" lon="0.266213">
        <ele>371.832</ele>
        <time>2018-11-10T21:24:35Z</time>
      </trkpt>
      <trkpt lat="40.490734" lon="0.265992">
        <ele>369.173</ele>
        <time>2018-11-10T21:24:55Z</time>
      </trkpt>
      <trkpt lat="40.490842" lon="0.265815">
        <ele>369.785</ele>
        <time>2018-11-10T21:25:15Z</time>
      </trkpt>
      <trkpt lat="40.491004" lon="0.265682">
        <ele>371.613</ele>
        <time>2018-11-10T21:25:35Z</time>
      </trkpt>
      <trkpt lat="40.491112" lon="0.265483">
        <ele>369.308</ele>
        <time>2018-11-10T21:25:55Z</time>
      </trkpt>
      <trkpt lat="40.491165" lon="0.265261">
        <ele>365.180</ele>
        <time>2018-11-10T21:26:15Z</time>
      </trkpt>
      <trkpt lat="40.491270" lon="0.265319">
        <ele>365.147</ele>
        <time>2018-11-10T21:26:35Z</time>
      </trkpt>
      <trkpt lat="40.491364" lon="0.265079">
        <ele>365.421</ele>
        <time>2018-11-10T21:26:55Z</time>
      </trkpt>
      <trkpt lat="40.491383" lon="0.264924">
        <ele>366.599</ele>
        <time>2018-11-10T21:27:15Z</time>
      </trkpt>
      <trkpt lat="40.491435" lon="0.264686">
        <ele>366.487</ele>
        <time>2018-11-10T21:27:35Z</time>
      </trkpt>
      <trkpt lat="40.491547" lon="0.264514">
        <ele>368.560</ele>
        <time>2018-11-10T21:27:55Z</time>
      </trkpt>
      <trkpt lat="40.491705" lon="0.264376">
        <ele>367.719</ele>
        <time>2018-11-10T21:28:15Z</time>
      </trkpt>
      <trkpt lat="40.491855" lon="0.264328">
        <ele>367.620</ele>
        <time>2018-11-10T21:28:35Z</time>
      </trkpt>
      <trkpt lat="40.491974" lon="0.264281">
        <ele>367.998</ele>
        <time>2018-11-10T21:28:55Z</time>
      </trkpt>
      <trkpt lat="40.492194" lon="0.264142">
        <ele>367.515</ele>
        <time>2018-11-10T21:29:15Z</time>
      </trkpt>
      <trkpt lat="40.492364" lon="0.264095">
        <ele>366.926</ele>
        <time>2018-11-10T21:29:35Z</time>
      </trkpt>
      <trkpt lat="40.492546" lon="0.264057">
        <ele>366.208</ele>
        <time>2018-11-10T21:29:55Z</time>
      </trkpt>
      <trkpt lat="40.492729" lon="0.264022">
        <ele>366.972</ele>
        <time>2018-11-10T21:30:15Z</time>
      </trkpt>
      <trkpt lat="40.492908" lon="0.264066">
        <ele>366.129</ele>
        <time>2018-11-10T21:30:35Z</time>
      </trkpt>
      <trkpt lat="40.493106" lon="0.264066">
        <ele>363.623</ele>
        <time>2018-11-10T21:30:55Z</time>
      </trkpt>
      <trkpt lat="40.493286" lon="0.264155">
        <ele>363.591</ele>
        <time>2018-11-10T21:31:15Z</time>
      </trkpt>
      <trkpt lat="40.493375" lon="0.264199">
        <ele>363.459</ele>
        <time>2018-11-10T21:31:35Z</time>
      </trkpt>
      <trkpt lat="40.493501" lon="0.264022">
        <ele>361.682</ele>
        <time>2018-11-10T21:31:55Z</time>
      </trkpt>
      <trkpt lat="40.493653" lon="0.263871">
        <ele>360.141</ele>
        <time>2018-11-10T21:32:15Z</time>
      </trkpt>
      <trkpt lat="40.493773" lon="0.263755">
        <ele>361.892</ele>
        <time>2018-11-10T21:32:35Z</time>
      </trkpt>
      <trkpt lat="40.493932" lon="0.263646">
        <ele>364.453</ele>
        <time>2018-11-10T21:32:55Z</time>
      </trkpt>
      <trkpt lat="40.494049" lon="0.263515">
        <ele>365.804</ele>
        <time>2018-11-10T21:33:15Z</time>
      </trkpt>
      <trkpt lat="40.494238" lon="0.263414">
        <ele>366.614</ele>
        <time>2018-11-10T21:33:35Z</time>
      </trkpt>
      <trkpt lat="40.494439" lon="0.263329">
        <ele>366.108</ele>
        <time>2018-11-10T21:33:55Z</time>
      </trkpt>
      <trkpt lat="40.494659" lon="0.263213">
        <ele>365.588</ele>
        <time>2018-11-10T21:34:15Z</time>
      </trkpt>
      <trkpt lat="40.494848" lon="0.263158">
        <ele>364.565</ele>
        <time>2018-11-10T21:34:35Z</time>
      </trkpt>
      <trkpt lat="40.495049" lon="0.263050">
        <ele>363.139</ele>
        <time>2018-11-10T21:34:55Z</time>
      </trkpt>
      <trkpt lat="40.495237" lon="0.262988">
        <ele>361.957</ele>
        <time>2018-11-10T21:35:15Z</time>
      </trkpt>
      <trkpt lat="40.495419" lon="0.262919">
        <ele>360.165</ele>
        <time>2018-11-10T21:35:35Z</time>
      </trkpt>
      <trkpt lat="40.495583" lon="0.262864">
        <ele>358.588</ele>
        <time>2018-11-10T21:35:55Z</time>
      </trkpt>
      <trkpt lat="40.495711" lon="0.262849">
        <ele>356.027</ele>
        <time>2018-11-10T21:36:15Z</time>
      </trkpt>
      <trkpt lat="40.495891" lon="0.262761">
        <ele>354.098</ele>
        <time>2018-11-10T21:36:35Z</time>
      </trkpt>
      <trkpt lat="40.496070" lon="0.262739">
        <ele>353.313</ele>
        <time>2018-11-10T21:36:55Z</time>
      </trkpt>
      <trkpt lat="40.496232" lon="0.262628">
        <ele>351.243</ele>
        <time>2018-11-10T21:37:15Z</time>
      </trkpt>
      <trkpt lat="40.496476" lon="0.262632">
        <ele>350.407</ele>
        <time>2018-11-10T21:37:35Z</time>
      </trkpt>
      <trkpt lat="40.496608" lon="0.262601">
        <ele>350.208</ele>
        <time>2018-11-10T21:37:55Z</time>
      </trkpt>
      <trkpt lat="40.496771" lon="0.262512">
        <ele>350.184</ele>
        <time>2018-11-10T21:38:15Z</time>
      </trkpt>
      <trkpt lat="40.497061" lon="0.262454">
        <ele>349.661</ele>
        <time>2018-11-10T21:38:35Z</time>
      </trkpt>
      <trkpt lat="40.497532" lon="0.262136">
        <ele>346.295</ele>
        <time>2018-11-10T21:38:55Z</time>
      </trkpt>
      <trkpt lat="40.497972" lon="0.261780">
        <ele>342.943</ele>
        <time>2018-11-10T21:39:15Z</time>
      </trkpt>
      <trkpt lat="40.497971" lon="0.261773">
        <ele>339.051</ele>
        <time>2018-09-30T08:03:02Z</time>
      </trkpt>
      <trkpt lat="40.498003" lon="0.261762">
        <ele>339.044</ele>
        <time>2018-09-30T08:03:03Z</time>
      </trkpt>
      <trkpt lat="40.498230" lon="0.261661">
        <ele>337.083</ele>
        <time>2018-09-30T08:03:10Z</time>
      </trkpt>
      <trkpt lat="40.498393" lon="0.261557">
        <ele>336.694</ele>
        <time>2018-09-30T08:03:14Z</time>
      </trkpt>
      <trkpt lat="40.498437" lon="0.261539">
        <ele>336.644</ele>
        <time>2018-09-30T08:03:15Z</time>
      </trkpt>
      <trkpt lat="40.498683" lon="0.261434">
        <ele>335.105</ele>
        <time>2018-09-30T08:03:21Z</time>
      </trkpt>
      <trkpt lat="40.498725" lon="0.261354">
        <ele>334.615</ele>
        <time>2018-09-30T08:03:23Z</time>
      </trkpt>
      <trkpt lat="40.498740" lon="0.261302">
        <ele>334.208</ele>
        <time>2018-09-30T08:03:24Z</time>
      </trkpt>
      <trkpt lat="40.498746" lon="0.261243">
        <ele>334.287</ele>
        <time>2018-09-30T08:03:25Z</time>
      </trkpt>
      <trkpt lat="40.498751" lon="0.261195">
        <ele>333.724</ele>
        <time>2018-09-30T08:03:26Z</time>
      </trkpt>
      <trkpt lat="40.498766" lon="0.261144">
        <ele>332.728</ele>
        <time>2018-09-30T08:03:27Z</time>
      </trkpt>
      <trkpt lat="40.498787" lon="0.261097">
        <ele>332.766</ele>
        <time>2018-09-30T08:03:28Z</time>
      </trkpt>
      <trkpt lat="40.498814" lon="0.261052">
        <ele>332.774</ele>
        <time>2018-09-30T08:03:29Z</time>
      </trkpt>
      <trkpt lat="40.498846" lon="0.261006">
        <ele>332.287</ele>
        <time>2018-09-30T08:03:30Z</time>
      </trkpt>
      <trkpt lat="40.498998" lon="0.260788">
        <ele>331.346</ele>
        <time>2018-09-30T08:03:35Z</time>
      </trkpt>
      <trkpt lat="40.499236" lon="0.260454">
        <ele>329.877</ele>
        <time>2018-09-30T08:03:43Z</time>
      </trkpt>
      <trkpt lat="40.499270" lon="0.260414">
        <ele>329.855</ele>
        <time>2018-09-30T08:03:44Z</time>
      </trkpt>
      <trkpt lat="40.499566" lon="0.260109">
        <ele>326.907</ele>
        <time>2018-09-30T08:03:52Z</time>
      </trkpt>
      <trkpt lat="40.499605" lon="0.260062">
        <ele>326.517</ele>
        <time>2018-09-30T08:03:53Z</time>
      </trkpt>
      <trkpt lat="40.499676" lon="0.259992">
        <ele>326.008</ele>
        <time>2018-09-30T08:03:55Z</time>
      </trkpt>
      <trkpt lat="40.499788" lon="0.259907">
        <ele>325.588</ele>
        <time>2018-09-30T08:03:58Z</time>
      </trkpt>
      <trkpt lat="40.500122" lon="0.259766">
        <ele>324.145</ele>
        <time>2018-09-30T08:04:07Z</time>
      </trkpt>
      <trkpt lat="40.500379" lon="0.259745">
        <ele>324.199</ele>
        <time>2018-09-30T08:04:14Z</time>
      </trkpt>
      <trkpt lat="40.500601" lon="0.259728">
        <ele>324.537</ele>
        <time>2018-09-30T08:04:20Z</time>
      </trkpt>
      <trkpt lat="40.500709" lon="0.259701">
        <ele>326.085</ele>
        <time>2018-09-30T08:04:23Z</time>
      </trkpt>
      <trkpt lat="40.501058" lon="0.259636">
        <ele>326.518</ele>
        <time>2018-09-30T08:04:33Z</time>
      </trkpt>
      <trkpt lat="40.501273" lon="0.259537">
        <ele>326.987</ele>
        <time>2018-09-30T08:04:40Z</time>
      </trkpt>
      <trkpt lat="40.501493" lon="0.259390">
        <ele>327.478</ele>
        <time>2018-09-30T08:04:47Z</time>
      </trkpt>
      <trkpt lat="40.501629" lon="0.259282">
        <ele>327.458</ele>
        <time>2018-09-30T08:04:51Z</time>
      </trkpt>
      <trkpt lat="40.501663" lon="0.259254">
        <ele>327.452</ele>
        <time>2018-09-30T08:04:52Z</time>
      </trkpt>
      <trkpt lat="40.502008" lon="0.258944">
        <ele>327.917</ele>
        <time>2018-09-30T08:05:02Z</time>
      </trkpt>
      <trkpt lat="40.502245" lon="0.258785">
        <ele>327.908</ele>
        <time>2018-09-30T08:05:09Z</time>
      </trkpt>
      <trkpt lat="40.502430" lon="0.258555">
        <ele>327.948</ele>
        <time>2018-09-30T08:05:16Z</time>
      </trkpt>
      <trkpt lat="40.502485" lon="0.258486">
        <ele>327.995</ele>
        <time>2018-09-30T08:05:18Z</time>
      </trkpt>
      <trkpt lat="40.502590" lon="0.258389">
        <ele>327.959</ele>
        <time>2018-09-30T08:05:21Z</time>
      </trkpt>
      <trkpt lat="40.502856" lon="0.258209">
        <ele>326.587</ele>
        <time>2018-09-30T08:05:29Z</time>
      </trkpt>
      <trkpt lat="40.502895" lon="0.258188">
        <ele>326.515</ele>
        <time>2018-09-30T08:05:30Z</time>
      </trkpt>
      <trkpt lat="40.503093" lon="0.258119">
        <ele>325.058</ele>
        <time>2018-09-30T08:05:35Z</time>
      </trkpt>
      <trkpt lat="40.503147" lon="0.258111">
        <ele>324.187</ele>
        <time>2018-09-30T08:05:36Z</time>
      </trkpt>
      <trkpt lat="40.503485" lon="0.258090">
        <ele>321.728</ele>
        <time>2018-09-30T08:05:42Z</time>
      </trkpt>
      <trkpt lat="40.503534" lon="0.258080">
        <ele>321.271</ele>
        <time>2018-09-30T08:05:43Z</time>
      </trkpt>
      <trkpt lat="40.503583" lon="0.258064">
        <ele>320.741</ele>
        <time>2018-09-30T08:05:44Z</time>
      </trkpt>
      <trkpt lat="40.503625" lon="0.258039">
        <ele>320.215</ele>
        <time>2018-09-30T08:05:45Z</time>
      </trkpt>
      <trkpt lat="40.503653" lon="0.258017">
        <ele>319.708</ele>
        <time>2018-09-30T08:05:46Z</time>
      </trkpt>
      <trkpt lat="40.503693" lon="0.257995">
        <ele>318.840</ele>
        <time>2018-09-30T08:05:48Z</time>
      </trkpt>
      <trkpt lat="40.503710" lon="0.258004">
        <ele>318.857</ele>
        <time>2018-09-30T08:05:49Z</time>
      </trkpt>
      <trkpt lat="40.503725" lon="0.258024">
        <ele>318.361</ele>
        <time>2018-09-30T08:05:50Z</time>
      </trkpt>
      <trkpt lat="40.503731" lon="0.258048">
        <ele>318.399</ele>
        <time>2018-09-30T08:05:51Z</time>
      </trkpt>
      <trkpt lat="40.503733" lon="0.258073">
        <ele>318.327</ele>
        <time>2018-09-30T08:05:56Z</time>
      </trkpt>
      <trkpt lat="40.503734" lon="0.258061">
        <ele>318.350</ele>
        <time>2018-09-30T08:06:18Z</time>
      </trkpt>
      <trkpt lat="40.503727" lon="0.258086">
        <ele>318.339</ele>
        <time>2018-09-30T08:06:33Z</time>
      </trkpt>
      <trkpt lat="40.503699" lon="0.258307">
        <ele>318.330</ele>
        <time>2018-09-30T08:06:39Z</time>
      </trkpt>
      <trkpt lat="40.503608" lon="0.258632">
        <ele>319.774</ele>
        <time>2018-09-30T08:06:46Z</time>
      </trkpt>
      <trkpt lat="40.503642" lon="0.258855">
        <ele>320.256</ele>
        <time>2018-09-30T08:06:51Z</time>
      </trkpt>
      <trkpt lat="40.503765" lon="0.259129">
        <ele>322.621</ele>
        <time>2018-09-30T08:06:59Z</time>
      </trkpt>
      <trkpt lat="40.503847" lon="0.259367">
        <ele>325.008</ele>
        <time>2018-09-30T08:07:06Z</time>
      </trkpt>
      <trkpt lat="40.503908" lon="0.259685">
        <ele>328.480</ele>
        <time>2018-09-30T08:07:15Z</time>
      </trkpt>
      <trkpt lat="40.504006" lon="0.260020">
        <ele>330.847</ele>
        <time>2018-09-30T08:07:25Z</time>
      </trkpt>
      <trkpt lat="40.504098" lon="0.260276">
        <ele>332.251</ele>
        <time>2018-09-30T08:07:34Z</time>
      </trkpt>
      <trkpt lat="40.504122" lon="0.260505">
        <ele>333.259</ele>
        <time>2018-09-30T08:07:41Z</time>
      </trkpt>
      <trkpt lat="40.504166" lon="0.260710">
        <ele>334.267</ele>
        <time>2018-09-30T08:07:48Z</time>
      </trkpt>
      <trkpt lat="40.504257" lon="0.260845">
        <ele>335.670</ele>
        <time>2018-09-30T08:07:54Z</time>
      </trkpt>
      <trkpt lat="40.504341" lon="0.261100">
        <ele>337.569</ele>
        <time>2018-09-30T08:08:02Z</time>
      </trkpt>
      <trkpt lat="40.504404" lon="0.261325">
        <ele>338.530</ele>
        <time>2018-09-30T08:08:09Z</time>
      </trkpt>
      <trkpt lat="40.504463" lon="0.261616">
        <ele>340.477</ele>
        <time>2018-09-30T08:08:18Z</time>
      </trkpt>
      <trkpt lat="40.504550" lon="0.261870">
        <ele>341.861</ele>
        <time>2018-09-30T08:08:26Z</time>
      </trkpt>
      <trkpt lat="40.504551" lon="0.262106">
        <ele>342.827</ele>
        <time>2018-09-30T08:08:33Z</time>
      </trkpt>
      <trkpt lat="40.504585" lon="0.262427">
        <ele>345.208</ele>
        <time>2018-09-30T08:08:42Z</time>
      </trkpt>
      <trkpt lat="40.504623" lon="0.262750">
        <ele>346.240</ele>
        <time>2018-09-30T08:08:51Z</time>
      </trkpt>
      <trkpt lat="40.504633" lon="0.263004">
        <ele>347.687</ele>
        <time>2018-09-30T08:08:59Z</time>
      </trkpt>
      <trkpt lat="40.504636" lon="0.263027">
        <ele>348.191</ele>
        <time>2018-09-30T08:09:04Z</time>
      </trkpt>
      <trkpt lat="40.504645" lon="0.263038">
        <ele>348.159</ele>
        <time>2018-09-30T08:09:08Z</time>
      </trkpt>
      <trkpt lat="40.504655" lon="0.263053">
        <ele>348.117</ele>
        <time>2018-09-30T08:09:09Z</time>
      </trkpt>
      <trkpt lat="40.504665" lon="0.263075">
        <ele>348.170</ele>
        <time>2018-09-30T08:09:10Z</time>
      </trkpt>
      <trkpt lat="40.504674" lon="0.263105">
        <ele>348.169</ele>
        <time>2018-09-30T08:09:11Z</time>
      </trkpt>
      <trkpt lat="40.504682" lon="0.263138">
        <ele>348.130</ele>
        <time>2018-09-30T08:09:12Z</time>
      </trkpt>
      <trkpt lat="40.504792" lon="0.263401">
        <ele>351.077</ele>
        <time>2018-09-30T08:09:21Z</time>
      </trkpt>
      <trkpt lat="40.504813" lon="0.263685">
        <ele>353.961</ele>
        <time>2018-09-30T08:09:29Z</time>
      </trkpt>
      <trkpt lat="40.504811" lon="0.263927">
        <ele>354.827</ele>
        <time>2018-09-30T08:09:36Z</time>
      </trkpt>
      <trkpt lat="40.504808" lon="0.264295">
        <ele>355.808</ele>
        <time>2018-09-30T08:09:46Z</time>
      </trkpt>
      <trkpt lat="40.504817" lon="0.264619">
        <ele>357.240</ele>
        <time>2018-09-30T08:09:55Z</time>
      </trkpt>
      <trkpt lat="40.504798" lon="0.264870">
        <ele>358.217</ele>
        <time>2018-09-30T08:10:02Z</time>
      </trkpt>
      <trkpt lat="40.504775" lon="0.265261">
        <ele>361.541</ele>
        <time>2018-09-30T08:10:13Z</time>
      </trkpt>
      <trkpt lat="40.504723" lon="0.265528">
        <ele>364.429</ele>
        <time>2018-09-30T08:10:21Z</time>
      </trkpt>
      <trkpt lat="40.504719" lon="0.265763">
        <ele>365.437</ele>
        <time>2018-09-30T08:10:27Z</time>
      </trkpt>
      <trkpt lat="40.504704" lon="0.266033">
        <ele>366.860</ele>
        <time>2018-09-30T08:10:34Z</time>
      </trkpt>
      <trkpt lat="40.504700" lon="0.266401">
        <ele>367.859</ele>
        <time>2018-09-30T08:10:43Z</time>
      </trkpt>
      <trkpt lat="40.504624" lon="0.266737">
        <ele>369.710</ele>
        <time>2018-09-30T08:10:52Z</time>
      </trkpt>
      <trkpt lat="40.504528" lon="0.267031">
        <ele>372.152</ele>
        <time>2018-09-30T08:11:00Z</time>
      </trkpt>
      <trkpt lat="40.504445" lon="0.267356">
        <ele>374.053</ele>
        <time>2018-09-30T08:11:09Z</time>
      </trkpt>
      <trkpt lat="40.504396" lon="0.267520">
        <ele>375.008</ele>
        <time>2018-09-30T08:11:14Z</time>
      </trkpt>
      <trkpt lat="40.504388" lon="0.267550">
        <ele>375.008</ele>
        <time>2018-09-30T08:11:15Z</time>
      </trkpt>
      <trkpt lat="40.504291" lon="0.267809">
        <ele>376.938</ele>
        <time>2018-09-30T08:11:24Z</time>
      </trkpt>
      <trkpt lat="40.504277" lon="0.268053">
        <ele>378.935</ele>
        <time>2018-09-30T08:11:32Z</time>
      </trkpt>
      <trkpt lat="40.504341" lon="0.268291">
        <ele>380.359</ele>
        <time>2018-09-30T08:11:39Z</time>
      </trkpt>
      <trkpt lat="40.504378" lon="0.268587">
        <ele>381.397</ele>
        <time>2018-09-30T08:11:47Z</time>
      </trkpt>
      <trkpt lat="40.504330" lon="0.268947">
        <ele>383.285</ele>
        <time>2018-09-30T08:11:56Z</time>
      </trkpt>
      <trkpt lat="40.504293" lon="0.269313">
        <ele>384.138</ele>
        <time>2018-09-30T08:12:05Z</time>
      </trkpt>
      <trkpt lat="40.504264" lon="0.269692">
        <ele>384.147</ele>
        <time>2018-09-30T08:12:13Z</time>
      </trkpt>
      <trkpt lat="40.504277" lon="0.270035">
        <ele>384.188</ele>
        <time>2018-09-30T08:12:20Z</time>
      </trkpt>
      <trkpt lat="40.504283" lon="0.270177">
        <ele>384.187</ele>
        <time>2018-09-30T08:12:23Z</time>
      </trkpt>
      <trkpt lat="40.504282" lon="0.270239">
        <ele>383.242</ele>
        <time>2018-09-30T08:12:24Z</time>
      </trkpt>
      <trkpt lat="40.504288" lon="0.270307">
        <ele>383.226</ele>
        <time>2018-09-30T08:12:25Z</time>
      </trkpt>
      <trkpt lat="40.504304" lon="0.270371">
        <ele>382.708</ele>
        <time>2018-09-30T08:12:26Z</time>
      </trkpt>
      <trkpt lat="40.504325" lon="0.270435">
        <ele>382.751</ele>
        <time>2018-09-30T08:12:27Z</time>
      </trkpt>
      <trkpt lat="40.504342" lon="0.270497">
        <ele>382.798</ele>
        <time>2018-09-30T08:12:28Z</time>
      </trkpt>
      <trkpt lat="40.504350" lon="0.270562">
        <ele>382.762</ele>
        <time>2018-09-30T08:12:29Z</time>
      </trkpt>
      <trkpt lat="40.504347" lon="0.270622">
        <ele>382.750</ele>
        <time>2018-09-30T08:12:30Z</time>
      </trkpt>
      <trkpt lat="40.504337" lon="0.270672">
        <ele>382.738</ele>
        <time>2018-09-30T08:12:31Z</time>
      </trkpt>
      <trkpt lat="40.504318" lon="0.270721">
        <ele>382.791</ele>
        <time>2018-09-30T08:12:32Z</time>
      </trkpt>
      <trkpt lat="40.504298" lon="0.270771">
        <ele>382.760</ele>
        <time>2018-09-30T08:12:33Z</time>
      </trkpt>
      <trkpt lat="40.504225" lon="0.271098">
        <ele>383.731</ele>
        <time>2018-09-30T08:12:40Z</time>
      </trkpt>
      <trkpt lat="40.504229" lon="0.271138">
        <ele>383.744</ele>
        <time>2018-09-30T08:12:41Z</time>
      </trkpt>
      <trkpt lat="40.504171" lon="0.271393">
        <ele>383.205</ele>
        <time>2018-09-30T08:12:47Z</time>
      </trkpt>
      <trkpt lat="40.504144" lon="0.271443">
        <ele>383.215</ele>
        <time>2018-09-30T08:12:48Z</time>
      </trkpt>
      <trkpt lat="40.504107" lon="0.271493">
        <ele>381.708</ele>
        <time>2018-09-30T08:12:49Z</time>
      </trkpt>
      <trkpt lat="40.504014" lon="0.271607">
        <ele>381.357</ele>
        <time>2018-09-30T08:12:51Z</time>
      </trkpt>
      <trkpt lat="40.503971" lon="0.271682">
        <ele>380.324</ele>
        <time>2018-09-30T08:12:52Z</time>
      </trkpt>
      <trkpt lat="40.503936" lon="0.271758">
        <ele>380.338</ele>
        <time>2018-09-30T08:12:53Z</time>
      </trkpt>
      <trkpt lat="40.503774" lon="0.272119">
        <ele>377.496</ele>
        <time>2018-09-30T08:12:57Z</time>
      </trkpt>
      <trkpt lat="40.503734" lon="0.272200">
        <ele>377.424</ele>
        <time>2018-09-30T08:12:58Z</time>
      </trkpt>
      <trkpt lat="40.503609" lon="0.272506">
        <ele>375.547</ele>
        <time>2018-09-30T08:13:02Z</time>
      </trkpt>
      <trkpt lat="40.503597" lon="0.272593">
        <ele>374.586</ele>
        <time>2018-09-30T08:13:03Z</time>
      </trkpt>
      <trkpt lat="40.503584" lon="0.272753">
        <ele>373.147</ele>
        <time>2018-09-30T08:13:05Z</time>
      </trkpt>
      <trkpt lat="40.503588" lon="0.272831">
        <ele>372.129</ele>
        <time>2018-09-30T08:13:06Z</time>
      </trkpt>
      <trkpt lat="40.503602" lon="0.272920">
        <ele>371.200</ele>
        <time>2018-09-30T08:13:07Z</time>
      </trkpt>
      <trkpt lat="40.503660" lon="0.273180">
        <ele>369.720</ele>
        <time>2018-09-30T08:13:10Z</time>
      </trkpt>
      <trkpt lat="40.503670" lon="0.273282">
        <ele>368.808</ele>
        <time>2018-09-30T08:13:11Z</time>
      </trkpt>
      <trkpt lat="40.503674" lon="0.273386">
        <ele>368.885</ele>
        <time>2018-09-30T08:13:12Z</time>
      </trkpt>
      <trkpt lat="40.503684" lon="0.273585">
        <ele>368.392</ele>
        <time>2018-09-30T08:13:14Z</time>
      </trkpt>
      <trkpt lat="40.503699" lon="0.273677">
        <ele>368.386</ele>
        <time>2018-09-30T08:13:15Z</time>
      </trkpt>
      <trkpt lat="40.503723" lon="0.273762">
        <ele>367.884</ele>
        <time>2018-09-30T08:13:16Z</time>
      </trkpt>
      <trkpt lat="40.503792" lon="0.273949">
        <ele>366.472</ele>
        <time>2018-09-30T08:13:19Z</time>
      </trkpt>
      <trkpt lat="40.503803" lon="0.274009">
        <ele>365.965</ele>
        <time>2018-09-30T08:13:20Z</time>
      </trkpt>
      <trkpt lat="40.503808" lon="0.274070">
        <ele>364.954</ele>
        <time>2018-09-30T08:13:21Z</time>
      </trkpt>
      <trkpt lat="40.503805" lon="0.274131">
        <ele>364.465</ele>
        <time>2018-09-30T08:13:22Z</time>
      </trkpt>
      <trkpt lat="40.503791" lon="0.274198">
        <ele>364.077</ele>
        <time>2018-09-30T08:13:23Z</time>
      </trkpt>
      <trkpt lat="40.503769" lon="0.274268">
        <ele>364.061</ele>
        <time>2018-09-30T08:13:24Z</time>
      </trkpt>
      <trkpt lat="40.503738" lon="0.274337">
        <ele>363.027</ele>
        <time>2018-09-30T08:13:25Z</time>
      </trkpt>
      <trkpt lat="40.503701" lon="0.274402">
        <ele>362.508</ele>
        <time>2018-09-30T08:13:26Z</time>
      </trkpt>
      <trkpt lat="40.503669" lon="0.274471">
        <ele>362.580</ele>
        <time>2018-09-30T08:13:27Z</time>
      </trkpt>
      <trkpt lat="40.503650" lon="0.274545">
        <ele>361.567</ele>
        <time>2018-09-30T08:13:28Z</time>
      </trkpt>
      <trkpt lat="40.503647" lon="0.274614">
        <ele>361.121</ele>
        <time>2018-09-30T08:13:29Z</time>
      </trkpt>
      <trkpt lat="40.503660" lon="0.274679">
        <ele>360.619</ele>
        <time>2018-09-30T08:13:30Z</time>
      </trkpt>
      <trkpt lat="40.503686" lon="0.274731">
        <ele>360.687</ele>
        <time>2018-09-30T08:13:31Z</time>
      </trkpt>
      <trkpt lat="40.503724" lon="0.274777">
        <ele>360.170</ele>
        <time>2018-09-30T08:13:32Z</time>
      </trkpt>
      <trkpt lat="40.503763" lon="0.274826">
        <ele>360.149</ele>
        <time>2018-09-30T08:13:33Z</time>
      </trkpt>
      <trkpt lat="40.503798" lon="0.274883">
        <ele>359.170</ele>
        <time>2018-09-30T08:13:34Z</time>
      </trkpt>
      <trkpt lat="40.503826" lon="0.274937">
        <ele>359.133</ele>
        <time>2018-09-30T08:13:35Z</time>
      </trkpt>
      <trkpt lat="40.504019" lon="0.275419">
        <ele>356.323</ele>
        <time>2018-09-30T08:13:42Z</time>
      </trkpt>
      <trkpt lat="40.504099" lon="0.275697">
        <ele>354.315</ele>
        <time>2018-09-30T08:13:45Z</time>
      </trkpt>
      <trkpt lat="40.504205" lon="0.276073">
        <ele>351.008</ele>
        <time>2018-09-30T08:13:49Z</time>
      </trkpt>
      <trkpt lat="40.504277" lon="0.276329">
        <ele>347.196</ele>
        <time>2018-09-30T08:13:52Z</time>
      </trkpt>
      <trkpt lat="40.504349" lon="0.276448">
        <ele>345.213</ele>
        <time>2018-09-30T08:13:55Z</time>
      </trkpt>
      <trkpt lat="40.504384" lon="0.276472">
        <ele>344.787</ele>
        <time>2018-09-30T08:13:56Z</time>
      </trkpt>
      <trkpt lat="40.504419" lon="0.276510">
        <ele>344.245</ele>
        <time>2018-09-30T08:13:57Z</time>
      </trkpt>
      <trkpt lat="40.504459" lon="0.276552">
        <ele>343.813</ele>
        <time>2018-09-30T08:13:58Z</time>
      </trkpt>
      <trkpt lat="40.504504" lon="0.276596">
        <ele>343.826</ele>
        <time>2018-09-30T08:13:59Z</time>
      </trkpt>
      <trkpt lat="40.504654" lon="0.276759">
        <ele>342.355</ele>
        <time>2018-09-30T08:14:02Z</time>
      </trkpt>
      <trkpt lat="40.504914" lon="0.277018">
        <ele>338.576</ele>
        <time>2018-09-30T08:14:06Z</time>
      </trkpt>
      <trkpt lat="40.505271" lon="0.277403">
        <ele>335.665</ele>
        <time>2018-09-30T08:14:11Z</time>
      </trkpt>
      <trkpt lat="40.505514" lon="0.277654">
        <ele>333.268</ele>
        <time>2018-09-30T08:14:15Z</time>
      </trkpt>
      <trkpt lat="40.505556" lon="0.277725">
        <ele>332.214</ele>
        <time>2018-09-30T08:14:16Z</time>
      </trkpt>
      <trkpt lat="40.505588" lon="0.277802">
        <ele>332.208</ele>
        <time>2018-09-30T08:14:17Z</time>
      </trkpt>
      <trkpt lat="40.505618" lon="0.277892">
        <ele>331.399</ele>
        <time>2018-09-30T08:14:18Z</time>
      </trkpt>
      <trkpt lat="40.505646" lon="0.277990">
        <ele>330.396</ele>
        <time>2018-09-30T08:14:19Z</time>
      </trkpt>
      <trkpt lat="40.505800" lon="0.278493">
        <ele>327.490</ele>
        <time>2018-09-30T08:14:24Z</time>
      </trkpt>
      <trkpt lat="40.505859" lon="0.278694">
        <ele>326.548</ele>
        <time>2018-09-30T08:14:26Z</time>
      </trkpt>
      <trkpt lat="40.505958" lon="0.279039">
        <ele>322.616</ele>
        <time>2018-09-30T08:14:29Z</time>
      </trkpt>
      <trkpt lat="40.506072" lon="0.279372">
        <ele>319.359</ele>
        <time>2018-09-30T08:14:32Z</time>
      </trkpt>
      <trkpt lat="40.506202" lon="0.279730">
        <ele>314.948</ele>
        <time>2018-09-30T08:14:35Z</time>
      </trkpt>
      <trkpt lat="40.506333" lon="0.280077">
        <ele>311.669</ele>
        <time>2018-09-30T08:14:38Z</time>
      </trkpt>
      <trkpt lat="40.506475" lon="0.280403">
        <ele>308.746</ele>
        <time>2018-09-30T08:14:41Z</time>
      </trkpt>
      <trkpt lat="40.506603" lon="0.280708">
        <ele>305.388</ele>
        <time>2018-09-30T08:14:44Z</time>
      </trkpt>
      <trkpt lat="40.506724" lon="0.280926">
        <ele>302.416</ele>
        <time>2018-09-30T08:14:47Z</time>
      </trkpt>
      <trkpt lat="40.506764" lon="0.280969">
        <ele>301.908</ele>
        <time>2018-09-30T08:14:48Z</time>
      </trkpt>
      <trkpt lat="40.506816" lon="0.281001">
        <ele>301.927</ele>
        <time>2018-09-30T08:14:49Z</time>
      </trkpt>
      <trkpt lat="40.506863" lon="0.281027">
        <ele>301.994</ele>
        <time>2018-09-30T08:14:50Z</time>
      </trkpt>
      <trkpt lat="40.506910" lon="0.281065">
        <ele>301.068</ele>
        <time>2018-09-30T08:14:51Z</time>
      </trkpt>
      <trkpt lat="40.506946" lon="0.281116">
        <ele>301.036</ele>
        <time>2018-09-30T08:14:52Z</time>
      </trkpt>
      <trkpt lat="40.506971" lon="0.281173">
        <ele>300.594</ele>
        <time>2018-09-30T08:14:53Z</time>
      </trkpt>
      <trkpt lat="40.506993" lon="0.281249">
        <ele>300.067</ele>
        <time>2018-09-30T08:14:54Z</time>
      </trkpt>
      <trkpt lat="40.507007" lon="0.281333">
        <ele>299.176</ele>
        <time>2018-09-30T08:14:55Z</time>
      </trkpt>
      <trkpt lat="40.507017" lon="0.281429">
        <ele>298.127</ele>
        <time>2018-09-30T08:14:56Z</time>
      </trkpt>
      <trkpt lat="40.507024" lon="0.281537">
        <ele>298.146</ele>
        <time>2018-09-30T08:14:57Z</time>
      </trkpt>
      <trkpt lat="40.507042" lon="0.281750">
        <ele>295.788</ele>
        <time>2018-09-30T08:14:59Z</time>
      </trkpt>
      <trkpt lat="40.507063" lon="0.281860">
        <ele>294.716</ele>
        <time>2018-09-30T08:15:00Z</time>
      </trkpt>
      <trkpt lat="40.507080" lon="0.281964">
        <ele>294.308</ele>
        <time>2018-09-30T08:15:01Z</time>
      </trkpt>
      <trkpt lat="40.507125" lon="0.282457">
        <ele>290.417</ele>
        <time>2018-09-30T08:15:05Z</time>
      </trkpt>
      <trkpt lat="40.507155" lon="0.282656">
        <ele>288.534</ele>
        <time>2018-09-30T08:15:07Z</time>
      </trkpt>
      <trkpt lat="40.507182" lon="0.282728">
        <ele>287.568</ele>
        <time>2018-09-30T08:15:08Z</time>
      </trkpt>
      <trkpt lat="40.507218" lon="0.282772">
        <ele>287.566</ele>
        <time>2018-09-30T08:15:09Z</time>
      </trkpt>
      <trkpt lat="40.507300" lon="0.282844">
        <ele>286.184</ele>
        <time>2018-09-30T08:15:11Z</time>
      </trkpt>
      <trkpt lat="40.507329" lon="0.282906">
        <ele>285.117</ele>
        <time>2018-09-30T08:15:12Z</time>
      </trkpt>
      <trkpt lat="40.507353" lon="0.282985">
        <ele>284.626</ele>
        <time>2018-09-30T08:15:13Z</time>
      </trkpt>
      <trkpt lat="40.507389" lon="0.283075">
        <ele>283.757</ele>
        <time>2018-09-30T08:15:14Z</time>
      </trkpt>
      <trkpt lat="40.507424" lon="0.283163">
        <ele>283.212</ele>
        <time>2018-09-30T08:15:15Z</time>
      </trkpt>
      <trkpt lat="40.507467" lon="0.283271">
        <ele>282.232</ele>
        <time>2018-09-30T08:15:16Z</time>
      </trkpt>
      <trkpt lat="40.507608" lon="0.283589">
        <ele>278.405</ele>
        <time>2018-09-30T08:15:19Z</time>
      </trkpt>
      <trkpt lat="40.507827" lon="0.283968">
        <ele>275.008</ele>
        <time>2018-09-30T08:15:23Z</time>
      </trkpt>
      <trkpt lat="40.507927" lon="0.284103">
        <ele>273.624</ele>
        <time>2018-09-30T08:15:25Z</time>
      </trkpt>
      <trkpt lat="40.508054" lon="0.284215">
        <ele>272.661</ele>
        <time>2018-09-30T08:15:27Z</time>
      </trkpt>
      <trkpt lat="40.508162" lon="0.284313">
        <ele>272.675</ele>
        <time>2018-09-30T08:15:29Z</time>
      </trkpt>
      <trkpt lat="40.508189" lon="0.284347">
        <ele>272.613</ele>
        <time>2018-09-30T08:15:30Z</time>
      </trkpt>
      <trkpt lat="40.508208" lon="0.284375">
        <ele>274.141</ele>
        <time>2018-09-30T08:15:31Z</time>
      </trkpt>
      <trkpt lat="40.508225" lon="0.284410">
        <ele>274.174</ele>
        <time>2018-09-30T08:15:32Z</time>
      </trkpt>
      <trkpt lat="40.508239" lon="0.284449">
        <ele>274.123</ele>
        <time>2018-09-30T08:15:33Z</time>
      </trkpt>
      <trkpt lat="40.508257" lon="0.284496">
        <ele>274.164</ele>
        <time>2018-09-30T08:15:34Z</time>
      </trkpt>
      <trkpt lat="40.508275" lon="0.284549">
        <ele>274.194</ele>
        <time>2018-09-30T08:15:35Z</time>
      </trkpt>
      <trkpt lat="40.508291" lon="0.284609">
        <ele>274.157</ele>
        <time>2018-09-30T08:15:36Z</time>
      </trkpt>
      <trkpt lat="40.508295" lon="0.284677">
        <ele>272.622</ele>
        <time>2018-09-30T08:15:37Z</time>
      </trkpt>
      <trkpt lat="40.508287" lon="0.284752">
        <ele>272.608</ele>
        <time>2018-09-30T08:15:38Z</time>
      </trkpt>
      <trkpt lat="40.508265" lon="0.284833">
        <ele>271.732</ele>
        <time>2018-09-30T08:15:39Z</time>
      </trkpt>
      <trkpt lat="40.508232" lon="0.284922">
        <ele>270.789</ele>
        <time>2018-09-30T08:15:40Z</time>
      </trkpt>
      <trkpt lat="40.508195" lon="0.285020">
        <ele>270.253</ele>
        <time>2018-09-30T08:15:41Z</time>
      </trkpt>
      <trkpt lat="40.508077" lon="0.285326">
        <ele>266.911</ele>
        <time>2018-09-30T08:15:44Z</time>
      </trkpt>
      <trkpt lat="40.508047" lon="0.285431">
        <ele>266.489</ele>
        <time>2018-09-30T08:15:45Z</time>
      </trkpt>
      <trkpt lat="40.508025" lon="0.285544">
        <ele>266.482</ele>
        <time>2018-09-30T08:15:46Z</time>
      </trkpt>
      <trkpt lat="40.508008" lon="0.285654">
        <ele>265.431</ele>
        <time>2018-09-30T08:15:47Z</time>
      </trkpt>
      <trkpt lat="40.507979" lon="0.285876">
        <ele>264.932</ele>
        <time>2018-09-30T08:15:49Z</time>
      </trkpt>
      <trkpt lat="40.507845" lon="0.286641">
        <ele>262.543</ele>
        <time>2018-09-30T08:15:56Z</time>
      </trkpt>
      <trkpt lat="40.507755" lon="0.287042">
        <ele>262.564</ele>
        <time>2018-09-30T08:16:01Z</time>
      </trkpt>
      <trkpt lat="40.507726" lon="0.287120">
        <ele>262.510</ele>
        <time>2018-09-30T08:16:02Z</time>
      </trkpt>
      <trkpt lat="40.507659" lon="0.287288">
        <ele>261.608</ele>
        <time>2018-09-30T08:16:04Z</time>
      </trkpt>
      <trkpt lat="40.507533" lon="0.287662">
        <ele>258.267</ele>
        <time>2018-09-30T08:16:08Z</time>
      </trkpt>
      <trkpt lat="40.507490" lon="0.287849">
        <ele>256.814</ele>
        <time>2018-09-30T08:16:10Z</time>
      </trkpt>
      <trkpt lat="40.507476" lon="0.287942">
        <ele>255.878</ele>
        <time>2018-09-30T08:16:11Z</time>
      </trkpt>
      <trkpt lat="40.507457" lon="0.288137">
        <ele>254.876</ele>
        <time>2018-09-30T08:16:13Z</time>
      </trkpt>
      <trkpt lat="40.507431" lon="0.288437">
        <ele>254.484</ele>
        <time>2018-09-30T08:16:16Z</time>
      </trkpt>
      <trkpt lat="40.507432" lon="0.288531">
        <ele>254.487</ele>
        <time>2018-09-30T08:16:17Z</time>
      </trkpt>
      <trkpt lat="40.507440" lon="0.288619">
        <ele>254.476</ele>
        <time>2018-09-30T08:16:18Z</time>
      </trkpt>
      <trkpt lat="40.507498" lon="0.288923">
        <ele>253.427</ele>
        <time>2018-09-30T08:16:22Z</time>
      </trkpt>
      <trkpt lat="40.507517" lon="0.288978">
        <ele>253.416</ele>
        <time>2018-09-30T08:16:23Z</time>
      </trkpt>
      <trkpt lat="40.507543" lon="0.289026">
        <ele>253.976</ele>
        <time>2018-09-30T08:16:24Z</time>
      </trkpt>
      <trkpt lat="40.507594" lon="0.289101">
        <ele>253.913</ele>
        <time>2018-09-30T08:16:26Z</time>
      </trkpt>
      <trkpt lat="40.507704" lon="0.289221">
        <ele>252.908</ele>
        <time>2018-09-30T08:16:29Z</time>
      </trkpt>
      <trkpt lat="40.507909" lon="0.289367">
        <ele>251.584</ele>
        <time>2018-09-30T08:16:33Z</time>
      </trkpt>
      <trkpt lat="40.507957" lon="0.289386">
        <ele>250.551</ele>
        <time>2018-09-30T08:16:34Z</time>
      </trkpt>
      <trkpt lat="40.508005" lon="0.289396">
        <ele>250.075</ele>
        <time>2018-09-30T08:16:35Z</time>
      </trkpt>
      <trkpt lat="40.508043" lon="0.289405">
        <ele>250.053</ele>
        <time>2018-09-30T08:16:36Z</time>
      </trkpt>
      <trkpt lat="40.508069" lon="0.289425">
        <ele>250.061</ele>
        <time>2018-09-30T08:16:37Z</time>
      </trkpt>
      <trkpt lat="40.508085" lon="0.289458">
        <ele>250.034</ele>
        <time>2018-09-30T08:16:38Z</time>
      </trkpt>
      <trkpt lat="40.508092" lon="0.289497">
        <ele>250.063</ele>
        <time>2018-09-30T08:16:39Z</time>
      </trkpt>
      <trkpt lat="40.508079" lon="0.289587">
        <ele>250.074</ele>
        <time>2018-09-30T08:16:41Z</time>
      </trkpt>
      <trkpt lat="40.508020" lon="0.289887">
        <ele>253.497</ele>
        <time>2018-09-30T08:16:48Z</time>
      </trkpt>
      <trkpt lat="40.508010" lon="0.289926">
        <ele>253.423</ele>
        <time>2018-09-30T08:16:49Z</time>
      </trkpt>
      <trkpt lat="40.507898" lon="0.290139">
        <ele>254.825</ele>
        <time>2018-09-30T08:16:55Z</time>
      </trkpt>
      <trkpt lat="40.507776" lon="0.290387">
        <ele>255.808</ele>
        <time>2018-09-30T08:17:02Z</time>
      </trkpt>
      <trkpt lat="40.507583" lon="0.290549">
        <ele>256.872</ele>
        <time>2018-09-30T08:17:09Z</time>
      </trkpt>
      <trkpt lat="40.507338" lon="0.290715">
        <ele>258.229</ele>
        <time>2018-09-30T08:17:18Z</time>
      </trkpt>
      <trkpt lat="40.507162" lon="0.290709">
        <ele>258.743</ele>
        <time>2018-09-30T08:17:24Z</time>
      </trkpt>
      <trkpt lat="40.506916" lon="0.290680">
        <ele>258.741</ele>
        <time>2018-09-30T08:17:32Z</time>
      </trkpt>
      <trkpt lat="40.506897" lon="0.290710">
        <ele>259.659</ele>
        <time>2018-09-30T08:17:33Z</time>
      </trkpt>
      <trkpt lat="40.506882" lon="0.290744">
        <ele>259.662</ele>
        <time>2018-09-30T08:17:34Z</time>
      </trkpt>
      <trkpt lat="40.506871" lon="0.290787">
        <ele>259.611</ele>
        <time>2018-09-30T08:17:35Z</time>
      </trkpt>
      <trkpt lat="40.506867" lon="0.290828">
        <ele>259.632</ele>
        <time>2018-09-30T08:17:36Z</time>
      </trkpt>
      <trkpt lat="40.506866" lon="0.290871">
        <ele>259.635</ele>
        <time>2018-09-30T08:17:37Z</time>
      </trkpt>
      <trkpt lat="40.506867" lon="0.290916">
        <ele>259.686</ele>
        <time>2018-09-30T08:17:38Z</time>
      </trkpt>
      <trkpt lat="40.506865" lon="0.290952">
        <ele>259.614</ele>
        <time>2018-09-30T08:17:39Z</time>
      </trkpt>
      <trkpt lat="40.506864" lon="0.290991">
        <ele>259.608</ele>
        <time>2018-09-30T08:17:40Z</time>
      </trkpt>
      <trkpt lat="40.506862" lon="0.291027">
        <ele>259.646</ele>
        <time>2018-09-30T08:17:41Z</time>
      </trkpt>
      <trkpt lat="40.506798" lon="0.291216">
        <ele>259.273</ele>
        <time>2018-09-30T08:17:47Z</time>
      </trkpt>
      <trkpt lat="40.506684" lon="0.291384">
        <ele>259.277</ele>
        <time>2018-09-30T08:17:53Z</time>
      </trkpt>
      <trkpt lat="40.506620" lon="0.291586">
        <ele>259.685</ele>
        <time>2018-09-30T08:18:00Z</time>
      </trkpt>
      <trkpt lat="40.506553" lon="0.291889">
        <ele>262.133</ele>
        <time>2018-09-30T08:18:10Z</time>
      </trkpt>
      <trkpt lat="40.506487" lon="0.292135">
        <ele>264.096</ele>
        <time>2018-09-30T08:18:19Z</time>
      </trkpt>
      <trkpt lat="40.506452" lon="0.292325">
        <ele>266.425</ele>
        <time>2018-09-30T08:18:26Z</time>
      </trkpt>
      <trkpt lat="40.506434" lon="0.292377">
        <ele>267.336</ele>
        <time>2018-09-30T08:18:28Z</time>
      </trkpt>
      <trkpt lat="40.506423" lon="0.292479">
        <ele>268.852</ele>
        <time>2018-09-30T08:18:34Z</time>
      </trkpt>
      <trkpt lat="40.506416" lon="0.292524">
        <ele>269.753</ele>
        <time>2018-09-30T08:18:42Z</time>
      </trkpt>
      <trkpt lat="40.506411" lon="0.292543">
        <ele>270.208</ele>
        <time>2018-09-30T08:18:48Z</time>
      </trkpt>
      <trkpt lat="40.506407" lon="0.292568">
        <ele>270.708</ele>
        <time>2018-09-30T08:18:54Z</time>
      </trkpt>
      <trkpt lat="40.506407" lon="0.292609">
        <ele>272.118</ele>
        <time>2018-09-30T08:19:00Z</time>
      </trkpt>
      <trkpt lat="40.506394" lon="0.292687">
        <ele>273.675</ele>
        <time>2018-09-30T08:19:09Z</time>
      </trkpt>
      <trkpt lat="40.506380" lon="0.292771">
        <ele>275.099</ele>
        <time>2018-09-30T08:19:18Z</time>
      </trkpt>
      <trkpt lat="40.506361" lon="0.292840">
        <ele>276.077</ele>
        <time>2018-09-30T08:19:26Z</time>
      </trkpt>
      <trkpt lat="40.506352" lon="0.292947">
        <ele>277.025</ele>
        <time>2018-09-30T08:19:35Z</time>
      </trkpt>
      <trkpt lat="40.506353" lon="0.293014">
        <ele>277.488</ele>
        <time>2018-09-30T08:19:43Z</time>
      </trkpt>
      <trkpt lat="40.506359" lon="0.293095">
        <ele>278.467</ele>
        <time>2018-09-30T08:19:50Z</time>
      </trkpt>
      <trkpt lat="40.506361" lon="0.293265">
        <ele>279.468</ele>
        <time>2018-09-30T08:19:58Z</time>
      </trkpt>
      <trkpt lat="40.506345" lon="0.293492">
        <ele>281.335</ele>
        <time>2018-09-30T08:20:07Z</time>
      </trkpt>
      <trkpt lat="40.506346" lon="0.293653">
        <ele>281.886</ele>
        <time>2018-09-30T08:20:13Z</time>
      </trkpt>
      <trkpt lat="40.506331" lon="0.293882">
        <ele>282.214</ele>
        <time>2018-09-30T08:20:21Z</time>
      </trkpt>
      <trkpt lat="40.506316" lon="0.294053">
        <ele>283.208</ele>
        <time>2018-09-30T08:20:27Z</time>
      </trkpt>
      <trkpt lat="40.506306" lon="0.294272">
        <ele>284.236</ele>
        <time>2018-09-30T08:20:35Z</time>
      </trkpt>
      <trkpt lat="40.506297" lon="0.294428">
        <ele>284.623</ele>
        <time>2018-09-30T08:20:41Z</time>
      </trkpt>
      <trkpt lat="40.506144" lon="0.294508">
        <ele>287.577</ele>
        <time>2018-11-10T23:14:55Z</time>
      </trkpt>
      <trkpt lat="40.506027" lon="0.294574">
        <ele>288.535</ele>
        <time>2018-11-10T23:15:15Z</time>
      </trkpt>
      <trkpt lat="40.505794" lon="0.294607">
        <ele>289.883</ele>
        <time>2018-11-10T23:15:35Z</time>
      </trkpt>
      <trkpt lat="40.505578" lon="0.294718">
        <ele>290.916</ele>
        <time>2018-11-10T23:15:55Z</time>
      </trkpt>
      <trkpt lat="40.505434" lon="0.294851">
        <ele>291.465</ele>
        <time>2018-11-10T23:16:15Z</time>
      </trkpt>
      <trkpt lat="40.505318" lon="0.295028">
        <ele>291.226</ele>
        <time>2018-11-10T23:16:35Z</time>
      </trkpt>
      <trkpt lat="40.505237" lon="0.295205">
        <ele>290.558</ele>
        <time>2018-11-10T23:16:55Z</time>
      </trkpt>
      <trkpt lat="40.505120" lon="0.295504">
        <ele>288.152</ele>
        <time>2018-11-10T23:17:15Z</time>
      </trkpt>
      <trkpt lat="40.504985" lon="0.295880">
        <ele>284.217</ele>
        <time>2018-11-10T23:17:35Z</time>
      </trkpt>
      <trkpt lat="40.504859" lon="0.296212">
        <ele>281.708</ele>
        <time>2018-11-10T23:17:55Z</time>
      </trkpt>
      <trkpt lat="40.504707" lon="0.296643">
        <ele>279.648</ele>
        <time>2018-11-10T23:18:15Z</time>
      </trkpt>
      <trkpt lat="40.504509" lon="0.297152">
        <ele>278.055</ele>
        <time>2018-11-10T23:18:35Z</time>
      </trkpt>
      <trkpt lat="40.504240" lon="0.297750">
        <ele>277.899</ele>
        <time>2018-11-10T23:18:55Z</time>
      </trkpt>
      <trkpt lat="40.504150" lon="0.298170">
        <ele>276.997</ele>
        <time>2018-11-10T23:19:15Z</time>
      </trkpt>
      <trkpt lat="40.503988" lon="0.298701">
        <ele>273.665</ele>
        <time>2018-11-10T23:19:35Z</time>
      </trkpt>
      <trkpt lat="40.503853" lon="0.299066">
        <ele>269.898</ele>
        <time>2018-11-10T23:19:55Z</time>
      </trkpt>
      <trkpt lat="40.503611" lon="0.299332">
        <ele>266.947</ele>
        <time>2018-11-10T23:20:15Z</time>
      </trkpt>
      <trkpt lat="40.503440" lon="0.299520">
        <ele>266.388</ele>
        <time>2018-11-10T23:20:35Z</time>
      </trkpt>
      <trkpt lat="40.503386" lon="0.299808">
        <ele>264.071</ele>
        <time>2018-11-10T23:20:55Z</time>
      </trkpt>
      <trkpt lat="40.503332" lon="0.300118">
        <ele>263.141</ele>
        <time>2018-11-10T23:21:15Z</time>
      </trkpt>
      <trkpt lat="40.503521" lon="0.299786">
        <ele>265.115</ele>
        <time>2018-11-10T23:21:35Z</time>
      </trkpt>
      <trkpt lat="40.503710" lon="0.299443">
        <ele>267.108</ele>
        <time>2018-11-10T23:21:55Z</time>
      </trkpt>
      <trkpt lat="40.503808" lon="0.299288">
        <ele>268.060</ele>
        <time>2018-11-10T23:22:15Z</time>
      </trkpt>
      <trkpt lat="40.503943" lon="0.298945">
        <ele>271.167</ele>
        <time>2018-11-10T23:22:35Z</time>
      </trkpt>
      <trkpt lat="40.504069" lon="0.298657">
        <ele>273.781</ele>
        <time>2018-11-10T23:22:55Z</time>
      </trkpt>
      <trkpt lat="40.504257" lon="0.298215">
        <ele>274.849</ele>
        <time>2018-11-10T23:23:15Z</time>
      </trkpt>
      <trkpt lat="40.504374" lon="0.297849">
        <ele>275.527</ele>
        <time>2018-11-10T23:23:35Z</time>
      </trkpt>
      <trkpt lat="40.504491" lon="0.297473">
        <ele>276.040</ele>
        <time>2018-11-10T23:23:55Z</time>
      </trkpt>
      <trkpt lat="40.504608" lon="0.297075">
        <ele>277.879</ele>
        <time>2018-11-10T23:24:15Z</time>
      </trkpt>
      <trkpt lat="40.504725" lon="0.296743">
        <ele>279.030</ele>
        <time>2018-11-10T23:24:35Z</time>
      </trkpt>
      <trkpt lat="40.504895" lon="0.296289">
        <ele>281.349</ele>
        <time>2018-11-10T23:24:55Z</time>
      </trkpt>
      <trkpt lat="40.505048" lon="0.295913">
        <ele>284.302</ele>
        <time>2018-11-10T23:25:15Z</time>
      </trkpt>
      <trkpt lat="40.505183" lon="0.295592">
        <ele>287.722</ele>
        <time>2018-11-10T23:25:35Z</time>
      </trkpt>
      <trkpt lat="40.505353" lon="0.295260">
        <ele>290.508</ele>
        <time>2018-11-10T23:25:55Z</time>
      </trkpt>
      <trkpt lat="40.505587" lon="0.294851">
        <ele>290.867</ele>
        <time>2018-11-10T23:26:15Z</time>
      </trkpt>
      <trkpt lat="40.505874" lon="0.294685">
        <ele>289.534</ele>
        <time>2018-11-10T23:26:35Z</time>
      </trkpt>
      <trkpt lat="40.506150" lon="0.294561">
        <ele>287.588</ele>
        <time>2018-11-10T23:26:55Z</time>
      </trkpt>
      <trkpt lat="40.506257" lon="0.294515">
        <ele>286.216</ele>
        <time>2018-11-10T23:27:15Z</time>
      </trkpt>
      <trkpt lat="40.506306" lon="0.294492">
        <ele>284.614</ele>
        <time>2018-09-30T08:20:42Z</time>
      </trkpt>
      <trkpt lat="40.506325" lon="0.294485">
        <ele>285.177</ele>
        <time>2018-09-30T08:20:45Z</time>
      </trkpt>
      <trkpt lat="40.506469" lon="0.294481">
        <ele>285.166</ele>
        <time>2018-09-30T08:20:51Z</time>
      </trkpt>
      <trkpt lat="40.506690" lon="0.294461">
        <ele>282.267</ele>
        <time>2018-09-30T08:20:55Z</time>
      </trkpt>
      <trkpt lat="40.507102" lon="0.294425">
        <ele>278.947</ele>
        <time>2018-09-30T08:21:00Z</time>
      </trkpt>
      <trkpt lat="40.507489" lon="0.294403">
        <ele>276.029</ele>
        <time>2018-09-30T08:21:04Z</time>
      </trkpt>
      <trkpt lat="40.507804" lon="0.294417">
        <ele>273.621</ele>
        <time>2018-09-30T08:21:07Z</time>
      </trkpt>
      <trkpt lat="40.508340" lon="0.294520">
        <ele>273.108</ele>
        <time>2018-09-30T08:21:13Z</time>
      </trkpt>
      <trkpt lat="40.508857" lon="0.294670">
        <ele>272.127</ele>
        <time>2018-09-30T08:21:20Z</time>
      </trkpt>
      <trkpt lat="40.509302" lon="0.294778">
        <ele>268.324</ele>
        <time>2018-09-30T08:21:26Z</time>
      </trkpt>
      <trkpt lat="40.509723" lon="0.294840">
        <ele>267.318</ele>
        <time>2018-09-30T08:21:31Z</time>
      </trkpt>
      <trkpt lat="40.509803" lon="0.294829">
        <ele>267.376</ele>
        <time>2018-09-30T08:21:32Z</time>
      </trkpt>
      <trkpt lat="40.510134" lon="0.294752">
        <ele>265.934</ele>
        <time>2018-09-30T08:21:36Z</time>
      </trkpt>
      <trkpt lat="40.510218" lon="0.294708">
        <ele>264.977</ele>
        <time>2018-09-30T08:21:37Z</time>
      </trkpt>
      <trkpt lat="40.510294" lon="0.294649">
        <ele>264.536</ele>
        <time>2018-09-30T08:21:38Z</time>
      </trkpt>
      <trkpt lat="40.510364" lon="0.294570">
        <ele>264.097</ele>
        <time>2018-09-30T08:21:39Z</time>
      </trkpt>
      <trkpt lat="40.510425" lon="0.294489">
        <ele>263.031</ele>
        <time>2018-09-30T08:21:40Z</time>
      </trkpt>
      <trkpt lat="40.510488" lon="0.294401">
        <ele>262.561</ele>
        <time>2018-09-30T08:21:41Z</time>
      </trkpt>
      <trkpt lat="40.510818" lon="0.293945">
        <ele>259.207</ele>
        <time>2018-09-30T08:21:46Z</time>
      </trkpt>
      <trkpt lat="40.511100" lon="0.293559">
        <ele>255.808</ele>
        <time>2018-09-30T08:21:50Z</time>
      </trkpt>
      <trkpt lat="40.511472" lon="0.293077">
        <ele>252.426</ele>
        <time>2018-09-30T08:21:55Z</time>
      </trkpt>
      <trkpt lat="40.511554" lon="0.293005">
        <ele>252.033</ele>
        <time>2018-09-30T08:21:56Z</time>
      </trkpt>
      <trkpt lat="40.511649" lon="0.292947">
        <ele>251.027</ele>
        <time>2018-09-30T08:21:57Z</time>
      </trkpt>
      <trkpt lat="40.511743" lon="0.292908">
        <ele>250.545</ele>
        <time>2018-09-30T08:21:58Z</time>
      </trkpt>
      <trkpt lat="40.511841" lon="0.292876">
        <ele>250.533</ele>
        <time>2018-09-30T08:21:59Z</time>
      </trkpt>
      <trkpt lat="40.511934" lon="0.292849">
        <ele>249.616</ele>
        <time>2018-09-30T08:22:00Z</time>
      </trkpt>
      <trkpt lat="40.512752" lon="0.292639">
        <ele>246.765</ele>
        <time>2018-09-30T08:22:09Z</time>
      </trkpt>
      <trkpt lat="40.513446" lon="0.292462">
        <ele>245.766</ele>
        <time>2018-09-30T08:22:18Z</time>
      </trkpt>
      <trkpt lat="40.513919" lon="0.292336">
        <ele>245.228</ele>
        <time>2018-09-30T08:22:26Z</time>
      </trkpt>
      <trkpt lat="40.514422" lon="0.292218">
        <ele>247.289</ele>
        <time>2018-09-30T08:22:36Z</time>
      </trkpt>
      <trkpt lat="40.514869" lon="0.292174">
        <ele>249.617</ele>
        <time>2018-09-30T08:22:45Z</time>
      </trkpt>
      <trkpt lat="40.515378" lon="0.292036">
        <ele>248.108</ele>
        <time>2018-09-30T08:22:55Z</time>
      </trkpt>
      <trkpt lat="40.515432" lon="0.292021">
        <ele>248.185</ele>
        <time>2018-09-30T08:22:56Z</time>
      </trkpt>
      <trkpt lat="40.515878" lon="0.291900">
        <ele>247.682</ele>
        <time>2018-09-30T08:23:05Z</time>
      </trkpt>
      <trkpt lat="40.516230" lon="0.291802">
        <ele>245.216</ele>
        <time>2018-09-30T08:23:11Z</time>
      </trkpt>
      <trkpt lat="40.516552" lon="0.291613">
        <ele>241.984</ele>
        <time>2018-09-30T08:23:15Z</time>
      </trkpt>
      <trkpt lat="40.516819" lon="0.291442">
        <ele>238.042</ele>
        <time>2018-09-30T08:23:18Z</time>
      </trkpt>
      <trkpt lat="40.516926" lon="0.291402">
        <ele>237.195</ele>
        <time>2018-09-30T08:23:19Z</time>
      </trkpt>
      <trkpt lat="40.517037" lon="0.291394">
        <ele>234.764</ele>
        <time>2018-09-30T08:23:20Z</time>
      </trkpt>
      <trkpt lat="40.517145" lon="0.291417">
        <ele>233.745</ele>
        <time>2018-09-30T08:23:21Z</time>
      </trkpt>
      <trkpt lat="40.517257" lon="0.291468">
        <ele>232.367</ele>
        <time>2018-09-30T08:23:22Z</time>
      </trkpt>
      <trkpt lat="40.517354" lon="0.291531">
        <ele>231.881</ele>
        <time>2018-09-30T08:23:23Z</time>
      </trkpt>
      <trkpt lat="40.517462" lon="0.291608">
        <ele>230.819</ele>
        <time>2018-09-30T08:23:24Z</time>
      </trkpt>
      <trkpt lat="40.518133" lon="0.292063">
        <ele>227.908</ele>
        <time>2018-09-30T08:23:31Z</time>
      </trkpt>
      <trkpt lat="40.518554" lon="0.292237">
        <ele>227.919</ele>
        <time>2018-09-30T08:23:36Z</time>
      </trkpt>
      <trkpt lat="40.518704" lon="0.292259">
        <ele>227.966</ele>
        <time>2018-09-30T08:23:38Z</time>
      </trkpt>
      <trkpt lat="40.518774" lon="0.292252">
        <ele>227.910</ele>
        <time>2018-09-30T08:23:39Z</time>
      </trkpt>
      <trkpt lat="40.519009" lon="0.292184">
        <ele>229.438</ele>
        <time>2018-09-30T08:23:44Z</time>
      </trkpt>
      <trkpt lat="40.519273" lon="0.292052">
        <ele>232.766</ele>
        <time>2018-09-30T08:23:52Z</time>
      </trkpt>
      <trkpt lat="40.519524" lon="0.291917">
        <ele>236.149</ele>
        <time>2018-09-30T08:24:00Z</time>
      </trkpt>
      <trkpt lat="40.519774" lon="0.291817">
        <ele>238.598</ele>
        <time>2018-09-30T08:24:08Z</time>
      </trkpt>
      <trkpt lat="40.519804" lon="0.291802">
        <ele>238.589</ele>
        <time>2018-09-30T08:24:09Z</time>
      </trkpt>
      <trkpt lat="40.520157" lon="0.291598">
        <ele>241.997</ele>
        <time>2018-09-30T08:24:21Z</time>
      </trkpt>
      <trkpt lat="40.520432" lon="0.291423">
        <ele>244.723</ele>
        <time>2018-09-30T08:24:31Z</time>
      </trkpt>
      <trkpt lat="40.520656" lon="0.291276">
        <ele>247.625</ele>
        <time>2018-09-30T08:24:39Z</time>
      </trkpt>
      <trkpt lat="40.520901" lon="0.291119">
        <ele>251.008</ele>
        <time>2018-09-30T08:24:48Z</time>
      </trkpt>
      <trkpt lat="40.520927" lon="0.291105">
        <ele>251.032</ele>
        <time>2018-09-30T08:24:49Z</time>
      </trkpt>
      <trkpt lat="40.521003" lon="0.290982">
        <ele>252.039</ele>
        <time>2018-09-30T08:24:54Z</time>
      </trkpt>
      <trkpt lat="40.520979" lon="0.290786">
        <ele>252.453</ele>
        <time>2018-09-30T08:25:00Z</time>
      </trkpt>
      <trkpt lat="40.520843" lon="0.290443">
        <ele>251.061</ele>
        <time>2018-09-30T08:25:08Z</time>
      </trkpt>
      <trkpt lat="40.520752" lon="0.290183">
        <ele>249.649</ele>
        <time>2018-09-30T08:25:15Z</time>
      </trkpt>
      <trkpt lat="40.520762" lon="0.290157">
        <ele>249.192</ele>
        <time>2018-09-30T08:25:16Z</time>
      </trkpt>
      <trkpt lat="40.520839" lon="0.290116">
        <ele>249.121</ele>
        <time>2018-09-30T08:25:19Z</time>
      </trkpt>
      <trkpt lat="40.521044" lon="0.290046">
        <ele>251.572</ele>
        <time>2018-09-30T08:25:26Z</time>
      </trkpt>
      <trkpt lat="40.521063" lon="0.290054">
        <ele>251.572</ele>
        <time>2018-09-30T08:25:27Z</time>
      </trkpt>
      <trkpt lat="40.521080" lon="0.290073">
        <ele>252.013</ele>
        <time>2018-09-30T08:25:28Z</time>
      </trkpt>
      <trkpt lat="40.521101" lon="0.290104">
        <ele>252.414</ele>
        <time>2018-09-30T08:25:29Z</time>
      </trkpt>
      <trkpt lat="40.521110" lon="0.290134">
        <ele>252.408</ele>
        <time>2018-09-30T08:25:30Z</time>
      </trkpt>
      <trkpt lat="40.521122" lon="0.290171">
        <ele>253.470</ele>
        <time>2018-09-30T08:25:31Z</time>
      </trkpt>
      <trkpt lat="40.521137" lon="0.290208">
        <ele>253.987</ele>
        <time>2018-09-30T08:25:32Z</time>
      </trkpt>
      <trkpt lat="40.521280" lon="0.290511">
        <ele>256.351</ele>
        <time>2018-09-30T08:25:42Z</time>
      </trkpt>
      <trkpt lat="40.521392" lon="0.290671">
        <ele>257.739</ele>
        <time>2018-09-30T08:25:49Z</time>
      </trkpt>
      <trkpt lat="40.521472" lon="0.290701">
        <ele>259.227</ele>
        <time>2018-09-30T08:25:53Z</time>
      </trkpt>
      <trkpt lat="40.521489" lon="0.290694">
        <ele>259.220</ele>
        <time>2018-09-30T08:25:54Z</time>
      </trkpt>
      <trkpt lat="40.521659" lon="0.290584">
        <ele>262.169</ele>
        <time>2018-09-30T08:26:02Z</time>
      </trkpt>
      <trkpt lat="40.521817" lon="0.290442">
        <ele>263.060</ele>
        <time>2018-09-30T08:26:11Z</time>
      </trkpt>
      <trkpt lat="40.521879" lon="0.290337">
        <ele>263.589</ele>
        <time>2018-09-30T08:26:18Z</time>
      </trkpt>
      <trkpt lat="40.521882" lon="0.290308">
        <ele>263.506</ele>
        <time>2018-09-30T08:26:19Z</time>
      </trkpt>
      <trkpt lat="40.521882" lon="0.290287">
        <ele>263.526</ele>
        <time>2018-09-30T08:26:20Z</time>
      </trkpt>
      <trkpt lat="40.521881" lon="0.290258">
        <ele>263.508</ele>
        <time>2018-09-30T08:26:21Z</time>
      </trkpt>
      <trkpt lat="40.521886" lon="0.290228">
        <ele>264.091</ele>
        <time>2018-09-30T08:26:22Z</time>
      </trkpt>
      <trkpt lat="40.521903" lon="0.290201">
        <ele>264.078</ele>
        <time>2018-09-30T08:26:23Z</time>
      </trkpt>
      <trkpt lat="40.521926" lon="0.290192">
        <ele>264.022</ele>
        <time>2018-09-30T08:26:24Z</time>
      </trkpt>
      <trkpt lat="40.521946" lon="0.290199">
        <ele>264.570</ele>
        <time>2018-09-30T08:26:25Z</time>
      </trkpt>
      <trkpt lat="40.521970" lon="0.290218">
        <ele>264.528</ele>
        <time>2018-09-30T08:26:26Z</time>
      </trkpt>
      <trkpt lat="40.521989" lon="0.290242">
        <ele>264.921</ele>
        <time>2018-09-30T08:26:27Z</time>
      </trkpt>
      <trkpt lat="40.521998" lon="0.290263">
        <ele>264.950</ele>
        <time>2018-09-30T08:26:28Z</time>
      </trkpt>
      <trkpt lat="40.522012" lon="0.290283">
        <ele>265.911</ele>
        <time>2018-09-30T08:26:29Z</time>
      </trkpt>
      <trkpt lat="40.522037" lon="0.290301">
        <ele>266.468</ele>
        <time>2018-09-30T08:26:30Z</time>
      </trkpt>
      <trkpt lat="40.522065" lon="0.290305">
        <ele>266.442</ele>
        <time>2018-09-30T08:26:31Z</time>
      </trkpt>
      <trkpt lat="40.522096" lon="0.290295">
        <ele>266.926</ele>
        <time>2018-09-30T08:26:32Z</time>
      </trkpt>
      <trkpt lat="40.522114" lon="0.290283">
        <ele>266.908</ele>
        <time>2018-09-30T08:26:33Z</time>
      </trkpt>
      <trkpt lat="40.522138" lon="0.290263">
        <ele>267.829</ele>
        <time>2018-09-30T08:26:34Z</time>
      </trkpt>
      <trkpt lat="40.522163" lon="0.290242">
        <ele>267.896</ele>
        <time>2018-09-30T08:26:35Z</time>
      </trkpt>
      <trkpt lat="40.522408" lon="0.290025">
        <ele>269.380</ele>
        <time>2018-09-30T08:26:45Z</time>
      </trkpt>
      <trkpt lat="40.522659" lon="0.289876">
        <ele>269.758</ele>
        <time>2018-09-30T08:26:54Z</time>
      </trkpt>
      <trkpt lat="40.522975" lon="0.289688">
        <ele>270.796</ele>
        <time>2018-09-30T08:27:05Z</time>
      </trkpt>
      <trkpt lat="40.523245" lon="0.289438">
        <ele>272.699</ele>
        <time>2018-09-30T08:27:15Z</time>
      </trkpt>
      <trkpt lat="40.523450" lon="0.289254">
        <ele>273.198</ele>
        <time>2018-09-30T08:27:23Z</time>
      </trkpt>
      <trkpt lat="40.523627" lon="0.289091">
        <ele>273.659</ele>
        <time>2018-09-30T08:27:31Z</time>
      </trkpt>
      <trkpt lat="40.523674" lon="0.288862">
        <ele>273.664</ele>
        <time>2018-09-30T08:27:37Z</time>
      </trkpt>
      <trkpt lat="40.523645" lon="0.288598">
        <ele>273.606</ele>
        <time>2018-09-30T08:27:42Z</time>
      </trkpt>
      <trkpt lat="40.523651" lon="0.288087">
        <ele>271.716</ele>
        <time>2018-09-30T08:27:51Z</time>
      </trkpt>
      <trkpt lat="40.523652" lon="0.288025">
        <ele>271.708</ele>
        <time>2018-09-30T08:27:52Z</time>
      </trkpt>
      <trkpt lat="40.523656" lon="0.287385">
        <ele>270.279</ele>
        <time>2018-09-30T08:28:02Z</time>
      </trkpt>
      <trkpt lat="40.523655" lon="0.287112">
        <ele>269.336</ele>
        <time>2018-09-30T08:28:06Z</time>
      </trkpt>
      <trkpt lat="40.523757" lon="0.286753">
        <ele>268.330</ele>
        <time>2018-09-30T08:28:12Z</time>
      </trkpt>
      <trkpt lat="40.523845" lon="0.286451">
        <ele>268.318</ele>
        <time>2018-09-30T08:28:18Z</time>
      </trkpt>
      <trkpt lat="40.523850" lon="0.286344">
        <ele>269.726</ele>
        <time>2018-09-30T08:28:20Z</time>
      </trkpt>
      <trkpt lat="40.523842" lon="0.285929">
        <ele>272.179</ele>
        <time>2018-09-30T08:28:28Z</time>
      </trkpt>
      <trkpt lat="40.523826" lon="0.285530">
        <ele>274.198</ele>
        <time>2018-09-30T08:28:37Z</time>
      </trkpt>
      <trkpt lat="40.523850" lon="0.285454">
        <ele>274.529</ele>
        <time>2018-09-30T08:28:39Z</time>
      </trkpt>
      <trkpt lat="40.523964" lon="0.285401">
        <ele>276.088</ele>
        <time>2018-09-30T08:28:43Z</time>
      </trkpt>
      <trkpt lat="40.524000" lon="0.285397">
        <ele>275.524</ele>
        <time>2018-09-30T08:28:44Z</time>
      </trkpt>
      <trkpt lat="40.524026" lon="0.285390">
        <ele>275.526</ele>
        <time>2018-09-30T08:28:45Z</time>
      </trkpt>
      <trkpt lat="40.524060" lon="0.285373">
        <ele>275.508</ele>
        <time>2018-09-30T08:28:46Z</time>
      </trkpt>
      <trkpt lat="40.524090" lon="0.285350">
        <ele>275.521</ele>
        <time>2018-09-30T08:28:47Z</time>
      </trkpt>
      <trkpt lat="40.524122" lon="0.285318">
        <ele>275.548</ele>
        <time>2018-09-30T08:28:48Z</time>
      </trkpt>
      <trkpt lat="40.524149" lon="0.285285">
        <ele>276.012</ele>
        <time>2018-09-30T08:28:49Z</time>
      </trkpt>
      <trkpt lat="40.524178" lon="0.285242">
        <ele>276.070</ele>
        <time>2018-09-30T08:28:50Z</time>
      </trkpt>
      <trkpt lat="40.524200" lon="0.285205">
        <ele>276.038</ele>
        <time>2018-09-30T08:28:51Z</time>
      </trkpt>
      <trkpt lat="40.524224" lon="0.285158">
        <ele>276.021</ele>
        <time>2018-09-30T08:28:52Z</time>
      </trkpt>
      <trkpt lat="40.524357" lon="0.284767">
        <ele>275.020</ele>
        <time>2018-09-30T08:29:00Z</time>
      </trkpt>
      <trkpt lat="40.524370" lon="0.284715">
        <ele>275.061</ele>
        <time>2018-09-30T08:29:01Z</time>
      </trkpt>
      <trkpt lat="40.524495" lon="0.284232">
        <ele>274.574</ele>
        <time>2018-09-30T08:29:10Z</time>
      </trkpt>
      <trkpt lat="40.524589" lon="0.283886">
        <ele>274.556</ele>
        <time>2018-09-30T08:29:18Z</time>
      </trkpt>
      <trkpt lat="40.524644" lon="0.283704">
        <ele>276.021</ele>
        <time>2018-09-30T08:29:22Z</time>
      </trkpt>
      <trkpt lat="40.524740" lon="0.283361">
        <ele>277.408</ele>
        <time>2018-09-30T08:29:30Z</time>
      </trkpt>
      <trkpt lat="40.524806" lon="0.283025">
        <ele>280.310</ele>
        <time>2018-09-30T08:29:38Z</time>
      </trkpt>
      <trkpt lat="40.524853" lon="0.282637">
        <ele>283.797</ele>
        <time>2018-09-30T08:29:47Z</time>
      </trkpt>
      <trkpt lat="40.524893" lon="0.282135">
        <ele>285.641</ele>
        <time>2018-09-30T08:29:59Z</time>
      </trkpt>
      <trkpt lat="40.524946" lon="0.281743">
        <ele>287.099</ele>
        <time>2018-09-30T08:30:09Z</time>
      </trkpt>
      <trkpt lat="40.525046" lon="0.281336">
        <ele>289.017</ele>
        <time>2018-09-30T08:30:20Z</time>
      </trkpt>
      <trkpt lat="40.525149" lon="0.280998">
        <ele>291.410</ele>
        <time>2018-09-30T08:30:29Z</time>
      </trkpt>
      <trkpt lat="40.525252" lon="0.280658">
        <ele>293.849</ele>
        <time>2018-09-30T08:30:38Z</time>
      </trkpt>
      <trkpt lat="40.525315" lon="0.280299">
        <ele>295.280</ele>
        <time>2018-09-30T08:30:47Z</time>
      </trkpt>
      <trkpt lat="40.525297" lon="0.279893">
        <ele>295.735</ele>
        <time>2018-09-30T08:30:56Z</time>
      </trkpt>
      <trkpt lat="40.525219" lon="0.279588">
        <ele>295.786</ele>
        <time>2018-09-30T08:31:03Z</time>
      </trkpt>
      <trkpt lat="40.525138" lon="0.279157">
        <ele>295.714</ele>
        <time>2018-09-30T08:31:12Z</time>
      </trkpt>
      <trkpt lat="40.525108" lon="0.278816">
        <ele>295.708</ele>
        <time>2018-09-30T08:31:19Z</time>
      </trkpt>
      <trkpt lat="40.525089" lon="0.278752">
        <ele>295.716</ele>
        <time>2018-09-30T08:31:20Z</time>
      </trkpt>
      <trkpt lat="40.525067" lon="0.278697">
        <ele>295.713</ele>
        <time>2018-09-30T08:31:21Z</time>
      </trkpt>
      <trkpt lat="40.525040" lon="0.278644">
        <ele>295.757</ele>
        <time>2018-09-30T08:31:22Z</time>
      </trkpt>
      <trkpt lat="40.525008" lon="0.278594">
        <ele>295.725</ele>
        <time>2018-09-30T08:31:23Z</time>
      </trkpt>
      <trkpt lat="40.524978" lon="0.278551">
        <ele>294.743</ele>
        <time>2018-09-30T08:31:24Z</time>
      </trkpt>
      <trkpt lat="40.524942" lon="0.278504">
        <ele>294.736</ele>
        <time>2018-09-30T08:31:25Z</time>
      </trkpt>
      <trkpt lat="40.524790" lon="0.278353">
        <ele>294.315</ele>
        <time>2018-09-30T08:31:29Z</time>
      </trkpt>
      <trkpt lat="40.524667" lon="0.278268">
        <ele>294.356</ele>
        <time>2018-09-30T08:31:32Z</time>
      </trkpt>
      <trkpt lat="40.524550" lon="0.278163">
        <ele>293.865</ele>
        <time>2018-09-30T08:31:35Z</time>
      </trkpt>
      <trkpt lat="40.524301" lon="0.277835">
        <ele>294.368</ele>
        <time>2018-09-30T08:31:43Z</time>
      </trkpt>
      <trkpt lat="40.524284" lon="0.277790">
        <ele>294.314</ele>
        <time>2018-09-30T08:31:44Z</time>
      </trkpt>
      <trkpt lat="40.524268" lon="0.277733">
        <ele>294.308</ele>
        <time>2018-09-30T08:31:45Z</time>
      </trkpt>
      <trkpt lat="40.524260" lon="0.277682">
        <ele>294.359</ele>
        <time>2018-09-30T08:31:46Z</time>
      </trkpt>
      <trkpt lat="40.524259" lon="0.277624">
        <ele>294.356</ele>
        <time>2018-09-30T08:31:47Z</time>
      </trkpt>
      <trkpt lat="40.524262" lon="0.277570">
        <ele>294.320</ele>
        <time>2018-09-30T08:31:48Z</time>
      </trkpt>
      <trkpt lat="40.524271" lon="0.277521">
        <ele>294.388</ele>
        <time>2018-09-30T08:31:49Z</time>
      </trkpt>
      <trkpt lat="40.524285" lon="0.277475">
        <ele>294.346</ele>
        <time>2018-09-30T08:31:50Z</time>
      </trkpt>
      <trkpt lat="40.524306" lon="0.277419">
        <ele>294.359</ele>
        <time>2018-09-30T08:31:51Z</time>
      </trkpt>
      <trkpt lat="40.524498" lon="0.276925">
        <ele>292.838</ele>
        <time>2018-09-30T08:31:59Z</time>
      </trkpt>
      <trkpt lat="40.524654" lon="0.276313">
        <ele>290.939</ele>
        <time>2018-09-30T08:32:07Z</time>
      </trkpt>
      <trkpt lat="40.524755" lon="0.275829">
        <ele>289.928</ele>
        <time>2018-09-30T08:32:15Z</time>
      </trkpt>
      <trkpt lat="40.524877" lon="0.275204">
        <ele>290.489</ele>
        <time>2018-09-30T08:32:26Z</time>
      </trkpt>
      <trkpt lat="40.524986" lon="0.274776">
        <ele>291.417</ele>
        <time>2018-09-30T08:32:34Z</time>
      </trkpt>
      <trkpt lat="40.525186" lon="0.274348">
        <ele>293.308</ele>
        <time>2018-09-30T08:32:43Z</time>
      </trkpt>
      <trkpt lat="40.525393" lon="0.274169">
        <ele>294.375</ele>
        <time>2018-09-30T08:32:49Z</time>
      </trkpt>
      <trkpt lat="40.525428" lon="0.274148">
        <ele>294.362</ele>
        <time>2018-09-30T08:32:50Z</time>
      </trkpt>
      <trkpt lat="40.525463" lon="0.274118">
        <ele>292.856</ele>
        <time>2018-09-30T08:32:51Z</time>
      </trkpt>
      <trkpt lat="40.525480" lon="0.274085">
        <ele>292.884</ele>
        <time>2018-09-30T08:32:52Z</time>
      </trkpt>
      <trkpt lat="40.525474" lon="0.274047">
        <ele>292.882</ele>
        <time>2018-09-30T08:32:53Z</time>
      </trkpt>
      <trkpt lat="40.525446" lon="0.274016">
        <ele>291.995</ele>
        <time>2018-09-30T08:32:54Z</time>
      </trkpt>
      <trkpt lat="40.525402" lon="0.274003">
        <ele>291.954</ele>
        <time>2018-09-30T08:32:55Z</time>
      </trkpt>
      <trkpt lat="40.525353" lon="0.273996">
        <ele>290.925</ele>
        <time>2018-09-30T08:32:56Z</time>
      </trkpt>
      <trkpt lat="40.525264" lon="0.273975">
        <ele>289.926</ele>
        <time>2018-09-30T08:32:58Z</time>
      </trkpt>
      <trkpt lat="40.525225" lon="0.273953">
        <ele>289.047</ele>
        <time>2018-09-30T08:32:59Z</time>
      </trkpt>
      <trkpt lat="40.525196" lon="0.273923">
        <ele>288.011</ele>
        <time>2018-09-30T08:33:00Z</time>
      </trkpt>
      <trkpt lat="40.525184" lon="0.273879">
        <ele>287.008</ele>
        <time>2018-09-30T08:33:01Z</time>
      </trkpt>
      <trkpt lat="40.525195" lon="0.273827">
        <ele>286.625</ele>
        <time>2018-09-30T08:33:02Z</time>
      </trkpt>
      <trkpt lat="40.525230" lon="0.273781">
        <ele>285.672</ele>
        <time>2018-09-30T08:33:03Z</time>
      </trkpt>
      <trkpt lat="40.525287" lon="0.273740">
        <ele>284.686</ele>
        <time>2018-09-30T08:33:04Z</time>
      </trkpt>
      <trkpt lat="40.525340" lon="0.273706">
        <ele>284.234</ele>
        <time>2018-09-30T08:33:05Z</time>
      </trkpt>
      <trkpt lat="40.525398" lon="0.273659">
        <ele>284.242</ele>
        <time>2018-09-30T08:33:06Z</time>
      </trkpt>
      <trkpt lat="40.525578" lon="0.273462">
        <ele>281.865</ele>
        <time>2018-09-30T08:33:09Z</time>
      </trkpt>
      <trkpt lat="40.525636" lon="0.273373">
        <ele>280.854</ele>
        <time>2018-09-30T08:33:10Z</time>
      </trkpt>
      <trkpt lat="40.525687" lon="0.273284">
        <ele>280.325</ele>
        <time>2018-09-30T08:33:11Z</time>
      </trkpt>
      <trkpt lat="40.525842" lon="0.272980">
        <ele>278.454</ele>
        <time>2018-09-30T08:33:14Z</time>
      </trkpt>
      <trkpt lat="40.525884" lon="0.272883">
        <ele>277.956</ele>
        <time>2018-09-30T08:33:15Z</time>
      </trkpt>
      <trkpt lat="40.525918" lon="0.272779">
        <ele>277.911</ele>
        <time>2018-09-30T08:33:16Z</time>
      </trkpt>
      <trkpt lat="40.525942" lon="0.272675">
        <ele>277.008</ele>
        <time>2018-09-30T08:33:17Z</time>
      </trkpt>
      <trkpt lat="40.525958" lon="0.272577">
        <ele>277.438</ele>
        <time>2018-09-30T08:33:18Z</time>
      </trkpt>
      <trkpt lat="40.525966" lon="0.272475">
        <ele>276.535</ele>
        <time>2018-09-30T08:33:19Z</time>
      </trkpt>
      <trkpt lat="40.525967" lon="0.272383">
        <ele>276.599</ele>
        <time>2018-09-30T08:33:20Z</time>
      </trkpt>
      <trkpt lat="40.525963" lon="0.272289">
        <ele>276.557</ele>
        <time>2018-09-30T08:33:21Z</time>
      </trkpt>
      <trkpt lat="40.525955" lon="0.272209">
        <ele>276.525</ele>
        <time>2018-09-30T08:33:22Z</time>
      </trkpt>
      <trkpt lat="40.525847" lon="0.271658">
        <ele>277.068</ele>
        <time>2018-09-30T08:33:29Z</time>
      </trkpt>
      <trkpt lat="40.525818" lon="0.271528">
        <ele>277.057</ele>
        <time>2018-09-30T08:33:31Z</time>
      </trkpt>
      <trkpt lat="40.525734" lon="0.271164">
        <ele>278.478</ele>
        <time>2018-09-30T08:33:37Z</time>
      </trkpt>
      <trkpt lat="40.525613" lon="0.270709">
        <ele>280.877</ele>
        <time>2018-09-30T08:33:45Z</time>
      </trkpt>
      <trkpt lat="40.525598" lon="0.270651">
        <ele>281.361</ele>
        <time>2018-09-30T08:33:46Z</time>
      </trkpt>
      <trkpt lat="40.525587" lon="0.270599">
        <ele>281.327</ele>
        <time>2018-09-30T08:33:47Z</time>
      </trkpt>
      <trkpt lat="40.525542" lon="0.270377">
        <ele>282.208</ele>
        <time>2018-09-30T08:33:51Z</time>
      </trkpt>
      <trkpt lat="40.525476" lon="0.270166">
        <ele>281.810</ele>
        <time>2018-09-30T08:33:55Z</time>
      </trkpt>
      <trkpt lat="40.525417" lon="0.269807">
        <ele>282.277</ele>
        <time>2018-09-30T08:34:02Z</time>
      </trkpt>
      <trkpt lat="40.525404" lon="0.269495">
        <ele>283.721</ele>
        <time>2018-09-30T08:34:08Z</time>
      </trkpt>
      <trkpt lat="40.525411" lon="0.269448">
        <ele>283.759</ele>
        <time>2018-09-30T08:34:09Z</time>
      </trkpt>
      <trkpt lat="40.525541" lon="0.268991">
        <ele>285.137</ele>
        <time>2018-09-30T08:34:18Z</time>
      </trkpt>
      <trkpt lat="40.525558" lon="0.268944">
        <ele>285.610</ele>
        <time>2018-09-30T08:34:19Z</time>
      </trkpt>
      <trkpt lat="40.525646" lon="0.268701">
        <ele>286.629</ele>
        <time>2018-09-30T08:34:24Z</time>
      </trkpt>
      <trkpt lat="40.525655" lon="0.268651">
        <ele>286.650</ele>
        <time>2018-09-30T08:34:25Z</time>
      </trkpt>
      <trkpt lat="40.525658" lon="0.268596">
        <ele>286.689</ele>
        <time>2018-09-30T08:34:26Z</time>
      </trkpt>
      <trkpt lat="40.525657" lon="0.268544">
        <ele>287.006</ele>
        <time>2018-09-30T08:34:27Z</time>
      </trkpt>
      <trkpt lat="40.525648" lon="0.268489">
        <ele>287.026</ele>
        <time>2018-09-30T08:34:28Z</time>
      </trkpt>
      <trkpt lat="40.525637" lon="0.268437">
        <ele>287.008</ele>
        <time>2018-09-30T08:34:29Z</time>
      </trkpt>
      <trkpt lat="40.525623" lon="0.268383">
        <ele>287.031</ele>
        <time>2018-09-30T08:34:30Z</time>
      </trkpt>
      <trkpt lat="40.525609" lon="0.268331">
        <ele>287.048</ele>
        <time>2018-09-30T08:34:31Z</time>
      </trkpt>
      <trkpt lat="40.525599" lon="0.268276">
        <ele>287.032</ele>
        <time>2018-09-30T08:34:32Z</time>
      </trkpt>
      <trkpt lat="40.525591" lon="0.268223">
        <ele>287.020</ele>
        <time>2018-09-30T08:34:33Z</time>
      </trkpt>
      <trkpt lat="40.525554" lon="0.268000">
        <ele>287.058</ele>
        <time>2018-09-30T08:34:37Z</time>
      </trkpt>
      <trkpt lat="40.525493" lon="0.267788">
        <ele>287.051</ele>
        <time>2018-09-30T08:34:41Z</time>
      </trkpt>
      <trkpt lat="40.525482" lon="0.267733">
        <ele>287.020</ele>
        <time>2018-09-30T08:34:42Z</time>
      </trkpt>
      <trkpt lat="40.525450" lon="0.267118">
        <ele>289.091</ele>
        <time>2018-09-30T08:34:53Z</time>
      </trkpt>
      <trkpt lat="40.525487" lon="0.266776">
        <ele>289.951</ele>
        <time>2018-09-30T08:34:59Z</time>
      </trkpt>
      <trkpt lat="40.525487" lon="0.266716">
        <ele>289.901</ele>
        <time>2018-09-30T08:35:00Z</time>
      </trkpt>
      <trkpt lat="40.525480" lon="0.266663">
        <ele>289.911</ele>
        <time>2018-09-30T08:35:01Z</time>
      </trkpt>
      <trkpt lat="40.525465" lon="0.266609">
        <ele>290.408</ele>
        <time>2018-09-30T08:35:02Z</time>
      </trkpt>
      <trkpt lat="40.525444" lon="0.266561">
        <ele>290.498</ele>
        <time>2018-09-30T08:35:03Z</time>
      </trkpt>
      <trkpt lat="40.525413" lon="0.266515">
        <ele>290.445</ele>
        <time>2018-09-30T08:35:04Z</time>
      </trkpt>
      <trkpt lat="40.525380" lon="0.266471">
        <ele>290.499</ele>
        <time>2018-09-30T08:35:05Z</time>
      </trkpt>
      <trkpt lat="40.525223" lon="0.266220">
        <ele>287.037</ele>
        <time>2018-09-30T08:35:09Z</time>
      </trkpt>
      <trkpt lat="40.524936" lon="0.265591">
        <ele>285.665</ele>
        <time>2018-09-30T08:35:17Z</time>
      </trkpt>
      <trkpt lat="40.524790" lon="0.265234">
        <ele>285.118</ele>
        <time>2018-09-30T08:35:22Z</time>
      </trkpt>
      <trkpt lat="40.524774" lon="0.265152">
        <ele>284.297</ele>
        <time>2018-09-30T08:35:23Z</time>
      </trkpt>
      <trkpt lat="40.524767" lon="0.265087">
        <ele>284.238</ele>
        <time>2018-09-30T08:35:24Z</time>
      </trkpt>
      <trkpt lat="40.524737" lon="0.264642">
        <ele>284.244</ele>
        <time>2018-09-30T08:35:30Z</time>
      </trkpt>
      <trkpt lat="40.524624" lon="0.263955">
        <ele>284.205</ele>
        <time>2018-09-30T08:35:40Z</time>
      </trkpt>
      <trkpt lat="40.524577" lon="0.263757">
        <ele>285.115</ele>
        <time>2018-09-30T08:35:43Z</time>
      </trkpt>
      <trkpt lat="40.524492" lon="0.263494">
        <ele>286.608</ele>
        <time>2018-09-30T08:35:47Z</time>
      </trkpt>
      <trkpt lat="40.524464" lon="0.263442">
        <ele>287.027</ele>
        <time>2018-09-30T08:35:48Z</time>
      </trkpt>
      <trkpt lat="40.524428" lon="0.263385">
        <ele>287.024</ele>
        <time>2018-09-30T08:35:49Z</time>
      </trkpt>
      <trkpt lat="40.524358" lon="0.263283">
        <ele>287.598</ele>
        <time>2018-09-30T08:35:51Z</time>
      </trkpt>
      <trkpt lat="40.524329" lon="0.263239">
        <ele>287.586</ele>
        <time>2018-09-30T08:35:52Z</time>
      </trkpt>
      <trkpt lat="40.524294" lon="0.263182">
        <ele>287.524</ele>
        <time>2018-09-30T08:35:53Z</time>
      </trkpt>
      <trkpt lat="40.524060" lon="0.262689">
        <ele>287.587</ele>
        <time>2018-09-30T08:36:02Z</time>
      </trkpt>
      <trkpt lat="40.524006" lon="0.262582">
        <ele>287.596</ele>
        <time>2018-09-30T08:36:04Z</time>
      </trkpt>
      <trkpt lat="40.523988" lon="0.262517">
        <ele>287.547</ele>
        <time>2018-09-30T08:36:05Z</time>
      </trkpt>
      <trkpt lat="40.523976" lon="0.262439">
        <ele>286.159</ele>
        <time>2018-09-30T08:36:06Z</time>
      </trkpt>
      <trkpt lat="40.523932" lon="0.262027">
        <ele>284.203</ele>
        <time>2018-09-30T08:36:11Z</time>
      </trkpt>
      <trkpt lat="40.523912" lon="0.261855">
        <ele>287.023</ele>
        <time>2018-09-30T08:36:14Z</time>
      </trkpt>
      <trkpt lat="40.523900" lon="0.261809">
        <ele>287.008</ele>
        <time>2018-09-30T08:36:15Z</time>
      </trkpt>
      <trkpt lat="40.523878" lon="0.261752">
        <ele>288.018</ele>
        <time>2018-09-30T08:36:16Z</time>
      </trkpt>
      <trkpt lat="40.523840" lon="0.261655">
        <ele>288.595</ele>
        <time>2018-09-30T08:36:18Z</time>
      </trkpt>
      <trkpt lat="40.523790" lon="0.261328">
        <ele>289.949</ele>
        <time>2018-09-30T08:36:24Z</time>
      </trkpt>
      <trkpt lat="40.523778" lon="0.261265">
        <ele>289.987</ele>
        <time>2018-09-30T08:36:25Z</time>
      </trkpt>
      <trkpt lat="40.523696" lon="0.260787">
        <ele>291.495</ele>
        <time>2018-09-30T08:36:34Z</time>
      </trkpt>
      <trkpt lat="40.523625" lon="0.260399">
        <ele>292.838</ele>
        <time>2018-09-30T08:36:42Z</time>
      </trkpt>
      <trkpt lat="40.523590" lon="0.259936">
        <ele>293.317</ele>
        <time>2018-09-30T08:36:51Z</time>
      </trkpt>
      <trkpt lat="40.523506" lon="0.259586">
        <ele>295.788</ele>
        <time>2018-09-30T08:36:59Z</time>
      </trkpt>
      <trkpt lat="40.523433" lon="0.259307">
        <ele>298.182</ele>
        <time>2018-09-30T08:37:06Z</time>
      </trkpt>
      <trkpt lat="40.523456" lon="0.259093">
        <ele>300.043</ele>
        <time>2018-09-30T08:37:11Z</time>
      </trkpt>
      <trkpt lat="40.523406" lon="0.258855">
        <ele>301.917</ele>
        <time>2018-09-30T08:37:17Z</time>
      </trkpt>
      <trkpt lat="40.523378" lon="0.258605">
        <ele>303.408</ele>
        <time>2018-09-30T08:37:24Z</time>
      </trkpt>
      <trkpt lat="40.523373" lon="0.258266">
        <ele>304.851</ele>
        <time>2018-09-30T08:37:33Z</time>
      </trkpt>
      <trkpt lat="40.523286" lon="0.257876">
        <ele>305.378</ele>
        <time>2018-09-30T08:37:43Z</time>
      </trkpt>
      <trkpt lat="40.523212" lon="0.257542">
        <ele>306.312</ele>
        <time>2018-09-30T08:37:52Z</time>
      </trkpt>
      <trkpt lat="40.523086" lon="0.257288">
        <ele>306.870</ele>
        <time>2018-09-30T08:38:00Z</time>
      </trkpt>
      <trkpt lat="40.522968" lon="0.257116">
        <ele>308.288</ele>
        <time>2018-09-30T08:38:06Z</time>
      </trkpt>
      <trkpt lat="40.522811" lon="0.256801">
        <ele>310.611</ele>
        <time>2018-09-30T08:38:15Z</time>
      </trkpt>
      <trkpt lat="40.522689" lon="0.256404">
        <ele>311.120</ele>
        <time>2018-09-30T08:38:24Z</time>
      </trkpt>
      <trkpt lat="40.522501" lon="0.255882">
        <ele>311.181</ele>
        <time>2018-09-30T08:38:34Z</time>
      </trkpt>
      <trkpt lat="40.522350" lon="0.255553">
        <ele>311.138</ele>
        <time>2018-09-30T08:38:41Z</time>
      </trkpt>
      <trkpt lat="40.522149" lon="0.255096">
        <ele>311.170</ele>
        <time>2018-09-30T08:38:51Z</time>
      </trkpt>
      <trkpt lat="40.522004" lon="0.254672">
        <ele>309.617</ele>
        <time>2018-09-30T08:39:01Z</time>
      </trkpt>
      <trkpt lat="40.521917" lon="0.254317">
        <ele>310.108</ele>
        <time>2018-09-30T08:39:09Z</time>
      </trkpt>
      <trkpt lat="40.521866" lon="0.254001">
        <ele>310.196</ele>
        <time>2018-09-30T08:39:15Z</time>
      </trkpt>
      <trkpt lat="40.521845" lon="0.253950">
        <ele>310.173</ele>
        <time>2018-09-30T08:39:16Z</time>
      </trkpt>
      <trkpt lat="40.521715" lon="0.253668">
        <ele>310.147</ele>
        <time>2018-09-30T08:39:22Z</time>
      </trkpt>
      <trkpt lat="40.521514" lon="0.253151">
        <ele>311.185</ele>
        <time>2018-09-30T08:39:32Z</time>
      </trkpt>
      <trkpt lat="40.521293" lon="0.252748">
        <ele>311.143</ele>
        <time>2018-09-30T08:39:40Z</time>
      </trkpt>
      <trkpt lat="40.521044" lon="0.252292">
        <ele>311.146</ele>
        <time>2018-09-30T08:39:49Z</time>
      </trkpt>
      <trkpt lat="40.520806" lon="0.251855">
        <ele>311.125</ele>
        <time>2018-09-30T08:39:58Z</time>
      </trkpt>
      <trkpt lat="40.520602" lon="0.251505">
        <ele>313.056</ele>
        <time>2018-09-30T08:40:06Z</time>
      </trkpt>
      <trkpt lat="40.520366" lon="0.251240">
        <ele>313.051</ele>
        <time>2018-09-30T08:40:14Z</time>
      </trkpt>
      <trkpt lat="40.520300" lon="0.251161">
        <ele>311.601</ele>
        <time>2018-09-30T08:40:16Z</time>
      </trkpt>
      <trkpt lat="40.520270" lon="0.251113">
        <ele>311.111</ele>
        <time>2018-09-30T08:40:17Z</time>
      </trkpt>
      <trkpt lat="40.520070" lon="0.250719">
        <ele>308.208</ele>
        <time>2018-09-30T08:40:23Z</time>
      </trkpt>
      <trkpt lat="40.520030" lon="0.250639">
        <ele>308.228</ele>
        <time>2018-09-30T08:40:24Z</time>
      </trkpt>
      <trkpt lat="40.519776" lon="0.250055">
        <ele>305.375</ele>
        <time>2018-09-30T08:40:31Z</time>
      </trkpt>
      <trkpt lat="40.519612" lon="0.249619">
        <ele>305.829</ele>
        <time>2018-09-30T08:40:37Z</time>
      </trkpt>
      <trkpt lat="40.519562" lon="0.249499">
        <ele>305.837</ele>
        <time>2018-09-30T08:40:39Z</time>
      </trkpt>
      <trkpt lat="40.519528" lon="0.249446">
        <ele>305.815</ele>
        <time>2018-09-30T08:40:40Z</time>
      </trkpt>
      <trkpt lat="40.519493" lon="0.249401">
        <ele>305.818</ele>
        <time>2018-09-30T08:40:41Z</time>
      </trkpt>
      <trkpt lat="40.519455" lon="0.249359">
        <ele>305.887</ele>
        <time>2018-09-30T08:40:42Z</time>
      </trkpt>
      <trkpt lat="40.519421" lon="0.249322">
        <ele>305.828</ele>
        <time>2018-09-30T08:40:43Z</time>
      </trkpt>
      <trkpt lat="40.519358" lon="0.249237">
        <ele>305.868</ele>
        <time>2018-09-30T08:40:45Z</time>
      </trkpt>
      <trkpt lat="40.519337" lon="0.249193">
        <ele>306.842</ele>
        <time>2018-09-30T08:40:46Z</time>
      </trkpt>
      <trkpt lat="40.519322" lon="0.249144">
        <ele>306.826</ele>
        <time>2018-09-30T08:40:47Z</time>
      </trkpt>
      <trkpt lat="40.519311" lon="0.249094">
        <ele>307.208</ele>
        <time>2018-09-30T08:40:48Z</time>
      </trkpt>
      <trkpt lat="40.519304" lon="0.249047">
        <ele>307.789</ele>
        <time>2018-09-30T08:40:49Z</time>
      </trkpt>
      <trkpt lat="40.519298" lon="0.248995">
        <ele>307.736</ele>
        <time>2018-09-30T08:40:50Z</time>
      </trkpt>
      <trkpt lat="40.519247" lon="0.248709">
        <ele>309.690</ele>
        <time>2018-09-30T08:40:57Z</time>
      </trkpt>
      <trkpt lat="40.519255" lon="0.248678">
        <ele>309.648</ele>
        <time>2018-09-30T08:40:58Z</time>
      </trkpt>
      <trkpt lat="40.519274" lon="0.248648">
        <ele>310.136</ele>
        <time>2018-09-30T08:40:59Z</time>
      </trkpt>
      <trkpt lat="40.519306" lon="0.248621">
        <ele>310.139</ele>
        <time>2018-09-30T08:41:00Z</time>
      </trkpt>
      <trkpt lat="40.519697" lon="0.248288">
        <ele>313.548</ele>
        <time>2018-09-30T08:41:11Z</time>
      </trkpt>
      <trkpt lat="40.520075" lon="0.247855">
        <ele>315.999</ele>
        <time>2018-09-30T08:41:23Z</time>
      </trkpt>
      <trkpt lat="40.520375" lon="0.247450">
        <ele>316.857</ele>
        <time>2018-09-30T08:41:33Z</time>
      </trkpt>
      <trkpt lat="40.520684" lon="0.246920">
        <ele>316.800</ele>
        <time>2018-09-30T08:41:44Z</time>
      </trkpt>
      <trkpt lat="40.520874" lon="0.246521">
        <ele>316.820</ele>
        <time>2018-09-30T08:41:53Z</time>
      </trkpt>
      <trkpt lat="40.521042" lon="0.246088">
        <ele>317.808</ele>
        <time>2018-09-30T08:42:02Z</time>
      </trkpt>
      <trkpt lat="40.521239" lon="0.245473">
        <ele>318.358</ele>
        <time>2018-09-30T08:42:13Z</time>
      </trkpt>
      <trkpt lat="40.521397" lon="0.244859">
        <ele>319.775</ele>
        <time>2018-09-30T08:42:23Z</time>
      </trkpt>
      <trkpt lat="40.521586" lon="0.244074">
        <ele>321.219</ele>
        <time>2018-09-30T08:42:36Z</time>
      </trkpt>
      <trkpt lat="40.521652" lon="0.243916">
        <ele>321.227</ele>
        <time>2018-09-30T08:42:48Z</time>
      </trkpt>
      <trkpt lat="40.521666" lon="0.243904">
        <ele>321.295</ele>
        <time>2018-09-30T08:42:49Z</time>
      </trkpt>
      <trkpt lat="40.521671" lon="0.243890">
        <ele>321.228</ele>
        <time>2018-09-30T08:42:50Z</time>
      </trkpt>
      <trkpt lat="40.521683" lon="0.243845">
        <ele>321.797</ele>
        <time>2018-09-30T08:42:52Z</time>
      </trkpt>
      <trkpt lat="40.521829" lon="0.243588">
        <ele>322.158</ele>
        <time>2018-09-30T08:42:59Z</time>
      </trkpt>
      <trkpt lat="40.522006" lon="0.243368">
        <ele>323.114</ele>
        <time>2018-09-30T08:43:06Z</time>
      </trkpt>
      <trkpt lat="40.522156" lon="0.243170">
        <ele>323.654</ele>
        <time>2018-09-30T08:43:12Z</time>
      </trkpt>
      <trkpt lat="40.522393" lon="0.242876">
        <ele>324.109</ele>
        <time>2018-09-30T08:43:20Z</time>
      </trkpt>
      <trkpt lat="40.522424" lon="0.242839">
        <ele>324.108</ele>
        <time>2018-09-30T08:43:21Z</time>
      </trkpt>
      <trkpt lat="40.522776" lon="0.242450">
        <ele>324.194</ele>
        <time>2018-09-30T08:43:32Z</time>
      </trkpt>
      <trkpt lat="40.523100" lon="0.242127">
        <ele>323.181</ele>
        <time>2018-09-30T08:43:40Z</time>
      </trkpt>
      <trkpt lat="40.523244" lon="0.242002">
        <ele>322.665</ele>
        <time>2018-09-30T08:43:43Z</time>
      </trkpt>
      <trkpt lat="40.523292" lon="0.241958">
        <ele>322.673</ele>
        <time>2018-09-30T08:43:44Z</time>
      </trkpt>
      <trkpt lat="40.523341" lon="0.241917">
        <ele>322.691</ele>
        <time>2018-09-30T08:43:45Z</time>
      </trkpt>
      <trkpt lat="40.523385" lon="0.241876">
        <ele>322.664</ele>
        <time>2018-09-30T08:43:46Z</time>
      </trkpt>
      <trkpt lat="40.523429" lon="0.241832">
        <ele>322.673</ele>
        <time>2018-09-30T08:43:47Z</time>
      </trkpt>
      <trkpt lat="40.523472" lon="0.241796">
        <ele>322.684</ele>
        <time>2018-09-30T08:43:48Z</time>
      </trkpt>
      <trkpt lat="40.523518" lon="0.241764">
        <ele>322.136</ele>
        <time>2018-09-30T08:43:49Z</time>
      </trkpt>
      <trkpt lat="40.523564" lon="0.241736">
        <ele>322.117</ele>
        <time>2018-09-30T08:43:50Z</time>
      </trkpt>
      <trkpt lat="40.523995" lon="0.241565">
        <ele>321.218</ele>
        <time>2018-09-30T08:43:59Z</time>
      </trkpt>
      <trkpt lat="40.524389" lon="0.241412">
        <ele>319.708</ele>
        <time>2018-09-30T08:44:07Z</time>
      </trkpt>
      <trkpt lat="40.524435" lon="0.241381">
        <ele>319.776</ele>
        <time>2018-09-30T08:44:08Z</time>
      </trkpt>
      <trkpt lat="40.524957" lon="0.241004">
        <ele>317.883</ele>
        <time>2018-09-30T08:44:19Z</time>
      </trkpt>
      <trkpt lat="40.525004" lon="0.240973">
        <ele>317.827</ele>
        <time>2018-09-30T08:44:20Z</time>
      </trkpt>
      <trkpt lat="40.525147" lon="0.240891">
        <ele>317.315</ele>
        <time>2018-09-30T08:44:23Z</time>
      </trkpt>
      <trkpt lat="40.525193" lon="0.240862">
        <ele>317.323</ele>
        <time>2018-09-30T08:44:24Z</time>
      </trkpt>
      <trkpt lat="40.525468" lon="0.240721">
        <ele>316.836</ele>
        <time>2018-09-30T08:44:29Z</time>
      </trkpt>
      <trkpt lat="40.525522" lon="0.240705">
        <ele>316.885</ele>
        <time>2018-09-30T08:44:30Z</time>
      </trkpt>
      <trkpt lat="40.526158" lon="0.240545">
        <ele>315.476</ele>
        <time>2018-09-30T08:44:41Z</time>
      </trkpt>
      <trkpt lat="40.526213" lon="0.240535">
        <ele>315.425</ele>
        <time>2018-09-30T08:44:42Z</time>
      </trkpt>
      <trkpt lat="40.526271" lon="0.240531">
        <ele>315.426</ele>
        <time>2018-09-30T08:44:43Z</time>
      </trkpt>
      <trkpt lat="40.526333" lon="0.240535">
        <ele>314.908</ele>
        <time>2018-09-30T08:44:44Z</time>
      </trkpt>
      <trkpt lat="40.526393" lon="0.240545">
        <ele>314.408</ele>
        <time>2018-09-30T08:44:45Z</time>
      </trkpt>
      <trkpt lat="40.526451" lon="0.240559">
        <ele>314.435</ele>
        <time>2018-09-30T08:44:46Z</time>
      </trkpt>
      <trkpt lat="40.526517" lon="0.240584">
        <ele>313.522</ele>
        <time>2018-09-30T08:44:47Z</time>
      </trkpt>
      <trkpt lat="40.526575" lon="0.240613">
        <ele>313.546</ele>
        <time>2018-09-30T08:44:48Z</time>
      </trkpt>
      <trkpt lat="40.526637" lon="0.240652">
        <ele>313.584</ele>
        <time>2018-09-30T08:44:49Z</time>
      </trkpt>
      <trkpt lat="40.526700" lon="0.240700">
        <ele>312.542</ele>
        <time>2018-09-30T08:44:50Z</time>
      </trkpt>
      <trkpt lat="40.526763" lon="0.240752">
        <ele>312.575</ele>
        <time>2018-09-30T08:44:51Z</time>
      </trkpt>
      <trkpt lat="40.527089" lon="0.240998">
        <ele>309.614</ele>
        <time>2018-09-30T08:44:56Z</time>
      </trkpt>
      <trkpt lat="40.527426" lon="0.241263">
        <ele>306.855</ele>
        <time>2018-09-30T08:45:02Z</time>
      </trkpt>
      <trkpt lat="40.527533" lon="0.241363">
        <ele>305.818</ele>
        <time>2018-09-30T08:45:06Z</time>
      </trkpt>
      <trkpt lat="40.527562" lon="0.241590">
        <ele>303.998</ele>
        <time>2018-09-30T08:45:11Z</time>
      </trkpt>
      <trkpt lat="40.527560" lon="0.241719">
        <ele>302.917</ele>
        <time>2018-09-30T08:45:14Z</time>
      </trkpt>
      <trkpt lat="40.527655" lon="0.241913">
        <ele>300.508</ele>
        <time>2018-09-30T08:45:20Z</time>
      </trkpt>
      <trkpt lat="40.527660" lon="0.241950">
        <ele>300.094</ele>
        <time>2018-09-30T08:45:21Z</time>
      </trkpt>
      <trkpt lat="40.527666" lon="0.242018">
        <ele>299.191</ele>
        <time>2018-09-30T08:45:23Z</time>
      </trkpt>
      <trkpt lat="40.527804" lon="0.242122">
        <ele>298.135</ele>
        <time>2018-09-30T08:45:28Z</time>
      </trkpt>
      <trkpt lat="40.527863" lon="0.242153">
        <ele>298.183</ele>
        <time>2018-09-30T08:45:30Z</time>
      </trkpt>
      <trkpt lat="40.527968" lon="0.242207">
        <ele>298.141</ele>
        <time>2018-09-30T08:45:34Z</time>
      </trkpt>
      <trkpt lat="40.528077" lon="0.242110">
        <ele>298.174</ele>
        <time>2018-09-30T08:45:39Z</time>
      </trkpt>
      <trkpt lat="40.528099" lon="0.242043">
        <ele>298.143</ele>
        <time>2018-09-30T08:45:41Z</time>
      </trkpt>
      <trkpt lat="40.528113" lon="0.241784">
        <ele>297.694</ele>
        <time>2018-09-30T08:45:47Z</time>
      </trkpt>
      <trkpt lat="40.528052" lon="0.241601">
        <ele>297.161</ele>
        <time>2018-09-30T08:45:52Z</time>
      </trkpt>
      <trkpt lat="40.528002" lon="0.241446">
        <ele>294.721</ele>
        <time>2018-09-30T08:45:56Z</time>
      </trkpt>
      <trkpt lat="40.528096" lon="0.241239">
        <ele>294.313</ele>
        <time>2018-09-30T08:46:02Z</time>
      </trkpt>
      <trkpt lat="40.528162" lon="0.241179">
        <ele>294.308</ele>
        <time>2018-09-30T08:46:06Z</time>
      </trkpt>
      <trkpt lat="40.528104" lon="0.241065">
        <ele>293.329</ele>
        <time>2018-09-30T08:46:10Z</time>
      </trkpt>
      <trkpt lat="40.528156" lon="0.240851">
        <ele>293.396</ele>
        <time>2018-09-30T08:46:15Z</time>
      </trkpt>
      <trkpt lat="40.528293" lon="0.240728">
        <ele>292.310</ele>
        <time>2018-09-30T08:46:20Z</time>
      </trkpt>
      <trkpt lat="40.528324" lon="0.240724">
        <ele>291.938</ele>
        <time>2018-09-30T08:46:21Z</time>
      </trkpt>
      <trkpt lat="40.528555" lon="0.240743">
        <ele>291.936</ele>
        <time>2018-09-30T08:46:27Z</time>
      </trkpt>
      <trkpt lat="40.528622" lon="0.240553">
        <ele>291.919</ele>
        <time>2018-09-30T08:46:32Z</time>
      </trkpt>
      <trkpt lat="40.528627" lon="0.240469">
        <ele>291.938</ele>
        <time>2018-09-30T08:46:34Z</time>
      </trkpt>
      <trkpt lat="40.528659" lon="0.240428">
        <ele>293.349</ele>
        <time>2018-09-30T08:46:36Z</time>
      </trkpt>
      <trkpt lat="40.528808" lon="0.240311">
        <ele>292.347</ele>
        <time>2018-09-30T08:46:41Z</time>
      </trkpt>
      <trkpt lat="40.528834" lon="0.240268">
        <ele>291.929</ele>
        <time>2018-09-30T08:46:42Z</time>
      </trkpt>
      <trkpt lat="40.529069" lon="0.239797">
        <ele>289.421</ele>
        <time>2018-09-30T08:46:50Z</time>
      </trkpt>
      <trkpt lat="40.529143" lon="0.239635">
        <ele>288.508</ele>
        <time>2018-09-30T08:46:53Z</time>
      </trkpt>
      <trkpt lat="40.529252" lon="0.239356">
        <ele>286.687</ele>
        <time>2018-09-30T08:46:59Z</time>
      </trkpt>
      <trkpt lat="40.529386" lon="0.239237">
        <ele>284.234</ele>
        <time>2018-09-30T08:47:03Z</time>
      </trkpt>
      <trkpt lat="40.529426" lon="0.239228">
        <ele>283.738</ele>
        <time>2018-09-30T08:47:04Z</time>
      </trkpt>
      <trkpt lat="40.529472" lon="0.239226">
        <ele>283.246</ele>
        <time>2018-09-30T08:47:05Z</time>
      </trkpt>
      <trkpt lat="40.529524" lon="0.239225">
        <ele>282.234</ele>
        <time>2018-09-30T08:47:06Z</time>
      </trkpt>
      <trkpt lat="40.529570" lon="0.239219">
        <ele>281.887</ele>
        <time>2018-09-30T08:47:07Z</time>
      </trkpt>
      <trkpt lat="40.529652" lon="0.239210">
        <ele>281.396</ele>
        <time>2018-09-30T08:47:09Z</time>
      </trkpt>
      <trkpt lat="40.529731" lon="0.239231">
        <ele>280.867</ele>
        <time>2018-09-30T08:47:10Z</time>
      </trkpt>
      <trkpt lat="40.529778" lon="0.239249">
        <ele>280.839</ele>
        <time>2018-09-30T08:47:11Z</time>
      </trkpt>
      <trkpt lat="40.529970" lon="0.239293">
        <ele>279.801</ele>
        <time>2018-09-30T08:47:16Z</time>
      </trkpt>
      <trkpt lat="40.530062" lon="0.239260">
        <ele>279.421</ele>
        <time>2018-09-30T08:47:23Z</time>
      </trkpt>
      <trkpt lat="40.530050" lon="0.239264">
        <ele>279.408</ele>
        <time>2018-09-30T08:47:42Z</time>
      </trkpt>
      <trkpt lat="40.530044" lon="0.239269">
        <ele>279.436</ele>
        <time>2018-09-30T08:47:57Z</time>
      </trkpt>
      <trkpt lat="40.530076" lon="0.239258">
        <ele>279.463</ele>
        <time>2018-09-30T08:48:08Z</time>
      </trkpt>
      <trkpt lat="40.530093" lon="0.239241">
        <ele>279.497</ele>
        <time>2018-09-30T08:48:09Z</time>
      </trkpt>
      <trkpt lat="40.530112" lon="0.239222">
        <ele>279.435</ele>
        <time>2018-09-30T08:48:10Z</time>
      </trkpt>
      <trkpt lat="40.530217" lon="0.239124">
        <ele>280.333</ele>
        <time>2018-09-30T08:48:15Z</time>
      </trkpt>
      <trkpt lat="40.530355" lon="0.239001">
        <ele>282.736</ele>
        <time>2018-09-30T08:48:23Z</time>
      </trkpt>
      <trkpt lat="40.530457" lon="0.238893">
        <ele>282.775</ele>
        <time>2018-09-30T08:48:29Z</time>
      </trkpt>
      <trkpt lat="40.530473" lon="0.238839">
        <ele>282.756</ele>
        <time>2018-09-30T08:48:31Z</time>
      </trkpt>
      <trkpt lat="40.530525" lon="0.238672">
        <ele>282.782</ele>
        <time>2018-09-30T08:49:59Z</time>
      </trkpt>
      <trkpt lat="40.530609" lon="0.238389">
        <ele>285.143</ele>
        <time>2018-09-30T08:50:07Z</time>
      </trkpt>
      <trkpt lat="40.530683" lon="0.238056">
        <ele>285.117</ele>
        <time>2018-09-30T08:50:15Z</time>
      </trkpt>
      <trkpt lat="40.530812" lon="0.237648">
        <ele>285.608</ele>
        <time>2018-09-30T08:50:25Z</time>
      </trkpt>
      <trkpt lat="40.530919" lon="0.237329">
        <ele>286.111</ele>
        <time>2018-09-30T08:50:33Z</time>
      </trkpt>
      <trkpt lat="40.531002" lon="0.237015">
        <ele>286.158</ele>
        <time>2018-09-30T08:50:39Z</time>
      </trkpt>
      <trkpt lat="40.531136" lon="0.236553">
        <ele>286.142</ele>
        <time>2018-09-30T08:50:48Z</time>
      </trkpt>
      <trkpt lat="40.531287" lon="0.236021">
        <ele>286.110</ele>
        <time>2018-09-30T08:50:58Z</time>
      </trkpt>
      <trkpt lat="40.531329" lon="0.235857">
        <ele>286.648</ele>
        <time>2018-09-30T08:51:01Z</time>
      </trkpt>
      <trkpt lat="40.531476" lon="0.235336">
        <ele>287.061</ele>
        <time>2018-09-30T08:51:11Z</time>
      </trkpt>
      <trkpt lat="40.531489" lon="0.235283">
        <ele>287.040</ele>
        <time>2018-09-30T08:51:12Z</time>
      </trkpt>
      <trkpt lat="40.531577" lon="0.234863">
        <ele>287.521</ele>
        <time>2018-09-30T08:51:20Z</time>
      </trkpt>
      <trkpt lat="40.531585" lon="0.234810">
        <ele>287.545</ele>
        <time>2018-09-30T08:51:21Z</time>
      </trkpt>
      <trkpt lat="40.531596" lon="0.234760">
        <ele>287.547</ele>
        <time>2018-09-30T08:51:22Z</time>
      </trkpt>
      <trkpt lat="40.531707" lon="0.234249">
        <ele>288.011</ele>
        <time>2018-09-30T08:51:32Z</time>
      </trkpt>
      <trkpt lat="40.531807" lon="0.233809">
        <ele>288.508</ele>
        <time>2018-09-30T08:51:41Z</time>
      </trkpt>
      <trkpt lat="40.531940" lon="0.233266">
        <ele>289.027</ele>
        <time>2018-09-30T08:51:51Z</time>
      </trkpt>
      <trkpt lat="40.532066" lon="0.232786">
        <ele>287.564</ele>
        <time>2018-09-30T08:51:59Z</time>
      </trkpt>
      <trkpt lat="40.532243" lon="0.232268">
        <ele>287.528</ele>
        <time>2018-09-30T08:52:08Z</time>
      </trkpt>
      <trkpt lat="40.532332" lon="0.231779">
        <ele>287.556</ele>
        <time>2018-09-30T08:52:17Z</time>
      </trkpt>
      <trkpt lat="40.532376" lon="0.231553">
        <ele>287.514</ele>
        <time>2018-09-30T08:52:21Z</time>
      </trkpt>
      <trkpt lat="40.532526" lon="0.231279">
        <ele>287.547</ele>
        <time>2018-09-30T08:52:28Z</time>
      </trkpt>
      <trkpt lat="40.532559" lon="0.231277">
        <ele>287.596</ele>
        <time>2018-09-30T08:52:29Z</time>
      </trkpt>
      <trkpt lat="40.532594" lon="0.231282">
        <ele>287.547</ele>
        <time>2018-09-30T08:52:30Z</time>
      </trkpt>
      <trkpt lat="40.532698" lon="0.231328">
        <ele>287.052</ele>
        <time>2018-09-30T08:52:33Z</time>
      </trkpt>
      <trkpt lat="40.533102" lon="0.231511">
        <ele>287.053</ele>
        <time>2018-09-30T08:52:42Z</time>
      </trkpt>
      <trkpt lat="40.533145" lon="0.231533">
        <ele>287.008</ele>
        <time>2018-09-30T08:52:43Z</time>
      </trkpt>
      <trkpt lat="40.533597" lon="0.231704">
        <ele>287.008</ele>
        <time>2018-09-30T08:52:52Z</time>
      </trkpt>
      <trkpt lat="40.533758" lon="0.231770">
        <ele>287.078</ele>
        <time>2018-09-30T08:52:55Z</time>
      </trkpt>
      <trkpt lat="40.534206" lon="0.231924">
        <ele>286.175</ele>
        <time>2018-09-30T08:53:04Z</time>
      </trkpt>
      <trkpt lat="40.534691" lon="0.232109">
        <ele>285.159</ele>
        <time>2018-09-30T08:53:13Z</time>
      </trkpt>
      <trkpt lat="40.535135" lon="0.232273">
        <ele>284.697</ele>
        <time>2018-09-30T08:53:21Z</time>
      </trkpt>
      <trkpt lat="40.535574" lon="0.232457">
        <ele>284.295</ele>
        <time>2018-09-30T08:53:29Z</time>
      </trkpt>
      <trkpt lat="40.536130" lon="0.232677">
        <ele>283.238</ele>
        <time>2018-09-30T08:53:38Z</time>
      </trkpt>
      <trkpt lat="40.536724" lon="0.232932">
        <ele>282.227</ele>
        <time>2018-09-30T08:53:48Z</time>
      </trkpt>
      <trkpt lat="40.536776" lon="0.232960">
        <ele>281.898</ele>
        <time>2018-09-30T08:53:49Z</time>
      </trkpt>
      <trkpt lat="40.536829" lon="0.233001">
        <ele>281.858</ele>
        <time>2018-09-30T08:53:50Z</time>
      </trkpt>
      <trkpt lat="40.536876" lon="0.233050">
        <ele>281.852</ele>
        <time>2018-09-30T08:53:51Z</time>
      </trkpt>
      <trkpt lat="40.537010" lon="0.233190">
        <ele>281.317</ele>
        <time>2018-09-30T08:53:54Z</time>
      </trkpt>
      <trkpt lat="40.537059" lon="0.233231">
        <ele>281.308</ele>
        <time>2018-09-30T08:53:55Z</time>
      </trkpt>
      <trkpt lat="40.537103" lon="0.233262">
        <ele>281.398</ele>
        <time>2018-09-30T08:53:56Z</time>
      </trkpt>
      <trkpt lat="40.537205" lon="0.233316">
        <ele>280.875</ele>
        <time>2018-09-30T08:53:58Z</time>
      </trkpt>
      <trkpt lat="40.537269" lon="0.233337">
        <ele>280.379</ele>
        <time>2018-09-30T08:53:59Z</time>
      </trkpt>
      <trkpt lat="40.537323" lon="0.233354">
        <ele>280.357</ele>
        <time>2018-09-30T08:54:00Z</time>
      </trkpt>
      <trkpt lat="40.537581" lon="0.233460">
        <ele>278.975</ele>
        <time>2018-09-30T08:54:04Z</time>
      </trkpt>
      <trkpt lat="40.537641" lon="0.233502">
        <ele>278.958</ele>
        <time>2018-09-30T08:54:05Z</time>
      </trkpt>
      <trkpt lat="40.537696" lon="0.233557">
        <ele>277.987</ele>
        <time>2018-09-30T08:54:06Z</time>
      </trkpt>
      <trkpt lat="40.537743" lon="0.233623">
        <ele>277.948</ele>
        <time>2018-09-30T08:54:07Z</time>
      </trkpt>
      <trkpt lat="40.537783" lon="0.233695">
        <ele>277.971</ele>
        <time>2018-09-30T08:54:08Z</time>
      </trkpt>
      <trkpt lat="40.537816" lon="0.233768">
        <ele>277.441</ele>
        <time>2018-09-30T08:54:09Z</time>
      </trkpt>
      <trkpt lat="40.537843" lon="0.233851">
        <ele>277.415</ele>
        <time>2018-09-30T08:54:10Z</time>
      </trkpt>
      <trkpt lat="40.537863" lon="0.233937">
        <ele>277.008</ele>
        <time>2018-09-30T08:54:11Z</time>
      </trkpt>
      <trkpt lat="40.537878" lon="0.234019">
        <ele>277.030</ele>
        <time>2018-09-30T08:54:12Z</time>
      </trkpt>
      <trkpt lat="40.537919" lon="0.234593">
        <ele>276.597</ele>
        <time>2018-09-30T08:54:19Z</time>
      </trkpt>
      <trkpt lat="40.537929" lon="0.234825">
        <ele>276.061</ele>
        <time>2018-09-30T08:54:22Z</time>
      </trkpt>
      <trkpt lat="40.537945" lon="0.234899">
        <ele>275.559</ele>
        <time>2018-09-30T08:54:23Z</time>
      </trkpt>
      <trkpt lat="40.537969" lon="0.234963">
        <ele>275.597</ele>
        <time>2018-09-30T08:54:24Z</time>
      </trkpt>
      <trkpt lat="40.538006" lon="0.235020">
        <ele>275.590</ele>
        <time>2018-09-30T08:54:25Z</time>
      </trkpt>
      <trkpt lat="40.538051" lon="0.235060">
        <ele>275.539</ele>
        <time>2018-09-30T08:54:26Z</time>
      </trkpt>
      <trkpt lat="40.538094" lon="0.235092">
        <ele>275.560</ele>
        <time>2018-09-30T08:54:27Z</time>
      </trkpt>
      <trkpt lat="40.538139" lon="0.235119">
        <ele>275.583</ele>
        <time>2018-09-30T08:54:28Z</time>
      </trkpt>
      <trkpt lat="40.538189" lon="0.235137">
        <ele>275.525</ele>
        <time>2018-09-30T08:54:29Z</time>
      </trkpt>
      <trkpt lat="40.538240" lon="0.235146">
        <ele>275.517</ele>
        <time>2018-09-30T08:54:30Z</time>
      </trkpt>
      <trkpt lat="40.538296" lon="0.235157">
        <ele>275.508</ele>
        <time>2018-09-30T08:54:31Z</time>
      </trkpt>
      <trkpt lat="40.538354" lon="0.235174">
        <ele>275.571</ele>
        <time>2018-09-30T08:54:32Z</time>
      </trkpt>
      <trkpt lat="40.538407" lon="0.235194">
        <ele>275.588</ele>
        <time>2018-09-30T08:54:33Z</time>
      </trkpt>
      <trkpt lat="40.538884" lon="0.235383">
        <ele>277.952</ele>
        <time>2018-09-30T08:54:42Z</time>
      </trkpt>
      <trkpt lat="40.539295" lon="0.235544">
        <ele>278.490</ele>
        <time>2018-09-30T08:54:50Z</time>
      </trkpt>
      <trkpt lat="40.539664" lon="0.235697">
        <ele>278.498</ele>
        <time>2018-09-30T08:54:58Z</time>
      </trkpt>
      <trkpt lat="40.539698" lon="0.235734">
        <ele>278.451</ele>
        <time>2018-09-30T08:54:59Z</time>
      </trkpt>
      <trkpt lat="40.539722" lon="0.235780">
        <ele>278.470</ele>
        <time>2018-09-30T08:55:00Z</time>
      </trkpt>
      <trkpt lat="40.539768" lon="0.235884">
        <ele>278.461</ele>
        <time>2018-09-30T08:55:02Z</time>
      </trkpt>
      <trkpt lat="40.539803" lon="0.235922">
        <ele>278.439</ele>
        <time>2018-09-30T08:55:03Z</time>
      </trkpt>
      <trkpt lat="40.539846" lon="0.235954">
        <ele>278.401</ele>
        <time>2018-09-30T08:55:04Z</time>
      </trkpt>
      <trkpt lat="40.539891" lon="0.235977">
        <ele>278.421</ele>
        <time>2018-09-30T08:55:05Z</time>
      </trkpt>
      <trkpt lat="40.539941" lon="0.235997">
        <ele>278.408</ele>
        <time>2018-09-30T08:55:06Z</time>
      </trkpt>
      <trkpt lat="40.540463" lon="0.236201">
        <ele>278.446</ele>
        <time>2018-09-30T08:55:16Z</time>
      </trkpt>
      <trkpt lat="40.540997" lon="0.236403">
        <ele>278.453</ele>
        <time>2018-09-30T08:55:25Z</time>
      </trkpt>
      <trkpt lat="40.541715" lon="0.236685">
        <ele>278.417</ele>
        <time>2018-09-30T08:55:37Z</time>
      </trkpt>
      <trkpt lat="40.542278" lon="0.236930">
        <ele>277.065</ele>
        <time>2018-09-30T08:55:46Z</time>
      </trkpt>
      <trkpt lat="40.542654" lon="0.237173">
        <ele>277.433</ele>
        <time>2018-09-30T08:55:53Z</time>
      </trkpt>
      <trkpt lat="40.542962" lon="0.237483">
        <ele>278.416</ele>
        <time>2018-09-30T08:56:00Z</time>
      </trkpt>
      <trkpt lat="40.543097" lon="0.237602">
        <ele>278.485</ele>
        <time>2018-09-30T08:56:03Z</time>
      </trkpt>
      <trkpt lat="40.543392" lon="0.237797">
        <ele>278.456</ele>
        <time>2018-09-30T08:56:08Z</time>
      </trkpt>
      <trkpt lat="40.543795" lon="0.237991">
        <ele>275.028</ele>
        <time>2018-09-30T08:56:13Z</time>
      </trkpt>
      <trkpt lat="40.544479" lon="0.238232">
        <ele>273.189</ele>
        <time>2018-09-30T08:56:21Z</time>
      </trkpt>
      <trkpt lat="40.545114" lon="0.238462">
        <ele>270.717</ele>
        <time>2018-09-30T08:56:29Z</time>
      </trkpt>
      <trkpt lat="40.545187" lon="0.238520">
        <ele>269.708</ele>
        <time>2018-09-30T08:56:30Z</time>
      </trkpt>
      <trkpt lat="40.545240" lon="0.238594">
        <ele>269.365</ele>
        <time>2018-09-30T08:56:31Z</time>
      </trkpt>
      <trkpt lat="40.545270" lon="0.238676">
        <ele>269.342</ele>
        <time>2018-09-30T08:56:32Z</time>
      </trkpt>
      <trkpt lat="40.545284" lon="0.238771">
        <ele>268.866</ele>
        <time>2018-09-30T08:56:33Z</time>
      </trkpt>
      <trkpt lat="40.545291" lon="0.238855">
        <ele>268.364</ele>
        <time>2018-09-30T08:56:34Z</time>
      </trkpt>
      <trkpt lat="40.545301" lon="0.238920">
        <ele>267.822</ele>
        <time>2018-09-30T08:56:35Z</time>
      </trkpt>
      <trkpt lat="40.545315" lon="0.238969">
        <ele>267.875</ele>
        <time>2018-09-30T08:56:36Z</time>
      </trkpt>
      <trkpt lat="40.545330" lon="0.239005">
        <ele>267.874</ele>
        <time>2018-09-30T08:56:37Z</time>
      </trkpt>
      <trkpt lat="40.545450" lon="0.239172">
        <ele>266.955</ele>
        <time>2018-09-30T08:56:44Z</time>
      </trkpt>
      <trkpt lat="40.545694" lon="0.239254">
        <ele>268.394</ele>
        <time>2018-09-30T08:56:50Z</time>
      </trkpt>
      <trkpt lat="40.546116" lon="0.239311">
        <ele>270.257</ele>
        <time>2018-09-30T08:57:00Z</time>
      </trkpt>
      <trkpt lat="40.546532" lon="0.239373">
        <ele>273.122</ele>
        <time>2018-09-30T08:57:10Z</time>
      </trkpt>
      <trkpt lat="40.547068" lon="0.239459">
        <ele>275.008</ele>
        <time>2018-09-30T08:57:22Z</time>
      </trkpt>
      <trkpt lat="40.547554" lon="0.239513">
        <ele>277.042</ele>
        <time>2018-09-30T08:57:33Z</time>
      </trkpt>
      <trkpt lat="40.548005" lon="0.239578">
        <ele>277.929</ele>
        <time>2018-09-30T08:57:44Z</time>
      </trkpt>
      <trkpt lat="40.548227" lon="0.239609">
        <ele>278.983</ele>
        <time>2018-09-30T08:57:50Z</time>
      </trkpt>
      <trkpt lat="40.548704" lon="0.239680">
        <ele>280.341</ele>
        <time>2018-09-30T08:58:02Z</time>
      </trkpt>
      <trkpt lat="40.549110" lon="0.239733">
        <ele>282.299</ele>
        <time>2018-09-30T08:58:12Z</time>
      </trkpt>
      <trkpt lat="40.549514" lon="0.239796">
        <ele>283.752</ele>
        <time>2018-09-30T08:58:22Z</time>
      </trkpt>
      <trkpt lat="40.549810" lon="0.239845">
        <ele>286.651</ele>
        <time>2018-09-30T08:58:30Z</time>
      </trkpt>
      <trkpt lat="40.549855" lon="0.239890">
        <ele>287.062</ele>
        <time>2018-09-30T08:58:32Z</time>
      </trkpt>
      <trkpt lat="40.549934" lon="0.240109">
        <ele>288.586</ele>
        <time>2018-09-30T08:58:38Z</time>
      </trkpt>
      <trkpt lat="40.550100" lon="0.240348">
        <ele>290.460</ele>
        <time>2018-09-30T08:58:46Z</time>
      </trkpt>
      <trkpt lat="40.550133" lon="0.240409">
        <ele>290.926</ele>
        <time>2018-09-30T08:58:49Z</time>
      </trkpt>
      <trkpt lat="40.550152" lon="0.240420">
        <ele>290.908</ele>
        <time>2018-09-30T08:58:50Z</time>
      </trkpt>
      <trkpt lat="40.550174" lon="0.240434">
        <ele>291.461</ele>
        <time>2018-09-30T08:58:51Z</time>
      </trkpt>
      <trkpt lat="40.550195" lon="0.240455">
        <ele>291.498</ele>
        <time>2018-09-30T08:58:52Z</time>
      </trkpt>
      <trkpt lat="40.550212" lon="0.240479">
        <ele>292.352</ele>
        <time>2018-09-30T08:58:53Z</time>
      </trkpt>
      <trkpt lat="40.550231" lon="0.240505">
        <ele>292.380</ele>
        <time>2018-09-30T08:58:54Z</time>
      </trkpt>
      <trkpt lat="40.550411" lon="0.240784">
        <ele>295.788</ele>
        <time>2018-09-30T08:59:04Z</time>
      </trkpt>
      <trkpt lat="40.550538" lon="0.240980">
        <ele>298.191</ele>
        <time>2018-09-30T08:59:12Z</time>
      </trkpt>
      <trkpt lat="40.550643" lon="0.241138">
        <ele>300.590</ele>
        <time>2018-09-30T08:59:19Z</time>
      </trkpt>
      <trkpt lat="40.550679" lon="0.241171">
        <ele>300.531</ele>
        <time>2018-09-30T08:59:21Z</time>
      </trkpt>
      <trkpt lat="40.550691" lon="0.241194">
        <ele>301.529</ele>
        <time>2018-09-30T08:59:22Z</time>
      </trkpt>
      <trkpt lat="40.550699" lon="0.241221">
        <ele>301.500</ele>
        <time>2018-09-30T08:59:23Z</time>
      </trkpt>
      <trkpt lat="40.550704" lon="0.241249">
        <ele>301.920</ele>
        <time>2018-09-30T08:59:24Z</time>
      </trkpt>
      <trkpt lat="40.550703" lon="0.241280">
        <ele>301.908</ele>
        <time>2018-09-30T08:59:25Z</time>
      </trkpt>
      <trkpt lat="40.550700" lon="0.241311">
        <ele>302.425</ele>
        <time>2018-09-30T08:59:26Z</time>
      </trkpt>
      <trkpt lat="40.550696" lon="0.241344">
        <ele>303.432</ele>
        <time>2018-09-30T08:59:27Z</time>
      </trkpt>
      <trkpt lat="40.550698" lon="0.241377">
        <ele>303.496</ele>
        <time>2018-09-30T08:59:28Z</time>
      </trkpt>
      <trkpt lat="40.550620" lon="0.241453">
        <ele>307.334</ele>
        <time>2018-11-11T02:23:15Z</time>
      </trkpt>
      <trkpt lat="40.550551" lon="0.241577">
        <ele>308.742</ele>
        <time>2018-11-11T02:23:35Z</time>
      </trkpt>
      <trkpt lat="40.550507" lon="0.241716">
        <ele>310.595</ele>
        <time>2018-11-11T02:23:55Z</time>
      </trkpt>
      <trkpt lat="40.550463" lon="0.241771">
        <ele>310.574</ele>
        <time>2018-11-11T02:24:15Z</time>
      </trkpt>
      <trkpt lat="40.550539" lon="0.241902">
        <ele>313.955</ele>
        <time>2018-11-11T02:24:35Z</time>
      </trkpt>
      <trkpt lat="40.550545" lon="0.241995">
        <ele>315.431</ele>
        <time>2018-11-11T02:24:55Z</time>
      </trkpt>
      <trkpt lat="40.550495" lon="0.242166">
        <ele>316.461</ele>
        <time>2018-11-11T02:25:15Z</time>
      </trkpt>
      <trkpt lat="40.550495" lon="0.242382">
        <ele>318.607</ele>
        <time>2018-11-11T02:25:35Z</time>
      </trkpt>
      <trkpt lat="40.550488" lon="0.242483">
        <ele>319.208</ele>
        <time>2018-11-11T02:25:55Z</time>
      </trkpt>
      <trkpt lat="40.550545" lon="0.242599">
        <ele>321.036</ele>
        <time>2018-11-11T02:26:15Z</time>
      </trkpt>
      <trkpt lat="40.550614" lon="0.242669">
        <ele>323.073</ele>
        <time>2018-11-11T02:26:35Z</time>
      </trkpt>
      <trkpt lat="40.550702" lon="0.242777">
        <ele>324.647</ele>
        <time>2018-11-11T02:26:55Z</time>
      </trkpt>
      <trkpt lat="40.550696" lon="0.242886">
        <ele>324.675</ele>
        <time>2018-11-11T02:27:15Z</time>
      </trkpt>
      <trkpt lat="40.550645" lon="0.242994">
        <ele>324.213</ele>
        <time>2018-11-11T02:27:35Z</time>
      </trkpt>
      <trkpt lat="40.550746" lon="0.243141">
        <ele>325.066</ele>
        <time>2018-11-11T02:27:55Z</time>
      </trkpt>
      <trkpt lat="40.550822" lon="0.243273">
        <ele>324.845</ele>
        <time>2018-11-11T02:28:15Z</time>
      </trkpt>
      <trkpt lat="40.550897" lon="0.243374">
        <ele>324.766</ele>
        <time>2018-11-11T02:28:35Z</time>
      </trkpt>
      <trkpt lat="40.550991" lon="0.243459">
        <ele>324.816</ele>
        <time>2018-11-11T02:28:55Z</time>
      </trkpt>
      <trkpt lat="40.551186" lon="0.243444">
        <ele>325.776</ele>
        <time>2018-11-11T02:29:15Z</time>
      </trkpt>
      <trkpt lat="40.551343" lon="0.243475">
        <ele>326.313</ele>
        <time>2018-11-11T02:29:35Z</time>
      </trkpt>
      <trkpt lat="40.551494" lon="0.243560">
        <ele>326.508</ele>
        <time>2018-11-11T02:29:55Z</time>
      </trkpt>
      <trkpt lat="40.551658" lon="0.243598">
        <ele>326.824</ele>
        <time>2018-11-11T02:30:15Z</time>
      </trkpt>
      <trkpt lat="40.551721" lon="0.243622">
        <ele>326.881</ele>
        <time>2018-11-11T02:30:35Z</time>
      </trkpt>
      <trkpt lat="40.551796" lon="0.243482">
        <ele>327.085</ele>
        <time>2018-11-11T02:30:55Z</time>
      </trkpt>
      <trkpt lat="40.552104" lon="0.243537">
        <ele>326.623</ele>
        <time>2018-11-11T02:31:15Z</time>
      </trkpt>
      <trkpt lat="40.552104" lon="0.243196">
        <ele>326.941</ele>
        <time>2018-11-11T02:31:35Z</time>
      </trkpt>
      <trkpt lat="40.552085" lon="0.242917">
        <ele>327.084</ele>
        <time>2018-11-11T02:31:55Z</time>
      </trkpt>
      <trkpt lat="40.552085" lon="0.242553">
        <ele>327.023</ele>
        <time>2018-11-11T02:32:15Z</time>
      </trkpt>
      <trkpt lat="40.552048" lon="0.242173">
        <ele>327.454</ele>
        <time>2018-11-11T02:32:35Z</time>
      </trkpt>
      <trkpt lat="40.552085" lon="0.242104">
        <ele>327.625</ele>
        <time>2018-11-11T02:32:55Z</time>
      </trkpt>
      <trkpt lat="40.552180" lon="0.242049">
        <ele>327.726</ele>
        <time>2018-11-11T02:33:15Z</time>
      </trkpt>
      <trkpt lat="40.552337" lon="0.242018">
        <ele>327.708</ele>
        <time>2018-11-11T02:33:35Z</time>
      </trkpt>
      <trkpt lat="40.552312" lon="0.241809">
        <ele>327.908</ele>
        <time>2018-11-11T02:33:55Z</time>
      </trkpt>
      <trkpt lat="40.552306" lon="0.241631">
        <ele>327.715</ele>
        <time>2018-11-11T02:34:15Z</time>
      </trkpt>
      <trkpt lat="40.552463" lon="0.241546">
        <ele>327.652</ele>
        <time>2018-11-11T02:34:35Z</time>
      </trkpt>
      <trkpt lat="40.552626" lon="0.241453">
        <ele>327.226</ele>
        <time>2018-11-11T02:34:55Z</time>
      </trkpt>
      <trkpt lat="40.552607" lon="0.241244">
        <ele>325.784</ele>
        <time>2018-11-11T02:35:15Z</time>
      </trkpt>
      <trkpt lat="40.552582" lon="0.241128">
        <ele>324.512</ele>
        <time>2018-11-11T02:35:35Z</time>
      </trkpt>
      <trkpt lat="40.552582" lon="0.240926">
        <ele>322.825</ele>
        <time>2018-11-11T02:35:55Z</time>
      </trkpt>
      <trkpt lat="40.552607" lon="0.240756">
        <ele>321.594</ele>
        <time>2018-11-11T02:36:15Z</time>
      </trkpt>
      <trkpt lat="40.552651" lon="0.240555">
        <ele>320.155</ele>
        <time>2018-11-11T02:36:35Z</time>
      </trkpt>
      <trkpt lat="40.552702" lon="0.240318">
        <ele>318.366</ele>
        <time>2018-09-30T09:02:56Z</time>
      </trkpt>
      <trkpt lat="40.552767" lon="0.240025">
        <ele>314.929</ele>
        <time>2018-09-30T09:02:59Z</time>
      </trkpt>
      <trkpt lat="40.552835" lon="0.239473">
        <ele>311.621</ele>
        <time>2018-09-30T09:03:04Z</time>
      </trkpt>
      <trkpt lat="40.552875" lon="0.238888">
        <ele>311.608</ele>
        <time>2018-09-30T09:03:10Z</time>
      </trkpt>
      <trkpt lat="40.552891" lon="0.238804">
        <ele>311.679</ele>
        <time>2018-09-30T09:03:11Z</time>
      </trkpt>
      <trkpt lat="40.552979" lon="0.238322">
        <ele>311.696</ele>
        <time>2018-09-30T09:03:18Z</time>
      </trkpt>
      <trkpt lat="40.553006" lon="0.238157">
        <ele>313.030</ele>
        <time>2018-09-30T09:03:21Z</time>
      </trkpt>
      <trkpt lat="40.553040" lon="0.237835">
        <ele>315.988</ele>
        <time>2018-09-30T09:03:28Z</time>
      </trkpt>
      <trkpt lat="40.552996" lon="0.237618">
        <ele>316.876</ele>
        <time>2018-09-30T09:03:34Z</time>
      </trkpt>
      <trkpt lat="40.552884" lon="0.237318">
        <ele>315.949</ele>
        <time>2018-09-30T09:03:42Z</time>
      </trkpt>
      <trkpt lat="40.552791" lon="0.237048">
        <ele>314.028</ele>
        <time>2018-09-30T09:03:47Z</time>
      </trkpt>
      <trkpt lat="40.552780" lon="0.236990">
        <ele>313.539</ele>
        <time>2018-09-30T09:03:48Z</time>
      </trkpt>
      <trkpt lat="40.552776" lon="0.236929">
        <ele>312.548</ele>
        <time>2018-09-30T09:03:49Z</time>
      </trkpt>
      <trkpt lat="40.552776" lon="0.236867">
        <ele>312.061</ele>
        <time>2018-09-30T09:03:50Z</time>
      </trkpt>
      <trkpt lat="40.552785" lon="0.236800">
        <ele>312.017</ele>
        <time>2018-09-30T09:03:51Z</time>
      </trkpt>
      <trkpt lat="40.552799" lon="0.236732">
        <ele>311.608</ele>
        <time>2018-09-30T09:03:52Z</time>
      </trkpt>
      <trkpt lat="40.552827" lon="0.236598">
        <ele>311.677</ele>
        <time>2018-09-30T09:03:54Z</time>
      </trkpt>
      <trkpt lat="40.552832" lon="0.236533">
        <ele>311.114</ele>
        <time>2018-09-30T09:03:55Z</time>
      </trkpt>
      <trkpt lat="40.552830" lon="0.236465">
        <ele>311.158</ele>
        <time>2018-09-30T09:03:56Z</time>
      </trkpt>
      <trkpt lat="40.552821" lon="0.236333">
        <ele>310.666</ele>
        <time>2018-09-30T09:03:58Z</time>
      </trkpt>
      <trkpt lat="40.552813" lon="0.236273">
        <ele>310.664</ele>
        <time>2018-09-30T09:03:59Z</time>
      </trkpt>
      <trkpt lat="40.552799" lon="0.236209">
        <ele>310.677</ele>
        <time>2018-09-30T09:04:00Z</time>
      </trkpt>
      <trkpt lat="40.552780" lon="0.236148">
        <ele>310.616</ele>
        <time>2018-09-30T09:04:01Z</time>
      </trkpt>
      <trkpt lat="40.552754" lon="0.236094">
        <ele>310.197</ele>
        <time>2018-09-30T09:04:02Z</time>
      </trkpt>
      <trkpt lat="40.552717" lon="0.236044">
        <ele>310.126</ele>
        <time>2018-09-30T09:04:03Z</time>
      </trkpt>
      <trkpt lat="40.552680" lon="0.236002">
        <ele>310.147</ele>
        <time>2018-09-30T09:04:04Z</time>
      </trkpt>
      <trkpt lat="40.552634" lon="0.235963">
        <ele>309.611</ele>
        <time>2018-09-30T09:04:05Z</time>
      </trkpt>
      <trkpt lat="40.552591" lon="0.235926">
        <ele>309.608</ele>
        <time>2018-09-30T09:04:06Z</time>
      </trkpt>
      <trkpt lat="40.552552" lon="0.235879">
        <ele>309.615</ele>
        <time>2018-09-30T09:04:07Z</time>
      </trkpt>
      <trkpt lat="40.552528" lon="0.235821">
        <ele>309.642</ele>
        <time>2018-09-30T09:04:08Z</time>
      </trkpt>
      <trkpt lat="40.552519" lon="0.235762">
        <ele>308.736</ele>
        <time>2018-09-30T09:04:09Z</time>
      </trkpt>
      <trkpt lat="40.552525" lon="0.235701">
        <ele>308.764</ele>
        <time>2018-09-30T09:04:10Z</time>
      </trkpt>
      <trkpt lat="40.552538" lon="0.235647">
        <ele>308.782</ele>
        <time>2018-09-30T09:04:11Z</time>
      </trkpt>
      <trkpt lat="40.552555" lon="0.235594">
        <ele>308.715</ele>
        <time>2018-09-30T09:04:12Z</time>
      </trkpt>
      <trkpt lat="40.552572" lon="0.235544">
        <ele>308.764</ele>
        <time>2018-09-30T09:04:13Z</time>
      </trkpt>
      <trkpt lat="40.552660" lon="0.235262">
        <ele>308.275</ele>
        <time>2018-09-30T09:04:20Z</time>
      </trkpt>
      <trkpt lat="40.552652" lon="0.235258">
        <ele>308.284</ele>
        <time>2018-09-30T09:04:36Z</time>
      </trkpt>
      <trkpt lat="40.552647" lon="0.235254">
        <ele>308.207</ele>
        <time>2018-09-30T09:05:03Z</time>
      </trkpt>
      <trkpt lat="40.552640" lon="0.235256">
        <ele>308.217</ele>
        <time>2018-09-30T09:05:26Z</time>
      </trkpt>
      <trkpt lat="40.552645" lon="0.235256">
        <ele>308.208</ele>
        <time>2018-09-30T09:05:48Z</time>
      </trkpt>
      <trkpt lat="40.552651" lon="0.235257">
        <ele>308.211</ele>
        <time>2018-09-30T09:06:09Z</time>
      </trkpt>
      <trkpt lat="40.552650" lon="0.235260">
        <ele>308.218</ele>
        <time>2018-09-30T09:06:24Z</time>
      </trkpt>
      <trkpt lat="40.552676" lon="0.235193">
        <ele>307.752</ele>
        <time>2018-09-30T09:06:32Z</time>
      </trkpt>
      <trkpt lat="40.552749" lon="0.234866">
        <ele>307.260</ele>
        <time>2018-09-30T09:06:39Z</time>
      </trkpt>
      <trkpt lat="40.552899" lon="0.234471">
        <ele>305.868</ele>
        <time>2018-09-30T09:06:46Z</time>
      </trkpt>
      <trkpt lat="40.552970" lon="0.234195">
        <ele>305.331</ele>
        <time>2018-09-30T09:06:50Z</time>
      </trkpt>
      <trkpt lat="40.552981" lon="0.234122">
        <ele>305.320</ele>
        <time>2018-09-30T09:06:51Z</time>
      </trkpt>
      <trkpt lat="40.553044" lon="0.233773">
        <ele>304.861</ele>
        <time>2018-09-30T09:06:57Z</time>
      </trkpt>
      <trkpt lat="40.553070" lon="0.233675">
        <ele>306.381</ele>
        <time>2018-09-30T09:06:59Z</time>
      </trkpt>
      <trkpt lat="40.553082" lon="0.233619">
        <ele>306.361</ele>
        <time>2018-09-30T09:07:00Z</time>
      </trkpt>
      <trkpt lat="40.553141" lon="0.233402">
        <ele>306.817</ele>
        <time>2018-09-30T09:07:04Z</time>
      </trkpt>
      <trkpt lat="40.553182" lon="0.233304">
        <ele>307.708</ele>
        <time>2018-09-30T09:07:06Z</time>
      </trkpt>
      <trkpt lat="40.553204" lon="0.233258">
        <ele>307.741</ele>
        <time>2018-09-30T09:07:07Z</time>
      </trkpt>
      <trkpt lat="40.553287" lon="0.233065">
        <ele>308.728</ele>
        <time>2018-09-30T09:07:11Z</time>
      </trkpt>
      <trkpt lat="40.553304" lon="0.233012">
        <ele>308.762</ele>
        <time>2018-09-30T09:07:12Z</time>
      </trkpt>
      <trkpt lat="40.553318" lon="0.232957">
        <ele>309.220</ele>
        <time>2018-09-30T09:07:13Z</time>
      </trkpt>
      <trkpt lat="40.553324" lon="0.232902">
        <ele>309.278</ele>
        <time>2018-09-30T09:07:14Z</time>
      </trkpt>
      <trkpt lat="40.553328" lon="0.232841">
        <ele>308.731</ele>
        <time>2018-09-30T09:07:15Z</time>
      </trkpt>
      <trkpt lat="40.553351" lon="0.232547">
        <ele>308.770</ele>
        <time>2018-09-30T09:07:20Z</time>
      </trkpt>
      <trkpt lat="40.553415" lon="0.232151">
        <ele>308.781</ele>
        <time>2018-09-30T09:07:27Z</time>
      </trkpt>
      <trkpt lat="40.553432" lon="0.232102">
        <ele>309.244</ele>
        <time>2018-09-30T09:07:28Z</time>
      </trkpt>
      <trkpt lat="40.553455" lon="0.232052">
        <ele>309.205</ele>
        <time>2018-09-30T09:07:29Z</time>
      </trkpt>
      <trkpt lat="40.553474" lon="0.232005">
        <ele>309.615</ele>
        <time>2018-09-30T09:07:30Z</time>
      </trkpt>
      <trkpt lat="40.553494" lon="0.231954">
        <ele>309.608</ele>
        <time>2018-09-30T09:07:31Z</time>
      </trkpt>
      <trkpt lat="40.553515" lon="0.231911">
        <ele>310.187</ele>
        <time>2018-09-30T09:07:32Z</time>
      </trkpt>
      <trkpt lat="40.553654" lon="0.231559">
        <ele>312.584</ele>
        <time>2018-09-30T09:07:40Z</time>
      </trkpt>
      <trkpt lat="40.553673" lon="0.231225">
        <ele>313.538</ele>
        <time>2018-09-30T09:07:47Z</time>
      </trkpt>
      <trkpt lat="40.553665" lon="0.230879">
        <ele>314.416</ele>
        <time>2018-09-30T09:07:54Z</time>
      </trkpt>
      <trkpt lat="40.553711" lon="0.230450">
        <ele>315.444</ele>
        <time>2018-09-30T09:08:03Z</time>
      </trkpt>
      <trkpt lat="40.553735" lon="0.229944">
        <ele>314.037</ele>
        <time>2018-09-30T09:08:12Z</time>
      </trkpt>
      <trkpt lat="40.553749" lon="0.229884">
        <ele>314.056</ele>
        <time>2018-09-30T09:08:13Z</time>
      </trkpt>
      <trkpt lat="40.553804" lon="0.229706">
        <ele>313.567</ele>
        <time>2018-09-30T09:08:16Z</time>
      </trkpt>
      <trkpt lat="40.553815" lon="0.229645">
        <ele>313.517</ele>
        <time>2018-09-30T09:08:17Z</time>
      </trkpt>
      <trkpt lat="40.553822" lon="0.229583">
        <ele>313.587</ele>
        <time>2018-09-30T09:08:18Z</time>
      </trkpt>
      <trkpt lat="40.553821" lon="0.229526">
        <ele>313.515</ele>
        <time>2018-09-30T09:08:19Z</time>
      </trkpt>
      <trkpt lat="40.553813" lon="0.229473">
        <ele>313.508</ele>
        <time>2018-09-30T09:08:20Z</time>
      </trkpt>
      <trkpt lat="40.553800" lon="0.229421">
        <ele>313.514</ele>
        <time>2018-09-30T09:08:21Z</time>
      </trkpt>
      <trkpt lat="40.553785" lon="0.229374">
        <ele>313.561</ele>
        <time>2018-09-30T09:08:22Z</time>
      </trkpt>
      <trkpt lat="40.553772" lon="0.229321">
        <ele>313.535</ele>
        <time>2018-09-30T09:08:23Z</time>
      </trkpt>
      <trkpt lat="40.553763" lon="0.229271">
        <ele>313.513</ele>
        <time>2018-09-30T09:08:24Z</time>
      </trkpt>
      <trkpt lat="40.553753" lon="0.229220">
        <ele>313.591</ele>
        <time>2018-09-30T09:08:25Z</time>
      </trkpt>
      <trkpt lat="40.553740" lon="0.229172">
        <ele>314.954</ele>
        <time>2018-09-30T09:08:26Z</time>
      </trkpt>
      <trkpt lat="40.553725" lon="0.229126">
        <ele>314.983</ele>
        <time>2018-09-30T09:08:27Z</time>
      </trkpt>
      <trkpt lat="40.553708" lon="0.229032">
        <ele>315.454</ele>
        <time>2018-09-30T09:08:29Z</time>
      </trkpt>
      <trkpt lat="40.553709" lon="0.228975">
        <ele>315.494</ele>
        <time>2018-09-30T09:08:30Z</time>
      </trkpt>
      <trkpt lat="40.553714" lon="0.228917">
        <ele>315.457</ele>
        <time>2018-09-30T09:08:31Z</time>
      </trkpt>
      <trkpt lat="40.553723" lon="0.228858">
        <ele>315.422</ele>
        <time>2018-09-30T09:08:32Z</time>
      </trkpt>
      <trkpt lat="40.553734" lon="0.228801">
        <ele>315.408</ele>
        <time>2018-09-30T09:08:33Z</time>
      </trkpt>
      <trkpt lat="40.553781" lon="0.228476">
        <ele>315.972</ele>
        <time>2018-09-30T09:08:39Z</time>
      </trkpt>
      <trkpt lat="40.553783" lon="0.228411">
        <ele>315.959</ele>
        <time>2018-09-30T09:08:40Z</time>
      </trkpt>
      <trkpt lat="40.553780" lon="0.228344">
        <ele>315.933</ele>
        <time>2018-09-30T09:08:41Z</time>
      </trkpt>
      <trkpt lat="40.553774" lon="0.228279">
        <ele>315.931</ele>
        <time>2018-09-30T09:08:42Z</time>
      </trkpt>
      <trkpt lat="40.553766" lon="0.228213">
        <ele>315.949</ele>
        <time>2018-09-30T09:08:43Z</time>
      </trkpt>
      <trkpt lat="40.553755" lon="0.228156">
        <ele>315.972</ele>
        <time>2018-09-30T09:08:44Z</time>
      </trkpt>
      <trkpt lat="40.553741" lon="0.228099">
        <ele>315.961</ele>
        <time>2018-09-30T09:08:45Z</time>
      </trkpt>
      <trkpt lat="40.553727" lon="0.228041">
        <ele>315.952</ele>
        <time>2018-09-30T09:08:46Z</time>
      </trkpt>
      <trkpt lat="40.553648" lon="0.227712">
        <ele>315.939</ele>
        <time>2018-09-30T09:08:52Z</time>
      </trkpt>
      <trkpt lat="40.553644" lon="0.227655">
        <ele>315.901</ele>
        <time>2018-09-30T09:08:53Z</time>
      </trkpt>
      <trkpt lat="40.553644" lon="0.227601">
        <ele>315.921</ele>
        <time>2018-09-30T09:08:54Z</time>
      </trkpt>
      <trkpt lat="40.553688" lon="0.227031">
        <ele>316.808</ele>
        <time>2018-09-30T09:09:04Z</time>
      </trkpt>
      <trkpt lat="40.553700" lon="0.226915">
        <ele>316.866</ele>
        <time>2018-09-30T09:09:06Z</time>
      </trkpt>
      <trkpt lat="40.553693" lon="0.226852">
        <ele>317.333</ele>
        <time>2018-09-30T09:09:07Z</time>
      </trkpt>
      <trkpt lat="40.553666" lon="0.226716">
        <ele>317.397</ele>
        <time>2018-09-30T09:09:09Z</time>
      </trkpt>
      <trkpt lat="40.553643" lon="0.226648">
        <ele>317.385</ele>
        <time>2018-09-30T09:09:10Z</time>
      </trkpt>
      <trkpt lat="40.553618" lon="0.226589">
        <ele>317.343</ele>
        <time>2018-09-30T09:09:11Z</time>
      </trkpt>
      <trkpt lat="40.553398" lon="0.226161">
        <ele>315.946</ele>
        <time>2018-09-30T09:09:19Z</time>
      </trkpt>
      <trkpt lat="40.553372" lon="0.226106">
        <ele>315.945</ele>
        <time>2018-09-30T09:09:20Z</time>
      </trkpt>
      <trkpt lat="40.553351" lon="0.226050">
        <ele>315.946</ele>
        <time>2018-09-30T09:09:21Z</time>
      </trkpt>
      <trkpt lat="40.553338" lon="0.225993">
        <ele>315.931</ele>
        <time>2018-09-30T09:09:22Z</time>
      </trkpt>
      <trkpt lat="40.553336" lon="0.225930">
        <ele>315.461</ele>
        <time>2018-09-30T09:09:23Z</time>
      </trkpt>
      <trkpt lat="40.553340" lon="0.225870">
        <ele>315.407</ele>
        <time>2018-09-30T09:09:24Z</time>
      </trkpt>
      <trkpt lat="40.553343" lon="0.225802">
        <ele>315.408</ele>
        <time>2018-09-30T09:09:25Z</time>
      </trkpt>
      <trkpt lat="40.553356" lon="0.225528">
        <ele>315.426</ele>
        <time>2018-09-30T09:09:29Z</time>
      </trkpt>
      <trkpt lat="40.553389" lon="0.225249">
        <ele>315.423</ele>
        <time>2018-09-30T09:09:33Z</time>
      </trkpt>
      <trkpt lat="40.553388" lon="0.225183">
        <ele>315.497</ele>
        <time>2018-09-30T09:09:34Z</time>
      </trkpt>
      <trkpt lat="40.553385" lon="0.225113">
        <ele>315.415</ele>
        <time>2018-09-30T09:09:35Z</time>
      </trkpt>
      <trkpt lat="40.553378" lon="0.225046">
        <ele>315.443</ele>
        <time>2018-09-30T09:09:36Z</time>
      </trkpt>
      <trkpt lat="40.553371" lon="0.224985">
        <ele>315.436</ele>
        <time>2018-09-30T09:09:37Z</time>
      </trkpt>
      <trkpt lat="40.553358" lon="0.224870">
        <ele>316.885</ele>
        <time>2018-09-30T09:09:39Z</time>
      </trkpt>
      <trkpt lat="40.553406" lon="0.224586">
        <ele>319.736</ele>
        <time>2018-09-30T09:09:45Z</time>
      </trkpt>
      <trkpt lat="40.553440" lon="0.224510">
        <ele>320.748</ele>
        <time>2018-09-30T09:09:47Z</time>
      </trkpt>
      <trkpt lat="40.553448" lon="0.224467">
        <ele>321.261</ele>
        <time>2018-09-30T09:09:48Z</time>
      </trkpt>
      <trkpt lat="40.553451" lon="0.224425">
        <ele>321.717</ele>
        <time>2018-09-30T09:09:49Z</time>
      </trkpt>
      <trkpt lat="40.553465" lon="0.224079">
        <ele>324.108</ele>
        <time>2018-09-30T09:09:57Z</time>
      </trkpt>
      <trkpt lat="40.553427" lon="0.223721">
        <ele>325.547</ele>
        <time>2018-09-30T09:10:06Z</time>
      </trkpt>
      <trkpt lat="40.553419" lon="0.223441">
        <ele>326.534</ele>
        <time>2018-09-30T09:10:14Z</time>
      </trkpt>
      <trkpt lat="40.553513" lon="0.223225">
        <ele>326.518</ele>
        <time>2018-09-30T09:10:20Z</time>
      </trkpt>
      <trkpt lat="40.553531" lon="0.223154">
        <ele>326.546</ele>
        <time>2018-09-30T09:10:21Z</time>
      </trkpt>
      <trkpt lat="40.553533" lon="0.223097">
        <ele>325.024</ele>
        <time>2018-09-30T09:10:22Z</time>
      </trkpt>
      <trkpt lat="40.553522" lon="0.223036">
        <ele>325.037</ele>
        <time>2018-09-30T09:10:23Z</time>
      </trkpt>
      <trkpt lat="40.553494" lon="0.222988">
        <ele>325.056</ele>
        <time>2018-09-30T09:10:24Z</time>
      </trkpt>
      <trkpt lat="40.553464" lon="0.222963">
        <ele>325.067</ele>
        <time>2018-09-30T09:10:25Z</time>
      </trkpt>
      <trkpt lat="40.553432" lon="0.222944">
        <ele>325.031</ele>
        <time>2018-09-30T09:10:26Z</time>
      </trkpt>
      <trkpt lat="40.553313" lon="0.222870">
        <ele>326.561</ele>
        <time>2018-09-30T09:10:30Z</time>
      </trkpt>
      <trkpt lat="40.553211" lon="0.222795">
        <ele>326.007</ele>
        <time>2018-09-30T09:10:33Z</time>
      </trkpt>
      <trkpt lat="40.553182" lon="0.222744">
        <ele>324.508</ele>
        <time>2018-09-30T09:10:34Z</time>
      </trkpt>
      <trkpt lat="40.553158" lon="0.222678">
        <ele>324.516</ele>
        <time>2018-09-30T09:10:35Z</time>
      </trkpt>
      <trkpt lat="40.553103" lon="0.222508">
        <ele>322.133</ele>
        <time>2018-09-30T09:10:37Z</time>
      </trkpt>
      <trkpt lat="40.553066" lon="0.222425">
        <ele>321.767</ele>
        <time>2018-09-30T09:10:38Z</time>
      </trkpt>
      <trkpt lat="40.553014" lon="0.222337">
        <ele>321.275</ele>
        <time>2018-09-30T09:10:39Z</time>
      </trkpt>
      <trkpt lat="40.552958" lon="0.222271">
        <ele>321.293</ele>
        <time>2018-09-30T09:10:40Z</time>
      </trkpt>
      <trkpt lat="40.552901" lon="0.222214">
        <ele>321.286</ele>
        <time>2018-09-30T09:10:41Z</time>
      </trkpt>
      <trkpt lat="40.552849" lon="0.222159">
        <ele>321.265</ele>
        <time>2018-09-30T09:10:42Z</time>
      </trkpt>
      <trkpt lat="40.552745" lon="0.222022">
        <ele>322.666</ele>
        <time>2018-09-30T09:10:45Z</time>
      </trkpt>
      <trkpt lat="40.552667" lon="0.221883">
        <ele>322.672</ele>
        <time>2018-09-30T09:10:48Z</time>
      </trkpt>
      <trkpt lat="40.552647" lon="0.221832">
        <ele>323.113</ele>
        <time>2018-09-30T09:10:49Z</time>
      </trkpt>
      <trkpt lat="40.552630" lon="0.221776">
        <ele>323.114</ele>
        <time>2018-09-30T09:10:50Z</time>
      </trkpt>
      <trkpt lat="40.552616" lon="0.221714">
        <ele>323.108</ele>
        <time>2018-09-30T09:10:51Z</time>
      </trkpt>
      <trkpt lat="40.552602" lon="0.221643">
        <ele>323.170</ele>
        <time>2018-09-30T09:10:52Z</time>
      </trkpt>
      <trkpt lat="40.552555" lon="0.221400">
        <ele>320.797</ele>
        <time>2018-09-30T09:10:55Z</time>
      </trkpt>
      <trkpt lat="40.552515" lon="0.221332">
        <ele>320.751</ele>
        <time>2018-09-30T09:10:56Z</time>
      </trkpt>
      <trkpt lat="40.552470" lon="0.221289">
        <ele>320.759</ele>
        <time>2018-09-30T09:10:57Z</time>
      </trkpt>
      <trkpt lat="40.552345" lon="0.221196">
        <ele>322.697</ele>
        <time>2018-09-30T09:11:00Z</time>
      </trkpt>
      <trkpt lat="40.552310" lon="0.221158">
        <ele>322.630</ele>
        <time>2018-09-30T09:11:01Z</time>
      </trkpt>
      <trkpt lat="40.552280" lon="0.221118">
        <ele>323.199</ele>
        <time>2018-09-30T09:11:02Z</time>
      </trkpt>
      <trkpt lat="40.552253" lon="0.221074">
        <ele>323.120</ele>
        <time>2018-09-30T09:11:03Z</time>
      </trkpt>
      <trkpt lat="40.552229" lon="0.221025">
        <ele>323.136</ele>
        <time>2018-09-30T09:11:04Z</time>
      </trkpt>
      <trkpt lat="40.552207" lon="0.220974">
        <ele>323.117</ele>
        <time>2018-09-30T09:11:05Z</time>
      </trkpt>
      <trkpt lat="40.551969" lon="0.220384">
        <ele>323.618</ele>
        <time>2018-09-30T09:11:15Z</time>
      </trkpt>
      <trkpt lat="40.551784" lon="0.219948">
        <ele>323.608</ele>
        <time>2018-09-30T09:11:22Z</time>
      </trkpt>
      <trkpt lat="40.551750" lon="0.219814">
        <ele>323.686</ele>
        <time>2018-09-30T09:11:24Z</time>
      </trkpt>
      <trkpt lat="40.551741" lon="0.219751">
        <ele>323.683</ele>
        <time>2018-09-30T09:11:25Z</time>
      </trkpt>
      <trkpt lat="40.551724" lon="0.219618">
        <ele>322.687</ele>
        <time>2018-09-30T09:11:27Z</time>
      </trkpt>
      <trkpt lat="40.551678" lon="0.219101">
        <ele>320.755</ele>
        <time>2018-09-30T09:11:34Z</time>
      </trkpt>
      <trkpt lat="40.551746" lon="0.218481">
        <ele>318.373</ele>
        <time>2018-09-30T09:11:41Z</time>
      </trkpt>
      <trkpt lat="40.551753" lon="0.218381">
        <ele>317.856</ele>
        <time>2018-09-30T09:11:42Z</time>
      </trkpt>
      <trkpt lat="40.551754" lon="0.218298">
        <ele>317.875</ele>
        <time>2018-09-30T09:11:43Z</time>
      </trkpt>
      <trkpt lat="40.551748" lon="0.218224">
        <ele>317.846</ele>
        <time>2018-09-30T09:11:44Z</time>
      </trkpt>
      <trkpt lat="40.551737" lon="0.218160">
        <ele>319.326</ele>
        <time>2018-09-30T09:11:45Z</time>
      </trkpt>
      <trkpt lat="40.551720" lon="0.218096">
        <ele>319.747</ele>
        <time>2018-09-30T09:11:46Z</time>
      </trkpt>
      <trkpt lat="40.551701" lon="0.218039">
        <ele>319.711</ele>
        <time>2018-09-30T09:11:47Z</time>
      </trkpt>
      <trkpt lat="40.551656" lon="0.217894">
        <ele>321.208</ele>
        <time>2018-09-30T09:11:50Z</time>
      </trkpt>
      <trkpt lat="40.551544" lon="0.217648">
        <ele>321.235</ele>
        <time>2018-09-30T09:11:58Z</time>
      </trkpt>
      <trkpt lat="40.551536" lon="0.217657">
        <ele>321.292</ele>
        <time>2018-09-30T09:12:19Z</time>
      </trkpt>
      <trkpt lat="40.551532" lon="0.217634">
        <ele>321.296</ele>
        <time>2018-09-30T09:12:35Z</time>
      </trkpt>
      <trkpt lat="40.551525" lon="0.217607">
        <ele>321.214</ele>
        <time>2018-09-30T09:12:36Z</time>
      </trkpt>
      <trkpt lat="40.551519" lon="0.217578">
        <ele>320.252</ele>
        <time>2018-09-30T09:12:37Z</time>
      </trkpt>
      <trkpt lat="40.551465" lon="0.217336">
        <ele>320.215</ele>
        <time>2018-09-30T09:12:43Z</time>
      </trkpt>
      <trkpt lat="40.551457" lon="0.217283">
        <ele>320.234</ele>
        <time>2018-09-30T09:12:44Z</time>
      </trkpt>
      <trkpt lat="40.551442" lon="0.217224">
        <ele>320.295</ele>
        <time>2018-09-30T09:12:45Z</time>
      </trkpt>
      <trkpt lat="40.551422" lon="0.217165">
        <ele>320.256</ele>
        <time>2018-09-30T09:12:46Z</time>
      </trkpt>
      <trkpt lat="40.551401" lon="0.217113">
        <ele>320.259</ele>
        <time>2018-09-30T09:12:47Z</time>
      </trkpt>
      <trkpt lat="40.551263" lon="0.216798">
        <ele>320.214</ele>
        <time>2018-09-30T09:12:54Z</time>
      </trkpt>
      <trkpt lat="40.551176" lon="0.216515">
        <ele>320.208</ele>
        <time>2018-09-30T09:13:01Z</time>
      </trkpt>
      <trkpt lat="40.551114" lon="0.216253">
        <ele>320.258</ele>
        <time>2018-09-30T09:13:09Z</time>
      </trkpt>
      <trkpt lat="40.551089" lon="0.216123">
        <ele>320.275</ele>
        <time>2018-09-30T09:13:16Z</time>
      </trkpt>
      <trkpt lat="40.551091" lon="0.216143">
        <ele>320.299</ele>
        <time>2018-09-30T09:13:36Z</time>
      </trkpt>
      <trkpt lat="40.551097" lon="0.216136">
        <ele>320.257</ele>
        <time>2018-09-30T09:13:59Z</time>
      </trkpt>
      <trkpt lat="40.551095" lon="0.216125">
        <ele>320.275</ele>
        <time>2018-09-30T09:14:06Z</time>
      </trkpt>
      <trkpt lat="40.551096" lon="0.216103">
        <ele>320.258</ele>
        <time>2018-09-30T09:14:07Z</time>
      </trkpt>
      <trkpt lat="40.551092" lon="0.216072">
        <ele>320.267</ele>
        <time>2018-09-30T09:14:08Z</time>
      </trkpt>
      <trkpt lat="40.551088" lon="0.216042">
        <ele>320.258</ele>
        <time>2018-09-30T09:14:09Z</time>
      </trkpt>
      <trkpt lat="40.551084" lon="0.216014">
        <ele>320.266</ele>
        <time>2018-09-30T09:14:10Z</time>
      </trkpt>
      <trkpt lat="40.551080" lon="0.215989">
        <ele>320.229</ele>
        <time>2018-09-30T09:14:11Z</time>
      </trkpt>
      <trkpt lat="40.551079" lon="0.215966">
        <ele>320.221</ele>
        <time>2018-09-30T09:14:12Z</time>
      </trkpt>
      <trkpt lat="40.551031" lon="0.215766">
        <ele>320.208</ele>
        <time>2018-09-30T09:14:19Z</time>
      </trkpt>
      <trkpt lat="40.550955" lon="0.215445">
        <ele>319.799</ele>
        <time>2018-09-30T09:14:25Z</time>
      </trkpt>
      <trkpt lat="40.550813" lon="0.214941">
        <ele>318.896</ele>
        <time>2018-09-30T09:14:34Z</time>
      </trkpt>
      <trkpt lat="40.550643" lon="0.214400">
        <ele>318.390</ele>
        <time>2018-09-30T09:14:43Z</time>
      </trkpt>
      <trkpt lat="40.550585" lon="0.214218">
        <ele>319.738</ele>
        <time>2018-09-30T09:14:46Z</time>
      </trkpt>
      <trkpt lat="40.550566" lon="0.214154">
        <ele>320.756</ele>
        <time>2018-09-30T09:14:47Z</time>
      </trkpt>
      <trkpt lat="40.550546" lon="0.214092">
        <ele>321.269</ele>
        <time>2018-09-30T09:14:48Z</time>
      </trkpt>
      <trkpt lat="40.550528" lon="0.214031">
        <ele>321.298</ele>
        <time>2018-09-30T09:14:49Z</time>
      </trkpt>
      <trkpt lat="40.550379" lon="0.213550">
        <ele>321.749</ele>
        <time>2018-09-30T09:14:57Z</time>
      </trkpt>
      <trkpt lat="40.550191" lon="0.212921">
        <ele>322.676</ele>
        <time>2018-09-30T09:15:07Z</time>
      </trkpt>
      <trkpt lat="40.549998" lon="0.212305">
        <ele>323.690</ele>
        <time>2018-09-30T09:15:17Z</time>
      </trkpt>
      <trkpt lat="40.549986" lon="0.212274">
        <ele>323.619</ele>
        <time>2018-09-30T09:15:20Z</time>
      </trkpt>
      <trkpt lat="40.549988" lon="0.212281">
        <ele>323.608</ele>
        <time>2018-09-30T09:15:37Z</time>
      </trkpt>
      <trkpt lat="40.549987" lon="0.212293">
        <ele>323.630</ele>
        <time>2018-09-30T09:15:54Z</time>
      </trkpt>
      <trkpt lat="40.549975" lon="0.212274">
        <ele>323.617</ele>
        <time>2018-09-30T09:16:16Z</time>
      </trkpt>
      <trkpt lat="40.549972" lon="0.212286">
        <ele>323.611</ele>
        <time>2018-09-30T09:16:40Z</time>
      </trkpt>
      <trkpt lat="40.549965" lon="0.212241">
        <ele>323.669</ele>
        <time>2018-09-30T09:16:56Z</time>
      </trkpt>
      <trkpt lat="40.549913" lon="0.212021">
        <ele>323.677</ele>
        <time>2018-09-30T09:17:02Z</time>
      </trkpt>
      <trkpt lat="40.549895" lon="0.211894">
        <ele>322.170</ele>
        <time>2018-09-30T09:17:04Z</time>
      </trkpt>
      <trkpt lat="40.549866" lon="0.211556">
        <ele>321.289</ele>
        <time>2018-09-30T09:17:09Z</time>
      </trkpt>
      <trkpt lat="40.549871" lon="0.211483">
        <ele>321.220</ele>
        <time>2018-09-30T09:17:10Z</time>
      </trkpt>
      <trkpt lat="40.549880" lon="0.211419">
        <ele>321.294</ele>
        <time>2018-09-30T09:17:11Z</time>
      </trkpt>
      <trkpt lat="40.549891" lon="0.211365">
        <ele>321.257</ele>
        <time>2018-09-30T09:17:12Z</time>
      </trkpt>
      <trkpt lat="40.549909" lon="0.211303">
        <ele>321.222</ele>
        <time>2018-09-30T09:17:13Z</time>
      </trkpt>
      <trkpt lat="40.549931" lon="0.211248">
        <ele>321.208</ele>
        <time>2018-09-30T09:17:14Z</time>
      </trkpt>
      <trkpt lat="40.549953" lon="0.211187">
        <ele>321.232</ele>
        <time>2018-09-30T09:17:15Z</time>
      </trkpt>
      <trkpt lat="40.549979" lon="0.211126">
        <ele>321.289</ele>
        <time>2018-09-30T09:17:16Z</time>
      </trkpt>
      <trkpt lat="40.550076" lon="0.210840">
        <ele>324.123</ele>
        <time>2018-09-30T09:17:21Z</time>
      </trkpt>
      <trkpt lat="40.550119" lon="0.210356">
        <ele>327.411</ele>
        <time>2018-09-30T09:17:29Z</time>
      </trkpt>
      <trkpt lat="40.550170" lon="0.209890">
        <ele>330.399</ele>
        <time>2018-09-30T09:17:38Z</time>
      </trkpt>
      <trkpt lat="40.550227" lon="0.209309">
        <ele>332.712</ele>
        <time>2018-09-30T09:17:50Z</time>
      </trkpt>
      <trkpt lat="40.550285" lon="0.208855">
        <ele>333.771</ele>
        <time>2018-09-30T09:17:59Z</time>
      </trkpt>
      <trkpt lat="40.550347" lon="0.208421">
        <ele>335.682</ele>
        <time>2018-09-30T09:18:08Z</time>
      </trkpt>
      <trkpt lat="40.550420" lon="0.207899">
        <ele>337.562</ele>
        <time>2018-09-30T09:18:19Z</time>
      </trkpt>
      <trkpt lat="40.550467" lon="0.207464">
        <ele>339.083</ele>
        <time>2018-09-30T09:18:28Z</time>
      </trkpt>
      <trkpt lat="40.550527" lon="0.207076">
        <ele>340.411</ele>
        <time>2018-09-30T09:18:37Z</time>
      </trkpt>
      <trkpt lat="40.550643" lon="0.206681">
        <ele>341.808</ele>
        <time>2018-09-30T09:18:46Z</time>
      </trkpt>
      <trkpt lat="40.550801" lon="0.206144">
        <ele>343.339</ele>
        <time>2018-09-30T09:18:58Z</time>
      </trkpt>
      <trkpt lat="40.550936" lon="0.205657">
        <ele>345.776</ele>
        <time>2018-09-30T09:19:09Z</time>
      </trkpt>
      <trkpt lat="40.551102" lon="0.205062">
        <ele>348.630</ele>
        <time>2018-09-30T09:19:22Z</time>
      </trkpt>
      <trkpt lat="40.551228" lon="0.204624">
        <ele>350.598</ele>
        <time>2018-09-30T09:19:32Z</time>
      </trkpt>
      <trkpt lat="40.551374" lon="0.204153">
        <ele>351.996</ele>
        <time>2018-09-30T09:19:43Z</time>
      </trkpt>
      <trkpt lat="40.551438" lon="0.203891">
        <ele>352.929</ele>
        <time>2018-09-30T09:19:50Z</time>
      </trkpt>
      <trkpt lat="40.551465" lon="0.203864">
        <ele>352.978</ele>
        <time>2018-09-30T09:19:51Z</time>
      </trkpt>
      <trkpt lat="40.551500" lon="0.203859">
        <ele>352.949</ele>
        <time>2018-09-30T09:19:52Z</time>
      </trkpt>
      <trkpt lat="40.551531" lon="0.203867">
        <ele>352.985</ele>
        <time>2018-09-30T09:19:53Z</time>
      </trkpt>
      <trkpt lat="40.551566" lon="0.203882">
        <ele>352.989</ele>
        <time>2018-09-30T09:19:54Z</time>
      </trkpt>
      <trkpt lat="40.551602" lon="0.203898">
        <ele>352.917</ele>
        <time>2018-09-30T09:19:55Z</time>
      </trkpt>
      <trkpt lat="40.551771" lon="0.203972">
        <ele>351.508</ele>
        <time>2018-09-30T09:19:59Z</time>
      </trkpt>
      <trkpt lat="40.552225" lon="0.204202">
        <ele>350.561</ele>
        <time>2018-09-30T09:20:09Z</time>
      </trkpt>
      <trkpt lat="40.552581" lon="0.204374">
        <ele>350.598</ele>
        <time>2018-09-30T09:20:17Z</time>
      </trkpt>
      <trkpt lat="40.553003" lon="0.204552">
        <ele>350.592</ele>
        <time>2018-09-30T09:20:27Z</time>
      </trkpt>
      <trkpt lat="40.553085" lon="0.204588">
        <ele>351.910</ele>
        <time>2018-09-30T09:20:29Z</time>
      </trkpt>
      <trkpt lat="40.553481" lon="0.204696">
        <ele>351.958</ele>
        <time>2018-09-30T09:20:38Z</time>
      </trkpt>
      <trkpt lat="40.553612" lon="0.204725">
        <ele>351.911</ele>
        <time>2018-09-30T09:20:41Z</time>
      </trkpt>
      <trkpt lat="40.553997" lon="0.204753">
        <ele>352.910</ele>
        <time>2018-09-30T09:20:50Z</time>
      </trkpt>
      <trkpt lat="40.554435" lon="0.204763">
        <ele>353.961</ele>
        <time>2018-09-30T09:21:01Z</time>
      </trkpt>
      <trkpt lat="40.554734" lon="0.204896">
        <ele>352.481</ele>
        <time>2018-09-30T09:21:09Z</time>
      </trkpt>
      <trkpt lat="40.554947" lon="0.204952">
        <ele>354.361</ele>
        <time>2018-09-30T09:21:14Z</time>
      </trkpt>
      <trkpt lat="40.555099" lon="0.204967">
        <ele>357.217</ele>
        <time>2018-09-30T09:21:19Z</time>
      </trkpt>
      <trkpt lat="40.555279" lon="0.204996">
        <ele>360.108</ele>
        <time>2018-09-30T09:21:26Z</time>
      </trkpt>
      <trkpt lat="40.555509" lon="0.205120">
        <ele>362.571</ele>
        <time>2018-09-30T09:21:35Z</time>
      </trkpt>
      <trkpt lat="40.555778" lon="0.205222">
        <ele>364.988</ele>
        <time>2018-09-30T09:21:45Z</time>
      </trkpt>
      <trkpt lat="40.556064" lon="0.205331">
        <ele>367.872</ele>
        <time>2018-09-30T09:21:56Z</time>
      </trkpt>
      <trkpt lat="40.556279" lon="0.205475">
        <ele>369.750</ele>
        <time>2018-09-30T09:22:05Z</time>
      </trkpt>
      <trkpt lat="40.556526" lon="0.205556">
        <ele>371.648</ele>
        <time>2018-09-30T09:22:15Z</time>
      </trkpt>
      <trkpt lat="40.556762" lon="0.205564">
        <ele>372.691</ele>
        <time>2018-09-30T09:22:24Z</time>
      </trkpt>
      <trkpt lat="40.556975" lon="0.205636">
        <ele>374.570</ele>
        <time>2018-09-30T09:22:32Z</time>
      </trkpt>
      <trkpt lat="40.557140" lon="0.205617">
        <ele>377.991</ele>
        <time>2018-09-30T09:22:38Z</time>
      </trkpt>
      <trkpt lat="40.557329" lon="0.205586">
        <ele>379.313</ele>
        <time>2018-09-30T09:22:46Z</time>
      </trkpt>
      <trkpt lat="40.557510" lon="0.205575">
        <ele>381.343</ele>
        <time>2018-09-30T09:22:54Z</time>
      </trkpt>
      <trkpt lat="40.557682" lon="0.205571">
        <ele>383.207</ele>
        <time>2018-09-30T09:23:02Z</time>
      </trkpt>
      <trkpt lat="40.557894" lon="0.205562">
        <ele>385.108</ele>
        <time>2018-09-30T09:23:12Z</time>
      </trkpt>
      <trkpt lat="40.558076" lon="0.205546">
        <ele>388.524</ele>
        <time>2018-09-30T09:23:20Z</time>
      </trkpt>
      <trkpt lat="40.558326" lon="0.205519">
        <ele>391.861</ele>
        <time>2018-09-30T09:23:30Z</time>
      </trkpt>
      <trkpt lat="40.558487" lon="0.205464">
        <ele>392.885</ele>
        <time>2018-09-30T09:23:37Z</time>
      </trkpt>
      <trkpt lat="40.558677" lon="0.205439">
        <ele>395.243</ele>
        <time>2018-09-30T09:23:45Z</time>
      </trkpt>
      <trkpt lat="40.558880" lon="0.205397">
        <ele>397.141</ele>
        <time>2018-09-30T09:23:54Z</time>
      </trkpt>
      <trkpt lat="40.559145" lon="0.205383">
        <ele>398.174</ele>
        <time>2018-09-30T09:24:04Z</time>
      </trkpt>
      <trkpt lat="40.559405" lon="0.205356">
        <ele>398.113</ele>
        <time>2018-09-30T09:24:11Z</time>
      </trkpt>
      <trkpt lat="40.559625" lon="0.205324">
        <ele>398.134</ele>
        <time>2018-09-30T09:24:17Z</time>
      </trkpt>
      <trkpt lat="40.559668" lon="0.205314">
        <ele>396.663</ele>
        <time>2018-09-30T09:24:18Z</time>
      </trkpt>
      <trkpt lat="40.559712" lon="0.205298">
        <ele>396.644</ele>
        <time>2018-09-30T09:24:19Z</time>
      </trkpt>
      <trkpt lat="40.559902" lon="0.205252">
        <ele>396.218</ele>
        <time>2018-09-30T09:24:23Z</time>
      </trkpt>
      <trkpt lat="40.559943" lon="0.205255">
        <ele>396.208</ele>
        <time>2018-09-30T09:24:24Z</time>
      </trkpt>
      <trkpt lat="40.559978" lon="0.205264">
        <ele>396.279</ele>
        <time>2018-09-30T09:24:25Z</time>
      </trkpt>
      <trkpt lat="40.560246" lon="0.205281">
        <ele>398.616</ele>
        <time>2018-09-30T09:24:33Z</time>
      </trkpt>
      <trkpt lat="40.560605" lon="0.205241">
        <ele>401.060</ele>
        <time>2018-09-30T09:24:44Z</time>
      </trkpt>
      <trkpt lat="40.560848" lon="0.205191">
        <ele>402.998</ele>
        <time>2018-09-30T09:24:52Z</time>
      </trkpt>
      <trkpt lat="40.561118" lon="0.205127">
        <ele>404.366</ele>
        <time>2018-09-30T09:25:01Z</time>
      </trkpt>
      <trkpt lat="40.561378" lon="0.205081">
        <ele>406.789</ele>
        <time>2018-09-30T09:25:10Z</time>
      </trkpt>
      <trkpt lat="40.561601" lon="0.205062">
        <ele>407.718</ele>
        <time>2018-09-30T09:25:18Z</time>
      </trkpt>
      <trkpt lat="40.561899" lon="0.205009">
        <ele>410.179</ele>
        <time>2018-09-30T09:25:29Z</time>
      </trkpt>
      <trkpt lat="40.562186" lon="0.204978">
        <ele>413.033</ele>
        <time>2018-09-30T09:25:39Z</time>
      </trkpt>
      <trkpt lat="40.562417" lon="0.204943">
        <ele>415.923</ele>
        <time>2018-09-30T09:25:47Z</time>
      </trkpt>
      <trkpt lat="40.562594" lon="0.204889">
        <ele>417.815</ele>
        <time>2018-09-30T09:25:54Z</time>
      </trkpt>
      <trkpt lat="40.562767" lon="0.204844">
        <ele>421.108</ele>
        <time>2018-09-30T09:26:00Z</time>
      </trkpt>
      <trkpt lat="40.562973" lon="0.204804">
        <ele>423.686</ele>
        <time>2018-09-30T09:26:08Z</time>
      </trkpt>
      <trkpt lat="40.563208" lon="0.204872">
        <ele>424.093</ele>
        <time>2018-09-30T09:26:18Z</time>
      </trkpt>
      <trkpt lat="40.563446" lon="0.204921">
        <ele>422.617</ele>
        <time>2018-09-30T09:26:26Z</time>
      </trkpt>
      <trkpt lat="40.563491" lon="0.204930">
        <ele>422.635</ele>
        <time>2018-09-30T09:26:27Z</time>
      </trkpt>
      <trkpt lat="40.563735" lon="0.204991">
        <ele>419.233</ele>
        <time>2018-09-30T09:26:31Z</time>
      </trkpt>
      <trkpt lat="40.564118" lon="0.205131">
        <ele>415.476</ele>
        <time>2018-09-30T09:26:36Z</time>
      </trkpt>
      <trkpt lat="40.564453" lon="0.205286">
        <ele>412.585</ele>
        <time>2018-09-30T09:26:40Z</time>
      </trkpt>
      <trkpt lat="40.564824" lon="0.205496">
        <ele>409.126</ele>
        <time>2018-09-30T09:26:45Z</time>
      </trkpt>
      <trkpt lat="40.565014" lon="0.205590">
        <ele>407.753</ele>
        <time>2018-09-30T09:26:49Z</time>
      </trkpt>
      <trkpt lat="40.565044" lon="0.205573">
        <ele>408.704</ele>
        <time>2018-09-30T09:26:50Z</time>
      </trkpt>
      <trkpt lat="40.565064" lon="0.205541">
        <ele>408.214</ele>
        <time>2018-09-30T09:26:51Z</time>
      </trkpt>
      <trkpt lat="40.565066" lon="0.205506">
        <ele>408.208</ele>
        <time>2018-09-30T09:26:52Z</time>
      </trkpt>
      <trkpt lat="40.565059" lon="0.205478">
        <ele>408.218</ele>
        <time>2018-09-30T09:26:53Z</time>
      </trkpt>
      <trkpt lat="40.565048" lon="0.205443">
        <ele>408.295</ele>
        <time>2018-09-30T09:26:54Z</time>
      </trkpt>
      <trkpt lat="40.565037" lon="0.205410">
        <ele>408.269</ele>
        <time>2018-09-30T09:26:55Z</time>
      </trkpt>
      <trkpt lat="40.565030" lon="0.205374">
        <ele>408.227</ele>
        <time>2018-09-30T09:26:56Z</time>
      </trkpt>
      <trkpt lat="40.565023" lon="0.205340">
        <ele>409.665</ele>
        <time>2018-09-30T09:26:57Z</time>
      </trkpt>
      <trkpt lat="40.565015" lon="0.205301">
        <ele>409.618</ele>
        <time>2018-09-30T09:26:58Z</time>
      </trkpt>
      <trkpt lat="40.565009" lon="0.205261">
        <ele>409.637</ele>
        <time>2018-09-30T09:26:59Z</time>
      </trkpt>
      <trkpt lat="40.565005" lon="0.205223">
        <ele>409.668</ele>
        <time>2018-09-30T09:27:00Z</time>
      </trkpt>
      <trkpt lat="40.564961" lon="0.204929">
        <ele>411.165</ele>
        <time>2018-09-30T09:27:08Z</time>
      </trkpt>
      <trkpt lat="40.564912" lon="0.204762">
        <ele>412.068</ele>
        <time>2018-09-30T09:27:14Z</time>
      </trkpt>
      <trkpt lat="40.564833" lon="0.204453">
        <ele>413.514</ele>
        <time>2018-09-30T09:27:23Z</time>
      </trkpt>
      <trkpt lat="40.564755" lon="0.204173">
        <ele>414.908</ele>
        <time>2018-09-30T09:27:31Z</time>
      </trkpt>
      <trkpt lat="40.564668" lon="0.203807">
        <ele>416.859</ele>
        <time>2018-09-30T09:27:42Z</time>
      </trkpt>
      <trkpt lat="40.564621" lon="0.203469">
        <ele>419.256</ele>
        <time>2018-09-30T09:27:52Z</time>
      </trkpt>
      <trkpt lat="40.564555" lon="0.203060">
        <ele>421.190</ele>
        <time>2018-09-30T09:28:04Z</time>
      </trkpt>
      <trkpt lat="40.564500" lon="0.202743">
        <ele>423.168</ele>
        <time>2018-09-30T09:28:13Z</time>
      </trkpt>
      <trkpt lat="40.564434" lon="0.202356">
        <ele>424.066</ele>
        <time>2018-09-30T09:28:24Z</time>
      </trkpt>
      <trkpt lat="40.564387" lon="0.202040">
        <ele>426.049</ele>
        <time>2018-09-30T09:28:33Z</time>
      </trkpt>
      <trkpt lat="40.564352" lon="0.201713">
        <ele>427.998</ele>
        <time>2018-09-30T09:28:42Z</time>
      </trkpt>
      <trkpt lat="40.564303" lon="0.201448">
        <ele>429.869</ele>
        <time>2018-09-30T09:28:50Z</time>
      </trkpt>
      <trkpt lat="40.564241" lon="0.201157">
        <ele>432.214</ele>
        <time>2018-09-30T09:28:59Z</time>
      </trkpt>
      <trkpt lat="40.564217" lon="0.200875">
        <ele>434.654</ele>
        <time>2018-09-30T09:29:08Z</time>
      </trkpt>
      <trkpt lat="40.564173" lon="0.200542">
        <ele>438.009</ele>
        <time>2018-09-30T09:29:19Z</time>
      </trkpt>
      <trkpt lat="40.564101" lon="0.200264">
        <ele>440.908</ele>
        <time>2018-09-30T09:29:29Z</time>
      </trkpt>
      <trkpt lat="40.564038" lon="0.200059">
        <ele>442.864</ele>
        <time>2018-09-30T09:29:37Z</time>
      </trkpt>
      <trkpt lat="40.563978" lon="0.199864">
        <ele>444.721</ele>
        <time>2018-09-30T09:29:45Z</time>
      </trkpt>
      <trkpt lat="40.563955" lon="0.199659">
        <ele>446.145</ele>
        <time>2018-09-30T09:29:53Z</time>
      </trkpt>
      <trkpt lat="40.563947" lon="0.199634">
        <ele>446.653</ele>
        <time>2018-09-30T09:29:54Z</time>
      </trkpt>
      <trkpt lat="40.563940" lon="0.199608">
        <ele>446.671</ele>
        <time>2018-09-30T09:29:55Z</time>
      </trkpt>
      <trkpt lat="40.563877" lon="0.199369">
        <ele>448.144</ele>
        <time>2018-09-30T09:30:04Z</time>
      </trkpt>
      <trkpt lat="40.563838" lon="0.199150">
        <ele>449.533</ele>
        <time>2018-09-30T09:30:12Z</time>
      </trkpt>
      <trkpt lat="40.563766" lon="0.198844">
        <ele>452.474</ele>
        <time>2018-09-30T09:30:24Z</time>
      </trkpt>
      <trkpt lat="40.563754" lon="0.198577">
        <ele>454.863</ele>
        <time>2018-09-30T09:30:34Z</time>
      </trkpt>
      <trkpt lat="40.563870" lon="0.198384">
        <ele>455.844</ele>
        <time>2018-09-30T09:30:42Z</time>
      </trkpt>
      <trkpt lat="40.563874" lon="0.198220">
        <ele>456.718</ele>
        <time>2018-09-30T09:30:48Z</time>
      </trkpt>
      <trkpt lat="40.563726" lon="0.198010">
        <ele>459.108</ele>
        <time>2018-09-30T09:30:57Z</time>
      </trkpt>
      <trkpt lat="40.563602" lon="0.197824">
        <ele>461.049</ele>
        <time>2018-09-30T09:31:05Z</time>
      </trkpt>
      <trkpt lat="40.563514" lon="0.197609">
        <ele>461.566</ele>
        <time>2018-09-30T09:31:13Z</time>
      </trkpt>
      <trkpt lat="40.563452" lon="0.197331">
        <ele>462.050</ele>
        <time>2018-09-30T09:31:22Z</time>
      </trkpt>
      <trkpt lat="40.563460" lon="0.197103">
        <ele>462.558</ele>
        <time>2018-09-30T09:31:29Z</time>
      </trkpt>
      <trkpt lat="40.563452" lon="0.197075">
        <ele>463.026</ele>
        <time>2018-09-30T09:31:30Z</time>
      </trkpt>
      <trkpt lat="40.563447" lon="0.197044">
        <ele>463.079</ele>
        <time>2018-09-30T09:31:31Z</time>
      </trkpt>
      <trkpt lat="40.563442" lon="0.197012">
        <ele>463.078</ele>
        <time>2018-09-30T09:31:32Z</time>
      </trkpt>
      <trkpt lat="40.563436" lon="0.196984">
        <ele>463.449</ele>
        <time>2018-09-30T09:31:33Z</time>
      </trkpt>
      <trkpt lat="40.563359" lon="0.196619">
        <ele>464.915</ele>
        <time>2018-09-30T09:31:44Z</time>
      </trkpt>
      <trkpt lat="40.563277" lon="0.196259">
        <ele>464.965</ele>
        <time>2018-09-30T09:31:53Z</time>
      </trkpt>
      <trkpt lat="40.563200" lon="0.195929">
        <ele>465.411</ele>
        <time>2018-09-30T09:32:01Z</time>
      </trkpt>
      <trkpt lat="40.563147" lon="0.195452">
        <ele>464.908</ele>
        <time>2018-09-30T09:32:12Z</time>
      </trkpt>
      <trkpt lat="40.563080" lon="0.195124">
        <ele>465.464</ele>
        <time>2018-09-30T09:32:20Z</time>
      </trkpt>
      <trkpt lat="40.563063" lon="0.194874">
        <ele>466.351</ele>
        <time>2018-09-30T09:32:26Z</time>
      </trkpt>
      <trkpt lat="40.563122" lon="0.194563">
        <ele>468.325</ele>
        <time>2018-09-30T09:32:34Z</time>
      </trkpt>
      <trkpt lat="40.563217" lon="0.194221">
        <ele>470.213</ele>
        <time>2018-09-30T09:32:43Z</time>
      </trkpt>
      <trkpt lat="40.563225" lon="0.193901">
        <ele>473.181</ele>
        <time>2018-09-30T09:32:51Z</time>
      </trkpt>
      <trkpt lat="40.563274" lon="0.193652">
        <ele>475.574</ele>
        <time>2018-09-30T09:32:58Z</time>
      </trkpt>
      <trkpt lat="40.563337" lon="0.193342">
        <ele>477.933</ele>
        <time>2018-09-30T09:33:07Z</time>
      </trkpt>
      <trkpt lat="40.563401" lon="0.193109">
        <ele>479.874</ele>
        <time>2018-09-30T09:33:14Z</time>
      </trkpt>
      <trkpt lat="40.563401" lon="0.192899">
        <ele>481.245</ele>
        <time>2018-09-30T09:33:20Z</time>
      </trkpt>
      <trkpt lat="40.563418" lon="0.192713">
        <ele>483.247</ele>
        <time>2018-09-30T09:33:26Z</time>
      </trkpt>
      <trkpt lat="40.563459" lon="0.192431">
        <ele>485.111</ele>
        <time>2018-09-30T09:33:35Z</time>
      </trkpt>
      <trkpt lat="40.563496" lon="0.192199">
        <ele>487.008</ele>
        <time>2018-09-30T09:33:43Z</time>
      </trkpt>
      <trkpt lat="40.563532" lon="0.191889">
        <ele>489.417</ele>
        <time>2018-09-30T09:33:53Z</time>
      </trkpt>
      <trkpt lat="40.563578" lon="0.191614">
        <ele>492.874</ele>
        <time>2018-09-30T09:34:02Z</time>
      </trkpt>
      <trkpt lat="40.563661" lon="0.191372">
        <ele>495.718</ele>
        <time>2018-09-30T09:34:11Z</time>
      </trkpt>
      <trkpt lat="40.563730" lon="0.191237">
        <ele>497.116</ele>
        <time>2018-09-30T09:34:17Z</time>
      </trkpt>
      <trkpt lat="40.563735" lon="0.191042">
        <ele>498.514</ele>
        <time>2018-09-30T09:34:24Z</time>
      </trkpt>
      <trkpt lat="40.563738" lon="0.191015">
        <ele>499.067</ele>
        <time>2018-09-30T09:34:25Z</time>
      </trkpt>
      <trkpt lat="40.563804" lon="0.190760">
        <ele>501.456</ele>
        <time>2018-09-30T09:34:34Z</time>
      </trkpt>
      <trkpt lat="40.563846" lon="0.190478">
        <ele>502.477</ele>
        <time>2018-09-30T09:34:43Z</time>
      </trkpt>
      <trkpt lat="40.563856" lon="0.190224">
        <ele>503.811</ele>
        <time>2018-09-30T09:34:51Z</time>
      </trkpt>
      <trkpt lat="40.563908" lon="0.189990">
        <ele>505.721</ele>
        <time>2018-09-30T09:34:58Z</time>
      </trkpt>
      <trkpt lat="40.564000" lon="0.189732">
        <ele>506.203</ele>
        <time>2018-09-30T09:35:06Z</time>
      </trkpt>
      <trkpt lat="40.564072" lon="0.189526">
        <ele>507.708</ele>
        <time>2018-09-30T09:35:12Z</time>
      </trkpt>
      <trkpt lat="40.564195" lon="0.189159">
        <ele>509.634</ele>
        <time>2018-09-30T09:35:22Z</time>
      </trkpt>
      <trkpt lat="40.564342" lon="0.188894">
        <ele>510.651</ele>
        <time>2018-09-30T09:35:30Z</time>
      </trkpt>
      <trkpt lat="40.564437" lon="0.188603">
        <ele>512.565</ele>
        <time>2018-09-30T09:35:38Z</time>
      </trkpt>
      <trkpt lat="40.564575" lon="0.188191">
        <ele>513.973</ele>
        <time>2018-09-30T09:35:49Z</time>
      </trkpt>
      <trkpt lat="40.564619" lon="0.188116">
        <ele>514.431</ele>
        <time>2018-09-30T09:35:52Z</time>
      </trkpt>
      <trkpt lat="40.564719" lon="0.187916">
        <ele>515.824</ele>
        <time>2018-09-30T09:35:59Z</time>
      </trkpt>
      <trkpt lat="40.564734" lon="0.187738">
        <ele>516.833</ele>
        <time>2018-09-30T09:36:04Z</time>
      </trkpt>
      <trkpt lat="40.564732" lon="0.187537">
        <ele>518.714</ele>
        <time>2018-09-30T09:36:10Z</time>
      </trkpt>
      <trkpt lat="40.564707" lon="0.187228">
        <ele>521.183</ele>
        <time>2018-09-30T09:36:19Z</time>
      </trkpt>
      <trkpt lat="40.564707" lon="0.187030">
        <ele>520.625</ele>
        <time>2018-09-30T09:36:27Z</time>
      </trkpt>
      <trkpt lat="40.564680" lon="0.186815">
        <ele>522.117</ele>
        <time>2018-09-30T09:36:33Z</time>
      </trkpt>
      <trkpt lat="40.564624" lon="0.186517">
        <ele>523.008</ele>
        <time>2018-09-30T09:36:40Z</time>
      </trkpt>
      <trkpt lat="40.564545" lon="0.186337">
        <ele>523.011</ele>
        <time>2018-09-30T09:36:44Z</time>
      </trkpt>
      <trkpt lat="40.564517" lon="0.186299">
        <ele>523.048</ele>
        <time>2018-09-30T09:36:45Z</time>
      </trkpt>
      <trkpt lat="40.564483" lon="0.186262">
        <ele>523.092</ele>
        <time>2018-09-30T09:36:46Z</time>
      </trkpt>
      <trkpt lat="40.564447" lon="0.186229">
        <ele>521.650</ele>
        <time>2018-09-30T09:36:47Z</time>
      </trkpt>
      <trkpt lat="40.564413" lon="0.186196">
        <ele>521.628</ele>
        <time>2018-09-30T09:36:48Z</time>
      </trkpt>
      <trkpt lat="40.564378" lon="0.186160">
        <ele>521.621</ele>
        <time>2018-09-30T09:36:49Z</time>
      </trkpt>
      <trkpt lat="40.564315" lon="0.186089">
        <ele>521.630</ele>
        <time>2018-09-30T09:36:51Z</time>
      </trkpt>
      <trkpt lat="40.564134" lon="0.185916">
        <ele>520.651</ele>
        <time>2018-09-30T09:36:56Z</time>
      </trkpt>
      <trkpt lat="40.563881" lon="0.185599">
        <ele>520.667</ele>
        <time>2018-09-30T09:37:04Z</time>
      </trkpt>
      <trkpt lat="40.563634" lon="0.185344">
        <ele>519.781</ele>
        <time>2018-09-30T09:37:11Z</time>
      </trkpt>
      <trkpt lat="40.563588" lon="0.185280">
        <ele>518.719</ele>
        <time>2018-09-30T09:37:12Z</time>
      </trkpt>
      <trkpt lat="40.563543" lon="0.185213">
        <ele>518.208</ele>
        <time>2018-09-30T09:37:13Z</time>
      </trkpt>
      <trkpt lat="40.563443" lon="0.185083">
        <ele>517.389</ele>
        <time>2018-09-30T09:37:15Z</time>
      </trkpt>
      <trkpt lat="40.563219" lon="0.184845">
        <ele>516.366</ele>
        <time>2018-09-30T09:37:19Z</time>
      </trkpt>
      <trkpt lat="40.563151" lon="0.184803">
        <ele>515.850</ele>
        <time>2018-09-30T09:37:20Z</time>
      </trkpt>
      <trkpt lat="40.563079" lon="0.184783">
        <ele>515.868</ele>
        <time>2018-09-30T09:37:21Z</time>
      </trkpt>
      <trkpt lat="40.563006" lon="0.184791">
        <ele>515.436</ele>
        <time>2018-09-30T09:37:22Z</time>
      </trkpt>
      <trkpt lat="40.562942" lon="0.184808">
        <ele>515.459</ele>
        <time>2018-09-30T09:37:23Z</time>
      </trkpt>
      <trkpt lat="40.562730" lon="0.184832">
        <ele>515.428</ele>
        <time>2018-09-30T09:37:27Z</time>
      </trkpt>
      <trkpt lat="40.562643" lon="0.184855">
        <ele>517.359</ele>
        <time>2018-09-30T09:37:29Z</time>
      </trkpt>
      <trkpt lat="40.562605" lon="0.184871">
        <ele>517.371</ele>
        <time>2018-09-30T09:37:30Z</time>
      </trkpt>
      <trkpt lat="40.562405" lon="0.184855">
        <ele>519.741</ele>
        <time>2018-09-30T09:37:36Z</time>
      </trkpt>
      <trkpt lat="40.562334" lon="0.184646">
        <ele>520.215</ele>
        <time>2018-09-30T09:37:41Z</time>
      </trkpt>
      <trkpt lat="40.562288" lon="0.184362">
        <ele>520.208</ele>
        <time>2018-09-30T09:37:47Z</time>
      </trkpt>
      <trkpt lat="40.562274" lon="0.184311">
        <ele>520.250</ele>
        <time>2018-09-30T09:37:48Z</time>
      </trkpt>
      <trkpt lat="40.562239" lon="0.184193">
        <ele>518.737</ele>
        <time>2018-09-30T09:37:50Z</time>
      </trkpt>
      <trkpt lat="40.562202" lon="0.184052">
        <ele>517.371</ele>
        <time>2018-09-30T09:37:52Z</time>
      </trkpt>
      <trkpt lat="40.562177" lon="0.183889">
        <ele>516.339</ele>
        <time>2018-09-30T09:37:54Z</time>
      </trkpt>
      <trkpt lat="40.562166" lon="0.183802">
        <ele>515.827</ele>
        <time>2018-09-30T09:37:55Z</time>
      </trkpt>
      <trkpt lat="40.562154" lon="0.183703">
        <ele>515.470</ele>
        <time>2018-09-30T09:37:56Z</time>
      </trkpt>
      <trkpt lat="40.562093" lon="0.183215">
        <ele>512.549</ele>
        <time>2018-09-30T09:38:01Z</time>
      </trkpt>
      <trkpt lat="40.562090" lon="0.183116">
        <ele>511.580</ele>
        <time>2018-09-30T09:38:02Z</time>
      </trkpt>
      <trkpt lat="40.562096" lon="0.183010">
        <ele>511.571</ele>
        <time>2018-09-30T09:38:03Z</time>
      </trkpt>
      <trkpt lat="40.562109" lon="0.182589">
        <ele>509.141</ele>
        <time>2018-09-30T09:38:07Z</time>
      </trkpt>
      <trkpt lat="40.562036" lon="0.182045">
        <ele>505.715</ele>
        <time>2018-09-30T09:38:12Z</time>
      </trkpt>
      <trkpt lat="40.561972" lon="0.181827">
        <ele>505.308</ele>
        <time>2018-09-30T09:38:15Z</time>
      </trkpt>
      <trkpt lat="40.561932" lon="0.181774">
        <ele>504.340</ele>
        <time>2018-09-30T09:38:16Z</time>
      </trkpt>
      <trkpt lat="40.561883" lon="0.181733">
        <ele>503.877</ele>
        <time>2018-09-30T09:38:17Z</time>
      </trkpt>
      <trkpt lat="40.561825" lon="0.181701">
        <ele>502.951</ele>
        <time>2018-09-30T09:38:18Z</time>
      </trkpt>
      <trkpt lat="40.561763" lon="0.181682">
        <ele>502.429</ele>
        <time>2018-09-30T09:38:19Z</time>
      </trkpt>
      <trkpt lat="40.561692" lon="0.181681">
        <ele>501.987</ele>
        <time>2018-09-30T09:38:20Z</time>
      </trkpt>
      <trkpt lat="40.561623" lon="0.181685">
        <ele>500.940</ele>
        <time>2018-09-30T09:38:21Z</time>
      </trkpt>
      <trkpt lat="40.561548" lon="0.181679">
        <ele>500.539</ele>
        <time>2018-09-30T09:38:22Z</time>
      </trkpt>
      <trkpt lat="40.561474" lon="0.181666">
        <ele>499.530</ele>
        <time>2018-09-30T09:38:23Z</time>
      </trkpt>
      <trkpt lat="40.561242" lon="0.181593">
        <ele>498.184</ele>
        <time>2018-09-30T09:38:26Z</time>
      </trkpt>
      <trkpt lat="40.561183" lon="0.181549">
        <ele>497.107</ele>
        <time>2018-09-30T09:38:27Z</time>
      </trkpt>
      <trkpt lat="40.561137" lon="0.181487">
        <ele>497.117</ele>
        <time>2018-09-30T09:38:28Z</time>
      </trkpt>
      <trkpt lat="40.561106" lon="0.181412">
        <ele>496.608</ele>
        <time>2018-09-30T09:38:29Z</time>
      </trkpt>
      <trkpt lat="40.561087" lon="0.181335">
        <ele>496.681</ele>
        <time>2018-09-30T09:38:30Z</time>
      </trkpt>
      <trkpt lat="40.561070" lon="0.181258">
        <ele>496.648</ele>
        <time>2018-09-30T09:38:31Z</time>
      </trkpt>
      <trkpt lat="40.561050" lon="0.181189">
        <ele>496.112</ele>
        <time>2018-09-30T09:38:32Z</time>
      </trkpt>
      <trkpt lat="40.561025" lon="0.181119">
        <ele>495.770</ele>
        <time>2018-09-30T09:38:33Z</time>
      </trkpt>
      <trkpt lat="40.560993" lon="0.181053">
        <ele>495.778</ele>
        <time>2018-09-30T09:38:34Z</time>
      </trkpt>
      <trkpt lat="40.560948" lon="0.180987">
        <ele>495.231</ele>
        <time>2018-09-30T09:38:35Z</time>
      </trkpt>
      <trkpt lat="40.560898" lon="0.180929">
        <ele>494.730</ele>
        <time>2018-09-30T09:38:36Z</time>
      </trkpt>
      <trkpt lat="40.560843" lon="0.180862">
        <ele>493.791</ele>
        <time>2018-09-30T09:38:37Z</time>
      </trkpt>
      <trkpt lat="40.560792" lon="0.180785">
        <ele>492.852</ele>
        <time>2018-09-30T09:38:38Z</time>
      </trkpt>
      <trkpt lat="40.560743" lon="0.180695">
        <ele>491.853</ele>
        <time>2018-09-30T09:38:39Z</time>
      </trkpt>
      <trkpt lat="40.560703" lon="0.180602">
        <ele>491.308</ele>
        <time>2018-09-30T09:38:40Z</time>
      </trkpt>
      <trkpt lat="40.560662" lon="0.180505">
        <ele>490.808</ele>
        <time>2018-09-30T09:38:41Z</time>
      </trkpt>
      <trkpt lat="40.560623" lon="0.180423">
        <ele>490.458</ele>
        <time>2018-09-30T09:38:42Z</time>
      </trkpt>
      <trkpt lat="40.560591" lon="0.180342">
        <ele>489.925</ele>
        <time>2018-09-30T09:38:43Z</time>
      </trkpt>
      <trkpt lat="40.560573" lon="0.180259">
        <ele>489.929</ele>
        <time>2018-09-30T09:38:44Z</time>
      </trkpt>
      <trkpt lat="40.560573" lon="0.180179">
        <ele>489.997</ele>
        <time>2018-09-30T09:38:45Z</time>
      </trkpt>
      <trkpt lat="40.560592" lon="0.180108">
        <ele>489.995</ele>
        <time>2018-09-30T09:38:46Z</time>
      </trkpt>
      <trkpt lat="40.560622" lon="0.180053">
        <ele>489.948</ele>
        <time>2018-09-30T09:38:47Z</time>
      </trkpt>
      <trkpt lat="40.560657" lon="0.180010">
        <ele>489.927</ele>
        <time>2018-09-30T09:38:48Z</time>
      </trkpt>
      <trkpt lat="40.560696" lon="0.179982">
        <ele>489.998</ele>
        <time>2018-09-30T09:38:49Z</time>
      </trkpt>
      <trkpt lat="40.560737" lon="0.179958">
        <ele>489.966</ele>
        <time>2018-09-30T09:38:50Z</time>
      </trkpt>
      <trkpt lat="40.560778" lon="0.179932">
        <ele>489.929</ele>
        <time>2018-09-30T09:38:51Z</time>
      </trkpt>
      <trkpt lat="40.560817" lon="0.179899">
        <ele>490.821</ele>
        <time>2018-09-30T09:38:52Z</time>
      </trkpt>
      <trkpt lat="40.560854" lon="0.179869">
        <ele>492.308</ele>
        <time>2018-09-30T09:38:53Z</time>
      </trkpt>
      <trkpt lat="40.560895" lon="0.179841">
        <ele>492.349</ele>
        <time>2018-09-30T09:38:54Z</time>
      </trkpt>
      <trkpt lat="40.560933" lon="0.179820">
        <ele>492.346</ele>
        <time>2018-09-30T09:38:55Z</time>
      </trkpt>
      <trkpt lat="40.561012" lon="0.179786">
        <ele>492.830</ele>
        <time>2018-09-30T09:38:57Z</time>
      </trkpt>
      <trkpt lat="40.561053" lon="0.179777">
        <ele>492.878</ele>
        <time>2018-09-30T09:38:58Z</time>
      </trkpt>
      <trkpt lat="40.561092" lon="0.179765">
        <ele>492.866</ele>
        <time>2018-09-30T09:38:59Z</time>
      </trkpt>
      <trkpt lat="40.561130" lon="0.179748">
        <ele>493.729</ele>
        <time>2018-09-30T09:39:00Z</time>
      </trkpt>
      <trkpt lat="40.561165" lon="0.179732">
        <ele>493.748</ele>
        <time>2018-09-30T09:39:01Z</time>
      </trkpt>
      <trkpt lat="40.561409" lon="0.179650">
        <ele>495.759</ele>
        <time>2018-09-30T09:39:08Z</time>
      </trkpt>
      <trkpt lat="40.561531" lon="0.179498">
        <ele>497.114</ele>
        <time>2018-09-30T09:39:13Z</time>
      </trkpt>
      <trkpt lat="40.561647" lon="0.179217">
        <ele>497.154</ele>
        <time>2018-09-30T09:39:20Z</time>
      </trkpt>
      <trkpt lat="40.561825" lon="0.178865">
        <ele>497.109</ele>
        <time>2018-09-30T09:39:29Z</time>
      </trkpt>
      <trkpt lat="40.561933" lon="0.178495">
        <ele>497.108</ele>
        <time>2018-09-30T09:39:36Z</time>
      </trkpt>
      <trkpt lat="40.561945" lon="0.178111">
        <ele>499.054</ele>
        <time>2018-09-30T09:39:44Z</time>
      </trkpt>
      <trkpt lat="40.561928" lon="0.177739">
        <ele>500.911</ele>
        <time>2018-09-30T09:39:52Z</time>
      </trkpt>
      <trkpt lat="40.561880" lon="0.177537">
        <ele>500.985</ele>
        <time>2018-09-30T09:39:57Z</time>
      </trkpt>
      <trkpt lat="40.561872" lon="0.177477">
        <ele>500.933</ele>
        <time>2018-09-30T09:39:58Z</time>
      </trkpt>
      <trkpt lat="40.561867" lon="0.177417">
        <ele>500.981</ele>
        <time>2018-09-30T09:39:59Z</time>
      </trkpt>
      <trkpt lat="40.561861" lon="0.177361">
        <ele>500.914</ele>
        <time>2018-09-30T09:40:00Z</time>
      </trkpt>
      <trkpt lat="40.561855" lon="0.177301">
        <ele>500.923</ele>
        <time>2018-09-30T09:40:01Z</time>
      </trkpt>
      <trkpt lat="40.561833" lon="0.177199">
        <ele>500.084</ele>
        <time>2018-09-30T09:40:03Z</time>
      </trkpt>
      <trkpt lat="40.561788" lon="0.177061">
        <ele>499.554</ele>
        <time>2018-09-30T09:40:06Z</time>
      </trkpt>
      <trkpt lat="40.561777" lon="0.177010">
        <ele>499.556</ele>
        <time>2018-09-30T09:40:07Z</time>
      </trkpt>
      <trkpt lat="40.561768" lon="0.176953">
        <ele>499.011</ele>
        <time>2018-09-30T09:40:08Z</time>
      </trkpt>
      <trkpt lat="40.561763" lon="0.176901">
        <ele>499.008</ele>
        <time>2018-09-30T09:40:09Z</time>
      </trkpt>
      <trkpt lat="40.561760" lon="0.176842">
        <ele>499.038</ele>
        <time>2018-09-30T09:40:10Z</time>
      </trkpt>
      <trkpt lat="40.561749" lon="0.176731">
        <ele>499.035</ele>
        <time>2018-09-30T09:40:12Z</time>
      </trkpt>
      <trkpt lat="40.561735" lon="0.176681">
        <ele>499.069</ele>
        <time>2018-09-30T09:40:13Z</time>
      </trkpt>
      <trkpt lat="40.561712" lon="0.176632">
        <ele>499.087</ele>
        <time>2018-09-30T09:40:14Z</time>
      </trkpt>
      <trkpt lat="40.561687" lon="0.176585">
        <ele>499.045</ele>
        <time>2018-09-30T09:40:15Z</time>
      </trkpt>
      <trkpt lat="40.561670" lon="0.176540">
        <ele>499.048</ele>
        <time>2018-09-30T09:40:16Z</time>
      </trkpt>
      <trkpt lat="40.561654" lon="0.176491">
        <ele>498.527</ele>
        <time>2018-09-30T09:40:17Z</time>
      </trkpt>
      <trkpt lat="40.561638" lon="0.176449">
        <ele>498.558</ele>
        <time>2018-09-30T09:40:18Z</time>
      </trkpt>
      <trkpt lat="40.561614" lon="0.176405">
        <ele>498.511</ele>
        <time>2018-09-30T09:40:19Z</time>
      </trkpt>
      <trkpt lat="40.561586" lon="0.176357">
        <ele>498.521</ele>
        <time>2018-09-30T09:40:20Z</time>
      </trkpt>
      <trkpt lat="40.561561" lon="0.176309">
        <ele>498.103</ele>
        <time>2018-09-30T09:40:21Z</time>
      </trkpt>
      <trkpt lat="40.561496" lon="0.176188">
        <ele>497.108</ele>
        <time>2018-09-30T09:40:23Z</time>
      </trkpt>
      <trkpt lat="40.561449" lon="0.176120">
        <ele>496.154</ele>
        <time>2018-09-30T09:40:24Z</time>
      </trkpt>
      <trkpt lat="40.561260" lon="0.175823">
        <ele>492.831</ele>
        <time>2018-09-30T09:40:28Z</time>
      </trkpt>
      <trkpt lat="40.561168" lon="0.175690">
        <ele>490.875</ele>
        <time>2018-09-30T09:40:30Z</time>
      </trkpt>
      <trkpt lat="40.561114" lon="0.175632">
        <ele>489.973</ele>
        <time>2018-09-30T09:40:31Z</time>
      </trkpt>
      <trkpt lat="40.561060" lon="0.175588">
        <ele>489.481</ele>
        <time>2018-09-30T09:40:32Z</time>
      </trkpt>
      <trkpt lat="40.560999" lon="0.175552">
        <ele>487.574</ele>
        <time>2018-09-30T09:40:33Z</time>
      </trkpt>
      <trkpt lat="40.560945" lon="0.175529">
        <ele>487.583</ele>
        <time>2018-09-30T09:40:34Z</time>
      </trkpt>
      <trkpt lat="40.560894" lon="0.175506">
        <ele>486.084</ele>
        <time>2018-09-30T09:40:35Z</time>
      </trkpt>
      <trkpt lat="40.560845" lon="0.175474">
        <ele>486.025</ele>
        <time>2018-09-30T09:40:36Z</time>
      </trkpt>
      <trkpt lat="40.560803" lon="0.175427">
        <ele>485.126</ele>
        <time>2018-09-30T09:40:37Z</time>
      </trkpt>
      <trkpt lat="40.560765" lon="0.175367">
        <ele>484.108</ele>
        <time>2018-09-30T09:40:38Z</time>
      </trkpt>
      <trkpt lat="40.560732" lon="0.175308">
        <ele>483.608</ele>
        <time>2018-09-30T09:40:39Z</time>
      </trkpt>
      <trkpt lat="40.560697" lon="0.175253">
        <ele>482.795</ele>
        <time>2018-09-30T09:40:40Z</time>
      </trkpt>
      <trkpt lat="40.560655" lon="0.175213">
        <ele>481.772</ele>
        <time>2018-09-30T09:40:41Z</time>
      </trkpt>
      <trkpt lat="40.560600" lon="0.175194">
        <ele>481.746</ele>
        <time>2018-09-30T09:40:42Z</time>
      </trkpt>
      <trkpt lat="40.560489" lon="0.175184">
        <ele>481.714</ele>
        <time>2018-09-30T09:40:44Z</time>
      </trkpt>
      <trkpt lat="40.560437" lon="0.175191">
        <ele>481.222</ele>
        <time>2018-09-30T09:40:45Z</time>
      </trkpt>
      <trkpt lat="40.560388" lon="0.175206">
        <ele>481.255</ele>
        <time>2018-09-30T09:40:46Z</time>
      </trkpt>
      <trkpt lat="40.560342" lon="0.175224">
        <ele>481.244</ele>
        <time>2018-09-30T09:40:47Z</time>
      </trkpt>
      <trkpt lat="40.560302" lon="0.175245">
        <ele>481.215</ele>
        <time>2018-09-30T09:40:48Z</time>
      </trkpt>
      <trkpt lat="40.560268" lon="0.175274">
        <ele>481.243</ele>
        <time>2018-09-30T09:40:49Z</time>
      </trkpt>
      <trkpt lat="40.560237" lon="0.175304">
        <ele>482.764</ele>
        <time>2018-09-30T09:40:50Z</time>
      </trkpt>
      <trkpt lat="40.560213" lon="0.175343">
        <ele>482.710</ele>
        <time>2018-09-30T09:40:51Z</time>
      </trkpt>
      <trkpt lat="40.560192" lon="0.175380">
        <ele>483.608</ele>
        <time>2018-09-30T09:40:52Z</time>
      </trkpt>
      <trkpt lat="40.560162" lon="0.175406">
        <ele>483.637</ele>
        <time>2018-09-30T09:40:53Z</time>
      </trkpt>
      <trkpt lat="40.560135" lon="0.175418">
        <ele>484.134</ele>
        <time>2018-09-30T09:40:54Z</time>
      </trkpt>
      <trkpt lat="40.560101" lon="0.175419">
        <ele>484.658</ele>
        <time>2018-09-30T09:40:55Z</time>
      </trkpt>
      <trkpt lat="40.560068" lon="0.175408">
        <ele>485.196</ele>
        <time>2018-09-30T09:40:56Z</time>
      </trkpt>
      <trkpt lat="40.560041" lon="0.175397">
        <ele>485.194</ele>
        <time>2018-09-30T09:40:57Z</time>
      </trkpt>
      <trkpt lat="40.560006" lon="0.175388">
        <ele>485.177</ele>
        <time>2018-09-30T09:40:58Z</time>
      </trkpt>
      <trkpt lat="40.559806" lon="0.175253">
        <ele>485.196</ele>
        <time>2018-09-30T09:41:04Z</time>
      </trkpt>
      <trkpt lat="40.559671" lon="0.174980">
        <ele>487.537</ele>
        <time>2018-09-30T09:41:11Z</time>
      </trkpt>
      <trkpt lat="40.559539" lon="0.174878">
        <ele>488.022</ele>
        <time>2018-09-30T09:41:17Z</time>
      </trkpt>
      <trkpt lat="40.559379" lon="0.174800">
        <ele>491.862</ele>
        <time>2018-09-30T09:41:24Z</time>
      </trkpt>
      <trkpt lat="40.559223" lon="0.174668">
        <ele>493.208</ele>
        <time>2018-09-30T09:41:32Z</time>
      </trkpt>
      <trkpt lat="40.559155" lon="0.174458">
        <ele>494.708</ele>
        <time>2018-09-30T09:41:39Z</time>
      </trkpt>
      <trkpt lat="40.559031" lon="0.174215">
        <ele>498.595</ele>
        <time>2018-09-30T09:41:47Z</time>
      </trkpt>
      <trkpt lat="40.558831" lon="0.173991">
        <ele>500.962</ele>
        <time>2018-09-30T09:41:57Z</time>
      </trkpt>
      <trkpt lat="40.558643" lon="0.173884">
        <ele>501.456</ele>
        <time>2018-09-30T09:42:05Z</time>
      </trkpt>
      <trkpt lat="40.558474" lon="0.173931">
        <ele>501.464</ele>
        <time>2018-09-30T09:42:11Z</time>
      </trkpt>
      <trkpt lat="40.558411" lon="0.173989">
        <ele>501.432</ele>
        <time>2018-09-30T09:42:13Z</time>
      </trkpt>
      <trkpt lat="40.558370" lon="0.174010">
        <ele>501.415</ele>
        <time>2018-09-30T09:42:14Z</time>
      </trkpt>
      <trkpt lat="40.558326" lon="0.174012">
        <ele>500.054</ele>
        <time>2018-09-30T09:42:15Z</time>
      </trkpt>
      <trkpt lat="40.558287" lon="0.174000">
        <ele>500.025</ele>
        <time>2018-09-30T09:42:16Z</time>
      </trkpt>
      <trkpt lat="40.558251" lon="0.173978">
        <ele>500.044</ele>
        <time>2018-09-30T09:42:17Z</time>
      </trkpt>
      <trkpt lat="40.558219" lon="0.173946">
        <ele>500.005</ele>
        <time>2018-09-30T09:42:18Z</time>
      </trkpt>
      <trkpt lat="40.558188" lon="0.173904">
        <ele>500.015</ele>
        <time>2018-09-30T09:42:19Z</time>
      </trkpt>
      <trkpt lat="40.558160" lon="0.173859">
        <ele>500.008</ele>
        <time>2018-09-30T09:42:20Z</time>
      </trkpt>
      <trkpt lat="40.558124" lon="0.173810">
        <ele>500.057</ele>
        <time>2018-09-30T09:42:21Z</time>
      </trkpt>
      <trkpt lat="40.558038" lon="0.173710">
        <ele>498.534</ele>
        <time>2018-09-30T09:42:23Z</time>
      </trkpt>
      <trkpt lat="40.557963" lon="0.173599">
        <ele>498.138</ele>
        <time>2018-09-30T09:42:25Z</time>
      </trkpt>
      <trkpt lat="40.557921" lon="0.173556">
        <ele>498.126</ele>
        <time>2018-09-30T09:42:26Z</time>
      </trkpt>
      <trkpt lat="40.557874" lon="0.173519">
        <ele>497.634</ele>
        <time>2018-09-30T09:42:27Z</time>
      </trkpt>
      <trkpt lat="40.557827" lon="0.173489">
        <ele>497.677</ele>
        <time>2018-09-30T09:42:28Z</time>
      </trkpt>
      <trkpt lat="40.557777" lon="0.173465">
        <ele>497.646</ele>
        <time>2018-09-30T09:42:29Z</time>
      </trkpt>
      <trkpt lat="40.557728" lon="0.173449">
        <ele>497.117</ele>
        <time>2018-09-30T09:42:30Z</time>
      </trkpt>
      <trkpt lat="40.557676" lon="0.173440">
        <ele>497.157</ele>
        <time>2018-09-30T09:42:31Z</time>
      </trkpt>
      <trkpt lat="40.557627" lon="0.173436">
        <ele>497.100</ele>
        <time>2018-09-30T09:42:32Z</time>
      </trkpt>
      <trkpt lat="40.557573" lon="0.173438">
        <ele>497.120</ele>
        <time>2018-09-30T09:42:33Z</time>
      </trkpt>
      <trkpt lat="40.557197" lon="0.173484">
        <ele>497.108</ele>
        <time>2018-09-30T09:42:41Z</time>
      </trkpt>
      <trkpt lat="40.557113" lon="0.173495">
        <ele>497.178</ele>
        <time>2018-09-30T09:42:43Z</time>
      </trkpt>
      <trkpt lat="40.557033" lon="0.173516">
        <ele>498.155</ele>
        <time>2018-09-30T09:42:45Z</time>
      </trkpt>
      <trkpt lat="40.556912" lon="0.173558">
        <ele>499.099</ele>
        <time>2018-09-30T09:42:48Z</time>
      </trkpt>
      <trkpt lat="40.556876" lon="0.173586">
        <ele>499.077</ele>
        <time>2018-09-30T09:42:49Z</time>
      </trkpt>
      <trkpt lat="40.556844" lon="0.173621">
        <ele>499.075</ele>
        <time>2018-09-30T09:42:50Z</time>
      </trkpt>
      <trkpt lat="40.556816" lon="0.173668">
        <ele>499.098</ele>
        <time>2018-09-30T09:42:51Z</time>
      </trkpt>
      <trkpt lat="40.556796" lon="0.173724">
        <ele>499.087</ele>
        <time>2018-09-30T09:42:52Z</time>
      </trkpt>
      <trkpt lat="40.556778" lon="0.173784">
        <ele>497.698</ele>
        <time>2018-09-30T09:42:53Z</time>
      </trkpt>
      <trkpt lat="40.556739" lon="0.173907">
        <ele>496.697</ele>
        <time>2018-09-30T09:42:55Z</time>
      </trkpt>
      <trkpt lat="40.556709" lon="0.173952">
        <ele>496.623</ele>
        <time>2018-09-30T09:42:56Z</time>
      </trkpt>
      <trkpt lat="40.556667" lon="0.173979">
        <ele>496.125</ele>
        <time>2018-09-30T09:42:57Z</time>
      </trkpt>
      <trkpt lat="40.556627" lon="0.173990">
        <ele>496.108</ele>
        <time>2018-09-30T09:42:58Z</time>
      </trkpt>
      <trkpt lat="40.556585" lon="0.173996">
        <ele>496.172</ele>
        <time>2018-09-30T09:42:59Z</time>
      </trkpt>
      <trkpt lat="40.556383" lon="0.173933">
        <ele>498.169</ele>
        <time>2018-09-30T09:43:05Z</time>
      </trkpt>
      <trkpt lat="40.556204" lon="0.173892">
        <ele>498.123</ele>
        <time>2018-09-30T09:43:11Z</time>
      </trkpt>
      <trkpt lat="40.555979" lon="0.173972">
        <ele>498.571</ele>
        <time>2018-09-30T09:43:18Z</time>
      </trkpt>
      <trkpt lat="40.555948" lon="0.173962">
        <ele>498.579</ele>
        <time>2018-09-30T09:43:19Z</time>
      </trkpt>
      <trkpt lat="40.555919" lon="0.173934">
        <ele>498.522</ele>
        <time>2018-09-30T09:43:20Z</time>
      </trkpt>
      <trkpt lat="40.555895" lon="0.173893">
        <ele>498.511</ele>
        <time>2018-09-30T09:43:21Z</time>
      </trkpt>
      <trkpt lat="40.555883" lon="0.173852">
        <ele>498.512</ele>
        <time>2018-09-30T09:43:22Z</time>
      </trkpt>
      <trkpt lat="40.555879" lon="0.173805">
        <ele>499.044</ele>
        <time>2018-09-30T09:43:23Z</time>
      </trkpt>
      <trkpt lat="40.555879" lon="0.173761">
        <ele>499.005</ele>
        <time>2018-09-30T09:43:24Z</time>
      </trkpt>
      <trkpt lat="40.555890" lon="0.173443">
        <ele>500.915</ele>
        <time>2018-09-30T09:43:32Z</time>
      </trkpt>
      <trkpt lat="40.555752" lon="0.173284">
        <ele>502.408</ele>
        <time>2018-09-30T09:43:38Z</time>
      </trkpt>
      <trkpt lat="40.555572" lon="0.173183">
        <ele>503.857</ele>
        <time>2018-09-30T09:43:45Z</time>
      </trkpt>
      <trkpt lat="40.555364" lon="0.173051">
        <ele>504.354</ele>
        <time>2018-09-30T09:43:53Z</time>
      </trkpt>
      <trkpt lat="40.555129" lon="0.172955">
        <ele>502.928</ele>
        <time>2018-09-30T09:44:00Z</time>
      </trkpt>
      <trkpt lat="40.554941" lon="0.173077">
        <ele>502.936</ele>
        <time>2018-09-30T09:44:06Z</time>
      </trkpt>
      <trkpt lat="40.554623" lon="0.173188">
        <ele>502.934</ele>
        <time>2018-09-30T09:44:15Z</time>
      </trkpt>
      <trkpt lat="40.554343" lon="0.173175">
        <ele>501.927</ele>
        <time>2018-09-30T09:44:22Z</time>
      </trkpt>
      <trkpt lat="40.554090" lon="0.173125">
        <ele>502.986</ele>
        <time>2018-09-30T09:44:30Z</time>
      </trkpt>
      <trkpt lat="40.553863" lon="0.173246">
        <ele>504.347</ele>
        <time>2018-09-30T09:44:38Z</time>
      </trkpt>
      <trkpt lat="40.553711" lon="0.173339">
        <ele>504.395</ele>
        <time>2018-09-30T09:44:44Z</time>
      </trkpt>
      <trkpt lat="40.553690" lon="0.173318">
        <ele>504.349</ele>
        <time>2018-09-30T09:44:45Z</time>
      </trkpt>
      <trkpt lat="40.553674" lon="0.173285">
        <ele>504.323</ele>
        <time>2018-09-30T09:44:46Z</time>
      </trkpt>
      <trkpt lat="40.553662" lon="0.173249">
        <ele>504.308</ele>
        <time>2018-09-30T09:44:47Z</time>
      </trkpt>
      <trkpt lat="40.553656" lon="0.173211">
        <ele>504.352</ele>
        <time>2018-09-30T09:44:48Z</time>
      </trkpt>
      <trkpt lat="40.553657" lon="0.173173">
        <ele>505.369</ele>
        <time>2018-09-30T09:44:49Z</time>
      </trkpt>
      <trkpt lat="40.553662" lon="0.173140">
        <ele>505.393</ele>
        <time>2018-09-30T09:44:50Z</time>
      </trkpt>
      <trkpt lat="40.553669" lon="0.173109">
        <ele>505.391</ele>
        <time>2018-09-30T09:44:51Z</time>
      </trkpt>
      <trkpt lat="40.553673" lon="0.173077">
        <ele>505.749</ele>
        <time>2018-09-30T09:44:52Z</time>
      </trkpt>
      <trkpt lat="40.553678" lon="0.173051">
        <ele>505.722</ele>
        <time>2018-09-30T09:44:53Z</time>
      </trkpt>
      <trkpt lat="40.553687" lon="0.173026">
        <ele>505.741</ele>
        <time>2018-09-30T09:44:54Z</time>
      </trkpt>
      <trkpt lat="40.553694" lon="0.173000">
        <ele>505.762</ele>
        <time>2018-09-30T09:44:55Z</time>
      </trkpt>
      <trkpt lat="40.553700" lon="0.172975">
        <ele>505.743</ele>
        <time>2018-09-30T09:44:56Z</time>
      </trkpt>
      <trkpt lat="40.553802" lon="0.172741">
        <ele>507.764</ele>
        <time>2018-09-30T09:45:05Z</time>
      </trkpt>
      <trkpt lat="40.553922" lon="0.172604">
        <ele>509.110</ele>
        <time>2018-09-30T09:45:12Z</time>
      </trkpt>
      <trkpt lat="40.554032" lon="0.172508">
        <ele>509.108</ele>
        <time>2018-09-30T09:45:18Z</time>
      </trkpt>
      <trkpt lat="40.554137" lon="0.172418">
        <ele>510.667</ele>
        <time>2018-09-30T09:45:24Z</time>
      </trkpt>
      <trkpt lat="40.554248" lon="0.172288">
        <ele>512.054</ele>
        <time>2018-09-30T09:45:31Z</time>
      </trkpt>
      <trkpt lat="40.554295" lon="0.172145">
        <ele>513.078</ele>
        <time>2018-09-30T09:45:37Z</time>
      </trkpt>
      <trkpt lat="40.554291" lon="0.172122">
        <ele>513.496</ele>
        <time>2018-09-30T09:45:38Z</time>
      </trkpt>
      <trkpt lat="40.554280" lon="0.172104">
        <ele>513.474</ele>
        <time>2018-09-30T09:45:39Z</time>
      </trkpt>
      <trkpt lat="40.554266" lon="0.172096">
        <ele>513.487</ele>
        <time>2018-09-30T09:45:40Z</time>
      </trkpt>
      <trkpt lat="40.554247" lon="0.172091">
        <ele>513.916</ele>
        <time>2018-09-30T09:45:41Z</time>
      </trkpt>
      <trkpt lat="40.554227" lon="0.172091">
        <ele>513.927</ele>
        <time>2018-09-30T09:45:42Z</time>
      </trkpt>
      <trkpt lat="40.554208" lon="0.172103">
        <ele>513.923</ele>
        <time>2018-09-30T09:45:43Z</time>
      </trkpt>
      <trkpt lat="40.554063" lon="0.172243">
        <ele>515.483</ele>
        <time>2018-09-30T09:45:51Z</time>
      </trkpt>
      <trkpt lat="40.553883" lon="0.172404">
        <ele>516.811</ele>
        <time>2018-09-30T09:46:01Z</time>
      </trkpt>
      <trkpt lat="40.553809" lon="0.172443">
        <ele>517.808</ele>
        <time>2018-09-30T09:46:05Z</time>
      </trkpt>
      <trkpt lat="40.553769" lon="0.172448">
        <ele>518.235</ele>
        <time>2018-09-30T09:46:07Z</time>
      </trkpt>
      <trkpt lat="40.553748" lon="0.172459">
        <ele>518.772</ele>
        <time>2018-09-30T09:46:08Z</time>
      </trkpt>
      <trkpt lat="40.553728" lon="0.172468">
        <ele>518.756</ele>
        <time>2018-09-30T09:46:09Z</time>
      </trkpt>
      <trkpt lat="40.553706" lon="0.172477">
        <ele>518.754</ele>
        <time>2018-09-30T09:46:10Z</time>
      </trkpt>
      <trkpt lat="40.553687" lon="0.172487">
        <ele>519.282</ele>
        <time>2018-09-30T09:46:11Z</time>
      </trkpt>
      <trkpt lat="40.553524" lon="0.172570">
        <ele>521.165</ele>
        <time>2018-09-30T09:46:19Z</time>
      </trkpt>
      <trkpt lat="40.553374" lon="0.172611">
        <ele>522.634</ele>
        <time>2018-09-30T09:46:26Z</time>
      </trkpt>
      <trkpt lat="40.553219" lon="0.172507">
        <ele>523.535</ele>
        <time>2018-09-30T09:46:34Z</time>
      </trkpt>
      <trkpt lat="40.553054" lon="0.172390">
        <ele>525.538</ele>
        <time>2018-09-30T09:46:43Z</time>
      </trkpt>
      <trkpt lat="40.552856" lon="0.172237">
        <ele>526.470</ele>
        <time>2018-09-30T09:46:53Z</time>
      </trkpt>
      <trkpt lat="40.552733" lon="0.172144">
        <ele>527.417</ele>
        <time>2018-09-30T09:47:00Z</time>
      </trkpt>
      <trkpt lat="40.552716" lon="0.172133">
        <ele>527.408</ele>
        <time>2018-09-30T09:47:01Z</time>
      </trkpt>
      <trkpt lat="40.552526" lon="0.171985">
        <ele>528.386</ele>
        <time>2018-09-30T09:47:10Z</time>
      </trkpt>
      <trkpt lat="40.552350" lon="0.171780">
        <ele>529.883</ele>
        <time>2018-09-30T09:47:19Z</time>
      </trkpt>
      <trkpt lat="40.552219" lon="0.171654">
        <ele>530.747</ele>
        <time>2018-09-30T09:47:26Z</time>
      </trkpt>
      <trkpt lat="40.552067" lon="0.171595">
        <ele>532.265</ele>
        <time>2018-09-30T09:47:33Z</time>
      </trkpt>
      <trkpt lat="40.551859" lon="0.171596">
        <ele>534.193</ele>
        <time>2018-09-30T09:47:42Z</time>
      </trkpt>
      <trkpt lat="40.551686" lon="0.171638">
        <ele>536.026</ele>
        <time>2018-09-30T09:47:50Z</time>
      </trkpt>
      <trkpt lat="40.551560" lon="0.171779">
        <ele>537.975</ele>
        <time>2018-09-30T09:47:58Z</time>
      </trkpt>
      <trkpt lat="40.551454" lon="0.171884">
        <ele>539.466</ele>
        <time>2018-09-30T09:48:05Z</time>
      </trkpt>
      <trkpt lat="40.551374" lon="0.172070">
        <ele>541.829</ele>
        <time>2018-09-30T09:48:13Z</time>
      </trkpt>
      <trkpt lat="40.551366" lon="0.172166">
        <ele>542.300</ele>
        <time>2018-09-30T09:48:17Z</time>
      </trkpt>
      <trkpt lat="40.551372" lon="0.172190">
        <ele>542.820</ele>
        <time>2018-09-30T09:48:18Z</time>
      </trkpt>
      <trkpt lat="40.551379" lon="0.172214">
        <ele>542.808</ele>
        <time>2018-09-30T09:48:19Z</time>
      </trkpt>
      <trkpt lat="40.551381" lon="0.172239">
        <ele>543.275</ele>
        <time>2018-09-30T09:48:20Z</time>
      </trkpt>
      <trkpt lat="40.551377" lon="0.172264">
        <ele>543.222</ele>
        <time>2018-09-30T09:48:21Z</time>
      </trkpt>
      <trkpt lat="40.551369" lon="0.172289">
        <ele>543.746</ele>
        <time>2018-09-30T09:48:22Z</time>
      </trkpt>
      <trkpt lat="40.551359" lon="0.172313">
        <ele>543.724</ele>
        <time>2018-09-30T09:48:23Z</time>
      </trkpt>
      <trkpt lat="40.551225" lon="0.172456">
        <ele>545.272</ele>
        <time>2018-09-30T09:48:31Z</time>
      </trkpt>
      <trkpt lat="40.551091" lon="0.172486">
        <ele>546.625</ele>
        <time>2018-09-30T09:48:38Z</time>
      </trkpt>
      <trkpt lat="40.550876" lon="0.172511">
        <ele>548.094</ele>
        <time>2018-09-30T09:48:48Z</time>
      </trkpt>
      <trkpt lat="40.550723" lon="0.172577">
        <ele>550.015</ele>
        <time>2018-09-30T09:48:55Z</time>
      </trkpt>
      <trkpt lat="40.550602" lon="0.172772">
        <ele>551.951</ele>
        <time>2018-09-30T09:49:04Z</time>
      </trkpt>
      <trkpt lat="40.550509" lon="0.172987">
        <ele>553.801</ele>
        <time>2018-09-30T09:49:13Z</time>
      </trkpt>
      <trkpt lat="40.550498" lon="0.173011">
        <ele>554.311</ele>
        <time>2018-09-30T09:49:14Z</time>
      </trkpt>
      <trkpt lat="40.550488" lon="0.173031">
        <ele>554.308</ele>
        <time>2018-09-30T09:49:15Z</time>
      </trkpt>
      <trkpt lat="40.550476" lon="0.173057">
        <ele>555.388</ele>
        <time>2018-09-30T09:49:16Z</time>
      </trkpt>
      <trkpt lat="40.550385" lon="0.173262">
        <ele>556.745</ele>
        <time>2018-09-30T09:49:25Z</time>
      </trkpt>
      <trkpt lat="40.550361" lon="0.173452">
        <ele>557.299</ele>
        <time>2018-09-30T09:49:32Z</time>
      </trkpt>
      <trkpt lat="40.550289" lon="0.173633">
        <ele>559.617</ele>
        <time>2018-09-30T09:49:39Z</time>
      </trkpt>
      <trkpt lat="40.550218" lon="0.173876">
        <ele>561.595</ele>
        <time>2018-09-30T09:49:48Z</time>
      </trkpt>
      <trkpt lat="40.550221" lon="0.173901">
        <ele>562.018</ele>
        <time>2018-09-30T09:49:49Z</time>
      </trkpt>
      <trkpt lat="40.550231" lon="0.173925">
        <ele>562.047</ele>
        <time>2018-09-30T09:49:50Z</time>
      </trkpt>
      <trkpt lat="40.550348" lon="0.174051">
        <ele>563.928</ele>
        <time>2018-09-30T09:49:57Z</time>
      </trkpt>
      <trkpt lat="40.550408" lon="0.174176">
        <ele>564.499</ele>
        <time>2018-09-30T09:50:02Z</time>
      </trkpt>
      <trkpt lat="40.550407" lon="0.174207">
        <ele>564.407</ele>
        <time>2018-09-30T09:50:03Z</time>
      </trkpt>
      <trkpt lat="40.550403" lon="0.174229">
        <ele>564.927</ele>
        <time>2018-09-30T09:50:04Z</time>
      </trkpt>
      <trkpt lat="40.550400" lon="0.174248">
        <ele>564.908</ele>
        <time>2018-09-30T09:50:05Z</time>
      </trkpt>
      <trkpt lat="40.550392" lon="0.174267">
        <ele>564.932</ele>
        <time>2018-09-30T09:50:06Z</time>
      </trkpt>
      <trkpt lat="40.550382" lon="0.174284">
        <ele>564.939</ele>
        <time>2018-09-30T09:50:07Z</time>
      </trkpt>
      <trkpt lat="40.550369" lon="0.174301">
        <ele>564.973</ele>
        <time>2018-09-30T09:50:08Z</time>
      </trkpt>
      <trkpt lat="40.550350" lon="0.174317">
        <ele>564.451</ele>
        <time>2018-09-30T09:50:09Z</time>
      </trkpt>
      <trkpt lat="40.550332" lon="0.174329">
        <ele>564.479</ele>
        <time>2018-09-30T09:50:10Z</time>
      </trkpt>
      <trkpt lat="40.550311" lon="0.174339">
        <ele>564.972</ele>
        <time>2018-09-30T09:50:11Z</time>
      </trkpt>
      <trkpt lat="40.550121" lon="0.174475">
        <ele>566.861</ele>
        <time>2018-09-30T09:50:20Z</time>
      </trkpt>
      <trkpt lat="40.549976" lon="0.174500">
        <ele>567.822</ele>
        <time>2018-09-30T09:50:27Z</time>
      </trkpt>
      <trkpt lat="40.549837" lon="0.174399">
        <ele>568.725</ele>
        <time>2018-09-30T09:50:34Z</time>
      </trkpt>
      <trkpt lat="40.549731" lon="0.174264">
        <ele>569.226</ele>
        <time>2018-09-30T09:50:40Z</time>
      </trkpt>
      <trkpt lat="40.549676" lon="0.174046">
        <ele>570.608</ele>
        <time>2018-09-30T09:50:47Z</time>
      </trkpt>
      <trkpt lat="40.549596" lon="0.173978">
        <ele>572.108</ele>
        <time>2018-09-30T09:50:51Z</time>
      </trkpt>
      <trkpt lat="40.549572" lon="0.173986">
        <ele>572.635</ele>
        <time>2018-09-30T09:50:52Z</time>
      </trkpt>
      <trkpt lat="40.549550" lon="0.174003">
        <ele>573.042</ele>
        <time>2018-09-30T09:50:53Z</time>
      </trkpt>
      <trkpt lat="40.549522" lon="0.174053">
        <ele>573.566</ele>
        <time>2018-09-30T09:50:55Z</time>
      </trkpt>
      <trkpt lat="40.549496" lon="0.174102">
        <ele>574.084</ele>
        <time>2018-09-30T09:50:57Z</time>
      </trkpt>
      <trkpt lat="40.549473" lon="0.174127">
        <ele>574.022</ele>
        <time>2018-09-30T09:50:58Z</time>
      </trkpt>
      <trkpt lat="40.549455" lon="0.174142">
        <ele>574.575</ele>
        <time>2018-09-30T09:50:59Z</time>
      </trkpt>
      <trkpt lat="40.549433" lon="0.174157">
        <ele>574.524</ele>
        <time>2018-09-30T09:51:00Z</time>
      </trkpt>
      <trkpt lat="40.549409" lon="0.174168">
        <ele>574.565</ele>
        <time>2018-09-30T09:51:01Z</time>
      </trkpt>
      <trkpt lat="40.549384" lon="0.174174">
        <ele>575.057</ele>
        <time>2018-09-30T09:51:02Z</time>
      </trkpt>
      <trkpt lat="40.549360" lon="0.174179">
        <ele>575.000</ele>
        <time>2018-09-30T09:51:03Z</time>
      </trkpt>
      <trkpt lat="40.549333" lon="0.174190">
        <ele>575.420</ele>
        <time>2018-09-30T09:51:04Z</time>
      </trkpt>
      <trkpt lat="40.549162" lon="0.174331">
        <ele>576.408</ele>
        <time>2018-09-30T09:51:12Z</time>
      </trkpt>
      <trkpt lat="40.548986" lon="0.174515">
        <ele>577.498</ele>
        <time>2018-09-30T09:51:21Z</time>
      </trkpt>
      <trkpt lat="40.548898" lon="0.174671">
        <ele>577.455</ele>
        <time>2018-09-30T09:51:27Z</time>
      </trkpt>
      <trkpt lat="40.548934" lon="0.174889">
        <ele>578.879</ele>
        <time>2018-09-30T09:51:34Z</time>
      </trkpt>
      <trkpt lat="40.548994" lon="0.175162">
        <ele>582.217</ele>
        <time>2018-09-30T09:51:43Z</time>
      </trkpt>
      <trkpt lat="40.548969" lon="0.175362">
        <ele>583.125</ele>
        <time>2018-09-30T09:51:49Z</time>
      </trkpt>
      <trkpt lat="40.548840" lon="0.175520">
        <ele>584.138</ele>
        <time>2018-09-30T09:51:56Z</time>
      </trkpt>
      <trkpt lat="40.548606" lon="0.175750">
        <ele>584.637</ele>
        <time>2018-09-30T09:52:06Z</time>
      </trkpt>
      <trkpt lat="40.548538" lon="0.175994">
        <ele>585.568</ele>
        <time>2018-09-30T09:52:13Z</time>
      </trkpt>
      <trkpt lat="40.548500" lon="0.176237">
        <ele>588.412</ele>
        <time>2018-09-30T09:52:20Z</time>
      </trkpt>
      <trkpt lat="40.548379" lon="0.176378">
        <ele>589.432</ele>
        <time>2018-09-30T09:52:26Z</time>
      </trkpt>
      <trkpt lat="40.548197" lon="0.176581">
        <ele>591.805</ele>
        <time>2018-09-30T09:52:36Z</time>
      </trkpt>
      <trkpt lat="40.548048" lon="0.176801">
        <ele>592.708</ele>
        <time>2018-09-30T09:52:45Z</time>
      </trkpt>
      <trkpt lat="40.547959" lon="0.176936">
        <ele>592.784</ele>
        <time>2018-09-30T09:52:52Z</time>
      </trkpt>
      <trkpt lat="40.547881" lon="0.177068">
        <ele>593.261</ele>
        <time>2018-09-30T09:52:59Z</time>
      </trkpt>
      <trkpt lat="40.547867" lon="0.177083">
        <ele>593.245</ele>
        <time>2018-09-30T09:53:00Z</time>
      </trkpt>
      <trkpt lat="40.547857" lon="0.177100">
        <ele>593.243</ele>
        <time>2018-09-30T09:53:01Z</time>
      </trkpt>
      <trkpt lat="40.547825" lon="0.177154">
        <ele>593.281</ele>
        <time>2018-09-30T09:53:04Z</time>
      </trkpt>
      <trkpt lat="40.547804" lon="0.177156">
        <ele>593.244</ele>
        <time>2018-09-30T09:53:05Z</time>
      </trkpt>
      <trkpt lat="40.547783" lon="0.177146">
        <ele>593.213</ele>
        <time>2018-09-30T09:53:06Z</time>
      </trkpt>
      <trkpt lat="40.547771" lon="0.177126">
        <ele>593.284</ele>
        <time>2018-09-30T09:53:07Z</time>
      </trkpt>
      <trkpt lat="40.547762" lon="0.177099">
        <ele>593.245</ele>
        <time>2018-09-30T09:53:08Z</time>
      </trkpt>
      <trkpt lat="40.547757" lon="0.177069">
        <ele>593.247</ele>
        <time>2018-09-30T09:53:09Z</time>
      </trkpt>
      <trkpt lat="40.547759" lon="0.177037">
        <ele>593.711</ele>
        <time>2018-09-30T09:53:10Z</time>
      </trkpt>
      <trkpt lat="40.547769" lon="0.177009">
        <ele>593.708</ele>
        <time>2018-09-30T09:53:11Z</time>
      </trkpt>
      <trkpt lat="40.547783" lon="0.176985">
        <ele>594.227</ele>
        <time>2018-09-30T09:53:12Z</time>
      </trkpt>
      <trkpt lat="40.547842" lon="0.176768">
        <ele>595.614</ele>
        <time>2018-09-30T09:53:20Z</time>
      </trkpt>
      <trkpt lat="40.547874" lon="0.176578">
        <ele>596.628</ele>
        <time>2018-09-30T09:53:26Z</time>
      </trkpt>
      <trkpt lat="40.547892" lon="0.176385">
        <ele>598.556</ele>
        <time>2018-09-30T09:53:32Z</time>
      </trkpt>
      <trkpt lat="40.547825" lon="0.176253">
        <ele>600.064</ele>
        <time>2018-09-30T09:53:37Z</time>
      </trkpt>
      <trkpt lat="40.547804" lon="0.176248">
        <ele>600.477</ele>
        <time>2018-09-30T09:53:38Z</time>
      </trkpt>
      <trkpt lat="40.547782" lon="0.176262">
        <ele>601.446</ele>
        <time>2018-09-30T09:53:39Z</time>
      </trkpt>
      <trkpt lat="40.547764" lon="0.176287">
        <ele>601.417</ele>
        <time>2018-09-30T09:53:40Z</time>
      </trkpt>
      <trkpt lat="40.547745" lon="0.176320">
        <ele>601.923</ele>
        <time>2018-09-30T09:53:41Z</time>
      </trkpt>
      <trkpt lat="40.547727" lon="0.176352">
        <ele>601.983</ele>
        <time>2018-09-30T09:53:42Z</time>
      </trkpt>
      <trkpt lat="40.547563" lon="0.176507">
        <ele>603.811</ele>
        <time>2018-09-30T09:53:49Z</time>
      </trkpt>
      <trkpt lat="40.547349" lon="0.176585">
        <ele>605.708</ele>
        <time>2018-09-30T09:53:58Z</time>
      </trkpt>
      <trkpt lat="40.547193" lon="0.176588">
        <ele>606.735</ele>
        <time>2018-09-30T09:54:05Z</time>
      </trkpt>
      <trkpt lat="40.547152" lon="0.176589">
        <ele>606.712</ele>
        <time>2018-09-30T09:54:07Z</time>
      </trkpt>
      <trkpt lat="40.547129" lon="0.176597">
        <ele>606.736</ele>
        <time>2018-09-30T09:54:08Z</time>
      </trkpt>
      <trkpt lat="40.547107" lon="0.176604">
        <ele>607.684</ele>
        <time>2018-09-30T09:54:09Z</time>
      </trkpt>
      <trkpt lat="40.547085" lon="0.176614">
        <ele>607.662</ele>
        <time>2018-09-30T09:54:10Z</time>
      </trkpt>
      <trkpt lat="40.547063" lon="0.176623">
        <ele>608.145</ele>
        <time>2018-09-30T09:54:11Z</time>
      </trkpt>
      <trkpt lat="40.547044" lon="0.176629">
        <ele>608.174</ele>
        <time>2018-09-30T09:54:12Z</time>
      </trkpt>
      <trkpt lat="40.546911" lon="0.176715">
        <ele>609.165</ele>
        <time>2018-09-30T09:54:19Z</time>
      </trkpt>
      <trkpt lat="40.546738" lon="0.176853">
        <ele>610.596</ele>
        <time>2018-09-30T09:54:27Z</time>
      </trkpt>
      <trkpt lat="40.546576" lon="0.176901">
        <ele>611.031</ele>
        <time>2018-09-30T09:54:34Z</time>
      </trkpt>
      <trkpt lat="40.546418" lon="0.177000">
        <ele>611.524</ele>
        <time>2018-09-30T09:54:41Z</time>
      </trkpt>
      <trkpt lat="40.546383" lon="0.177048">
        <ele>611.508</ele>
        <time>2018-09-30T09:54:43Z</time>
      </trkpt>
      <trkpt lat="40.546359" lon="0.177061">
        <ele>612.062</ele>
        <time>2018-09-30T09:54:44Z</time>
      </trkpt>
      <trkpt lat="40.546330" lon="0.177067">
        <ele>612.059</ele>
        <time>2018-09-30T09:54:45Z</time>
      </trkpt>
      <trkpt lat="40.546304" lon="0.177076">
        <ele>612.043</ele>
        <time>2018-09-30T09:54:46Z</time>
      </trkpt>
      <trkpt lat="40.546277" lon="0.177089">
        <ele>612.041</ele>
        <time>2018-09-30T09:54:47Z</time>
      </trkpt>
      <trkpt lat="40.546022" lon="0.177203">
        <ele>613.469</ele>
        <time>2018-09-30T09:54:56Z</time>
      </trkpt>
      <trkpt lat="40.545785" lon="0.177303">
        <ele>613.982</ele>
        <time>2018-09-30T09:55:04Z</time>
      </trkpt>
      <trkpt lat="40.545506" lon="0.177417">
        <ele>615.341</ele>
        <time>2018-09-30T09:55:13Z</time>
      </trkpt>
      <trkpt lat="40.545185" lon="0.177458">
        <ele>615.822</ele>
        <time>2018-09-30T09:55:23Z</time>
      </trkpt>
      <trkpt lat="40.544971" lon="0.177441">
        <ele>616.357</ele>
        <time>2018-09-30T09:55:30Z</time>
      </trkpt>
      <trkpt lat="40.544619" lon="0.177449">
        <ele>617.700</ele>
        <time>2018-09-30T09:55:40Z</time>
      </trkpt>
      <trkpt lat="40.544413" lon="0.177444">
        <ele>618.720</ele>
        <time>2018-09-30T09:55:46Z</time>
      </trkpt>
      <trkpt lat="40.544168" lon="0.177398">
        <ele>619.708</ele>
        <time>2018-09-30T09:55:54Z</time>
      </trkpt>
      <trkpt lat="40.543918" lon="0.177386">
        <ele>620.658</ele>
        <time>2018-09-30T09:56:02Z</time>
      </trkpt>
      <trkpt lat="40.543663" lon="0.177379">
        <ele>621.665</ele>
        <time>2018-09-30T09:56:10Z</time>
      </trkpt>
      <trkpt lat="40.543412" lon="0.177300">
        <ele>622.139</ele>
        <time>2018-09-30T09:56:18Z</time>
      </trkpt>
      <trkpt lat="40.543203" lon="0.177181">
        <ele>623.017</ele>
        <time>2018-09-30T09:56:25Z</time>
      </trkpt>
      <trkpt lat="40.543013" lon="0.176980">
        <ele>623.065</ele>
        <time>2018-09-30T09:56:32Z</time>
      </trkpt>
      <trkpt lat="40.542801" lon="0.176696">
        <ele>623.038</ele>
        <time>2018-09-30T09:56:40Z</time>
      </trkpt>
      <trkpt lat="40.542600" lon="0.176438">
        <ele>623.017</ele>
        <time>2018-09-30T09:56:47Z</time>
      </trkpt>
      <trkpt lat="40.542443" lon="0.176198">
        <ele>623.088</ele>
        <time>2018-09-30T09:56:53Z</time>
      </trkpt>
      <trkpt lat="40.542386" lon="0.176118">
        <ele>623.029</ele>
        <time>2018-09-30T09:56:55Z</time>
      </trkpt>
      <trkpt lat="40.542363" lon="0.176071">
        <ele>623.000</ele>
        <time>2018-09-30T09:56:56Z</time>
      </trkpt>
      <trkpt lat="40.542345" lon="0.176019">
        <ele>623.020</ele>
        <time>2018-09-30T09:56:57Z</time>
      </trkpt>
      <trkpt lat="40.542186" lon="0.175569">
        <ele>622.108</ele>
        <time>2018-09-30T09:57:06Z</time>
      </trkpt>
      <trkpt lat="40.542123" lon="0.175241">
        <ele>621.665</ele>
        <time>2018-09-30T09:57:13Z</time>
      </trkpt>
      <trkpt lat="40.542032" lon="0.174919">
        <ele>620.612</ele>
        <time>2018-09-30T09:57:20Z</time>
      </trkpt>
      <trkpt lat="40.541944" lon="0.174767">
        <ele>620.176</ele>
        <time>2018-09-30T09:57:23Z</time>
      </trkpt>
      <trkpt lat="40.541911" lon="0.174724">
        <ele>620.174</ele>
        <time>2018-09-30T09:57:24Z</time>
      </trkpt>
      <trkpt lat="40.541886" lon="0.174688">
        <ele>620.172</ele>
        <time>2018-09-30T09:57:25Z</time>
      </trkpt>
      <trkpt lat="40.541871" lon="0.174651">
        <ele>620.195</ele>
        <time>2018-09-30T09:57:26Z</time>
      </trkpt>
      <trkpt lat="40.541867" lon="0.174618">
        <ele>620.164</ele>
        <time>2018-09-30T09:57:27Z</time>
      </trkpt>
      <trkpt lat="40.541866" lon="0.174584">
        <ele>620.195</ele>
        <time>2018-09-30T09:57:28Z</time>
      </trkpt>
      <trkpt lat="40.541848" lon="0.174428">
        <ele>621.698</ele>
        <time>2018-09-30T09:57:32Z</time>
      </trkpt>
      <trkpt lat="40.541731" lon="0.174109">
        <ele>624.015</ele>
        <time>2018-09-30T09:57:40Z</time>
      </trkpt>
      <trkpt lat="40.541689" lon="0.173829">
        <ele>624.026</ele>
        <time>2018-09-30T09:57:46Z</time>
      </trkpt>
      <trkpt lat="40.541573" lon="0.173593">
        <ele>624.008</ele>
        <time>2018-09-30T09:57:52Z</time>
      </trkpt>
      <trkpt lat="40.541524" lon="0.173524">
        <ele>624.012</ele>
        <time>2018-09-30T09:57:54Z</time>
      </trkpt>
      <trkpt lat="40.541377" lon="0.173448">
        <ele>622.529</ele>
        <time>2018-09-30T09:57:58Z</time>
      </trkpt>
      <trkpt lat="40.541261" lon="0.173393">
        <ele>621.683</ele>
        <time>2018-09-30T09:58:03Z</time>
      </trkpt>
      <trkpt lat="40.541086" lon="0.173325">
        <ele>623.051</ele>
        <time>2018-09-30T09:58:10Z</time>
      </trkpt>
      <trkpt lat="40.540937" lon="0.173260">
        <ele>623.559</ele>
        <time>2018-09-30T09:58:15Z</time>
      </trkpt>
      <trkpt lat="40.540842" lon="0.173243">
        <ele>623.582</ele>
        <time>2018-09-30T09:58:18Z</time>
      </trkpt>
      <trkpt lat="40.540680" lon="0.173194">
        <ele>624.041</ele>
        <time>2018-09-30T09:58:24Z</time>
      </trkpt>
      <trkpt lat="40.540647" lon="0.173182">
        <ele>624.072</ele>
        <time>2018-09-30T09:58:25Z</time>
      </trkpt>
      <trkpt lat="40.540429" lon="0.173057">
        <ele>624.581</ele>
        <time>2018-09-30T09:58:32Z</time>
      </trkpt>
      <trkpt lat="40.540262" lon="0.172938">
        <ele>624.961</ele>
        <time>2018-09-30T09:58:38Z</time>
      </trkpt>
      <trkpt lat="40.540145" lon="0.172838">
        <ele>625.417</ele>
        <time>2018-09-30T09:58:43Z</time>
      </trkpt>
      <trkpt lat="40.540026" lon="0.172790">
        <ele>625.408</ele>
        <time>2018-09-30T09:58:48Z</time>
      </trkpt>
      <trkpt lat="40.539981" lon="0.172742">
        <ele>625.481</ele>
        <time>2018-09-30T09:58:50Z</time>
      </trkpt>
      <trkpt lat="40.539919" lon="0.172686">
        <ele>625.418</ele>
        <time>2018-09-30T09:58:57Z</time>
      </trkpt>
      <trkpt lat="40.539864" lon="0.172656">
        <ele>625.992</ele>
        <time>2018-09-30T09:59:02Z</time>
      </trkpt>
      <trkpt lat="40.539718" lon="0.172568">
        <ele>627.490</ele>
        <time>2018-09-30T09:59:08Z</time>
      </trkpt>
      <trkpt lat="40.539610" lon="0.172490">
        <ele>627.888</ele>
        <time>2018-09-30T09:59:14Z</time>
      </trkpt>
      <trkpt lat="40.539460" lon="0.172381">
        <ele>627.851</ele>
        <time>2018-09-30T09:59:20Z</time>
      </trkpt>
      <trkpt lat="40.539350" lon="0.172334">
        <ele>626.920</ele>
        <time>2018-09-30T09:59:24Z</time>
      </trkpt>
      <trkpt lat="40.539172" lon="0.172384">
        <ele>627.451</ele>
        <time>2018-09-30T09:59:30Z</time>
      </trkpt>
      <trkpt lat="40.538936" lon="0.172473">
        <ele>630.211</ele>
        <time>2018-09-30T09:59:38Z</time>
      </trkpt>
      <trkpt lat="40.538843" lon="0.172484">
        <ele>631.721</ele>
        <time>2018-09-30T09:59:41Z</time>
      </trkpt>
      <trkpt lat="40.538645" lon="0.172499">
        <ele>633.603</ele>
        <time>2018-09-30T09:59:48Z</time>
      </trkpt>
      <trkpt lat="40.538505" lon="0.172516">
        <ele>633.608</ele>
        <time>2018-09-30T09:59:53Z</time>
      </trkpt>
      <trkpt lat="40.538273" lon="0.172508">
        <ele>633.694</ele>
        <time>2018-09-30T10:00:01Z</time>
      </trkpt>
      <trkpt lat="40.538073" lon="0.172502">
        <ele>634.161</ele>
        <time>2018-09-30T10:00:08Z</time>
      </trkpt>
      <trkpt lat="40.537852" lon="0.172499">
        <ele>634.635</ele>
        <time>2018-09-30T10:00:15Z</time>
      </trkpt>
      <trkpt lat="40.537709" lon="0.172568">
        <ele>634.633</ele>
        <time>2018-09-30T10:00:20Z</time>
      </trkpt>
      <trkpt lat="40.537511" lon="0.172579">
        <ele>635.091</ele>
        <time>2018-09-30T10:00:27Z</time>
      </trkpt>
      <trkpt lat="40.537358" lon="0.172559">
        <ele>635.594</ele>
        <time>2018-09-30T10:00:33Z</time>
      </trkpt>
      <trkpt lat="40.537261" lon="0.172525">
        <ele>635.543</ele>
        <time>2018-09-30T10:00:37Z</time>
      </trkpt>
      <trkpt lat="40.537171" lon="0.172453">
        <ele>636.014</ele>
        <time>2018-09-30T10:00:42Z</time>
      </trkpt>
      <trkpt lat="40.536998" lon="0.172365">
        <ele>636.096</ele>
        <time>2018-09-30T10:00:48Z</time>
      </trkpt>
      <trkpt lat="40.536820" lon="0.172194">
        <ele>634.631</ele>
        <time>2018-09-30T10:00:55Z</time>
      </trkpt>
      <trkpt lat="40.536702" lon="0.172009">
        <ele>633.124</ele>
        <time>2018-09-30T10:01:01Z</time>
      </trkpt>
      <trkpt lat="40.536608" lon="0.171825">
        <ele>632.208</ele>
        <time>2018-09-30T10:01:06Z</time>
      </trkpt>
      <trkpt lat="40.536453" lon="0.171603">
        <ele>630.242</ele>
        <time>2018-09-30T10:01:13Z</time>
      </trkpt>
      <trkpt lat="40.536337" lon="0.171422">
        <ele>629.389</ele>
        <time>2018-09-30T10:01:19Z</time>
      </trkpt>
      <trkpt lat="40.536190" lon="0.171224">
        <ele>628.863</ele>
        <time>2018-09-30T10:01:25Z</time>
      </trkpt>
      <trkpt lat="40.536056" lon="0.170934">
        <ele>627.421</ele>
        <time>2018-09-30T10:01:32Z</time>
      </trkpt>
      <trkpt lat="40.535928" lon="0.170650">
        <ele>624.959</ele>
        <time>2018-09-30T10:01:40Z</time>
      </trkpt>
      <trkpt lat="40.535891" lon="0.170454">
        <ele>623.022</ele>
        <time>2018-09-30T10:01:46Z</time>
      </trkpt>
      <trkpt lat="40.535884" lon="0.170444">
        <ele>623.031</ele>
        <time>2018-09-30T10:01:53Z</time>
      </trkpt>
      <trkpt lat="40.535879" lon="0.170433">
        <ele>622.572</ele>
        <time>2018-09-30T10:01:57Z</time>
      </trkpt>
      <trkpt lat="40.535841" lon="0.170289">
        <ele>619.784</ele>
        <time>2018-09-30T10:02:04Z</time>
      </trkpt>
      <trkpt lat="40.535836" lon="0.170296">
        <ele>619.707</ele>
        <time>2018-09-30T10:02:13Z</time>
      </trkpt>
      <trkpt lat="40.535835" lon="0.170286">
        <ele>619.717</ele>
        <time>2018-09-30T10:02:23Z</time>
      </trkpt>
      <trkpt lat="40.535830" lon="0.170250">
        <ele>619.708</ele>
        <time>2018-09-30T10:02:31Z</time>
      </trkpt>
      <trkpt lat="40.535804" lon="0.170183">
        <ele>619.281</ele>
        <time>2018-09-30T10:02:38Z</time>
      </trkpt>
      <trkpt lat="40.535768" lon="0.170185">
        <ele>618.298</ele>
        <time>2018-09-30T10:02:46Z</time>
      </trkpt>
      <trkpt lat="40.535752" lon="0.170195">
        <ele>617.732</ele>
        <time>2018-09-30T10:02:53Z</time>
      </trkpt>
      <trkpt lat="40.535713" lon="0.170153">
        <ele>616.850</ele>
        <time>2018-09-30T10:03:03Z</time>
      </trkpt>
      <trkpt lat="40.535680" lon="0.170139">
        <ele>614.448</ele>
        <time>2018-09-30T10:03:12Z</time>
      </trkpt>
      <trkpt lat="40.535652" lon="0.170129">
        <ele>613.461</ele>
        <time>2018-09-30T10:03:19Z</time>
      </trkpt>
      <trkpt lat="40.535635" lon="0.170108">
        <ele>613.460</ele>
        <time>2018-09-30T10:03:25Z</time>
      </trkpt>
      <trkpt lat="40.535583" lon="0.170056">
        <ele>612.551</ele>
        <time>2018-09-30T10:03:33Z</time>
      </trkpt>
      <trkpt lat="40.535553" lon="0.170013">
        <ele>612.075</ele>
        <time>2018-09-30T10:03:40Z</time>
      </trkpt>
      <trkpt lat="40.535529" lon="0.169961">
        <ele>612.028</ele>
        <time>2018-09-30T10:03:47Z</time>
      </trkpt>
      <trkpt lat="40.535514" lon="0.169957">
        <ele>611.520</ele>
        <time>2018-09-30T10:03:56Z</time>
      </trkpt>
      <trkpt lat="40.535502" lon="0.169968">
        <ele>611.008</ele>
        <time>2018-09-30T10:04:03Z</time>
      </trkpt>
      <trkpt lat="40.535504" lon="0.169989">
        <ele>610.030</ele>
        <time>2018-09-30T10:04:12Z</time>
      </trkpt>
      <trkpt lat="40.535512" lon="0.169998">
        <ele>609.647</ele>
        <time>2018-09-30T10:04:16Z</time>
      </trkpt>
      <trkpt lat="40.535494" lon="0.170040">
        <ele>608.171</ele>
        <time>2018-09-30T10:04:22Z</time>
      </trkpt>
      <trkpt lat="40.535466" lon="0.170015">
        <ele>608.199</ele>
        <time>2018-09-30T10:04:29Z</time>
      </trkpt>
      <trkpt lat="40.535413" lon="0.169978">
        <ele>608.137</ele>
        <time>2018-09-30T10:04:38Z</time>
      </trkpt>
      <trkpt lat="40.535315" lon="0.169907">
        <ele>608.120</ele>
        <time>2018-09-30T10:04:43Z</time>
      </trkpt>
      <trkpt lat="40.535190" lon="0.169781">
        <ele>607.649</ele>
        <time>2018-09-30T10:04:49Z</time>
      </trkpt>
      <trkpt lat="40.535007" lon="0.169775">
        <ele>609.190</ele>
        <time>2018-09-30T10:04:54Z</time>
      </trkpt>
      <trkpt lat="40.534668" lon="0.169827">
        <ele>611.056</ele>
        <time>2018-09-30T10:05:03Z</time>
      </trkpt>
      <trkpt lat="40.534485" lon="0.169814">
        <ele>612.559</ele>
        <time>2018-09-30T10:05:09Z</time>
      </trkpt>
      <trkpt lat="40.534346" lon="0.169793">
        <ele>613.414</ele>
        <time>2018-09-30T10:05:15Z</time>
      </trkpt>
      <trkpt lat="40.534212" lon="0.169745">
        <ele>613.408</ele>
        <time>2018-09-30T10:05:22Z</time>
      </trkpt>
      <trkpt lat="40.534066" lon="0.169612">
        <ele>613.438</ele>
        <time>2018-09-30T10:05:28Z</time>
      </trkpt>
      <trkpt lat="40.533897" lon="0.169399">
        <ele>616.385</ele>
        <time>2018-09-30T10:05:36Z</time>
      </trkpt>
      <trkpt lat="40.533672" lon="0.169224">
        <ele>618.259</ele>
        <time>2018-09-30T10:05:45Z</time>
      </trkpt>
      <trkpt lat="40.533464" lon="0.169006">
        <ele>619.787</ele>
        <time>2018-09-30T10:05:54Z</time>
      </trkpt>
      <trkpt lat="40.533235" lon="0.168810">
        <ele>621.135</ele>
        <time>2018-09-30T10:06:03Z</time>
      </trkpt>
      <trkpt lat="40.533153" lon="0.168707">
        <ele>621.628</ele>
        <time>2018-09-30T10:06:07Z</time>
      </trkpt>
      <trkpt lat="40.533028" lon="0.168435">
        <ele>623.057</ele>
        <time>2018-09-30T10:06:15Z</time>
      </trkpt>
      <trkpt lat="40.532898" lon="0.168177">
        <ele>623.538</ele>
        <time>2018-09-30T10:06:22Z</time>
      </trkpt>
      <trkpt lat="40.532724" lon="0.167982">
        <ele>623.522</ele>
        <time>2018-09-30T10:06:29Z</time>
      </trkpt>
      <trkpt lat="40.532652" lon="0.167920">
        <ele>623.562</ele>
        <time>2018-09-30T10:06:31Z</time>
      </trkpt>
      <trkpt lat="40.532618" lon="0.167884">
        <ele>623.508</ele>
        <time>2018-09-30T10:06:32Z</time>
      </trkpt>
      <trkpt lat="40.532587" lon="0.167842">
        <ele>623.508</ele>
        <time>2018-09-30T10:06:33Z</time>
      </trkpt>
      <trkpt lat="40.532326" lon="0.167502">
        <ele>623.575</ele>
        <time>2018-09-30T10:06:41Z</time>
      </trkpt>
      <trkpt lat="40.532294" lon="0.167454">
        <ele>623.592</ele>
        <time>2018-09-30T10:06:42Z</time>
      </trkpt>
      <trkpt lat="40.532265" lon="0.167403">
        <ele>623.516</ele>
        <time>2018-09-30T10:06:43Z</time>
      </trkpt>
      <trkpt lat="40.532179" lon="0.167235">
        <ele>622.134</ele>
        <time>2018-09-30T10:06:46Z</time>
      </trkpt>
      <trkpt lat="40.532145" lon="0.167176">
        <ele>621.622</ele>
        <time>2018-09-30T10:06:47Z</time>
      </trkpt>
      <trkpt lat="40.532100" lon="0.167128">
        <ele>621.675</ele>
        <time>2018-09-30T10:06:48Z</time>
      </trkpt>
      <trkpt lat="40.532045" lon="0.167089">
        <ele>620.694</ele>
        <time>2018-09-30T10:06:49Z</time>
      </trkpt>
      <trkpt lat="40.531992" lon="0.167064">
        <ele>620.625</ele>
        <time>2018-09-30T10:06:50Z</time>
      </trkpt>
      <trkpt lat="40.531941" lon="0.167044">
        <ele>620.637</ele>
        <time>2018-09-30T10:06:51Z</time>
      </trkpt>
      <trkpt lat="40.531851" lon="0.167000">
        <ele>622.549</ele>
        <time>2018-09-30T10:06:53Z</time>
      </trkpt>
      <trkpt lat="40.531810" lon="0.166972">
        <ele>622.513</ele>
        <time>2018-09-30T10:06:54Z</time>
      </trkpt>
      <trkpt lat="40.531703" lon="0.166899">
        <ele>623.008</ele>
        <time>2018-09-30T10:06:57Z</time>
      </trkpt>
      <trkpt lat="40.531667" lon="0.166862">
        <ele>623.056</ele>
        <time>2018-09-30T10:06:58Z</time>
      </trkpt>
      <trkpt lat="40.531625" lon="0.166819">
        <ele>623.023</ele>
        <time>2018-09-30T10:06:59Z</time>
      </trkpt>
      <trkpt lat="40.531535" lon="0.166722">
        <ele>621.617</ele>
        <time>2018-09-30T10:07:01Z</time>
      </trkpt>
      <trkpt lat="40.531288" lon="0.166492">
        <ele>623.575</ele>
        <time>2018-09-30T10:07:07Z</time>
      </trkpt>
      <trkpt lat="40.531071" lon="0.166235">
        <ele>623.043</ele>
        <time>2018-09-30T10:07:13Z</time>
      </trkpt>
      <trkpt lat="40.531040" lon="0.166197">
        <ele>623.036</ele>
        <time>2018-09-30T10:07:14Z</time>
      </trkpt>
      <trkpt lat="40.531008" lon="0.166160">
        <ele>623.015</ele>
        <time>2018-09-30T10:07:15Z</time>
      </trkpt>
      <trkpt lat="40.530981" lon="0.166115">
        <ele>624.046</ele>
        <time>2018-09-30T10:07:16Z</time>
      </trkpt>
      <trkpt lat="40.530825" lon="0.165761">
        <ele>626.458</ele>
        <time>2018-09-30T10:07:23Z</time>
      </trkpt>
      <trkpt lat="40.530651" lon="0.165464">
        <ele>627.852</ele>
        <time>2018-09-30T10:07:30Z</time>
      </trkpt>
      <trkpt lat="40.530418" lon="0.164995">
        <ele>627.817</ele>
        <time>2018-09-30T10:07:40Z</time>
      </trkpt>
      <trkpt lat="40.530378" lon="0.164822">
        <ele>628.808</ele>
        <time>2018-09-30T10:07:43Z</time>
      </trkpt>
      <trkpt lat="40.530370" lon="0.164754">
        <ele>628.838</ele>
        <time>2018-09-30T10:07:44Z</time>
      </trkpt>
      <trkpt lat="40.530307" lon="0.164299">
        <ele>628.835</ele>
        <time>2018-09-30T10:07:51Z</time>
      </trkpt>
      <trkpt lat="40.530288" lon="0.164242">
        <ele>628.869</ele>
        <time>2018-09-30T10:07:52Z</time>
      </trkpt>
      <trkpt lat="40.530263" lon="0.164188">
        <ele>628.847</ele>
        <time>2018-09-30T10:07:53Z</time>
      </trkpt>
      <trkpt lat="40.530205" lon="0.164062">
        <ele>627.495</ele>
        <time>2018-09-30T10:07:55Z</time>
      </trkpt>
      <trkpt lat="40.530179" lon="0.163983">
        <ele>626.988</ele>
        <time>2018-09-30T10:07:56Z</time>
      </trkpt>
      <trkpt lat="40.530164" lon="0.163896">
        <ele>625.917</ele>
        <time>2018-09-30T10:07:57Z</time>
      </trkpt>
      <trkpt lat="40.530160" lon="0.163814">
        <ele>625.468</ele>
        <time>2018-09-30T10:07:58Z</time>
      </trkpt>
      <trkpt lat="40.530163" lon="0.163733">
        <ele>625.477</ele>
        <time>2018-09-30T10:07:59Z</time>
      </trkpt>
      <trkpt lat="40.530172" lon="0.163665">
        <ele>625.461</ele>
        <time>2018-09-30T10:08:00Z</time>
      </trkpt>
      <trkpt lat="40.530183" lon="0.163598">
        <ele>625.427</ele>
        <time>2018-09-30T10:08:01Z</time>
      </trkpt>
      <trkpt lat="40.530197" lon="0.163535">
        <ele>625.408</ele>
        <time>2018-09-30T10:08:02Z</time>
      </trkpt>
      <trkpt lat="40.530254" lon="0.163159">
        <ele>627.490</ele>
        <time>2018-09-30T10:08:08Z</time>
      </trkpt>
      <trkpt lat="40.530251" lon="0.163092">
        <ele>627.457</ele>
        <time>2018-09-30T10:08:09Z</time>
      </trkpt>
      <trkpt lat="40.530239" lon="0.163028">
        <ele>627.421</ele>
        <time>2018-09-30T10:08:10Z</time>
      </trkpt>
      <trkpt lat="40.530153" lon="0.162613">
        <ele>627.829</ele>
        <time>2018-09-30T10:08:17Z</time>
      </trkpt>
      <trkpt lat="40.530095" lon="0.162387">
        <ele>627.847</ele>
        <time>2018-09-30T10:08:21Z</time>
      </trkpt>
      <trkpt lat="40.530090" lon="0.162325">
        <ele>627.870</ele>
        <time>2018-09-30T10:08:22Z</time>
      </trkpt>
      <trkpt lat="40.530081" lon="0.162161">
        <ele>628.859</ele>
        <time>2018-09-30T10:08:25Z</time>
      </trkpt>
      <trkpt lat="40.530083" lon="0.161997">
        <ele>628.860</ele>
        <time>2018-09-30T10:08:28Z</time>
      </trkpt>
      <trkpt lat="40.530089" lon="0.161933">
        <ele>628.813</ele>
        <time>2018-09-30T10:08:29Z</time>
      </trkpt>
      <trkpt lat="40.530104" lon="0.161808">
        <ele>628.843</ele>
        <time>2018-09-30T10:08:31Z</time>
      </trkpt>
      <trkpt lat="40.530107" lon="0.161743">
        <ele>628.807</ele>
        <time>2018-09-30T10:08:32Z</time>
      </trkpt>
      <trkpt lat="40.530103" lon="0.161680">
        <ele>628.808</ele>
        <time>2018-09-30T10:08:33Z</time>
      </trkpt>
      <trkpt lat="40.530095" lon="0.161613">
        <ele>628.814</ele>
        <time>2018-09-30T10:08:34Z</time>
      </trkpt>
      <trkpt lat="40.530083" lon="0.161548">
        <ele>629.321</ele>
        <time>2018-09-30T10:08:35Z</time>
      </trkpt>
      <trkpt lat="40.530022" lon="0.161219">
        <ele>629.815</ele>
        <time>2018-09-30T10:08:40Z</time>
      </trkpt>
      <trkpt lat="40.530020" lon="0.161092">
        <ele>630.223</ele>
        <time>2018-09-30T10:08:42Z</time>
      </trkpt>
      <trkpt lat="40.530032" lon="0.160960">
        <ele>630.241</ele>
        <time>2018-09-30T10:08:44Z</time>
      </trkpt>
      <trkpt lat="40.530047" lon="0.160888">
        <ele>630.744</ele>
        <time>2018-09-30T10:08:45Z</time>
      </trkpt>
      <trkpt lat="40.530065" lon="0.160824">
        <ele>630.723</ele>
        <time>2018-09-30T10:08:46Z</time>
      </trkpt>
      <trkpt lat="40.530149" lon="0.160515">
        <ele>634.164</ele>
        <time>2018-09-30T10:08:51Z</time>
      </trkpt>
      <trkpt lat="40.530166" lon="0.160389">
        <ele>635.042</ele>
        <time>2018-09-30T10:08:53Z</time>
      </trkpt>
      <trkpt lat="40.530167" lon="0.160326">
        <ele>635.022</ele>
        <time>2018-09-30T10:08:54Z</time>
      </trkpt>
      <trkpt lat="40.530158" lon="0.160261">
        <ele>635.514</ele>
        <time>2018-09-30T10:08:55Z</time>
      </trkpt>
      <trkpt lat="40.530144" lon="0.160201">
        <ele>635.008</ele>
        <time>2018-09-30T10:08:56Z</time>
      </trkpt>
      <trkpt lat="40.530128" lon="0.160133">
        <ele>635.577</ele>
        <time>2018-09-30T10:08:57Z</time>
      </trkpt>
      <trkpt lat="40.530114" lon="0.160067">
        <ele>635.534</ele>
        <time>2018-09-30T10:08:58Z</time>
      </trkpt>
      <trkpt lat="40.530106" lon="0.160008">
        <ele>635.548</ele>
        <time>2018-09-30T10:08:59Z</time>
      </trkpt>
      <trkpt lat="40.530103" lon="0.159948">
        <ele>636.056</ele>
        <time>2018-09-30T10:09:00Z</time>
      </trkpt>
      <trkpt lat="40.530105" lon="0.159892">
        <ele>636.064</ele>
        <time>2018-09-30T10:09:01Z</time>
      </trkpt>
      <trkpt lat="40.530139" lon="0.159601">
        <ele>634.117</ele>
        <time>2018-09-30T10:09:05Z</time>
      </trkpt>
      <trkpt lat="40.530142" lon="0.159517">
        <ele>634.166</ele>
        <time>2018-09-30T10:09:06Z</time>
      </trkpt>
      <trkpt lat="40.530140" lon="0.159439">
        <ele>634.177</ele>
        <time>2018-09-30T10:09:07Z</time>
      </trkpt>
      <trkpt lat="40.530133" lon="0.159369">
        <ele>634.166</ele>
        <time>2018-09-30T10:09:08Z</time>
      </trkpt>
      <trkpt lat="40.530122" lon="0.159302">
        <ele>634.129</ele>
        <time>2018-09-30T10:09:09Z</time>
      </trkpt>
      <trkpt lat="40.530107" lon="0.159175">
        <ele>634.121</ele>
        <time>2018-09-30T10:09:11Z</time>
      </trkpt>
      <trkpt lat="40.530116" lon="0.158828">
        <ele>634.108</ele>
        <time>2018-09-30T10:09:16Z</time>
      </trkpt>
      <trkpt lat="40.530129" lon="0.158765">
        <ele>634.199</ele>
        <time>2018-09-30T10:09:17Z</time>
      </trkpt>
      <trkpt lat="40.530146" lon="0.158688">
        <ele>633.676</ele>
        <time>2018-09-30T10:09:18Z</time>
      </trkpt>
      <trkpt lat="40.530217" lon="0.158370">
        <ele>632.640</ele>
        <time>2018-09-30T10:09:22Z</time>
      </trkpt>
      <trkpt lat="40.530369" lon="0.157925">
        <ele>632.638</ele>
        <time>2018-09-30T10:09:28Z</time>
      </trkpt>
      <trkpt lat="40.530378" lon="0.157867">
        <ele>632.676</ele>
        <time>2018-09-30T10:09:29Z</time>
      </trkpt>
      <trkpt lat="40.530451" lon="0.157478">
        <ele>631.749</ele>
        <time>2018-09-30T10:09:35Z</time>
      </trkpt>
      <trkpt lat="40.530510" lon="0.157050">
        <ele>631.738</ele>
        <time>2018-09-30T10:09:41Z</time>
      </trkpt>
      <trkpt lat="40.530527" lon="0.156977">
        <ele>631.739</ele>
        <time>2018-09-30T10:09:42Z</time>
      </trkpt>
      <trkpt lat="40.530549" lon="0.156904">
        <ele>631.745</ele>
        <time>2018-09-30T10:09:43Z</time>
      </trkpt>
      <trkpt lat="40.530593" lon="0.156769">
        <ele>631.747</ele>
        <time>2018-09-30T10:09:45Z</time>
      </trkpt>
      <trkpt lat="40.530632" lon="0.156591">
        <ele>633.111</ele>
        <time>2018-09-30T10:09:48Z</time>
      </trkpt>
      <trkpt lat="40.530635" lon="0.156532">
        <ele>633.108</ele>
        <time>2018-09-30T10:09:49Z</time>
      </trkpt>
      <trkpt lat="40.530636" lon="0.156473">
        <ele>633.117</ele>
        <time>2018-09-30T10:09:50Z</time>
      </trkpt>
      <trkpt lat="40.530749" lon="0.155998">
        <ele>631.244</ele>
        <time>2018-09-30T10:09:57Z</time>
      </trkpt>
      <trkpt lat="40.530778" lon="0.155926">
        <ele>631.228</ele>
        <time>2018-09-30T10:09:58Z</time>
      </trkpt>
      <trkpt lat="40.530834" lon="0.155791">
        <ele>630.266</ele>
        <time>2018-09-30T10:10:00Z</time>
      </trkpt>
      <trkpt lat="40.530868" lon="0.155738">
        <ele>629.834</ele>
        <time>2018-09-30T10:10:01Z</time>
      </trkpt>
      <trkpt lat="40.530916" lon="0.155690">
        <ele>629.857</ele>
        <time>2018-09-30T10:10:02Z</time>
      </trkpt>
      <trkpt lat="40.531057" lon="0.155565">
        <ele>628.846</ele>
        <time>2018-09-30T10:10:05Z</time>
      </trkpt>
      <trkpt lat="40.531133" lon="0.155464">
        <ele>628.857</ele>
        <time>2018-09-30T10:10:07Z</time>
      </trkpt>
      <trkpt lat="40.531166" lon="0.155407">
        <ele>628.896</ele>
        <time>2018-09-30T10:10:08Z</time>
      </trkpt>
      <trkpt lat="40.531189" lon="0.155353">
        <ele>628.831</ele>
        <time>2018-09-30T10:10:09Z</time>
      </trkpt>
      <trkpt lat="40.531206" lon="0.155290">
        <ele>628.824</ele>
        <time>2018-09-30T10:10:10Z</time>
      </trkpt>
      <trkpt lat="40.531218" lon="0.155217">
        <ele>628.808</ele>
        <time>2018-09-30T10:10:11Z</time>
      </trkpt>
      <trkpt lat="40.531253" lon="0.154989">
        <ele>628.382</ele>
        <time>2018-09-30T10:10:14Z</time>
      </trkpt>
      <trkpt lat="40.531254" lon="0.154906">
        <ele>627.849</ele>
        <time>2018-09-30T10:10:15Z</time>
      </trkpt>
      <trkpt lat="40.531257" lon="0.154750">
        <ele>627.433</ele>
        <time>2018-09-30T10:10:17Z</time>
      </trkpt>
      <trkpt lat="40.531269" lon="0.154679">
        <ele>627.491</ele>
        <time>2018-09-30T10:10:18Z</time>
      </trkpt>
      <trkpt lat="40.531289" lon="0.154609">
        <ele>627.429</ele>
        <time>2018-09-30T10:10:19Z</time>
      </trkpt>
      <trkpt lat="40.531476" lon="0.154166">
        <ele>627.492</ele>
        <time>2018-09-30T10:10:26Z</time>
      </trkpt>
      <trkpt lat="40.531612" lon="0.153856">
        <ele>628.811</ele>
        <time>2018-09-30T10:10:31Z</time>
      </trkpt>
      <trkpt lat="40.531763" lon="0.153414">
        <ele>628.822</ele>
        <time>2018-09-30T10:10:38Z</time>
      </trkpt>
      <trkpt lat="40.531799" lon="0.153345">
        <ele>627.443</ele>
        <time>2018-09-30T10:10:39Z</time>
      </trkpt>
      <trkpt lat="40.531835" lon="0.153281">
        <ele>627.464</ele>
        <time>2018-09-30T10:10:40Z</time>
      </trkpt>
      <trkpt lat="40.532144" lon="0.152782">
        <ele>624.910</ele>
        <time>2018-09-30T10:10:47Z</time>
      </trkpt>
      <trkpt lat="40.532312" lon="0.152493">
        <ele>624.908</ele>
        <time>2018-09-30T10:10:52Z</time>
      </trkpt>
      <trkpt lat="40.532354" lon="0.152443">
        <ele>624.987</ele>
        <time>2018-09-30T10:10:53Z</time>
      </trkpt>
      <trkpt lat="40.532436" lon="0.152344">
        <ele>626.924</ele>
        <time>2018-09-30T10:10:55Z</time>
      </trkpt>
      <trkpt lat="40.532752" lon="0.151829">
        <ele>630.278</ele>
        <time>2018-09-30T10:11:04Z</time>
      </trkpt>
      <trkpt lat="40.532810" lon="0.151708">
        <ele>631.226</ele>
        <time>2018-09-30T10:11:06Z</time>
      </trkpt>
      <trkpt lat="40.532853" lon="0.151589">
        <ele>632.214</ele>
        <time>2018-09-30T10:11:08Z</time>
      </trkpt>
      <trkpt lat="40.532868" lon="0.151528">
        <ele>632.697</ele>
        <time>2018-09-30T10:11:09Z</time>
      </trkpt>
      <trkpt lat="40.532893" lon="0.151407">
        <ele>632.636</ele>
        <time>2018-09-30T10:11:11Z</time>
      </trkpt>
      <trkpt lat="40.532916" lon="0.151346">
        <ele>633.167</ele>
        <time>2018-09-30T10:11:12Z</time>
      </trkpt>
      <trkpt lat="40.532948" lon="0.151289">
        <ele>633.178</ele>
        <time>2018-09-30T10:11:13Z</time>
      </trkpt>
      <trkpt lat="40.532988" lon="0.151235">
        <ele>633.133</ele>
        <time>2018-09-30T10:11:14Z</time>
      </trkpt>
      <trkpt lat="40.533027" lon="0.151184">
        <ele>633.126</ele>
        <time>2018-09-30T10:11:15Z</time>
      </trkpt>
      <trkpt lat="40.533060" lon="0.151136">
        <ele>633.108</ele>
        <time>2018-09-30T10:11:16Z</time>
      </trkpt>
      <trkpt lat="40.533116" lon="0.151037">
        <ele>634.170</ele>
        <time>2018-09-30T10:11:18Z</time>
      </trkpt>
      <trkpt lat="40.533177" lon="0.150882">
        <ele>634.127</ele>
        <time>2018-09-30T10:11:21Z</time>
      </trkpt>
      <trkpt lat="40.533188" lon="0.150821">
        <ele>634.131</ele>
        <time>2018-09-30T10:11:22Z</time>
      </trkpt>
      <trkpt lat="40.533192" lon="0.150759">
        <ele>634.199</ele>
        <time>2018-09-30T10:11:23Z</time>
      </trkpt>
      <trkpt lat="40.533190" lon="0.150692">
        <ele>634.657</ele>
        <time>2018-09-30T10:11:24Z</time>
      </trkpt>
      <trkpt lat="40.533189" lon="0.150632">
        <ele>634.660</ele>
        <time>2018-09-30T10:11:25Z</time>
      </trkpt>
      <trkpt lat="40.533189" lon="0.150576">
        <ele>635.089</ele>
        <time>2018-09-30T10:11:26Z</time>
      </trkpt>
      <trkpt lat="40.533231" lon="0.150257">
        <ele>637.920</ele>
        <time>2018-09-30T10:11:33Z</time>
      </trkpt>
      <trkpt lat="40.533329" lon="0.150114">
        <ele>637.971</ele>
        <time>2018-09-30T10:11:38Z</time>
      </trkpt>
      <trkpt lat="40.533367" lon="0.150084">
        <ele>637.041</ele>
        <time>2018-09-30T10:11:39Z</time>
      </trkpt>
      <trkpt lat="40.533414" lon="0.150053">
        <ele>637.015</ele>
        <time>2018-09-30T10:11:40Z</time>
      </trkpt>
      <trkpt lat="40.533469" lon="0.150024">
        <ele>636.008</ele>
        <time>2018-09-30T10:11:41Z</time>
      </trkpt>
      <trkpt lat="40.533526" lon="0.150000">
        <ele>635.570</ele>
        <time>2018-09-30T10:11:42Z</time>
      </trkpt>
      <trkpt lat="40.533591" lon="0.149972">
        <ele>634.127</ele>
        <time>2018-09-30T10:11:43Z</time>
      </trkpt>
      <trkpt lat="40.533658" lon="0.149939">
        <ele>633.681</ele>
        <time>2018-09-30T10:11:44Z</time>
      </trkpt>
      <trkpt lat="40.533993" lon="0.149693">
        <ele>630.219</ele>
        <time>2018-09-30T10:11:49Z</time>
      </trkpt>
      <trkpt lat="40.534239" lon="0.149488">
        <ele>626.967</ele>
        <time>2018-09-30T10:11:53Z</time>
      </trkpt>
      <trkpt lat="40.534337" lon="0.149390">
        <ele>625.910</ele>
        <time>2018-09-30T10:11:55Z</time>
      </trkpt>
      <trkpt lat="40.534376" lon="0.149319">
        <ele>625.479</ele>
        <time>2018-09-30T10:11:56Z</time>
      </trkpt>
      <trkpt lat="40.534404" lon="0.149232">
        <ele>624.030</ele>
        <time>2018-09-30T10:11:57Z</time>
      </trkpt>
      <trkpt lat="40.534421" lon="0.149140">
        <ele>624.061</ele>
        <time>2018-09-30T10:11:58Z</time>
      </trkpt>
      <trkpt lat="40.534428" lon="0.149038">
        <ele>623.521</ele>
        <time>2018-09-30T10:11:59Z</time>
      </trkpt>
      <trkpt lat="40.534440" lon="0.148937">
        <ele>623.513</ele>
        <time>2018-09-30T10:12:00Z</time>
      </trkpt>
      <trkpt lat="40.534465" lon="0.148844">
        <ele>623.008</ele>
        <time>2018-09-30T10:12:01Z</time>
      </trkpt>
      <trkpt lat="40.534500" lon="0.148749">
        <ele>622.569</ele>
        <time>2018-09-30T10:12:02Z</time>
      </trkpt>
      <trkpt lat="40.534530" lon="0.148653">
        <ele>622.526</ele>
        <time>2018-09-30T10:12:03Z</time>
      </trkpt>
      <trkpt lat="40.534552" lon="0.148543">
        <ele>621.640</ele>
        <time>2018-09-30T10:12:04Z</time>
      </trkpt>
      <trkpt lat="40.534556" lon="0.148435">
        <ele>620.138</ele>
        <time>2018-09-30T10:12:05Z</time>
      </trkpt>
      <trkpt lat="40.534545" lon="0.148311">
        <ele>619.796</ele>
        <time>2018-09-30T10:12:06Z</time>
      </trkpt>
      <trkpt lat="40.534530" lon="0.148201">
        <ele>619.739</ele>
        <time>2018-09-30T10:12:07Z</time>
      </trkpt>
      <trkpt lat="40.534517" lon="0.148075">
        <ele>618.728</ele>
        <time>2018-09-30T10:12:08Z</time>
      </trkpt>
      <trkpt lat="40.534511" lon="0.147959">
        <ele>617.759</ele>
        <time>2018-09-30T10:12:09Z</time>
      </trkpt>
      <trkpt lat="40.534513" lon="0.147825">
        <ele>617.318</ele>
        <time>2018-09-30T10:12:10Z</time>
      </trkpt>
      <trkpt lat="40.534524" lon="0.147697">
        <ele>616.898</ele>
        <time>2018-09-30T10:12:11Z</time>
      </trkpt>
      <trkpt lat="40.534540" lon="0.147578">
        <ele>616.317</ele>
        <time>2018-09-30T10:12:12Z</time>
      </trkpt>
      <trkpt lat="40.534673" lon="0.146790">
        <ele>612.508</ele>
        <time>2018-09-30T10:12:18Z</time>
      </trkpt>
      <trkpt lat="40.534750" lon="0.146259">
        <ele>609.134</ele>
        <time>2018-09-30T10:12:23Z</time>
      </trkpt>
      <trkpt lat="40.534738" lon="0.146189">
        <ele>608.111</ele>
        <time>2018-09-30T10:12:24Z</time>
      </trkpt>
      <trkpt lat="40.534702" lon="0.146140">
        <ele>607.615</ele>
        <time>2018-09-30T10:12:25Z</time>
      </trkpt>
      <trkpt lat="40.534653" lon="0.146125">
        <ele>606.773</ele>
        <time>2018-09-30T10:12:26Z</time>
      </trkpt>
      <trkpt lat="40.534587" lon="0.146164">
        <ele>605.741</ele>
        <time>2018-09-30T10:12:27Z</time>
      </trkpt>
      <trkpt lat="40.534545" lon="0.146241">
        <ele>605.244</ele>
        <time>2018-09-30T10:12:28Z</time>
      </trkpt>
      <trkpt lat="40.534522" lon="0.146325">
        <ele>604.313</ele>
        <time>2018-09-30T10:12:29Z</time>
      </trkpt>
      <trkpt lat="40.534504" lon="0.146434">
        <ele>603.824</ele>
        <time>2018-09-30T10:12:30Z</time>
      </trkpt>
      <trkpt lat="40.534493" lon="0.146536">
        <ele>602.839</ele>
        <time>2018-09-30T10:12:31Z</time>
      </trkpt>
      <trkpt lat="40.534475" lon="0.146652">
        <ele>601.901</ele>
        <time>2018-09-30T10:12:32Z</time>
      </trkpt>
      <trkpt lat="40.534439" lon="0.146768">
        <ele>601.421</ele>
        <time>2018-09-30T10:12:33Z</time>
      </trkpt>
      <trkpt lat="40.534386" lon="0.146879">
        <ele>600.408</ele>
        <time>2018-09-30T10:12:34Z</time>
      </trkpt>
      <trkpt lat="40.534126" lon="0.147355">
        <ele>596.626</ele>
        <time>2018-09-30T10:12:38Z</time>
      </trkpt>
      <trkpt lat="40.533949" lon="0.147712">
        <ele>593.283</ele>
        <time>2018-09-30T10:12:41Z</time>
      </trkpt>
      <trkpt lat="40.533911" lon="0.147851">
        <ele>591.867</ele>
        <time>2018-09-30T10:12:42Z</time>
      </trkpt>
      <trkpt lat="40.533884" lon="0.147990">
        <ele>590.895</ele>
        <time>2018-09-30T10:12:43Z</time>
      </trkpt>
      <trkpt lat="40.533835" lon="0.148256">
        <ele>587.933</ele>
        <time>2018-09-30T10:12:45Z</time>
      </trkpt>
      <trkpt lat="40.533795" lon="0.148368">
        <ele>587.046</ele>
        <time>2018-09-30T10:12:46Z</time>
      </trkpt>
      <trkpt lat="40.533740" lon="0.148450">
        <ele>586.015</ele>
        <time>2018-09-30T10:12:47Z</time>
      </trkpt>
      <trkpt lat="40.533666" lon="0.148502">
        <ele>585.166</ele>
        <time>2018-09-30T10:12:48Z</time>
      </trkpt>
      <trkpt lat="40.533584" lon="0.148517">
        <ele>584.115</ele>
        <time>2018-09-30T10:12:49Z</time>
      </trkpt>
      <trkpt lat="40.533492" lon="0.148508">
        <ele>583.665</ele>
        <time>2018-09-30T10:12:50Z</time>
      </trkpt>
      <trkpt lat="40.533398" lon="0.148489">
        <ele>582.711</ele>
        <time>2018-09-30T10:12:51Z</time>
      </trkpt>
      <trkpt lat="40.532979" lon="0.148410">
        <ele>578.308</ele>
        <time>2018-09-30T10:12:55Z</time>
      </trkpt>
      <trkpt lat="40.532653" lon="0.148369">
        <ele>575.044</ele>
        <time>2018-09-30T10:12:58Z</time>
      </trkpt>
      <trkpt lat="40.532473" lon="0.148344">
        <ele>572.681</ele>
        <time>2018-09-30T10:13:00Z</time>
      </trkpt>
      <trkpt lat="40.532391" lon="0.148356">
        <ele>572.175</ele>
        <time>2018-09-30T10:13:01Z</time>
      </trkpt>
      <trkpt lat="40.532306" lon="0.148396">
        <ele>571.143</ele>
        <time>2018-09-30T10:13:02Z</time>
      </trkpt>
      <trkpt lat="40.532220" lon="0.148451">
        <ele>569.781</ele>
        <time>2018-09-30T10:13:03Z</time>
      </trkpt>
      <trkpt lat="40.532138" lon="0.148508">
        <ele>568.254</ele>
        <time>2018-09-30T10:13:04Z</time>
      </trkpt>
      <trkpt lat="40.531777" lon="0.148781">
        <ele>564.923</ele>
        <time>2018-09-30T10:13:08Z</time>
      </trkpt>
      <trkpt lat="40.531489" lon="0.148989">
        <ele>562.084</ele>
        <time>2018-09-30T10:13:11Z</time>
      </trkpt>
      <trkpt lat="40.531207" lon="0.149149">
        <ele>558.134</ele>
        <time>2018-09-30T10:13:14Z</time>
      </trkpt>
      <trkpt lat="40.530968" lon="0.149271">
        <ele>554.855</ele>
        <time>2018-09-30T10:13:17Z</time>
      </trkpt>
      <trkpt lat="40.530901" lon="0.149324">
        <ele>553.810</ele>
        <time>2018-09-30T10:13:18Z</time>
      </trkpt>
      <trkpt lat="40.530846" lon="0.149390">
        <ele>553.308</ele>
        <time>2018-09-30T10:13:19Z</time>
      </trkpt>
      <trkpt lat="40.530805" lon="0.149464">
        <ele>552.446</ele>
        <time>2018-09-30T10:13:20Z</time>
      </trkpt>
      <trkpt lat="40.530769" lon="0.149540">
        <ele>551.483</ele>
        <time>2018-09-30T10:13:21Z</time>
      </trkpt>
      <trkpt lat="40.530731" lon="0.149599">
        <ele>550.947</ele>
        <time>2018-09-30T10:13:22Z</time>
      </trkpt>
      <trkpt lat="40.530687" lon="0.149639">
        <ele>550.045</ele>
        <time>2018-09-30T10:13:23Z</time>
      </trkpt>
      <trkpt lat="40.530630" lon="0.149657">
        <ele>549.563</ele>
        <time>2018-09-30T10:13:24Z</time>
      </trkpt>
      <trkpt lat="40.530570" lon="0.149642">
        <ele>548.556</ele>
        <time>2018-09-30T10:13:25Z</time>
      </trkpt>
      <trkpt lat="40.530519" lon="0.149596">
        <ele>548.035</ele>
        <time>2018-09-30T10:13:26Z</time>
      </trkpt>
      <trkpt lat="40.530483" lon="0.149524">
        <ele>547.166</ele>
        <time>2018-09-30T10:13:27Z</time>
      </trkpt>
      <trkpt lat="40.530473" lon="0.149438">
        <ele>546.181</ele>
        <time>2018-09-30T10:13:28Z</time>
      </trkpt>
      <trkpt lat="40.530491" lon="0.149355">
        <ele>545.661</ele>
        <time>2018-09-30T10:13:29Z</time>
      </trkpt>
      <trkpt lat="40.530528" lon="0.149277">
        <ele>545.217</ele>
        <time>2018-09-30T10:13:30Z</time>
      </trkpt>
      <trkpt lat="40.530573" lon="0.149209">
        <ele>545.208</ele>
        <time>2018-09-30T10:13:31Z</time>
      </trkpt>
      <trkpt lat="40.530615" lon="0.149153">
        <ele>544.291</ele>
        <time>2018-09-30T10:13:32Z</time>
      </trkpt>
      <trkpt lat="40.530947" lon="0.148664">
        <ele>542.328</ele>
        <time>2018-09-30T10:13:39Z</time>
      </trkpt>
      <trkpt lat="40.530854" lon="0.148790">
        <ele>542.382</ele>
        <time>2018-09-30T10:13:40Z</time>
      </trkpt>
      <trkpt lat="40.531028" lon="0.148509">
        <ele>542.330</ele>
        <time>2018-09-30T10:13:42Z</time>
      </trkpt>
      <trkpt lat="40.530992" lon="0.148387">
        <ele>542.368</ele>
        <time>2018-09-30T10:13:43Z</time>
      </trkpt>
      <trkpt lat="40.530893" lon="0.148332">
        <ele>541.881</ele>
        <time>2018-09-30T10:13:44Z</time>
      </trkpt>
      <trkpt lat="40.530650" lon="0.148509">
        <ele>541.840</ele>
        <time>2018-09-30T10:13:45Z</time>
      </trkpt>
      <trkpt lat="40.530426" lon="0.148697">
        <ele>538.911</ele>
        <time>2018-09-30T10:13:51Z</time>
      </trkpt>
      <trkpt lat="40.530282" lon="0.148785">
        <ele>535.533</ele>
        <time>2018-09-30T10:13:55Z</time>
      </trkpt>
      <trkpt lat="40.530111" lon="0.148896">
        <ele>532.223</ele>
        <time>2018-09-30T10:14:00Z</time>
      </trkpt>
      <trkpt lat="40.530013" lon="0.148951">
        <ele>531.715</ele>
        <time>2018-09-30T10:14:01Z</time>
      </trkpt>
      <trkpt lat="40.529842" lon="0.149018">
        <ele>526.908</ele>
        <time>2018-09-30T10:14:08Z</time>
      </trkpt>
      <trkpt lat="40.529716" lon="0.149106">
        <ele>525.546</ele>
        <time>2018-09-30T10:14:10Z</time>
      </trkpt>
      <trkpt lat="40.529608" lon="0.149190">
        <ele>523.563</ele>
        <time>2018-09-30T10:14:14Z</time>
      </trkpt>
      <trkpt lat="40.529275" lon="0.149320">
        <ele>520.647</ele>
        <time>2018-09-30T10:14:19Z</time>
      </trkpt>
      <trkpt lat="40.529195" lon="0.149326">
        <ele>520.245</ele>
        <time>2018-09-30T10:14:20Z</time>
      </trkpt>
      <trkpt lat="40.529117" lon="0.149311">
        <ele>519.773</ele>
        <time>2018-09-30T10:14:21Z</time>
      </trkpt>
      <trkpt lat="40.529048" lon="0.149279">
        <ele>519.296</ele>
        <time>2018-09-30T10:14:22Z</time>
      </trkpt>
      <trkpt lat="40.528970" lon="0.149231">
        <ele>518.735</ele>
        <time>2018-09-30T10:14:23Z</time>
      </trkpt>
      <trkpt lat="40.528484" lon="0.148951">
        <ele>514.946</ele>
        <time>2018-09-30T10:14:29Z</time>
      </trkpt>
      <trkpt lat="40.528164" lon="0.148737">
        <ele>511.596</ele>
        <time>2018-09-30T10:14:33Z</time>
      </trkpt>
      <trkpt lat="40.528018" lon="0.148645">
        <ele>509.631</ele>
        <time>2018-09-30T10:14:35Z</time>
      </trkpt>
      <trkpt lat="40.527949" lon="0.148636">
        <ele>508.624</ele>
        <time>2018-09-30T10:14:36Z</time>
      </trkpt>
      <trkpt lat="40.527870" lon="0.148661">
        <ele>507.708</ele>
        <time>2018-09-30T10:14:37Z</time>
      </trkpt>
      <trkpt lat="40.527801" lon="0.148718">
        <ele>506.762</ele>
        <time>2018-09-30T10:14:38Z</time>
      </trkpt>
      <trkpt lat="40.527748" lon="0.148795">
        <ele>505.739</ele>
        <time>2018-09-30T10:14:39Z</time>
      </trkpt>
      <trkpt lat="40.527702" lon="0.148905">
        <ele>504.853</ele>
        <time>2018-09-30T10:14:40Z</time>
      </trkpt>
      <trkpt lat="40.527666" lon="0.149017">
        <ele>504.331</ele>
        <time>2018-09-30T10:14:41Z</time>
      </trkpt>
      <trkpt lat="40.527563" lon="0.149383">
        <ele>500.519</ele>
        <time>2018-09-30T10:14:44Z</time>
      </trkpt>
      <trkpt lat="40.527531" lon="0.149470">
        <ele>499.592</ele>
        <time>2018-09-30T10:14:45Z</time>
      </trkpt>
      <trkpt lat="40.527490" lon="0.149539">
        <ele>498.511</ele>
        <time>2018-09-30T10:14:46Z</time>
      </trkpt>
      <trkpt lat="40.527442" lon="0.149577">
        <ele>497.612</ele>
        <time>2018-09-30T10:14:47Z</time>
      </trkpt>
      <trkpt lat="40.527378" lon="0.149583">
        <ele>496.656</ele>
        <time>2018-09-30T10:14:48Z</time>
      </trkpt>
      <trkpt lat="40.527320" lon="0.149551">
        <ele>496.159</ele>
        <time>2018-09-30T10:14:49Z</time>
      </trkpt>
      <trkpt lat="40.527267" lon="0.149490">
        <ele>495.214</ele>
        <time>2018-09-30T10:14:50Z</time>
      </trkpt>
      <trkpt lat="40.527219" lon="0.149437">
        <ele>494.708</ele>
        <time>2018-09-30T10:14:51Z</time>
      </trkpt>
      <trkpt lat="40.527156" lon="0.149400">
        <ele>494.298</ele>
        <time>2018-09-30T10:14:52Z</time>
      </trkpt>
      <trkpt lat="40.527083" lon="0.149393">
        <ele>493.265</ele>
        <time>2018-09-30T10:14:53Z</time>
      </trkpt>
      <trkpt lat="40.527011" lon="0.149408">
        <ele>492.899</ele>
        <time>2018-09-30T10:14:54Z</time>
      </trkpt>
      <trkpt lat="40.526927" lon="0.149438">
        <ele>492.367</ele>
        <time>2018-09-30T10:14:55Z</time>
      </trkpt>
      <trkpt lat="40.526846" lon="0.149469">
        <ele>491.375</ele>
        <time>2018-09-30T10:14:56Z</time>
      </trkpt>
      <trkpt lat="40.526558" lon="0.149542">
        <ele>488.478</ele>
        <time>2018-09-30T10:14:59Z</time>
      </trkpt>
      <trkpt lat="40.526451" lon="0.149541">
        <ele>487.517</ele>
        <time>2018-09-30T10:15:00Z</time>
      </trkpt>
      <trkpt lat="40.526353" lon="0.149526">
        <ele>486.548</ele>
        <time>2018-09-30T10:15:01Z</time>
      </trkpt>
      <trkpt lat="40.526242" lon="0.149501">
        <ele>486.079</ele>
        <time>2018-09-30T10:15:02Z</time>
      </trkpt>
      <trkpt lat="40.526149" lon="0.149471">
        <ele>485.105</ele>
        <time>2018-09-30T10:15:03Z</time>
      </trkpt>
      <trkpt lat="40.526046" lon="0.149433">
        <ele>485.125</ele>
        <time>2018-09-30T10:15:04Z</time>
      </trkpt>
      <trkpt lat="40.525855" lon="0.149375">
        <ele>485.108</ele>
        <time>2018-09-30T10:15:06Z</time>
      </trkpt>
      <trkpt lat="40.525767" lon="0.149363">
        <ele>485.190</ele>
        <time>2018-09-30T10:15:07Z</time>
      </trkpt>
      <trkpt lat="40.525671" lon="0.149361">
        <ele>484.627</ele>
        <time>2018-09-30T10:15:08Z</time>
      </trkpt>
      <trkpt lat="40.525216" lon="0.149387">
        <ele>483.661</ele>
        <time>2018-09-30T10:15:14Z</time>
      </trkpt>
      <trkpt lat="40.525154" lon="0.149399">
        <ele>483.689</ele>
        <time>2018-09-30T10:15:15Z</time>
      </trkpt>
      <trkpt lat="40.525097" lon="0.149423">
        <ele>484.157</ele>
        <time>2018-09-30T10:15:16Z</time>
      </trkpt>
      <trkpt lat="40.525043" lon="0.149464">
        <ele>484.180</ele>
        <time>2018-09-30T10:15:17Z</time>
      </trkpt>
      <trkpt lat="40.524994" lon="0.149520">
        <ele>484.189</ele>
        <time>2018-09-30T10:15:18Z</time>
      </trkpt>
      <trkpt lat="40.524948" lon="0.149591">
        <ele>484.110</ele>
        <time>2018-09-30T10:15:19Z</time>
      </trkpt>
      <trkpt lat="40.524914" lon="0.149662">
        <ele>483.643</ele>
        <time>2018-09-30T10:15:20Z</time>
      </trkpt>
      <trkpt lat="40.524886" lon="0.149745">
        <ele>483.264</ele>
        <time>2018-09-30T10:15:21Z</time>
      </trkpt>
      <trkpt lat="40.524870" lon="0.149840">
        <ele>483.210</ele>
        <time>2018-09-30T10:15:22Z</time>
      </trkpt>
      <trkpt lat="40.524868" lon="0.149940">
        <ele>482.208</ele>
        <time>2018-09-30T10:15:23Z</time>
      </trkpt>
      <trkpt lat="40.524884" lon="0.150044">
        <ele>481.757</ele>
        <time>2018-09-30T10:15:24Z</time>
      </trkpt>
      <trkpt lat="40.524913" lon="0.150140">
        <ele>481.244</ele>
        <time>2018-09-30T10:15:25Z</time>
      </trkpt>
      <trkpt lat="40.524950" lon="0.150234">
        <ele>480.828</ele>
        <time>2018-09-30T10:15:26Z</time>
      </trkpt>
      <trkpt lat="40.524989" lon="0.150327">
        <ele>479.886</ele>
        <time>2018-09-30T10:15:27Z</time>
      </trkpt>
      <trkpt lat="40.525060" lon="0.150518">
        <ele>478.864</ele>
        <time>2018-09-30T10:15:29Z</time>
      </trkpt>
      <trkpt lat="40.525082" lon="0.150619">
        <ele>478.367</ele>
        <time>2018-09-30T10:15:30Z</time>
      </trkpt>
      <trkpt lat="40.525090" lon="0.150721">
        <ele>478.336</ele>
        <time>2018-09-30T10:15:31Z</time>
      </trkpt>
      <trkpt lat="40.525088" lon="0.150831">
        <ele>478.367</ele>
        <time>2018-09-30T10:15:32Z</time>
      </trkpt>
      <trkpt lat="40.525079" lon="0.150924">
        <ele>477.997</ele>
        <time>2018-09-30T10:15:33Z</time>
      </trkpt>
      <trkpt lat="40.525058" lon="0.151022">
        <ele>477.423</ele>
        <time>2018-09-30T10:15:34Z</time>
      </trkpt>
      <trkpt lat="40.525021" lon="0.151118">
        <ele>477.425</ele>
        <time>2018-09-30T10:15:35Z</time>
      </trkpt>
      <trkpt lat="40.524975" lon="0.151203">
        <ele>476.908</ele>
        <time>2018-09-30T10:15:36Z</time>
      </trkpt>
      <trkpt lat="40.524921" lon="0.151286">
        <ele>476.472</ele>
        <time>2018-09-30T10:15:37Z</time>
      </trkpt>
      <trkpt lat="40.524863" lon="0.151356">
        <ele>475.939</ele>
        <time>2018-09-30T10:15:38Z</time>
      </trkpt>
      <trkpt lat="40.524793" lon="0.151419">
        <ele>475.593</ele>
        <time>2018-09-30T10:15:39Z</time>
      </trkpt>
      <trkpt lat="40.524719" lon="0.151460">
        <ele>475.531</ele>
        <time>2018-09-30T10:15:40Z</time>
      </trkpt>
      <trkpt lat="40.524636" lon="0.151483">
        <ele>474.559</ele>
        <time>2018-09-30T10:15:41Z</time>
      </trkpt>
      <trkpt lat="40.524550" lon="0.151496">
        <ele>474.532</ele>
        <time>2018-09-30T10:15:42Z</time>
      </trkpt>
      <trkpt lat="40.524294" lon="0.151555">
        <ele>473.171</ele>
        <time>2018-09-30T10:15:45Z</time>
      </trkpt>
      <trkpt lat="40.524213" lon="0.151592">
        <ele>472.612</ele>
        <time>2018-09-30T10:15:46Z</time>
      </trkpt>
      <trkpt lat="40.524153" lon="0.151651">
        <ele>472.176</ele>
        <time>2018-09-30T10:15:47Z</time>
      </trkpt>
      <trkpt lat="40.524107" lon="0.151746">
        <ele>471.190</ele>
        <time>2018-09-30T10:15:48Z</time>
      </trkpt>
      <trkpt lat="40.524083" lon="0.151841">
        <ele>470.719</ele>
        <time>2018-09-30T10:15:49Z</time>
      </trkpt>
      <trkpt lat="40.524065" lon="0.151949">
        <ele>470.708</ele>
        <time>2018-09-30T10:15:50Z</time>
      </trkpt>
      <trkpt lat="40.524049" lon="0.152065">
        <ele>470.240</ele>
        <time>2018-09-30T10:15:51Z</time>
      </trkpt>
      <trkpt lat="40.523978" lon="0.152513">
        <ele>468.347</ele>
        <time>2018-09-30T10:15:55Z</time>
      </trkpt>
      <trkpt lat="40.523854" lon="0.153044">
        <ele>467.381</ele>
        <time>2018-09-30T10:16:00Z</time>
      </trkpt>
      <trkpt lat="40.523689" lon="0.153621">
        <ele>465.969</ele>
        <time>2018-09-30T10:16:06Z</time>
      </trkpt>
      <trkpt lat="40.523679" lon="0.153721">
        <ele>465.937</ele>
        <time>2018-09-30T10:16:07Z</time>
      </trkpt>
      <trkpt lat="40.523675" lon="0.153822">
        <ele>465.410</ele>
        <time>2018-09-30T10:16:08Z</time>
      </trkpt>
      <trkpt lat="40.523672" lon="0.154465">
        <ele>462.559</ele>
        <time>2018-09-30T10:16:14Z</time>
      </trkpt>
      <trkpt lat="40.523658" lon="0.154655">
        <ele>462.570</ele>
        <time>2018-09-30T10:16:16Z</time>
      </trkpt>
      <trkpt lat="40.523634" lon="0.154739">
        <ele>462.562</ele>
        <time>2018-09-30T10:16:17Z</time>
      </trkpt>
      <trkpt lat="40.523603" lon="0.154819">
        <ele>461.583</ele>
        <time>2018-09-30T10:16:18Z</time>
      </trkpt>
      <trkpt lat="40.523279" lon="0.155567">
        <ele>459.611</ele>
        <time>2018-09-30T10:16:27Z</time>
      </trkpt>
      <trkpt lat="40.522974" lon="0.156247">
        <ele>459.108</ele>
        <time>2018-09-30T10:16:35Z</time>
      </trkpt>
      <trkpt lat="40.522759" lon="0.156513">
        <ele>458.629</ele>
        <time>2018-09-30T10:16:39Z</time>
      </trkpt>
      <trkpt lat="40.522696" lon="0.156562">
        <ele>458.216</ele>
        <time>2018-09-30T10:16:40Z</time>
      </trkpt>
      <trkpt lat="40.522297" lon="0.156812">
        <ele>456.250</ele>
        <time>2018-09-30T10:16:46Z</time>
      </trkpt>
      <trkpt lat="40.522237" lon="0.156868">
        <ele>456.278</ele>
        <time>2018-09-30T10:16:47Z</time>
      </trkpt>
      <trkpt lat="40.522181" lon="0.156945">
        <ele>455.856</ele>
        <time>2018-09-30T10:16:48Z</time>
      </trkpt>
      <trkpt lat="40.522041" lon="0.157167">
        <ele>455.379</ele>
        <time>2018-09-30T10:16:51Z</time>
      </trkpt>
      <trkpt lat="40.522004" lon="0.157243">
        <ele>455.318</ele>
        <time>2018-09-30T10:16:52Z</time>
      </trkpt>
      <trkpt lat="40.521742" lon="0.157794">
        <ele>455.339</ele>
        <time>2018-09-30T10:17:00Z</time>
      </trkpt>
      <trkpt lat="40.521564" lon="0.158110">
        <ele>453.891</ele>
        <time>2018-09-30T10:17:05Z</time>
      </trkpt>
      <trkpt lat="40.521444" lon="0.158289">
        <ele>453.881</ele>
        <time>2018-09-30T10:17:08Z</time>
      </trkpt>
      <trkpt lat="40.521388" lon="0.158412">
        <ele>453.419</ele>
        <time>2018-09-30T10:17:10Z</time>
      </trkpt>
      <trkpt lat="40.521299" lon="0.158368">
        <ele>450.708</ele>
        <time>2018-11-11T09:05:55Z</time>
      </trkpt>
      <trkpt lat="40.521272" lon="0.158180">
        <ele>453.222</ele>
        <time>2018-11-11T09:06:15Z</time>
      </trkpt>
      <trkpt lat="40.521074" lon="0.158202">
        <ele>454.689</ele>
        <time>2018-11-11T09:06:35Z</time>
      </trkpt>
      <trkpt lat="40.520886" lon="0.158135">
        <ele>455.923</ele>
        <time>2018-11-11T09:06:55Z</time>
      </trkpt>
      <trkpt lat="40.520841" lon="0.158014">
        <ele>456.951</ele>
        <time>2018-11-11T09:07:15Z</time>
      </trkpt>
      <trkpt lat="40.520805" lon="0.157814">
        <ele>457.899</ele>
        <time>2018-11-11T09:07:35Z</time>
      </trkpt>
      <trkpt lat="40.520553" lon="0.157925">
        <ele>455.192</ele>
        <time>2018-11-11T09:07:55Z</time>
      </trkpt>
      <trkpt lat="40.520275" lon="0.158047">
        <ele>452.951</ele>
        <time>2018-11-11T09:08:15Z</time>
      </trkpt>
      <trkpt lat="40.519987" lon="0.158113">
        <ele>451.872</ele>
        <time>2018-11-11T09:08:35Z</time>
      </trkpt>
      <trkpt lat="40.519619" lon="0.158224">
        <ele>451.537</ele>
        <time>2018-11-11T09:08:55Z</time>
      </trkpt>
      <trkpt lat="40.519233" lon="0.158323">
        <ele>451.049</ele>
        <time>2018-11-11T09:09:15Z</time>
      </trkpt>
    </trkseg>
  </trk>
</gpx>
